<?xml version='1.0' encoding='UTF-8'?><gpx version="1.1" creator="JPX - https://github.com/jenetics/jpx" xmlns="http://www.topografix.com/GPX/1/1"><trk><trkseg><trkpt lat="41.0043037858254" lon="9.615223451684455"><ele>9.0</ele><time>2026-04-25T09:22:15Z</time></trkpt><trkpt lat="41.004355241241775" lon="9.615121589097964"><ele>9.0</ele><time>2026-04-25T09:22:16Z</time></trkpt><trkpt lat="41.00441933483787" lon="9.614957569585144"><ele>9.0</ele><time>2026-04-25T09:22:17Z</time></trkpt><trkpt lat="41.00449405479148" lon="9.614765842086083"><ele>9.0</ele><time>2026-04-25T09:22:18Z</time></trkpt><trkpt lat="41.00457222917774" lon="9.614577049900111"><ele>8.333333333333334</ele><time>2026-04-25T09:22:19Z</time></trkpt><trkpt lat="41.004638169735934" lon="9.614406957957373"><ele>7.666666666666667</ele><time>2026-04-25T09:22:20Z</time></trkpt><trkpt lat="41.00470549328096" lon="9.614231212685391"><ele>7.0</ele><time>2026-04-25T09:22:21Z</time></trkpt><trkpt lat="41.00478615223492" lon="9.614028152357795"><ele>7.0</ele><time>2026-04-25T09:22:22Z</time></trkpt><trkpt lat="41.00486540595519" lon="9.613827899544956"><ele>7.0</ele><time>2026-04-25T09:22:23Z</time></trkpt><trkpt lat="41.00490323894722" lon="9.613646500476388"><ele>7.0</ele><time>2026-04-25T09:22:24Z</time></trkpt><trkpt lat="41.00489354872466" lon="9.613455778056071"><ele>6.25</ele><time>2026-04-25T09:22:25Z</time></trkpt><trkpt lat="41.00485567228043" lon="9.613262468945466"><ele>5.5</ele><time>2026-04-25T09:22:26Z</time></trkpt><trkpt lat="41.00479295417547" lon="9.613070240295992"><ele>4.75</ele><time>2026-04-25T09:22:27Z</time></trkpt><trkpt lat="41.004735266089234" lon="9.612902063572871"><ele>4.0</ele><time>2026-04-25T09:22:28Z</time></trkpt><trkpt lat="41.00469250089994" lon="9.612745187319135"><ele>3.9999999999999996</ele><time>2026-04-25T09:22:29Z</time></trkpt><trkpt lat="41.00466130741705" lon="9.612632144647916"><ele>4.0</ele><time>2026-04-25T09:22:30Z</time></trkpt><trkpt lat="41.004635120251656" lon="9.612529909735178"><ele>4.0</ele><time>2026-04-25T09:22:31Z</time></trkpt><trkpt lat="41.00461262205413" lon="9.612427718899692"><ele>4.0</ele><time>2026-04-25T09:22:32Z</time></trkpt><trkpt lat="41.00459154759312" lon="9.61233490962022"><ele>3.9999999999999996</ele><time>2026-04-25T09:22:33Z</time></trkpt><trkpt lat="41.00457053287205" lon="9.612246404115751"><ele>4.0</ele><time>2026-04-25T09:22:34Z</time></trkpt><trkpt lat="41.00455036513707" lon="9.612165599195755"><ele>3.9999999999999996</ele><time>2026-04-25T09:22:35Z</time></trkpt><trkpt lat="41.004533596584054" lon="9.612083278084627"><ele>4.0</ele><time>2026-04-25T09:22:36Z</time></trkpt><trkpt lat="41.00450038506265" lon="9.611937664464214"><ele>4.0</ele><time>2026-04-25T09:22:38Z</time></trkpt><trkpt lat="41.004480693227435" lon="9.611854794622332"><ele>4.0</ele><time>2026-04-25T09:22:39Z</time></trkpt><trkpt lat="41.00445891587229" lon="9.611758777686092"><ele>3.9999999999999996</ele><time>2026-04-25T09:22:40Z</time></trkpt><trkpt lat="41.004453666790006" lon="9.611651480210778"><ele>4.0</ele><time>2026-04-25T09:22:41Z</time></trkpt><trkpt lat="41.00442512543713" lon="9.611557537264321"><ele>4.2</ele><time>2026-04-25T09:22:42Z</time></trkpt><trkpt lat="41.00443469483852" lon="9.611441411174603"><ele>4.4</ele><time>2026-04-25T09:22:43Z</time></trkpt><trkpt lat="41.00444170388314" lon="9.611291112161854"><ele>4.6</ele><time>2026-04-25T09:22:44Z</time></trkpt><trkpt lat="41.00447383766433" lon="9.611132781035503"><ele>4.8</ele><time>2026-04-25T09:22:45Z</time></trkpt><trkpt lat="41.00453541875425" lon="9.610990701878995"><ele>5.0</ele><time>2026-04-25T09:22:46Z</time></trkpt><trkpt lat="41.004637393509896" lon="9.610858416140736"><ele>5.0</ele><time>2026-04-25T09:22:46.999Z</time></trkpt><trkpt lat="41.00473780678464" lon="9.61068709791361"><ele>5.0</ele><time>2026-04-25T09:22:47.999Z</time></trkpt><trkpt lat="41.00485558253482" lon="9.61054235143579"><ele>5.0</ele><time>2026-04-25T09:22:48.999Z</time></trkpt><trkpt lat="41.00495703706707" lon="9.61040927361279"><ele>5.0</ele><time>2026-04-25T09:22:49.999Z</time></trkpt><trkpt lat="41.005039835223755" lon="9.610276294487436"><ele>5.0</ele><time>2026-04-25T09:22:50.999Z</time></trkpt><trkpt lat="41.005113895720704" lon="9.610145450665929"><ele>5.0</ele><time>2026-04-25T09:22:51.999Z</time></trkpt><trkpt lat="41.005173541911745" lon="9.610015931448357"><ele>5.0</ele><time>2026-04-25T09:22:52.999Z</time></trkpt><trkpt lat="41.00522446166353" lon="9.609899450341812"><ele>5.0</ele><time>2026-04-25T09:22:53.999Z</time></trkpt><trkpt lat="41.005276025435386" lon="9.609805603992504"><ele>5.0</ele><time>2026-04-25T09:22:54.999Z</time></trkpt><trkpt lat="41.00531912344598" lon="9.609714479096883"><ele>5.0</ele><time>2026-04-25T09:22:55.999Z</time></trkpt><trkpt lat="41.0053434298884" lon="9.609622117017757"><ele>5.0</ele><time>2026-04-25T09:22:57Z</time></trkpt><trkpt lat="41.00535361186857" lon="9.609525378813903"><ele>5.0</ele><time>2026-04-25T09:22:58Z</time></trkpt><trkpt lat="41.00531751727365" lon="9.609424668103195"><ele>5.0</ele><time>2026-04-25T09:22:59Z</time></trkpt><trkpt lat="41.00523128536952" lon="9.609357990579374"><ele>5.0</ele><time>2026-04-25T09:23:00Z</time></trkpt><trkpt lat="41.005172917361776" lon="9.609320251830203"><ele>5.0</ele><time>2026-04-25T09:23:01Z</time></trkpt><trkpt lat="41.00507973326568" lon="9.609216316228196"><ele>5.0</ele><time>2026-04-25T09:23:03Z</time></trkpt><trkpt lat="41.005004450295814" lon="9.609166358695303"><ele>5.0</ele><time>2026-04-25T09:23:04Z</time></trkpt><trkpt lat="41.00491799337493" lon="9.60909180037613"><ele>5.0</ele><time>2026-04-25T09:23:05Z</time></trkpt><trkpt lat="41.00480543806749" lon="9.609024626809866"><ele>5.333333333333334</ele><time>2026-04-25T09:23:06Z</time></trkpt><trkpt lat="41.00466574887574" lon="9.608953292741464"><ele>5.666666666666667</ele><time>2026-04-25T09:23:07Z</time></trkpt><trkpt lat="41.00451379074906" lon="9.60888714644167"><ele>6.0</ele><time>2026-04-25T09:23:08Z</time></trkpt><trkpt lat="41.00436446206829" lon="9.608802122178568"><ele>6.0</ele><time>2026-04-25T09:23:09Z</time></trkpt><trkpt lat="41.00420316322964" lon="9.60868775901276"><ele>6.0</ele><time>2026-04-25T09:23:10Z</time></trkpt><trkpt lat="41.00403034127833" lon="9.608545261949219"><ele>6.0</ele><time>2026-04-25T09:23:11Z</time></trkpt><trkpt lat="41.00385790025075" lon="9.608378946462771"><ele>6.666666666666666</ele><time>2026-04-25T09:23:12Z</time></trkpt><trkpt lat="41.0036941646976" lon="9.608227682848637"><ele>7.333333333333333</ele><time>2026-04-25T09:23:13Z</time></trkpt><trkpt lat="41.003546185327046" lon="9.608096795106707"><ele>8.0</ele><time>2026-04-25T09:23:14Z</time></trkpt><trkpt lat="41.003411351704294" lon="9.607976616124972"><ele>8.25</ele><time>2026-04-25T09:23:15Z</time></trkpt><trkpt lat="41.003287382650036" lon="9.607864855596485"><ele>8.5</ele><time>2026-04-25T09:23:16Z</time></trkpt><trkpt lat="41.003178764790306" lon="9.607754861484064"><ele>8.75</ele><time>2026-04-25T09:23:17Z</time></trkpt><trkpt lat="41.00309643264074" lon="9.6076231530879"><ele>9.0</ele><time>2026-04-25T09:23:18Z</time></trkpt><trkpt lat="41.00305400300483" lon="9.60746725024127"><ele>9.0</ele><time>2026-04-25T09:23:19Z</time></trkpt><trkpt lat="41.003040261103166" lon="9.607291461448797"><ele>9.0</ele><time>2026-04-25T09:23:20Z</time></trkpt><trkpt lat="41.00308311848991" lon="9.607117664522516"><ele>9.0</ele><time>2026-04-25T09:23:21Z</time></trkpt><trkpt lat="41.00311353965508" lon="9.60691417326024"><ele>9.0</ele><time>2026-04-25T09:23:22Z</time></trkpt><trkpt lat="41.003134477947405" lon="9.606677177056547"><ele>8.666666666666666</ele><time>2026-04-25T09:23:23Z</time></trkpt><trkpt lat="41.00315577012198" lon="9.606462208046397"><ele>8.333333333333332</ele><time>2026-04-25T09:23:24Z</time></trkpt><trkpt lat="41.00314145140019" lon="9.606266418772657"><ele>8.0</ele><time>2026-04-25T09:23:25Z</time></trkpt><trkpt lat="41.003082648149864" lon="9.606093377189701"><ele>8.0</ele><time>2026-04-25T09:23:26Z</time></trkpt><trkpt lat="41.00299148906733" lon="9.605953699539342"><ele>8.0</ele><time>2026-04-25T09:23:27Z</time></trkpt><trkpt lat="41.00287824378563" lon="9.605802647843461"><ele>8.0</ele><time>2026-04-25T09:23:28Z</time></trkpt><trkpt lat="41.00276875437697" lon="9.605619624348053"><ele>8.0</ele><time>2026-04-25T09:23:29Z</time></trkpt><trkpt lat="41.00268626510957" lon="9.605408785480174"><ele>8.0</ele><time>2026-04-25T09:23:30Z</time></trkpt><trkpt lat="41.00262146029521" lon="9.60516952781224"><ele>8.0</ele><time>2026-04-25T09:23:31Z</time></trkpt><trkpt lat="41.00256537529568" lon="9.60492233818917"><ele>8.0</ele><time>2026-04-25T09:23:32Z</time></trkpt><trkpt lat="41.00253744572527" lon="9.604696207330106"><ele>8.0</ele><time>2026-04-25T09:23:33Z</time></trkpt><trkpt lat="41.00251936265218" lon="9.60448592207748"><ele>8.0</ele><time>2026-04-25T09:23:34Z</time></trkpt><trkpt lat="41.002537574391624" lon="9.604284061330109"><ele>8.0</ele><time>2026-04-25T09:23:35Z</time></trkpt><trkpt lat="41.00260433734619" lon="9.604097983729044"><ele>8.0</ele><time>2026-04-25T09:23:36Z</time></trkpt><trkpt lat="41.002704924643126" lon="9.603921249287996"><ele>8.0</ele><time>2026-04-25T09:23:37Z</time></trkpt><trkpt lat="41.00282546915803" lon="9.603714967783484"><ele>8.333333333333332</ele><time>2026-04-25T09:23:38Z</time></trkpt><trkpt lat="41.00294307604829" lon="9.603478624493574"><ele>8.666666666666666</ele><time>2026-04-25T09:23:39Z</time></trkpt><trkpt lat="41.003076602254616" lon="9.603261774440172"><ele>9.0</ele><time>2026-04-25T09:23:40Z</time></trkpt><trkpt lat="41.00320908954461" lon="9.603085019206297"><ele>10.333333333333332</ele><time>2026-04-25T09:23:41Z</time></trkpt><trkpt lat="41.0033715865584" lon="9.603003792360918"><ele>11.666666666666666</ele><time>2026-04-25T09:23:42Z</time></trkpt><trkpt lat="41.003548361872525" lon="9.602934979615638"><ele>13.0</ele><time>2026-04-25T09:23:43Z</time></trkpt><trkpt lat="41.003746046850424" lon="9.602836033129934"><ele>13.0</ele><time>2026-04-25T09:23:44Z</time></trkpt><trkpt lat="41.00395150612607" lon="9.602770509779898"><ele>13.0</ele><time>2026-04-25T09:23:45Z</time></trkpt><trkpt lat="41.00413928021799" lon="9.602710709490069"><ele>13.0</ele><time>2026-04-25T09:23:46Z</time></trkpt><trkpt lat="41.00430236270449" lon="9.602653673881191"><ele>14.0</ele><time>2026-04-25T09:23:47Z</time></trkpt><trkpt lat="41.00443062811438" lon="9.602569467391355"><ele>15.0</ele><time>2026-04-25T09:23:48Z</time></trkpt><trkpt lat="41.00452884629546" lon="9.602440108920637"><ele>16.0</ele><time>2026-04-25T09:23:49Z</time></trkpt><trkpt lat="41.00459459723728" lon="9.602267395033971"><ele>17.0</ele><time>2026-04-25T09:23:50Z</time></trkpt><trkpt lat="41.00462360726634" lon="9.602078301833096"><ele>17.5</ele><time>2026-04-25T09:23:51Z</time></trkpt><trkpt lat="41.0046103097436" lon="9.601891513473902"><ele>18.0</ele><time>2026-04-25T09:23:52Z</time></trkpt><trkpt lat="41.00455152155296" lon="9.601717699393568"><ele>18.5</ele><time>2026-04-25T09:23:53Z</time></trkpt><trkpt lat="41.0044517591871" lon="9.601551240610767"><ele>19.0</ele><time>2026-04-25T09:23:54Z</time></trkpt><trkpt lat="41.004315948629674" lon="9.601389464734567"><ele>19.0</ele><time>2026-04-25T09:23:55Z</time></trkpt><trkpt lat="41.004168357663445" lon="9.601223186452888"><ele>19.0</ele><time>2026-04-25T09:23:56Z</time></trkpt><trkpt lat="41.004017033198785" lon="9.601037337364563"><ele>19.0</ele><time>2026-04-25T09:23:57Z</time></trkpt><trkpt lat="41.00385922346002" lon="9.60084246717202"><ele>21.333333333333332</ele><time>2026-04-25T09:23:58Z</time></trkpt><trkpt lat="41.003720558828675" lon="9.60063128939169"><ele>23.666666666666664</ele><time>2026-04-25T09:23:59Z</time></trkpt><trkpt lat="41.003610565253354" lon="9.600438515239503"><ele>26.0</ele><time>2026-04-25T09:24:00Z</time></trkpt><trkpt lat="41.00353808775095" lon="9.600232306690936"><ele>28.0</ele><time>2026-04-25T09:24:01Z</time></trkpt><trkpt lat="41.00349933279474" lon="9.599992085910857"><ele>30.0</ele><time>2026-04-25T09:24:02Z</time></trkpt><trkpt lat="41.003453392520726" lon="9.599726696539776"><ele>32.0</ele><time>2026-04-25T09:24:03Z</time></trkpt><trkpt lat="41.00341931889733" lon="9.599483950088896"><ele>33.0</ele><time>2026-04-25T09:24:04Z</time></trkpt><trkpt lat="41.00342694517089" lon="9.599271716763743"><ele>34.0</ele><time>2026-04-25T09:24:05Z</time></trkpt><trkpt lat="41.00348846133805" lon="9.59909152301413"><ele>35.0</ele><time>2026-04-25T09:24:06Z</time></trkpt><trkpt lat="41.00355092846445" lon="9.598904666829606"><ele>35.0</ele><time>2026-04-25T09:24:07Z</time></trkpt><trkpt lat="41.003597538860674" lon="9.59872178610763"><ele>35.0</ele><time>2026-04-25T09:24:08Z</time></trkpt><trkpt lat="41.00366010520367" lon="9.598556397672114"><ele>35.0</ele><time>2026-04-25T09:24:09Z</time></trkpt><trkpt lat="41.00371249466433" lon="9.598401546390853"><ele>35.0</ele><time>2026-04-25T09:24:10Z</time></trkpt><trkpt lat="41.00373885536564" lon="9.598256606335363"><ele>36.2</ele><time>2026-04-25T09:24:11Z</time></trkpt><trkpt lat="41.0037213791096" lon="9.598141666902848"><ele>37.4</ele><time>2026-04-25T09:24:12Z</time></trkpt><trkpt lat="41.003674571340724" lon="9.598052300747263"><ele>38.599999999999994</ele><time>2026-04-25T09:24:13Z</time></trkpt><trkpt lat="41.00360492954345" lon="9.59796881642846"><ele>39.8</ele><time>2026-04-25T09:24:14Z</time></trkpt><trkpt lat="41.00350125642921" lon="9.597869557589833"><ele>41.0</ele><time>2026-04-25T09:24:15Z</time></trkpt><trkpt lat="41.00337316060085" lon="9.597760154673367"><ele>42.5</ele><time>2026-04-25T09:24:16Z</time></trkpt><trkpt lat="41.003254034127224" lon="9.59765445991242"><ele>44.0</ele><time>2026-04-25T09:24:17Z</time></trkpt><trkpt lat="41.00316018338976" lon="9.59756303465944"><ele>45.5</ele><time>2026-04-25T09:24:18Z</time></trkpt><trkpt lat="41.00308279103017" lon="9.597471442022586"><ele>47.0</ele><time>2026-04-25T09:24:19Z</time></trkpt><trkpt lat="41.00300363928404" lon="9.597362398118246"><ele>47.0</ele><time>2026-04-25T09:24:20Z</time></trkpt><trkpt lat="41.00292997476429" lon="9.597225430477092"><ele>47.0</ele><time>2026-04-25T09:24:21Z</time></trkpt><trkpt lat="41.00289663615851" lon="9.597054571231777"><ele>47.0</ele><time>2026-04-25T09:24:22Z</time></trkpt><trkpt lat="41.002864880289195" lon="9.59687706545152"><ele>47.0</ele><time>2026-04-25T09:24:23Z</time></trkpt><trkpt lat="41.00284628023176" lon="9.596700227646258"><ele>47.25</ele><time>2026-04-25T09:24:24Z</time></trkpt><trkpt lat="41.00282117487893" lon="9.596531952993328"><ele>47.5</ele><time>2026-04-25T09:24:25Z</time></trkpt><trkpt lat="41.00281312606576" lon="9.596379691513043"><ele>47.75</ele><time>2026-04-25T09:24:26Z</time></trkpt><trkpt lat="41.00280159919056" lon="9.59622661234451"><ele>48.0</ele><time>2026-04-25T09:24:27Z</time></trkpt><trkpt lat="41.00279404253358" lon="9.59607819801592"><ele>47.599999999999994</ele><time>2026-04-25T09:24:28Z</time></trkpt><trkpt lat="41.00279525435994" lon="9.595941830311155"><ele>47.199999999999996</ele><time>2026-04-25T09:24:29Z</time></trkpt><trkpt lat="41.002813553741085" lon="9.595847477261412"><ele>46.8</ele><time>2026-04-25T09:24:30Z</time></trkpt><trkpt lat="41.002878924118384" lon="9.595716090653426"><ele>46.4</ele><time>2026-04-25T09:24:32Z</time></trkpt><trkpt lat="41.002912903119395" lon="9.595630772327498"><ele>46.0</ele><time>2026-04-25T09:24:33Z</time></trkpt><trkpt lat="41.002987585933305" lon="9.595556180655414"><ele>46.0</ele><time>2026-04-25T09:24:34Z</time></trkpt><trkpt lat="41.003082597162944" lon="9.595487469722896"><ele>46.0</ele><time>2026-04-25T09:24:35Z</time></trkpt><trkpt lat="41.0031719216852" lon="9.59541328536064"><ele>46.0</ele><time>2026-04-25T09:24:36Z</time></trkpt><trkpt lat="41.00325044857655" lon="9.595329313722775"><ele>46.0</ele><time>2026-04-25T09:24:37Z</time></trkpt><trkpt lat="41.00330751607629" lon="9.595223429312185"><ele>46.0</ele><time>2026-04-25T09:24:38Z</time></trkpt><trkpt lat="41.003341488774424" lon="9.595091676773126"><ele>47.0</ele><time>2026-04-25T09:24:39Z</time></trkpt><trkpt lat="41.00335002472135" lon="9.594946018493664"><ele>48.0</ele><time>2026-04-25T09:24:40Z</time></trkpt><trkpt lat="41.00332647404288" lon="9.594790177583512"><ele>49.0</ele><time>2026-04-25T09:24:41Z</time></trkpt><trkpt lat="41.00329610821872" lon="9.594651890031733"><ele>50.0</ele><time>2026-04-25T09:24:42Z</time></trkpt><trkpt lat="41.003205639293505" lon="9.594548223021176"><ele>51.4</ele><time>2026-04-25T09:24:43Z</time></trkpt><trkpt lat="41.00311834286315" lon="9.59445519103617"><ele>52.8</ele><time>2026-04-25T09:24:44Z</time></trkpt><trkpt lat="41.00303002813465" lon="9.594406015282294"><ele>54.2</ele><time>2026-04-25T09:24:45Z</time></trkpt><trkpt lat="41.002945462924274" lon="9.594387264183997"><ele>55.6</ele><time>2026-04-25T09:24:46Z</time></trkpt><trkpt lat="41.00285713197638" lon="9.594385913287317"><ele>57.0</ele><time>2026-04-25T09:24:47Z</time></trkpt><trkpt lat="41.002760214539705" lon="9.594406332240775"><ele>57.0</ele><time>2026-04-25T09:24:48Z</time></trkpt><trkpt lat="41.002650573398455" lon="9.594440926778008"><ele>57.0</ele><time>2026-04-25T09:24:49Z</time></trkpt><trkpt lat="41.00254250889171" lon="9.59446665344066"><ele>57.0</ele><time>2026-04-25T09:24:50Z</time></trkpt><trkpt lat="41.00245955462281" lon="9.594484364853152"><ele>57.0</ele><time>2026-04-25T09:24:51Z</time></trkpt><trkpt lat="41.002381542774465" lon="9.594506516309496"><ele>57.0</ele><time>2026-04-25T09:24:52Z</time></trkpt><trkpt lat="41.002298514157154" lon="9.59451901509108"><ele>57.400000000000006</ele><time>2026-04-25T09:24:52.999Z</time></trkpt><trkpt lat="41.00220324557312" lon="9.594504840128973"><ele>57.800000000000004</ele><time>2026-04-25T09:24:53.999Z</time></trkpt><trkpt lat="41.002100897150434" lon="9.594460698871625"><ele>58.2</ele><time>2026-04-25T09:24:54.999Z</time></trkpt><trkpt lat="41.00201014179711" lon="9.594370264657178"><ele>58.6</ele><time>2026-04-25T09:24:55.999Z</time></trkpt><trkpt lat="41.00190485728169" lon="9.594296454191117"><ele>59.0</ele><time>2026-04-25T09:24:56.999Z</time></trkpt><trkpt lat="41.00180645454906" lon="9.59420437103533"><ele>59.0</ele><time>2026-04-25T09:24:57.999Z</time></trkpt><trkpt lat="41.001702677824355" lon="9.59410850744542"><ele>59.0</ele><time>2026-04-25T09:24:58.999Z</time></trkpt><trkpt lat="41.00159283382782" lon="9.59401636437487"><ele>59.0</ele><time>2026-04-25T09:25:00Z</time></trkpt><trkpt lat="41.00147810711985" lon="9.593940745901758"><ele>59.0</ele><time>2026-04-25T09:25:01Z</time></trkpt><trkpt lat="41.00135433163697" lon="9.59388464535848"><ele>57.75</ele><time>2026-04-25T09:25:02Z</time></trkpt><trkpt lat="41.00122110926125" lon="9.593840742085442"><ele>56.5</ele><time>2026-04-25T09:25:03Z</time></trkpt><trkpt lat="41.00107975862513" lon="9.593819204437565"><ele>55.25</ele><time>2026-04-25T09:25:04Z</time></trkpt><trkpt lat="41.00093144174993" lon="9.593797228698334"><ele>54.0</ele><time>2026-04-25T09:25:05Z</time></trkpt><trkpt lat="41.00078850190097" lon="9.593772229774896"><ele>53.75</ele><time>2026-04-25T09:25:06Z</time></trkpt><trkpt lat="41.00064760298693" lon="9.593741405046025"><ele>53.5</ele><time>2026-04-25T09:25:07Z</time></trkpt><trkpt lat="41.00051415658959" lon="9.593703828427676"><ele>53.25</ele><time>2026-04-25T09:25:08Z</time></trkpt><trkpt lat="41.00039688429242" lon="9.593649402840859"><ele>53.0</ele><time>2026-04-25T09:25:09Z</time></trkpt><trkpt lat="41.00028959416783" lon="9.593566459548589"><ele>56.75</ele><time>2026-04-25T09:25:10Z</time></trkpt><trkpt lat="41.000195801653526" lon="9.59344913778213"><ele>60.5</ele><time>2026-04-25T09:25:11Z</time></trkpt><trkpt lat="41.00012090252086" lon="9.593302190600108"><ele>64.25</ele><time>2026-04-25T09:25:12Z</time></trkpt><trkpt lat="41.00003538569811" lon="9.593171796260043"><ele>68.0</ele><time>2026-04-25T09:25:13Z</time></trkpt><trkpt lat="40.9999695210085" lon="9.593032057557242"><ele>68.0</ele><time>2026-04-25T09:25:14Z</time></trkpt><trkpt lat="40.999899221867224" lon="9.592902913583558"><ele>68.0</ele><time>2026-04-25T09:25:15Z</time></trkpt><trkpt lat="40.999799595959274" lon="9.592788809673085"><ele>68.0</ele><time>2026-04-25T09:25:16Z</time></trkpt><trkpt lat="40.999669402427486" lon="9.592692876157678"><ele>68.0</ele><time>2026-04-25T09:25:17Z</time></trkpt><trkpt lat="40.99952846594884" lon="9.592623864920961"><ele>70.75</ele><time>2026-04-25T09:25:18Z</time></trkpt><trkpt lat="40.99940357850655" lon="9.592572186298659"><ele>73.5</ele><time>2026-04-25T09:25:19Z</time></trkpt><trkpt lat="40.99928082367401" lon="9.592519478828"><ele>76.25</ele><time>2026-04-25T09:25:20Z</time></trkpt><trkpt lat="40.99915769193521" lon="9.592462571705957"><ele>79.0</ele><time>2026-04-25T09:25:21Z</time></trkpt><trkpt lat="40.99903090951156" lon="9.592401512730133"><ele>79.0</ele><time>2026-04-25T09:25:22Z</time></trkpt><trkpt lat="40.99890076045887" lon="9.592334417056307"><ele>79.0</ele><time>2026-04-25T09:25:23Z</time></trkpt><trkpt lat="40.99876984819244" lon="9.592238062995126"><ele>79.0</ele><time>2026-04-25T09:25:24Z</time></trkpt><trkpt lat="40.99864596618817" lon="9.592113831367227"><ele>79.0</ele><time>2026-04-25T09:25:25Z</time></trkpt><trkpt lat="40.99853232650713" lon="9.591982889762077"><ele>79.5</ele><time>2026-04-25T09:25:26Z</time></trkpt><trkpt lat="40.99843141613287" lon="9.591843842466039"><ele>80.0</ele><time>2026-04-25T09:25:27Z</time></trkpt><trkpt lat="40.998322653174895" lon="9.591738260466142"><ele>80.5</ele><time>2026-04-25T09:25:28Z</time></trkpt><trkpt lat="40.99819327178768" lon="9.591682232657881"><ele>81.0</ele><time>2026-04-25T09:25:29Z</time></trkpt><trkpt lat="40.99805076810038" lon="9.591659938831478"><ele>81.0</ele><time>2026-04-25T09:25:30Z</time></trkpt><trkpt lat="40.99791229494232" lon="9.591667751324604"><ele>81.0</ele><time>2026-04-25T09:25:31Z</time></trkpt><trkpt lat="40.99777312746551" lon="9.591690423795592"><ele>81.0</ele><time>2026-04-25T09:25:32Z</time></trkpt><trkpt lat="40.997629267859864" lon="9.591712090957376"><ele>81.0</ele><time>2026-04-25T09:25:33Z</time></trkpt><trkpt lat="40.99747423978905" lon="9.591729781566547"><ele>80.66666666666667</ele><time>2026-04-25T09:25:34Z</time></trkpt><trkpt lat="40.99732136096817" lon="9.591734458939515"><ele>80.33333333333334</ele><time>2026-04-25T09:25:35Z</time></trkpt><trkpt lat="40.99717609662398" lon="9.591712549199556"><ele>80.0</ele><time>2026-04-25T09:25:36Z</time></trkpt><trkpt lat="40.99702877320213" lon="9.591660146354158"><ele>80.0</ele><time>2026-04-25T09:25:37Z</time></trkpt><trkpt lat="40.996877828507806" lon="9.59157847847471"><ele>80.0</ele><time>2026-04-25T09:25:38Z</time></trkpt><trkpt lat="40.99672470092416" lon="9.591486476376629"><ele>80.0</ele><time>2026-04-25T09:25:39Z</time></trkpt><trkpt lat="40.99657778402262" lon="9.591409332073543"><ele>81.5</ele><time>2026-04-25T09:25:40Z</time></trkpt><trkpt lat="40.99644310876303" lon="9.591333536835032"><ele>83.0</ele><time>2026-04-25T09:25:41Z</time></trkpt><trkpt lat="40.99632248744246" lon="9.591242189586438"><ele>84.5</ele><time>2026-04-25T09:25:42Z</time></trkpt><trkpt lat="40.99622407761272" lon="9.591119841983842"><ele>86.0</ele><time>2026-04-25T09:25:43Z</time></trkpt><trkpt lat="40.996146863703125" lon="9.590975059617833"><ele>86.0</ele><time>2026-04-25T09:25:44Z</time></trkpt><trkpt lat="40.996102703081576" lon="9.590806118539865"><ele>86.0</ele><time>2026-04-25T09:25:45Z</time></trkpt><trkpt lat="40.99608907227155" lon="9.590629312758093"><ele>86.0</ele><time>2026-04-25T09:25:46Z</time></trkpt><trkpt lat="40.99613681037801" lon="9.590455383649854"><ele>86.0</ele><time>2026-04-25T09:25:47Z</time></trkpt><trkpt lat="40.99618789686321" lon="9.590276557892455"><ele>86.33333333333334</ele><time>2026-04-25T09:25:48Z</time></trkpt><trkpt lat="40.99624862975439" lon="9.590063029544948"><ele>86.66666666666667</ele><time>2026-04-25T09:25:49Z</time></trkpt><trkpt lat="40.99629942544287" lon="9.58983195791358"><ele>87.0</ele><time>2026-04-25T09:25:50Z</time></trkpt><trkpt lat="40.996359681352004" lon="9.589632820409367"><ele>84.0</ele><time>2026-04-25T09:25:51Z</time></trkpt><trkpt lat="40.99642350387735" lon="9.589442235276318"><ele>81.0</ele><time>2026-04-25T09:25:52Z</time></trkpt><trkpt lat="40.99649616190824" lon="9.5892614217961"><ele>78.0</ele><time>2026-04-25T09:25:53Z</time></trkpt><trkpt lat="40.99658476026812" lon="9.58907889088801"><ele>78.0</ele><time>2026-04-25T09:25:54Z</time></trkpt><trkpt lat="40.99668120345672" lon="9.588902081681608"><ele>78.0</ele><time>2026-04-25T09:25:55Z</time></trkpt><trkpt lat="40.996772472308855" lon="9.588728754424361"><ele>78.0</ele><time>2026-04-25T09:25:56Z</time></trkpt><trkpt lat="40.99685488092351" lon="9.588570990724294"><ele>78.0</ele><time>2026-04-25T09:25:57Z</time></trkpt><trkpt lat="40.99692825039901" lon="9.588423809482663"><ele>78.0</ele><time>2026-04-25T09:25:58Z</time></trkpt><trkpt lat="40.99700916788642" lon="9.588265121931382"><ele>78.0</ele><time>2026-04-25T09:25:59Z</time></trkpt><trkpt lat="40.99709608043771" lon="9.588090208232513"><ele>78.0</ele><time>2026-04-25T09:26:00Z</time></trkpt><trkpt lat="40.99718809840045" lon="9.587908812605438"><ele>75.33333333333333</ele><time>2026-04-25T09:26:01Z</time></trkpt><trkpt lat="40.99728317627367" lon="9.587718832728552"><ele>72.66666666666666</ele><time>2026-04-25T09:26:02Z</time></trkpt><trkpt lat="40.9973804793018" lon="9.587523312798746"><ele>70.0</ele><time>2026-04-25T09:26:03Z</time></trkpt><trkpt lat="40.99748238365473" lon="9.587321569742917"><ele>69.0</ele><time>2026-04-25T09:26:04Z</time></trkpt><trkpt lat="40.99757656698383" lon="9.587133257260739"><ele>68.0</ele><time>2026-04-25T09:26:05Z</time></trkpt><trkpt lat="40.99766435442034" lon="9.586947020736732"><ele>67.0</ele><time>2026-04-25T09:26:06Z</time></trkpt><trkpt lat="40.997747638863814" lon="9.586750566479612"><ele>67.0</ele><time>2026-04-25T09:26:07Z</time></trkpt><trkpt lat="40.997813728474256" lon="9.586542963355283"><ele>67.0</ele><time>2026-04-25T09:26:08Z</time></trkpt><trkpt lat="40.99784748349006" lon="9.586329504557124"><ele>67.0</ele><time>2026-04-25T09:26:09Z</time></trkpt><trkpt lat="40.997854298792284" lon="9.58613145715053"><ele>65.75</ele><time>2026-04-25T09:26:10Z</time></trkpt><trkpt lat="40.99784559850119" lon="9.58595731759411"><ele>64.5</ele><time>2026-04-25T09:26:11Z</time></trkpt><trkpt lat="40.997836271010335" lon="9.585779234489872"><ele>63.25</ele><time>2026-04-25T09:26:12Z</time></trkpt><trkpt lat="40.997825007265504" lon="9.58559613955289"><ele>62.0</ele><time>2026-04-25T09:26:13Z</time></trkpt><trkpt lat="40.99779972367772" lon="9.585432714926695"><ele>63.333333333333336</ele><time>2026-04-25T09:26:14Z</time></trkpt><trkpt lat="40.99774609247452" lon="9.58526343367164"><ele>64.66666666666667</ele><time>2026-04-25T09:26:15Z</time></trkpt><trkpt lat="40.99765539083613" lon="9.585068554215287"><ele>66.0</ele><time>2026-04-25T09:26:16Z</time></trkpt><trkpt lat="40.997574514597396" lon="9.58483721788058"><ele>67.66666666666667</ele><time>2026-04-25T09:26:17Z</time></trkpt><trkpt lat="40.997474826965046" lon="9.584601310534538"><ele>69.33333333333334</ele><time>2026-04-25T09:26:18Z</time></trkpt><trkpt lat="40.997365261262395" lon="9.584356527854782"><ele>71.0</ele><time>2026-04-25T09:26:19Z</time></trkpt><trkpt lat="40.99726447798833" lon="9.584089217513734"><ele>74.0</ele><time>2026-04-25T09:26:20Z</time></trkpt><trkpt lat="40.997152185058795" lon="9.583814552199044"><ele>77.0</ele><time>2026-04-25T09:26:21Z</time></trkpt><trkpt lat="40.99703464029921" lon="9.58353878477196"><ele>80.0</ele><time>2026-04-25T09:26:22Z</time></trkpt><trkpt lat="40.996908410904176" lon="9.583253592863908"><ele>83.0</ele><time>2026-04-25T09:26:23Z</time></trkpt><trkpt lat="40.99678469987148" lon="9.582962289435219"><ele>80.0</ele><time>2026-04-25T09:26:24Z</time></trkpt><trkpt lat="40.99666603208647" lon="9.58267695640208"><ele>77.0</ele><time>2026-04-25T09:26:25Z</time></trkpt><trkpt lat="40.9965577178452" lon="9.58241116558705"><ele>77.0</ele><time>2026-04-25T09:26:26Z</time></trkpt><trkpt lat="40.99645381742739" lon="9.582160102898506"><ele>77.0</ele><time>2026-04-25T09:26:27Z</time></trkpt><trkpt lat="40.996351459032894" lon="9.581934996394573"><ele>77.0</ele><time>2026-04-25T09:26:28Z</time></trkpt><trkpt lat="40.99621966289762" lon="9.581728626591831"><ele>76.5</ele><time>2026-04-25T09:26:29Z</time></trkpt><trkpt lat="40.99604489372196" lon="9.581526478905097"><ele>76.0</ele><time>2026-04-25T09:26:30Z</time></trkpt><trkpt lat="40.995850498170846" lon="9.58132558730676"><ele>72.5</ele><time>2026-04-25T09:26:31Z</time></trkpt><trkpt lat="40.99564635807169" lon="9.58110868827367"><ele>69.0</ele><time>2026-04-25T09:26:32Z</time></trkpt><trkpt lat="40.9954421983121" lon="9.580877316246132"><ele>69.0</ele><time>2026-04-25T09:26:33Z</time></trkpt><trkpt lat="40.995234679633256" lon="9.580640607749467"><ele>69.0</ele><time>2026-04-25T09:26:34Z</time></trkpt><trkpt lat="40.9950283809015" lon="9.580400103518796"><ele>65.5</ele><time>2026-04-25T09:26:35Z</time></trkpt><trkpt lat="40.99483624268881" lon="9.580176758292493"><ele>62.0</ele><time>2026-04-25T09:26:36Z</time></trkpt><trkpt lat="40.99465377413043" lon="9.579962741575454"><ele>62.0</ele><time>2026-04-25T09:26:37Z</time></trkpt><trkpt lat="40.99447892124569" lon="9.579760711561443"><ele>62.0</ele><time>2026-04-25T09:26:38Z</time></trkpt><trkpt lat="40.99431048390613" lon="9.579568746237573"><ele>61.66666666666667</ele><time>2026-04-25T09:26:39Z</time></trkpt><trkpt lat="40.99414212422773" lon="9.579374160801027"><ele>61.33333333333333</ele><time>2026-04-25T09:26:40Z</time></trkpt><trkpt lat="40.99397446354551" lon="9.57919552769647"><ele>61.0</ele><time>2026-04-25T09:26:41Z</time></trkpt><trkpt lat="40.99380111469735" lon="9.579058627379887"><ele>61.0</ele><time>2026-04-25T09:26:42Z</time></trkpt><trkpt lat="40.993605045986925" lon="9.578964274125951"><ele>61.0</ele><time>2026-04-25T09:26:43Z</time></trkpt><trkpt lat="40.993381925201334" lon="9.578890761982285"><ele>61.0</ele><time>2026-04-25T09:26:44Z</time></trkpt><trkpt lat="40.99313493287352" lon="9.578827841988348"><ele>61.0</ele><time>2026-04-25T09:26:45Z</time></trkpt><trkpt lat="40.99288104975116" lon="9.57874987030705"><ele>61.0</ele><time>2026-04-25T09:26:46Z</time></trkpt><trkpt lat="40.99261580754288" lon="9.578661195917242"><ele>57.0</ele><time>2026-04-25T09:26:47Z</time></trkpt><trkpt lat="40.99233995784301" lon="9.578565167998923"><ele>53.0</ele><time>2026-04-25T09:26:48Z</time></trkpt><trkpt lat="40.99206970542141" lon="9.578472583137446"><ele>53.0</ele><time>2026-04-25T09:26:49Z</time></trkpt><trkpt lat="40.991813342198014" lon="9.578386180034038"><ele>53.0</ele><time>2026-04-25T09:26:50Z</time></trkpt><trkpt lat="40.991560344294264" lon="9.57830000707742"><ele>53.5</ele><time>2026-04-25T09:26:51Z</time></trkpt><trkpt lat="40.99132020265792" lon="9.578215469330797"><ele>54.0</ele><time>2026-04-25T09:26:52Z</time></trkpt><trkpt lat="40.99109897920897" lon="9.57812552412542"><ele>54.0</ele><time>2026-04-25T09:26:53Z</time></trkpt><trkpt lat="40.990879291724006" lon="9.57801350372402"><ele>54.0</ele><time>2026-04-25T09:26:54Z</time></trkpt><trkpt lat="40.99067049266669" lon="9.577850821899645"><ele>54.0</ele><time>2026-04-25T09:26:55Z</time></trkpt><trkpt lat="40.990439715346476" lon="9.577699944798855"><ele>54.0</ele><time>2026-04-25T09:26:56Z</time></trkpt><trkpt lat="40.99020350347218" lon="9.577525361210975"><ele>50.0</ele><time>2026-04-25T09:26:57Z</time></trkpt><trkpt lat="40.98996000966759" lon="9.577353815607275"><ele>46.0</ele><time>2026-04-25T09:26:58Z</time></trkpt><trkpt lat="40.98973206576422" lon="9.577194082345994"><ele>46.0</ele><time>2026-04-25T09:26:59Z</time></trkpt><trkpt lat="40.98952298725937" lon="9.577043878098753"><ele>46.0</ele><time>2026-04-25T09:27:00Z</time></trkpt><trkpt lat="40.98932010773633" lon="9.576900235258522"><ele>45.66666666666667</ele><time>2026-04-25T09:27:01Z</time></trkpt><trkpt lat="40.98912514841453" lon="9.576763847483372"><ele>45.333333333333336</ele><time>2026-04-25T09:27:02Z</time></trkpt><trkpt lat="40.988954249316734" lon="9.576650793761079"><ele>45.0</ele><time>2026-04-25T09:27:03Z</time></trkpt><trkpt lat="40.988785519771156" lon="9.576575452523713"><ele>45.0</ele><time>2026-04-25T09:27:04Z</time></trkpt><trkpt lat="40.98861886147055" lon="9.576556913830201"><ele>45.0</ele><time>2026-04-25T09:27:05Z</time></trkpt><trkpt lat="40.98846429649992" lon="9.576587593090668"><ele>45.0</ele><time>2026-04-25T09:27:06Z</time></trkpt><trkpt lat="40.98830766899484" lon="9.576666100794332"><ele>44.0</ele><time>2026-04-25T09:27:07Z</time></trkpt><trkpt lat="40.988125601276245" lon="9.57676466014748"><ele>43.0</ele><time>2026-04-25T09:27:08Z</time></trkpt><trkpt lat="40.98792899226874" lon="9.576866273120194"><ele>42.0</ele><time>2026-04-25T09:27:09Z</time></trkpt><trkpt lat="40.98772321986146" lon="9.576964425203297"><ele>41.0</ele><time>2026-04-25T09:27:10Z</time></trkpt><trkpt lat="40.98753181429204" lon="9.5770453068764"><ele>40.0</ele><time>2026-04-25T09:27:11Z</time></trkpt><trkpt lat="40.98734843032814" lon="9.577097724455573"><ele>39.0</ele><time>2026-04-25T09:27:12Z</time></trkpt><trkpt lat="40.98717420504722" lon="9.577071680065186"><ele>40.0</ele><time>2026-04-25T09:27:13Z</time></trkpt><trkpt lat="40.986992964015876" lon="9.57700411018455"><ele>41.0</ele><time>2026-04-25T09:27:14Z</time></trkpt><trkpt lat="40.98679225630276" lon="9.576910790413152"><ele>42.0</ele><time>2026-04-25T09:27:15Z</time></trkpt><trkpt lat="40.98657122345815" lon="9.576811608121588"><ele>42.0</ele><time>2026-04-25T09:27:16Z</time></trkpt><trkpt lat="40.98633547000617" lon="9.57671362754514"><ele>42.0</ele><time>2026-04-25T09:27:17Z</time></trkpt><trkpt lat="40.986087858998005" lon="9.576614975385354"><ele>39.5</ele><time>2026-04-25T09:27:18Z</time></trkpt><trkpt lat="40.985830605841244" lon="9.576513450481341"><ele>37.0</ele><time>2026-04-25T09:27:19Z</time></trkpt><trkpt lat="40.985580214469785" lon="9.576410559943142"><ele>37.0</ele><time>2026-04-25T09:27:20Z</time></trkpt><trkpt lat="40.985347872450085" lon="9.576312357331183"><ele>37.0</ele><time>2026-04-25T09:27:21Z</time></trkpt><trkpt lat="40.985132015882314" lon="9.576219073470625"><ele>36.66666666666667</ele><time>2026-04-25T09:27:22Z</time></trkpt><trkpt lat="40.98492376110354" lon="9.576135341928223"><ele>36.333333333333336</ele><time>2026-04-25T09:27:23Z</time></trkpt><trkpt lat="40.98472921548341" lon="9.576076154225749"><ele>36.0</ele><time>2026-04-25T09:27:24Z</time></trkpt><trkpt lat="40.9845462632227" lon="9.576059152764902"><ele>36.0</ele><time>2026-04-25T09:27:25Z</time></trkpt><trkpt lat="40.98435562271958" lon="9.576087315796023"><ele>36.0</ele><time>2026-04-25T09:27:26Z</time></trkpt><trkpt lat="40.98414223584819" lon="9.576164386654556"><ele>36.0</ele><time>2026-04-25T09:27:27Z</time></trkpt><trkpt lat="40.98391546147057" lon="9.576239088346222"><ele>32.5</ele><time>2026-04-25T09:27:28Z</time></trkpt><trkpt lat="40.983677831861236" lon="9.576301565697921"><ele>29.0</ele><time>2026-04-25T09:27:29Z</time></trkpt><trkpt lat="40.983431031117455" lon="9.576358831745013"><ele>31.5</ele><time>2026-04-25T09:27:30Z</time></trkpt><trkpt lat="40.98318272598259" lon="9.576419288570216"><ele>34.0</ele><time>2026-04-25T09:27:31Z</time></trkpt><trkpt lat="40.982928909332415" lon="9.576484560744337"><ele>34.0</ele><time>2026-04-25T09:27:32Z</time></trkpt><trkpt lat="40.98267568372631" lon="9.57656149171664"><ele>34.0</ele><time>2026-04-25T09:27:33Z</time></trkpt><trkpt lat="40.98242567269265" lon="9.576663473431061"><ele>37.5</ele><time>2026-04-25T09:27:34Z</time></trkpt><trkpt lat="40.98217721715594" lon="9.576778857981589"><ele>41.0</ele><time>2026-04-25T09:27:35Z</time></trkpt><trkpt lat="40.981943396845566" lon="9.57688343436318"><ele>41.0</ele><time>2026-04-25T09:27:36Z</time></trkpt><trkpt lat="40.98173249544808" lon="9.576973020607559"><ele>41.0</ele><time>2026-04-25T09:27:37Z</time></trkpt><trkpt lat="40.981536198249415" lon="9.577056229331468"><ele>41.0</ele><time>2026-04-25T09:27:38Z</time></trkpt><trkpt lat="40.98135888894305" lon="9.577131471958205"><ele>40.0</ele><time>2026-04-25T09:27:39Z</time></trkpt><trkpt lat="40.98120023701984" lon="9.57717475839409"><ele>39.0</ele><time>2026-04-25T09:27:40Z</time></trkpt><trkpt lat="40.9810419581213" lon="9.577172859575038"><ele>38.0</ele><time>2026-04-25T09:27:41Z</time></trkpt><trkpt lat="40.98088100801575" lon="9.577119304467036"><ele>37.33333333333333</ele><time>2026-04-25T09:27:42Z</time></trkpt><trkpt lat="40.98071322504517" lon="9.57702171775178"><ele>36.666666666666664</ele><time>2026-04-25T09:27:43Z</time></trkpt><trkpt lat="40.980534428534206" lon="9.576886258730992"><ele>36.0</ele><time>2026-04-25T09:27:44Z</time></trkpt><trkpt lat="40.98034283093489" lon="9.576750834757652"><ele>38.333333333333336</ele><time>2026-04-25T09:27:45Z</time></trkpt><trkpt lat="40.98016557805268" lon="9.576625921646997"><ele>40.66666666666667</ele><time>2026-04-25T09:27:46Z</time></trkpt><trkpt lat="40.98000094159253" lon="9.576534920360288"><ele>43.0</ele><time>2026-04-25T09:27:47Z</time></trkpt><trkpt lat="40.9798322981555" lon="9.576492774097385"><ele>43.0</ele><time>2026-04-25T09:27:48Z</time></trkpt><trkpt lat="40.979656817177805" lon="9.57650270795563"><ele>43.0</ele><time>2026-04-25T09:27:49Z</time></trkpt><trkpt lat="40.97947873406265" lon="9.576559691528743"><ele>43.0</ele><time>2026-04-25T09:27:50Z</time></trkpt><trkpt lat="40.979299983069566" lon="9.57665470214221"><ele>44.333333333333336</ele><time>2026-04-25T09:27:51Z</time></trkpt><trkpt lat="40.97912327071533" lon="9.57675688282443"><ele>45.666666666666664</ele><time>2026-04-25T09:27:52Z</time></trkpt><trkpt lat="40.978952446430526" lon="9.57681672847921"><ele>47.0</ele><time>2026-04-25T09:27:53Z</time></trkpt><trkpt lat="40.97878487400129" lon="9.576811045197964"><ele>47.0</ele><time>2026-04-25T09:27:54Z</time></trkpt><trkpt lat="40.97861621956577" lon="9.576744264931648"><ele>47.0</ele><time>2026-04-25T09:27:55Z</time></trkpt><trkpt lat="40.978444436650534" lon="9.57662862740498"><ele>47.0</ele><time>2026-04-25T09:27:56Z</time></trkpt><trkpt lat="40.97827080387905" lon="9.576477037115579"><ele>47.33333333333333</ele><time>2026-04-25T09:27:57Z</time></trkpt><trkpt lat="40.978088300543696" lon="9.57631319749658"><ele>47.666666666666664</ele><time>2026-04-25T09:27:58Z</time></trkpt><trkpt lat="40.97789640733445" lon="9.576155357900484"><ele>48.0</ele><time>2026-04-25T09:27:59Z</time></trkpt><trkpt lat="40.977709565710086" lon="9.576020278631262"><ele>50.0</ele><time>2026-04-25T09:28:00Z</time></trkpt><trkpt lat="40.977517993223046" lon="9.57591442967026"><ele>52.0</ele><time>2026-04-25T09:28:01Z</time></trkpt><trkpt lat="40.9773154079955" lon="9.575815152068685"><ele>54.0</ele><time>2026-04-25T09:28:02Z</time></trkpt><trkpt lat="40.97710336403469" lon="9.575723404159794"><ele>54.0</ele><time>2026-04-25T09:28:03Z</time></trkpt><trkpt lat="40.97688028564865" lon="9.575625654306629"><ele>54.0</ele><time>2026-04-25T09:28:04Z</time></trkpt><trkpt lat="40.976641449809854" lon="9.575519368207976"><ele>53.5</ele><time>2026-04-25T09:28:05Z</time></trkpt><trkpt lat="40.97639353279913" lon="9.57540507716929"><ele>53.0</ele><time>2026-04-25T09:28:06Z</time></trkpt><trkpt lat="40.976133550750106" lon="9.575287450659783"><ele>51.5</ele><time>2026-04-25T09:28:07Z</time></trkpt><trkpt lat="40.975867174362335" lon="9.57516422448804"><ele>50.0</ele><time>2026-04-25T09:28:08Z</time></trkpt><trkpt lat="40.97559304402121" lon="9.575036835863262"><ele>48.5</ele><time>2026-04-25T09:28:09Z</time></trkpt><trkpt lat="40.975312888917905" lon="9.574908877963212"><ele>47.0</ele><time>2026-04-25T09:28:10Z</time></trkpt><trkpt lat="40.9750405230428" lon="9.57478250009301"><ele>46.5</ele><time>2026-04-25T09:28:11Z</time></trkpt><trkpt lat="40.974786868766394" lon="9.57466166799585"><ele>46.0</ele><time>2026-04-25T09:28:12Z</time></trkpt><trkpt lat="40.97453033931613" lon="9.57454178039739"><ele>46.5</ele><time>2026-04-25T09:28:13Z</time></trkpt><trkpt lat="40.97426568959515" lon="9.574417633812287"><ele>47.0</ele><time>2026-04-25T09:28:14Z</time></trkpt><trkpt lat="40.974004145035366" lon="9.574294579049855"><ele>47.0</ele><time>2026-04-25T09:28:15Z</time></trkpt><trkpt lat="40.973759582439925" lon="9.574181047974736"><ele>47.0</ele><time>2026-04-25T09:28:16Z</time></trkpt><trkpt lat="40.973536109805515" lon="9.574076020471544"><ele>47.33333333333333</ele><time>2026-04-25T09:28:17Z</time></trkpt><trkpt lat="40.97332455388486" lon="9.57397767886384"><ele>47.666666666666664</ele><time>2026-04-25T09:28:18Z</time></trkpt><trkpt lat="40.97312330588697" lon="9.573883790311294"><ele>48.0</ele><time>2026-04-25T09:28:19Z</time></trkpt><trkpt lat="40.972937524064356" lon="9.57379587980105"><ele>48.0</ele><time>2026-04-25T09:28:20Z</time></trkpt><trkpt lat="40.97275542678769" lon="9.573725322821137"><ele>48.0</ele><time>2026-04-25T09:28:21Z</time></trkpt><trkpt lat="40.97256395880433" lon="9.57369509778678"><ele>48.0</ele><time>2026-04-25T09:28:22Z</time></trkpt><trkpt lat="40.97236368920072" lon="9.573700951280992"><ele>47.0</ele><time>2026-04-25T09:28:23Z</time></trkpt><trkpt lat="40.9721729017253" lon="9.573715706394035"><ele>46.0</ele><time>2026-04-25T09:28:24Z</time></trkpt><trkpt lat="40.97199403704855" lon="9.573726749943287"><ele>45.0</ele><time>2026-04-25T09:28:25Z</time></trkpt><trkpt lat="40.9718323446596" lon="9.573733402039235"><ele>45.0</ele><time>2026-04-25T09:28:26Z</time></trkpt><trkpt lat="40.971691536487974" lon="9.573736578902043"><ele>45.0</ele><time>2026-04-25T09:28:27Z</time></trkpt><trkpt lat="40.97157460647392" lon="9.573733438295193"><ele>45.0</ele><time>2026-04-25T09:28:28Z</time></trkpt><trkpt lat="40.97148319127795" lon="9.573698486342577"><ele>45.0</ele><time>2026-04-25T09:28:29Z</time></trkpt><trkpt lat="40.97140013325537" lon="9.573675269181514"><ele>45.0</ele><time>2026-04-25T09:28:30Z</time></trkpt><trkpt lat="40.97131616476895" lon="9.573644461922484"><ele>45.4</ele><time>2026-04-25T09:28:31Z</time></trkpt><trkpt lat="40.97123760709817" lon="9.573597940048717"><ele>45.8</ele><time>2026-04-25T09:28:32Z</time></trkpt><trkpt lat="40.97116707009768" lon="9.573533780371957"><ele>46.2</ele><time>2026-04-25T09:28:33Z</time></trkpt><trkpt lat="40.97109999486999" lon="9.573468784385053"><ele>46.6</ele><time>2026-04-25T09:28:34Z</time></trkpt><trkpt lat="40.97102033508471" lon="9.573401867021278"><ele>47.0</ele><time>2026-04-25T09:28:36Z</time></trkpt><trkpt lat="40.97094555828129" lon="9.573269858353811"><ele>47.0</ele><time>2026-04-25T09:28:39Z</time></trkpt><trkpt lat="40.97088291877503" lon="9.573173782163492"><ele>47.0</ele><time>2026-04-25T09:28:40Z</time></trkpt><trkpt lat="40.97083057109385" lon="9.573083715708833"><ele>47.0</ele><time>2026-04-25T09:28:41Z</time></trkpt><trkpt lat="40.970766107028474" lon="9.573005430871993"><ele>47.0</ele><time>2026-04-25T09:28:42Z</time></trkpt><trkpt lat="40.97070812437792" lon="9.5729083863716"><ele>47.0</ele><time>2026-04-25T09:28:43Z</time></trkpt><trkpt lat="40.97064857079057" lon="9.572805029515074"><ele>46.0</ele><time>2026-04-25T09:28:44Z</time></trkpt><trkpt lat="40.970586944531036" lon="9.572699055299173"><ele>45.0</ele><time>2026-04-25T09:28:45Z</time></trkpt><trkpt lat="40.97052508526248" lon="9.572587341661114"><ele>44.0</ele><time>2026-04-25T09:28:46Z</time></trkpt><trkpt lat="40.97044523304441" lon="9.572463556313535"><ele>43.0</ele><time>2026-04-25T09:28:47Z</time></trkpt><trkpt lat="40.970339184048726" lon="9.572323210604461"><ele>43.0</ele><time>2026-04-25T09:28:48Z</time></trkpt><trkpt lat="40.970191954651234" lon="9.572190792765047"><ele>43.0</ele><time>2026-04-25T09:28:49Z</time></trkpt><trkpt lat="40.97005065152422" lon="9.572083386151357"><ele>43.0</ele><time>2026-04-25T09:28:50Z</time></trkpt><trkpt lat="40.969906084387404" lon="9.571981456209047"><ele>39.0</ele><time>2026-04-25T09:28:51Z</time></trkpt><trkpt lat="40.969759393775696" lon="9.571874389075338"><ele>35.0</ele><time>2026-04-25T09:28:52Z</time></trkpt><trkpt lat="40.96960388236424" lon="9.57175951016189"><ele>31.0</ele><time>2026-04-25T09:28:53Z</time></trkpt><trkpt lat="40.969448539127455" lon="9.571641098738843"><ele>31.0</ele><time>2026-04-25T09:28:54Z</time></trkpt><trkpt lat="40.9692838893081" lon="9.57152316399855"><ele>31.0</ele><time>2026-04-25T09:28:55Z</time></trkpt><trkpt lat="40.96911176814067" lon="9.57139994539593"><ele>31.0</ele><time>2026-04-25T09:28:56Z</time></trkpt><trkpt lat="40.96893763257526" lon="9.57127308362191"><ele>29.0</ele><time>2026-04-25T09:28:57Z</time></trkpt><trkpt lat="40.96876201694586" lon="9.571144098978293"><ele>27.0</ele><time>2026-04-25T09:28:58Z</time></trkpt><trkpt lat="40.96858156102841" lon="9.571029341646748"><ele>25.0</ele><time>2026-04-25T09:28:59Z</time></trkpt><trkpt lat="40.968386703152326" lon="9.570942679589477"><ele>24.666666666666668</ele><time>2026-04-25T09:29:00Z</time></trkpt><trkpt lat="40.96818049764788" lon="9.570883281839713"><ele>24.333333333333336</ele><time>2026-04-25T09:29:01Z</time></trkpt><trkpt lat="40.96795874766905" lon="9.57084131676685"><ele>24.0</ele><time>2026-04-25T09:29:02Z</time></trkpt><trkpt lat="40.96772407303538" lon="9.570801423874256"><ele>22.0</ele><time>2026-04-25T09:29:03Z</time></trkpt><trkpt lat="40.967489091177384" lon="9.570765805877418"><ele>20.0</ele><time>2026-04-25T09:29:04Z</time></trkpt><trkpt lat="40.96727055366512" lon="9.570725067179037"><ele>20.0</ele><time>2026-04-25T09:29:05Z</time></trkpt><trkpt lat="40.9670650813159" lon="9.570679069996617"><ele>20.0</ele><time>2026-04-25T09:29:06Z</time></trkpt><trkpt lat="40.96686741329517" lon="9.57062465439964"><ele>20.0</ele><time>2026-04-25T09:29:07Z</time></trkpt><trkpt lat="40.96667565146662" lon="9.570551389361562"><ele>19.666666666666668</ele><time>2026-04-25T09:29:08Z</time></trkpt><trkpt lat="40.966480394407014" lon="9.570455786861446"><ele>19.333333333333332</ele><time>2026-04-25T09:29:09Z</time></trkpt><trkpt lat="40.96628667692178" lon="9.570336603386018"><ele>19.0</ele><time>2026-04-25T09:29:10Z</time></trkpt><trkpt lat="40.96609691037487" lon="9.570202408395266"><ele>20.0</ele><time>2026-04-25T09:29:11Z</time></trkpt><trkpt lat="40.965913822579054" lon="9.570034592793837"><ele>21.0</ele><time>2026-04-25T09:29:12Z</time></trkpt><trkpt lat="40.96573303491213" lon="9.569841375650341"><ele>21.0</ele><time>2026-04-25T09:29:13Z</time></trkpt><trkpt lat="40.96556981250578" lon="9.569600266814593"><ele>21.0</ele><time>2026-04-25T09:29:14Z</time></trkpt><trkpt lat="40.965410209309766" lon="9.56935916162952"><ele>24.5</ele><time>2026-04-25T09:29:15Z</time></trkpt><trkpt lat="40.96526415482994" lon="9.569096648593332"><ele>28.0</ele><time>2026-04-25T09:29:16Z</time></trkpt><trkpt lat="40.965125438757354" lon="9.568817890965141"><ele>28.5</ele><time>2026-04-25T09:29:17Z</time></trkpt><trkpt lat="40.96497463943267" lon="9.568532873245786"><ele>29.0</ele><time>2026-04-25T09:29:18Z</time></trkpt><trkpt lat="40.96482398279472" lon="9.568233140170523"><ele>29.0</ele><time>2026-04-25T09:29:19Z</time></trkpt><trkpt lat="40.96467529681548" lon="9.567934008496929"><ele>29.0</ele><time>2026-04-25T09:29:20Z</time></trkpt><trkpt lat="40.96452398542613" lon="9.567633363934634"><ele>28.5</ele><time>2026-04-25T09:29:21Z</time></trkpt><trkpt lat="40.96436683112817" lon="9.567329832285536"><ele>28.0</ele><time>2026-04-25T09:29:22Z</time></trkpt><trkpt lat="40.964204552741215" lon="9.56702621213895"><ele>29.0</ele><time>2026-04-25T09:29:23Z</time></trkpt><trkpt lat="40.964034707408594" lon="9.566725817817007"><ele>30.0</ele><time>2026-04-25T09:29:24Z</time></trkpt><trkpt lat="40.96386839292631" lon="9.566439242429883"><ele>33.5</ele><time>2026-04-25T09:29:25Z</time></trkpt><trkpt lat="40.9637136856039" lon="9.566184368034921"><ele>37.0</ele><time>2026-04-25T09:29:26Z</time></trkpt><trkpt lat="40.963557620000344" lon="9.565945951339144"><ele>37.0</ele><time>2026-04-25T09:29:27Z</time></trkpt><trkpt lat="40.96340347282488" lon="9.565705009693344"><ele>37.0</ele><time>2026-04-25T09:29:28Z</time></trkpt><trkpt lat="40.96325015478737" lon="9.565464013796298"><ele>36.5</ele><time>2026-04-25T09:29:29Z</time></trkpt><trkpt lat="40.9631025372242" lon="9.565221725295231"><ele>36.0</ele><time>2026-04-25T09:29:30Z</time></trkpt><trkpt lat="40.962942955712116" lon="9.564969313722905"><ele>36.0</ele><time>2026-04-25T09:29:31Z</time></trkpt><trkpt lat="40.9627738935421" lon="9.564707293791558"><ele>36.0</ele><time>2026-04-25T09:29:32Z</time></trkpt><trkpt lat="40.962595792919586" lon="9.564442412204826"><ele>36.0</ele><time>2026-04-25T09:29:33Z</time></trkpt><trkpt lat="40.962415772306954" lon="9.564167675364201"><ele>36.0</ele><time>2026-04-25T09:29:34Z</time></trkpt><trkpt lat="40.96223448279546" lon="9.563885909383973"><ele>36.0</ele><time>2026-04-25T09:29:35Z</time></trkpt><trkpt lat="40.96204992805906" lon="9.56360021829942"><ele>36.0</ele><time>2026-04-25T09:29:36Z</time></trkpt><trkpt lat="40.96187997752654" lon="9.563329934666926"><ele>36.0</ele><time>2026-04-25T09:29:37Z</time></trkpt><trkpt lat="40.96171414200162" lon="9.563065570607565"><ele>36.0</ele><time>2026-04-25T09:29:38Z</time></trkpt><trkpt lat="40.96155442031699" lon="9.562800817798811"><ele>35.0</ele><time>2026-04-25T09:29:39Z</time></trkpt><trkpt lat="40.96139629803363" lon="9.562531124701339"><ele>34.0</ele><time>2026-04-25T09:29:40Z</time></trkpt><trkpt lat="40.96123536394706" lon="9.562244780537526"><ele>34.5</ele><time>2026-04-25T09:29:41Z</time></trkpt><trkpt lat="40.96107590545653" lon="9.561942976066312"><ele>35.0</ele><time>2026-04-25T09:29:42Z</time></trkpt><trkpt lat="40.96092337274413" lon="9.561635109920955"><ele>33.5</ele><time>2026-04-25T09:29:43Z</time></trkpt><trkpt lat="40.96078404263367" lon="9.561327997887473"><ele>32.0</ele><time>2026-04-25T09:29:44Z</time></trkpt><trkpt lat="40.96065557328534" lon="9.561033039505894"><ele>32.0</ele><time>2026-04-25T09:29:45Z</time></trkpt><trkpt lat="40.96053618552772" lon="9.560739786945337"><ele>32.0</ele><time>2026-04-25T09:29:46Z</time></trkpt><trkpt lat="40.96042428315423" lon="9.560439722211095"><ele>35.0</ele><time>2026-04-25T09:29:47Z</time></trkpt><trkpt lat="40.960314422141984" lon="9.560131206460454"><ele>38.0</ele><time>2026-04-25T09:29:48Z</time></trkpt><trkpt lat="40.960211704557516" lon="9.55982036339984"><ele>37.0</ele><time>2026-04-25T09:29:49Z</time></trkpt><trkpt lat="40.96011604479057" lon="9.55950442564738"><ele>36.0</ele><time>2026-04-25T09:29:50Z</time></trkpt><trkpt lat="40.960029479718045" lon="9.559184591219038"><ele>36.0</ele><time>2026-04-25T09:29:51Z</time></trkpt><trkpt lat="40.959946164149294" lon="9.558862990945206"><ele>36.0</ele><time>2026-04-25T09:29:52Z</time></trkpt><trkpt lat="40.9598631207658" lon="9.558537207982361"><ele>37.0</ele><time>2026-04-25T09:29:53Z</time></trkpt><trkpt lat="40.95978012635304" lon="9.558202229578423"><ele>38.0</ele><time>2026-04-25T09:29:54Z</time></trkpt><trkpt lat="40.959696116480885" lon="9.557854181714893"><ele>39.5</ele><time>2026-04-25T09:29:55Z</time></trkpt><trkpt lat="40.95961000965998" lon="9.557499810667606"><ele>41.0</ele><time>2026-04-25T09:29:56Z</time></trkpt><trkpt lat="40.95952265966064" lon="9.557142290624638"><ele>43.0</ele><time>2026-04-25T09:29:57Z</time></trkpt><trkpt lat="40.95943182207404" lon="9.556783047697522"><ele>45.0</ele><time>2026-04-25T09:29:58Z</time></trkpt><trkpt lat="40.95933907346698" lon="9.556439506602198"><ele>46.0</ele><time>2026-04-25T09:29:59Z</time></trkpt><trkpt lat="40.959247469142845" lon="9.556128222061556"><ele>47.0</ele><time>2026-04-25T09:30:00Z</time></trkpt><trkpt lat="40.95914556698754" lon="9.555816651297349"><ele>45.5</ele><time>2026-04-25T09:30:01Z</time></trkpt><trkpt lat="40.95903527438977" lon="9.55551106900047"><ele>44.0</ele><time>2026-04-25T09:30:02Z</time></trkpt><trkpt lat="40.95891643796834" lon="9.55521620030157"><ele>44.0</ele><time>2026-04-25T09:30:03Z</time></trkpt><trkpt lat="40.95878837417828" lon="9.554935790856184"><ele>44.0</ele><time>2026-04-25T09:30:04Z</time></trkpt><trkpt lat="40.9586528323656" lon="9.554664690536132"><ele>45.5</ele><time>2026-04-25T09:30:05Z</time></trkpt><trkpt lat="40.95851161921359" lon="9.554400972470757"><ele>47.0</ele><time>2026-04-25T09:30:06Z</time></trkpt><trkpt lat="40.958363085761604" lon="9.554143913423644"><ele>47.5</ele><time>2026-04-25T09:30:07Z</time></trkpt><trkpt lat="40.95821362099547" lon="9.553897283564485"><ele>48.0</ele><time>2026-04-25T09:30:08Z</time></trkpt><trkpt lat="40.958062934840555" lon="9.55366775551994"><ele>49.0</ele><time>2026-04-25T09:30:09Z</time></trkpt><trkpt lat="40.957904309838355" lon="9.553451952966798"><ele>50.0</ele><time>2026-04-25T09:30:10Z</time></trkpt><trkpt lat="40.95774746347258" lon="9.55325627877345"><ele>51.0</ele><time>2026-04-25T09:30:11Z</time></trkpt><trkpt lat="40.95758761841596" lon="9.553068197246604"><ele>52.0</ele><time>2026-04-25T09:30:12Z</time></trkpt><trkpt lat="40.957427606950844" lon="9.552890894755638"><ele>53.0</ele><time>2026-04-25T09:30:13Z</time></trkpt><trkpt lat="40.95726741304371" lon="9.55271562179701"><ele>54.0</ele><time>2026-04-25T09:30:14Z</time></trkpt><trkpt lat="40.957114801755466" lon="9.552543720764497"><ele>56.33333333333333</ele><time>2026-04-25T09:30:15Z</time></trkpt><trkpt lat="40.956964495508636" lon="9.552378949724105"><ele>58.666666666666664</ele><time>2026-04-25T09:30:16Z</time></trkpt><trkpt lat="40.956813650849774" lon="9.552219679748756"><ele>61.0</ele><time>2026-04-25T09:30:17Z</time></trkpt><trkpt lat="40.95666601624183" lon="9.552063405928845"><ele>64.66666666666666</ele><time>2026-04-25T09:30:18Z</time></trkpt><trkpt lat="40.95652372083555" lon="9.551915906691763"><ele>68.33333333333333</ele><time>2026-04-25T09:30:19Z</time></trkpt><trkpt lat="40.95639381381322" lon="9.55177815902134"><ele>72.0</ele><time>2026-04-25T09:30:20Z</time></trkpt><trkpt lat="40.956272375584845" lon="9.551646568922685"><ele>72.0</ele><time>2026-04-25T09:30:21Z</time></trkpt><trkpt lat="40.95615300564892" lon="9.551527691681013"><ele>72.0</ele><time>2026-04-25T09:30:22Z</time></trkpt><trkpt lat="40.956036041275716" lon="9.551411985346402"><ele>72.0</ele><time>2026-04-25T09:30:23Z</time></trkpt><trkpt lat="40.95591256987497" lon="9.551288388856772"><ele>79.0</ele><time>2026-04-25T09:30:24.024Z</time></trkpt><trkpt lat="40.95579362245414" lon="9.551168498285357"><ele>86.0</ele><time>2026-04-25T09:30:25.015Z</time></trkpt><trkpt lat="40.955676037251415" lon="9.551044511114357"><ele>93.0</ele><time>2026-04-25T09:30:26.023Z</time></trkpt><trkpt lat="40.955554996018286" lon="9.550923686305424"><ele>93.0</ele><time>2026-04-25T09:30:27.021Z</time></trkpt><trkpt lat="40.95543645903984" lon="9.550803970736814"><ele>93.0</ele><time>2026-04-25T09:30:28.021Z</time></trkpt><trkpt lat="40.95531508878746" lon="9.550680142674214"><ele>93.0</ele><time>2026-04-25T09:30:29.022Z</time></trkpt><trkpt lat="40.95520045261367" lon="9.55055990141848"><ele>93.0</ele><time>2026-04-25T09:30:30.021Z</time></trkpt><trkpt lat="40.95507553976205" lon="9.550436183889813"><ele>90.0</ele><time>2026-04-25T09:30:31.018Z</time></trkpt><trkpt lat="40.95107071105479" lon="9.54563914799089"><ele>90.0</ele><time>2026-04-25T09:31:00Z</time></trkpt><trkpt lat="40.950944980187735" lon="9.545437079362774"><ele>90.0</ele><time>2026-04-25T09:31:01Z</time></trkpt><trkpt lat="40.950749050385845" lon="9.545156178578038"><ele>84.66666666666667</ele><time>2026-04-25T09:31:02Z</time></trkpt><trkpt lat="40.95062883167883" lon="9.54493382779084"><ele>79.33333333333334</ele><time>2026-04-25T09:31:03Z</time></trkpt><trkpt lat="40.9505173061398" lon="9.544701568937308"><ele>74.0</ele><time>2026-04-25T09:31:04Z</time></trkpt><trkpt lat="40.950409029436955" lon="9.54445908439092"><ele>73.33333333333334</ele><time>2026-04-25T09:31:05Z</time></trkpt><trkpt lat="40.95030192852824" lon="9.544212285042947"><ele>72.66666666666667</ele><time>2026-04-25T09:31:06Z</time></trkpt><trkpt lat="40.9502004682024" lon="9.543974813571298"><ele>72.0</ele><time>2026-04-25T09:31:07Z</time></trkpt><trkpt lat="40.950110829403485" lon="9.543745115732131"><ele>70.0</ele><time>2026-04-25T09:31:08Z</time></trkpt><trkpt lat="40.95003113742296" lon="9.543522639415343"><ele>68.0</ele><time>2026-04-25T09:31:09Z</time></trkpt><trkpt lat="40.94995852299463" lon="9.543299907981945"><ele>66.0</ele><time>2026-04-25T09:31:10Z</time></trkpt><trkpt lat="40.94989646995942" lon="9.543077382946825"><ele>67.33333333333333</ele><time>2026-04-25T09:31:11Z</time></trkpt><trkpt lat="40.949842006323465" lon="9.542859613177678"><ele>68.66666666666666</ele><time>2026-04-25T09:31:12Z</time></trkpt><trkpt lat="40.949793300651955" lon="9.542638810710038"><ele>70.0</ele><time>2026-04-25T09:31:13Z</time></trkpt><trkpt lat="40.94974527229838" lon="9.54240606594023"><ele>70.0</ele><time>2026-04-25T09:31:14Z</time></trkpt><trkpt lat="40.94969998859761" lon="9.54217111801237"><ele>70.0</ele><time>2026-04-25T09:31:15Z</time></trkpt><trkpt lat="40.94965785963255" lon="9.541930749484937"><ele>70.0</ele><time>2026-04-25T09:31:16Z</time></trkpt><trkpt lat="40.94961892134902" lon="9.541680043013587"><ele>68.33333333333333</ele><time>2026-04-25T09:31:17Z</time></trkpt><trkpt lat="40.94958725565846" lon="9.541418197198682"><ele>66.66666666666667</ele><time>2026-04-25T09:31:18Z</time></trkpt><trkpt lat="40.94956168123988" lon="9.541149460259188"><ele>65.0</ele><time>2026-04-25T09:31:19Z</time></trkpt><trkpt lat="40.94953731447108" lon="9.540880576394933"><ele>65.0</ele><time>2026-04-25T09:31:20Z</time></trkpt><trkpt lat="40.949514453105266" lon="9.540607695363384"><ele>65.0</ele><time>2026-04-25T09:31:21Z</time></trkpt><trkpt lat="40.94949234510752" lon="9.540328449396071"><ele>65.0</ele><time>2026-04-25T09:31:22Z</time></trkpt><trkpt lat="40.949471691042746" lon="9.540051285406808"><ele>62.333333333333336</ele><time>2026-04-25T09:31:23Z</time></trkpt><trkpt lat="40.94945162702301" lon="9.53976917702879"><ele>59.66666666666667</ele><time>2026-04-25T09:31:24Z</time></trkpt><trkpt lat="40.949432801028934" lon="9.539486674906062"><ele>57.0</ele><time>2026-04-25T09:31:25Z</time></trkpt><trkpt lat="40.949413418212956" lon="9.539204790071807"><ele>55.66666666666667</ele><time>2026-04-25T09:31:26Z</time></trkpt><trkpt lat="40.949394719491394" lon="9.538923107280342"><ele>54.333333333333336</ele><time>2026-04-25T09:31:27Z</time></trkpt><trkpt lat="40.94937407383054" lon="9.538640826297645"><ele>53.0</ele><time>2026-04-25T09:31:28Z</time></trkpt><trkpt lat="40.94935317330763" lon="9.538362929712317"><ele>50.66666666666667</ele><time>2026-04-25T09:31:29Z</time></trkpt><trkpt lat="40.94933391027357" lon="9.538082797070153"><ele>48.333333333333336</ele><time>2026-04-25T09:31:30Z</time></trkpt><trkpt lat="40.94931532894213" lon="9.537808549626213"><ele>46.0</ele><time>2026-04-25T09:31:31Z</time></trkpt><trkpt lat="40.94929577266531" lon="9.53753345727925"><ele>43.0</ele><time>2026-04-25T09:31:32Z</time></trkpt><trkpt lat="40.949278051564534" lon="9.537258363833015"><ele>40.0</ele><time>2026-04-25T09:31:33Z</time></trkpt><trkpt lat="40.949259051542924" lon="9.536989904233502"><ele>37.0</ele><time>2026-04-25T09:31:34Z</time></trkpt><trkpt lat="40.949240517315914" lon="9.536719436205328"><ele>35.66666666666667</ele><time>2026-04-25T09:31:35Z</time></trkpt><trkpt lat="40.949222955163144" lon="9.536451104241086"><ele>34.333333333333336</ele><time>2026-04-25T09:31:36Z</time></trkpt><trkpt lat="40.94920427809577" lon="9.536181882264389"><ele>33.0</ele><time>2026-04-25T09:31:37Z</time></trkpt><trkpt lat="40.94918498534901" lon="9.535913892685512"><ele>31.666666666666664</ele><time>2026-04-25T09:31:38Z</time></trkpt><trkpt lat="40.94916596307319" lon="9.535644349838531"><ele>30.333333333333332</ele><time>2026-04-25T09:31:39Z</time></trkpt><trkpt lat="40.949147499362105" lon="9.535375000161313"><ele>29.0</ele><time>2026-04-25T09:31:40Z</time></trkpt><trkpt lat="40.949128847045024" lon="9.53510159408063"><ele>27.666666666666664</ele><time>2026-04-25T09:31:41Z</time></trkpt><trkpt lat="40.94910967068163" lon="9.534830143370122"><ele>26.333333333333336</ele><time>2026-04-25T09:31:42Z</time></trkpt><trkpt lat="40.94909069725356" lon="9.534557163787271"><ele>25.0</ele><time>2026-04-25T09:31:43Z</time></trkpt><trkpt lat="40.949069620252324" lon="9.5342833299214"><ele>25.333333333333336</ele><time>2026-04-25T09:31:44Z</time></trkpt><trkpt lat="40.949049679621325" lon="9.534006007951243"><ele>25.666666666666664</ele><time>2026-04-25T09:31:45Z</time></trkpt><trkpt lat="40.94902957310158" lon="9.533730092316961"><ele>26.0</ele><time>2026-04-25T09:31:46Z</time></trkpt><trkpt lat="40.94901034562693" lon="9.533453585326257"><ele>26.0</ele><time>2026-04-25T09:31:47Z</time></trkpt><trkpt lat="40.948989185041874" lon="9.533175010142326"><ele>26.0</ele><time>2026-04-25T09:31:48Z</time></trkpt><trkpt lat="40.94896479044288" lon="9.53289214322406"><ele>26.0</ele><time>2026-04-25T09:31:49Z</time></trkpt><trkpt lat="40.94894041870443" lon="9.53261135188847"><ele>28.333333333333332</ele><time>2026-04-25T09:31:50Z</time></trkpt><trkpt lat="40.948910497461306" lon="9.532321744457489"><ele>30.666666666666664</ele><time>2026-04-25T09:31:51Z</time></trkpt><trkpt lat="40.94887737087575" lon="9.532036894450266"><ele>33.0</ele><time>2026-04-25T09:31:52Z</time></trkpt><trkpt lat="40.94884058403254" lon="9.53174892531555"><ele>34.5</ele><time>2026-04-25T09:31:53Z</time></trkpt><trkpt lat="40.94879808385499" lon="9.531457145403802"><ele>36.0</ele><time>2026-04-25T09:31:54Z</time></trkpt><trkpt lat="40.94875165842778" lon="9.53116301042534"><ele>37.0</ele><time>2026-04-25T09:31:55Z</time></trkpt><trkpt lat="40.948703276412566" lon="9.530871664839117"><ele>38.0</ele><time>2026-04-25T09:31:56Z</time></trkpt><trkpt lat="40.94865249709695" lon="9.530576775617726"><ele>38.0</ele><time>2026-04-25T09:31:57Z</time></trkpt><trkpt lat="40.948594866952256" lon="9.530289027663379"><ele>38.0</ele><time>2026-04-25T09:31:58Z</time></trkpt><trkpt lat="40.94852999872786" lon="9.529998214606717"><ele>38.0</ele><time>2026-04-25T09:31:59Z</time></trkpt><trkpt lat="40.948465112422106" lon="9.52971538750741"><ele>38.0</ele><time>2026-04-25T09:32:00Z</time></trkpt><trkpt lat="40.94839661066191" lon="9.529431670765838"><ele>38.0</ele><time>2026-04-25T09:32:01Z</time></trkpt><trkpt lat="40.94832412986452" lon="9.529148436746613"><ele>35.666666666666664</ele><time>2026-04-25T09:32:02Z</time></trkpt><trkpt lat="40.94824528525974" lon="9.52886973279368"><ele>33.333333333333336</ele><time>2026-04-25T09:32:03Z</time></trkpt><trkpt lat="40.94816561491597" lon="9.528593639613618"><ele>31.0</ele><time>2026-04-25T09:32:04Z</time></trkpt><trkpt lat="40.948084994065745" lon="9.52831719538522"><ele>31.0</ele><time>2026-04-25T09:32:05Z</time></trkpt><trkpt lat="40.94800484192947" lon="9.528042793223728"><ele>31.0</ele><time>2026-04-25T09:32:06Z</time></trkpt><trkpt lat="40.94792655294126" lon="9.527786888758445"><ele>31.0</ele><time>2026-04-25T09:32:07Z</time></trkpt><trkpt lat="40.9478510596899" lon="9.527545362692118"><ele>31.333333333333336</ele><time>2026-04-25T09:32:08Z</time></trkpt><trkpt lat="40.94777586730101" lon="9.527313798670194"><ele>31.666666666666664</ele><time>2026-04-25T09:32:09Z</time></trkpt><trkpt lat="40.947700030314145" lon="9.52708212092073"><ele>32.0</ele><time>2026-04-25T09:32:10Z</time></trkpt><trkpt lat="40.9476326619198" lon="9.526838444483518"><ele>32.0</ele><time>2026-04-25T09:32:11Z</time></trkpt><trkpt lat="40.94756454106808" lon="9.526571642675881"><ele>32.0</ele><time>2026-04-25T09:32:12Z</time></trkpt><trkpt lat="40.94748599646632" lon="9.526287494584633"><ele>32.0</ele><time>2026-04-25T09:32:13Z</time></trkpt><trkpt lat="40.94739766066154" lon="9.525985295387498"><ele>35.0</ele><time>2026-04-25T09:32:14Z</time></trkpt><trkpt lat="40.947304748988294" lon="9.52567022052124"><ele>38.0</ele><time>2026-04-25T09:32:15Z</time></trkpt><trkpt lat="40.94721009302277" lon="9.52534219953203"><ele>39.0</ele><time>2026-04-25T09:32:16Z</time></trkpt><trkpt lat="40.947115204135855" lon="9.52501216362028"><ele>40.0</ele><time>2026-04-25T09:32:17Z</time></trkpt><trkpt lat="40.94701867754595" lon="9.524673227319791"><ele>42.5</ele><time>2026-04-25T09:32:18Z</time></trkpt><trkpt lat="40.94692347172984" lon="9.524338690875497"><ele>45.0</ele><time>2026-04-25T09:32:19Z</time></trkpt><trkpt lat="40.94683692012267" lon="9.524029779850373"><ele>45.0</ele><time>2026-04-25T09:32:20Z</time></trkpt><trkpt lat="40.94675893528032" lon="9.523737383410907"><ele>45.0</ele><time>2026-04-25T09:32:21Z</time></trkpt><trkpt lat="40.946688344116765" lon="9.523445531325363"><ele>41.666666666666664</ele><time>2026-04-25T09:32:22Z</time></trkpt><trkpt lat="40.94662674320909" lon="9.523157512731315"><ele>38.33333333333333</ele><time>2026-04-25T09:32:23Z</time></trkpt><trkpt lat="40.946574192360444" lon="9.522885082433742"><ele>35.0</ele><time>2026-04-25T09:32:24Z</time></trkpt><trkpt lat="40.94653104749494" lon="9.522627725136438"><ele>35.0</ele><time>2026-04-25T09:32:25Z</time></trkpt><trkpt lat="40.94649360773059" lon="9.522375664663816"><ele>35.0</ele><time>2026-04-25T09:32:26Z</time></trkpt><trkpt lat="40.94646480424038" lon="9.522134432320048"><ele>35.0</ele><time>2026-04-25T09:32:27Z</time></trkpt><trkpt lat="40.946439982933995" lon="9.521901647229658"><ele>34.75</ele><time>2026-04-25T09:32:28Z</time></trkpt><trkpt lat="40.94642369803844" lon="9.521683220788221"><ele>34.5</ele><time>2026-04-25T09:32:29Z</time></trkpt><trkpt lat="40.94641872980475" lon="9.521484149189165"><ele>34.25</ele><time>2026-04-25T09:32:30Z</time></trkpt><trkpt lat="40.94643359954532" lon="9.5213256305678"><ele>34.0</ele><time>2026-04-25T09:32:31Z</time></trkpt><trkpt lat="40.946461002129986" lon="9.521193858274627"><ele>33.6</ele><time>2026-04-25T09:32:32Z</time></trkpt><trkpt lat="40.946510384023796" lon="9.521069080213087"><ele>33.2</ele><time>2026-04-25T09:32:33Z</time></trkpt><trkpt lat="40.94656810980795" lon="9.520938717742505"><ele>32.800000000000004</ele><time>2026-04-25T09:32:34Z</time></trkpt><trkpt lat="40.94660173391611" lon="9.520810962829819"><ele>32.4</ele><time>2026-04-25T09:32:35Z</time></trkpt><trkpt lat="40.94658811847274" lon="9.52066515524352"><ele>32.0</ele><time>2026-04-25T09:32:36Z</time></trkpt><trkpt lat="40.94652986981829" lon="9.520510271944838"><ele>31.666666666666664</ele><time>2026-04-25T09:32:37Z</time></trkpt><trkpt lat="40.94646694113314" lon="9.520336112930538"><ele>31.333333333333336</ele><time>2026-04-25T09:32:38Z</time></trkpt><trkpt lat="40.9464418568647" lon="9.520136687971915"><ele>31.0</ele><time>2026-04-25T09:32:39Z</time></trkpt><trkpt lat="40.946452606992764" lon="9.51990963106433"><ele>31.0</ele><time>2026-04-25T09:32:40Z</time></trkpt><trkpt lat="40.94648781137219" lon="9.519656243798284"><ele>31.0</ele><time>2026-04-25T09:32:41Z</time></trkpt><trkpt lat="40.94653036727735" lon="9.519383694437622"><ele>31.0</ele><time>2026-04-25T09:32:42Z</time></trkpt><trkpt lat="40.946584192558525" lon="9.519093485574624"><ele>32.5</ele><time>2026-04-25T09:32:43Z</time></trkpt><trkpt lat="40.94664617428612" lon="9.518792577148732"><ele>34.0</ele><time>2026-04-25T09:32:44Z</time></trkpt><trkpt lat="40.946711301296666" lon="9.518494707902976"><ele>36.5</ele><time>2026-04-25T09:32:45Z</time></trkpt><trkpt lat="40.94678184897895" lon="9.5182040028182"><ele>39.0</ele><time>2026-04-25T09:32:46Z</time></trkpt><trkpt lat="40.94685981894293" lon="9.517926886770699"><ele>38.5</ele><time>2026-04-25T09:32:47Z</time></trkpt><trkpt lat="40.94694977820524" lon="9.517645370305019"><ele>38.0</ele><time>2026-04-25T09:32:48Z</time></trkpt><trkpt lat="40.947047041589016" lon="9.51736703950601"><ele>38.0</ele><time>2026-04-25T09:32:49Z</time></trkpt><trkpt lat="40.94714096187391" lon="9.517102689864833"><ele>38.0</ele><time>2026-04-25T09:32:50Z</time></trkpt><trkpt lat="40.94723598021884" lon="9.51684267917152"><ele>38.0</ele><time>2026-04-25T09:32:51Z</time></trkpt><trkpt lat="40.94733302996838" lon="9.516581933926306"><ele>37.0</ele><time>2026-04-25T09:32:52Z</time></trkpt><trkpt lat="40.9474354463302" lon="9.516307698987156"><ele>36.0</ele><time>2026-04-25T09:32:53Z</time></trkpt><trkpt lat="40.94753858843154" lon="9.516032275964083"><ele>36.0</ele><time>2026-04-25T09:32:54Z</time></trkpt><trkpt lat="40.94763488294912" lon="9.515773995446802"><ele>36.0</ele><time>2026-04-25T09:32:55Z</time></trkpt><trkpt lat="40.9477243575911" lon="9.515531676754389"><ele>36.0</ele><time>2026-04-25T09:32:56Z</time></trkpt><trkpt lat="40.94780626939232" lon="9.515302769403247"><ele>36.0</ele><time>2026-04-25T09:32:57Z</time></trkpt><trkpt lat="40.94787910376207" lon="9.515109221908286"><ele>36.0</ele><time>2026-04-25T09:32:58Z</time></trkpt><trkpt lat="40.94794296538998" lon="9.514945326650949"><ele>36.0</ele><time>2026-04-25T09:32:59Z</time></trkpt><trkpt lat="40.94800839268654" lon="9.514796230087594"><ele>36.0</ele><time>2026-04-25T09:33:00Z</time></trkpt><trkpt lat="40.948076697148046" lon="9.514678143172967"><ele>36.0</ele><time>2026-04-25T09:33:01Z</time></trkpt><trkpt lat="40.94815914823329" lon="9.514582013282762"><ele>36.0</ele><time>2026-04-25T09:33:02Z</time></trkpt><trkpt lat="40.9482593372068" lon="9.514506058316424"><ele>36.0</ele><time>2026-04-25T09:33:03Z</time></trkpt><trkpt lat="40.94834051397157" lon="9.514416407875926"><ele>36.0</ele><time>2026-04-25T09:33:04Z</time></trkpt><trkpt lat="40.94838272556982" lon="9.514292420038117"><ele>36.0</ele><time>2026-04-25T09:33:05Z</time></trkpt><trkpt lat="40.94839400796498" lon="9.514142537770983"><ele>35.333333333333336</ele><time>2026-04-25T09:33:06Z</time></trkpt><trkpt lat="40.94837540460947" lon="9.513965107975263"><ele>34.66666666666667</ele><time>2026-04-25T09:33:07Z</time></trkpt><trkpt lat="40.94838115037721" lon="9.51376774755013"><ele>34.0</ele><time>2026-04-25T09:33:08Z</time></trkpt><trkpt lat="40.94843605192644" lon="9.5135568449231"><ele>34.0</ele><time>2026-04-25T09:33:09Z</time></trkpt><trkpt lat="40.94852416530138" lon="9.513322419689763"><ele>34.0</ele><time>2026-04-25T09:33:10Z</time></trkpt><trkpt lat="40.94862547923089" lon="9.513075562609403"><ele>34.0</ele><time>2026-04-25T09:33:11Z</time></trkpt><trkpt lat="40.948726790075554" lon="9.512810805249579"><ele>33.66666666666667</ele><time>2026-04-25T09:33:12Z</time></trkpt><trkpt lat="40.948823496609215" lon="9.512547731431203"><ele>33.333333333333336</ele><time>2026-04-25T09:33:13Z</time></trkpt><trkpt lat="40.948919179867985" lon="9.51228559667628"><ele>33.0</ele><time>2026-04-25T09:33:14Z</time></trkpt><trkpt lat="40.94901358134861" lon="9.5120207406437"><ele>33.0</ele><time>2026-04-25T09:33:15Z</time></trkpt><trkpt lat="40.94911261137983" lon="9.511757715247581"><ele>33.0</ele><time>2026-04-25T09:33:16Z</time></trkpt><trkpt lat="40.94921068167561" lon="9.511493198334275"><ele>33.0</ele><time>2026-04-25T09:33:17Z</time></trkpt><trkpt lat="40.949306554097596" lon="9.511227857628576"><ele>33.0</ele><time>2026-04-25T09:33:18Z</time></trkpt><trkpt lat="40.949395530970676" lon="9.510962225660387"><ele>33.0</ele><time>2026-04-25T09:33:19Z</time></trkpt><trkpt lat="40.949478754643216" lon="9.510700974853684"><ele>33.0</ele><time>2026-04-25T09:33:20Z</time></trkpt><trkpt lat="40.9495548104316" lon="9.510442792188432"><ele>32.333333333333336</ele><time>2026-04-25T09:33:21Z</time></trkpt><trkpt lat="40.9496244215898" lon="9.51018702187503"><ele>31.666666666666668</ele><time>2026-04-25T09:33:22Z</time></trkpt><trkpt lat="40.94968267985291" lon="9.50993231923273"><ele>31.0</ele><time>2026-04-25T09:33:23Z</time></trkpt><trkpt lat="40.94973424150358" lon="9.509672717187993"><ele>29.666666666666668</ele><time>2026-04-25T09:33:24Z</time></trkpt><trkpt lat="40.949781057152954" lon="9.50942131464787"><ele>28.333333333333336</ele><time>2026-04-25T09:33:25Z</time></trkpt><trkpt lat="40.94982275495641" lon="9.509167340648155"><ele>27.0</ele><time>2026-04-25T09:33:26Z</time></trkpt><trkpt lat="40.94985854603678" lon="9.508911823333888"><ele>26.666666666666664</ele><time>2026-04-25T09:33:27Z</time></trkpt><trkpt lat="40.949885086113746" lon="9.508660457250308"><ele>26.333333333333332</ele><time>2026-04-25T09:33:28Z</time></trkpt><trkpt lat="40.94990198773867" lon="9.508411711910437"><ele>26.0</ele><time>2026-04-25T09:33:29Z</time></trkpt><trkpt lat="40.949913620155506" lon="9.508162298501768"><ele>26.0</ele><time>2026-04-25T09:33:30Z</time></trkpt><trkpt lat="40.949922008445704" lon="9.50791178902318"><ele>26.0</ele><time>2026-04-25T09:33:31Z</time></trkpt><trkpt lat="40.949926498816424" lon="9.507665813893597"><ele>26.0</ele><time>2026-04-25T09:33:32Z</time></trkpt><trkpt lat="40.949928463772395" lon="9.50741540822795"><ele>26.0</ele><time>2026-04-25T09:33:33Z</time></trkpt><trkpt lat="40.94992485981739" lon="9.507163778221269"><ele>26.0</ele><time>2026-04-25T09:33:34Z</time></trkpt><trkpt lat="40.94991103904048" lon="9.506905436293412"><ele>26.0</ele><time>2026-04-25T09:33:35Z</time></trkpt><trkpt lat="40.949889887688485" lon="9.506646290583296"><ele>26.666666666666664</ele><time>2026-04-25T09:33:36Z</time></trkpt><trkpt lat="40.94986222640148" lon="9.506384728500004"><ele>27.333333333333336</ele><time>2026-04-25T09:33:37Z</time></trkpt><trkpt lat="40.94982563413471" lon="9.506122692807704"><ele>28.0</ele><time>2026-04-25T09:33:38Z</time></trkpt><trkpt lat="40.94978351952095" lon="9.50586261761137"><ele>29.0</ele><time>2026-04-25T09:33:39Z</time></trkpt><trkpt lat="40.94973775816287" lon="9.505601903504964"><ele>30.0</ele><time>2026-04-25T09:33:40Z</time></trkpt><trkpt lat="40.949688758587456" lon="9.50534182205474"><ele>31.0</ele><time>2026-04-25T09:33:41Z</time></trkpt><trkpt lat="40.94963691521354" lon="9.50508823308641"><ele>31.0</ele><time>2026-04-25T09:33:42Z</time></trkpt><trkpt lat="40.9495811640221" lon="9.504836646861607"><ele>31.0</ele><time>2026-04-25T09:33:43Z</time></trkpt><trkpt lat="40.949521124503775" lon="9.50458883518175"><ele>31.0</ele><time>2026-04-25T09:33:44Z</time></trkpt><trkpt lat="40.94946017603403" lon="9.504341259162556"><ele>31.666666666666668</ele><time>2026-04-25T09:33:45Z</time></trkpt><trkpt lat="40.94939840563699" lon="9.504095964075013"><ele>32.333333333333336</ele><time>2026-04-25T09:33:46Z</time></trkpt><trkpt lat="40.94933891316067" lon="9.503854814767834"><ele>33.0</ele><time>2026-04-25T09:33:47Z</time></trkpt><trkpt lat="40.94928184225264" lon="9.503616779326585"><ele>33.0</ele><time>2026-04-25T09:33:48Z</time></trkpt><trkpt lat="40.949224170846016" lon="9.503379018466175"><ele>33.0</ele><time>2026-04-25T09:33:49Z</time></trkpt><trkpt lat="40.949167198098046" lon="9.503145782228634"><ele>33.0</ele><time>2026-04-25T09:33:50Z</time></trkpt><trkpt lat="40.94911095097329" lon="9.50291280117126"><ele>33.666666666666664</ele><time>2026-04-25T09:33:51Z</time></trkpt><trkpt lat="40.9490577400234" lon="9.502685829231769"><ele>34.33333333333333</ele><time>2026-04-25T09:33:52Z</time></trkpt><trkpt lat="40.94900212391947" lon="9.502456658941181"><ele>35.0</ele><time>2026-04-25T09:33:53Z</time></trkpt><trkpt lat="40.94894663996672" lon="9.502232528405475"><ele>34.0</ele><time>2026-04-25T09:33:54Z</time></trkpt><trkpt lat="40.948889384271446" lon="9.50199651272921"><ele>33.0</ele><time>2026-04-25T09:33:55Z</time></trkpt><trkpt lat="40.94883442085309" lon="9.501765639076604"><ele>32.0</ele><time>2026-04-25T09:33:56Z</time></trkpt><trkpt lat="40.948777625189116" lon="9.501533758473286"><ele>32.0</ele><time>2026-04-25T09:33:57Z</time></trkpt><trkpt lat="40.94871834362816" lon="9.501299186893958"><ele>32.0</ele><time>2026-04-25T09:33:58Z</time></trkpt><trkpt lat="40.94865593450944" lon="9.501062783213934"><ele>32.0</ele><time>2026-04-25T09:33:59Z</time></trkpt><trkpt lat="40.94859777289775" lon="9.500826566494476"><ele>31.666666666666664</ele><time>2026-04-25T09:34:00Z</time></trkpt><trkpt lat="40.9485403611124" lon="9.500587911634678"><ele>31.333333333333336</ele><time>2026-04-25T09:34:01Z</time></trkpt><trkpt lat="40.9484831133037" lon="9.500351923499009"><ele>31.0</ele><time>2026-04-25T09:34:02Z</time></trkpt><trkpt lat="40.94842564057511" lon="9.50011443343096"><ele>31.666666666666668</ele><time>2026-04-25T09:34:03Z</time></trkpt><trkpt lat="40.94836704172997" lon="9.499879424842119"><ele>32.333333333333336</ele><time>2026-04-25T09:34:04Z</time></trkpt><trkpt lat="40.948306480945554" lon="9.499641026943147"><ele>33.0</ele><time>2026-04-25T09:34:05Z</time></trkpt><trkpt lat="40.94824930735747" lon="9.499406462284645"><ele>33.0</ele><time>2026-04-25T09:34:06Z</time></trkpt><trkpt lat="40.94818980982415" lon="9.499170069532807"><ele>33.0</ele><time>2026-04-25T09:34:07Z</time></trkpt><trkpt lat="40.9481318171914" lon="9.49893703575956"><ele>33.0</ele><time>2026-04-25T09:34:08Z</time></trkpt><trkpt lat="40.94807355612217" lon="9.498703748158558"><ele>33.333333333333336</ele><time>2026-04-25T09:34:09Z</time></trkpt><trkpt lat="40.948015291384806" lon="9.498467935829895"><ele>33.66666666666667</ele><time>2026-04-25T09:34:10Z</time></trkpt><trkpt lat="40.94795849589303" lon="9.49823580843164"><ele>34.0</ele><time>2026-04-25T09:34:11Z</time></trkpt><trkpt lat="40.947901408189566" lon="9.498002615068629"><ele>34.66666666666667</ele><time>2026-04-25T09:34:12Z</time></trkpt><trkpt lat="40.94784381042786" lon="9.49776934943303"><ele>35.333333333333336</ele><time>2026-04-25T09:34:13Z</time></trkpt><trkpt lat="40.947786481045775" lon="9.497535251188243"><ele>36.0</ele><time>2026-04-25T09:34:14Z</time></trkpt><trkpt lat="40.947731222699645" lon="9.497301626972497"><ele>36.333333333333336</ele><time>2026-04-25T09:34:15Z</time></trkpt><trkpt lat="40.94767831111038" lon="9.497066416483932"><ele>36.66666666666667</ele><time>2026-04-25T09:34:16Z</time></trkpt><trkpt lat="40.94762441224753" lon="9.496830856245955"><ele>37.0</ele><time>2026-04-25T09:34:17Z</time></trkpt><trkpt lat="40.94757260520405" lon="9.496595136431143"><ele>37.0</ele><time>2026-04-25T09:34:18Z</time></trkpt><trkpt lat="40.947522027493704" lon="9.496361603010234"><ele>37.0</ele><time>2026-04-25T09:34:19Z</time></trkpt><trkpt lat="40.947471113136054" lon="9.496127973374941"><ele>37.0</ele><time>2026-04-25T09:34:20Z</time></trkpt><trkpt lat="40.94742111121908" lon="9.495892044097431"><ele>37.0</ele><time>2026-04-25T09:34:21Z</time></trkpt><trkpt lat="40.947370776561584" lon="9.495656072663593"><ele>37.0</ele><time>2026-04-25T09:34:22Z</time></trkpt><trkpt lat="40.94731910598937" lon="9.495419209285922"><ele>37.0</ele><time>2026-04-25T09:34:23Z</time></trkpt><trkpt lat="40.94726936049949" lon="9.495181201884074"><ele>37.66666666666667</ele><time>2026-04-25T09:34:24Z</time></trkpt><trkpt lat="40.947218749493295" lon="9.494940846508543"><ele>38.333333333333336</ele><time>2026-04-25T09:34:25Z</time></trkpt><trkpt lat="40.94716717716881" lon="9.49470250272991"><ele>39.0</ele><time>2026-04-25T09:34:26Z</time></trkpt><trkpt lat="40.94711557987663" lon="9.494467220848259"><ele>39.0</ele><time>2026-04-25T09:34:27Z</time></trkpt><trkpt lat="40.94706004663464" lon="9.494228072796572"><ele>39.0</ele><time>2026-04-25T09:34:28Z</time></trkpt><trkpt lat="40.947004871436306" lon="9.49399141863385"><ele>39.0</ele><time>2026-04-25T09:34:29Z</time></trkpt><trkpt lat="40.946950975734076" lon="9.493757239954407"><ele>39.0</ele><time>2026-04-25T09:34:30Z</time></trkpt><trkpt lat="40.94689515446592" lon="9.493525817102032"><ele>39.0</ele><time>2026-04-25T09:34:31Z</time></trkpt><trkpt lat="40.946833511517134" lon="9.493297374182859"><ele>39.0</ele><time>2026-04-25T09:34:32Z</time></trkpt><trkpt lat="40.946767920195775" lon="9.493074131141409"><ele>37.666666666666664</ele><time>2026-04-25T09:34:33Z</time></trkpt><trkpt lat="40.946700970827656" lon="9.4928558668808"><ele>36.33333333333333</ele><time>2026-04-25T09:34:34Z</time></trkpt><trkpt lat="40.94663291729244" lon="9.49263781346628"><ele>35.0</ele><time>2026-04-25T09:34:35Z</time></trkpt><trkpt lat="40.94656629054933" lon="9.492422748944966"><ele>35.0</ele><time>2026-04-25T09:34:36Z</time></trkpt><trkpt lat="40.94649488628918" lon="9.492206447302987"><ele>35.0</ele><time>2026-04-25T09:34:37Z</time></trkpt><trkpt lat="40.946424936910155" lon="9.491993445985345"><ele>35.0</ele><time>2026-04-25T09:34:38Z</time></trkpt><trkpt lat="40.94635140363765" lon="9.491778930830995"><ele>35.666666666666664</ele><time>2026-04-25T09:34:39Z</time></trkpt><trkpt lat="40.94627679647351" lon="9.491562962901284"><ele>36.333333333333336</ele><time>2026-04-25T09:34:40Z</time></trkpt><trkpt lat="40.94620184653915" lon="9.491348419296527"><ele>37.0</ele><time>2026-04-25T09:34:41Z</time></trkpt><trkpt lat="40.94612554496841" lon="9.491131650189292"><ele>38.0</ele><time>2026-04-25T09:34:42Z</time></trkpt><trkpt lat="40.9460511821711" lon="9.4909157945537"><ele>39.0</ele><time>2026-04-25T09:34:43Z</time></trkpt><trkpt lat="40.94597343766371" lon="9.490695537679036"><ele>40.0</ele><time>2026-04-25T09:34:44Z</time></trkpt><trkpt lat="40.94589631220038" lon="9.490475282774606"><ele>38.0</ele><time>2026-04-25T09:34:45Z</time></trkpt><trkpt lat="40.945817189823664" lon="9.490252316441964"><ele>36.0</ele><time>2026-04-25T09:34:46Z</time></trkpt><trkpt lat="40.94573770871952" lon="9.490031084714932"><ele>34.0</ele><time>2026-04-25T09:34:47Z</time></trkpt><trkpt lat="40.94565545808692" lon="9.489806767557035"><ele>34.333333333333336</ele><time>2026-04-25T09:34:48Z</time></trkpt><trkpt lat="40.94557109965279" lon="9.48957360040315"><ele>34.666666666666664</ele><time>2026-04-25T09:34:49Z</time></trkpt><trkpt lat="40.94548526690135" lon="9.489338445480632"><ele>35.0</ele><time>2026-04-25T09:34:50Z</time></trkpt><trkpt lat="40.945395946555514" lon="9.489104327154584"><ele>35.0</ele><time>2026-04-25T09:34:51Z</time></trkpt><trkpt lat="40.945306612920255" lon="9.488872636446429"><ele>35.0</ele><time>2026-04-25T09:34:52Z</time></trkpt><trkpt lat="40.945213525235935" lon="9.488641553995881"><ele>35.0</ele><time>2026-04-25T09:34:53Z</time></trkpt><trkpt lat="40.94511796937319" lon="9.488418287387578"><ele>35.0</ele><time>2026-04-25T09:34:54Z</time></trkpt><trkpt lat="40.94502348821938" lon="9.488191792993192"><ele>35.0</ele><time>2026-04-25T09:34:55Z</time></trkpt><trkpt lat="40.944933843797564" lon="9.487976401226787"><ele>35.0</ele><time>2026-04-25T09:34:56Z</time></trkpt><trkpt lat="40.9448442350845" lon="9.487774879764899"><ele>35.0</ele><time>2026-04-25T09:34:57Z</time></trkpt><trkpt lat="40.94475677278484" lon="9.487581771220785"><ele>35.0</ele><time>2026-04-25T09:34:58Z</time></trkpt><trkpt lat="40.94466954517882" lon="9.487392921239401"><ele>35.0</ele><time>2026-04-25T09:34:59Z</time></trkpt><trkpt lat="40.944578801826765" lon="9.48719596647397"><ele>35.666666666666664</ele><time>2026-04-25T09:35:00Z</time></trkpt><trkpt lat="40.94447667003227" lon="9.48698912854734"><ele>36.333333333333336</ele><time>2026-04-25T09:35:01Z</time></trkpt><trkpt lat="40.94437150684799" lon="9.486772101283607"><ele>37.0</ele><time>2026-04-25T09:35:02Z</time></trkpt><trkpt lat="40.94426719830171" lon="9.48655396906841"><ele>36.0</ele><time>2026-04-25T09:35:03Z</time></trkpt><trkpt lat="40.94415794477991" lon="9.486332566349526"><ele>35.0</ele><time>2026-04-25T09:35:04Z</time></trkpt><trkpt lat="40.944041372979875" lon="9.486109237708849"><ele>34.0</ele><time>2026-04-25T09:35:05Z</time></trkpt><trkpt lat="40.943916080247256" lon="9.485876449243218"><ele>33.5</ele><time>2026-04-25T09:35:06Z</time></trkpt><trkpt lat="40.94378228107176" lon="9.485631452685755"><ele>33.0</ele><time>2026-04-25T09:35:07Z</time></trkpt><trkpt lat="40.94363947793821" lon="9.485378126740553"><ele>34.5</ele><time>2026-04-25T09:35:08Z</time></trkpt><trkpt lat="40.94348416323234" lon="9.485117075535944"><ele>36.0</ele><time>2026-04-25T09:35:09Z</time></trkpt><trkpt lat="40.943325209725614" lon="9.484856949681102"><ele>33.0</ele><time>2026-04-25T09:35:10Z</time></trkpt><trkpt lat="40.943165053508466" lon="9.484596123018246"><ele>30.0</ele><time>2026-04-25T09:35:11Z</time></trkpt><trkpt lat="40.94301137342072" lon="9.484349263039043"><ele>30.0</ele><time>2026-04-25T09:35:12Z</time></trkpt><trkpt lat="40.94286497796054" lon="9.484118128349868"><ele>30.0</ele><time>2026-04-25T09:35:13Z</time></trkpt><trkpt lat="40.942722362241966" lon="9.48389802590201"><ele>30.0</ele><time>2026-04-25T09:35:14Z</time></trkpt><trkpt lat="40.94258485212901" lon="9.483690055903246"><ele>28.666666666666664</ele><time>2026-04-25T09:35:15Z</time></trkpt><trkpt lat="40.94244471756936" lon="9.483475530150015"><ele>27.333333333333332</ele><time>2026-04-25T09:35:16Z</time></trkpt><trkpt lat="40.94230632010626" lon="9.483264604990914"><ele>26.0</ele><time>2026-04-25T09:35:17Z</time></trkpt><trkpt lat="40.9421670067843" lon="9.483055456654432"><ele>25.666666666666664</ele><time>2026-04-25T09:35:18Z</time></trkpt><trkpt lat="40.94202800851922" lon="9.482845732190995"><ele>25.333333333333336</ele><time>2026-04-25T09:35:19Z</time></trkpt><trkpt lat="40.941887587614914" lon="9.482636236936965"><ele>25.0</ele><time>2026-04-25T09:35:20Z</time></trkpt><trkpt lat="40.94174547637134" lon="9.482422444122419"><ele>23.333333333333336</ele><time>2026-04-25T09:35:21Z</time></trkpt><trkpt lat="40.941606660663325" lon="9.482208985546942"><ele>21.666666666666668</ele><time>2026-04-25T09:35:22Z</time></trkpt><trkpt lat="40.941465263356434" lon="9.481994991110152"><ele>20.0</ele><time>2026-04-25T09:35:23Z</time></trkpt><trkpt lat="40.94132253885841" lon="9.481779068107494"><ele>20.0</ele><time>2026-04-25T09:35:24Z</time></trkpt><trkpt lat="40.94118211818173" lon="9.4815637457547"><ele>20.0</ele><time>2026-04-25T09:35:25Z</time></trkpt><trkpt lat="40.94104487718344" lon="9.481350267570477"><ele>20.0</ele><time>2026-04-25T09:35:26Z</time></trkpt><trkpt lat="40.94090466686089" lon="9.481137275976769"><ele>18.5</ele><time>2026-04-25T09:35:27Z</time></trkpt><trkpt lat="40.94075785985929" lon="9.480920206639285"><ele>17.0</ele><time>2026-04-25T09:35:28Z</time></trkpt><trkpt lat="40.94060197891722" lon="9.480687796545764"><ele>17.0</ele><time>2026-04-25T09:35:29Z</time></trkpt><trkpt lat="40.940443843150916" lon="9.480447722757566"><ele>17.0</ele><time>2026-04-25T09:35:30Z</time></trkpt><trkpt lat="40.94028898955967" lon="9.480214271309537"><ele>17.0</ele><time>2026-04-25T09:35:31Z</time></trkpt><trkpt lat="40.94014088118266" lon="9.47999090895693"><ele>17.0</ele><time>2026-04-25T09:35:32Z</time></trkpt><trkpt lat="40.93999734621931" lon="9.47977280511358"><ele>17.0</ele><time>2026-04-25T09:35:33Z</time></trkpt><trkpt lat="40.93985195204734" lon="9.47955115183824"><ele>18.333333333333336</ele><time>2026-04-25T09:35:34Z</time></trkpt><trkpt lat="40.93970689645102" lon="9.479330864447322"><ele>19.666666666666668</ele><time>2026-04-25T09:35:35Z</time></trkpt><trkpt lat="40.9395599310663" lon="9.47910786674612"><ele>21.0</ele><time>2026-04-25T09:35:36Z</time></trkpt><trkpt lat="40.93941155212644" lon="9.478884875245459"><ele>21.333333333333332</ele><time>2026-04-25T09:35:37Z</time></trkpt><trkpt lat="40.939265454116125" lon="9.478661901519278"><ele>21.666666666666664</ele><time>2026-04-25T09:35:38Z</time></trkpt><trkpt lat="40.93912110343213" lon="9.478442507434412"><ele>22.0</ele><time>2026-04-25T09:35:39Z</time></trkpt><trkpt lat="40.938971653643605" lon="9.478220943356305"><ele>20.666666666666664</ele><time>2026-04-25T09:35:40Z</time></trkpt><trkpt lat="40.93882724905428" lon="9.478004815814659"><ele>19.333333333333332</ele><time>2026-04-25T09:35:41Z</time></trkpt><trkpt lat="40.93868299738171" lon="9.477785667654784"><ele>18.0</ele><time>2026-04-25T09:35:42Z</time></trkpt><trkpt lat="40.938543136519236" lon="9.477568586498123"><ele>17.333333333333332</ele><time>2026-04-25T09:35:43Z</time></trkpt><trkpt lat="40.938400313705955" lon="9.477350494901003"><ele>16.666666666666664</ele><time>2026-04-25T09:35:44Z</time></trkpt><trkpt lat="40.93825334916678" lon="9.47712735709982"><ele>16.0</ele><time>2026-04-25T09:35:45Z</time></trkpt><trkpt lat="40.93810669925554" lon="9.476903605877158"><ele>15.0</ele><time>2026-04-25T09:35:46Z</time></trkpt><trkpt lat="40.93796012509288" lon="9.476680489336559"><ele>14.0</ele><time>2026-04-25T09:35:47Z</time></trkpt><trkpt lat="40.937811053070234" lon="9.476453444352925"><ele>14.0</ele><time>2026-04-25T09:35:48Z</time></trkpt><trkpt lat="40.93767041213358" lon="9.47623458356015"><ele>14.0</ele><time>2026-04-25T09:35:49Z</time></trkpt><trkpt lat="40.937530354702936" lon="9.476011264686232"><ele>14.0</ele><time>2026-04-25T09:35:50Z</time></trkpt><trkpt lat="40.937397242235996" lon="9.475788324527612"><ele>14.333333333333334</ele><time>2026-04-25T09:35:51Z</time></trkpt><trkpt lat="40.93726714747415" lon="9.475554346487142"><ele>14.666666666666668</ele><time>2026-04-25T09:35:52Z</time></trkpt><trkpt lat="40.937152524638186" lon="9.475319144911047"><ele>15.0</ele><time>2026-04-25T09:35:53Z</time></trkpt><trkpt lat="40.93704331303764" lon="9.475077142184054"><ele>15.333333333333332</ele><time>2026-04-25T09:35:54Z</time></trkpt><trkpt lat="40.93693980299087" lon="9.474834607028255"><ele>15.666666666666666</ele><time>2026-04-25T09:35:55Z</time></trkpt><trkpt lat="40.9368392117666" lon="9.474590565340852"><ele>16.0</ele><time>2026-04-25T09:35:56Z</time></trkpt><trkpt lat="40.936745466773665" lon="9.474334445152069"><ele>15.666666666666666</ele><time>2026-04-25T09:35:57Z</time></trkpt><trkpt lat="40.93666855312687" lon="9.474071238192263"><ele>15.333333333333332</ele><time>2026-04-25T09:35:58Z</time></trkpt><trkpt lat="40.93659372147449" lon="9.473795299380425"><ele>15.0</ele><time>2026-04-25T09:35:59Z</time></trkpt><trkpt lat="40.93652468785612" lon="9.473507104256898"><ele>16.0</ele><time>2026-04-25T09:36:00Z</time></trkpt><trkpt lat="40.93646284830657" lon="9.473200701579254"><ele>17.0</ele><time>2026-04-25T09:36:01Z</time></trkpt><trkpt lat="40.936408157366444" lon="9.472888827030188"><ele>18.0</ele><time>2026-04-25T09:36:02Z</time></trkpt><trkpt lat="40.93636383940696" lon="9.472576081062659"><ele>19.0</ele><time>2026-04-25T09:36:03Z</time></trkpt><trkpt lat="40.93632439487519" lon="9.472268181967854"><ele>20.5</ele><time>2026-04-25T09:36:04Z</time></trkpt><trkpt lat="40.93628648163596" lon="9.471963523045853"><ele>22.0</ele><time>2026-04-25T09:36:05Z</time></trkpt><trkpt lat="40.93624671161178" lon="9.47166068459676"><ele>22.0</ele><time>2026-04-25T09:36:06Z</time></trkpt><trkpt lat="40.936206820840994" lon="9.471361117321145"><ele>22.0</ele><time>2026-04-25T09:36:07Z</time></trkpt><trkpt lat="40.936166006794515" lon="9.471060167692912"><ele>21.0</ele><time>2026-04-25T09:36:08Z</time></trkpt><trkpt lat="40.936126861845594" lon="9.470765261201782"><ele>20.0</ele><time>2026-04-25T09:36:09Z</time></trkpt><trkpt lat="40.93608692736186" lon="9.470470566349393"><ele>19.0</ele><time>2026-04-25T09:36:10Z</time></trkpt><trkpt lat="40.936046798369354" lon="9.470172550586184"><ele>18.0</ele><time>2026-04-25T09:36:11Z</time></trkpt><trkpt lat="40.93600895078768" lon="9.469879565601525"><ele>18.666666666666668</ele><time>2026-04-25T09:36:12Z</time></trkpt><trkpt lat="40.93596722453242" lon="9.469582167982072"><ele>19.333333333333336</ele><time>2026-04-25T09:36:13Z</time></trkpt><trkpt lat="40.935929462839844" lon="9.469308899595953"><ele>20.0</ele><time>2026-04-25T09:36:14Z</time></trkpt><trkpt lat="40.93589315732794" lon="9.46904087150817"><ele>20.333333333333336</ele><time>2026-04-25T09:36:15Z</time></trkpt><trkpt lat="40.935852869555994" lon="9.46876314386602"><ele>20.666666666666668</ele><time>2026-04-25T09:36:16Z</time></trkpt><trkpt lat="40.93580378672624" lon="9.468478782632857"><ele>21.0</ele><time>2026-04-25T09:36:17Z</time></trkpt><trkpt lat="40.93574487768798" lon="9.468176073621718"><ele>21.0</ele><time>2026-04-25T09:36:18Z</time></trkpt><trkpt lat="40.935679315438854" lon="9.467860019840659"><ele>21.0</ele><time>2026-04-25T09:36:19Z</time></trkpt><trkpt lat="40.9356035627191" lon="9.467530962945629"><ele>21.0</ele><time>2026-04-25T09:36:20Z</time></trkpt><trkpt lat="40.93551595120254" lon="9.467195632321065"><ele>21.0</ele><time>2026-04-25T09:36:21Z</time></trkpt><trkpt lat="40.9354198263501" lon="9.466851593316266"><ele>20.5</ele><time>2026-04-25T09:36:22Z</time></trkpt><trkpt lat="40.935319332773936" lon="9.46651839434186"><ele>20.0</ele><time>2026-04-25T09:36:23Z</time></trkpt><trkpt lat="40.93522120870936" lon="9.466213176591431"><ele>20.0</ele><time>2026-04-25T09:36:24Z</time></trkpt><trkpt lat="40.93512105826801" lon="9.46592647591807"><ele>20.0</ele><time>2026-04-25T09:36:25Z</time></trkpt><trkpt lat="40.93501935518354" lon="9.46565934439074"><ele>19.333333333333336</ele><time>2026-04-25T09:36:26Z</time></trkpt><trkpt lat="40.93491620755258" lon="9.465407349797388"><ele>18.666666666666668</ele><time>2026-04-25T09:36:27Z</time></trkpt><trkpt lat="40.93480889668044" lon="9.465164860145896"><ele>18.0</ele><time>2026-04-25T09:36:28Z</time></trkpt><trkpt lat="40.934697831451544" lon="9.464925132705309"><ele>18.0</ele><time>2026-04-25T09:36:29Z</time></trkpt><trkpt lat="40.93458494367986" lon="9.464689307754744"><ele>18.0</ele><time>2026-04-25T09:36:30Z</time></trkpt><trkpt lat="40.934465052791246" lon="9.46445460104604"><ele>18.0</ele><time>2026-04-25T09:36:31Z</time></trkpt><trkpt lat="40.934340681327896" lon="9.464223202135734"><ele>18.0</ele><time>2026-04-25T09:36:32Z</time></trkpt><trkpt lat="40.93421238805882" lon="9.463995270946855"><ele>18.0</ele><time>2026-04-25T09:36:33Z</time></trkpt><trkpt lat="40.93407656315139" lon="9.463769663341685"><ele>18.0</ele><time>2026-04-25T09:36:34Z</time></trkpt><trkpt lat="40.93393364735972" lon="9.463541037439034"><ele>18.0</ele><time>2026-04-25T09:36:35Z</time></trkpt><trkpt lat="40.933783309068374" lon="9.46331276128579"><ele>18.0</ele><time>2026-04-25T09:36:36Z</time></trkpt><trkpt lat="40.93363003419386" lon="9.4630855331135"><ele>17.666666666666668</ele><time>2026-04-25T09:36:37Z</time></trkpt><trkpt lat="40.93346971530979" lon="9.462869286467686"><ele>17.333333333333336</ele><time>2026-04-25T09:36:38Z</time></trkpt><trkpt lat="40.93331291754562" lon="9.462670136677104"><ele>17.0</ele><time>2026-04-25T09:36:39Z</time></trkpt><trkpt lat="40.93315282398666" lon="9.46247341201792"><ele>17.0</ele><time>2026-04-25T09:36:40Z</time></trkpt><trkpt lat="40.93299199110187" lon="9.46228879233494"><ele>17.0</ele><time>2026-04-25T09:36:41Z</time></trkpt><trkpt lat="40.932829367364015" lon="9.462108001706124"><ele>17.0</ele><time>2026-04-25T09:36:42Z</time></trkpt><trkpt lat="40.93266624322655" lon="9.461935912771196"><ele>17.0</ele><time>2026-04-25T09:36:43Z</time></trkpt><trkpt lat="40.93249999445083" lon="9.46177027776487"><ele>17.0</ele><time>2026-04-25T09:36:44Z</time></trkpt><trkpt lat="40.93233591893179" lon="9.461611255074903"><ele>17.0</ele><time>2026-04-25T09:36:45Z</time></trkpt><trkpt lat="40.93216905729916" lon="9.46146140973129"><ele>17.0</ele><time>2026-04-25T09:36:46Z</time></trkpt><trkpt lat="40.93200192561382" lon="9.461315642029891"><ele>17.0</ele><time>2026-04-25T09:36:47Z</time></trkpt><trkpt lat="40.93183249090106" lon="9.46117212114465"><ele>17.0</ele><time>2026-04-25T09:36:48Z</time></trkpt><trkpt lat="40.93166454062346" lon="9.46103715522789"><ele>17.666666666666668</ele><time>2026-04-25T09:36:49Z</time></trkpt><trkpt lat="40.93149107672591" lon="9.460904822738682"><ele>18.333333333333332</ele><time>2026-04-25T09:36:50Z</time></trkpt><trkpt lat="40.93131633795969" lon="9.460777700009427"><ele>19.0</ele><time>2026-04-25T09:36:51Z</time></trkpt><trkpt lat="40.931140473130185" lon="9.46065957405756"><ele>19.0</ele><time>2026-04-25T09:36:52Z</time></trkpt><trkpt lat="40.93095906129594" lon="9.460541213639546"><ele>19.0</ele><time>2026-04-25T09:36:53Z</time></trkpt><trkpt lat="40.93077766944751" lon="9.460436331492247"><ele>19.0</ele><time>2026-04-25T09:36:54Z</time></trkpt><trkpt lat="40.930591672002805" lon="9.460329765371284"><ele>19.333333333333332</ele><time>2026-04-25T09:36:55Z</time></trkpt><trkpt lat="40.930407210767235" lon="9.460229006735355"><ele>19.666666666666668</ele><time>2026-04-25T09:36:56Z</time></trkpt><trkpt lat="40.93022432586154" lon="9.460137651441283"><ele>20.0</ele><time>2026-04-25T09:36:57Z</time></trkpt><trkpt lat="40.93004209290738" lon="9.460027373389531"><ele>19.333333333333336</ele><time>2026-04-25T09:36:58Z</time></trkpt><trkpt lat="40.929849069466904" lon="9.459941144222014"><ele>18.666666666666668</ele><time>2026-04-25T09:36:59Z</time></trkpt><trkpt lat="40.929648667397345" lon="9.459861304724626"><ele>18.0</ele><time>2026-04-25T09:37:00Z</time></trkpt><trkpt lat="40.92945066587789" lon="9.45978699433292"><ele>18.0</ele><time>2026-04-25T09:37:01Z</time></trkpt><trkpt lat="40.92924813649473" lon="9.459715751162616"><ele>18.0</ele><time>2026-04-25T09:37:02Z</time></trkpt><trkpt lat="40.92903975666399" lon="9.45966872512374"><ele>18.0</ele><time>2026-04-25T09:37:03Z</time></trkpt><trkpt lat="40.92883259021047" lon="9.459604497461843"><ele>18.333333333333332</ele><time>2026-04-25T09:37:04Z</time></trkpt><trkpt lat="40.92862179674314" lon="9.459545056404"><ele>18.666666666666664</ele><time>2026-04-25T09:37:05Z</time></trkpt><trkpt lat="40.928409853204805" lon="9.459488789122746"><ele>19.0</ele><time>2026-04-25T09:37:06Z</time></trkpt><trkpt lat="40.92819495328658" lon="9.4594316616039"><ele>19.666666666666664</ele><time>2026-04-25T09:37:07Z</time></trkpt><trkpt lat="40.92798538325049" lon="9.459374338969525"><ele>20.333333333333332</ele><time>2026-04-25T09:37:08Z</time></trkpt><trkpt lat="40.927787278823956" lon="9.45931775466479"><ele>21.0</ele><time>2026-04-25T09:37:09Z</time></trkpt><trkpt lat="40.927596486965015" lon="9.459262888046755"><ele>21.666666666666668</ele><time>2026-04-25T09:37:10Z</time></trkpt><trkpt lat="40.92740683240677" lon="9.459210443567379"><ele>22.333333333333336</ele><time>2026-04-25T09:37:11Z</time></trkpt><trkpt lat="40.927217531341206" lon="9.459157502261304"><ele>23.0</ele><time>2026-04-25T09:37:12Z</time></trkpt><trkpt lat="40.927028491482005" lon="9.459105076568704"><ele>23.0</ele><time>2026-04-25T09:37:13Z</time></trkpt><trkpt lat="40.92683422161644" lon="9.459051515264788"><ele>23.0</ele><time>2026-04-25T09:37:14Z</time></trkpt><trkpt lat="40.92664211672973" lon="9.458995455807623"><ele>23.0</ele><time>2026-04-25T09:37:15Z</time></trkpt><trkpt lat="40.9264487824395" lon="9.45894122666"><ele>23.333333333333336</ele><time>2026-04-25T09:37:16Z</time></trkpt><trkpt lat="40.926257996686665" lon="9.458887077803771"><ele>23.666666666666668</ele><time>2026-04-25T09:37:17Z</time></trkpt><trkpt lat="40.926076433654586" lon="9.458837166759702"><ele>24.0</ele><time>2026-04-25T09:37:18Z</time></trkpt><trkpt lat="40.92589214730139" lon="9.458786065559659"><ele>23.0</ele><time>2026-04-25T09:37:19Z</time></trkpt><trkpt lat="40.925708106079306" lon="9.458735542303433"><ele>22.0</ele><time>2026-04-25T09:37:20Z</time></trkpt><trkpt lat="40.92552275873205" lon="9.458686864919489"><ele>21.0</ele><time>2026-04-25T09:37:21Z</time></trkpt><trkpt lat="40.92533296694055" lon="9.458636268201552"><ele>21.0</ele><time>2026-04-25T09:37:22Z</time></trkpt><trkpt lat="40.92514191379056" lon="9.45858528677695"><ele>21.0</ele><time>2026-04-25T09:37:23Z</time></trkpt><trkpt lat="40.924949440389156" lon="9.458533485529314"><ele>21.0</ele><time>2026-04-25T09:37:24Z</time></trkpt><trkpt lat="40.924755541645034" lon="9.458481259147982"><ele>20.666666666666668</ele><time>2026-04-25T09:37:25Z</time></trkpt><trkpt lat="40.92455803860661" lon="9.458429681229761"><ele>20.333333333333336</ele><time>2026-04-25T09:37:26Z</time></trkpt><trkpt lat="40.92435505716536" lon="9.458372689445476"><ele>20.0</ele><time>2026-04-25T09:37:27Z</time></trkpt><trkpt lat="40.92414545344294" lon="9.458315504759772"><ele>19.333333333333336</ele><time>2026-04-25T09:37:28Z</time></trkpt><trkpt lat="40.923930977311414" lon="9.458256309331006"><ele>18.666666666666668</ele><time>2026-04-25T09:37:29Z</time></trkpt><trkpt lat="40.92371551274791" lon="9.458195946536978"><ele>18.0</ele><time>2026-04-25T09:37:30Z</time></trkpt><trkpt lat="40.92350210134649" lon="9.458136464418107"><ele>17.0</ele><time>2026-04-25T09:37:31Z</time></trkpt><trkpt lat="40.92328985580928" lon="9.4580790386374"><ele>16.0</ele><time>2026-04-25T09:37:32Z</time></trkpt><trkpt lat="40.9230780124183" lon="9.45802229087886"><ele>15.0</ele><time>2026-04-25T09:37:33Z</time></trkpt><trkpt lat="40.92286580552318" lon="9.457967507679058"><ele>15.0</ele><time>2026-04-25T09:37:34Z</time></trkpt><trkpt lat="40.92265937412075" lon="9.457923147743449"><ele>15.0</ele><time>2026-04-25T09:37:35Z</time></trkpt><trkpt lat="40.92245935336889" lon="9.457886075111062"><ele>15.0</ele><time>2026-04-25T09:37:36Z</time></trkpt><trkpt lat="40.92225765470364" lon="9.457859480951551"><ele>16.0</ele><time>2026-04-25T09:37:37Z</time></trkpt><trkpt lat="40.9220515795723" lon="9.457840631756593"><ele>17.0</ele><time>2026-04-25T09:37:38Z</time></trkpt><trkpt lat="40.921839966719155" lon="9.457835851734318"><ele>18.0</ele><time>2026-04-25T09:37:39Z</time></trkpt><trkpt lat="40.921622855203495" lon="9.457838125074309"><ele>19.0</ele><time>2026-04-25T09:37:40Z</time></trkpt><trkpt lat="40.921405746029656" lon="9.457851342581426"><ele>20.0</ele><time>2026-04-25T09:37:41Z</time></trkpt><trkpt lat="40.921186764038644" lon="9.457874372071885"><ele>21.0</ele><time>2026-04-25T09:37:42Z</time></trkpt><trkpt lat="40.92097135663124" lon="9.457910154488758"><ele>20.666666666666668</ele><time>2026-04-25T09:37:43Z</time></trkpt><trkpt lat="40.92075851450434" lon="9.45795518982452"><ele>20.333333333333336</ele><time>2026-04-25T09:37:44Z</time></trkpt><trkpt lat="40.9205517095635" lon="9.458008691011957"><ele>20.0</ele><time>2026-04-25T09:37:45Z</time></trkpt><trkpt lat="40.92035004044573" lon="9.458070916193336"><ele>20.0</ele><time>2026-04-25T09:37:46Z</time></trkpt><trkpt lat="40.92014973519676" lon="9.45814189607434"><ele>20.0</ele><time>2026-04-25T09:37:47Z</time></trkpt><trkpt lat="40.91995242098279" lon="9.4582205140338"><ele>20.0</ele><time>2026-04-25T09:37:48Z</time></trkpt><trkpt lat="40.91975524074096" lon="9.458313364903054"><ele>20.0</ele><time>2026-04-25T09:37:49Z</time></trkpt><trkpt lat="40.9195624063059" lon="9.45841347129827"><ele>20.0</ele><time>2026-04-25T09:37:50Z</time></trkpt><trkpt lat="40.91936398423708" lon="9.458520795671134"><ele>20.0</ele><time>2026-04-25T09:37:51Z</time></trkpt><trkpt lat="40.9191505889" lon="9.458641365562872"><ele>20.333333333333336</ele><time>2026-04-25T09:37:52Z</time></trkpt><trkpt lat="40.9189412369057" lon="9.458760296013788"><ele>20.666666666666668</ele><time>2026-04-25T09:37:53Z</time></trkpt><trkpt lat="40.91874158326262" lon="9.458876088224896"><ele>21.0</ele><time>2026-04-25T09:37:54Z</time></trkpt><trkpt lat="40.91855200176519" lon="9.458982266991143"><ele>22.0</ele><time>2026-04-25T09:37:55Z</time></trkpt><trkpt lat="40.91836899684261" lon="9.459086044552876"><ele>23.0</ele><time>2026-04-25T09:37:56Z</time></trkpt><trkpt lat="40.91818011540737" lon="9.459195082760282"><ele>24.0</ele><time>2026-04-25T09:37:57Z</time></trkpt><trkpt lat="40.91799460308764" lon="9.459308423148634"><ele>24.0</ele><time>2026-04-25T09:37:58Z</time></trkpt><trkpt lat="40.917811105511035" lon="9.459422500640525"><ele>24.0</ele><time>2026-04-25T09:37:59Z</time></trkpt><trkpt lat="40.91762504100166" lon="9.459543282051445"><ele>24.0</ele><time>2026-04-25T09:38:00Z</time></trkpt><trkpt lat="40.91743827282514" lon="9.459676981579973"><ele>22.666666666666668</ele><time>2026-04-25T09:38:01Z</time></trkpt><trkpt lat="40.917253914407674" lon="9.459826841866047"><ele>21.333333333333336</ele><time>2026-04-25T09:38:02Z</time></trkpt><trkpt lat="40.91707438756351" lon="9.459995087399811"><ele>20.0</ele><time>2026-04-25T09:38:03Z</time></trkpt><trkpt lat="40.91690311565761" lon="9.460173372069052"><ele>20.0</ele><time>2026-04-25T09:38:04Z</time></trkpt><trkpt lat="40.91673778023692" lon="9.460362360746227"><ele>20.0</ele><time>2026-04-25T09:38:05Z</time></trkpt><trkpt lat="40.916575639743755" lon="9.460563865789217"><ele>20.0</ele><time>2026-04-25T09:38:06Z</time></trkpt><trkpt lat="40.91642334072369" lon="9.460771238932628"><ele>21.0</ele><time>2026-04-25T09:38:07Z</time></trkpt><trkpt lat="40.91627754163983" lon="9.460983289178088"><ele>22.0</ele><time>2026-04-25T09:38:08Z</time></trkpt><trkpt lat="40.91613987484077" lon="9.461197071582284"><ele>23.0</ele><time>2026-04-25T09:38:09Z</time></trkpt><trkpt lat="40.91601091689188" lon="9.461416835381167"><ele>26.666666666666668</ele><time>2026-04-25T09:38:10Z</time></trkpt><trkpt lat="40.915890617998514" lon="9.461644845836593"><ele>30.333333333333336</ele><time>2026-04-25T09:38:11Z</time></trkpt><trkpt lat="40.91578019070226" lon="9.461881610647437"><ele>34.0</ele><time>2026-04-25T09:38:12Z</time></trkpt><trkpt lat="40.91567967106538" lon="9.46212622313139"><ele>34.0</ele><time>2026-04-25T09:38:13Z</time></trkpt><trkpt lat="40.91558519148595" lon="9.462379407960036"><ele>34.0</ele><time>2026-04-25T09:38:14Z</time></trkpt><trkpt lat="40.91549553490557" lon="9.462637813809968"><ele>34.0</ele><time>2026-04-25T09:38:15Z</time></trkpt><trkpt lat="40.915412694358224" lon="9.462901715757436"><ele>32.0</ele><time>2026-04-25T09:38:16Z</time></trkpt><trkpt lat="40.91533717248755" lon="9.463175462045264"><ele>30.0</ele><time>2026-04-25T09:38:17Z</time></trkpt><trkpt lat="40.9152646136916" lon="9.46344983728598"><ele>28.0</ele><time>2026-04-25T09:38:18Z</time></trkpt><trkpt lat="40.91518944610881" lon="9.463726864568791"><ele>28.666666666666668</ele><time>2026-04-25T09:38:19Z</time></trkpt><trkpt lat="40.91511333847463" lon="9.4639997684154"><ele>29.333333333333336</ele><time>2026-04-25T09:38:20Z</time></trkpt><trkpt lat="40.915036691394704" lon="9.46427382404054"><ele>30.0</ele><time>2026-04-25T09:38:21Z</time></trkpt><trkpt lat="40.914960444605796" lon="9.464544691946363"><ele>33.666666666666664</ele><time>2026-04-25T09:38:22Z</time></trkpt><trkpt lat="40.91488413781001" lon="9.464813346025611"><ele>37.33333333333333</ele><time>2026-04-25T09:38:23Z</time></trkpt><trkpt lat="40.914807607946145" lon="9.465085140685337"><ele>41.0</ele><time>2026-04-25T09:38:24Z</time></trkpt><trkpt lat="40.91472999909894" lon="9.465356247825133"><ele>39.666666666666664</ele><time>2026-04-25T09:38:25Z</time></trkpt><trkpt lat="40.91464717883951" lon="9.465622412234252"><ele>38.333333333333336</ele><time>2026-04-25T09:38:26Z</time></trkpt><trkpt lat="40.91455062296058" lon="9.465880174456203"><ele>37.0</ele><time>2026-04-25T09:38:27Z</time></trkpt><trkpt lat="40.914442814263445" lon="9.466131366696985"><ele>36.333333333333336</ele><time>2026-04-25T09:38:28Z</time></trkpt><trkpt lat="40.91432812030743" lon="9.46637705268526"><ele>35.666666666666664</ele><time>2026-04-25T09:38:29Z</time></trkpt><trkpt lat="40.91420710227299" lon="9.46661371664877"><ele>35.0</ele><time>2026-04-25T09:38:30Z</time></trkpt><trkpt lat="40.91407687140812" lon="9.466840911832374"><ele>36.0</ele><time>2026-04-25T09:38:31Z</time></trkpt><trkpt lat="40.91393888656459" lon="9.467064697689004"><ele>37.0</ele><time>2026-04-25T09:38:32Z</time></trkpt><trkpt lat="40.91379324328243" lon="9.46727979094207"><ele>38.0</ele><time>2026-04-25T09:38:33Z</time></trkpt><trkpt lat="40.91363939310202" lon="9.46748616880887"><ele>38.0</ele><time>2026-04-25T09:38:34Z</time></trkpt><trkpt lat="40.91347798128534" lon="9.46768432599211"><ele>38.0</ele><time>2026-04-25T09:38:35Z</time></trkpt><trkpt lat="40.91330807949709" lon="9.467876760795333"><ele>38.0</ele><time>2026-04-25T09:38:36Z</time></trkpt><trkpt lat="40.91312831490772" lon="9.468066304651977"><ele>38.5</ele><time>2026-04-25T09:38:37Z</time></trkpt><trkpt lat="40.91293059461467" lon="9.468264019228297"><ele>39.0</ele><time>2026-04-25T09:38:38Z</time></trkpt><trkpt lat="40.91271451714109" lon="9.468429429164686"><ele>40.0</ele><time>2026-04-25T09:38:39Z</time></trkpt><trkpt lat="40.91250796820293" lon="9.468607536381471"><ele>41.0</ele><time>2026-04-25T09:38:40Z</time></trkpt><trkpt lat="40.91231428437708" lon="9.468797449275439"><ele>41.0</ele><time>2026-04-25T09:38:41Z</time></trkpt><trkpt lat="40.91211416651228" lon="9.468959432922565"><ele>41.0</ele><time>2026-04-25T09:38:42Z</time></trkpt><trkpt lat="40.91191790621987" lon="9.469122916760323"><ele>40.5</ele><time>2026-04-25T09:38:43Z</time></trkpt><trkpt lat="40.91172274705546" lon="9.469287507198842"><ele>40.0</ele><time>2026-04-25T09:38:44Z</time></trkpt><trkpt lat="40.911517608187964" lon="9.469436707750935"><ele>40.0</ele><time>2026-04-25T09:38:45Z</time></trkpt><trkpt lat="40.91132156348272" lon="9.469603462828864"><ele>40.0</ele><time>2026-04-25T09:38:46Z</time></trkpt><trkpt lat="40.91112652288141" lon="9.469780844609549"><ele>39.0</ele><time>2026-04-25T09:38:47Z</time></trkpt><trkpt lat="40.91093458941055" lon="9.469962138215497"><ele>38.0</ele><time>2026-04-25T09:38:48Z</time></trkpt><trkpt lat="40.910744014515984" lon="9.470142148598459"><ele>36.0</ele><time>2026-04-25T09:38:49Z</time></trkpt><trkpt lat="40.91055460684066" lon="9.470320104361896"><ele>34.0</ele><time>2026-04-25T09:38:50Z</time></trkpt><trkpt lat="40.910366473765706" lon="9.470495077240509"><ele>32.0</ele><time>2026-04-25T09:38:51Z</time></trkpt><trkpt lat="40.91017999982195" lon="9.470668795516984"><ele>30.0</ele><time>2026-04-25T09:38:52Z</time></trkpt><trkpt lat="40.909996499563874" lon="9.470841346415538"><ele>28.5</ele><time>2026-04-25T09:38:53Z</time></trkpt><trkpt lat="40.90981484528237" lon="9.471016993407783"><ele>27.0</ele><time>2026-04-25T09:38:54Z</time></trkpt><trkpt lat="40.909633715788246" lon="9.471195782111215"><ele>26.5</ele><time>2026-04-25T09:38:55Z</time></trkpt><trkpt lat="40.90945476280885" lon="9.471383171161238"><ele>26.0</ele><time>2026-04-25T09:38:56Z</time></trkpt><trkpt lat="40.90928019363106" lon="9.471581173272815"><ele>28.0</ele><time>2026-04-25T09:38:57Z</time></trkpt><trkpt lat="40.90910449106585" lon="9.471782712320131"><ele>30.0</ele><time>2026-04-25T09:38:58Z</time></trkpt><trkpt lat="40.908927501792924" lon="9.471985727350818"><ele>29.0</ele><time>2026-04-25T09:38:59Z</time></trkpt><trkpt lat="40.90875316802448" lon="9.472187992612252"><ele>28.0</ele><time>2026-04-25T09:39:00Z</time></trkpt><trkpt lat="40.9085937954803" lon="9.472401716866647"><ele>28.0</ele><time>2026-04-25T09:39:01Z</time></trkpt><trkpt lat="40.90841513410112" lon="9.472576894510633"><ele>28.0</ele><time>2026-04-25T09:39:02Z</time></trkpt><trkpt lat="40.908245256228355" lon="9.472768399155706"><ele>28.0</ele><time>2026-04-25T09:39:03Z</time></trkpt><trkpt lat="40.90807307163286" lon="9.472962504185379"><ele>28.0</ele><time>2026-04-25T09:39:04Z</time></trkpt><trkpt lat="40.90790133353966" lon="9.473155595024064"><ele>28.0</ele><time>2026-04-25T09:39:05Z</time></trkpt><trkpt lat="40.9077312905855" lon="9.473346750372711"><ele>28.0</ele><time>2026-04-25T09:39:06Z</time></trkpt><trkpt lat="40.90756280925385" lon="9.47353727756915"><ele>28.0</ele><time>2026-04-25T09:39:07Z</time></trkpt><trkpt lat="40.907392343016745" lon="9.473730778484752"><ele>28.0</ele><time>2026-04-25T09:39:08Z</time></trkpt><trkpt lat="40.90722204640783" lon="9.473928824096431"><ele>29.0</ele><time>2026-04-25T09:39:09Z</time></trkpt><trkpt lat="40.90705659999302" lon="9.474138494663368"><ele>30.0</ele><time>2026-04-25T09:39:10Z</time></trkpt><trkpt lat="40.90688080796404" lon="9.474333790434635"><ele>30.0</ele><time>2026-04-25T09:39:11Z</time></trkpt><trkpt lat="40.906695554314595" lon="9.474529694037386"><ele>30.0</ele><time>2026-04-25T09:39:12Z</time></trkpt><trkpt lat="40.90651075012384" lon="9.474722515683833"><ele>28.5</ele><time>2026-04-25T09:39:13Z</time></trkpt><trkpt lat="40.90633880968206" lon="9.47492537509788"><ele>27.0</ele><time>2026-04-25T09:39:14Z</time></trkpt><trkpt lat="40.90615568255148" lon="9.475105512685092"><ele>27.0</ele><time>2026-04-25T09:39:15Z</time></trkpt><trkpt lat="40.90597319534175" lon="9.475280665032662"><ele>27.0</ele><time>2026-04-25T09:39:16Z</time></trkpt><trkpt lat="40.90579513959344" lon="9.475450957455122"><ele>27.0</ele><time>2026-04-25T09:39:17Z</time></trkpt><trkpt lat="40.9056142486162" lon="9.475620658526065"><ele>28.0</ele><time>2026-04-25T09:39:18Z</time></trkpt><trkpt lat="40.90543618594536" lon="9.475785274891297"><ele>29.0</ele><time>2026-04-25T09:39:19Z</time></trkpt><trkpt lat="40.90525479964075" lon="9.47595315811131"><ele>30.0</ele><time>2026-04-25T09:39:20Z</time></trkpt><trkpt lat="40.90507241202109" lon="9.476118561540464"><ele>30.0</ele><time>2026-04-25T09:39:21Z</time></trkpt><trkpt lat="40.90489150534494" lon="9.47628009075632"><ele>30.0</ele><time>2026-04-25T09:39:22Z</time></trkpt><trkpt lat="40.90471218240919" lon="9.476442987012906"><ele>30.0</ele><time>2026-04-25T09:39:23Z</time></trkpt><trkpt lat="40.90453288322669" lon="9.47660380268839"><ele>30.0</ele><time>2026-04-25T09:39:24Z</time></trkpt><trkpt lat="40.904354558279785" lon="9.476765703195658"><ele>30.0</ele><time>2026-04-25T09:39:25Z</time></trkpt><trkpt lat="40.904177471895835" lon="9.476926055579826"><ele>30.0</ele><time>2026-04-25T09:39:26Z</time></trkpt><trkpt lat="40.90400345541672" lon="9.477082343925161"><ele>29.0</ele><time>2026-04-25T09:39:27Z</time></trkpt><trkpt lat="40.90382946654407" lon="9.477242315654845"><ele>28.0</ele><time>2026-04-25T09:39:28Z</time></trkpt><trkpt lat="40.90365639156081" lon="9.477398105553444"><ele>27.0</ele><time>2026-04-25T09:39:29Z</time></trkpt><trkpt lat="40.90348509561216" lon="9.477553796405296"><ele>26.0</ele><time>2026-04-25T09:39:30Z</time></trkpt><trkpt lat="40.90331554267971" lon="9.477708932439908"><ele>25.0</ele><time>2026-04-25T09:39:31Z</time></trkpt><trkpt lat="40.90314747399155" lon="9.477862909197166"><ele>24.0</ele><time>2026-04-25T09:39:32Z</time></trkpt><trkpt lat="40.90297764224681" lon="9.478017819965977"><ele>24.333333333333336</ele><time>2026-04-25T09:39:33Z</time></trkpt><trkpt lat="40.902804075128145" lon="9.47817443901845"><ele>24.666666666666668</ele><time>2026-04-25T09:39:34Z</time></trkpt><trkpt lat="40.90263024395114" lon="9.478331969809034"><ele>25.0</ele><time>2026-04-25T09:39:35Z</time></trkpt><trkpt lat="40.90245504825353" lon="9.478489280137678"><ele>25.0</ele><time>2026-04-25T09:39:36Z</time></trkpt><trkpt lat="40.90228227165815" lon="9.478650131611808"><ele>25.0</ele><time>2026-04-25T09:39:37Z</time></trkpt><trkpt lat="40.90210962007162" lon="9.478811139506101"><ele>25.0</ele><time>2026-04-25T09:39:38Z</time></trkpt><trkpt lat="40.901934172522616" lon="9.478970057018941"><ele>24.5</ele><time>2026-04-25T09:39:39Z</time></trkpt><trkpt lat="40.901754891548904" lon="9.479132208665868"><ele>24.0</ele><time>2026-04-25T09:39:40Z</time></trkpt><trkpt lat="40.90156206926367" lon="9.47931071222532"><ele>24.0</ele><time>2026-04-25T09:39:41Z</time></trkpt><trkpt lat="40.90136161545225" lon="9.47949391577586"><ele>24.0</ele><time>2026-04-25T09:39:42Z</time></trkpt><trkpt lat="40.90117496171354" lon="9.479669279770535"><ele>24.0</ele><time>2026-04-25T09:39:43Z</time></trkpt><trkpt lat="40.90099469915181" lon="9.47983701641849"><ele>24.0</ele><time>2026-04-25T09:39:44Z</time></trkpt><trkpt lat="40.90081391855829" lon="9.480000700159987"><ele>24.0</ele><time>2026-04-25T09:39:45Z</time></trkpt><trkpt lat="40.90063434650604" lon="9.480160354381029"><ele>24.0</ele><time>2026-04-25T09:39:46Z</time></trkpt><trkpt lat="40.90045733597699" lon="9.480322112290946"><ele>24.0</ele><time>2026-04-25T09:39:47Z</time></trkpt><trkpt lat="40.900277326453924" lon="9.480485871615812"><ele>24.0</ele><time>2026-04-25T09:39:48Z</time></trkpt><trkpt lat="40.9000919810121" lon="9.480650574987497"><ele>24.5</ele><time>2026-04-25T09:39:49Z</time></trkpt><trkpt lat="40.89990665744509" lon="9.480818138072031"><ele>25.0</ele><time>2026-04-25T09:39:50Z</time></trkpt><trkpt lat="40.899719199444725" lon="9.480987699953243"><ele>25.0</ele><time>2026-04-25T09:39:51Z</time></trkpt><trkpt lat="40.899529897135324" lon="9.48116063001697"><ele>25.0</ele><time>2026-04-25T09:39:52Z</time></trkpt><trkpt lat="40.899339184995526" lon="9.481333907679089"><ele>25.0</ele><time>2026-04-25T09:39:53Z</time></trkpt><trkpt lat="40.899148419858776" lon="9.481507643965264"><ele>25.0</ele><time>2026-04-25T09:39:54Z</time></trkpt><trkpt lat="40.89895713814752" lon="9.481683628990831"><ele>25.0</ele><time>2026-04-25T09:39:55Z</time></trkpt><trkpt lat="40.89876227181404" lon="9.481862878788037"><ele>25.0</ele><time>2026-04-25T09:39:56Z</time></trkpt><trkpt lat="40.898567795630576" lon="9.482037900281957"><ele>24.666666666666668</ele><time>2026-04-25T09:39:57Z</time></trkpt><trkpt lat="40.898379310125414" lon="9.482208125742218"><ele>24.333333333333336</ele><time>2026-04-25T09:39:58Z</time></trkpt><trkpt lat="40.89820151478791" lon="9.482370640308394"><ele>24.0</ele><time>2026-04-25T09:39:59Z</time></trkpt><trkpt lat="40.89802393641132" lon="9.482532026484149"><ele>24.0</ele><time>2026-04-25T09:40:00Z</time></trkpt><trkpt lat="40.897848863001606" lon="9.482693186510835"><ele>24.0</ele><time>2026-04-25T09:40:01Z</time></trkpt><trkpt lat="40.897674437045715" lon="9.482851713614888"><ele>24.0</ele><time>2026-04-25T09:40:02Z</time></trkpt><trkpt lat="40.89750277829894" lon="9.483011281587522"><ele>25.0</ele><time>2026-04-25T09:40:03Z</time></trkpt><trkpt lat="40.89733270504213" lon="9.483168337569175"><ele>26.0</ele><time>2026-04-25T09:40:04Z</time></trkpt><trkpt lat="40.897164419257464" lon="9.483319961561627"><ele>27.0</ele><time>2026-04-25T09:40:05Z</time></trkpt><trkpt lat="40.89700455051212" lon="9.483466784040782"><ele>27.0</ele><time>2026-04-25T09:40:06Z</time></trkpt><trkpt lat="40.8968478986923" lon="9.483609910729873"><ele>27.0</ele><time>2026-04-25T09:40:07Z</time></trkpt><trkpt lat="40.89668839233393" lon="9.48375216363786"><ele>27.0</ele><time>2026-04-25T09:40:08Z</time></trkpt><trkpt lat="40.89653488158318" lon="9.483893473952424"><ele>28.666666666666664</ele><time>2026-04-25T09:40:09Z</time></trkpt><trkpt lat="40.896388107239964" lon="9.484024107874262"><ele>30.333333333333332</ele><time>2026-04-25T09:40:10Z</time></trkpt><trkpt lat="40.89624626545516" lon="9.484151227557591"><ele>32.0</ele><time>2026-04-25T09:40:11Z</time></trkpt><trkpt lat="40.89610520624742" lon="9.484280872371514"><ele>32.0</ele><time>2026-04-25T09:40:12Z</time></trkpt><trkpt lat="40.89596691239743" lon="9.48440929350923"><ele>32.0</ele><time>2026-04-25T09:40:13Z</time></trkpt><trkpt lat="40.89583044723924" lon="9.484534078123724"><ele>32.0</ele><time>2026-04-25T09:40:14Z</time></trkpt><trkpt lat="40.895692080825874" lon="9.484657960204288"><ele>32.666666666666664</ele><time>2026-04-25T09:40:15Z</time></trkpt><trkpt lat="40.89555409800064" lon="9.484785901610097"><ele>33.333333333333336</ele><time>2026-04-25T09:40:16Z</time></trkpt><trkpt lat="40.895412330411666" lon="9.484914986908016"><ele>34.0</ele><time>2026-04-25T09:40:17Z</time></trkpt><trkpt lat="40.895264750714" lon="9.485048612293637"><ele>34.0</ele><time>2026-04-25T09:40:18Z</time></trkpt><trkpt lat="40.8951171114146" lon="9.485184136384596"><ele>34.0</ele><time>2026-04-25T09:40:19Z</time></trkpt><trkpt lat="40.89496690532984" lon="9.485322152859316"><ele>34.0</ele><time>2026-04-25T09:40:20Z</time></trkpt><trkpt lat="40.89480199137123" lon="9.485475441143832"><ele>32.333333333333336</ele><time>2026-04-25T09:40:21Z</time></trkpt><trkpt lat="40.894634911121855" lon="9.485628197941322"><ele>30.666666666666664</ele><time>2026-04-25T09:40:22Z</time></trkpt><trkpt lat="40.89446708503381" lon="9.485783638458429"><ele>29.0</ele><time>2026-04-25T09:40:23Z</time></trkpt><trkpt lat="40.89429529438351" lon="9.485942031983283"><ele>27.333333333333332</ele><time>2026-04-25T09:40:24Z</time></trkpt><trkpt lat="40.89412274624085" lon="9.486101690181979"><ele>25.666666666666664</ele><time>2026-04-25T09:40:25Z</time></trkpt><trkpt lat="40.893954743399505" lon="9.486257727200433"><ele>24.0</ele><time>2026-04-25T09:40:26Z</time></trkpt><trkpt lat="40.89378553487443" lon="9.486414873226442"><ele>23.333333333333332</ele><time>2026-04-25T09:40:27Z</time></trkpt><trkpt lat="40.89361722296194" lon="9.486573430127782"><ele>22.666666666666664</ele><time>2026-04-25T09:40:28Z</time></trkpt><trkpt lat="40.893438222372986" lon="9.486745554725898"><ele>22.0</ele><time>2026-04-25T09:40:29Z</time></trkpt><trkpt lat="40.89324960313734" lon="9.486922620679367"><ele>20.5</ele><time>2026-04-25T09:40:30Z</time></trkpt><trkpt lat="40.893061883949855" lon="9.487096602340237"><ele>19.0</ele><time>2026-04-25T09:40:31Z</time></trkpt><trkpt lat="40.89286748238914" lon="9.487271549649659"><ele>19.0</ele><time>2026-04-25T09:40:32Z</time></trkpt><trkpt lat="40.89267255014675" lon="9.487444413200254"><ele>19.0</ele><time>2026-04-25T09:40:33Z</time></trkpt><trkpt lat="40.892477977197515" lon="9.48761739348775"><ele>19.5</ele><time>2026-04-25T09:40:34Z</time></trkpt><trkpt lat="40.8922828708308" lon="9.48778846398023"><ele>20.0</ele><time>2026-04-25T09:40:35Z</time></trkpt><trkpt lat="40.892089813574444" lon="9.48796275746808"><ele>19.0</ele><time>2026-04-25T09:40:36Z</time></trkpt><trkpt lat="40.89189871584071" lon="9.4881384283214"><ele>18.0</ele><time>2026-04-25T09:40:37Z</time></trkpt><trkpt lat="40.89170684495362" lon="9.488313057579761"><ele>17.0</ele><time>2026-04-25T09:40:38Z</time></trkpt><trkpt lat="40.891506532489814" lon="9.488491044582547"><ele>16.0</ele><time>2026-04-25T09:40:39Z</time></trkpt><trkpt lat="40.89129386634101" lon="9.488677933254293"><ele>15.0</ele><time>2026-04-25T09:40:40Z</time></trkpt><trkpt lat="40.891072226988584" lon="9.488875597349422"><ele>14.0</ele><time>2026-04-25T09:40:41Z</time></trkpt><trkpt lat="40.890859574923915" lon="9.489070105196362"><ele>14.0</ele><time>2026-04-25T09:40:42Z</time></trkpt><trkpt lat="40.890660906838576" lon="9.48925539783875"><ele>14.0</ele><time>2026-04-25T09:40:43Z</time></trkpt><trkpt lat="40.890470070973606" lon="9.48944343197909"><ele>14.5</ele><time>2026-04-25T09:40:44Z</time></trkpt><trkpt lat="40.89028671948826" lon="9.489640022356651"><ele>15.0</ele><time>2026-04-25T09:40:45Z</time></trkpt><trkpt lat="40.890112662073946" lon="9.489847008450562"><ele>15.5</ele><time>2026-04-25T09:40:46Z</time></trkpt><trkpt lat="40.889939637286204" lon="9.490061970970963"><ele>16.0</ele><time>2026-04-25T09:40:47Z</time></trkpt><trkpt lat="40.88976633240376" lon="9.49028117383293"><ele>14.0</ele><time>2026-04-25T09:40:48Z</time></trkpt><trkpt lat="40.88959435173257" lon="9.490491998031882"><ele>12.0</ele><time>2026-04-25T09:40:49Z</time></trkpt><trkpt lat="40.889407490351566" lon="9.490717363346452"><ele>13.0</ele><time>2026-04-25T09:40:50Z</time></trkpt><trkpt lat="40.88921154861063" lon="9.490949863994718"><ele>14.0</ele><time>2026-04-25T09:40:51Z</time></trkpt><trkpt lat="40.88900823959185" lon="9.491188909829697"><ele>12.5</ele><time>2026-04-25T09:40:52Z</time></trkpt><trkpt lat="40.88880057736931" lon="9.491430554723918"><ele>11.0</ele><time>2026-04-25T09:40:53Z</time></trkpt><trkpt lat="40.888598916331965" lon="9.49166383794381"><ele>13.5</ele><time>2026-04-25T09:40:54Z</time></trkpt><trkpt lat="40.88840527508613" lon="9.49188823436319"><ele>16.0</ele><time>2026-04-25T09:40:55Z</time></trkpt><trkpt lat="40.888212927067684" lon="9.492109771323483"><ele>16.0</ele><time>2026-04-25T09:40:56Z</time></trkpt><trkpt lat="40.888018263493485" lon="9.492335589284695"><ele>16.0</ele><time>2026-04-25T09:40:57Z</time></trkpt><trkpt lat="40.88782416658803" lon="9.492562082313336"><ele>16.0</ele><time>2026-04-25T09:40:58Z</time></trkpt><trkpt lat="40.88763005631745" lon="9.492789777064147"><ele>16.0</ele><time>2026-04-25T09:40:59Z</time></trkpt><trkpt lat="40.88743673431096" lon="9.493018242488825"><ele>17.0</ele><time>2026-04-25T09:41:00Z</time></trkpt><trkpt lat="40.88723796995956" lon="9.493249116259948"><ele>18.0</ele><time>2026-04-25T09:41:01Z</time></trkpt><trkpt lat="40.88703595958413" lon="9.493484467722288"><ele>18.0</ele><time>2026-04-25T09:41:02Z</time></trkpt><trkpt lat="40.88682887053633" lon="9.493727261307601"><ele>18.0</ele><time>2026-04-25T09:41:03Z</time></trkpt><trkpt lat="40.886616944008" lon="9.493977615211021"><ele>20.5</ele><time>2026-04-25T09:41:04Z</time></trkpt><trkpt lat="40.88640328704285" lon="9.494232800985786"><ele>23.0</ele><time>2026-04-25T09:41:05Z</time></trkpt><trkpt lat="40.88618755718293" lon="9.494488484562762"><ele>22.5</ele><time>2026-04-25T09:41:06Z</time></trkpt><trkpt lat="40.885962025441984" lon="9.49475389213512"><ele>22.0</ele><time>2026-04-25T09:41:07Z</time></trkpt><trkpt lat="40.88573809793111" lon="9.495013655114207"><ele>22.0</ele><time>2026-04-25T09:41:08Z</time></trkpt><trkpt lat="40.88552562713426" lon="9.495256717773277"><ele>22.0</ele><time>2026-04-25T09:41:09Z</time></trkpt><trkpt lat="40.885318086575104" lon="9.495494765392177"><ele>22.0</ele><time>2026-04-25T09:41:10Z</time></trkpt><trkpt lat="40.885115129807474" lon="9.495728355647817"><ele>22.0</ele><time>2026-04-25T09:41:11Z</time></trkpt><trkpt lat="40.88489941000197" lon="9.49597038705931"><ele>22.0</ele><time>2026-04-25T09:41:12Z</time></trkpt><trkpt lat="40.88467802456286" lon="9.496207818564702"><ele>22.0</ele><time>2026-04-25T09:41:13Z</time></trkpt><trkpt lat="40.8844480677334" lon="9.496448459881488"><ele>24.5</ele><time>2026-04-25T09:41:14Z</time></trkpt><trkpt lat="40.884217963382206" lon="9.496683777692919"><ele>27.0</ele><time>2026-04-25T09:41:15Z</time></trkpt><trkpt lat="40.88398596503966" lon="9.496912870755164"><ele>26.5</ele><time>2026-04-25T09:41:16Z</time></trkpt><trkpt lat="40.88374650501101" lon="9.497129791289558"><ele>26.0</ele><time>2026-04-25T09:41:17Z</time></trkpt><trkpt lat="40.883500295576646" lon="9.497340779944292"><ele>29.0</ele><time>2026-04-25T09:41:18Z</time></trkpt><trkpt lat="40.883248538878924" lon="9.497545476273222"><ele>32.0</ele><time>2026-04-25T09:41:19Z</time></trkpt><trkpt lat="40.88300033750177" lon="9.497733108139284"><ele>32.0</ele><time>2026-04-25T09:41:20Z</time></trkpt><trkpt lat="40.88275406048655" lon="9.497908903871433"><ele>32.0</ele><time>2026-04-25T09:41:21Z</time></trkpt><trkpt lat="40.88250378400896" lon="9.498075565561985"><ele>34.5</ele><time>2026-04-25T09:41:22Z</time></trkpt><trkpt lat="40.88224795078321" lon="9.498236492298906"><ele>37.0</ele><time>2026-04-25T09:41:23Z</time></trkpt><trkpt lat="40.88199644195395" lon="9.498382253350453"><ele>37.0</ele><time>2026-04-25T09:41:24Z</time></trkpt><trkpt lat="40.88174533600767" lon="9.498520785736407"><ele>37.0</ele><time>2026-04-25T09:41:25Z</time></trkpt><trkpt lat="40.88147816087083" lon="9.498662084566664"><ele>36.0</ele><time>2026-04-25T09:41:26Z</time></trkpt><trkpt lat="40.88121742761691" lon="9.498757065779682"><ele>35.0</ele><time>2026-04-25T09:41:27Z</time></trkpt><trkpt lat="40.88095478465723" lon="9.498856139983078"><ele>34.0</ele><time>2026-04-25T09:41:28Z</time></trkpt><trkpt lat="40.880693995646034" lon="9.498956025617566"><ele>33.0</ele><time>2026-04-25T09:41:29Z</time></trkpt><trkpt lat="40.88043747533995" lon="9.499054962716137"><ele>33.0</ele><time>2026-04-25T09:41:30Z</time></trkpt><trkpt lat="40.88017986842145" lon="9.499150939606627"><ele>33.0</ele><time>2026-04-25T09:41:31Z</time></trkpt><trkpt lat="40.87991969987918" lon="9.499242394320259"><ele>33.0</ele><time>2026-04-25T09:41:32Z</time></trkpt><trkpt lat="40.87966260662002" lon="9.499330044972018"><ele>33.0</ele><time>2026-04-25T09:41:33Z</time></trkpt><trkpt lat="40.87940433735238" lon="9.49941774194427"><ele>32.0</ele><time>2026-04-25T09:41:34Z</time></trkpt><trkpt lat="40.87914684463484" lon="9.499503520482854"><ele>31.0</ele><time>2026-04-25T09:41:35Z</time></trkpt><trkpt lat="40.87888819471751" lon="9.499588037896231"><ele>31.0</ele><time>2026-04-25T09:41:36Z</time></trkpt><trkpt lat="40.87862934147585" lon="9.499672187626647"><ele>31.0</ele><time>2026-04-25T09:41:37Z</time></trkpt><trkpt lat="40.87837458051695" lon="9.499756747911709"><ele>29.5</ele><time>2026-04-25T09:41:38Z</time></trkpt><trkpt lat="40.87811865772978" lon="9.499842591899174"><ele>28.0</ele><time>2026-04-25T09:41:39Z</time></trkpt><trkpt lat="40.87786812520702" lon="9.499928671278559"><ele>28.0</ele><time>2026-04-25T09:41:40Z</time></trkpt><trkpt lat="40.87761747295771" lon="9.500019008604008"><ele>28.0</ele><time>2026-04-25T09:41:41Z</time></trkpt><trkpt lat="40.877368551669676" lon="9.500116780992617"><ele>27.0</ele><time>2026-04-25T09:41:42Z</time></trkpt><trkpt lat="40.877117047404184" lon="9.500223493596545"><ele>26.0</ele><time>2026-04-25T09:41:43Z</time></trkpt><trkpt lat="40.87686267818866" lon="9.500335160341674"><ele>24.5</ele><time>2026-04-25T09:41:44Z</time></trkpt><trkpt lat="40.87661052001782" lon="9.50045045709061"><ele>23.0</ele><time>2026-04-25T09:41:45Z</time></trkpt><trkpt lat="40.87636154610735" lon="9.50057410167522"><ele>23.0</ele><time>2026-04-25T09:41:46Z</time></trkpt><trkpt lat="40.87611836354691" lon="9.500705368528722"><ele>23.0</ele><time>2026-04-25T09:41:47Z</time></trkpt><trkpt lat="40.87587334169553" lon="9.50084792216855"><ele>24.0</ele><time>2026-04-25T09:41:48Z</time></trkpt><trkpt lat="40.875631835308766" lon="9.500993563580051"><ele>25.0</ele><time>2026-04-25T09:41:49Z</time></trkpt><trkpt lat="40.87539496599341" lon="9.501149331101612"><ele>25.0</ele><time>2026-04-25T09:41:50Z</time></trkpt><trkpt lat="40.875160154796895" lon="9.501313195900314"><ele>25.0</ele><time>2026-04-25T09:41:51Z</time></trkpt><trkpt lat="40.874927006545875" lon="9.50148394420967"><ele>26.5</ele><time>2026-04-25T09:41:52Z</time></trkpt><trkpt lat="40.874693128443226" lon="9.501671133697554"><ele>28.0</ele><time>2026-04-25T09:41:53Z</time></trkpt><trkpt lat="40.87446128756061" lon="9.501866133769056"><ele>29.5</ele><time>2026-04-25T09:41:54Z</time></trkpt><trkpt lat="40.87424043559173" lon="9.502067146522133"><ele>31.0</ele><time>2026-04-25T09:41:55Z</time></trkpt><trkpt lat="40.8740327867963" lon="9.502265790540667"><ele>34.0</ele><time>2026-04-25T09:41:56Z</time></trkpt><trkpt lat="40.87382717040301" lon="9.502471536762423"><ele>37.0</ele><time>2026-04-25T09:41:57Z</time></trkpt><trkpt lat="40.87362648809329" lon="9.502689111602816"><ele>33.0</ele><time>2026-04-25T09:41:58Z</time></trkpt><trkpt lat="40.87342217017945" lon="9.502925668804897"><ele>29.0</ele><time>2026-04-25T09:41:59Z</time></trkpt><trkpt lat="40.873214998248784" lon="9.50317066881314"><ele>29.0</ele><time>2026-04-25T09:42:00Z</time></trkpt><trkpt lat="40.87300872597048" lon="9.503423388766285"><ele>29.0</ele><time>2026-04-25T09:42:01Z</time></trkpt><trkpt lat="40.872809530830295" lon="9.503676686873284"><ele>27.5</ele><time>2026-04-25T09:42:02Z</time></trkpt><trkpt lat="40.87261495146322" lon="9.503931163712537"><ele>26.0</ele><time>2026-04-25T09:42:03Z</time></trkpt><trkpt lat="40.87242703377273" lon="9.504187788004991"><ele>24.0</ele><time>2026-04-25T09:42:04Z</time></trkpt><trkpt lat="40.872247572607776" lon="9.50444377928072"><ele>22.0</ele><time>2026-04-25T09:42:05Z</time></trkpt><trkpt lat="40.87207591242381" lon="9.504704254032989"><ele>21.0</ele><time>2026-04-25T09:42:06Z</time></trkpt><trkpt lat="40.87191089995852" lon="9.50496681540436"><ele>20.0</ele><time>2026-04-25T09:42:07Z</time></trkpt><trkpt lat="40.87175355509926" lon="9.505228126756553"><ele>19.5</ele><time>2026-04-25T09:42:08Z</time></trkpt><trkpt lat="40.87160074201521" lon="9.505484774930949"><ele>19.0</ele><time>2026-04-25T09:42:09Z</time></trkpt><trkpt lat="40.87144983514262" lon="9.505745273254638"><ele>19.0</ele><time>2026-04-25T09:42:10Z</time></trkpt><trkpt lat="40.87130675407498" lon="9.506003211705204"><ele>19.0</ele><time>2026-04-25T09:42:11Z</time></trkpt><trkpt lat="40.87117041884111" lon="9.50626724273204"><ele>19.0</ele><time>2026-04-25T09:42:12Z</time></trkpt><trkpt lat="40.871032553989814" lon="9.506538646725243"><ele>19.0</ele><time>2026-04-25T09:42:13Z</time></trkpt><trkpt lat="40.870895195629075" lon="9.50681691917286"><ele>18.5</ele><time>2026-04-25T09:42:14Z</time></trkpt><trkpt lat="40.87075831303293" lon="9.507097372499969"><ele>18.0</ele><time>2026-04-25T09:42:15Z</time></trkpt><trkpt lat="40.87061987324246" lon="9.507380109741073"><ele>18.0</ele><time>2026-04-25T09:42:16Z</time></trkpt><trkpt lat="40.8704824792005" lon="9.507659486662023"><ele>18.0</ele><time>2026-04-25T09:42:17Z</time></trkpt><trkpt lat="40.87034456666651" lon="9.507942878825276"><ele>17.5</ele><time>2026-04-25T09:42:18Z</time></trkpt><trkpt lat="40.870206205004564" lon="9.508226478502287"><ele>17.0</ele><time>2026-04-25T09:42:19Z</time></trkpt><trkpt lat="40.870067066686026" lon="9.508514924667075"><ele>16.5</ele><time>2026-04-25T09:42:20Z</time></trkpt><trkpt lat="40.86992791970207" lon="9.508802336819931"><ele>16.0</ele><time>2026-04-25T09:42:21Z</time></trkpt><trkpt lat="40.86978658119161" lon="9.509094257768643"><ele>16.0</ele><time>2026-04-25T09:42:22Z</time></trkpt><trkpt lat="40.86964356005826" lon="9.509385642650441"><ele>16.0</ele><time>2026-04-25T09:42:23Z</time></trkpt><trkpt lat="40.86950087161448" lon="9.509678251989204"><ele>16.0</ele><time>2026-04-25T09:42:24Z</time></trkpt><trkpt lat="40.869357978255685" lon="9.509970972287688"><ele>16.0</ele><time>2026-04-25T09:42:25Z</time></trkpt><trkpt lat="40.869216388865496" lon="9.510262854859047"><ele>17.0</ele><time>2026-04-25T09:42:26Z</time></trkpt><trkpt lat="40.86907418557584" lon="9.510556247577737"><ele>18.0</ele><time>2026-04-25T09:42:27Z</time></trkpt><trkpt lat="40.86893281439267" lon="9.51084751368108"><ele>18.0</ele><time>2026-04-25T09:42:28Z</time></trkpt><trkpt lat="40.86878956350235" lon="9.511139729472982"><ele>18.0</ele><time>2026-04-25T09:42:29Z</time></trkpt><trkpt lat="40.86864737073904" lon="9.511432172411345"><ele>18.0</ele><time>2026-04-25T09:42:30Z</time></trkpt><trkpt lat="40.868504132237696" lon="9.511723747813898"><ele>18.0</ele><time>2026-04-25T09:42:31Z</time></trkpt><trkpt lat="40.86836115067094" lon="9.512016601864792"><ele>17.5</ele><time>2026-04-25T09:42:32Z</time></trkpt><trkpt lat="40.86821779608645" lon="9.512311943420029"><ele>17.0</ele><time>2026-04-25T09:42:33Z</time></trkpt><trkpt lat="40.86807651275424" lon="9.512602037629316"><ele>17.0</ele><time>2026-04-25T09:42:34Z</time></trkpt><trkpt lat="40.867932819844064" lon="9.512896734018764"><ele>17.0</ele><time>2026-04-25T09:42:35Z</time></trkpt><trkpt lat="40.86778980875339" lon="9.513187389849087"><ele>16.5</ele><time>2026-04-25T09:42:36Z</time></trkpt><trkpt lat="40.86764684150139" lon="9.513477868045914"><ele>16.0</ele><time>2026-04-25T09:42:37Z</time></trkpt><trkpt lat="40.86750516286266" lon="9.513768793299706"><ele>15.0</ele><time>2026-04-25T09:42:38Z</time></trkpt><trkpt lat="40.86736400039226" lon="9.514062128325719"><ele>14.0</ele><time>2026-04-25T09:42:39Z</time></trkpt><trkpt lat="40.86722533647763" lon="9.514353976409724"><ele>13.5</ele><time>2026-04-25T09:42:40Z</time></trkpt><trkpt lat="40.86708947177915" lon="9.5146484256698"><ele>13.0</ele><time>2026-04-25T09:42:41Z</time></trkpt><trkpt lat="40.86695338195439" lon="9.514947088876061"><ele>13.0</ele><time>2026-04-25T09:42:42Z</time></trkpt><trkpt lat="40.86681858370977" lon="9.515247514035153"><ele>13.0</ele><time>2026-04-25T09:42:43Z</time></trkpt><trkpt lat="40.8666841214261" lon="9.515551318448049"><ele>13.5</ele><time>2026-04-25T09:42:44Z</time></trkpt><trkpt lat="40.86654995444792" lon="9.515858815914527"><ele>14.0</ele><time>2026-04-25T09:42:45Z</time></trkpt><trkpt lat="40.866417696578715" lon="9.516169100646513"><ele>14.0</ele><time>2026-04-25T09:42:46Z</time></trkpt><trkpt lat="40.86628486687659" lon="9.516483837045321"><ele>14.0</ele><time>2026-04-25T09:42:47Z</time></trkpt><trkpt lat="40.86615344520305" lon="9.51680580957123"><ele>14.0</ele><time>2026-04-25T09:42:48Z</time></trkpt><trkpt lat="40.86602037375771" lon="9.517137869105223"><ele>14.0</ele><time>2026-04-25T09:42:49Z</time></trkpt><trkpt lat="40.86588623801044" lon="9.517475976703947"><ele>15.5</ele><time>2026-04-25T09:42:50Z</time></trkpt><trkpt lat="40.86575352497303" lon="9.517814159849543"><ele>17.0</ele><time>2026-04-25T09:42:51Z</time></trkpt><trkpt lat="40.86562109159355" lon="9.518160551253233"><ele>17.0</ele><time>2026-04-25T09:42:52Z</time></trkpt><trkpt lat="40.86549020673154" lon="9.518511149175186"><ele>17.0</ele><time>2026-04-25T09:42:53Z</time></trkpt><trkpt lat="40.86536224126742" lon="9.51886470930506"><ele>16.0</ele><time>2026-04-25T09:42:54Z</time></trkpt><trkpt lat="40.86523407015816" lon="9.519226852162125"><ele>15.0</ele><time>2026-04-25T09:42:55Z</time></trkpt><trkpt lat="40.86510737896211" lon="9.51959073596851"><ele>15.0</ele><time>2026-04-25T09:42:56Z</time></trkpt><trkpt lat="40.86498379339881" lon="9.519956355523327"><ele>15.0</ele><time>2026-04-25T09:42:57Z</time></trkpt><trkpt lat="40.86486136146317" lon="9.520327426612555"><ele>15.5</ele><time>2026-04-25T09:42:58Z</time></trkpt><trkpt lat="40.86473855100069" lon="9.520704062867955"><ele>16.0</ele><time>2026-04-25T09:42:59Z</time></trkpt><trkpt lat="40.864616384376596" lon="9.52108054102018"><ele>15.5</ele><time>2026-04-25T09:43:00Z</time></trkpt><trkpt lat="40.864498198668095" lon="9.521463191176183"><ele>15.0</ele><time>2026-04-25T09:43:01Z</time></trkpt><trkpt lat="40.864380855291365" lon="9.521849953101615"><ele>16.0</ele><time>2026-04-25T09:43:02Z</time></trkpt><trkpt lat="40.864264729406734" lon="9.522237008330745"><ele>17.0</ele><time>2026-04-25T09:43:03Z</time></trkpt><trkpt lat="40.86414989092995" lon="9.522621420846328"><ele>17.5</ele><time>2026-04-25T09:43:04Z</time></trkpt><trkpt lat="40.8640342657031" lon="9.523013402644432"><ele>18.0</ele><time>2026-04-25T09:43:05Z</time></trkpt><trkpt lat="40.86391726445076" lon="9.52340486505636"><ele>18.0</ele><time>2026-04-25T09:43:06Z</time></trkpt><trkpt lat="40.863799517553325" lon="9.523796147742805"><ele>18.0</ele><time>2026-04-25T09:43:07Z</time></trkpt><trkpt lat="40.86367944142316" lon="9.524191658377521"><ele>18.0</ele><time>2026-04-25T09:43:08Z</time></trkpt><trkpt lat="40.863560556390944" lon="9.524579688473858"><ele>18.0</ele><time>2026-04-25T09:43:09Z</time></trkpt><trkpt lat="40.86344820709552" lon="9.52494443365162"><ele>17.0</ele><time>2026-04-25T09:43:10Z</time></trkpt><trkpt lat="40.863342672198485" lon="9.525283111436572"><ele>16.0</ele><time>2026-04-25T09:43:11Z</time></trkpt><trkpt lat="40.86323946967282" lon="9.525608296493566"><ele>15.5</ele><time>2026-04-25T09:43:12Z</time></trkpt><trkpt lat="40.8631408020536" lon="9.525922500636929"><ele>15.0</ele><time>2026-04-25T09:43:13Z</time></trkpt><trkpt lat="40.86303718205502" lon="9.526254771673745"><ele>15.0</ele><time>2026-04-25T09:43:14Z</time></trkpt><trkpt lat="40.86292891070708" lon="9.526595814005043"><ele>15.0</ele><time>2026-04-25T09:43:15Z</time></trkpt><trkpt lat="40.862812919842405" lon="9.526943947556902"><ele>16.0</ele><time>2026-04-25T09:43:16Z</time></trkpt><trkpt lat="40.86269203366703" lon="9.527292931613797"><ele>17.0</ele><time>2026-04-25T09:43:17Z</time></trkpt><trkpt lat="40.862562671069504" lon="9.527642167094342"><ele>19.0</ele><time>2026-04-25T09:43:18Z</time></trkpt><trkpt lat="40.86242865491202" lon="9.527992417731808"><ele>21.0</ele><time>2026-04-25T09:43:19Z</time></trkpt><trkpt lat="40.86228941309403" lon="9.528342749515753"><ele>21.0</ele><time>2026-04-25T09:43:20Z</time></trkpt><trkpt lat="40.8621436994717" lon="9.52869535906291"><ele>21.0</ele><time>2026-04-25T09:43:21Z</time></trkpt><trkpt lat="40.86199537080538" lon="9.529040300881215"><ele>21.0</ele><time>2026-04-25T09:43:22Z</time></trkpt><trkpt lat="40.861837277608764" lon="9.529387560564695"><ele>21.0</ele><time>2026-04-25T09:43:23Z</time></trkpt><trkpt lat="40.8616846111867" lon="9.529729468404202"><ele>22.5</ele><time>2026-04-25T09:43:24Z</time></trkpt><trkpt lat="40.86152196320248" lon="9.5300733251582"><ele>24.0</ele><time>2026-04-25T09:43:25Z</time></trkpt><trkpt lat="40.86135318186049" lon="9.53040619012321"><ele>25.0</ele><time>2026-04-25T09:43:26Z</time></trkpt><trkpt lat="40.861175706487536" lon="9.530736685993151"><ele>26.0</ele><time>2026-04-25T09:43:27Z</time></trkpt><trkpt lat="40.86099545989386" lon="9.531060200277958"><ele>28.0</ele><time>2026-04-25T09:43:28Z</time></trkpt><trkpt lat="40.86081095531576" lon="9.531389412213388"><ele>30.0</ele><time>2026-04-25T09:43:29Z</time></trkpt><trkpt lat="40.86062471383271" lon="9.531714424223606"><ele>30.0</ele><time>2026-04-25T09:43:30Z</time></trkpt><trkpt lat="40.86043017789457" lon="9.532033981813326"><ele>30.0</ele><time>2026-04-25T09:43:31Z</time></trkpt><trkpt lat="40.860227837963386" lon="9.53234744968864"><ele>31.5</ele><time>2026-04-25T09:43:32Z</time></trkpt><trkpt lat="40.86002073266106" lon="9.532650305777615"><ele>33.0</ele><time>2026-04-25T09:43:33Z</time></trkpt><trkpt lat="40.85980918502814" lon="9.532949840870694"><ele>34.5</ele><time>2026-04-25T09:43:34Z</time></trkpt><trkpt lat="40.859591527034056" lon="9.533239635077509"><ele>36.0</ele><time>2026-04-25T09:43:35Z</time></trkpt><trkpt lat="40.859366857773104" lon="9.53352206530855"><ele>38.5</ele><time>2026-04-25T09:43:36Z</time></trkpt><trkpt lat="40.85913840170537" lon="9.53379965353268"><ele>41.0</ele><time>2026-04-25T09:43:37Z</time></trkpt><trkpt lat="40.85892507037041" lon="9.534060084550534"><ele>41.0</ele><time>2026-04-25T09:43:38Z</time></trkpt><trkpt lat="40.8587189768633" lon="9.534313188106154"><ele>41.0</ele><time>2026-04-25T09:43:39Z</time></trkpt><trkpt lat="40.858509419958544" lon="9.534560449468616"><ele>41.0</ele><time>2026-04-25T09:43:40Z</time></trkpt><trkpt lat="40.85830267906329" lon="9.53479739306453"><ele>41.0</ele><time>2026-04-25T09:43:41Z</time></trkpt><trkpt lat="40.8580969076785" lon="9.535026069968906"><ele>41.0</ele><time>2026-04-25T09:43:42Z</time></trkpt><trkpt lat="40.8578901402677" lon="9.535252227734546"><ele>41.0</ele><time>2026-04-25T09:43:43Z</time></trkpt><trkpt lat="40.85768490142556" lon="9.535469527200036"><ele>41.5</ele><time>2026-04-25T09:43:44Z</time></trkpt><trkpt lat="40.85747822564569" lon="9.535683004274885"><ele>42.0</ele><time>2026-04-25T09:43:45Z</time></trkpt><trkpt lat="40.857268321665615" lon="9.535895531618367"><ele>42.0</ele><time>2026-04-25T09:43:46Z</time></trkpt><trkpt lat="40.85706006548615" lon="9.536100769222607"><ele>42.0</ele><time>2026-04-25T09:43:47Z</time></trkpt><trkpt lat="40.856851865664886" lon="9.536306342061787"><ele>44.0</ele><time>2026-04-25T09:43:48Z</time></trkpt><trkpt lat="40.85664601907545" lon="9.53650854414011"><ele>46.0</ele><time>2026-04-25T09:43:49Z</time></trkpt><trkpt lat="40.85642840138815" lon="9.536721594001378"><ele>46.0</ele><time>2026-04-25T09:43:50Z</time></trkpt><trkpt lat="40.856202677582374" lon="9.536941202914527"><ele>46.0</ele><time>2026-04-25T09:43:51Z</time></trkpt><trkpt lat="40.85597581649089" lon="9.537160606852698"><ele>49.0</ele><time>2026-04-25T09:43:52Z</time></trkpt><trkpt lat="40.85574463218927" lon="9.537385432912599"><ele>52.0</ele><time>2026-04-25T09:43:53Z</time></trkpt><trkpt lat="40.85550682896126" lon="9.537616480182256"><ele>52.0</ele><time>2026-04-25T09:43:54Z</time></trkpt><trkpt lat="40.855263048436626" lon="9.537851458865909"><ele>52.0</ele><time>2026-04-25T09:43:55Z</time></trkpt><trkpt lat="40.85501643954231" lon="9.538077634999915"><ele>54.0</ele><time>2026-04-25T09:43:56Z</time></trkpt><trkpt lat="40.85476792242974" lon="9.53831873115756"><ele>56.0</ele><time>2026-04-25T09:43:57Z</time></trkpt><trkpt lat="40.85451470346696" lon="9.538559792623161"><ele>56.5</ele><time>2026-04-25T09:43:58Z</time></trkpt><trkpt lat="40.85425986331852" lon="9.538801772177218"><ele>57.0</ele><time>2026-04-25T09:43:59Z</time></trkpt><trkpt lat="40.853999048087665" lon="9.539046646629906"><ele>57.0</ele><time>2026-04-25T09:44:00Z</time></trkpt><trkpt lat="40.85375381987717" lon="9.539281560116144"><ele>57.0</ele><time>2026-04-25T09:44:01Z</time></trkpt><trkpt lat="40.8535166005524" lon="9.539502614472502"><ele>57.5</ele><time>2026-04-25T09:44:02Z</time></trkpt><trkpt lat="40.85328100076339" lon="9.539724293626763"><ele>58.0</ele><time>2026-04-25T09:44:03Z</time></trkpt><trkpt lat="40.85304784661338" lon="9.539944361466405"><ele>58.0</ele><time>2026-04-25T09:44:04Z</time></trkpt><trkpt lat="40.8528177467608" lon="9.540165653984193"><ele>58.0</ele><time>2026-04-25T09:44:05Z</time></trkpt><trkpt lat="40.85258676725507" lon="9.540384586131921"><ele>53.5</ele><time>2026-04-25T09:44:06Z</time></trkpt><trkpt lat="40.85235426852592" lon="9.540602593579177"><ele>49.0</ele><time>2026-04-25T09:44:07Z</time></trkpt><trkpt lat="40.85212209193474" lon="9.540816564016682"><ele>49.0</ele><time>2026-04-25T09:44:08Z</time></trkpt><trkpt lat="40.85188759765813" lon="9.541027389722498"><ele>49.0</ele><time>2026-04-25T09:44:09Z</time></trkpt><trkpt lat="40.851649490297575" lon="9.541239508118002"><ele>44.5</ele><time>2026-04-25T09:44:10Z</time></trkpt><trkpt lat="40.85141411982295" lon="9.541447077191313"><ele>40.0</ele><time>2026-04-25T09:44:11Z</time></trkpt><trkpt lat="40.85117269726761" lon="9.54165573295995"><ele>39.5</ele><time>2026-04-25T09:44:12Z</time></trkpt><trkpt lat="40.850934048101415" lon="9.54186082885869"><ele>39.0</ele><time>2026-04-25T09:44:13Z</time></trkpt><trkpt lat="40.85069857706972" lon="9.542060827137963"><ele>37.0</ele><time>2026-04-25T09:44:14Z</time></trkpt><trkpt lat="40.850469269446755" lon="9.542253103221453"><ele>35.0</ele><time>2026-04-25T09:44:15Z</time></trkpt><trkpt lat="40.85024437519559" lon="9.54243729352139"><ele>35.5</ele><time>2026-04-25T09:44:16Z</time></trkpt><trkpt lat="40.85001924840656" lon="9.542616823361206"><ele>36.0</ele><time>2026-04-25T09:44:17Z</time></trkpt><trkpt lat="40.849794231479585" lon="9.542794887340744"><ele>35.0</ele><time>2026-04-25T09:44:18Z</time></trkpt><trkpt lat="40.849569076916005" lon="9.542968606895078"><ele>34.0</ele><time>2026-04-25T09:44:19Z</time></trkpt><trkpt lat="40.84934240918069" lon="9.54314546000889"><ele>35.5</ele><time>2026-04-25T09:44:20Z</time></trkpt><trkpt lat="40.84911808575144" lon="9.543319920188436"><ele>37.0</ele><time>2026-04-25T09:44:21Z</time></trkpt><trkpt lat="40.8488952587524" lon="9.543488020348722"><ele>37.0</ele><time>2026-04-25T09:44:22Z</time></trkpt><trkpt lat="40.84867433991434" lon="9.543652026059023"><ele>37.0</ele><time>2026-04-25T09:44:23Z</time></trkpt><trkpt lat="40.84846353095478" lon="9.543810771693135"><ele>37.5</ele><time>2026-04-25T09:44:24Z</time></trkpt><trkpt lat="40.848251744707675" lon="9.543968340040918"><ele>38.0</ele><time>2026-04-25T09:44:25Z</time></trkpt><trkpt lat="40.84803815789675" lon="9.544124966959172"><ele>38.0</ele><time>2026-04-25T09:44:26Z</time></trkpt><trkpt lat="40.847820155208574" lon="9.544281147610544"><ele>38.0</ele><time>2026-04-25T09:44:27Z</time></trkpt><trkpt lat="40.8476041528103" lon="9.544434839176482"><ele>37.5</ele><time>2026-04-25T09:44:28Z</time></trkpt><trkpt lat="40.847385138307125" lon="9.544588579134412"><ele>37.0</ele><time>2026-04-25T09:44:29Z</time></trkpt><trkpt lat="40.8471619355235" lon="9.544741880876279"><ele>37.0</ele><time>2026-04-25T09:44:30Z</time></trkpt><trkpt lat="40.84693660651312" lon="9.544892539918926"><ele>37.0</ele><time>2026-04-25T09:44:31Z</time></trkpt><trkpt lat="40.84670319556549" lon="9.545052688428678"><ele>37.5</ele><time>2026-04-25T09:44:32Z</time></trkpt><trkpt lat="40.8464618021822" lon="9.54522186608663"><ele>38.0</ele><time>2026-04-25T09:44:33Z</time></trkpt><trkpt lat="40.846209180380036" lon="9.545400376335916"><ele>37.0</ele><time>2026-04-25T09:44:34Z</time></trkpt><trkpt lat="40.84594760570132" lon="9.545581506625986"><ele>36.0</ele><time>2026-04-25T09:44:35Z</time></trkpt><trkpt lat="40.845679706706335" lon="9.545759935797092"><ele>36.0</ele><time>2026-04-25T09:44:36Z</time></trkpt><trkpt lat="40.84540711294516" lon="9.545938891523324"><ele>36.0</ele><time>2026-04-25T09:44:37Z</time></trkpt><trkpt lat="40.84513364535679" lon="9.546118359757514"><ele>36.0</ele><time>2026-04-25T09:44:38Z</time></trkpt><trkpt lat="40.84486649818427" lon="9.546300363419038"><ele>36.0</ele><time>2026-04-25T09:44:39Z</time></trkpt><trkpt lat="40.84460128756925" lon="9.54648182471309"><ele>36.0</ele><time>2026-04-25T09:44:40Z</time></trkpt><trkpt lat="40.84435099445726" lon="9.546651327971459"><ele>36.0</ele><time>2026-04-25T09:44:41Z</time></trkpt><trkpt lat="40.84411065726469" lon="9.546812922792299"><ele>36.0</ele><time>2026-04-25T09:44:42Z</time></trkpt><trkpt lat="40.84389733803028" lon="9.546965186138188"><ele>36.0</ele><time>2026-04-25T09:44:43Z</time></trkpt><trkpt lat="40.84364131779645" lon="9.54713895022008"><ele>36.0</ele><time>2026-04-25T09:44:44Z</time></trkpt><trkpt lat="40.843407052530964" lon="9.547306648597598"><ele>36.0</ele><time>2026-04-25T09:44:45Z</time></trkpt><trkpt lat="40.84317949377221" lon="9.54747896667867"><ele>36.0</ele><time>2026-04-25T09:44:46Z</time></trkpt><trkpt lat="40.84296534513035" lon="9.547647456500918"><ele>36.0</ele><time>2026-04-25T09:44:47Z</time></trkpt><trkpt lat="40.84276295668351" lon="9.54781060098552"><ele>34.0</ele><time>2026-04-25T09:44:48Z</time></trkpt><trkpt lat="40.842567784854424" lon="9.547970937883834"><ele>32.0</ele><time>2026-04-25T09:44:49Z</time></trkpt><trkpt lat="40.842379329644714" lon="9.54812923405499"><ele>32.0</ele><time>2026-04-25T09:44:50Z</time></trkpt><trkpt lat="40.842199674440046" lon="9.548284429117889"><ele>32.0</ele><time>2026-04-25T09:44:51Z</time></trkpt><trkpt lat="40.842029462707615" lon="9.548437977394244"><ele>32.0</ele><time>2026-04-25T09:44:52Z</time></trkpt><trkpt lat="40.84186650337016" lon="9.548596043807425"><ele>31.666666666666664</ele><time>2026-04-25T09:44:53Z</time></trkpt><trkpt lat="40.841708341796355" lon="9.548756913251307"><ele>31.333333333333336</ele><time>2026-04-25T09:44:54Z</time></trkpt><trkpt lat="40.84155611752662" lon="9.548916032908043"><ele>31.0</ele><time>2026-04-25T09:44:55Z</time></trkpt><trkpt lat="40.84141073663367" lon="9.54906751667939"><ele>31.0</ele><time>2026-04-25T09:44:56Z</time></trkpt><trkpt lat="40.841272245770035" lon="9.549214496953649"><ele>31.0</ele><time>2026-04-25T09:44:57Z</time></trkpt><trkpt lat="40.8411362242366" lon="9.549366574935803"><ele>31.0</ele><time>2026-04-25T09:44:58Z</time></trkpt><trkpt lat="40.8410030183159" lon="9.549523230409672"><ele>31.0</ele><time>2026-04-25T09:44:59Z</time></trkpt><trkpt lat="40.84087371013649" lon="9.549681731420238"><ele>31.0</ele><time>2026-04-25T09:45:00Z</time></trkpt><trkpt lat="40.840744979418346" lon="9.549845435946963"><ele>31.0</ele><time>2026-04-25T09:45:01Z</time></trkpt><trkpt lat="40.84061355880385" lon="9.550014316636343"><ele>31.0</ele><time>2026-04-25T09:45:02Z</time></trkpt><trkpt lat="40.840486820318645" lon="9.550178169090216"><ele>31.0</ele><time>2026-04-25T09:45:03Z</time></trkpt><trkpt lat="40.840361897292865" lon="9.550340011351116"><ele>31.0</ele><time>2026-04-25T09:45:04Z</time></trkpt><trkpt lat="40.84024282637933" lon="9.550496886678074"><ele>32.0</ele><time>2026-04-25T09:45:05Z</time></trkpt><trkpt lat="40.84012892036727" lon="9.550645475544343"><ele>33.0</ele><time>2026-04-25T09:45:06Z</time></trkpt><trkpt lat="40.84002227988181" lon="9.550786288923026"><ele>34.0</ele><time>2026-04-25T09:45:07Z</time></trkpt><trkpt lat="40.83992296152952" lon="9.550924396423394"><ele>34.0</ele><time>2026-04-25T09:45:08Z</time></trkpt><trkpt lat="40.83983005779452" lon="9.55105526044953"><ele>34.0</ele><time>2026-04-25T09:45:09Z</time></trkpt><trkpt lat="40.83973928787367" lon="9.551178841500722"><ele>34.0</ele><time>2026-04-25T09:45:10Z</time></trkpt><trkpt lat="40.83965356939524" lon="9.551296875158743"><ele>34.0</ele><time>2026-04-25T09:45:11Z</time></trkpt><trkpt lat="40.83957238405422" lon="9.55140776643271"><ele>34.0</ele><time>2026-04-25T09:45:12Z</time></trkpt><trkpt lat="40.839486716724544" lon="9.551525236699382"><ele>34.0</ele><time>2026-04-25T09:45:13Z</time></trkpt><trkpt lat="40.83940111505684" lon="9.551642453159522"><ele>34.0</ele><time>2026-04-25T09:45:14Z</time></trkpt><trkpt lat="40.839315364834334" lon="9.551762350503815"><ele>34.0</ele><time>2026-04-25T09:45:15Z</time></trkpt><trkpt lat="40.83922762550517" lon="9.551882810190719"><ele>34.0</ele><time>2026-04-25T09:45:16Z</time></trkpt><trkpt lat="40.839136026773375" lon="9.552005640656756"><ele>34.0</ele><time>2026-04-25T09:45:17Z</time></trkpt><trkpt lat="40.83903982097088" lon="9.552133381728407"><ele>34.0</ele><time>2026-04-25T09:45:18Z</time></trkpt><trkpt lat="40.83894480452491" lon="9.552263382138069"><ele>34.0</ele><time>2026-04-25T09:45:19Z</time></trkpt><trkpt lat="40.83884908881982" lon="9.552391900234483"><ele>33.75</ele><time>2026-04-25T09:45:20Z</time></trkpt><trkpt lat="40.838749204765996" lon="9.552528647620486"><ele>33.5</ele><time>2026-04-25T09:45:21Z</time></trkpt><trkpt lat="40.83864923012868" lon="9.552663935830047"><ele>33.25</ele><time>2026-04-25T09:45:22Z</time></trkpt><trkpt lat="40.838547513794786" lon="9.552805485875044"><ele>33.0</ele><time>2026-04-25T09:45:23Z</time></trkpt><trkpt lat="40.838441010478675" lon="9.552950372121353"><ele>33.0</ele><time>2026-04-25T09:45:24Z</time></trkpt><trkpt lat="40.838331336699156" lon="9.553102883688224"><ele>33.0</ele><time>2026-04-25T09:45:25Z</time></trkpt><trkpt lat="40.83822057314746" lon="9.553256524307566"><ele>33.0</ele><time>2026-04-25T09:45:26Z</time></trkpt><trkpt lat="40.838113454112474" lon="9.553405484754695"><ele>33.0</ele><time>2026-04-25T09:45:27Z</time></trkpt><trkpt lat="40.83800940126351" lon="9.553548226484867"><ele>33.0</ele><time>2026-04-25T09:45:28Z</time></trkpt><trkpt lat="40.83790833826945" lon="9.553687235363395"><ele>33.0</ele><time>2026-04-25T09:45:29Z</time></trkpt><trkpt lat="40.8378102712864" lon="9.55382417497626"><ele>33.0</ele><time>2026-04-25T09:45:30Z</time></trkpt><trkpt lat="40.83771093764009" lon="9.553960096619079"><ele>34.25</ele><time>2026-04-25T09:45:31Z</time></trkpt><trkpt lat="40.837612351113776" lon="9.554095052495109"><ele>35.5</ele><time>2026-04-25T09:45:32Z</time></trkpt><trkpt lat="40.8375142811211" lon="9.554230298731717"><ele>36.75</ele><time>2026-04-25T09:45:33Z</time></trkpt><trkpt lat="40.83741158853412" lon="9.554364670574568"><ele>38.0</ele><time>2026-04-25T09:45:34Z</time></trkpt><trkpt lat="40.837305599266855" lon="9.554505204587722"><ele>38.75</ele><time>2026-04-25T09:45:35Z</time></trkpt><trkpt lat="40.83719957249603" lon="9.554653348550712"><ele>39.5</ele><time>2026-04-25T09:45:36Z</time></trkpt><trkpt lat="40.837101043169014" lon="9.55479529762466"><ele>40.25</ele><time>2026-04-25T09:45:37Z</time></trkpt><trkpt lat="40.83700834888338" lon="9.554924688786132"><ele>41.0</ele><time>2026-04-25T09:45:38Z</time></trkpt><trkpt lat="40.83692257942786" lon="9.555042890901456"><ele>41.0</ele><time>2026-04-25T09:45:39Z</time></trkpt><trkpt lat="40.83684606166586" lon="9.55514664645588"><ele>41.0</ele><time>2026-04-25T09:45:40Z</time></trkpt><trkpt lat="40.83677794738212" lon="9.555239477395633"><ele>41.0</ele><time>2026-04-25T09:45:41Z</time></trkpt><trkpt lat="40.8367097053525" lon="9.555332053303399"><ele>41.0</ele><time>2026-04-25T09:45:42Z</time></trkpt><trkpt lat="40.836643810831696" lon="9.555420143896376"><ele>41.0</ele><time>2026-04-25T09:45:43Z</time></trkpt><trkpt lat="40.83657756493184" lon="9.555510889657052"><ele>41.0</ele><time>2026-04-25T09:45:44Z</time></trkpt><trkpt lat="40.83651417423606" lon="9.555600087501396"><ele>41.0</ele><time>2026-04-25T09:45:45Z</time></trkpt><trkpt lat="40.83644684169555" lon="9.55569721881365"><ele>41.0</ele><time>2026-04-25T09:45:46Z</time></trkpt><trkpt lat="40.8363767649123" lon="9.555801514243356"><ele>41.0</ele><time>2026-04-25T09:45:47Z</time></trkpt><trkpt lat="40.836299681211955" lon="9.555912054285283"><ele>41.0</ele><time>2026-04-25T09:45:48Z</time></trkpt><trkpt lat="40.83621543985322" lon="9.556028259950102"><ele>41.0</ele><time>2026-04-25T09:45:49Z</time></trkpt><trkpt lat="40.83612676798212" lon="9.556146997153174"><ele>41.0</ele><time>2026-04-25T09:45:50Z</time></trkpt><trkpt lat="40.83604039276707" lon="9.556266049900426"><ele>41.0</ele><time>2026-04-25T09:45:51Z</time></trkpt><trkpt lat="40.835961314918954" lon="9.55637635515539"><ele>41.0</ele><time>2026-04-25T09:45:52Z</time></trkpt><trkpt lat="40.83588752704523" lon="9.556479315436508"><ele>40.8</ele><time>2026-04-25T09:45:53Z</time></trkpt><trkpt lat="40.835812494951504" lon="9.556586286586766"><ele>40.599999999999994</ele><time>2026-04-25T09:45:54Z</time></trkpt><trkpt lat="40.83573588023002" lon="9.556700776639893"><ele>40.4</ele><time>2026-04-25T09:45:55Z</time></trkpt><trkpt lat="40.83566173913473" lon="9.556810234206218"><ele>40.2</ele><time>2026-04-25T09:45:56Z</time></trkpt><trkpt lat="40.8355875892434" lon="9.556913478415586"><ele>40.0</ele><time>2026-04-25T09:45:57Z</time></trkpt><trkpt lat="40.83551419625875" lon="9.557016299194515"><ele>41.0</ele><time>2026-04-25T09:45:58Z</time></trkpt><trkpt lat="40.83544382116497" lon="9.557121195674009"><ele>42.0</ele><time>2026-04-25T09:45:59Z</time></trkpt><trkpt lat="40.835372636334704" lon="9.557228936927876"><ele>43.0</ele><time>2026-04-25T09:46:00Z</time></trkpt><trkpt lat="40.835296345760845" lon="9.557341747504928"><ele>44.0</ele><time>2026-04-25T09:46:01Z</time></trkpt><trkpt lat="40.835214787648724" lon="9.557460689802486"><ele>43.5</ele><time>2026-04-25T09:46:02Z</time></trkpt><trkpt lat="40.83513108645396" lon="9.557587900921583"><ele>43.0</ele><time>2026-04-25T09:46:03Z</time></trkpt><trkpt lat="40.83504559938205" lon="9.557718017906055"><ele>42.5</ele><time>2026-04-25T09:46:04Z</time></trkpt><trkpt lat="40.83495986041434" lon="9.55784996167113"><ele>42.0</ele><time>2026-04-25T09:46:05Z</time></trkpt><trkpt lat="40.83487749364051" lon="9.557979604340238"><ele>42.0</ele><time>2026-04-25T09:46:06Z</time></trkpt><trkpt lat="40.83480178935105" lon="9.558100197400725"><ele>42.0</ele><time>2026-04-25T09:46:07Z</time></trkpt><trkpt lat="40.834725770517984" lon="9.558222527284679"><ele>42.0</ele><time>2026-04-25T09:46:08Z</time></trkpt><trkpt lat="40.834646679666584" lon="9.558350632350729"><ele>42.0</ele><time>2026-04-25T09:46:09Z</time></trkpt><trkpt lat="40.83456530418034" lon="9.558477891433048"><ele>42.0</ele><time>2026-04-25T09:46:10Z</time></trkpt><trkpt lat="40.83448369765971" lon="9.558609324293617"><ele>42.0</ele><time>2026-04-25T09:46:11Z</time></trkpt><trkpt lat="40.834400976738706" lon="9.558748209782808"><ele>42.0</ele><time>2026-04-25T09:46:12Z</time></trkpt><trkpt lat="40.83431524459029" lon="9.558896395132368"><ele>42.0</ele><time>2026-04-25T09:46:13Z</time></trkpt><trkpt lat="40.834226426967696" lon="9.559054225507198"><ele>42.25</ele><time>2026-04-25T09:46:14Z</time></trkpt><trkpt lat="40.83413890227918" lon="9.559213333984466"><ele>42.5</ele><time>2026-04-25T09:46:15Z</time></trkpt><trkpt lat="40.834059516029605" lon="9.55935963378211"><ele>42.75</ele><time>2026-04-25T09:46:16Z</time></trkpt><trkpt lat="40.83398254795363" lon="9.55950279164537"><ele>43.0</ele><time>2026-04-25T09:46:17Z</time></trkpt><trkpt lat="40.83390728209163" lon="9.559644321269724"><ele>44.5</ele><time>2026-04-25T09:46:18Z</time></trkpt><trkpt lat="40.833836871715626" lon="9.5597756509306"><ele>46.0</ele><time>2026-04-25T09:46:19Z</time></trkpt><trkpt lat="40.83377032768979" lon="9.559901030121727"><ele>47.5</ele><time>2026-04-25T09:46:20Z</time></trkpt><trkpt lat="40.833706489393535" lon="9.560024021375902"><ele>49.0</ele><time>2026-04-25T09:46:21Z</time></trkpt><trkpt lat="40.833645248513406" lon="9.560144526453564"><ele>49.0</ele><time>2026-04-25T09:46:22Z</time></trkpt><trkpt lat="40.83358371989654" lon="9.560271377666309"><ele>49.0</ele><time>2026-04-25T09:46:23Z</time></trkpt><trkpt lat="40.83351941926611" lon="9.560405369327858"><ele>49.0</ele><time>2026-04-25T09:46:24Z</time></trkpt><trkpt lat="40.8334544390668" lon="9.560541178748801"><ele>49.0</ele><time>2026-04-25T09:46:25Z</time></trkpt><trkpt lat="40.83339081088779" lon="9.560681393868212"><ele>49.75</ele><time>2026-04-25T09:46:26Z</time></trkpt><trkpt lat="40.83332842816886" lon="9.56082631836544"><ele>50.5</ele><time>2026-04-25T09:46:27Z</time></trkpt><trkpt lat="40.83326686818614" lon="9.560969903793117"><ele>51.25</ele><time>2026-04-25T09:46:28Z</time></trkpt><trkpt lat="40.83320968187152" lon="9.561101635871585"><ele>52.0</ele><time>2026-04-25T09:46:29Z</time></trkpt><trkpt lat="40.833157939580744" lon="9.56122118533062"><ele>52.0</ele><time>2026-04-25T09:46:30Z</time></trkpt><trkpt lat="40.83311204174518" lon="9.56133161158622"><ele>52.0</ele><time>2026-04-25T09:46:31Z</time></trkpt><trkpt lat="40.833067508759676" lon="9.561438932011232"><ele>52.0</ele><time>2026-04-25T09:46:32Z</time></trkpt><trkpt lat="40.83302200379661" lon="9.561547974534209"><ele>52.0</ele><time>2026-04-25T09:46:33Z</time></trkpt><trkpt lat="40.832973466766795" lon="9.561671665356236"><ele>52.0</ele><time>2026-04-25T09:46:34Z</time></trkpt><trkpt lat="40.83291987940578" lon="9.56180304013777"><ele>52.0</ele><time>2026-04-25T09:46:35Z</time></trkpt><trkpt lat="40.832863158751735" lon="9.56194423936431"><ele>52.0</ele><time>2026-04-25T09:46:36Z</time></trkpt><trkpt lat="40.83280810505472" lon="9.562100042567849"><ele>52.0</ele><time>2026-04-25T09:46:37Z</time></trkpt><trkpt lat="40.83274999024982" lon="9.562258326908422"><ele>52.0</ele><time>2026-04-25T09:46:38Z</time></trkpt><trkpt lat="40.83268921369009" lon="9.562424709063956"><ele>51.25</ele><time>2026-04-25T09:46:39Z</time></trkpt><trkpt lat="40.832628783371106" lon="9.562590672265582"><ele>50.5</ele><time>2026-04-25T09:46:40Z</time></trkpt><trkpt lat="40.83257412600643" lon="9.56274568529082"><ele>49.75</ele><time>2026-04-25T09:46:41Z</time></trkpt><trkpt lat="40.83252476915168" lon="9.562890548104487"><ele>49.0</ele><time>2026-04-25T09:46:42Z</time></trkpt><trkpt lat="40.83247639823876" lon="9.563032200345711"><ele>49.0</ele><time>2026-04-25T09:46:43Z</time></trkpt><trkpt lat="40.83242620688172" lon="9.563176112488815"><ele>49.0</ele><time>2026-04-25T09:46:44Z</time></trkpt><trkpt lat="40.83237908206732" lon="9.563311291303853"><ele>49.0</ele><time>2026-04-25T09:46:45Z</time></trkpt><trkpt lat="40.83233586791754" lon="9.563442578584363"><ele>49.0</ele><time>2026-04-25T09:46:46Z</time></trkpt><trkpt lat="40.8322920201046" lon="9.563580432821734"><ele>49.75</ele><time>2026-04-25T09:46:47Z</time></trkpt><trkpt lat="40.83224721301922" lon="9.563722563732734"><ele>50.5</ele><time>2026-04-25T09:46:48Z</time></trkpt><trkpt lat="40.83219640085804" lon="9.563880197600136"><ele>51.25</ele><time>2026-04-25T09:46:49Z</time></trkpt><trkpt lat="40.8321452166944" lon="9.564045460628188"><ele>52.0</ele><time>2026-04-25T09:46:50Z</time></trkpt><trkpt lat="40.83209365109365" lon="9.564211042315144"><ele>52.0</ele><time>2026-04-25T09:46:51Z</time></trkpt><trkpt lat="40.83203772257793" lon="9.564391344819878"><ele>52.0</ele><time>2026-04-25T09:46:52Z</time></trkpt><trkpt lat="40.83197675376588" lon="9.564594522018911"><ele>52.0</ele><time>2026-04-25T09:46:53Z</time></trkpt><trkpt lat="40.83192100097049" lon="9.564788675818582"><ele>51.75</ele><time>2026-04-25T09:46:54Z</time></trkpt><trkpt lat="40.83187119352095" lon="9.564964206444978"><ele>51.5</ele><time>2026-04-25T09:46:55Z</time></trkpt><trkpt lat="40.83181927416449" lon="9.56514640940965"><ele>51.25</ele><time>2026-04-25T09:46:56Z</time></trkpt><trkpt lat="40.83176648907957" lon="9.565328414297962"><ele>51.0</ele><time>2026-04-25T09:46:57Z</time></trkpt><trkpt lat="40.83171266537564" lon="9.565514526335287"><ele>52.66666666666667</ele><time>2026-04-25T09:46:58Z</time></trkpt><trkpt lat="40.8316581034312" lon="9.565703481676067"><ele>54.333333333333336</ele><time>2026-04-25T09:46:59Z</time></trkpt><trkpt lat="40.8316043716669" lon="9.56588845451644"><ele>56.0</ele><time>2026-04-25T09:47:00Z</time></trkpt><trkpt lat="40.83155204067458" lon="9.566071430135588"><ele>55.25</ele><time>2026-04-25T09:47:01Z</time></trkpt><trkpt lat="40.83150255859742" lon="9.566245345901478"><ele>54.5</ele><time>2026-04-25T09:47:02Z</time></trkpt><trkpt lat="40.83145463494429" lon="9.566418132618344"><ele>53.75</ele><time>2026-04-25T09:47:03Z</time></trkpt><trkpt lat="40.83140695446276" lon="9.56659036233168"><ele>53.0</ele><time>2026-04-25T09:47:04Z</time></trkpt><trkpt lat="40.83135861902596" lon="9.56675309902604"><ele>53.0</ele><time>2026-04-25T09:47:05Z</time></trkpt><trkpt lat="40.83131259240963" lon="9.566912878150202"><ele>53.0</ele><time>2026-04-25T09:47:06Z</time></trkpt><trkpt lat="40.831262699638444" lon="9.567083819631868"><ele>53.0</ele><time>2026-04-25T09:47:07Z</time></trkpt><trkpt lat="40.831210695920085" lon="9.56726753731388"><ele>53.0</ele><time>2026-04-25T09:47:08Z</time></trkpt><trkpt lat="40.83115812323114" lon="9.567457528528344"><ele>53.0</ele><time>2026-04-25T09:47:09Z</time></trkpt><trkpt lat="40.83110808468754" lon="9.567640640320594"><ele>53.0</ele><time>2026-04-25T09:47:10Z</time></trkpt><trkpt lat="40.83106035312784" lon="9.567813985335041"><ele>53.0</ele><time>2026-04-25T09:47:11Z</time></trkpt><trkpt lat="40.83101460690877" lon="9.56798156253593"><ele>53.0</ele><time>2026-04-25T09:47:12Z</time></trkpt><trkpt lat="40.830967058396475" lon="9.568152644815894"><ele>52.5</ele><time>2026-04-25T09:47:13Z</time></trkpt><trkpt lat="40.83091617430599" lon="9.568333562747412"><ele>52.0</ele><time>2026-04-25T09:47:14Z</time></trkpt><trkpt lat="40.830863796208185" lon="9.568516924131327"><ele>51.5</ele><time>2026-04-25T09:47:15Z</time></trkpt><trkpt lat="40.83081122147753" lon="9.56870117348658"><ele>51.0</ele><time>2026-04-25T09:47:16Z</time></trkpt><trkpt lat="40.830759689742614" lon="9.568881690804382"><ele>52.75</ele><time>2026-04-25T09:47:17Z</time></trkpt><trkpt lat="40.830711308045" lon="9.569055830053777"><ele>54.5</ele><time>2026-04-25T09:47:18Z</time></trkpt><trkpt lat="40.83066391774259" lon="9.569228863379697"><ele>56.25</ele><time>2026-04-25T09:47:19Z</time></trkpt><trkpt lat="40.830617153759896" lon="9.56939950814631"><ele>58.0</ele><time>2026-04-25T09:47:20Z</time></trkpt><trkpt lat="40.830570474268875" lon="9.569567525722153"><ele>59.25</ele><time>2026-04-25T09:47:21Z</time></trkpt><trkpt lat="40.83052080032341" lon="9.56973496115162"><ele>60.5</ele><time>2026-04-25T09:47:22Z</time></trkpt><trkpt lat="40.83047058301618" lon="9.569898166566432"><ele>61.75</ele><time>2026-04-25T09:47:23Z</time></trkpt><trkpt lat="40.83042107429889" lon="9.570063269752437"><ele>63.0</ele><time>2026-04-25T09:47:24Z</time></trkpt><trkpt lat="40.83037232063596" lon="9.57023506023717"><ele>63.0</ele><time>2026-04-25T09:47:25Z</time></trkpt><trkpt lat="40.830324800024094" lon="9.57041184879877"><ele>63.0</ele><time>2026-04-25T09:47:26Z</time></trkpt><trkpt lat="40.83027335158414" lon="9.570591236767417"><ele>63.0</ele><time>2026-04-25T09:47:27Z</time></trkpt><trkpt lat="40.83021661522373" lon="9.570774441776987"><ele>63.0</ele><time>2026-04-25T09:47:28Z</time></trkpt><trkpt lat="40.830160784489266" lon="9.570954926588552"><ele>61.66666666666667</ele><time>2026-04-25T09:47:29Z</time></trkpt><trkpt lat="40.83010405122953" lon="9.571140509937413"><ele>60.333333333333336</ele><time>2026-04-25T09:47:30Z</time></trkpt><trkpt lat="40.83004433297197" lon="9.571333453883254"><ele>59.0</ele><time>2026-04-25T09:47:31Z</time></trkpt><trkpt lat="40.82998436219023" lon="9.571522439238503"><ele>59.0</ele><time>2026-04-25T09:47:32Z</time></trkpt><trkpt lat="40.82992340031056" lon="9.571711437022985"><ele>59.0</ele><time>2026-04-25T09:47:33Z</time></trkpt><trkpt lat="40.829863960926545" lon="9.57189133029656"><ele>59.0</ele><time>2026-04-25T09:47:34Z</time></trkpt><trkpt lat="40.82980343229593" lon="9.572070527198646"><ele>60.75</ele><time>2026-04-25T09:47:35Z</time></trkpt><trkpt lat="40.82974416053596" lon="9.572244992068573"><ele>62.5</ele><time>2026-04-25T09:47:36Z</time></trkpt><trkpt lat="40.829685708845844" lon="9.572411286257713"><ele>64.25</ele><time>2026-04-25T09:47:37Z</time></trkpt><trkpt lat="40.82962522793404" lon="9.572575905403784"><ele>66.0</ele><time>2026-04-25T09:47:38Z</time></trkpt><trkpt lat="40.82956503997431" lon="9.572736345942511"><ele>64.75</ele><time>2026-04-25T09:47:39Z</time></trkpt><trkpt lat="40.8295035127277" lon="9.57289755866108"><ele>63.5</ele><time>2026-04-25T09:47:40Z</time></trkpt><trkpt lat="40.82944146523062" lon="9.573060806329808"><ele>62.25</ele><time>2026-04-25T09:47:41Z</time></trkpt><trkpt lat="40.82937605704114" lon="9.573233155267273"><ele>61.0</ele><time>2026-04-25T09:47:42Z</time></trkpt><trkpt lat="40.82930893223916" lon="9.573407069325425"><ele>61.0</ele><time>2026-04-25T09:47:43Z</time></trkpt><trkpt lat="40.82924052306551" lon="9.573573110831404"><ele>61.0</ele><time>2026-04-25T09:47:44Z</time></trkpt><trkpt lat="40.82916711120494" lon="9.573737492906934"><ele>61.0</ele><time>2026-04-25T09:47:45Z</time></trkpt><trkpt lat="40.82908963494126" lon="9.57390452280405"><ele>61.0</ele><time>2026-04-25T09:47:46Z</time></trkpt><trkpt lat="40.82901465443746" lon="9.57406855290234"><ele>61.5</ele><time>2026-04-25T09:47:47Z</time></trkpt><trkpt lat="40.82893870695778" lon="9.574236159706015"><ele>62.0</ele><time>2026-04-25T09:47:48Z</time></trkpt><trkpt lat="40.82886460976251" lon="9.574399458222379"><ele>62.5</ele><time>2026-04-25T09:47:49Z</time></trkpt><trkpt lat="40.82878646854336" lon="9.574561932401451"><ele>63.0</ele><time>2026-04-25T09:47:50Z</time></trkpt><trkpt lat="40.828707344152825" lon="9.574720360289717"><ele>63.0</ele><time>2026-04-25T09:47:51Z</time></trkpt><trkpt lat="40.828622130412455" lon="9.574877655963197"><ele>63.0</ele><time>2026-04-25T09:47:52Z</time></trkpt><trkpt lat="40.82853522565016" lon="9.57502868980882"><ele>63.0</ele><time>2026-04-25T09:47:53Z</time></trkpt><trkpt lat="40.82845022942187" lon="9.575171802181549"><ele>63.0</ele><time>2026-04-25T09:47:54Z</time></trkpt><trkpt lat="40.82836520506493" lon="9.575312792731491"><ele>62.5</ele><time>2026-04-25T09:47:55Z</time></trkpt><trkpt lat="40.82828099983045" lon="9.575451861102891"><ele>62.0</ele><time>2026-04-25T09:47:56Z</time></trkpt><trkpt lat="40.82820239164047" lon="9.575582247475035"><ele>61.5</ele><time>2026-04-25T09:47:57Z</time></trkpt><trkpt lat="40.82812636955768" lon="9.575710105491394"><ele>61.0</ele><time>2026-04-25T09:47:58Z</time></trkpt><trkpt lat="40.8280476689721" lon="9.5758348271737"><ele>61.0</ele><time>2026-04-25T09:47:59Z</time></trkpt><trkpt lat="40.827965127781646" lon="9.5759596103831"><ele>61.0</ele><time>2026-04-25T09:48:00Z</time></trkpt><trkpt lat="40.82788381804323" lon="9.576083953039134"><ele>61.0</ele><time>2026-04-25T09:48:01Z</time></trkpt><trkpt lat="40.827793965363206" lon="9.57620863474853"><ele>61.0</ele><time>2026-04-25T09:48:02Z</time></trkpt><trkpt lat="40.82770473189377" lon="9.576337896375634"><ele>62.0</ele><time>2026-04-25T09:48:03Z</time></trkpt><trkpt lat="40.82760939399207" lon="9.57647137754465"><ele>63.0</ele><time>2026-04-25T09:48:04Z</time></trkpt><trkpt lat="40.827513129691155" lon="9.576604742287987"><ele>64.0</ele><time>2026-04-25T09:48:05Z</time></trkpt><trkpt lat="40.82740905202204" lon="9.576743367214885"><ele>65.0</ele><time>2026-04-25T09:48:06Z</time></trkpt><trkpt lat="40.827306989652435" lon="9.57687801699716"><ele>65.0</ele><time>2026-04-25T09:48:07Z</time></trkpt><trkpt lat="40.82720008524387" lon="9.577011477413729"><ele>65.0</ele><time>2026-04-25T09:48:08Z</time></trkpt><trkpt lat="40.82708930901943" lon="9.577145177226926"><ele>65.0</ele><time>2026-04-25T09:48:09Z</time></trkpt><trkpt lat="40.8269736047227" lon="9.577284173162044"><ele>66.0</ele><time>2026-04-25T09:48:10Z</time></trkpt><trkpt lat="40.826853804128504" lon="9.577424490411307"><ele>67.0</ele><time>2026-04-25T09:48:11Z</time></trkpt><trkpt lat="40.82672997989646" lon="9.577562122930633"><ele>68.0</ele><time>2026-04-25T09:48:12Z</time></trkpt><trkpt lat="40.826606892504245" lon="9.577688588363472"><ele>68.0</ele><time>2026-04-25T09:48:13Z</time></trkpt><trkpt lat="40.82649478162237" lon="9.577806452887968"><ele>68.0</ele><time>2026-04-25T09:48:14Z</time></trkpt><trkpt lat="40.82638159626328" lon="9.577922377336323"><ele>68.0</ele><time>2026-04-25T09:48:15Z</time></trkpt><trkpt lat="40.826272507308964" lon="9.578032053444645"><ele>68.0</ele><time>2026-04-25T09:48:16Z</time></trkpt><trkpt lat="40.8261636568058" lon="9.578140007369656"><ele>68.5</ele><time>2026-04-25T09:48:17Z</time></trkpt><trkpt lat="40.82605066211297" lon="9.578248139898006"><ele>69.0</ele><time>2026-04-25T09:48:18Z</time></trkpt><trkpt lat="40.82592723750293" lon="9.578360764030903"><ele>69.5</ele><time>2026-04-25T09:48:19Z</time></trkpt><trkpt lat="40.82580470259354" lon="9.578471997113688"><ele>70.0</ele><time>2026-04-25T09:48:20Z</time></trkpt><trkpt lat="40.82568159508106" lon="9.578580927835507"><ele>69.33333333333333</ele><time>2026-04-25T09:48:21Z</time></trkpt><trkpt lat="40.82555867323167" lon="9.578689892784668"><ele>68.66666666666667</ele><time>2026-04-25T09:48:22Z</time></trkpt><trkpt lat="40.82543136161777" lon="9.578796915565096"><ele>68.0</ele><time>2026-04-25T09:48:23Z</time></trkpt><trkpt lat="40.82529554964141" lon="9.578903970924813"><ele>68.0</ele><time>2026-04-25T09:48:24Z</time></trkpt><trkpt lat="40.82516371856197" lon="9.579003833472628"><ele>68.0</ele><time>2026-04-25T09:48:25Z</time></trkpt><trkpt lat="40.82503192278057" lon="9.57909540919743"><ele>68.0</ele><time>2026-04-25T09:48:26Z</time></trkpt><trkpt lat="40.82490308506719" lon="9.579183613793079"><ele>68.0</ele><time>2026-04-25T09:48:27Z</time></trkpt><trkpt lat="40.82477720340157" lon="9.579270611212518"><ele>72.0</ele><time>2026-04-25T09:48:28Z</time></trkpt><trkpt lat="40.824648169247844" lon="9.57936027507286"><ele>76.0</ele><time>2026-04-25T09:48:29Z</time></trkpt><trkpt lat="40.82450958365777" lon="9.579454371225244"><ele>80.0</ele><time>2026-04-25T09:48:30Z</time></trkpt><trkpt lat="40.824360087472094" lon="9.579549793861645"><ele>82.0</ele><time>2026-04-25T09:48:31Z</time></trkpt><trkpt lat="40.824216698739434" lon="9.579634256120736"><ele>84.0</ele><time>2026-04-25T09:48:32Z</time></trkpt><trkpt lat="40.82408395737928" lon="9.579708609199592"><ele>86.0</ele><time>2026-04-25T09:48:33Z</time></trkpt><trkpt lat="40.82395686598589" lon="9.579779964822519"><ele>88.0</ele><time>2026-04-25T09:48:34Z</time></trkpt><trkpt lat="40.823831385366645" lon="9.579849967187984"><ele>88.0</ele><time>2026-04-25T09:48:35Z</time></trkpt><trkpt lat="40.82370608910581" lon="9.57992178055614"><ele>88.0</ele><time>2026-04-25T09:48:36Z</time></trkpt><trkpt lat="40.82357408061348" lon="9.579991589534455"><ele>88.0</ele><time>2026-04-25T09:48:37Z</time></trkpt><trkpt lat="40.82342250625029" lon="9.580070268606846"><ele>88.0</ele><time>2026-04-25T09:48:38Z</time></trkpt><trkpt lat="40.82325019940556" lon="9.580160501923974"><ele>88.33333333333333</ele><time>2026-04-25T09:48:39Z</time></trkpt><trkpt lat="40.823062342532474" lon="9.58025792852874"><ele>88.66666666666667</ele><time>2026-04-25T09:48:40Z</time></trkpt><trkpt lat="40.822861126158635" lon="9.580354343110903"><ele>89.0</ele><time>2026-04-25T09:48:41Z</time></trkpt><trkpt lat="40.82264617934788" lon="9.580450715636376"><ele>85.5</ele><time>2026-04-25T09:48:42Z</time></trkpt><trkpt lat="40.8224200216945" lon="9.580547301053972"><ele>82.0</ele><time>2026-04-25T09:48:43Z</time></trkpt><trkpt lat="40.82218658040241" lon="9.580645602606499"><ele>82.0</ele><time>2026-04-25T09:48:44Z</time></trkpt><trkpt lat="40.82194496519296" lon="9.58074560801762"><ele>82.0</ele><time>2026-04-25T09:48:45Z</time></trkpt><trkpt lat="40.821695938247515" lon="9.580844701090534"><ele>88.5</ele><time>2026-04-25T09:48:46Z</time></trkpt><trkpt lat="40.82143820681678" lon="9.580942591188327"><ele>95.0</ele><time>2026-04-25T09:48:47Z</time></trkpt><trkpt lat="40.82117375493526" lon="9.58103856975344"><ele>94.5</ele><time>2026-04-25T09:48:48Z</time></trkpt><trkpt lat="40.820904762023055" lon="9.581131368855534"><ele>94.0</ele><time>2026-04-25T09:48:49Z</time></trkpt><trkpt lat="40.82063268394158" lon="9.58122079664578"><ele>90.5</ele><time>2026-04-25T09:48:50Z</time></trkpt><trkpt lat="40.82036991702268" lon="9.581307345844149"><ele>87.0</ele><time>2026-04-25T09:48:51Z</time></trkpt><trkpt lat="40.820114005067516" lon="9.581397135021922"><ele>86.0</ele><time>2026-04-25T09:48:52Z</time></trkpt><trkpt lat="40.81986266540464" lon="9.581492003955356"><ele>85.0</ele><time>2026-04-25T09:48:53Z</time></trkpt><trkpt lat="40.8196152934857" lon="9.581590968312694"><ele>85.0</ele><time>2026-04-25T09:48:54Z</time></trkpt><trkpt lat="40.81937061590764" lon="9.581689289277156"><ele>85.0</ele><time>2026-04-25T09:48:55Z</time></trkpt><trkpt lat="40.81912924935265" lon="9.581788848833446"><ele>86.5</ele><time>2026-04-25T09:48:56Z</time></trkpt><trkpt lat="40.81889264492138" lon="9.58189017900996"><ele>88.0</ele><time>2026-04-25T09:48:57Z</time></trkpt><trkpt lat="40.81865304100015" lon="9.58199744044822"><ele>82.5</ele><time>2026-04-25T09:48:58Z</time></trkpt><trkpt lat="40.818406629504594" lon="9.582106473204643"><ele>77.0</ele><time>2026-04-25T09:48:59Z</time></trkpt><trkpt lat="40.818155854854126" lon="9.582229512885103"><ele>77.0</ele><time>2026-04-25T09:49:00Z</time></trkpt><trkpt lat="40.817900919223355" lon="9.582360465618743"><ele>77.0</ele><time>2026-04-25T09:49:01Z</time></trkpt><trkpt lat="40.817640880906865" lon="9.58250143843005"><ele>79.0</ele><time>2026-04-25T09:49:02Z</time></trkpt><trkpt lat="40.817391564945275" lon="9.58264598949401"><ele>81.0</ele><time>2026-04-25T09:49:03Z</time></trkpt><trkpt lat="40.81715077433396" lon="9.58279398045487"><ele>81.5</ele><time>2026-04-25T09:49:04Z</time></trkpt><trkpt lat="40.81692038056773" lon="9.582945282350433"><ele>82.0</ele><time>2026-04-25T09:49:05Z</time></trkpt><trkpt lat="40.81669390953522" lon="9.5831062026491"><ele>82.0</ele><time>2026-04-25T09:49:06Z</time></trkpt><trkpt lat="40.81647372046038" lon="9.583269580319646"><ele>82.0</ele><time>2026-04-25T09:49:07Z</time></trkpt><trkpt lat="40.81625274685125" lon="9.583441754991208"><ele>82.0</ele><time>2026-04-25T09:49:08Z</time></trkpt><trkpt lat="40.81603241897807" lon="9.583623271609143"><ele>82.0</ele><time>2026-04-25T09:49:09Z</time></trkpt><trkpt lat="40.815816664961154" lon="9.583810350851058"><ele>81.0</ele><time>2026-04-25T09:49:10Z</time></trkpt><trkpt lat="40.81560871975489" lon="9.583996770619567"><ele>80.0</ele><time>2026-04-25T09:49:11Z</time></trkpt><trkpt lat="40.81540086828082" lon="9.584189853971777"><ele>80.0</ele><time>2026-04-25T09:49:12Z</time></trkpt><trkpt lat="40.81519796491974" lon="9.584389178954343"><ele>80.0</ele><time>2026-04-25T09:49:13Z</time></trkpt><trkpt lat="40.81499369269285" lon="9.584599163694293"><ele>81.5</ele><time>2026-04-25T09:49:14Z</time></trkpt><trkpt lat="40.81478422959374" lon="9.58481459569671"><ele>83.0</ele><time>2026-04-25T09:49:15Z</time></trkpt><trkpt lat="40.81457192985987" lon="9.585035906853712"><ele>83.0</ele><time>2026-04-25T09:49:16Z</time></trkpt><trkpt lat="40.814362174120056" lon="9.585262238538204"><ele>83.0</ele><time>2026-04-25T09:49:17Z</time></trkpt><trkpt lat="40.81414897731592" lon="9.585494048575793"><ele>85.5</ele><time>2026-04-25T09:49:18Z</time></trkpt><trkpt lat="40.81393900520271" lon="9.585725426895516"><ele>88.0</ele><time>2026-04-25T09:49:19Z</time></trkpt><trkpt lat="40.81372721951678" lon="9.585963638716802"><ele>88.5</ele><time>2026-04-25T09:49:20Z</time></trkpt><trkpt lat="40.81351782245105" lon="9.586205922925528"><ele>89.0</ele><time>2026-04-25T09:49:21Z</time></trkpt><trkpt lat="40.81331044472326" lon="9.586451170304267"><ele>92.5</ele><time>2026-04-25T09:49:22Z</time></trkpt><trkpt lat="40.813100834192745" lon="9.586695691237818"><ele>96.0</ele><time>2026-04-25T09:49:23Z</time></trkpt><trkpt lat="40.81289011747618" lon="9.586939856204127"><ele>94.5</ele><time>2026-04-25T09:49:24Z</time></trkpt><trkpt lat="40.81267681259477" lon="9.587183314151233"><ele>93.0</ele><time>2026-04-25T09:49:25Z</time></trkpt><trkpt lat="40.812465161566195" lon="9.587426921200857"><ele>98.0</ele><time>2026-04-25T09:49:26Z</time></trkpt><trkpt lat="40.81225249905923" lon="9.58767389130218"><ele>103.0</ele><time>2026-04-25T09:49:27Z</time></trkpt><trkpt lat="40.8120420560042" lon="9.58792926075377"><ele>107.5</ele><time>2026-04-25T09:49:28Z</time></trkpt><trkpt lat="40.811833142693224" lon="9.588186354290274"><ele>112.0</ele><time>2026-04-25T09:49:29Z</time></trkpt><trkpt lat="40.811622185820944" lon="9.588434255170274"><ele>121.5</ele><time>2026-04-25T09:49:30Z</time></trkpt><trkpt lat="40.81140788525292" lon="9.588676230150632"><ele>131.0</ele><time>2026-04-25T09:49:31Z</time></trkpt><trkpt lat="40.81118845550659" lon="9.588906926998588"><ele>130.5</ele><time>2026-04-25T09:49:32Z</time></trkpt><trkpt lat="40.810964730726724" lon="9.589133452246246"><ele>130.0</ele><time>2026-04-25T09:49:33Z</time></trkpt><trkpt lat="40.81073592349701" lon="9.589348545513872"><ele>132.5</ele><time>2026-04-25T09:49:34Z</time></trkpt><trkpt lat="40.810501537342574" lon="9.589552682308755"><ele>135.0</ele><time>2026-04-25T09:49:35Z</time></trkpt><trkpt lat="40.81026198564264" lon="9.589752614535088"><ele>134.0</ele><time>2026-04-25T09:49:36Z</time></trkpt><trkpt lat="40.810017833078035" lon="9.58993740219086"><ele>133.0</ele><time>2026-04-25T09:49:37Z</time></trkpt><trkpt lat="40.809776886060014" lon="9.590119213711818"><ele>133.0</ele><time>2026-04-25T09:49:38Z</time></trkpt><trkpt lat="40.80951882206506" lon="9.59028327817536"><ele>133.0</ele><time>2026-04-25T09:49:39Z</time></trkpt><trkpt lat="40.80925777132369" lon="9.590430389125727"><ele>136.0</ele><time>2026-04-25T09:49:40Z</time></trkpt><trkpt lat="40.80899602635758" lon="9.590561675650363"><ele>139.0</ele><time>2026-04-25T09:49:41Z</time></trkpt><trkpt lat="40.80872526181272" lon="9.590683817418133"><ele>139.5</ele><time>2026-04-25T09:49:42Z</time></trkpt><trkpt lat="40.808454816139125" lon="9.590791725373895"><ele>140.0</ele><time>2026-04-25T09:49:43Z</time></trkpt><trkpt lat="40.808182936299175" lon="9.59088797033734"><ele>140.0</ele><time>2026-04-25T09:49:44Z</time></trkpt><trkpt lat="40.80790961695297" lon="9.590963622323242"><ele>140.0</ele><time>2026-04-25T09:49:45Z</time></trkpt><trkpt lat="40.80761632556375" lon="9.591028795324643"><ele>141.5</ele><time>2026-04-25T09:49:46Z</time></trkpt><trkpt lat="40.80734499484435" lon="9.591080179538785"><ele>143.0</ele><time>2026-04-25T09:49:47Z</time></trkpt><trkpt lat="40.80706412213638" lon="9.591107921534004"><ele>144.0</ele><time>2026-04-25T09:49:48Z</time></trkpt><trkpt lat="40.806780091463125" lon="9.591124368095107"><ele>145.0</ele><time>2026-04-25T09:49:49Z</time></trkpt><trkpt lat="40.80649489104028" lon="9.591133528950577"><ele>145.0</ele><time>2026-04-25T09:49:50Z</time></trkpt><trkpt lat="40.80620668029726" lon="9.591140138057158"><ele>145.0</ele><time>2026-04-25T09:49:51Z</time></trkpt><trkpt lat="40.80591675787714" lon="9.591142432104197"><ele>146.5</ele><time>2026-04-25T09:49:52Z</time></trkpt><trkpt lat="40.80562924378619" lon="9.591134411591591"><ele>148.0</ele><time>2026-04-25T09:49:53Z</time></trkpt><trkpt lat="40.80534004924455" lon="9.591127934743758"><ele>149.5</ele><time>2026-04-25T09:49:54Z</time></trkpt><trkpt lat="40.80502814856575" lon="9.591119906548359"><ele>151.0</ele><time>2026-04-25T09:49:55Z</time></trkpt><trkpt lat="40.80475874402358" lon="9.591113343575739"><ele>151.0</ele><time>2026-04-25T09:49:56Z</time></trkpt><trkpt lat="40.80446803744213" lon="9.591103452419976"><ele>151.0</ele><time>2026-04-25T09:49:57Z</time></trkpt><trkpt lat="40.804175083594366" lon="9.591093474810446"><ele>150.5</ele><time>2026-04-25T09:49:58Z</time></trkpt><trkpt lat="40.80388399846502" lon="9.59108167074079"><ele>150.0</ele><time>2026-04-25T09:49:59Z</time></trkpt><trkpt lat="40.80358950107185" lon="9.59107582523348"><ele>152.0</ele><time>2026-04-25T09:50:00Z</time></trkpt><trkpt lat="40.80329481960237" lon="9.591073422107426"><ele>154.0</ele><time>2026-04-25T09:50:01Z</time></trkpt><trkpt lat="40.80300058140158" lon="9.59106572684777"><ele>154.0</ele><time>2026-04-25T09:50:02Z</time></trkpt><trkpt lat="40.802704315382336" lon="9.591056953917327"><ele>154.0</ele><time>2026-04-25T09:50:03Z</time></trkpt><trkpt lat="40.802410955479466" lon="9.591049353688055"><ele>154.5</ele><time>2026-04-25T09:50:04Z</time></trkpt><trkpt lat="40.802130602224814" lon="9.591049505655906"><ele>155.0</ele><time>2026-04-25T09:50:05Z</time></trkpt><trkpt lat="40.801853974803755" lon="9.591062982940235"><ele>157.0</ele><time>2026-04-25T09:50:06Z</time></trkpt><trkpt lat="40.80158455859354" lon="9.591100059472248"><ele>159.0</ele><time>2026-04-25T09:50:07Z</time></trkpt><trkpt lat="40.801313796992666" lon="9.591161357459217"><ele>160.0</ele><time>2026-04-25T09:50:08Z</time></trkpt><trkpt lat="40.80104288074778" lon="9.59124096851849"><ele>161.0</ele><time>2026-04-25T09:50:09Z</time></trkpt><trkpt lat="40.8007732673876" lon="9.591343710937489"><ele>164.0</ele><time>2026-04-25T09:50:10Z</time></trkpt><trkpt lat="40.80050433006524" lon="9.59147027786419"><ele>167.0</ele><time>2026-04-25T09:50:11Z</time></trkpt><trkpt lat="40.800241412879565" lon="9.59161816979853"><ele>168.5</ele><time>2026-04-25T09:50:12Z</time></trkpt><trkpt lat="40.79999138108593" lon="9.591782588809128"><ele>170.0</ele><time>2026-04-25T09:50:13Z</time></trkpt><trkpt lat="40.799756752487006" lon="9.591966453210128"><ele>171.0</ele><time>2026-04-25T09:50:14Z</time></trkpt><trkpt lat="40.79952975599828" lon="9.592165241152289"><ele>172.0</ele><time>2026-04-25T09:50:15Z</time></trkpt><trkpt lat="40.799312699856415" lon="9.592379737480487"><ele>172.5</ele><time>2026-04-25T09:50:16Z</time></trkpt><trkpt lat="40.79909958532506" lon="9.592616973319545"><ele>173.0</ele><time>2026-04-25T09:50:17Z</time></trkpt><trkpt lat="40.79889786831281" lon="9.592882894129547"><ele>174.5</ele><time>2026-04-25T09:50:18Z</time></trkpt><trkpt lat="40.79870978370615" lon="9.593152054413022"><ele>176.0</ele><time>2026-04-25T09:50:19Z</time></trkpt><trkpt lat="40.7985296323695" lon="9.593442805463326"><ele>179.5</ele><time>2026-04-25T09:50:20Z</time></trkpt><trkpt lat="40.79835999334876" lon="9.593746075139983"><ele>183.0</ele><time>2026-04-25T09:50:21Z</time></trkpt><trkpt lat="40.79819962564788" lon="9.594058907196786"><ele>183.0</ele><time>2026-04-25T09:50:22Z</time></trkpt><trkpt lat="40.79804433098664" lon="9.59437719649462"><ele>183.0</ele><time>2026-04-25T09:50:23Z</time></trkpt><trkpt lat="40.79788686479803" lon="9.594696036052628"><ele>182.5</ele><time>2026-04-25T09:50:24Z</time></trkpt><trkpt lat="40.797724951288586" lon="9.595012442174552"><ele>182.0</ele><time>2026-04-25T09:50:25Z</time></trkpt><trkpt lat="40.797561854504565" lon="9.595327499868521"><ele>177.5</ele><time>2026-04-25T09:50:26Z</time></trkpt><trkpt lat="40.79740807938865" lon="9.59562750957549"><ele>173.0</ele><time>2026-04-25T09:50:27Z</time></trkpt><trkpt lat="40.79725807826329" lon="9.59592742954446"><ele>168.0</ele><time>2026-04-25T09:50:28Z</time></trkpt><trkpt lat="40.79711840797561" lon="9.596231642151348"><ele>163.0</ele><time>2026-04-25T09:50:29Z</time></trkpt><trkpt lat="40.79698779245781" lon="9.596548070116166"><ele>163.0</ele><time>2026-04-25T09:50:30Z</time></trkpt><trkpt lat="40.79687108997821" lon="9.596872426969714"><ele>163.0</ele><time>2026-04-25T09:50:31Z</time></trkpt><trkpt lat="40.79677197867089" lon="9.597203931825574"><ele>157.5</ele><time>2026-04-25T09:50:32Z</time></trkpt><trkpt lat="40.79668515024878" lon="9.59754861244609"><ele>152.0</ele><time>2026-04-25T09:50:33Z</time></trkpt><trkpt lat="40.79661355987735" lon="9.59789637407011"><ele>148.5</ele><time>2026-04-25T09:50:34Z</time></trkpt><trkpt lat="40.7965578163753" lon="9.598248417620585"><ele>145.0</ele><time>2026-04-25T09:50:35Z</time></trkpt><trkpt lat="40.796522428368135" lon="9.598604491680785"><ele>143.5</ele><time>2026-04-25T09:50:36Z</time></trkpt><trkpt lat="40.79650462674012" lon="9.598968418945804"><ele>142.0</ele><time>2026-04-25T09:50:37Z</time></trkpt><trkpt lat="40.79650113815945" lon="9.59933218048567"><ele>145.0</ele><time>2026-04-25T09:50:38Z</time></trkpt><trkpt lat="40.79651709891624" lon="9.599694977587154"><ele>148.0</ele><time>2026-04-25T09:50:39Z</time></trkpt><trkpt lat="40.79654806534734" lon="9.600059812825714"><ele>149.5</ele><time>2026-04-25T09:50:40Z</time></trkpt><trkpt lat="40.79659474218978" lon="9.600430534587076"><ele>151.0</ele><time>2026-04-25T09:50:41Z</time></trkpt><trkpt lat="40.79665133903359" lon="9.600804646267878"><ele>150.0</ele><time>2026-04-25T09:50:42Z</time></trkpt><trkpt lat="40.79671340471766" lon="9.601186448875888"><ele>149.0</ele><time>2026-04-25T09:50:43Z</time></trkpt><trkpt lat="40.79677415922718" lon="9.601571262290172"><ele>149.0</ele><time>2026-04-25T09:50:44Z</time></trkpt><trkpt lat="40.796828095954545" lon="9.601963389605201"><ele>149.0</ele><time>2026-04-25T09:50:45Z</time></trkpt><trkpt lat="40.79687043431453" lon="9.60236465535838"><ele>139.0</ele><time>2026-04-25T09:50:46Z</time></trkpt><trkpt lat="40.796897191035406" lon="9.602767335645689"><ele>129.0</ele><time>2026-04-25T09:50:47Z</time></trkpt><trkpt lat="40.79690871672549" lon="9.603176511725307"><ele>126.5</ele><time>2026-04-25T09:50:48Z</time></trkpt><trkpt lat="40.79690161290917" lon="9.60357217349058"><ele>124.0</ele><time>2026-04-25T09:50:49Z</time></trkpt><trkpt lat="40.796875321037156" lon="9.60397028910952"><ele>127.0</ele><time>2026-04-25T09:50:50Z</time></trkpt><trkpt lat="40.796831393214944" lon="9.604362537314817"><ele>130.0</ele><time>2026-04-25T09:50:51Z</time></trkpt><trkpt lat="40.796770942261496" lon="9.6047529658838"><ele>130.0</ele><time>2026-04-25T09:50:52Z</time></trkpt><trkpt lat="40.796695548273256" lon="9.605134568959484"><ele>130.0</ele><time>2026-04-25T09:50:53Z</time></trkpt><trkpt lat="40.796602809469476" lon="9.605512985536468"><ele>130.0</ele><time>2026-04-25T09:50:54Z</time></trkpt><trkpt lat="40.79649513535679" lon="9.605883407533948"><ele>130.0</ele><time>2026-04-25T09:50:55Z</time></trkpt><trkpt lat="40.796370944388514" lon="9.606249084420435"><ele>131.5</ele><time>2026-04-25T09:50:56Z</time></trkpt><trkpt lat="40.79622731313837" lon="9.606605980954145"><ele>133.0</ele><time>2026-04-25T09:50:57Z</time></trkpt><trkpt lat="40.79606578604951" lon="9.606958800499296"><ele>135.0</ele><time>2026-04-25T09:50:58Z</time></trkpt><trkpt lat="40.79588744152758" lon="9.607301834311032"><ele>137.0</ele><time>2026-04-25T09:50:59Z</time></trkpt><trkpt lat="40.79569333217766" lon="9.607634875513721"><ele>139.0</ele><time>2026-04-25T09:51:00Z</time></trkpt><trkpt lat="40.79548201133152" lon="9.607953832482439"><ele>141.0</ele><time>2026-04-25T09:51:01Z</time></trkpt><trkpt lat="40.79526085740124" lon="9.608255734873945"><ele>142.0</ele><time>2026-04-25T09:51:02Z</time></trkpt><trkpt lat="40.7950393751615" lon="9.608520379252157"><ele>143.0</ele><time>2026-04-25T09:51:03Z</time></trkpt><trkpt lat="40.79481133262816" lon="9.608765571045659"><ele>138.0</ele><time>2026-04-25T09:51:04Z</time></trkpt><trkpt lat="40.79457795414259" lon="9.608979630664132"><ele>133.0</ele><time>2026-04-25T09:51:05Z</time></trkpt><trkpt lat="40.79433257538934" lon="9.609184374961991"><ele>133.0</ele><time>2026-04-25T09:51:06Z</time></trkpt><trkpt lat="40.79408226604472" lon="9.609375382084044"><ele>133.0</ele><time>2026-04-25T09:51:07Z</time></trkpt><trkpt lat="40.793825566349284" lon="9.60954821018968"><ele>133.0</ele><time>2026-04-25T09:51:08Z</time></trkpt><trkpt lat="40.79355898214074" lon="9.609715572890794"><ele>133.0</ele><time>2026-04-25T09:51:09Z</time></trkpt><trkpt lat="40.79328797390367" lon="9.609866966395717"><ele>133.0</ele><time>2026-04-25T09:51:10Z</time></trkpt><trkpt lat="40.793009274145064" lon="9.610021458899471"><ele>133.0</ele><time>2026-04-25T09:51:11Z</time></trkpt><trkpt lat="40.79273491593103" lon="9.61016924229804"><ele>124.0</ele><time>2026-04-25T09:51:12Z</time></trkpt><trkpt lat="40.792472698284506" lon="9.610317942819675"><ele>115.0</ele><time>2026-04-25T09:51:13Z</time></trkpt><trkpt lat="40.792221852032256" lon="9.610475247036886"><ele>108.5</ele><time>2026-04-25T09:51:14Z</time></trkpt><trkpt lat="40.79198036280725" lon="9.610643333954785"><ele>102.0</ele><time>2026-04-25T09:51:15Z</time></trkpt><trkpt lat="40.791748552790494" lon="9.610822430451826"><ele>97.5</ele><time>2026-04-25T09:51:16Z</time></trkpt><trkpt lat="40.79151530885887" lon="9.61101868228455"><ele>93.0</ele><time>2026-04-25T09:51:17Z</time></trkpt><trkpt lat="40.791283202612625" lon="9.611234549497144"><ele>91.5</ele><time>2026-04-25T09:51:18Z</time></trkpt><trkpt lat="40.791052486899744" lon="9.61146740489049"><ele>90.0</ele><time>2026-04-25T09:51:19Z</time></trkpt><trkpt lat="40.790832770028146" lon="9.611716903369244"><ele>90.0</ele><time>2026-04-25T09:51:20Z</time></trkpt><trkpt lat="40.79061784088098" lon="9.611978257780635"><ele>90.0</ele><time>2026-04-25T09:51:21Z</time></trkpt><trkpt lat="40.790417301251445" lon="9.61224909240884"><ele>92.0</ele><time>2026-04-25T09:51:22Z</time></trkpt><trkpt lat="40.79022505828826" lon="9.612515223807383"><ele>94.0</ele><time>2026-04-25T09:51:23Z</time></trkpt><trkpt lat="40.79004196144689" lon="9.612768535364483"><ele>86.5</ele><time>2026-04-25T09:51:24Z</time></trkpt><trkpt lat="40.789859206598216" lon="9.613016279155595"><ele>79.0</ele><time>2026-04-25T09:51:25Z</time></trkpt><trkpt lat="40.7896768901033" lon="9.613255196564953"><ele>79.0</ele><time>2026-04-25T09:51:26Z</time></trkpt><trkpt lat="40.78949484403413" lon="9.6134883181316"><ele>79.0</ele><time>2026-04-25T09:51:27Z</time></trkpt><trkpt lat="40.789311739703564" lon="9.613715280605483"><ele>79.5</ele><time>2026-04-25T09:51:28Z</time></trkpt><trkpt lat="40.789127950601035" lon="9.613935669531791"><ele>80.0</ele><time>2026-04-25T09:51:29Z</time></trkpt><trkpt lat="40.788944909751" lon="9.614142249333495"><ele>80.0</ele><time>2026-04-25T09:51:30Z</time></trkpt><trkpt lat="40.78875718962046" lon="9.614346044113432"><ele>80.0</ele><time>2026-04-25T09:51:31Z</time></trkpt><trkpt lat="40.78856407208558" lon="9.614545947414594"><ele>85.5</ele><time>2026-04-25T09:51:32Z</time></trkpt><trkpt lat="40.788362015895714" lon="9.614745530000283"><ele>91.0</ele><time>2026-04-25T09:51:33Z</time></trkpt><trkpt lat="40.78815828760935" lon="9.614937798411729"><ele>91.0</ele><time>2026-04-25T09:51:34Z</time></trkpt><trkpt lat="40.78795415587281" lon="9.615123413039454"><ele>91.0</ele><time>2026-04-25T09:51:35Z</time></trkpt><trkpt lat="40.78775195581844" lon="9.61530197274904"><ele>107.0</ele><time>2026-04-25T09:51:36Z</time></trkpt><trkpt lat="40.78755374537819" lon="9.61546314518103"><ele>123.0</ele><time>2026-04-25T09:51:37Z</time></trkpt><trkpt lat="40.78734499162986" lon="9.615621956379783"><ele>123.0</ele><time>2026-04-25T09:51:38Z</time></trkpt><trkpt lat="40.78713222557844" lon="9.615781836105942"><ele>123.0</ele><time>2026-04-25T09:51:39Z</time></trkpt><trkpt lat="40.78691370952621" lon="9.615947183405703"><ele>142.0</ele><time>2026-04-25T09:51:40.017Z</time></trkpt><trkpt lat="40.78670056799656" lon="9.616111787272036"><ele>161.0</ele><time>2026-04-25T09:51:41.023Z</time></trkpt><trkpt lat="40.78648834957814" lon="9.61627295998577"><ele>161.0</ele><time>2026-04-25T09:51:42.016Z</time></trkpt><trkpt lat="40.786272121776854" lon="9.616434603636423"><ele>161.0</ele><time>2026-04-25T09:51:43.013Z</time></trkpt><trkpt lat="40.78605211561611" lon="9.616596736143853"><ele>180.5</ele><time>2026-04-25T09:51:44.02Z</time></trkpt><trkpt lat="40.78583112535814" lon="9.616754897236424"><ele>200.0</ele><time>2026-04-25T09:51:45.017Z</time></trkpt><trkpt lat="40.78561173463655" lon="9.616915725334"><ele>149.0</ele><time>2026-04-25T09:51:46.014Z</time></trkpt><trkpt lat="40.77718519609494" lon="9.621754456320424"><ele>149.0</ele><time>2026-04-25T09:52:23Z</time></trkpt><trkpt lat="40.77697354225138" lon="9.621933169367338"><ele>149.0</ele><time>2026-04-25T09:52:24Z</time></trkpt><trkpt lat="40.77676122659071" lon="9.622062469858987"><ele>148.0</ele><time>2026-04-25T09:52:25Z</time></trkpt><trkpt lat="40.776563553128334" lon="9.622254989565368"><ele>147.0</ele><time>2026-04-25T09:52:26Z</time></trkpt><trkpt lat="40.77636462011262" lon="9.622461011830191"><ele>147.0</ele><time>2026-04-25T09:52:27Z</time></trkpt><trkpt lat="40.776168563364145" lon="9.62266819132304"><ele>147.0</ele><time>2026-04-25T09:52:28Z</time></trkpt><trkpt lat="40.77597196934095" lon="9.622889602580413"><ele>143.5</ele><time>2026-04-25T09:52:29Z</time></trkpt><trkpt lat="40.77577770474073" lon="9.6231172801773"><ele>140.0</ele><time>2026-04-25T09:52:30Z</time></trkpt><trkpt lat="40.775583802035925" lon="9.623363021395399"><ele>140.0</ele><time>2026-04-25T09:52:31Z</time></trkpt><trkpt lat="40.77538620993492" lon="9.6236165714981"><ele>140.0</ele><time>2026-04-25T09:52:32Z</time></trkpt><trkpt lat="40.77519010533129" lon="9.623883036358476"><ele>136.0</ele><time>2026-04-25T09:52:33Z</time></trkpt><trkpt lat="40.77499551828876" lon="9.624162041908404"><ele>132.0</ele><time>2026-04-25T09:52:34Z</time></trkpt><trkpt lat="40.774806963078085" lon="9.624448258481202"><ele>130.0</ele><time>2026-04-25T09:52:35Z</time></trkpt><trkpt lat="40.77462193602008" lon="9.624739236455369"><ele>128.0</ele><time>2026-04-25T09:52:36Z</time></trkpt><trkpt lat="40.77444194793305" lon="9.625032552867674"><ele>128.0</ele><time>2026-04-25T09:52:37Z</time></trkpt><trkpt lat="40.77427008175672" lon="9.625337618342318"><ele>128.0</ele><time>2026-04-25T09:52:38Z</time></trkpt><trkpt lat="40.77410133149826" lon="9.625648019955076"><ele>128.0</ele><time>2026-04-25T09:52:39Z</time></trkpt><trkpt lat="40.773943164890376" lon="9.625960801692552"><ele>128.0</ele><time>2026-04-25T09:52:40Z</time></trkpt><trkpt lat="40.77379094648579" lon="9.626276967683458"><ele>120.0</ele><time>2026-04-25T09:52:41Z</time></trkpt><trkpt lat="40.77365134844757" lon="9.62657826770939"><ele>112.0</ele><time>2026-04-25T09:52:42Z</time></trkpt><trkpt lat="40.77352285004863" lon="9.626869929198673"><ele>105.5</ele><time>2026-04-25T09:52:43Z</time></trkpt><trkpt lat="40.773400817756745" lon="9.62716122332426"><ele>99.0</ele><time>2026-04-25T09:52:44Z</time></trkpt><trkpt lat="40.77328047552808" lon="9.627464901899488"><ele>99.0</ele><time>2026-04-25T09:52:45Z</time></trkpt><trkpt lat="40.77316169542559" lon="9.62778056821385"><ele>99.0</ele><time>2026-04-25T09:52:46Z</time></trkpt><trkpt lat="40.77304190117007" lon="9.628117111056277"><ele>101.0</ele><time>2026-04-25T09:52:47Z</time></trkpt><trkpt lat="40.77292674655572" lon="9.628457098565713"><ele>103.0</ele><time>2026-04-25T09:52:48Z</time></trkpt><trkpt lat="40.77281727128429" lon="9.628808142621885"><ele>104.5</ele><time>2026-04-25T09:52:49Z</time></trkpt><trkpt lat="40.772714810818776" lon="9.629162924634052"><ele>106.0</ele><time>2026-04-25T09:52:50Z</time></trkpt><trkpt lat="40.77261695929074" lon="9.629524146220618"><ele>100.5</ele><time>2026-04-25T09:52:51Z</time></trkpt><trkpt lat="40.772523914508554" lon="9.62989686132595"><ele>95.0</ele><time>2026-04-25T09:52:52Z</time></trkpt><trkpt lat="40.77243821980087" lon="9.630274585810001"><ele>91.5</ele><time>2026-04-25T09:52:53Z</time></trkpt><trkpt lat="40.77235612318723" lon="9.630658600309602"><ele>88.0</ele><time>2026-04-25T09:52:54Z</time></trkpt><trkpt lat="40.77227842096969" lon="9.631049619936682"><ele>92.0</ele><time>2026-04-25T09:52:55Z</time></trkpt><trkpt lat="40.77220040297803" lon="9.631439536389871"><ele>96.0</ele><time>2026-04-25T09:52:56Z</time></trkpt><trkpt lat="40.77212301396843" lon="9.631827462431795"><ele>95.5</ele><time>2026-04-25T09:52:57Z</time></trkpt><trkpt lat="40.7720453669575" lon="9.632189330903351"><ele>95.0</ele><time>2026-04-25T09:52:58Z</time></trkpt><trkpt lat="40.77197382970508" lon="9.63253907095494"><ele>91.0</ele><time>2026-04-25T09:52:59Z</time></trkpt><trkpt lat="40.77189388914406" lon="9.63289081496995"><ele>87.0</ele><time>2026-04-25T09:53:00Z</time></trkpt><trkpt lat="40.771805967969115" lon="9.633246281015058"><ele>84.5</ele><time>2026-04-25T09:53:01Z</time></trkpt><trkpt lat="40.77171054568337" lon="9.63359370804405"><ele>82.0</ele><time>2026-04-25T09:53:02Z</time></trkpt><trkpt lat="40.771599754733195" lon="9.633940069048892"><ele>82.0</ele><time>2026-04-25T09:53:03Z</time></trkpt><trkpt lat="40.771478900761466" lon="9.634282117196536"><ele>82.0</ele><time>2026-04-25T09:53:04Z</time></trkpt><trkpt lat="40.771347122219815" lon="9.634617712704861"><ele>86.0</ele><time>2026-04-25T09:53:05Z</time></trkpt><trkpt lat="40.7712067964725" lon="9.634951254468842"><ele>90.0</ele><time>2026-04-25T09:53:06Z</time></trkpt><trkpt lat="40.771058683782094" lon="9.635277567402417"><ele>86.0</ele><time>2026-04-25T09:53:07Z</time></trkpt><trkpt lat="40.770903648422134" lon="9.63559347633299"><ele>82.0</ele><time>2026-04-25T09:53:08Z</time></trkpt><trkpt lat="40.77073661692111" lon="9.635901298209125"><ele>85.0</ele><time>2026-04-25T09:53:09Z</time></trkpt><trkpt lat="40.7705630365728" lon="9.636212258147363"><ele>88.0</ele><time>2026-04-25T09:53:10Z</time></trkpt><trkpt lat="40.770382882868624" lon="9.63651814841176"><ele>88.0</ele><time>2026-04-25T09:53:11Z</time></trkpt><trkpt lat="40.770193088766284" lon="9.636808245638852"><ele>88.0</ele><time>2026-04-25T09:53:12Z</time></trkpt><trkpt lat="40.769993153308086" lon="9.637087197365345"><ele>79.5</ele><time>2026-04-25T09:53:13Z</time></trkpt><trkpt lat="40.76978961056546" lon="9.637358116188416"><ele>71.0</ele><time>2026-04-25T09:53:14Z</time></trkpt><trkpt lat="40.769582616359855" lon="9.637614057400805"><ele>72.5</ele><time>2026-04-25T09:53:15Z</time></trkpt><trkpt lat="40.76936757390422" lon="9.637864370218162"><ele>74.0</ele><time>2026-04-25T09:53:16Z</time></trkpt><trkpt lat="40.769153624133644" lon="9.638101403918322"><ele>68.5</ele><time>2026-04-25T09:53:17Z</time></trkpt><trkpt lat="40.76893675311018" lon="9.638339595784414"><ele>63.0</ele><time>2026-04-25T09:53:18Z</time></trkpt><trkpt lat="40.76872022574672" lon="9.638576558905061"><ele>63.5</ele><time>2026-04-25T09:53:19Z</time></trkpt><trkpt lat="40.7685026336563" lon="9.63881537665282"><ele>64.0</ele><time>2026-04-25T09:53:20Z</time></trkpt><trkpt lat="40.768286202226875" lon="9.639045505946697"><ele>64.0</ele><time>2026-04-25T09:53:21Z</time></trkpt><trkpt lat="40.76807092481921" lon="9.63927986025177"><ele>64.0</ele><time>2026-04-25T09:53:22Z</time></trkpt><trkpt lat="40.76785450478217" lon="9.639518995834923"><ele>62.0</ele><time>2026-04-25T09:53:23Z</time></trkpt><trkpt lat="40.76763214252533" lon="9.639764911670058"><ele>60.0</ele><time>2026-04-25T09:53:24Z</time></trkpt><trkpt lat="40.767408835102046" lon="9.640011574077558"><ele>60.0</ele><time>2026-04-25T09:53:25Z</time></trkpt><trkpt lat="40.767180009543154" lon="9.64026470435788"><ele>60.0</ele><time>2026-04-25T09:53:26Z</time></trkpt><trkpt lat="40.76694788950292" lon="9.640521191356516"><ele>57.0</ele><time>2026-04-25T09:53:27Z</time></trkpt><trkpt lat="40.76671445973394" lon="9.640778956771243"><ele>54.0</ele><time>2026-04-25T09:53:28Z</time></trkpt><trkpt lat="40.766488987654334" lon="9.641026394701067"><ele>59.5</ele><time>2026-04-25T09:53:29Z</time></trkpt><trkpt lat="40.76627929798874" lon="9.641253180604728"><ele>65.0</ele><time>2026-04-25T09:53:30Z</time></trkpt><trkpt lat="40.766078167428645" lon="9.64146949140936"><ele>61.0</ele><time>2026-04-25T09:53:31Z</time></trkpt><trkpt lat="40.76588784137824" lon="9.64167233885631"><ele>57.0</ele><time>2026-04-25T09:53:32Z</time></trkpt><trkpt lat="40.76570531431889" lon="9.64186719051336"><ele>59.5</ele><time>2026-04-25T09:53:33Z</time></trkpt><trkpt lat="40.7655149181819" lon="9.642076989292493"><ele>62.0</ele><time>2026-04-25T09:53:34Z</time></trkpt><trkpt lat="40.76531627677266" lon="9.642298680012"><ele>58.0</ele><time>2026-04-25T09:53:35Z</time></trkpt><trkpt lat="40.76510318711771" lon="9.642521077306975"><ele>54.0</ele><time>2026-04-25T09:53:36Z</time></trkpt><trkpt lat="40.764876855120896" lon="9.642729050775998"><ele>53.5</ele><time>2026-04-25T09:53:37Z</time></trkpt><trkpt lat="40.76464242513135" lon="9.642916970508278"><ele>53.0</ele><time>2026-04-25T09:53:38Z</time></trkpt><trkpt lat="40.764409095674274" lon="9.643076829451909"><ele>49.0</ele><time>2026-04-25T09:53:39Z</time></trkpt><trkpt lat="40.764171905405256" lon="9.643217123089492"><ele>45.0</ele><time>2026-04-25T09:53:40Z</time></trkpt><trkpt lat="40.763925478027666" lon="9.643344891086286"><ele>45.0</ele><time>2026-04-25T09:53:41Z</time></trkpt><trkpt lat="40.76367335020721" lon="9.643446464495769"><ele>45.0</ele><time>2026-04-25T09:53:42Z</time></trkpt><trkpt lat="40.76340875202214" lon="9.64353897948511"><ele>44.0</ele><time>2026-04-25T09:53:43Z</time></trkpt><trkpt lat="40.76313883611934" lon="9.643611205290988"><ele>43.0</ele><time>2026-04-25T09:53:44Z</time></trkpt><trkpt lat="40.76286889588808" lon="9.643659957161988"><ele>52.5</ele><time>2026-04-25T09:53:45Z</time></trkpt><trkpt lat="40.76260295630761" lon="9.64368326547863"><ele>62.0</ele><time>2026-04-25T09:53:46Z</time></trkpt><trkpt lat="40.76233794827481" lon="9.643689643038556"><ele>62.0</ele><time>2026-04-25T09:53:47Z</time></trkpt><trkpt lat="40.762072366325825" lon="9.643679548307755"><ele>62.0</ele><time>2026-04-25T09:53:48Z</time></trkpt><trkpt lat="40.76181432327079" lon="9.643653974599635"><ele>71.0</ele><time>2026-04-25T09:53:49Z</time></trkpt><trkpt lat="40.761559386736174" lon="9.643619273981233"><ele>80.0</ele><time>2026-04-25T09:53:50Z</time></trkpt><trkpt lat="40.76129927975678" lon="9.64359041369735"><ele>80.0</ele><time>2026-04-25T09:53:51.023Z</time></trkpt><trkpt lat="40.76104468236555" lon="9.64356324298226"><ele>80.0</ele><time>2026-04-25T09:53:52.022Z</time></trkpt><trkpt lat="40.76079479679254" lon="9.643533794939742"><ele>73.5</ele><time>2026-04-25T09:53:53Z</time></trkpt><trkpt lat="40.7605334196834" lon="9.643178147765196"><ele>67.0</ele><time>2026-04-25T09:53:54Z</time></trkpt><trkpt lat="40.76028148106173" lon="9.643010748785155"><ele>65.5</ele><time>2026-04-25T09:53:55Z</time></trkpt><trkpt lat="40.760036002354" lon="9.642825434221395"><ele>64.0</ele><time>2026-04-25T09:53:56Z</time></trkpt><trkpt lat="40.75980582648088" lon="9.642624155431141"><ele>64.0</ele><time>2026-04-25T09:53:57Z</time></trkpt><trkpt lat="40.75957403508356" lon="9.642397517797633"><ele>64.0</ele><time>2026-04-25T09:53:58Z</time></trkpt><trkpt lat="40.75934936000656" lon="9.642154143909245"><ele>63.0</ele><time>2026-04-25T09:53:59Z</time></trkpt><trkpt lat="40.75913177177294" lon="9.641888620179587"><ele>62.0</ele><time>2026-04-25T09:54:00Z</time></trkpt><trkpt lat="40.75892151448563" lon="9.641610000231575"><ele>62.0</ele><time>2026-04-25T09:54:01Z</time></trkpt><trkpt lat="40.75871487772684" lon="9.641327677788064"><ele>62.0</ele><time>2026-04-25T09:54:02Z</time></trkpt><trkpt lat="40.75851585447943" lon="9.641063020662212"><ele>62.5</ele><time>2026-04-25T09:54:03Z</time></trkpt><trkpt lat="40.758316611975644" lon="9.640820191377713"><ele>63.0</ele><time>2026-04-25T09:54:04Z</time></trkpt><trkpt lat="40.75810172614062" lon="9.64058323315461"><ele>63.0</ele><time>2026-04-25T09:54:05Z</time></trkpt><trkpt lat="40.757880811897586" lon="9.640365933908933"><ele>63.0</ele><time>2026-04-25T09:54:06Z</time></trkpt><trkpt lat="40.75766146277493" lon="9.640172049050147"><ele>65.0</ele><time>2026-04-25T09:54:07Z</time></trkpt><trkpt lat="40.75744582041374" lon="9.640007369803387"><ele>67.0</ele><time>2026-04-25T09:54:08Z</time></trkpt><trkpt lat="40.75723123431385" lon="9.639870213392822"><ele>67.0</ele><time>2026-04-25T09:54:09Z</time></trkpt><trkpt lat="40.757024907624725" lon="9.639752031057926"><ele>67.0</ele><time>2026-04-25T09:54:10Z</time></trkpt><trkpt lat="40.75682573267486" lon="9.639651590538952"><ele>67.0</ele><time>2026-04-25T09:54:11Z</time></trkpt><trkpt lat="40.756632387605514" lon="9.639561569939792"><ele>62.33333333333333</ele><time>2026-04-25T09:54:12Z</time></trkpt><trkpt lat="40.756445527154916" lon="9.639487475547407"><ele>57.66666666666667</ele><time>2026-04-25T09:54:13Z</time></trkpt><trkpt lat="40.756269210000106" lon="9.63943202913304"><ele>53.0</ele><time>2026-04-25T09:54:14Z</time></trkpt><trkpt lat="40.75609674475642" lon="9.639387849186258"><ele>55.333333333333336</ele><time>2026-04-25T09:54:15Z</time></trkpt><trkpt lat="40.75593479523047" lon="9.639353611865532"><ele>57.66666666666667</ele><time>2026-04-25T09:54:16Z</time></trkpt><trkpt lat="40.755781647235374" lon="9.639328341481468"><ele>60.0</ele><time>2026-04-25T09:54:17Z</time></trkpt><trkpt lat="40.75563535730675" lon="9.639311880110368"><ele>60.0</ele><time>2026-04-25T09:54:18Z</time></trkpt><trkpt lat="40.75549521685718" lon="9.639302866594306"><ele>60.0</ele><time>2026-04-25T09:54:19Z</time></trkpt><trkpt lat="40.75535337712179" lon="9.639298545633201"><ele>60.0</ele><time>2026-04-25T09:54:20Z</time></trkpt><trkpt lat="40.75521163150985" lon="9.639294688618815"><ele>60.0</ele><time>2026-04-25T09:54:21Z</time></trkpt><trkpt lat="40.75508114917647" lon="9.63929575988348"><ele>61.25</ele><time>2026-04-25T09:54:22Z</time></trkpt><trkpt lat="40.75496169431741" lon="9.639307036797563"><ele>62.5</ele><time>2026-04-25T09:54:23Z</time></trkpt><trkpt lat="40.754839958748065" lon="9.639324885715713"><ele>63.75</ele><time>2026-04-25T09:54:24Z</time></trkpt><trkpt lat="40.75471812942886" lon="9.639343630484223"><ele>65.0</ele><time>2026-04-25T09:54:25Z</time></trkpt><trkpt lat="40.75460418653371" lon="9.639366064392751"><ele>65.0</ele><time>2026-04-25T09:54:26Z</time></trkpt><trkpt lat="40.75448947420239" lon="9.639387542964554"><ele>65.0</ele><time>2026-04-25T09:54:27Z</time></trkpt><trkpt lat="40.7543746635381" lon="9.639411937589694"><ele>65.0</ele><time>2026-04-25T09:54:28Z</time></trkpt><trkpt lat="40.75425175569946" lon="9.63944372285496"><ele>65.0</ele><time>2026-04-25T09:54:29Z</time></trkpt><trkpt lat="40.75413422906212" lon="9.639481000225496"><ele>65.0</ele><time>2026-04-25T09:54:30Z</time></trkpt><trkpt lat="40.75402045416285" lon="9.639523787360545"><ele>65.0</ele><time>2026-04-25T09:54:31Z</time></trkpt><trkpt lat="40.75390782084633" lon="9.639571879179735"><ele>65.0</ele><time>2026-04-25T09:54:32Z</time></trkpt><trkpt lat="40.75379899077702" lon="9.639622048364544"><ele>65.0</ele><time>2026-04-25T09:54:33Z</time></trkpt><trkpt lat="40.75369219189556" lon="9.639674075140224"><ele>65.0</ele><time>2026-04-25T09:54:34Z</time></trkpt><trkpt lat="40.75358441965688" lon="9.639728438027396"><ele>65.0</ele><time>2026-04-25T09:54:35Z</time></trkpt><trkpt lat="40.75347714880363" lon="9.639781145698988"><ele>65.0</ele><time>2026-04-25T09:54:36Z</time></trkpt><trkpt lat="40.75336885262613" lon="9.639834120186501"><ele>65.0</ele><time>2026-04-25T09:54:37Z</time></trkpt><trkpt lat="40.75326045344123" lon="9.639888615114153"><ele>66.5</ele><time>2026-04-25T09:54:38Z</time></trkpt><trkpt lat="40.753152027503845" lon="9.639946517383855"><ele>68.0</ele><time>2026-04-25T09:54:39Z</time></trkpt><trkpt lat="40.75304359387391" lon="9.640006040424915"><ele>69.5</ele><time>2026-04-25T09:54:40Z</time></trkpt><trkpt lat="40.75293697237079" lon="9.6400640046158"><ele>71.0</ele><time>2026-04-25T09:54:41Z</time></trkpt><trkpt lat="40.752830008128534" lon="9.640122441972773"><ele>71.0</ele><time>2026-04-25T09:54:42Z</time></trkpt><trkpt lat="40.752723299353846" lon="9.640183206625776"><ele>71.0</ele><time>2026-04-25T09:54:43Z</time></trkpt><trkpt lat="40.752614533996685" lon="9.640235766305391"><ele>71.0</ele><time>2026-04-25T09:54:44Z</time></trkpt><trkpt lat="40.75250504551291" lon="9.640287093001835"><ele>71.0</ele><time>2026-04-25T09:54:45Z</time></trkpt><trkpt lat="40.75239965276991" lon="9.640335893267807"><ele>71.0</ele><time>2026-04-25T09:54:46Z</time></trkpt><trkpt lat="40.752295575273855" lon="9.640385542742155"><ele>71.0</ele><time>2026-04-25T09:54:47Z</time></trkpt><trkpt lat="40.7521891413098" lon="9.640437360507553"><ele>71.0</ele><time>2026-04-25T09:54:48Z</time></trkpt><trkpt lat="40.75208036181818" lon="9.640482157668806"><ele>71.0</ele><time>2026-04-25T09:54:49Z</time></trkpt><trkpt lat="40.75196781016807" lon="9.640523005375414"><ele>72.5</ele><time>2026-04-25T09:54:50Z</time></trkpt><trkpt lat="40.75185452131054" lon="9.640554162864134"><ele>74.0</ele><time>2026-04-25T09:54:51Z</time></trkpt><trkpt lat="40.75174339056803" lon="9.640583497755587"><ele>75.5</ele><time>2026-04-25T09:54:52Z</time></trkpt><trkpt lat="40.751631486562005" lon="9.640612319183722"><ele>77.0</ele><time>2026-04-25T09:54:53Z</time></trkpt><trkpt lat="40.75151755623239" lon="9.640637668020176"><ele>77.0</ele><time>2026-04-25T09:54:54Z</time></trkpt><trkpt lat="40.75140375063331" lon="9.640659652049393"><ele>77.0</ele><time>2026-04-25T09:54:55Z</time></trkpt><trkpt lat="40.75128329272777" lon="9.640678359795976"><ele>77.0</ele><time>2026-04-25T09:54:56Z</time></trkpt><trkpt lat="40.75117101643008" lon="9.640688529242816"><ele>77.0</ele><time>2026-04-25T09:54:57Z</time></trkpt><trkpt lat="40.75106287519634" lon="9.64069167079135"><ele>79.2</ele><time>2026-04-25T09:54:58Z</time></trkpt><trkpt lat="40.75095774173867" lon="9.640695449765206"><ele>81.4</ele><time>2026-04-25T09:54:59Z</time></trkpt><trkpt lat="40.7508520561875" lon="9.640695534399507"><ele>83.60000000000001</ele><time>2026-04-25T09:55:00Z</time></trkpt><trkpt lat="40.750742164256955" lon="9.640689830168789"><ele>85.80000000000001</ele><time>2026-04-25T09:55:01Z</time></trkpt><trkpt lat="40.75062641249952" lon="9.64068559161841"><ele>88.0</ele><time>2026-04-25T09:55:02Z</time></trkpt><trkpt lat="40.75050112399415" lon="9.640678408239653"><ele>88.0</ele><time>2026-04-25T09:55:03Z</time></trkpt><trkpt lat="40.75037133349883" lon="9.640665684240286"><ele>88.0</ele><time>2026-04-25T09:55:04Z</time></trkpt><trkpt lat="40.75024737106282" lon="9.640645554067683"><ele>88.0</ele><time>2026-04-25T09:55:05Z</time></trkpt><trkpt lat="40.75013067980907" lon="9.640619867402593"><ele>88.0</ele><time>2026-04-25T09:55:06Z</time></trkpt><trkpt lat="40.75001420616517" lon="9.64059240818806"><ele>89.5</ele><time>2026-04-25T09:55:07Z</time></trkpt><trkpt lat="40.74989697037844" lon="9.640559841787667"><ele>91.0</ele><time>2026-04-25T09:55:08Z</time></trkpt><trkpt lat="40.74978126369721" lon="9.640522008388372"><ele>92.5</ele><time>2026-04-25T09:55:09Z</time></trkpt><trkpt lat="40.74966645392283" lon="9.640482292614028"><ele>94.0</ele><time>2026-04-25T09:55:10Z</time></trkpt><trkpt lat="40.74954550470318" lon="9.640436293188369"><ele>94.0</ele><time>2026-04-25T09:55:11Z</time></trkpt><trkpt lat="40.749422164638254" lon="9.640381291111318"><ele>94.0</ele><time>2026-04-25T09:55:12Z</time></trkpt><trkpt lat="40.749303783525235" lon="9.640322259153097"><ele>94.0</ele><time>2026-04-25T09:55:13Z</time></trkpt><trkpt lat="40.74918440821331" lon="9.640261369054818"><ele>94.0</ele><time>2026-04-25T09:55:14Z</time></trkpt><trkpt lat="40.749052904019806" lon="9.640194910115959"><ele>95.66666666666666</ele><time>2026-04-25T09:55:15Z</time></trkpt><trkpt lat="40.74889352904938" lon="9.640113732632946"><ele>97.33333333333333</ele><time>2026-04-25T09:55:16Z</time></trkpt><trkpt lat="40.748716631794174" lon="9.64000599653948"><ele>99.0</ele><time>2026-04-25T09:55:17Z</time></trkpt><trkpt lat="40.7485296055301" lon="9.639891732955498"><ele>100.66666666666666</ele><time>2026-04-25T09:55:18Z</time></trkpt><trkpt lat="40.7483367241581" lon="9.639765839895109"><ele>102.33333333333333</ele><time>2026-04-25T09:55:19Z</time></trkpt><trkpt lat="40.748130619744956" lon="9.639631747077145"><ele>104.0</ele><time>2026-04-25T09:55:20Z</time></trkpt><trkpt lat="40.747918236395726" lon="9.639498659830934"><ele>102.0</ele><time>2026-04-25T09:55:21Z</time></trkpt><trkpt lat="40.74770480523339" lon="9.639366180504798"><ele>100.0</ele><time>2026-04-25T09:55:22Z</time></trkpt><trkpt lat="40.747508439657416" lon="9.639247140285816"><ele>100.0</ele><time>2026-04-25T09:55:23Z</time></trkpt><trkpt lat="40.7473208368412" lon="9.639134950245781"><ele>100.0</ele><time>2026-04-25T09:55:24Z</time></trkpt><trkpt lat="40.74713045978233" lon="9.63902608228707"><ele>100.0</ele><time>2026-04-25T09:55:25Z</time></trkpt><trkpt lat="40.746934098076295" lon="9.638926794094905"><ele>98.0</ele><time>2026-04-25T09:55:26Z</time></trkpt><trkpt lat="40.746738644816" lon="9.638846905032898"><ele>96.0</ele><time>2026-04-25T09:55:27Z</time></trkpt><trkpt lat="40.74653594799243" lon="9.638778218914686"><ele>94.0</ele><time>2026-04-25T09:55:28Z</time></trkpt><trkpt lat="40.74631894289975" lon="9.638720870688797"><ele>94.0</ele><time>2026-04-25T09:55:29Z</time></trkpt><trkpt lat="40.746092061254195" lon="9.638674763596729"><ele>94.0</ele><time>2026-04-25T09:55:30Z</time></trkpt><trkpt lat="40.74587601922626" lon="9.63864495004347"><ele>94.0</ele><time>2026-04-25T09:55:31Z</time></trkpt><trkpt lat="40.745665769176476" lon="9.63863415962821"><ele>95.33333333333333</ele><time>2026-04-25T09:55:32Z</time></trkpt><trkpt lat="40.74545273921921" lon="9.638634987240055"><ele>96.66666666666666</ele><time>2026-04-25T09:55:33Z</time></trkpt><trkpt lat="40.745231683566445" lon="9.638650906440121"><ele>98.0</ele><time>2026-04-25T09:55:34Z</time></trkpt><trkpt lat="40.74500879812787" lon="9.63867447538201"><ele>101.0</ele><time>2026-04-25T09:55:35Z</time></trkpt><trkpt lat="40.74477801241434" lon="9.63871701296631"><ele>104.0</ele><time>2026-04-25T09:55:36Z</time></trkpt><trkpt lat="40.7445330375775" lon="9.638772090564624"><ele>103.0</ele><time>2026-04-25T09:55:37Z</time></trkpt><trkpt lat="40.74429437573924" lon="9.63885685391987"><ele>102.0</ele><time>2026-04-25T09:55:38Z</time></trkpt><trkpt lat="40.744048051792255" lon="9.638955023834363"><ele>102.0</ele><time>2026-04-25T09:55:39Z</time></trkpt><trkpt lat="40.74380834719701" lon="9.63906849040919"><ele>102.0</ele><time>2026-04-25T09:55:40Z</time></trkpt><trkpt lat="40.74358688391071" lon="9.639192990205112"><ele>100.33333333333334</ele><time>2026-04-25T09:55:41Z</time></trkpt><trkpt lat="40.74338203803173" lon="9.63932898265312"><ele>98.66666666666667</ele><time>2026-04-25T09:55:42Z</time></trkpt><trkpt lat="40.743199979773564" lon="9.639471703430162"><ele>97.0</ele><time>2026-04-25T09:55:43Z</time></trkpt><trkpt lat="40.743025529254645" lon="9.6396151814786"><ele>96.66666666666667</ele><time>2026-04-25T09:55:44Z</time></trkpt><trkpt lat="40.742859522070525" lon="9.63976417504148"><ele>96.33333333333334</ele><time>2026-04-25T09:55:45Z</time></trkpt><trkpt lat="40.74269577400255" lon="9.639918398840457"><ele>96.0</ele><time>2026-04-25T09:55:46Z</time></trkpt><trkpt lat="40.74253974825451" lon="9.64008104107759"><ele>96.0</ele><time>2026-04-25T09:55:47Z</time></trkpt><trkpt lat="40.742391280691976" lon="9.640251611515705"><ele>96.0</ele><time>2026-04-25T09:55:48Z</time></trkpt><trkpt lat="40.74224455119268" lon="9.640428116170307"><ele>96.0</ele><time>2026-04-25T09:55:49Z</time></trkpt><trkpt lat="40.7420966868377" lon="9.640605115234424"><ele>95.33333333333333</ele><time>2026-04-25T09:55:50Z</time></trkpt><trkpt lat="40.741949910148946" lon="9.640781908340907"><ele>94.66666666666666</ele><time>2026-04-25T09:55:51Z</time></trkpt><trkpt lat="40.74180199549334" lon="9.640960202681013"><ele>94.0</ele><time>2026-04-25T09:55:52Z</time></trkpt><trkpt lat="40.741652412560356" lon="9.64113602231315"><ele>98.33333333333333</ele><time>2026-04-25T09:55:53Z</time></trkpt><trkpt lat="40.74150820119272" lon="9.641305188541034"><ele>102.66666666666666</ele><time>2026-04-25T09:55:54Z</time></trkpt><trkpt lat="40.741369734571315" lon="9.641467513396247"><ele>107.0</ele><time>2026-04-25T09:55:55Z</time></trkpt><trkpt lat="40.74123262324163" lon="9.641624102050212"><ele>107.0</ele><time>2026-04-25T09:55:56Z</time></trkpt><trkpt lat="40.741093613695696" lon="9.64178373431054"><ele>107.0</ele><time>2026-04-25T09:55:57Z</time></trkpt><trkpt lat="40.74095070127319" lon="9.641945372135163"><ele>107.0</ele><time>2026-04-25T09:55:58.013Z</time></trkpt><trkpt lat="40.74080545282362" lon="9.642107112548189"><ele>122.0</ele><time>2026-04-25T09:55:59.023Z</time></trkpt><trkpt lat="40.740658968943634" lon="9.642259746759091"><ele>137.0</ele><time>2026-04-25T09:56:00.022Z</time></trkpt><trkpt lat="40.740516473212175" lon="9.64241881691712"><ele>152.0</ele><time>2026-04-25T09:56:01.016Z</time></trkpt><trkpt lat="40.74036024284082" lon="9.642552448694897"><ele>152.0</ele><time>2026-04-25T09:56:02.023Z</time></trkpt><trkpt lat="40.74022616940012" lon="9.642718951004817"><ele>152.0</ele><time>2026-04-25T09:56:03.02Z</time></trkpt><trkpt lat="40.74007872293047" lon="9.642889488584508"><ele>152.0</ele><time>2026-04-25T09:56:04.023Z</time></trkpt><trkpt lat="40.73993616107522" lon="9.643054376444415"><ele>149.66666666666666</ele><time>2026-04-25T09:56:05.017Z</time></trkpt><trkpt lat="40.73979031125864" lon="9.64322360049767"><ele>147.33333333333334</ele><time>2026-04-25T09:56:06.016Z</time></trkpt><trkpt lat="40.739646668366156" lon="9.64339137035694"><ele>145.0</ele><time>2026-04-25T09:56:07.022Z</time></trkpt><trkpt lat="40.739039406218325" lon="9.644190883272927"><ele>129.0</ele><time>2026-04-25T09:56:10Z</time></trkpt><trkpt lat="40.73888020429068" lon="9.64437595843389"><ele>113.0</ele><time>2026-04-25T09:56:11Z</time></trkpt><trkpt lat="40.738701500595376" lon="9.644587634825728"><ele>112.5</ele><time>2026-04-25T09:56:12Z</time></trkpt><trkpt lat="40.738528876299895" lon="9.644794421924193"><ele>112.0</ele><time>2026-04-25T09:56:13Z</time></trkpt><trkpt lat="40.73834749417111" lon="9.64501999909968"><ele>112.0</ele><time>2026-04-25T09:56:14Z</time></trkpt><trkpt lat="40.738160030774274" lon="9.645260006000006"><ele>112.0</ele><time>2026-04-25T09:56:15Z</time></trkpt><trkpt lat="40.737962068652934" lon="9.64551107607844"><ele>109.5</ele><time>2026-04-25T09:56:16Z</time></trkpt><trkpt lat="40.737771183714834" lon="9.645763070082097"><ele>107.0</ele><time>2026-04-25T09:56:17Z</time></trkpt><trkpt lat="40.737577166266036" lon="9.646009634479906"><ele>104.5</ele><time>2026-04-25T09:56:18Z</time></trkpt><trkpt lat="40.737381587912424" lon="9.646252271289548"><ele>102.0</ele><time>2026-04-25T09:56:19Z</time></trkpt><trkpt lat="40.737195594836805" lon="9.646479694032077"><ele>102.0</ele><time>2026-04-25T09:56:20Z</time></trkpt><trkpt lat="40.73702430935177" lon="9.646681567108258"><ele>102.0</ele><time>2026-04-25T09:56:21Z</time></trkpt><trkpt lat="40.736826456509895" lon="9.646913918393164"><ele>103.0</ele><time>2026-04-25T09:56:22Z</time></trkpt><trkpt lat="40.73664469306735" lon="9.647119399867051"><ele>104.0</ele><time>2026-04-25T09:56:23Z</time></trkpt><trkpt lat="40.736462517866606" lon="9.647322771740798"><ele>104.0</ele><time>2026-04-25T09:56:24Z</time></trkpt><trkpt lat="40.73627915017666" lon="9.647520082876163"><ele>104.0</ele><time>2026-04-25T09:56:25Z</time></trkpt><trkpt lat="40.73608761083764" lon="9.64771194429516"><ele>105.0</ele><time>2026-04-25T09:56:26Z</time></trkpt><trkpt lat="40.735888402422056" lon="9.647896984644875"><ele>106.0</ele><time>2026-04-25T09:56:27Z</time></trkpt><trkpt lat="40.73568610946193" lon="9.648073883782786"><ele>106.0</ele><time>2026-04-25T09:56:28Z</time></trkpt><trkpt lat="40.735480050214385" lon="9.648242155201917"><ele>106.0</ele><time>2026-04-25T09:56:29Z</time></trkpt><trkpt lat="40.73526031404653" lon="9.64841152671257"><ele>104.5</ele><time>2026-04-25T09:56:30Z</time></trkpt><trkpt lat="40.73503069169709" lon="9.648570344332883"><ele>103.0</ele><time>2026-04-25T09:56:31Z</time></trkpt><trkpt lat="40.73479649729778" lon="9.64872484850067"><ele>103.0</ele><time>2026-04-25T09:56:32Z</time></trkpt><trkpt lat="40.734559519073244" lon="9.6488640948484"><ele>103.0</ele><time>2026-04-25T09:56:33Z</time></trkpt><trkpt lat="40.7343166977285" lon="9.649003573724496"><ele>97.0</ele><time>2026-04-25T09:56:34Z</time></trkpt><trkpt lat="40.7340806604088" lon="9.64912306151497"><ele>91.0</ele><time>2026-04-25T09:56:35Z</time></trkpt><trkpt lat="40.733850533139176" lon="9.649225709927666"><ele>91.0</ele><time>2026-04-25T09:56:36Z</time></trkpt><trkpt lat="40.7336255209389" lon="9.649318175265945"><ele>91.0</ele><time>2026-04-25T09:56:37Z</time></trkpt><trkpt lat="40.733397568803504" lon="9.649402139494219"><ele>88.0</ele><time>2026-04-25T09:56:38Z</time></trkpt><trkpt lat="40.73316936710062" lon="9.649477251269378"><ele>85.0</ele><time>2026-04-25T09:56:39Z</time></trkpt><trkpt lat="40.732941346281095" lon="9.649538962937845"><ele>84.0</ele><time>2026-04-25T09:56:40Z</time></trkpt><trkpt lat="40.73270896660586" lon="9.649593531026564"><ele>83.0</ele><time>2026-04-25T09:56:41Z</time></trkpt><trkpt lat="40.732469099341465" lon="9.649636099770332"><ele>83.0</ele><time>2026-04-25T09:56:42Z</time></trkpt><trkpt lat="40.73222407073852" lon="9.649679061081937"><ele>83.0</ele><time>2026-04-25T09:56:43Z</time></trkpt><trkpt lat="40.731983146955734" lon="9.64972539402243"><ele>83.5</ele><time>2026-04-25T09:56:44Z</time></trkpt><trkpt lat="40.73175203015338" lon="9.649775304445706"><ele>84.0</ele><time>2026-04-25T09:56:45Z</time></trkpt><trkpt lat="40.73152761060275" lon="9.649836496540473"><ele>84.0</ele><time>2026-04-25T09:56:46Z</time></trkpt><trkpt lat="40.73130434708617" lon="9.649906553468753"><ele>84.0</ele><time>2026-04-25T09:56:47Z</time></trkpt><trkpt lat="40.73108058494225" lon="9.649985568848928"><ele>78.0</ele><time>2026-04-25T09:56:48Z</time></trkpt><trkpt lat="40.73085600012355" lon="9.650078898826237"><ele>72.0</ele><time>2026-04-25T09:56:49Z</time></trkpt><trkpt lat="40.730632905892456" lon="9.65018151505998"><ele>72.5</ele><time>2026-04-25T09:56:50Z</time></trkpt><trkpt lat="40.73040535224529" lon="9.650298140588639"><ele>73.0</ele><time>2026-04-25T09:56:51Z</time></trkpt><trkpt lat="40.73017952759902" lon="9.650425233853847"><ele>70.5</ele><time>2026-04-25T09:56:52Z</time></trkpt><trkpt lat="40.72995105686193" lon="9.650567628513015"><ele>68.0</ele><time>2026-04-25T09:56:53Z</time></trkpt><trkpt lat="40.72972635035276" lon="9.650721365869265"><ele>68.0</ele><time>2026-04-25T09:56:54Z</time></trkpt><trkpt lat="40.7294946647041" lon="9.650889475159763"><ele>68.0</ele><time>2026-04-25T09:56:55Z</time></trkpt><trkpt lat="40.729263538620955" lon="9.651073511195763"><ele>69.5</ele><time>2026-04-25T09:56:56Z</time></trkpt><trkpt lat="40.72903324445789" lon="9.651275202064683"><ele>71.0</ele><time>2026-04-25T09:56:57Z</time></trkpt><trkpt lat="40.72880856705009" lon="9.65149203048148"><ele>71.0</ele><time>2026-04-25T09:56:58Z</time></trkpt><trkpt lat="40.728585174669064" lon="9.65172239851442"><ele>71.0</ele><time>2026-04-25T09:56:59Z</time></trkpt><trkpt lat="40.72836804936573" lon="9.651962455184677"><ele>72.5</ele><time>2026-04-25T09:57:00Z</time></trkpt><trkpt lat="40.72815577545738" lon="9.652220066201837"><ele>74.0</ele><time>2026-04-25T09:57:01Z</time></trkpt><trkpt lat="40.727949487930665" lon="9.652485824457147"><ele>74.0</ele><time>2026-04-25T09:57:02Z</time></trkpt><trkpt lat="40.727766878665165" lon="9.65274657439848"><ele>74.0</ele><time>2026-04-25T09:57:03Z</time></trkpt><trkpt lat="40.72760050245355" lon="9.652999940520095"><ele>77.0</ele><time>2026-04-25T09:57:04Z</time></trkpt><trkpt lat="40.727446263710945" lon="9.653254905848126"><ele>80.0</ele><time>2026-04-25T09:57:05Z</time></trkpt><trkpt lat="40.72730236272329" lon="9.65350986366494"><ele>78.5</ele><time>2026-04-25T09:57:06Z</time></trkpt><trkpt lat="40.72717078087236" lon="9.653765847060264"><ele>77.0</ele><time>2026-04-25T09:57:07Z</time></trkpt><trkpt lat="40.72704930304521" lon="9.654023408817464"><ele>77.0</ele><time>2026-04-25T09:57:08Z</time></trkpt><trkpt lat="40.72693417188066" lon="9.654275182956978"><ele>77.0</ele><time>2026-04-25T09:57:09Z</time></trkpt><trkpt lat="40.72682130224819" lon="9.654518853579331"><ele>77.0</ele><time>2026-04-25T09:57:10Z</time></trkpt><trkpt lat="40.72671551863099" lon="9.654764569847249"><ele>86.0</ele><time>2026-04-25T09:57:11Z</time></trkpt><trkpt lat="40.72660646876092" lon="9.655017075852642"><ele>95.0</ele><time>2026-04-25T09:57:12Z</time></trkpt><trkpt lat="40.7264985476092" lon="9.655276114339568"><ele>104.0</ele><time>2026-04-25T09:57:13.017Z</time></trkpt><trkpt lat="40.72638807707571" lon="9.655530125926715"><ele>106.66666666666666</ele><time>2026-04-25T09:57:14.014Z</time></trkpt><trkpt lat="40.72627620727439" lon="9.655785542366246"><ele>109.33333333333334</ele><time>2026-04-25T09:57:15.019Z</time></trkpt><trkpt lat="40.72616351646734" lon="9.656043753785152"><ele>112.0</ele><time>2026-04-25T09:57:16.02Z</time></trkpt><trkpt lat="40.72605026252283" lon="9.65630475452222"><ele>92.0</ele><time>2026-04-25T09:57:17.021Z</time></trkpt><trkpt lat="40.72593832867927" lon="9.656564911488633"><ele>72.0</ele><time>2026-04-25T09:57:18.018Z</time></trkpt><trkpt lat="40.723985005208036" lon="9.660623772078809"><ele>72.0</ele><time>2026-04-25T09:57:30Z</time></trkpt><trkpt lat="40.723841170912316" lon="9.660918311675196"><ele>72.0</ele><time>2026-04-25T09:57:31Z</time></trkpt><trkpt lat="40.72365944577888" lon="9.661221214114425"><ele>78.0</ele><time>2026-04-25T09:57:32Z</time></trkpt><trkpt lat="40.72352759988595" lon="9.661499207617815"><ele>84.0</ele><time>2026-04-25T09:57:33Z</time></trkpt><trkpt lat="40.72338396530848" lon="9.661770798578273"><ele>77.5</ele><time>2026-04-25T09:57:34Z</time></trkpt><trkpt lat="40.72324030262617" lon="9.662038179989505"><ele>71.0</ele><time>2026-04-25T09:57:35Z</time></trkpt><trkpt lat="40.723094842038805" lon="9.662292454961804"><ele>71.0</ele><time>2026-04-25T09:57:36Z</time></trkpt><trkpt lat="40.72294283000612" lon="9.662544499391444"><ele>71.0</ele><time>2026-04-25T09:57:37Z</time></trkpt><trkpt lat="40.72278686609823" lon="9.66278724960754"><ele>69.5</ele><time>2026-04-25T09:57:38Z</time></trkpt><trkpt lat="40.72262343773604" lon="9.663020203243708"><ele>68.0</ele><time>2026-04-25T09:57:39Z</time></trkpt><trkpt lat="40.722454321958786" lon="9.663234614795321"><ele>68.0</ele><time>2026-04-25T09:57:40Z</time></trkpt><trkpt lat="40.72227980093642" lon="9.663448018903033"><ele>68.0</ele><time>2026-04-25T09:57:41Z</time></trkpt><trkpt lat="40.72207930650797" lon="9.663702461494305"><ele>67.5</ele><time>2026-04-25T09:57:42Z</time></trkpt><trkpt lat="40.721889256213395" lon="9.66393811604339"><ele>67.0</ele><time>2026-04-25T09:57:43Z</time></trkpt><trkpt lat="40.721697117565974" lon="9.664190363927817"><ele>61.0</ele><time>2026-04-25T09:57:44Z</time></trkpt><trkpt lat="40.721511403498454" lon="9.664453644760881"><ele>55.0</ele><time>2026-04-25T09:57:45Z</time></trkpt><trkpt lat="40.7213300058349" lon="9.664732436788297"><ele>55.0</ele><time>2026-04-25T09:57:46Z</time></trkpt><trkpt lat="40.721155991314404" lon="9.66502288758141"><ele>55.0</ele><time>2026-04-25T09:57:47Z</time></trkpt><trkpt lat="40.72099614096736" lon="9.6653037885813"><ele>59.0</ele><time>2026-04-25T09:57:48Z</time></trkpt><trkpt lat="40.720843163152686" lon="9.665586667673367"><ele>63.0</ele><time>2026-04-25T09:57:49Z</time></trkpt><trkpt lat="40.7207067036572" lon="9.665861302368768"><ele>56.5</ele><time>2026-04-25T09:57:50Z</time></trkpt><trkpt lat="40.720582549153164" lon="9.66612932342692"><ele>50.0</ele><time>2026-04-25T09:57:51Z</time></trkpt><trkpt lat="40.720457928081224" lon="9.666400913812556"><ele>50.0</ele><time>2026-04-25T09:57:52Z</time></trkpt><trkpt lat="40.72033418351743" lon="9.666675244196638"><ele>50.0</ele><time>2026-04-25T09:57:53Z</time></trkpt><trkpt lat="40.72021082484859" lon="9.666953392992028"><ele>49.0</ele><time>2026-04-25T09:57:54Z</time></trkpt><trkpt lat="40.72008722386519" lon="9.667231258394107"><ele>48.0</ele><time>2026-04-25T09:57:55Z</time></trkpt><trkpt lat="40.71996391077303" lon="9.667503991900533"><ele>48.0</ele><time>2026-04-25T09:57:56Z</time></trkpt><trkpt lat="40.719844565897354" lon="9.667774911787307"><ele>48.0</ele><time>2026-04-25T09:57:57Z</time></trkpt><trkpt lat="40.71972520417921" lon="9.668046903716247"><ele>46.0</ele><time>2026-04-25T09:57:58Z</time></trkpt><trkpt lat="40.719606832658386" lon="9.668314453254935"><ele>44.0</ele><time>2026-04-25T09:57:59Z</time></trkpt><trkpt lat="40.71948799605" lon="9.668583345426407"><ele>48.0</ele><time>2026-04-25T09:58:00Z</time></trkpt><trkpt lat="40.71936557037434" lon="9.668862271425505"><ele>52.0</ele><time>2026-04-25T09:58:01Z</time></trkpt><trkpt lat="40.7192374559076" lon="9.669157759248002"><ele>50.5</ele><time>2026-04-25T09:58:02Z</time></trkpt><trkpt lat="40.71910761153376" lon="9.669464893487234"><ele>49.0</ele><time>2026-04-25T09:58:03Z</time></trkpt><trkpt lat="40.71898064223641" lon="9.66977919564004"><ele>49.0</ele><time>2026-04-25T09:58:04Z</time></trkpt><trkpt lat="40.7188637928168" lon="9.670094159587151"><ele>49.0</ele><time>2026-04-25T09:58:05Z</time></trkpt><trkpt lat="40.71875611922281" lon="9.670419651741184"><ele>45.0</ele><time>2026-04-25T09:58:06Z</time></trkpt><trkpt lat="40.71865504254749" lon="9.670759717739111"><ele>41.0</ele><time>2026-04-25T09:58:07Z</time></trkpt><trkpt lat="40.7185594973122" lon="9.671104863564866"><ele>44.5</ele><time>2026-04-25T09:58:08Z</time></trkpt><trkpt lat="40.71846590402323" lon="9.671448915110197"><ele>48.0</ele><time>2026-04-25T09:58:09Z</time></trkpt><trkpt lat="40.71836803918347" lon="9.671796050027694"><ele>44.0</ele><time>2026-04-25T09:58:10Z</time></trkpt><trkpt lat="40.71826398795417" lon="9.672137585268832"><ele>40.0</ele><time>2026-04-25T09:58:11Z</time></trkpt><trkpt lat="40.718150069468116" lon="9.672467026523194"><ele>36.5</ele><time>2026-04-25T09:58:12Z</time></trkpt><trkpt lat="40.718025754910755" lon="9.672780834966378"><ele>33.0</ele><time>2026-04-25T09:58:13Z</time></trkpt><trkpt lat="40.7178909572257" lon="9.673098765855869"><ele>33.0</ele><time>2026-04-25T09:58:14Z</time></trkpt><trkpt lat="40.71774964720012" lon="9.67341882184492"><ele>33.0</ele><time>2026-04-25T09:58:15Z</time></trkpt><trkpt lat="40.7176018344982" lon="9.673743278854548"><ele>37.0</ele><time>2026-04-25T09:58:16Z</time></trkpt><trkpt lat="40.71746305830976" lon="9.67404434452687"><ele>41.0</ele><time>2026-04-25T09:58:17Z</time></trkpt><trkpt lat="40.717327586657326" lon="9.674340644114631"><ele>37.5</ele><time>2026-04-25T09:58:18Z</time></trkpt><trkpt lat="40.71720115087054" lon="9.67463300905004"><ele>34.0</ele><time>2026-04-25T09:58:19Z</time></trkpt><trkpt lat="40.717082803501064" lon="9.674927228157898"><ele>34.0</ele><time>2026-04-25T09:58:20Z</time></trkpt><trkpt lat="40.716971838165286" lon="9.675226437501488"><ele>34.0</ele><time>2026-04-25T09:58:21Z</time></trkpt><trkpt lat="40.71686699881444" lon="9.67552890470637"><ele>33.5</ele><time>2026-04-25T09:58:22Z</time></trkpt><trkpt lat="40.7167709164831" lon="9.675834813249189"><ele>33.0</ele><time>2026-04-25T09:58:23Z</time></trkpt><trkpt lat="40.7166787681903" lon="9.676150074035931"><ele>31.0</ele><time>2026-04-25T09:58:24Z</time></trkpt><trkpt lat="40.7165869229953" lon="9.676478759234744"><ele>29.0</ele><time>2026-04-25T09:58:25Z</time></trkpt><trkpt lat="40.71649599726768" lon="9.676811961021567"><ele>28.5</ele><time>2026-04-25T09:58:26Z</time></trkpt><trkpt lat="40.716403951104304" lon="9.677138663709085"><ele>28.0</ele><time>2026-04-25T09:58:27Z</time></trkpt><trkpt lat="40.71631016623284" lon="9.677454669102643"><ele>26.5</ele><time>2026-04-25T09:58:28Z</time></trkpt><trkpt lat="40.71620801796683" lon="9.677771509502763"><ele>25.0</ele><time>2026-04-25T09:58:29Z</time></trkpt><trkpt lat="40.7160980510932" lon="9.678095154533434"><ele>25.5</ele><time>2026-04-25T09:58:30Z</time></trkpt><trkpt lat="40.715982531203586" lon="9.678408146890838"><ele>26.0</ele><time>2026-04-25T09:58:31Z</time></trkpt><trkpt lat="40.71586221815299" lon="9.678704959573574"><ele>26.0</ele><time>2026-04-25T09:58:32Z</time></trkpt><trkpt lat="40.715738322288914" lon="9.678992602976024"><ele>26.0</ele><time>2026-04-25T09:58:33Z</time></trkpt><trkpt lat="40.715610941264565" lon="9.679269607370749"><ele>26.0</ele><time>2026-04-25T09:58:34Z</time></trkpt><trkpt lat="40.71547970814911" lon="9.67954340097513"><ele>26.0</ele><time>2026-04-25T09:58:35Z</time></trkpt><trkpt lat="40.71534041944081" lon="9.679809943941928"><ele>27.0</ele><time>2026-04-25T09:58:36Z</time></trkpt><trkpt lat="40.71519523445351" lon="9.680068843700957"><ele>28.0</ele><time>2026-04-25T09:58:37Z</time></trkpt><trkpt lat="40.71503939736716" lon="9.680326138769772"><ele>28.0</ele><time>2026-04-25T09:58:38Z</time></trkpt><trkpt lat="40.714877995886084" lon="9.680576011411985"><ele>28.0</ele><time>2026-04-25T09:58:39Z</time></trkpt><trkpt lat="40.714713993300656" lon="9.68081924172049"><ele>28.0</ele><time>2026-04-25T09:58:40Z</time></trkpt><trkpt lat="40.71455034960873" lon="9.68107379149883"><ele>28.0</ele><time>2026-04-25T09:58:41Z</time></trkpt><trkpt lat="40.71436312815894" lon="9.681316279661138"><ele>27.0</ele><time>2026-04-25T09:58:42Z</time></trkpt><trkpt lat="40.71417423974072" lon="9.681575864303076"><ele>26.0</ele><time>2026-04-25T09:58:43Z</time></trkpt><trkpt lat="40.71397883120328" lon="9.681837881823027"><ele>24.5</ele><time>2026-04-25T09:58:44Z</time></trkpt><trkpt lat="40.71377547491121" lon="9.682100901368832"><ele>23.0</ele><time>2026-04-25T09:58:45Z</time></trkpt><trkpt lat="40.7135629697886" lon="9.682364204503713"><ele>23.0</ele><time>2026-04-25T09:58:46Z</time></trkpt><trkpt lat="40.71334686396722" lon="9.682631977819616"><ele>23.0</ele><time>2026-04-25T09:58:47Z</time></trkpt><trkpt lat="40.713132510680424" lon="9.682909784506661"><ele>22.5</ele><time>2026-04-25T09:58:48Z</time></trkpt><trkpt lat="40.71292620980508" lon="9.68319880384263"><ele>22.0</ele><time>2026-04-25T09:58:49Z</time></trkpt><trkpt lat="40.7127210940856" lon="9.683498904068333"><ele>20.5</ele><time>2026-04-25T09:58:50Z</time></trkpt><trkpt lat="40.71253503432312" lon="9.683798375066456"><ele>19.0</ele><time>2026-04-25T09:58:51Z</time></trkpt><trkpt lat="40.71236137715865" lon="9.684110288764664"><ele>18.5</ele><time>2026-04-25T09:58:52Z</time></trkpt><trkpt lat="40.71219269770834" lon="9.684439197392361"><ele>18.0</ele><time>2026-04-25T09:58:53Z</time></trkpt><trkpt lat="40.7120359995567" lon="9.684774575668692"><ele>18.0</ele><time>2026-04-25T09:58:54Z</time></trkpt><trkpt lat="40.71189033836062" lon="9.685117504632816"><ele>18.0</ele><time>2026-04-25T09:58:55Z</time></trkpt><trkpt lat="40.71175231036911" lon="9.685466604321455"><ele>18.0</ele><time>2026-04-25T09:58:56Z</time></trkpt><trkpt lat="40.711622795412126" lon="9.685819178982348"><ele>18.0</ele><time>2026-04-25T09:58:57Z</time></trkpt><trkpt lat="40.711503305955056" lon="9.686172170728389"><ele>17.5</ele><time>2026-04-25T09:58:58Z</time></trkpt><trkpt lat="40.711394124692355" lon="9.686527517408658"><ele>17.0</ele><time>2026-04-25T09:58:59Z</time></trkpt><trkpt lat="40.711301674404645" lon="9.686870032273655"><ele>17.0</ele><time>2026-04-25T09:59:00Z</time></trkpt><trkpt lat="40.71121993767515" lon="9.68721054074748"><ele>17.0</ele><time>2026-04-25T09:59:01Z</time></trkpt><trkpt lat="40.71115112417911" lon="9.687551117936389"><ele>16.0</ele><time>2026-04-25T09:59:02Z</time></trkpt><trkpt lat="40.71109681900604" lon="9.687899231992471"><ele>15.0</ele><time>2026-04-25T09:59:03Z</time></trkpt><trkpt lat="40.71104967017942" lon="9.688262479821486"><ele>18.5</ele><time>2026-04-25T09:59:04Z</time></trkpt><trkpt lat="40.710996183422985" lon="9.68863068791126"><ele>22.0</ele><time>2026-04-25T09:59:05Z</time></trkpt><trkpt lat="40.71093122015304" lon="9.688996996511792"><ele>22.0</ele><time>2026-04-25T09:59:06Z</time></trkpt><trkpt lat="40.71085674687397" lon="9.689364235349435"><ele>22.0</ele><time>2026-04-25T09:59:07Z</time></trkpt><trkpt lat="40.7107727099164" lon="9.689731401763677"><ele>21.0</ele><time>2026-04-25T09:59:08Z</time></trkpt><trkpt lat="40.7106821340388" lon="9.69009304839226"><ele>20.0</ele><time>2026-04-25T09:59:09Z</time></trkpt><trkpt lat="40.71058628005873" lon="9.690445346237606"><ele>19.0</ele><time>2026-04-25T09:59:10Z</time></trkpt><trkpt lat="40.710483755115554" lon="9.690781265028118"><ele>18.0</ele><time>2026-04-25T09:59:11Z</time></trkpt><trkpt lat="40.710378198393386" lon="9.691102202384904"><ele>19.0</ele><time>2026-04-25T09:59:12Z</time></trkpt><trkpt lat="40.71026452933454" lon="9.691417369730312"><ele>20.0</ele><time>2026-04-25T09:59:13Z</time></trkpt><trkpt lat="40.71013542705861" lon="9.691736911173104"><ele>19.5</ele><time>2026-04-25T09:59:14Z</time></trkpt><trkpt lat="40.709982426336126" lon="9.692051220180122"><ele>19.0</ele><time>2026-04-25T09:59:15Z</time></trkpt><trkpt lat="40.70980872025896" lon="9.69234989343218"><ele>19.0</ele><time>2026-04-25T09:59:16Z</time></trkpt><trkpt lat="40.709615814538616" lon="9.692635806149283"><ele>19.0</ele><time>2026-04-25T09:59:17Z</time></trkpt><trkpt lat="40.70940823321346" lon="9.692900567594908"><ele>24.5</ele><time>2026-04-25T09:59:18Z</time></trkpt><trkpt lat="40.70918946276275" lon="9.693154386082409"><ele>30.0</ele><time>2026-04-25T09:59:19Z</time></trkpt><trkpt lat="40.70896682440476" lon="9.69339711601573"><ele>30.0</ele><time>2026-04-25T09:59:20Z</time></trkpt><trkpt lat="40.708745490996115" lon="9.69362232142636"><ele>30.0</ele><time>2026-04-25T09:59:21Z</time></trkpt><trkpt lat="40.70852166701423" lon="9.693828973363486"><ele>30.0</ele><time>2026-04-25T09:59:22Z</time></trkpt><trkpt lat="40.7082942760177" lon="9.694015434181441"><ele>30.0</ele><time>2026-04-25T09:59:23Z</time></trkpt><trkpt lat="40.7080570878705" lon="9.69418689031856"><ele>30.0</ele><time>2026-04-25T09:59:24Z</time></trkpt><trkpt lat="40.70782058770384" lon="9.69433663339959"><ele>30.0</ele><time>2026-04-25T09:59:25Z</time></trkpt><trkpt lat="40.707573369596126" lon="9.694477800026121"><ele>25.5</ele><time>2026-04-25T09:59:26Z</time></trkpt><trkpt lat="40.70732430334215" lon="9.694595335217679"><ele>21.0</ele><time>2026-04-25T09:59:27Z</time></trkpt><trkpt lat="40.70707003648927" lon="9.694703058890314"><ele>20.5</ele><time>2026-04-25T09:59:28Z</time></trkpt><trkpt lat="40.70681082120162" lon="9.694794601369727"><ele>20.0</ele><time>2026-04-25T09:59:29Z</time></trkpt><trkpt lat="40.7065391745892" lon="9.694873264880314"><ele>20.0</ele><time>2026-04-25T09:59:30Z</time></trkpt><trkpt lat="40.70625888386651" lon="9.694939717966692"><ele>20.0</ele><time>2026-04-25T09:59:31Z</time></trkpt><trkpt lat="40.70597186617243" lon="9.694999918824218"><ele>19.5</ele><time>2026-04-25T09:59:32Z</time></trkpt><trkpt lat="40.70568199918158" lon="9.695059030374747"><ele>19.0</ele><time>2026-04-25T09:59:33Z</time></trkpt><trkpt lat="40.70539270787559" lon="9.69511967294832"><ele>19.5</ele><time>2026-04-25T09:59:34Z</time></trkpt><trkpt lat="40.70509876160516" lon="9.695180395570542"><ele>20.0</ele><time>2026-04-25T09:59:35Z</time></trkpt><trkpt lat="40.70480436304387" lon="9.695247904156293"><ele>20.0</ele><time>2026-04-25T09:59:36Z</time></trkpt><trkpt lat="40.704524331789806" lon="9.695311279978943"><ele>20.0</ele><time>2026-04-25T09:59:37Z</time></trkpt><trkpt lat="40.70424994073457" lon="9.695387401697483"><ele>20.0</ele><time>2026-04-25T09:59:38Z</time></trkpt><trkpt lat="40.70397345506192" lon="9.695481987197455"><ele>20.0</ele><time>2026-04-25T09:59:39Z</time></trkpt><trkpt lat="40.70369373203995" lon="9.695588929086522"><ele>23.0</ele><time>2026-04-25T09:59:40Z</time></trkpt><trkpt lat="40.70341238461189" lon="9.695708965361629"><ele>26.0</ele><time>2026-04-25T09:59:41Z</time></trkpt><trkpt lat="40.70313191185706" lon="9.695845121063345"><ele>26.0</ele><time>2026-04-25T09:59:42Z</time></trkpt><trkpt lat="40.7028603692515" lon="9.695996455231667"><ele>26.0</ele><time>2026-04-25T09:59:43Z</time></trkpt><trkpt lat="40.70259400484205" lon="9.696163232257147"><ele>27.5</ele><time>2026-04-25T09:59:44Z</time></trkpt><trkpt lat="40.70233458027754" lon="9.696344823025987"><ele>29.0</ele><time>2026-04-25T09:59:45Z</time></trkpt><trkpt lat="40.70208313361275" lon="9.696540980737671"><ele>26.5</ele><time>2026-04-25T09:59:46Z</time></trkpt><trkpt lat="40.70183487052746" lon="9.696750850511595"><ele>24.0</ele><time>2026-04-25T09:59:47Z</time></trkpt><trkpt lat="40.701594592881484" lon="9.696972546713875"><ele>22.5</ele><time>2026-04-25T09:59:48Z</time></trkpt><trkpt lat="40.701360607407246" lon="9.697206918618509"><ele>21.0</ele><time>2026-04-25T09:59:49Z</time></trkpt><trkpt lat="40.70113487062478" lon="9.69745525469186"><ele>20.0</ele><time>2026-04-25T09:59:50Z</time></trkpt><trkpt lat="40.70091382402067" lon="9.697718754191573"><ele>19.0</ele><time>2026-04-25T09:59:51Z</time></trkpt><trkpt lat="40.70070616950951" lon="9.697992356263931"><ele>18.0</ele><time>2026-04-25T09:59:52Z</time></trkpt><trkpt lat="40.700506162413554" lon="9.698275147943523"><ele>17.0</ele><time>2026-04-25T09:59:53Z</time></trkpt><trkpt lat="40.700312195859176" lon="9.698565413795697"><ele>18.0</ele><time>2026-04-25T09:59:54Z</time></trkpt><trkpt lat="40.700129907039155" lon="9.698853553746341"><ele>19.0</ele><time>2026-04-25T09:59:55Z</time></trkpt><trkpt lat="40.69995416069706" lon="9.699144200798141"><ele>18.0</ele><time>2026-04-25T09:59:56Z</time></trkpt><trkpt lat="40.69980254623112" lon="9.699431707568642"><ele>17.0</ele><time>2026-04-25T09:59:57Z</time></trkpt><trkpt lat="40.69966380188421" lon="9.699739477650098"><ele>17.0</ele><time>2026-04-25T09:59:58Z</time></trkpt><trkpt lat="40.69952939911559" lon="9.700068106303936"><ele>17.0</ele><time>2026-04-25T09:59:59Z</time></trkpt><trkpt lat="40.699407380307065" lon="9.700402720729373"><ele>17.5</ele><time>2026-04-25T10:00:00Z</time></trkpt><trkpt lat="40.699288231456734" lon="9.700754260688663"><ele>18.0</ele><time>2026-04-25T10:00:01Z</time></trkpt><trkpt lat="40.69918195476332" lon="9.70110569285442"><ele>16.0</ele><time>2026-04-25T10:00:02Z</time></trkpt><trkpt lat="40.69909278522143" lon="9.70144745860407"><ele>14.0</ele><time>2026-04-25T10:00:03Z</time></trkpt><trkpt lat="40.69901153248349" lon="9.701795822665424"><ele>13.5</ele><time>2026-04-25T10:00:04Z</time></trkpt><trkpt lat="40.69893905761857" lon="9.702145788564742"><ele>13.0</ele><time>2026-04-25T10:00:05Z</time></trkpt><trkpt lat="40.69887464805994" lon="9.7024941610622"><ele>12.5</ele><time>2026-04-25T10:00:06Z</time></trkpt><trkpt lat="40.6988207531277" lon="9.702837861494373"><ele>12.0</ele><time>2026-04-25T10:00:07Z</time></trkpt><trkpt lat="40.6987826037217" lon="9.703181256739459"><ele>12.0</ele><time>2026-04-25T10:00:08Z</time></trkpt><trkpt lat="40.69875556196866" lon="9.703530990505657"><ele>12.0</ele><time>2026-04-25T10:00:09Z</time></trkpt><trkpt lat="40.6987391241363" lon="9.703878039991713"><ele>10.5</ele><time>2026-04-25T10:00:10Z</time></trkpt><trkpt lat="40.69872859306585" lon="9.704224781964399"><ele>9.0</ele><time>2026-04-25T10:00:11Z</time></trkpt><trkpt lat="40.6987222423099" lon="9.704567731169014"><ele>9.0</ele><time>2026-04-25T10:00:12Z</time></trkpt><trkpt lat="40.69872218719247" lon="9.704913260462204"><ele>9.0</ele><time>2026-04-25T10:00:13Z</time></trkpt><trkpt lat="40.69872223595229" lon="9.705265622680837"><ele>8.5</ele><time>2026-04-25T10:00:14Z</time></trkpt><trkpt lat="40.69872255084521" lon="9.70561857567331"><ele>8.0</ele><time>2026-04-25T10:00:15Z</time></trkpt><trkpt lat="40.698720168916786" lon="9.705962481393911"><ele>8.0</ele><time>2026-04-25T10:00:16Z</time></trkpt><trkpt lat="40.69870909611841" lon="9.706306345771935"><ele>8.0</ele><time>2026-04-25T10:00:17Z</time></trkpt><trkpt lat="40.69868697480741" lon="9.706638576500517"><ele>8.0</ele><time>2026-04-25T10:00:18Z</time></trkpt><trkpt lat="40.698650426120416" lon="9.706970549310364"><ele>8.0</ele><time>2026-04-25T10:00:19Z</time></trkpt><trkpt lat="40.69859977112397" lon="9.70729414702959"><ele>10.0</ele><time>2026-04-25T10:00:20Z</time></trkpt><trkpt lat="40.69853915616328" lon="9.70761294553593"><ele>12.0</ele><time>2026-04-25T10:00:21Z</time></trkpt><trkpt lat="40.69846535421528" lon="9.707942063366072"><ele>13.5</ele><time>2026-04-25T10:00:22Z</time></trkpt><trkpt lat="40.69837397278587" lon="9.708279669215415"><ele>15.0</ele><time>2026-04-25T10:00:23Z</time></trkpt><trkpt lat="40.69826925042856" lon="9.70861155297967"><ele>16.0</ele><time>2026-04-25T10:00:24Z</time></trkpt><trkpt lat="40.69814939855761" lon="9.708940391807367"><ele>17.0</ele><time>2026-04-25T10:00:25Z</time></trkpt><trkpt lat="40.69801731716031" lon="9.709261566862983"><ele>17.5</ele><time>2026-04-25T10:00:26Z</time></trkpt><trkpt lat="40.697873713876874" lon="9.70956395312393"><ele>18.0</ele><time>2026-04-25T10:00:27Z</time></trkpt><trkpt lat="40.69772092170262" lon="9.709854697234334"><ele>18.0</ele><time>2026-04-25T10:00:28Z</time></trkpt><trkpt lat="40.697559206141676" lon="9.71012737692678"><ele>18.0</ele><time>2026-04-25T10:00:29Z</time></trkpt><trkpt lat="40.697390434554144" lon="9.710389417665608"><ele>15.5</ele><time>2026-04-25T10:00:30Z</time></trkpt><trkpt lat="40.69722026194877" lon="9.710635508394935"><ele>13.0</ele><time>2026-04-25T10:00:31Z</time></trkpt><trkpt lat="40.69702399629123" lon="9.710874449889754"><ele>11.5</ele><time>2026-04-25T10:00:32Z</time></trkpt><trkpt lat="40.69681854908833" lon="9.711096023516212"><ele>10.0</ele><time>2026-04-25T10:00:33Z</time></trkpt><trkpt lat="40.69660956002572" lon="9.711306724637376"><ele>10.0</ele><time>2026-04-25T10:00:34Z</time></trkpt><trkpt lat="40.69639437391322" lon="9.711495175747233"><ele>10.0</ele><time>2026-04-25T10:00:35Z</time></trkpt><trkpt lat="40.696173301643604" lon="9.71166822455148"><ele>8.5</ele><time>2026-04-25T10:00:36Z</time></trkpt><trkpt lat="40.69594837635084" lon="9.711826039138538"><ele>7.0</ele><time>2026-04-25T10:00:37Z</time></trkpt><trkpt lat="40.69572014282136" lon="9.711969301664455"><ele>5.5</ele><time>2026-04-25T10:00:38Z</time></trkpt><trkpt lat="40.69548907784474" lon="9.712098070637156"><ele>4.0</ele><time>2026-04-25T10:00:39Z</time></trkpt><trkpt lat="40.69525048601992" lon="9.712207473970963"><ele>3.5</ele><time>2026-04-25T10:00:40Z</time></trkpt><trkpt lat="40.69500042544463" lon="9.71230984822825"><ele>3.0</ele><time>2026-04-25T10:00:41Z</time></trkpt><trkpt lat="40.69474566424962" lon="9.712398476637548"><ele>3.0</ele><time>2026-04-25T10:00:42Z</time></trkpt><trkpt lat="40.694488058980504" lon="9.71246893214033"><ele>3.0</ele><time>2026-04-25T10:00:43Z</time></trkpt><trkpt lat="40.69423344855298" lon="9.712516471478862"><ele>4.0</ele><time>2026-04-25T10:00:44Z</time></trkpt><trkpt lat="40.69397101086856" lon="9.712552615871349"><ele>5.0</ele><time>2026-04-25T10:00:45Z</time></trkpt><trkpt lat="40.69370093991917" lon="9.712571241736592"><ele>4.5</ele><time>2026-04-25T10:00:46Z</time></trkpt><trkpt lat="40.693440909013155" lon="9.712588923372287"><ele>4.0</ele><time>2026-04-25T10:00:47Z</time></trkpt><trkpt lat="40.69318257991564" lon="9.712599047615349"><ele>4.0</ele><time>2026-04-25T10:00:48Z</time></trkpt><trkpt lat="40.69293520909401" lon="9.712616244315798"><ele>4.0</ele><time>2026-04-25T10:00:49Z</time></trkpt><trkpt lat="40.69269869988282" lon="9.712649496606858"><ele>4.0</ele><time>2026-04-25T10:00:50Z</time></trkpt><trkpt lat="40.69246520660267" lon="9.712710654518377"><ele>4.0</ele><time>2026-04-25T10:00:51Z</time></trkpt><trkpt lat="40.69223066267493" lon="9.712794638724754"><ele>4.0</ele><time>2026-04-25T10:00:52Z</time></trkpt><trkpt lat="40.69199406570982" lon="9.71290670607094"><ele>4.0</ele><time>2026-04-25T10:00:53Z</time></trkpt><trkpt lat="40.69176439478613" lon="9.713047554408865"><ele>5.0</ele><time>2026-04-25T10:00:54Z</time></trkpt><trkpt lat="40.69153905392801" lon="9.713217672728966"><ele>6.0</ele><time>2026-04-25T10:00:55Z</time></trkpt><trkpt lat="40.69131305347553" lon="9.7134065355463"><ele>5.5</ele><time>2026-04-25T10:00:56Z</time></trkpt><trkpt lat="40.69109923936711" lon="9.713612923056056"><ele>5.0</ele><time>2026-04-25T10:00:57Z</time></trkpt><trkpt lat="40.69089558043635" lon="9.71382021253982"><ele>5.0</ele><time>2026-04-25T10:00:58Z</time></trkpt><trkpt lat="40.69069655366606" lon="9.714021385429598"><ele>5.0</ele><time>2026-04-25T10:00:59Z</time></trkpt><trkpt lat="40.690500080018936" lon="9.71422002751587"><ele>5.0</ele><time>2026-04-25T10:01:00Z</time></trkpt><trkpt lat="40.69030727525149" lon="9.714412369741192"><ele>5.0</ele><time>2026-04-25T10:01:01Z</time></trkpt><trkpt lat="40.69011480005233" lon="9.714599702236534"><ele>5.0</ele><time>2026-04-25T10:01:02Z</time></trkpt><trkpt lat="40.68992549588956" lon="9.714782481662496"><ele>5.0</ele><time>2026-04-25T10:01:03Z</time></trkpt><trkpt lat="40.68973622960856" lon="9.714965545603027"><ele>5.0</ele><time>2026-04-25T10:01:04Z</time></trkpt><trkpt lat="40.689546714862985" lon="9.715147285768076"><ele>5.0</ele><time>2026-04-25T10:01:05Z</time></trkpt><trkpt lat="40.68935660512157" lon="9.715325232149086"><ele>5.0</ele><time>2026-04-25T10:01:06Z</time></trkpt><trkpt lat="40.68916406331885" lon="9.715500491160725"><ele>5.0</ele><time>2026-04-25T10:01:07Z</time></trkpt><trkpt lat="40.68896868246865" lon="9.71567154751245"><ele>5.0</ele><time>2026-04-25T10:01:08Z</time></trkpt><trkpt lat="40.68876755148896" lon="9.71584011105851"><ele>5.0</ele><time>2026-04-25T10:01:09Z</time></trkpt><trkpt lat="40.68855490200123" lon="9.716013367707083"><ele>5.0</ele><time>2026-04-25T10:01:10Z</time></trkpt><trkpt lat="40.68833180616852" lon="9.716185283275472"><ele>5.0</ele><time>2026-04-25T10:01:11Z</time></trkpt><trkpt lat="40.688097634436616" lon="9.716356841647732"><ele>5.0</ele><time>2026-04-25T10:01:12Z</time></trkpt><trkpt lat="40.687858765899065" lon="9.71652318873191"><ele>5.0</ele><time>2026-04-25T10:01:13Z</time></trkpt><trkpt lat="40.68760856171513" lon="9.716678917197115"><ele>5.5</ele><time>2026-04-25T10:01:14Z</time></trkpt><trkpt lat="40.687352192049694" lon="9.71683419254998"><ele>6.0</ele><time>2026-04-25T10:01:15Z</time></trkpt><trkpt lat="40.68709029755612" lon="9.716980572292764"><ele>7.0</ele><time>2026-04-25T10:01:16Z</time></trkpt><trkpt lat="40.68682352738059" lon="9.717119731746298"><ele>8.0</ele><time>2026-04-25T10:01:17Z</time></trkpt><trkpt lat="40.686546908476856" lon="9.717253776851404"><ele>8.0</ele><time>2026-04-25T10:01:18Z</time></trkpt><trkpt lat="40.686278827061464" lon="9.717373194924585"><ele>8.0</ele><time>2026-04-25T10:01:19Z</time></trkpt><trkpt lat="40.68602750399545" lon="9.717474950160478"><ele>8.5</ele><time>2026-04-25T10:01:20Z</time></trkpt><trkpt lat="40.68577884862091" lon="9.71756495435137"><ele>9.0</ele><time>2026-04-25T10:01:21Z</time></trkpt><trkpt lat="40.68552850663872" lon="9.717644992732325"><ele>9.0</ele><time>2026-04-25T10:01:22Z</time></trkpt><trkpt lat="40.685281608633254" lon="9.717718721809616"><ele>9.0</ele><time>2026-04-25T10:01:23Z</time></trkpt><trkpt lat="40.685034167195944" lon="9.717787144774652"><ele>9.5</ele><time>2026-04-25T10:01:24Z</time></trkpt><trkpt lat="40.68479066390713" lon="9.717845941802354"><ele>10.0</ele><time>2026-04-25T10:01:25Z</time></trkpt><trkpt lat="40.68454926848617" lon="9.717897374064806"><ele>10.5</ele><time>2026-04-25T10:01:26Z</time></trkpt><trkpt lat="40.68431347414206" lon="9.717940623621368"><ele>11.0</ele><time>2026-04-25T10:01:27Z</time></trkpt><trkpt lat="40.68407388032116" lon="9.717977873151472"><ele>11.0</ele><time>2026-04-25T10:01:28Z</time></trkpt><trkpt lat="40.68383441721528" lon="9.718007280553788"><ele>11.0</ele><time>2026-04-25T10:01:29Z</time></trkpt><trkpt lat="40.683594469304765" lon="9.718028770366734"><ele>12.0</ele><time>2026-04-25T10:01:30Z</time></trkpt><trkpt lat="40.68335266620303" lon="9.71804439205126"><ele>13.0</ele><time>2026-04-25T10:01:31Z</time></trkpt><trkpt lat="40.683114200378064" lon="9.718053011170857"><ele>13.0</ele><time>2026-04-25T10:01:32Z</time></trkpt><trkpt lat="40.68289062035154" lon="9.718051233318217"><ele>13.0</ele><time>2026-04-25T10:01:33Z</time></trkpt><trkpt lat="40.68266817261355" lon="9.718045998584543"><ele>13.0</ele><time>2026-04-25T10:01:34Z</time></trkpt><trkpt lat="40.68244538714361" lon="9.718034885093616"><ele>14.0</ele><time>2026-04-25T10:01:35Z</time></trkpt><trkpt lat="40.68222312156646" lon="9.71801788589508"><ele>15.0</ele><time>2026-04-25T10:01:36Z</time></trkpt><trkpt lat="40.68199831421123" lon="9.717996727664124"><ele>16.0</ele><time>2026-04-25T10:01:37Z</time></trkpt><trkpt lat="40.68177251974473" lon="9.71796614590283"><ele>18.0</ele><time>2026-04-25T10:01:38Z</time></trkpt><trkpt lat="40.681548335087605" lon="9.717930629659893"><ele>20.0</ele><time>2026-04-25T10:01:39Z</time></trkpt><trkpt lat="40.68132488070097" lon="9.717892176696072"><ele>20.0</ele><time>2026-04-25T10:01:40Z</time></trkpt><trkpt lat="40.681102917574286" lon="9.717848196904171"><ele>20.0</ele><time>2026-04-25T10:01:41Z</time></trkpt><trkpt lat="40.680879500566796" lon="9.717787207455386"><ele>23.666666666666668</ele><time>2026-04-25T10:01:42Z</time></trkpt><trkpt lat="40.6806612579472" lon="9.717716001262874"><ele>27.333333333333336</ele><time>2026-04-25T10:01:43Z</time></trkpt><trkpt lat="40.68044370719112" lon="9.717647052773735"><ele>31.0</ele><time>2026-04-25T10:01:44.014Z</time></trkpt><trkpt lat="40.68022849025573" lon="9.71758528353107"><ele>38.333333333333336</ele><time>2026-04-25T10:01:45.013Z</time></trkpt><trkpt lat="40.68001184528105" lon="9.717518768334907"><ele>45.66666666666667</ele><time>2026-04-25T10:01:46.013Z</time></trkpt><trkpt lat="40.67979608045878" lon="9.717446952177715"><ele>53.0</ele><time>2026-04-25T10:01:47.02Z</time></trkpt><trkpt lat="40.67958072836889" lon="9.717380598565578"><ele>64.66666666666667</ele><time>2026-04-25T10:01:48.014Z</time></trkpt><trkpt lat="40.679368468266425" lon="9.717313189015849"><ele>76.33333333333333</ele><time>2026-04-25T10:01:49.015Z</time></trkpt><trkpt lat="40.67915965042915" lon="9.717244048217237"><ele>88.0</ele><time>2026-04-25T10:01:50.018Z</time></trkpt><trkpt lat="40.678957554024535" lon="9.717154017363956"><ele>88.0</ele><time>2026-04-25T10:01:51.022Z</time></trkpt><trkpt lat="40.67875449565467" lon="9.717052594370777"><ele>88.0</ele><time>2026-04-25T10:01:52.02Z</time></trkpt><trkpt lat="40.66851432439002" lon="9.712645383560762"><ele>57.0</ele><time>2026-04-25T10:02:35Z</time></trkpt><trkpt lat="40.66825535807966" lon="9.712649557454027"><ele>26.0</ele><time>2026-04-25T10:02:36Z</time></trkpt><trkpt lat="40.66792850433099" lon="9.712565166604744"><ele>24.5</ele><time>2026-04-25T10:02:37Z</time></trkpt><trkpt lat="40.66767906047332" lon="9.712616869332294"><ele>23.0</ele><time>2026-04-25T10:02:38Z</time></trkpt><trkpt lat="40.667438720630656" lon="9.712652305230868"><ele>23.0</ele><time>2026-04-25T10:02:39Z</time></trkpt><trkpt lat="40.66720493069867" lon="9.712715106799932"><ele>23.0</ele><time>2026-04-25T10:02:40Z</time></trkpt><trkpt lat="40.66697314787616" lon="9.712779136269182"><ele>21.5</ele><time>2026-04-25T10:02:41Z</time></trkpt><trkpt lat="40.66673617029048" lon="9.712847087087274"><ele>20.0</ele><time>2026-04-25T10:02:42Z</time></trkpt><trkpt lat="40.66650439866007" lon="9.712923207289151"><ele>20.0</ele><time>2026-04-25T10:02:43Z</time></trkpt><trkpt lat="40.66627387918673" lon="9.713015497225307"><ele>20.0</ele><time>2026-04-25T10:02:44Z</time></trkpt><trkpt lat="40.66604440657252" lon="9.71311709461536"><ele>20.5</ele><time>2026-04-25T10:02:45Z</time></trkpt><trkpt lat="40.66581700598266" lon="9.713225556501872"><ele>21.0</ele><time>2026-04-25T10:02:46Z</time></trkpt><trkpt lat="40.6655817571524" lon="9.713353581088978"><ele>21.0</ele><time>2026-04-25T10:02:47Z</time></trkpt><trkpt lat="40.66535703163317" lon="9.713476343284114"><ele>21.0</ele><time>2026-04-25T10:02:48Z</time></trkpt><trkpt lat="40.66513515226336" lon="9.713606448471225"><ele>20.0</ele><time>2026-04-25T10:02:49Z</time></trkpt><trkpt lat="40.66491478359727" lon="9.713746494153744"><ele>19.0</ele><time>2026-04-25T10:02:50Z</time></trkpt><trkpt lat="40.66469930205366" lon="9.713900407257931"><ele>19.0</ele><time>2026-04-25T10:02:51Z</time></trkpt><trkpt lat="40.66448311493443" lon="9.714064863250094"><ele>19.0</ele><time>2026-04-25T10:02:52Z</time></trkpt><trkpt lat="40.66426650749988" lon="9.714236082501118"><ele>20.0</ele><time>2026-04-25T10:02:53Z</time></trkpt><trkpt lat="40.66404740374758" lon="9.714420465687104"><ele>21.0</ele><time>2026-04-25T10:02:54Z</time></trkpt><trkpt lat="40.66382429495792" lon="9.714623735507308"><ele>19.5</ele><time>2026-04-25T10:02:55Z</time></trkpt><trkpt lat="40.66359946153622" lon="9.714841899853594"><ele>18.0</ele><time>2026-04-25T10:02:56Z</time></trkpt><trkpt lat="40.66337641666227" lon="9.71507194208455"><ele>18.0</ele><time>2026-04-25T10:02:57Z</time></trkpt><trkpt lat="40.66315281009181" lon="9.71532044916776"><ele>18.0</ele><time>2026-04-25T10:02:58Z</time></trkpt><trkpt lat="40.662933990512954" lon="9.715578986516983"><ele>17.0</ele><time>2026-04-25T10:02:59Z</time></trkpt><trkpt lat="40.66271924230152" lon="9.715848227963013"><ele>16.0</ele><time>2026-04-25T10:03:00Z</time></trkpt><trkpt lat="40.66250700996245" lon="9.71613196038685"><ele>15.0</ele><time>2026-04-25T10:03:01Z</time></trkpt><trkpt lat="40.66229741538882" lon="9.716423547951567"><ele>14.0</ele><time>2026-04-25T10:03:02Z</time></trkpt><trkpt lat="40.662086722189045" lon="9.716712231445277"><ele>13.0</ele><time>2026-04-25T10:03:03Z</time></trkpt><trkpt lat="40.66188137732321" lon="9.716997656888706"><ele>12.0</ele><time>2026-04-25T10:03:04Z</time></trkpt><trkpt lat="40.66168846953684" lon="9.717269948490207"><ele>12.0</ele><time>2026-04-25T10:03:05Z</time></trkpt><trkpt lat="40.66149766419025" lon="9.717534593395781"><ele>12.0</ele><time>2026-04-25T10:03:06Z</time></trkpt><trkpt lat="40.66130885997271" lon="9.717793738009297"><ele>11.5</ele><time>2026-04-25T10:03:07Z</time></trkpt><trkpt lat="40.661117819547016" lon="9.718053597111771"><ele>11.0</ele><time>2026-04-25T10:03:08Z</time></trkpt><trkpt lat="40.66092863909703" lon="9.718312937179206"><ele>9.5</ele><time>2026-04-25T10:03:09Z</time></trkpt><trkpt lat="40.66074077110672" lon="9.718571223797126"><ele>8.0</ele><time>2026-04-25T10:03:10Z</time></trkpt><trkpt lat="40.660553131227935" lon="9.718825347745144"><ele>8.0</ele><time>2026-04-25T10:03:11Z</time></trkpt><trkpt lat="40.66036738048196" lon="9.719079513513961"><ele>8.0</ele><time>2026-04-25T10:03:12Z</time></trkpt><trkpt lat="40.66018239272133" lon="9.71933486433924"><ele>8.5</ele><time>2026-04-25T10:03:13Z</time></trkpt><trkpt lat="40.65999512307962" lon="9.719593340623662"><ele>9.0</ele><time>2026-04-25T10:03:14Z</time></trkpt><trkpt lat="40.65980633341921" lon="9.719845158115296"><ele>9.0</ele><time>2026-04-25T10:03:15Z</time></trkpt><trkpt lat="40.65961546099451" lon="9.720093762204876"><ele>9.0</ele><time>2026-04-25T10:03:16Z</time></trkpt><trkpt lat="40.65942008372084" lon="9.720335960322462"><ele>8.5</ele><time>2026-04-25T10:03:17Z</time></trkpt><trkpt lat="40.659216550403464" lon="9.720571185204426"><ele>8.0</ele><time>2026-04-25T10:03:18Z</time></trkpt><trkpt lat="40.65900515519342" lon="9.720795127516675"><ele>8.0</ele><time>2026-04-25T10:03:19Z</time></trkpt><trkpt lat="40.65878724579467" lon="9.721005521493105"><ele>8.0</ele><time>2026-04-25T10:03:20Z</time></trkpt><trkpt lat="40.65856200193549" lon="9.721203201962167"><ele>7.0</ele><time>2026-04-25T10:03:21Z</time></trkpt><trkpt lat="40.658331099347656" lon="9.721385133553179"><ele>6.0</ele><time>2026-04-25T10:03:22Z</time></trkpt><trkpt lat="40.658092799515366" lon="9.721553243020928"><ele>6.0</ele><time>2026-04-25T10:03:23Z</time></trkpt><trkpt lat="40.65784585271475" lon="9.721704671642085"><ele>6.0</ele><time>2026-04-25T10:03:24Z</time></trkpt><trkpt lat="40.65759453414521" lon="9.721850740177716"><ele>5.0</ele><time>2026-04-25T10:03:25Z</time></trkpt><trkpt lat="40.6573423945487" lon="9.721986870311376"><ele>4.0</ele><time>2026-04-25T10:03:26Z</time></trkpt><trkpt lat="40.65708771428585" lon="9.722109100582193"><ele>5.0</ele><time>2026-04-25T10:03:27Z</time></trkpt><trkpt lat="40.65683343048916" lon="9.722214556521683"><ele>6.0</ele><time>2026-04-25T10:03:28Z</time></trkpt><trkpt lat="40.656568790696376" lon="9.7223074456956"><ele>6.0</ele><time>2026-04-25T10:03:29Z</time></trkpt><trkpt lat="40.65630562743423" lon="9.722386968813517"><ele>6.0</ele><time>2026-04-25T10:03:30Z</time></trkpt><trkpt lat="40.65604577195093" lon="9.722451025168631"><ele>7.5</ele><time>2026-04-25T10:03:31Z</time></trkpt><trkpt lat="40.655782319363" lon="9.722499410212352"><ele>9.0</ele><time>2026-04-25T10:03:32Z</time></trkpt><trkpt lat="40.65551403379782" lon="9.722532501927201"><ele>7.5</ele><time>2026-04-25T10:03:33Z</time></trkpt><trkpt lat="40.655241224831215" lon="9.722555555139767"><ele>6.0</ele><time>2026-04-25T10:03:34Z</time></trkpt><trkpt lat="40.65497104401838" lon="9.722560910207934"><ele>6.0</ele><time>2026-04-25T10:03:35Z</time></trkpt><trkpt lat="40.65469851307104" lon="9.722556319368051"><ele>6.0</ele><time>2026-04-25T10:03:36Z</time></trkpt><trkpt lat="40.654427884148255" lon="9.722537817107925"><ele>5.0</ele><time>2026-04-25T10:03:37Z</time></trkpt><trkpt lat="40.654151622044225" lon="9.722502242519749"><ele>4.0</ele><time>2026-04-25T10:03:38Z</time></trkpt><trkpt lat="40.653871515047" lon="9.72244834860088"><ele>3.5</ele><time>2026-04-25T10:03:39Z</time></trkpt><trkpt lat="40.653588469776075" lon="9.722379825319134"><ele>3.0</ele><time>2026-04-25T10:03:40Z</time></trkpt><trkpt lat="40.65330176932548" lon="9.72229376381381"><ele>3.0</ele><time>2026-04-25T10:03:41Z</time></trkpt><trkpt lat="40.653015803198855" lon="9.722187159790048"><ele>3.0</ele><time>2026-04-25T10:03:42Z</time></trkpt><trkpt lat="40.65273636105701" lon="9.722065633850285"><ele>5.0</ele><time>2026-04-25T10:03:43Z</time></trkpt><trkpt lat="40.65245879031761" lon="9.72192839198828"><ele>7.0</ele><time>2026-04-25T10:03:44Z</time></trkpt><trkpt lat="40.65217703391861" lon="9.721790461093905"><ele>7.0</ele><time>2026-04-25T10:03:45Z</time></trkpt><trkpt lat="40.65191886290354" lon="9.721616983138205"><ele>7.0</ele><time>2026-04-25T10:03:46Z</time></trkpt><trkpt lat="40.65165491835137" lon="9.72143871922255"><ele>7.0</ele><time>2026-04-25T10:03:47Z</time></trkpt><trkpt lat="40.6513941360548" lon="9.721245079406973"><ele>7.0</ele><time>2026-04-25T10:03:48Z</time></trkpt><trkpt lat="40.65113776672791" lon="9.721040518684934"><ele>8.0</ele><time>2026-04-25T10:03:49Z</time></trkpt><trkpt lat="40.650883222052066" lon="9.720822378856251"><ele>9.0</ele><time>2026-04-25T10:03:50Z</time></trkpt><trkpt lat="40.650636257082425" lon="9.720592706576934"><ele>9.0</ele><time>2026-04-25T10:03:51Z</time></trkpt><trkpt lat="40.65039137020339" lon="9.720350245754767"><ele>9.0</ele><time>2026-04-25T10:03:52Z</time></trkpt><trkpt lat="40.650167283116936" lon="9.72010758760096"><ele>10.0</ele><time>2026-04-25T10:03:53Z</time></trkpt><trkpt lat="40.64995704185938" lon="9.719855925711197"><ele>11.0</ele><time>2026-04-25T10:03:54Z</time></trkpt><trkpt lat="40.649754973728776" lon="9.719593451958739"><ele>10.5</ele><time>2026-04-25T10:03:55Z</time></trkpt><trkpt lat="40.64955694725191" lon="9.719322401668263"><ele>10.0</ele><time>2026-04-25T10:03:56Z</time></trkpt><trkpt lat="40.649363397573936" lon="9.719031493262673"><ele>10.0</ele><time>2026-04-25T10:03:57Z</time></trkpt><trkpt lat="40.64917932528066" lon="9.718726449251912"><ele>10.0</ele><time>2026-04-25T10:03:58Z</time></trkpt><trkpt lat="40.649010047669" lon="9.718410078055472"><ele>12.5</ele><time>2026-04-25T10:03:59Z</time></trkpt><trkpt lat="40.648851150482585" lon="9.718093361884636"><ele>15.0</ele><time>2026-04-25T10:04:00Z</time></trkpt><trkpt lat="40.64870268856403" lon="9.717777458399349"><ele>11.5</ele><time>2026-04-25T10:04:01Z</time></trkpt><trkpt lat="40.64856039782297" lon="9.717463921867958"><ele>8.0</ele><time>2026-04-25T10:04:02Z</time></trkpt><trkpt lat="40.64842498105898" lon="9.717153165829949"><ele>8.5</ele><time>2026-04-25T10:04:03Z</time></trkpt><trkpt lat="40.64828804708355" lon="9.716844061225926"><ele>9.0</ele><time>2026-04-25T10:04:04Z</time></trkpt><trkpt lat="40.64815262016417" lon="9.716535005127657"><ele>9.0</ele><time>2026-04-25T10:04:05Z</time></trkpt><trkpt lat="40.64801969652861" lon="9.716228503879275"><ele>9.0</ele><time>2026-04-25T10:04:06Z</time></trkpt><trkpt lat="40.64788599466624" lon="9.71592257822704"><ele>6.5</ele><time>2026-04-25T10:04:07Z</time></trkpt><trkpt lat="40.64775363596526" lon="9.715621129171176"><ele>4.0</ele><time>2026-04-25T10:04:08Z</time></trkpt><trkpt lat="40.64762236177409" lon="9.715320253213992"><ele>5.0</ele><time>2026-04-25T10:04:09Z</time></trkpt><trkpt lat="40.64749047302981" lon="9.715021019635971"><ele>6.0</ele><time>2026-04-25T10:04:10Z</time></trkpt><trkpt lat="40.64736082557535" lon="9.714721606618118"><ele>6.0</ele><time>2026-04-25T10:04:11Z</time></trkpt><trkpt lat="40.6472304352629" lon="9.71441944500416"><ele>6.0</ele><time>2026-04-25T10:04:12Z</time></trkpt><trkpt lat="40.64709979116831" lon="9.714120422551469"><ele>6.5</ele><time>2026-04-25T10:04:13Z</time></trkpt><trkpt lat="40.64696665175377" lon="9.713819838392727"><ele>7.0</ele><time>2026-04-25T10:04:14Z</time></trkpt><trkpt lat="40.64683227871596" lon="9.713514478967085"><ele>8.0</ele><time>2026-04-25T10:04:15Z</time></trkpt><trkpt lat="40.64669144564" lon="9.713194633722082"><ele>9.0</ele><time>2026-04-25T10:04:16Z</time></trkpt><trkpt lat="40.64654697816634" lon="9.712868000735877"><ele>9.5</ele><time>2026-04-25T10:04:17Z</time></trkpt><trkpt lat="40.64640710215213" lon="9.712550468901819"><ele>10.0</ele><time>2026-04-25T10:04:18Z</time></trkpt><trkpt lat="40.6462746318699" lon="9.712249586648184"><ele>10.0</ele><time>2026-04-25T10:04:19Z</time></trkpt><trkpt lat="40.64614319752767" lon="9.711951603262383"><ele>10.0</ele><time>2026-04-25T10:04:20Z</time></trkpt><trkpt lat="40.64601364141827" lon="9.711657624172197"><ele>8.5</ele><time>2026-04-25T10:04:21Z</time></trkpt><trkpt lat="40.64588346429199" lon="9.71136275087277"><ele>7.0</ele><time>2026-04-25T10:04:22Z</time></trkpt><trkpt lat="40.64575388804694" lon="9.71106944954451"><ele>6.5</ele><time>2026-04-25T10:04:23Z</time></trkpt><trkpt lat="40.64562546528395" lon="9.710776675052069"><ele>6.0</ele><time>2026-04-25T10:04:24Z</time></trkpt><trkpt lat="40.64549251788458" lon="9.710485440453633"><ele>5.5</ele><time>2026-04-25T10:04:25Z</time></trkpt><trkpt lat="40.64534984802181" lon="9.710196770099833"><ele>5.0</ele><time>2026-04-25T10:04:26Z</time></trkpt><trkpt lat="40.64520095008579" lon="9.709911117753416"><ele>5.0</ele><time>2026-04-25T10:04:27Z</time></trkpt><trkpt lat="40.645043981492904" lon="9.709631371123482"><ele>5.0</ele><time>2026-04-25T10:04:28Z</time></trkpt><trkpt lat="40.64488157870309" lon="9.709355648194375"><ele>4.5</ele><time>2026-04-25T10:04:29Z</time></trkpt><trkpt lat="40.64471516809574" lon="9.709089052269647"><ele>4.0</ele><time>2026-04-25T10:04:30Z</time></trkpt><trkpt lat="40.64453916443812" lon="9.708830043543728"><ele>4.0</ele><time>2026-04-25T10:04:31Z</time></trkpt><trkpt lat="40.64435903172536" lon="9.708577920985634"><ele>4.0</ele><time>2026-04-25T10:04:32Z</time></trkpt><trkpt lat="40.64417349420654" lon="9.708329446386955"><ele>4.0</ele><time>2026-04-25T10:04:33Z</time></trkpt><trkpt lat="40.64398572517637" lon="9.708087141979535"><ele>4.0</ele><time>2026-04-25T10:04:34Z</time></trkpt><trkpt lat="40.64379191008838" lon="9.707852295821827"><ele>4.0</ele><time>2026-04-25T10:04:35Z</time></trkpt><trkpt lat="40.64359464280507" lon="9.707627209775884"><ele>4.0</ele><time>2026-04-25T10:04:36Z</time></trkpt><trkpt lat="40.64339026088164" lon="9.707415729646923"><ele>4.0</ele><time>2026-04-25T10:04:37Z</time></trkpt><trkpt lat="40.64318108500862" lon="9.70721308282269"><ele>4.0</ele><time>2026-04-25T10:04:38Z</time></trkpt><trkpt lat="40.64296962180173" lon="9.707020564308863"><ele>3.5</ele><time>2026-04-25T10:04:39Z</time></trkpt><trkpt lat="40.64275382514723" lon="9.706836782176172"><ele>3.0</ele><time>2026-04-25T10:04:40Z</time></trkpt><trkpt lat="40.64253456380712" lon="9.706655514279419"><ele>3.0</ele><time>2026-04-25T10:04:41Z</time></trkpt><trkpt lat="40.64231790485723" lon="9.706484696737968"><ele>3.0</ele><time>2026-04-25T10:04:42Z</time></trkpt><trkpt lat="40.64209651819114" lon="9.706321199156074"><ele>3.0</ele><time>2026-04-25T10:04:43Z</time></trkpt><trkpt lat="40.64187728776304" lon="9.706169541354145"><ele>3.0</ele><time>2026-04-25T10:04:44Z</time></trkpt><trkpt lat="40.64165754918605" lon="9.70602872253181"><ele>3.0</ele><time>2026-04-25T10:04:45Z</time></trkpt><trkpt lat="40.641432601935435" lon="9.705896068588938"><ele>3.0</ele><time>2026-04-25T10:04:46Z</time></trkpt><trkpt lat="40.64119385543286" lon="9.70576562369609"><ele>3.0</ele><time>2026-04-25T10:04:47Z</time></trkpt><trkpt lat="40.64094448268645" lon="9.705638096800973"><ele>3.0</ele><time>2026-04-25T10:04:48Z</time></trkpt><trkpt lat="40.64068738777059" lon="9.705515923692065"><ele>3.0</ele><time>2026-04-25T10:04:49Z</time></trkpt><trkpt lat="40.64042853600034" lon="9.705392827509943"><ele>3.0</ele><time>2026-04-25T10:04:50Z</time></trkpt><trkpt lat="40.640165743101235" lon="9.705267548940359"><ele>3.0</ele><time>2026-04-25T10:04:51Z</time></trkpt><trkpt lat="40.639907672036585" lon="9.705144573998268"><ele>3.0</ele><time>2026-04-25T10:04:52Z</time></trkpt><trkpt lat="40.639663338094714" lon="9.705029423638905"><ele>2.0</ele><time>2026-04-25T10:04:53Z</time></trkpt><trkpt lat="40.63942477292647" lon="9.70491488050684"><ele>1.0</ele><time>2026-04-25T10:04:54Z</time></trkpt><trkpt lat="40.63919465372231" lon="9.704802473244714"><ele>1.0</ele><time>2026-04-25T10:04:55Z</time></trkpt><trkpt lat="40.63896283718006" lon="9.70469310095737"><ele>1.0</ele><time>2026-04-25T10:04:56Z</time></trkpt><trkpt lat="40.63873805848846" lon="9.704583631953584"><ele>1.0</ele><time>2026-04-25T10:04:57Z</time></trkpt><trkpt lat="40.63851474048355" lon="9.704473909921532"><ele>1.0</ele><time>2026-04-25T10:04:58Z</time></trkpt><trkpt lat="40.63829193442478" lon="9.704366962755842"><ele>1.0</ele><time>2026-04-25T10:04:59Z</time></trkpt><trkpt lat="40.63806983036187" lon="9.7042619109409"><ele>1.0</ele><time>2026-04-25T10:05:00Z</time></trkpt><trkpt lat="40.63784749692018" lon="9.704155634795638"><ele>0.5</ele><time>2026-04-25T10:05:01Z</time></trkpt><trkpt lat="40.63762609853551" lon="9.704048832522448"><ele>0.0</ele><time>2026-04-25T10:05:02Z</time></trkpt><trkpt lat="40.63740546298626" lon="9.703941744350926"><ele>0.0</ele><time>2026-04-25T10:05:03Z</time></trkpt><trkpt lat="40.63718676995998" lon="9.703834553917007"><ele>0.0</ele><time>2026-04-25T10:05:04Z</time></trkpt><trkpt lat="40.63697021345532" lon="9.703728177109014"><ele>-0.5</ele><time>2026-04-25T10:05:05Z</time></trkpt><trkpt lat="40.6367537178189" lon="9.703623720687512"><ele>-1.0</ele><time>2026-04-25T10:05:06Z</time></trkpt><trkpt lat="40.636540871347265" lon="9.703519220514767"><ele>-1.5</ele><time>2026-04-25T10:05:07Z</time></trkpt><trkpt lat="40.63632798823629" lon="9.703417177242944"><ele>-2.0</ele><time>2026-04-25T10:05:08Z</time></trkpt><trkpt lat="40.63611100355705" lon="9.703314013788052"><ele>0.5</ele><time>2026-04-25T10:05:09Z</time></trkpt><trkpt lat="40.635893365527586" lon="9.703210895788317"><ele>3.0</ele><time>2026-04-25T10:05:10Z</time></trkpt><trkpt lat="40.63568586308161" lon="9.703111837480476"><ele>3.0</ele><time>2026-04-25T10:05:11Z</time></trkpt><trkpt lat="40.63548015961729" lon="9.70301072990712"><ele>3.0</ele><time>2026-04-25T10:05:12Z</time></trkpt><trkpt lat="40.63527910889305" lon="9.7029115897109"><ele>3.0</ele><time>2026-04-25T10:05:13Z</time></trkpt><trkpt lat="40.63507842462124" lon="9.70281425497108"><ele>3.333333333333333</ele><time>2026-04-25T10:05:14Z</time></trkpt><trkpt lat="40.634879870999654" lon="9.70272195417749"><ele>3.6666666666666665</ele><time>2026-04-25T10:05:15Z</time></trkpt><trkpt lat="40.6346911355367" lon="9.702636477660118"><ele>4.0</ele><time>2026-04-25T10:05:16Z</time></trkpt><trkpt lat="40.63450744364472" lon="9.702562218510876"><ele>4.0</ele><time>2026-04-25T10:05:17Z</time></trkpt><trkpt lat="40.63432171811525" lon="9.702493459774157"><ele>4.0</ele><time>2026-04-25T10:05:18Z</time></trkpt><trkpt lat="40.634133526124465" lon="9.702430324256246"><ele>4.0</ele><time>2026-04-25T10:05:19Z</time></trkpt><trkpt lat="40.63394326087596" lon="9.70237084386012"><ele>4.0</ele><time>2026-04-25T10:05:20Z</time></trkpt><trkpt lat="40.63375355008133" lon="9.702316225103948"><ele>4.0</ele><time>2026-04-25T10:05:21Z</time></trkpt><trkpt lat="40.633564865051916" lon="9.702268064669541"><ele>4.0</ele><time>2026-04-25T10:05:22Z</time></trkpt><trkpt lat="40.63337743921992" lon="9.70222642359925"><ele>5.333333333333333</ele><time>2026-04-25T10:05:23Z</time></trkpt><trkpt lat="40.63319241918743" lon="9.702189021903546"><ele>6.666666666666666</ele><time>2026-04-25T10:05:24Z</time></trkpt><trkpt lat="40.63300799138053" lon="9.702153504492964"><ele>8.0</ele><time>2026-04-25T10:05:25Z</time></trkpt><trkpt lat="40.63283119324773" lon="9.7021184814059"><ele>7.0</ele><time>2026-04-25T10:05:26Z</time></trkpt><trkpt lat="40.63266103652831" lon="9.70209023851509"><ele>6.0</ele><time>2026-04-25T10:05:27Z</time></trkpt><trkpt lat="40.63249259091261" lon="9.702066875885855"><ele>5.0</ele><time>2026-04-25T10:05:28Z</time></trkpt><trkpt lat="40.632324502756084" lon="9.702049120741155"><ele>5.0</ele><time>2026-04-25T10:05:29Z</time></trkpt><trkpt lat="40.63215808547116" lon="9.702037507443517"><ele>5.0</ele><time>2026-04-25T10:05:30Z</time></trkpt><trkpt lat="40.63199043338614" lon="9.702031791976172"><ele>5.0</ele><time>2026-04-25T10:05:31Z</time></trkpt><trkpt lat="40.631818058153115" lon="9.702034218214981"><ele>5.0</ele><time>2026-04-25T10:05:32Z</time></trkpt><trkpt lat="40.631653707200655" lon="9.702035339654817"><ele>5.0</ele><time>2026-04-25T10:05:33Z</time></trkpt><trkpt lat="40.63150190048972" lon="9.70202651909627"><ele>5.0</ele><time>2026-04-25T10:05:34Z</time></trkpt><trkpt lat="40.63135667056032" lon="9.70200457466984"><ele>5.0</ele><time>2026-04-25T10:05:35Z</time></trkpt><trkpt lat="40.63123148921093" lon="9.701946302616225"><ele>5.0</ele><time>2026-04-25T10:05:36Z</time></trkpt><trkpt lat="40.631112745023614" lon="9.701860755499501"><ele>5.0</ele><time>2026-04-25T10:05:37Z</time></trkpt><trkpt lat="40.63100948400568" lon="9.701755058926587"><ele>5.0</ele><time>2026-04-25T10:05:38Z</time></trkpt><trkpt lat="40.63092469958626" lon="9.70161483706654"><ele>5.333333333333334</ele><time>2026-04-25T10:05:39Z</time></trkpt><trkpt lat="40.630850077285096" lon="9.701436424844404"><ele>5.666666666666667</ele><time>2026-04-25T10:05:40Z</time></trkpt><trkpt lat="40.63079769114312" lon="9.701224355657654"><ele>6.0</ele><time>2026-04-25T10:05:41Z</time></trkpt><trkpt lat="40.63076646383389" lon="9.70098351356203"><ele>6.0</ele><time>2026-04-25T10:05:42Z</time></trkpt><trkpt lat="40.63075737527406" lon="9.700762813572496"><ele>6.0</ele><time>2026-04-25T10:05:43Z</time></trkpt><trkpt lat="40.63075151955742" lon="9.700565862626542"><ele>6.0</ele><time>2026-04-25T10:05:44Z</time></trkpt><trkpt lat="40.630737383059376" lon="9.700400908685763"><ele>6.0</ele><time>2026-04-25T10:05:45Z</time></trkpt><trkpt lat="40.630703795127" lon="9.700258314199504"><ele>6.25</ele><time>2026-04-25T10:05:46Z</time></trkpt><trkpt lat="40.63064884627553" lon="9.700127385445152"><ele>6.5</ele><time>2026-04-25T10:05:47Z</time></trkpt><trkpt lat="40.630568615519245" lon="9.700007771238395"><ele>6.75</ele><time>2026-04-25T10:05:48Z</time></trkpt><trkpt lat="40.630466238350635" lon="9.699919014855956"><ele>7.0</ele><time>2026-04-25T10:05:49Z</time></trkpt><trkpt lat="40.63034820345135" lon="9.699854442286219"><ele>7.8</ele><time>2026-04-25T10:05:50Z</time></trkpt><trkpt lat="40.6302233842375" lon="9.699802865220452"><ele>8.6</ele><time>2026-04-25T10:05:51Z</time></trkpt><trkpt lat="40.630128298154574" lon="9.69972973333159"><ele>9.4</ele><time>2026-04-25T10:05:52Z</time></trkpt><trkpt lat="40.63006378914341" lon="9.69965153304483"><ele>10.200000000000001</ele><time>2026-04-25T10:05:53Z</time></trkpt><trkpt lat="40.62999661770035" lon="9.69957237465792"><ele>11.0</ele><time>2026-04-25T10:05:55Z</time></trkpt><trkpt lat="40.62991407503299" lon="9.699576062278014"><ele>11.0</ele><time>2026-04-25T10:05:58Z</time></trkpt><trkpt lat="40.62982457386704" lon="9.699739637957215"><ele>11.0</ele><time>2026-04-25T10:06:00Z</time></trkpt><trkpt lat="40.62978896302971" lon="9.699888086749537"><ele>11.0</ele><time>2026-04-25T10:06:01Z</time></trkpt><trkpt lat="40.62974928691012" lon="9.700080618839394"><ele>11.0</ele><time>2026-04-25T10:06:02Z</time></trkpt><trkpt lat="40.62969941869675" lon="9.700300597493204"><ele>10.333333333333332</ele><time>2026-04-25T10:06:03Z</time></trkpt><trkpt lat="40.629644163105326" lon="9.700540495626695"><ele>9.666666666666666</ele><time>2026-04-25T10:06:04Z</time></trkpt><trkpt lat="40.62958833272471" lon="9.700780093938054"><ele>9.0</ele><time>2026-04-25T10:06:05Z</time></trkpt><trkpt lat="40.629537459634754" lon="9.700994855436345"><ele>8.666666666666666</ele><time>2026-04-25T10:06:06Z</time></trkpt><trkpt lat="40.62949057705295" lon="9.701205012072233"><ele>8.333333333333332</ele><time>2026-04-25T10:06:07Z</time></trkpt><trkpt lat="40.629446254697605" lon="9.701407557787757"><ele>8.0</ele><time>2026-04-25T10:06:08Z</time></trkpt><trkpt lat="40.62940351053496" lon="9.701611710131278"><ele>8.666666666666666</ele><time>2026-04-25T10:06:09Z</time></trkpt><trkpt lat="40.62936243279449" lon="9.701821536138452"><ele>9.333333333333334</ele><time>2026-04-25T10:06:10Z</time></trkpt><trkpt lat="40.62932207461695" lon="9.70203500732577"><ele>10.0</ele><time>2026-04-25T10:06:11Z</time></trkpt><trkpt lat="40.62928171798686" lon="9.702253111158708"><ele>10.666666666666668</ele><time>2026-04-25T10:06:12Z</time></trkpt><trkpt lat="40.62924588963052" lon="9.702474578454057"><ele>11.333333333333334</ele><time>2026-04-25T10:06:13Z</time></trkpt><trkpt lat="40.629213145762826" lon="9.702699758835509"><ele>12.0</ele><time>2026-04-25T10:06:14Z</time></trkpt><trkpt lat="40.62918503342965" lon="9.702925291736722"><ele>12.666666666666668</ele><time>2026-04-25T10:06:15Z</time></trkpt><trkpt lat="40.629160643304324" lon="9.703155739222082"><ele>13.333333333333334</ele><time>2026-04-25T10:06:16Z</time></trkpt><trkpt lat="40.62913436397781" lon="9.703379645386184"><ele>14.0</ele><time>2026-04-25T10:06:17Z</time></trkpt><trkpt lat="40.62911003527736" lon="9.703611517193051"><ele>14.0</ele><time>2026-04-25T10:06:18Z</time></trkpt><trkpt lat="40.629089371390954" lon="9.703843094651075"><ele>14.0</ele><time>2026-04-25T10:06:19Z</time></trkpt><trkpt lat="40.629068920998726" lon="9.70407758960356"><ele>14.0</ele><time>2026-04-25T10:06:20Z</time></trkpt><trkpt lat="40.62905185856516" lon="9.704311945498196"><ele>14.0</ele><time>2026-04-25T10:06:21Z</time></trkpt><trkpt lat="40.6290386293518" lon="9.704545647308906"><ele>14.0</ele><time>2026-04-25T10:06:22Z</time></trkpt><trkpt lat="40.62902560796109" lon="9.704778415576286"><ele>14.0</ele><time>2026-04-25T10:06:23Z</time></trkpt><trkpt lat="40.62901343111592" lon="9.705011134950828"><ele>13.666666666666668</ele><time>2026-04-25T10:06:24Z</time></trkpt><trkpt lat="40.6289982186954" lon="9.705245809293489"><ele>13.333333333333332</ele><time>2026-04-25T10:06:25Z</time></trkpt><trkpt lat="40.628986547289735" lon="9.705482280727836"><ele>13.0</ele><time>2026-04-25T10:06:26Z</time></trkpt><trkpt lat="40.628975370431576" lon="9.705721141878902"><ele>13.0</ele><time>2026-04-25T10:06:27Z</time></trkpt><trkpt lat="40.62896308972702" lon="9.705958705282221"><ele>13.0</ele><time>2026-04-25T10:06:28Z</time></trkpt><trkpt lat="40.62895086427277" lon="9.70618984967802"><ele>13.0</ele><time>2026-04-25T10:06:29Z</time></trkpt><trkpt lat="40.628939597693176" lon="9.70640866403138"><ele>13.333333333333332</ele><time>2026-04-25T10:06:30Z</time></trkpt><trkpt lat="40.628927351067944" lon="9.706631949043182"><ele>13.666666666666668</ele><time>2026-04-25T10:06:31Z</time></trkpt><trkpt lat="40.628919033842664" lon="9.70684788821299"><ele>14.0</ele><time>2026-04-25T10:06:32Z</time></trkpt><trkpt lat="40.6289315504968" lon="9.707058685467361"><ele>14.333333333333334</ele><time>2026-04-25T10:06:33Z</time></trkpt><trkpt lat="40.62897823736101" lon="9.707270889993032"><ele>14.666666666666668</ele><time>2026-04-25T10:06:34Z</time></trkpt><trkpt lat="40.62905691107944" lon="9.707485929064443"><ele>15.0</ele><time>2026-04-25T10:06:35Z</time></trkpt><trkpt lat="40.62916691838895" lon="9.707686970234283"><ele>14.666666666666668</ele><time>2026-04-25T10:06:36Z</time></trkpt><trkpt lat="40.629304394551966" lon="9.707878003652725"><ele>14.333333333333334</ele><time>2026-04-25T10:06:37Z</time></trkpt><trkpt lat="40.62945032221225" lon="9.708077197028166"><ele>14.0</ele><time>2026-04-25T10:06:38Z</time></trkpt><trkpt lat="40.62957114021512" lon="9.708302769229052"><ele>14.0</ele><time>2026-04-25T10:06:39Z</time></trkpt><trkpt lat="40.62966965522496" lon="9.708516758310786"><ele>14.0</ele><time>2026-04-25T10:06:40Z</time></trkpt><trkpt lat="40.6297571362233" lon="9.708714979668867"><ele>14.0</ele><time>2026-04-25T10:06:41Z</time></trkpt><trkpt lat="40.62984660464978" lon="9.708907120228991"><ele>14.666666666666668</ele><time>2026-04-25T10:06:42Z</time></trkpt><trkpt lat="40.62992581850283" lon="9.709091348214324"><ele>15.333333333333332</ele><time>2026-04-25T10:06:43Z</time></trkpt><trkpt lat="40.62999507956793" lon="9.709287917248135"><ele>16.0</ele><time>2026-04-25T10:06:44Z</time></trkpt><trkpt lat="40.63004743976431" lon="9.709498578606636"><ele>16.0</ele><time>2026-04-25T10:06:45Z</time></trkpt><trkpt lat="40.63008233725249" lon="9.709720666161283"><ele>16.0</ele><time>2026-04-25T10:06:46Z</time></trkpt><trkpt lat="40.63009507282874" lon="9.709970392180503"><ele>16.0</ele><time>2026-04-25T10:06:47Z</time></trkpt><trkpt lat="40.63009974582318" lon="9.71021952360236"><ele>16.0</ele><time>2026-04-25T10:06:48Z</time></trkpt><trkpt lat="40.630105157867106" lon="9.710435598286978"><ele>16.0</ele><time>2026-04-25T10:06:49Z</time></trkpt><trkpt lat="40.63011320203007" lon="9.710624009599991"><ele>16.0</ele><time>2026-04-25T10:06:50Z</time></trkpt><trkpt lat="40.630121793004285" lon="9.710810030883756"><ele>16.0</ele><time>2026-04-25T10:06:51Z</time></trkpt><trkpt lat="40.63012624932056" lon="9.710965735872996"><ele>15.833333333333332</ele><time>2026-04-25T10:06:52Z</time></trkpt><trkpt lat="40.63012926440065" lon="9.711089806982441"><ele>15.666666666666666</ele><time>2026-04-25T10:06:53Z</time></trkpt><trkpt lat="40.630133121931266" lon="9.711189801041348"><ele>15.5</ele><time>2026-04-25T10:06:54Z</time></trkpt><trkpt lat="40.63013564025377" lon="9.711284841055104"><ele>15.333333333333332</ele><time>2026-04-25T10:06:55Z</time></trkpt><trkpt lat="40.63013811782566" lon="9.711375806190379"><ele>15.166666666666666</ele><time>2026-04-25T10:06:56Z</time></trkpt><trkpt lat="40.63014297442" lon="9.711474673872976"><ele>15.0</ele><time>2026-04-25T10:06:57Z</time></trkpt><trkpt lat="40.630149862897156" lon="9.711596861124915"><ele>15.0</ele><time>2026-04-25T10:06:58Z</time></trkpt><trkpt lat="40.63015955161539" lon="9.711754354661467"><ele>15.0</ele><time>2026-04-25T10:06:59Z</time></trkpt><trkpt lat="40.63016949923229" lon="9.711928683086906"><ele>15.0</ele><time>2026-04-25T10:07:00Z</time></trkpt><trkpt lat="40.63017796219361" lon="9.712103130507243"><ele>15.0</ele><time>2026-04-25T10:07:01Z</time></trkpt><trkpt lat="40.63018628587587" lon="9.71226560276995"><ele>15.0</ele><time>2026-04-25T10:07:02Z</time></trkpt><trkpt lat="40.630194624069745" lon="9.712424440353015"><ele>15.0</ele><time>2026-04-25T10:07:03Z</time></trkpt><trkpt lat="40.630201621590565" lon="9.712584988075278"><ele>15.0</ele><time>2026-04-25T10:07:04Z</time></trkpt><trkpt lat="40.630208979377954" lon="9.712747629665746"><ele>15.0</ele><time>2026-04-25T10:07:05Z</time></trkpt><trkpt lat="40.630217367705406" lon="9.712914219204334"><ele>15.0</ele><time>2026-04-25T10:07:06Z</time></trkpt><trkpt lat="40.63022530408876" lon="9.713075454925566"><ele>15.0</ele><time>2026-04-25T10:07:07Z</time></trkpt><trkpt lat="40.630231704384926" lon="9.713230587191356"><ele>15.0</ele><time>2026-04-25T10:07:08Z</time></trkpt><trkpt lat="40.6302375352152" lon="9.71337110902135"><ele>15.0</ele><time>2026-04-25T10:07:09Z</time></trkpt><trkpt lat="40.63024376763255" lon="9.713485042364153"><ele>15.0</ele><time>2026-04-25T10:07:10Z</time></trkpt><trkpt lat="40.63024600368024" lon="9.713573580479636"><ele>14.6</ele><time>2026-04-25T10:07:11Z</time></trkpt><trkpt lat="40.63024868974689" lon="9.71369756394188"><ele>14.2</ele><time>2026-04-25T10:07:13Z</time></trkpt><trkpt lat="40.6302612139359" lon="9.713835305297085"><ele>13.8</ele><time>2026-04-25T10:07:15Z</time></trkpt><trkpt lat="40.63026536722271" lon="9.713934993104269"><ele>13.4</ele><time>2026-04-25T10:07:16Z</time></trkpt><trkpt lat="40.63026968867273" lon="9.714088646577531"><ele>13.0</ele><time>2026-04-25T10:07:17Z</time></trkpt><trkpt lat="40.630277731178964" lon="9.714250889234798"><ele>12.999999999999998</ele><time>2026-04-25T10:07:18Z</time></trkpt><trkpt lat="40.63027919612912" lon="9.714383880588365"><ele>13.0</ele><time>2026-04-25T10:07:19Z</time></trkpt><trkpt lat="40.63028790392591" lon="9.71449859783869"><ele>13.0</ele><time>2026-04-25T10:07:20Z</time></trkpt><trkpt lat="40.63028872246415" lon="9.71459439570606"><ele>13.0</ele><time>2026-04-25T10:07:21Z</time></trkpt><trkpt lat="40.63029798672911" lon="9.714727767032029"><ele>12.999999999999998</ele><time>2026-04-25T10:07:23Z</time></trkpt><trkpt lat="40.63030040091105" lon="9.7148137558237"><ele>13.0</ele><time>2026-04-25T10:07:26Z</time></trkpt><trkpt lat="40.63031941043973" lon="9.714915952839583"><ele>12.600000000000001</ele><time>2026-04-25T10:07:33Z</time></trkpt><trkpt lat="40.63044863342443" lon="9.71490220248102"><ele>12.200000000000001</ele><time>2026-04-25T10:07:34Z</time></trkpt><trkpt lat="40.63054550750014" lon="9.714904543955353"><ele>11.8</ele><time>2026-04-25T10:07:35Z</time></trkpt><trkpt lat="40.63063873116428" lon="9.714904406363381"><ele>11.4</ele><time>2026-04-25T10:07:36Z</time></trkpt><trkpt lat="40.63073430693562" lon="9.714895540857095"><ele>11.0</ele><time>2026-04-25T10:07:37Z</time></trkpt><trkpt lat="40.63082206523497" lon="9.714887745469827"><ele>11.0</ele><time>2026-04-25T10:07:38Z</time></trkpt><trkpt lat="40.630904169070035" lon="9.714878678173429"><ele>11.0</ele><time>2026-04-25T10:07:39Z</time></trkpt><trkpt lat="40.630976781781506" lon="9.714877750985215"><ele>11.0</ele><time>2026-04-25T10:07:40Z</time></trkpt><trkpt lat="40.63104352071947" lon="9.714875982656274"><ele>11.0</ele><time>2026-04-25T10:07:41Z</time></trkpt><trkpt lat="40.63110707056887" lon="9.71487466549739"><ele>11.0</ele><time>2026-04-25T10:07:42Z</time></trkpt><trkpt lat="40.63121189948673" lon="9.714873879429858"><ele>11.0</ele><time>2026-04-25T10:07:44Z</time></trkpt><trkpt lat="40.63128067828931" lon="9.7149472011287"><ele>11.166666666666666</ele><time>2026-04-25T10:07:47Z</time></trkpt><trkpt lat="40.631346935530615" lon="9.71497237571416"><ele>11.333333333333332</ele><time>2026-04-25T10:07:54Z</time></trkpt><trkpt lat="40.63141058162541" lon="9.714971777170343"><ele>11.5</ele><time>2026-04-25T10:08:01Z</time></trkpt><trkpt lat="40.631475217354314" lon="9.71489465581244"><ele>11.666666666666666</ele><time>2026-04-25T10:13:07Z</time></trkpt><trkpt lat="40.63156793078506" lon="9.714888907290666"><ele>11.833333333333334</ele><time>2026-04-25T10:13:21Z</time></trkpt><trkpt lat="40.63151479977235" lon="9.714816010122062"><ele>12.0</ele><time>2026-04-25T10:13:31Z</time></trkpt><trkpt lat="40.63138414374333" lon="9.714824347167744"><ele>12.0</ele><time>2026-04-25T10:13:33Z</time></trkpt><trkpt lat="40.63128263760271" lon="9.714838730961675"><ele>12.0</ele><time>2026-04-25T10:13:34Z</time></trkpt><trkpt lat="40.63119799534183" lon="9.714837335630982"><ele>12.0</ele><time>2026-04-25T10:13:35Z</time></trkpt><trkpt lat="40.63111734247852" lon="9.714839081307376"><ele>12.0</ele><time>2026-04-25T10:13:36Z</time></trkpt><trkpt lat="40.631036805061505" lon="9.714845577596801"><ele>12.0</ele><time>2026-04-25T10:13:37Z</time></trkpt><trkpt lat="40.63096237668314" lon="9.714847511388097"><ele>12.0</ele><time>2026-04-25T10:13:38Z</time></trkpt><trkpt lat="40.63088767833987" lon="9.714853757699133"><ele>11.833333333333334</ele><time>2026-04-25T10:13:39Z</time></trkpt><trkpt lat="40.6308126515732" lon="9.714857057151162"><ele>11.666666666666666</ele><time>2026-04-25T10:13:40Z</time></trkpt><trkpt lat="40.63073811305822" lon="9.714859292259522"><ele>11.5</ele><time>2026-04-25T10:13:41Z</time></trkpt><trkpt lat="40.6306501453029" lon="9.714862368783615"><ele>11.333333333333332</ele><time>2026-04-25T10:13:42Z</time></trkpt><trkpt lat="40.63056250726383" lon="9.714863371420787"><ele>11.166666666666666</ele><time>2026-04-25T10:13:43Z</time></trkpt><trkpt lat="40.630482337977426" lon="9.71486869937863"><ele>11.0</ele><time>2026-04-25T10:13:44Z</time></trkpt><trkpt lat="40.63040300875593" lon="9.714875254200843"><ele>11.0</ele><time>2026-04-25T10:13:45Z</time></trkpt><trkpt lat="40.630314153656975" lon="9.71486943021533"><ele>11.0</ele><time>2026-04-25T10:13:46Z</time></trkpt><trkpt lat="40.630207570759865" lon="9.714874947490747"><ele>11.0</ele><time>2026-04-25T10:13:47Z</time></trkpt><trkpt lat="40.63009839156913" lon="9.714877552165879"><ele>11.0</ele><time>2026-04-25T10:13:48Z</time></trkpt><trkpt lat="40.629983659994686" lon="9.714883139213539"><ele>11.0</ele><time>2026-04-25T10:13:49Z</time></trkpt><trkpt lat="40.629865934891725" lon="9.714889230991897"><ele>11.0</ele><time>2026-04-25T10:13:50Z</time></trkpt><trkpt lat="40.62975877412823" lon="9.714892202375262"><ele>11.0</ele><time>2026-04-25T10:13:51Z</time></trkpt><trkpt lat="40.629659479575125" lon="9.714895887410176"><ele>11.0</ele><time>2026-04-25T10:13:52Z</time></trkpt><trkpt lat="40.629557870719054" lon="9.71490562576182"><ele>11.0</ele><time>2026-04-25T10:13:53Z</time></trkpt><trkpt lat="40.629445757421024" lon="9.714915155702105"><ele>11.0</ele><time>2026-04-25T10:13:54Z</time></trkpt><trkpt lat="40.62933121652818" lon="9.714913211373487"><ele>11.5</ele><time>2026-04-25T10:13:55Z</time></trkpt><trkpt lat="40.62921344130978" lon="9.71492086692634"><ele>12.0</ele><time>2026-04-25T10:13:56Z</time></trkpt><trkpt lat="40.62909346992473" lon="9.714901807703562"><ele>12.5</ele><time>2026-04-25T10:13:57Z</time></trkpt><trkpt lat="40.62896698853633" lon="9.714908154843926"><ele>13.0</ele><time>2026-04-25T10:13:58Z</time></trkpt><trkpt lat="40.62883986743177" lon="9.714915023534184"><ele>13.0</ele><time>2026-04-25T10:13:59Z</time></trkpt><trkpt lat="40.62871580082841" lon="9.714921728215272"><ele>13.0</ele><time>2026-04-25T10:14:00Z</time></trkpt><trkpt lat="40.628591200265156" lon="9.714928461752686"><ele>13.0</ele><time>2026-04-25T10:14:01Z</time></trkpt><trkpt lat="40.628469356497426" lon="9.714935046310588"><ele>13.0</ele><time>2026-04-25T10:14:02Z</time></trkpt><trkpt lat="40.6283435183557" lon="9.714961663764022"><ele>13.75</ele><time>2026-04-25T10:14:03Z</time></trkpt><trkpt lat="40.6282115530932" lon="9.714966213517517"><ele>14.5</ele><time>2026-04-25T10:14:04Z</time></trkpt><trkpt lat="40.62808766477734" lon="9.714968053050804"><ele>15.25</ele><time>2026-04-25T10:14:05Z</time></trkpt><trkpt lat="40.627962722539955" lon="9.714974001382277"><ele>16.0</ele><time>2026-04-25T10:14:06Z</time></trkpt><trkpt lat="40.627837839274314" lon="9.71497853095327"><ele>16.0</ele><time>2026-04-25T10:14:07Z</time></trkpt><trkpt lat="40.62771310772358" lon="9.714983720599621"><ele>16.0</ele><time>2026-04-25T10:14:08Z</time></trkpt><trkpt lat="40.62758914933145" lon="9.71498694710751"><ele>16.0</ele><time>2026-04-25T10:14:09Z</time></trkpt><trkpt lat="40.627465538772235" lon="9.714976162707199"><ele>16.0</ele><time>2026-04-25T10:14:10Z</time></trkpt><trkpt lat="40.62733628143802" lon="9.714938994522981"><ele>16.0</ele><time>2026-04-25T10:14:11Z</time></trkpt><trkpt lat="40.62720602043864" lon="9.714859505275655"><ele>16.0</ele><time>2026-04-25T10:14:12Z</time></trkpt><trkpt lat="40.62706738555596" lon="9.714798967650134"><ele>16.0</ele><time>2026-04-25T10:14:13Z</time></trkpt><trkpt lat="40.626931733441786" lon="9.714700777001356"><ele>16.0</ele><time>2026-04-25T10:14:14Z</time></trkpt><trkpt lat="40.626790665533754" lon="9.714594605135266"><ele>15.666666666666666</ele><time>2026-04-25T10:14:15Z</time></trkpt><trkpt lat="40.62664732530562" lon="9.714480763488158"><ele>15.333333333333332</ele><time>2026-04-25T10:14:16Z</time></trkpt><trkpt lat="40.6264984127017" lon="9.7143657180142"><ele>15.0</ele><time>2026-04-25T10:14:17Z</time></trkpt><trkpt lat="40.62634515683024" lon="9.71424918819517"><ele>15.0</ele><time>2026-04-25T10:14:18Z</time></trkpt><trkpt lat="40.6261873264319" lon="9.714132738654712"><ele>15.0</ele><time>2026-04-25T10:14:19Z</time></trkpt><trkpt lat="40.62602709712028" lon="9.714011875031467"><ele>15.0</ele><time>2026-04-25T10:14:20Z</time></trkpt><trkpt lat="40.6258688198333" lon="9.713890082187788"><ele>12.333333333333334</ele><time>2026-04-25T10:14:21Z</time></trkpt><trkpt lat="40.62570865055691" lon="9.713766019929759"><ele>9.666666666666668</ele><time>2026-04-25T10:14:22Z</time></trkpt><trkpt lat="40.625551306985585" lon="9.71364200378119"><ele>7.0</ele><time>2026-04-25T10:14:23Z</time></trkpt><trkpt lat="40.625393217969936" lon="9.713522451031514"><ele>6.333333333333334</ele><time>2026-04-25T10:14:24Z</time></trkpt><trkpt lat="40.625234270021096" lon="9.713401259570412"><ele>5.666666666666667</ele><time>2026-04-25T10:14:25Z</time></trkpt><trkpt lat="40.625076977057006" lon="9.71327734619472"><ele>5.0</ele><time>2026-04-25T10:14:26Z</time></trkpt><trkpt lat="40.62491952369511" lon="9.713155449752383"><ele>5.0</ele><time>2026-04-25T10:14:27Z</time></trkpt><trkpt lat="40.62476350906767" lon="9.713038653033134"><ele>5.0</ele><time>2026-04-25T10:14:28Z</time></trkpt><trkpt lat="40.62460646084848" lon="9.712921713925498"><ele>5.0</ele><time>2026-04-25T10:14:29Z</time></trkpt><trkpt lat="40.62445017175085" lon="9.712805863989939"><ele>5.333333333333334</ele><time>2026-04-25T10:14:30Z</time></trkpt><trkpt lat="40.62429300181569" lon="9.712689233163836"><ele>5.666666666666667</ele><time>2026-04-25T10:14:31Z</time></trkpt><trkpt lat="40.624139547397434" lon="9.712570386617248"><ele>6.0</ele><time>2026-04-25T10:14:32Z</time></trkpt><trkpt lat="40.623988809232905" lon="9.712450927449582"><ele>6.0</ele><time>2026-04-25T10:14:33Z</time></trkpt><trkpt lat="40.62383931437682" lon="9.712332343294642"><ele>6.0</ele><time>2026-04-25T10:14:34Z</time></trkpt><trkpt lat="40.62368949193199" lon="9.71221678598146"><ele>6.0</ele><time>2026-04-25T10:14:35Z</time></trkpt><trkpt lat="40.623535828173004" lon="9.712101352185588"><ele>7.333333333333334</ele><time>2026-04-25T10:14:36Z</time></trkpt><trkpt lat="40.62337059558455" lon="9.711975076241595"><ele>8.666666666666668</ele><time>2026-04-25T10:14:37Z</time></trkpt><trkpt lat="40.62318751943664" lon="9.711837694218193"><ele>10.0</ele><time>2026-04-25T10:14:38Z</time></trkpt><trkpt lat="40.62299099951486" lon="9.711692532042541"><ele>11.5</ele><time>2026-04-25T10:14:39Z</time></trkpt><trkpt lat="40.62278305148002" lon="9.711537603841997"><ele>13.0</ele><time>2026-04-25T10:14:40Z</time></trkpt><trkpt lat="40.62257884887817" lon="9.711383014261061"><ele>13.0</ele><time>2026-04-25T10:14:41Z</time></trkpt><trkpt lat="40.622377586936835" lon="9.711229890855591"><ele>13.0</ele><time>2026-04-25T10:14:42Z</time></trkpt><trkpt lat="40.62217892761888" lon="9.711078595706814"><ele>14.0</ele><time>2026-04-25T10:14:43Z</time></trkpt><trkpt lat="40.62198087848787" lon="9.710929253895989"><ele>15.0</ele><time>2026-04-25T10:14:44Z</time></trkpt><trkpt lat="40.6217839029791" lon="9.71078131033015"><ele>15.0</ele><time>2026-04-25T10:14:45Z</time></trkpt><trkpt lat="40.62158758285191" lon="9.71063550257631"><ele>15.0</ele><time>2026-04-25T10:14:46Z</time></trkpt><trkpt lat="40.62139372827409" lon="9.710489467741834"><ele>15.0</ele><time>2026-04-25T10:14:47Z</time></trkpt><trkpt lat="40.62120030116456" lon="9.710344628338014"><ele>15.333333333333332</ele><time>2026-04-25T10:14:48Z</time></trkpt><trkpt lat="40.62101011493512" lon="9.710201315828332"><ele>15.666666666666666</ele><time>2026-04-25T10:14:49Z</time></trkpt><trkpt lat="40.62082170444865" lon="9.71005838989406"><ele>16.0</ele><time>2026-04-25T10:14:50Z</time></trkpt><trkpt lat="40.62063459374901" lon="9.709916329398414"><ele>16.0</ele><time>2026-04-25T10:14:51Z</time></trkpt><trkpt lat="40.620448759017556" lon="9.709777143833179"><ele>16.0</ele><time>2026-04-25T10:14:52Z</time></trkpt><trkpt lat="40.620254111600666" lon="9.709631636764776"><ele>16.0</ele><time>2026-04-25T10:14:53Z</time></trkpt><trkpt lat="40.620057081668065" lon="9.709484561385956"><ele>17.666666666666664</ele><time>2026-04-25T10:14:54Z</time></trkpt><trkpt lat="40.619871051958604" lon="9.709345347895372"><ele>19.333333333333332</ele><time>2026-04-25T10:14:55Z</time></trkpt><trkpt lat="40.6196989826534" lon="9.709217233084804"><ele>21.0</ele><time>2026-04-25T10:14:56Z</time></trkpt><trkpt lat="40.61953619274124" lon="9.70909871041882"><ele>22.666666666666664</ele><time>2026-04-25T10:14:57Z</time></trkpt><trkpt lat="40.619368832838774" lon="9.708996449544603"><ele>24.333333333333332</ele><time>2026-04-25T10:14:58Z</time></trkpt><trkpt lat="40.61917975855976" lon="9.708918419477595"><ele>26.0</ele><time>2026-04-25T10:14:59Z</time></trkpt><trkpt lat="40.61896666296942" lon="9.708856503112841"><ele>26.0</ele><time>2026-04-25T10:15:00Z</time></trkpt><trkpt lat="40.618743686446585" lon="9.708793707071436"><ele>26.0</ele><time>2026-04-25T10:15:01Z</time></trkpt><trkpt lat="40.61851633974447" lon="9.708721941952847"><ele>25.0</ele><time>2026-04-25T10:15:02Z</time></trkpt><trkpt lat="40.61828349240508" lon="9.708646318482973"><ele>24.0</ele><time>2026-04-25T10:15:03Z</time></trkpt><trkpt lat="40.61804840801362" lon="9.708569295883274"><ele>24.0</ele><time>2026-04-25T10:15:04Z</time></trkpt><trkpt lat="40.61782102276692" lon="9.708494843398308"><ele>24.0</ele><time>2026-04-25T10:15:05Z</time></trkpt><trkpt lat="40.617616453614566" lon="9.708422995364154"><ele>24.0</ele><time>2026-04-25T10:15:06Z</time></trkpt><trkpt lat="40.61743448803122" lon="9.70834885105514"><ele>25.333333333333336</ele><time>2026-04-25T10:15:07Z</time></trkpt><trkpt lat="40.61727943608388" lon="9.708231831519406"><ele>26.666666666666668</ele><time>2026-04-25T10:15:08Z</time></trkpt><trkpt lat="40.61712307456419" lon="9.70808623580462"><ele>28.0</ele><time>2026-04-25T10:15:09Z</time></trkpt><trkpt lat="40.61694358680618" lon="9.707936272495953"><ele>28.5</ele><time>2026-04-25T10:15:10Z</time></trkpt><trkpt lat="40.61676235543152" lon="9.707759937764315"><ele>29.0</ele><time>2026-04-25T10:15:11Z</time></trkpt><trkpt lat="40.61657098670129" lon="9.707580323642983"><ele>30.0</ele><time>2026-04-25T10:15:12Z</time></trkpt><trkpt lat="40.616378796826766" lon="9.70740037091859"><ele>31.0</ele><time>2026-04-25T10:15:13Z</time></trkpt><trkpt lat="40.61619735304714" lon="9.707230358182183"><ele>31.333333333333336</ele><time>2026-04-25T10:15:14Z</time></trkpt><trkpt lat="40.616024733414754" lon="9.707069172844424"><ele>31.666666666666664</ele><time>2026-04-25T10:15:15Z</time></trkpt><trkpt lat="40.61585337983673" lon="9.706909508702985"><ele>32.0</ele><time>2026-04-25T10:15:16Z</time></trkpt><trkpt lat="40.61568524152668" lon="9.70675319821563"><ele>32.0</ele><time>2026-04-25T10:15:17Z</time></trkpt><trkpt lat="40.61551953654627" lon="9.706598463172172"><ele>32.0</ele><time>2026-04-25T10:15:18Z</time></trkpt><trkpt lat="40.61535586308981" lon="9.706445096557884"><ele>32.0</ele><time>2026-04-25T10:15:19Z</time></trkpt><trkpt lat="40.61519373711749" lon="9.706292089573113"><ele>32.666666666666664</ele><time>2026-04-25T10:15:20Z</time></trkpt><trkpt lat="40.61503048651441" lon="9.706140033136656"><ele>33.333333333333336</ele><time>2026-04-25T10:15:21Z</time></trkpt><trkpt lat="40.61486628970281" lon="9.705987877055206"><ele>34.0</ele><time>2026-04-25T10:15:22Z</time></trkpt><trkpt lat="40.614700856751384" lon="9.705831860738353"><ele>34.0</ele><time>2026-04-25T10:15:23Z</time></trkpt><trkpt lat="40.614531553358596" lon="9.705676905979098"><ele>34.0</ele><time>2026-04-25T10:15:24Z</time></trkpt><trkpt lat="40.614361324870636" lon="9.705516350224274"><ele>34.0</ele><time>2026-04-25T10:15:25Z</time></trkpt><trkpt lat="40.614187420233826" lon="9.705354649216272"><ele>33.66666666666667</ele><time>2026-04-25T10:15:26Z</time></trkpt><trkpt lat="40.614018223085345" lon="9.705194919852179"><ele>33.333333333333336</ele><time>2026-04-25T10:15:27Z</time></trkpt><trkpt lat="40.61384720635868" lon="9.70503252308183"><ele>33.0</ele><time>2026-04-25T10:15:28Z</time></trkpt><trkpt lat="40.61367700869877" lon="9.704871020027335"><ele>32.0</ele><time>2026-04-25T10:15:29Z</time></trkpt><trkpt lat="40.613513564339506" lon="9.704717091015775"><ele>31.0</ele><time>2026-04-25T10:15:30Z</time></trkpt><trkpt lat="40.613353252336466" lon="9.70456664035524"><ele>30.0</ele><time>2026-04-25T10:15:31Z</time></trkpt><trkpt lat="40.613192069948504" lon="9.704422067496733"><ele>30.666666666666664</ele><time>2026-04-25T10:15:32Z</time></trkpt><trkpt lat="40.61302784142805" lon="9.704287948705018"><ele>31.333333333333332</ele><time>2026-04-25T10:15:33Z</time></trkpt><trkpt lat="40.61285825653653" lon="9.704173528311394"><ele>32.0</ele><time>2026-04-25T10:15:34Z</time></trkpt><trkpt lat="40.61267952759436" lon="9.704078257325511"><ele>32.0</ele><time>2026-04-25T10:15:35Z</time></trkpt><trkpt lat="40.61249977613098" lon="9.703994872463234"><ele>32.0</ele><time>2026-04-25T10:15:36Z</time></trkpt><trkpt lat="40.612320798564674" lon="9.703916546920642"><ele>32.0</ele><time>2026-04-25T10:15:37Z</time></trkpt><trkpt lat="40.612147046750955" lon="9.703834527538213"><ele>32.0</ele><time>2026-04-25T10:15:38Z</time></trkpt><trkpt lat="40.611974624504654" lon="9.703753035180348"><ele>32.0</ele><time>2026-04-25T10:15:39Z</time></trkpt><trkpt lat="40.611802243878415" lon="9.70367139494791"><ele>32.0</ele><time>2026-04-25T10:15:40Z</time></trkpt><trkpt lat="40.61162949886241" lon="9.703589769958816"><ele>33.0</ele><time>2026-04-25T10:15:41Z</time></trkpt><trkpt lat="40.611456169028166" lon="9.70350842350223"><ele>34.0</ele><time>2026-04-25T10:15:42Z</time></trkpt><trkpt lat="40.61128354456069" lon="9.703425929635404"><ele>35.0</ele><time>2026-04-25T10:15:43Z</time></trkpt><trkpt lat="40.61111235132606" lon="9.703342160619243"><ele>35.0</ele><time>2026-04-25T10:15:44Z</time></trkpt><trkpt lat="40.61094140157268" lon="9.703259167779697"><ele>35.0</ele><time>2026-04-25T10:15:45Z</time></trkpt><trkpt lat="40.61077028638477" lon="9.703178838785224"><ele>35.0</ele><time>2026-04-25T10:15:46Z</time></trkpt><trkpt lat="40.61059368268995" lon="9.703093649579131"><ele>35.0</ele><time>2026-04-25T10:15:47Z</time></trkpt><trkpt lat="40.61040222387811" lon="9.70300227778677"><ele>35.0</ele><time>2026-04-25T10:15:48Z</time></trkpt><trkpt lat="40.610203247687615" lon="9.702910470987186"><ele>35.0</ele><time>2026-04-25T10:15:49Z</time></trkpt><trkpt lat="40.609996654333756" lon="9.70281430989257"><ele>35.33333333333333</ele><time>2026-04-25T10:15:50Z</time></trkpt><trkpt lat="40.609792274609596" lon="9.702718741332275"><ele>35.666666666666664</ele><time>2026-04-25T10:15:51Z</time></trkpt><trkpt lat="40.60960559273552" lon="9.702626575319178"><ele>36.0</ele><time>2026-04-25T10:15:52Z</time></trkpt><trkpt lat="40.60942515389029" lon="9.70253250848936"><ele>36.0</ele><time>2026-04-25T10:15:53Z</time></trkpt><trkpt lat="40.609251882195295" lon="9.702431781715946"><ele>36.0</ele><time>2026-04-25T10:15:54Z</time></trkpt><trkpt lat="40.60908190500532" lon="9.702322597808198"><ele>36.0</ele><time>2026-04-25T10:15:55Z</time></trkpt><trkpt lat="40.60891076070331" lon="9.702208371385789"><ele>36.0</ele><time>2026-04-25T10:15:56Z</time></trkpt><trkpt lat="40.60872854000476" lon="9.702090096291979"><ele>36.0</ele><time>2026-04-25T10:15:57Z</time></trkpt><trkpt lat="40.608539033442725" lon="9.701966714191707"><ele>36.0</ele><time>2026-04-25T10:15:58Z</time></trkpt><trkpt lat="40.60833910613552" lon="9.701839398353817"><ele>36.333333333333336</ele><time>2026-04-25T10:15:59Z</time></trkpt><trkpt lat="40.6081438263198" lon="9.701715659530208"><ele>36.66666666666667</ele><time>2026-04-25T10:16:00Z</time></trkpt><trkpt lat="40.60796180115941" lon="9.701598405592597"><ele>37.0</ele><time>2026-04-25T10:16:01Z</time></trkpt><trkpt lat="40.60779255537482" lon="9.701481753050082"><ele>37.0</ele><time>2026-04-25T10:16:02Z</time></trkpt><trkpt lat="40.607630113457034" lon="9.701347832036669"><ele>37.0</ele><time>2026-04-25T10:16:03Z</time></trkpt><trkpt lat="40.60746538373232" lon="9.70119144830998"><ele>37.0</ele><time>2026-04-25T10:16:04Z</time></trkpt><trkpt lat="40.607305458856885" lon="9.701032949810491"><ele>36.66666666666667</ele><time>2026-04-25T10:16:05Z</time></trkpt><trkpt lat="40.607157153421724" lon="9.700892762176236"><ele>36.333333333333336</ele><time>2026-04-25T10:16:06Z</time></trkpt><trkpt lat="40.60700846550511" lon="9.700754855836465"><ele>36.0</ele><time>2026-04-25T10:16:07Z</time></trkpt><trkpt lat="40.606846347246666" lon="9.700608059832367"><ele>36.0</ele><time>2026-04-25T10:16:08Z</time></trkpt><trkpt lat="40.60667984630165" lon="9.700462531480754"><ele>36.0</ele><time>2026-04-25T10:16:09Z</time></trkpt><trkpt lat="40.60651979037479" lon="9.700311612053152"><ele>36.0</ele><time>2026-04-25T10:16:10Z</time></trkpt><trkpt lat="40.606356969129614" lon="9.700160923807585"><ele>36.0</ele><time>2026-04-25T10:16:11Z</time></trkpt><trkpt lat="40.606192521013924" lon="9.700009352962194"><ele>36.0</ele><time>2026-04-25T10:16:12Z</time></trkpt><trkpt lat="40.606024780755234" lon="9.699855652713552"><ele>36.0</ele><time>2026-04-25T10:16:13Z</time></trkpt><trkpt lat="40.60585259967451" lon="9.699700197494298"><ele>35.333333333333336</ele><time>2026-04-25T10:16:14Z</time></trkpt><trkpt lat="40.60568275642206" lon="9.69953826258119"><ele>34.66666666666667</ele><time>2026-04-25T10:16:15Z</time></trkpt><trkpt lat="40.60550898565584" lon="9.699381156159339"><ele>34.0</ele><time>2026-04-25T10:16:16Z</time></trkpt><trkpt lat="40.60533524914959" lon="9.699219956924098"><ele>32.0</ele><time>2026-04-25T10:16:17Z</time></trkpt><trkpt lat="40.605160791295276" lon="9.699056925659082"><ele>30.0</ele><time>2026-04-25T10:16:18Z</time></trkpt><trkpt lat="40.6049847065854" lon="9.698890630766762"><ele>28.0</ele><time>2026-04-25T10:16:19Z</time></trkpt><trkpt lat="40.604806816743775" lon="9.698728791363951"><ele>27.666666666666668</ele><time>2026-04-25T10:16:20Z</time></trkpt><trkpt lat="40.60462964642179" lon="9.698565195304463"><ele>27.333333333333336</ele><time>2026-04-25T10:16:21Z</time></trkpt><trkpt lat="40.6044459276726" lon="9.698394022769104"><ele>27.0</ele><time>2026-04-25T10:16:22Z</time></trkpt><trkpt lat="40.60425039020975" lon="9.69821408927292"><ele>27.0</ele><time>2026-04-25T10:16:23Z</time></trkpt><trkpt lat="40.604058191870216" lon="9.698041207445794"><ele>27.0</ele><time>2026-04-25T10:16:24Z</time></trkpt><trkpt lat="40.60388603397768" lon="9.69787396401077"><ele>27.0</ele><time>2026-04-25T10:16:25Z</time></trkpt><trkpt lat="40.603707650576794" lon="9.697707666047295"><ele>26.0</ele><time>2026-04-25T10:16:26Z</time></trkpt><trkpt lat="40.6035189619365" lon="9.697536785581848"><ele>25.0</ele><time>2026-04-25T10:16:27Z</time></trkpt><trkpt lat="40.60332165511857" lon="9.697354528719934"><ele>25.0</ele><time>2026-04-25T10:16:28Z</time></trkpt><trkpt lat="40.603124408746886" lon="9.697171489065724"><ele>25.0</ele><time>2026-04-25T10:16:29Z</time></trkpt><trkpt lat="40.602930153742385" lon="9.696991621775402"><ele>27.5</ele><time>2026-04-25T10:16:30Z</time></trkpt><trkpt lat="40.60274160623033" lon="9.69681528959751"><ele>30.0</ele><time>2026-04-25T10:16:31Z</time></trkpt><trkpt lat="40.602553497398205" lon="9.696643098705856"><ele>30.0</ele><time>2026-04-25T10:16:32Z</time></trkpt><trkpt lat="40.60236578062555" lon="9.696470865178267"><ele>30.0</ele><time>2026-04-25T10:16:33Z</time></trkpt><trkpt lat="40.602180043039745" lon="9.696298944258402"><ele>29.0</ele><time>2026-04-25T10:16:34Z</time></trkpt><trkpt lat="40.60199290261988" lon="9.696127634748828"><ele>28.0</ele><time>2026-04-25T10:16:35Z</time></trkpt><trkpt lat="40.60180976552123" lon="9.695958097853792"><ele>28.0</ele><time>2026-04-25T10:16:36Z</time></trkpt><trkpt lat="40.60162803894115" lon="9.69578728401929"><ele>28.0</ele><time>2026-04-25T10:16:37Z</time></trkpt><trkpt lat="40.60145234505656" lon="9.695622711294677"><ele>28.0</ele><time>2026-04-25T10:16:38Z</time></trkpt><trkpt lat="40.60127966781097" lon="9.695467804017614"><ele>28.333333333333336</ele><time>2026-04-25T10:16:39Z</time></trkpt><trkpt lat="40.60111303782907" lon="9.695317479991607"><ele>28.666666666666664</ele><time>2026-04-25T10:16:40Z</time></trkpt><trkpt lat="40.60094685037263" lon="9.695189284450432"><ele>29.0</ele><time>2026-04-25T10:16:41Z</time></trkpt><trkpt lat="40.60077449227507" lon="9.695087090524039"><ele>31.0</ele><time>2026-04-25T10:16:42Z</time></trkpt><trkpt lat="40.60058678510734" lon="9.695015313022033"><ele>33.0</ele><time>2026-04-25T10:16:43Z</time></trkpt><trkpt lat="40.600377941839895" lon="9.69497267457266"><ele>35.0</ele><time>2026-04-25T10:16:44Z</time></trkpt><trkpt lat="40.60015381651785" lon="9.69494314101329"><ele>36.0</ele><time>2026-04-25T10:16:45Z</time></trkpt><trkpt lat="40.599917600192505" lon="9.694907011165183"><ele>37.0</ele><time>2026-04-25T10:16:46Z</time></trkpt><trkpt lat="40.59967454035759" lon="9.694861586793092"><ele>38.0</ele><time>2026-04-25T10:16:47Z</time></trkpt><trkpt lat="40.59942362974548" lon="9.69479452310854"><ele>39.0</ele><time>2026-04-25T10:16:48Z</time></trkpt><trkpt lat="40.599163339772396" lon="9.69474545755798"><ele>39.0</ele><time>2026-04-25T10:16:49Z</time></trkpt><trkpt lat="40.598895376511116" lon="9.694725835189905"><ele>39.0</ele><time>2026-04-25T10:16:50Z</time></trkpt><trkpt lat="40.5986212462824" lon="9.694689129700151"><ele>41.0</ele><time>2026-04-25T10:16:51Z</time></trkpt><trkpt lat="40.59835019009036" lon="9.694659033690714"><ele>43.0</ele><time>2026-04-25T10:16:52Z</time></trkpt><trkpt lat="40.59809967884779" lon="9.694626224518506"><ele>43.0</ele><time>2026-04-25T10:16:53Z</time></trkpt><trkpt lat="40.59785885801382" lon="9.694599199433592"><ele>43.0</ele><time>2026-04-25T10:16:54Z</time></trkpt><trkpt lat="40.5976101742117" lon="9.69456847115955"><ele>46.0</ele><time>2026-04-25T10:16:55Z</time></trkpt><trkpt lat="40.59735749188983" lon="9.694539007781774"><ele>49.0</ele><time>2026-04-25T10:16:56Z</time></trkpt><trkpt lat="40.59711668714505" lon="9.694509400479726"><ele>51.0</ele><time>2026-04-25T10:16:57Z</time></trkpt><trkpt lat="40.59689647639048" lon="9.694484521518147"><ele>53.0</ele><time>2026-04-25T10:16:58Z</time></trkpt><trkpt lat="40.596693377450855" lon="9.694453066315653"><ele>55.0</ele><time>2026-04-25T10:16:59Z</time></trkpt><trkpt lat="40.59649688091459" lon="9.694430899128848"><ele>54.666666666666664</ele><time>2026-04-25T10:17:00Z</time></trkpt><trkpt lat="40.59630459650123" lon="9.694407476635314"><ele>54.33333333333333</ele><time>2026-04-25T10:17:01Z</time></trkpt><trkpt lat="40.59612011098613" lon="9.694384621595272"><ele>54.0</ele><time>2026-04-25T10:17:02Z</time></trkpt><trkpt lat="40.5959470252486" lon="9.694361448707118"><ele>55.0</ele><time>2026-04-25T10:17:03Z</time></trkpt><trkpt lat="40.5957825775624" lon="9.694343413335549"><ele>56.0</ele><time>2026-04-25T10:17:04Z</time></trkpt><trkpt lat="40.59561747426657" lon="9.694332393164819"><ele>57.0</ele><time>2026-04-25T10:17:05Z</time></trkpt><trkpt lat="40.59544400082052" lon="9.694326970286822"><ele>55.33333333333333</ele><time>2026-04-25T10:17:06Z</time></trkpt><trkpt lat="40.59525903782684" lon="9.694321714257539"><ele>53.666666666666664</ele><time>2026-04-25T10:17:07Z</time></trkpt><trkpt lat="40.59507262666356" lon="9.69431749917772"><ele>52.0</ele><time>2026-04-25T10:17:08Z</time></trkpt><trkpt lat="40.59489792822651" lon="9.694310729565597"><ele>52.0</ele><time>2026-04-25T10:17:09Z</time></trkpt><trkpt lat="40.59473098802062" lon="9.6943056231157"><ele>52.0</ele><time>2026-04-25T10:17:10Z</time></trkpt><trkpt lat="40.5945653185098" lon="9.694299668839841"><ele>52.0</ele><time>2026-04-25T10:17:11Z</time></trkpt><trkpt lat="40.59439828697085" lon="9.694291718886456"><ele>51.0</ele><time>2026-04-25T10:17:12Z</time></trkpt><trkpt lat="40.59422478131066" lon="9.694283197756247"><ele>50.0</ele><time>2026-04-25T10:17:13Z</time></trkpt><trkpt lat="40.594033622661335" lon="9.694277219168256"><ele>49.0</ele><time>2026-04-25T10:17:14Z</time></trkpt><trkpt lat="40.59382269711228" lon="9.694266667876704"><ele>49.33333333333333</ele><time>2026-04-25T10:17:15Z</time></trkpt><trkpt lat="40.59360456707402" lon="9.694248977476132"><ele>49.66666666666667</ele><time>2026-04-25T10:17:16Z</time></trkpt><trkpt lat="40.5933896058012" lon="9.69422312310599"><ele>50.0</ele><time>2026-04-25T10:17:17Z</time></trkpt><trkpt lat="40.59316379848327" lon="9.694186069871163"><ele>50.0</ele><time>2026-04-25T10:17:18Z</time></trkpt><trkpt lat="40.592930849275525" lon="9.694140207639961"><ele>50.0</ele><time>2026-04-25T10:17:19Z</time></trkpt><trkpt lat="40.59270667742676" lon="9.694097491427915"><ele>49.66666666666667</ele><time>2026-04-25T10:17:20Z</time></trkpt><trkpt lat="40.592500237799825" lon="9.694056670667416"><ele>49.33333333333333</ele><time>2026-04-25T10:17:21Z</time></trkpt><trkpt lat="40.59230062335245" lon="9.69402185890808"><ele>49.0</ele><time>2026-04-25T10:17:22Z</time></trkpt><trkpt lat="40.59210403560548" lon="9.69398427468086"><ele>48.0</ele><time>2026-04-25T10:17:23Z</time></trkpt><trkpt lat="40.59190966348196" lon="9.693945897995377"><ele>47.0</ele><time>2026-04-25T10:17:24Z</time></trkpt><trkpt lat="40.59171875784977" lon="9.69390715717547"><ele>46.0</ele><time>2026-04-25T10:17:25Z</time></trkpt><trkpt lat="40.59153110878191" lon="9.69387175444345"><ele>46.0</ele><time>2026-04-25T10:17:26Z</time></trkpt><trkpt lat="40.59135015960736" lon="9.693836943601584"><ele>46.0</ele><time>2026-04-25T10:17:27Z</time></trkpt><trkpt lat="40.59117508347062" lon="9.693803547159872"><ele>46.0</ele><time>2026-04-25T10:17:28Z</time></trkpt><trkpt lat="40.59100460073841" lon="9.693768212170191"><ele>46.0</ele><time>2026-04-25T10:17:29Z</time></trkpt><trkpt lat="40.5908396777569" lon="9.693732986406777"><ele>46.0</ele><time>2026-04-25T10:17:30Z</time></trkpt><trkpt lat="40.59068415045542" lon="9.69370101001951"><ele>46.0</ele><time>2026-04-25T10:17:31Z</time></trkpt><trkpt lat="40.59053730480677" lon="9.693674220393842"><ele>46.0</ele><time>2026-04-25T10:17:32Z</time></trkpt><trkpt lat="40.590404916880956" lon="9.693645698547046"><ele>46.0</ele><time>2026-04-25T10:17:33Z</time></trkpt><trkpt lat="40.590281281825845" lon="9.693620194369233"><ele>46.0</ele><time>2026-04-25T10:17:34Z</time></trkpt><trkpt lat="40.590161597878314" lon="9.693594261133931"><ele>46.0</ele><time>2026-04-25T10:17:35Z</time></trkpt><trkpt lat="40.59003540386949" lon="9.693573441696032"><ele>47.0</ele><time>2026-04-25T10:17:36Z</time></trkpt><trkpt lat="40.58990555734475" lon="9.693549258510505"><ele>48.0</ele><time>2026-04-25T10:17:37Z</time></trkpt><trkpt lat="40.589774074911524" lon="9.693526531504903"><ele>49.0</ele><time>2026-04-25T10:17:38Z</time></trkpt><trkpt lat="40.589645288437566" lon="9.693498665706809"><ele>50.0</ele><time>2026-04-25T10:17:39Z</time></trkpt><trkpt lat="40.58952064602932" lon="9.693462858436702"><ele>50.25</ele><time>2026-04-25T10:17:40Z</time></trkpt><trkpt lat="40.58939385263383" lon="9.693418563214532"><ele>50.5</ele><time>2026-04-25T10:17:41Z</time></trkpt><trkpt lat="40.589273592401284" lon="9.693369845110102"><ele>50.75</ele><time>2026-04-25T10:17:42Z</time></trkpt><trkpt lat="40.589146291255005" lon="9.693313769168737"><ele>51.0</ele><time>2026-04-25T10:17:43Z</time></trkpt><trkpt lat="40.58899374643546" lon="9.693244729387397"><ele>51.0</ele><time>2026-04-25T10:17:44Z</time></trkpt><trkpt lat="40.58882043134478" lon="9.693167061942003"><ele>51.0</ele><time>2026-04-25T10:17:45Z</time></trkpt><trkpt lat="40.58865481174782" lon="9.69309451760303"><ele>51.0</ele><time>2026-04-25T10:17:46Z</time></trkpt><trkpt lat="40.58849996218" lon="9.693025046259883"><ele>49.0</ele><time>2026-04-25T10:17:47Z</time></trkpt><trkpt lat="40.588348511338616" lon="9.692962949256419"><ele>47.0</ele><time>2026-04-25T10:17:48Z</time></trkpt><trkpt lat="40.588203020430726" lon="9.692898065202202"><ele>45.0</ele><time>2026-04-25T10:17:49Z</time></trkpt><trkpt lat="40.5880621967378" lon="9.692837269719462"><ele>45.0</ele><time>2026-04-25T10:17:50Z</time></trkpt><trkpt lat="40.58792821676606" lon="9.692779149763814"><ele>45.0</ele><time>2026-04-25T10:17:51Z</time></trkpt><trkpt lat="40.58779711445143" lon="9.69272021934133"><ele>45.0</ele><time>2026-04-25T10:17:52Z</time></trkpt><trkpt lat="40.587669691659336" lon="9.692659563520445"><ele>45.0</ele><time>2026-04-25T10:17:53Z</time></trkpt><trkpt lat="40.58754942847669" lon="9.692607485273449"><ele>46.0</ele><time>2026-04-25T10:17:54Z</time></trkpt><trkpt lat="40.58744198656562" lon="9.692565156944466"><ele>47.0</ele><time>2026-04-25T10:17:55Z</time></trkpt><trkpt lat="40.58734176995314" lon="9.692535042708258"><ele>48.0</ele><time>2026-04-25T10:17:56Z</time></trkpt><trkpt lat="40.587248225875584" lon="9.692522054692299"><ele>49.0</ele><time>2026-04-25T10:17:57Z</time></trkpt><trkpt lat="40.58714618017973" lon="9.692529881407554"><ele>50.0</ele><time>2026-04-25T10:17:58Z</time></trkpt><trkpt lat="40.587022248664624" lon="9.692551609643097"><ele>51.0</ele><time>2026-04-25T10:17:59Z</time></trkpt><trkpt lat="40.586873262665186" lon="9.69258397814816"><ele>52.0</ele><time>2026-04-25T10:18:00Z</time></trkpt><trkpt lat="40.58671027804189" lon="9.69261833894327"><ele>53.0</ele><time>2026-04-25T10:18:01Z</time></trkpt><trkpt lat="40.58656438337727" lon="9.692648626111925"><ele>53.0</ele><time>2026-04-25T10:18:02Z</time></trkpt><trkpt lat="40.58643402223453" lon="9.692678857099626"><ele>53.0</ele><time>2026-04-25T10:18:03Z</time></trkpt><trkpt lat="40.58631699480921" lon="9.692706835874114"><ele>53.0</ele><time>2026-04-25T10:18:04Z</time></trkpt><trkpt lat="40.5862042307225" lon="9.6927302396046"><ele>53.0</ele><time>2026-04-25T10:18:05Z</time></trkpt><trkpt lat="40.58611082981739" lon="9.692749592184915"><ele>53.333333333333336</ele><time>2026-04-25T10:18:06Z</time></trkpt><trkpt lat="40.58603948380879" lon="9.692766520161408"><ele>53.66666666666667</ele><time>2026-04-25T10:18:07Z</time></trkpt><trkpt lat="40.58594971806031" lon="9.69275566597599"><ele>54.0</ele><time>2026-04-25T10:18:09Z</time></trkpt><trkpt lat="40.58588706584063" lon="9.692687474522335"><ele>54.33333333333333</ele><time>2026-04-25T10:18:12Z</time></trkpt><trkpt lat="40.585839161474695" lon="9.692630720982589"><ele>54.666666666666664</ele><time>2026-04-25T10:18:16Z</time></trkpt><trkpt lat="40.58571586360241" lon="9.692600373389165"><ele>55.0</ele><time>2026-04-25T10:18:18Z</time></trkpt><trkpt lat="40.585616244892236" lon="9.692631317410768"><ele>55.0</ele><time>2026-04-25T10:18:19Z</time></trkpt><trkpt lat="40.585496011912845" lon="9.692692042851048"><ele>55.0</ele><time>2026-04-25T10:18:20Z</time></trkpt><trkpt lat="40.58535492321656" lon="9.69279460233784"><ele>55.0</ele><time>2026-04-25T10:18:21Z</time></trkpt><trkpt lat="40.58520732891434" lon="9.692916974187904"><ele>50.666666666666664</ele><time>2026-04-25T10:18:22Z</time></trkpt><trkpt lat="40.58503814098833" lon="9.693067584513598"><ele>46.33333333333333</ele><time>2026-04-25T10:18:23Z</time></trkpt><trkpt lat="40.5848626945001" lon="9.69321724140815"><ele>42.0</ele><time>2026-04-25T10:18:24Z</time></trkpt><trkpt lat="40.58467183847045" lon="9.693376860483657"><ele>43.0</ele><time>2026-04-25T10:18:25Z</time></trkpt><trkpt lat="40.58448415904559" lon="9.693535694205027"><ele>44.0</ele><time>2026-04-25T10:18:26Z</time></trkpt><trkpt lat="40.584315733073154" lon="9.693684832076006"><ele>45.0</ele><time>2026-04-25T10:18:27Z</time></trkpt><trkpt lat="40.58415899694356" lon="9.693827494652057"><ele>45.0</ele><time>2026-04-25T10:18:28Z</time></trkpt><trkpt lat="40.58401579718464" lon="9.693962290585514"><ele>45.0</ele><time>2026-04-25T10:18:29Z</time></trkpt><trkpt lat="40.58389642611406" lon="9.69408335264983"><ele>45.0</ele><time>2026-04-25T10:18:30Z</time></trkpt><trkpt lat="40.583789086770466" lon="9.694190517038178"><ele>45.0</ele><time>2026-04-25T10:18:31Z</time></trkpt><trkpt lat="40.583685569441975" lon="9.694294425272995"><ele>45.0</ele><time>2026-04-25T10:18:32Z</time></trkpt><trkpt lat="40.58358811991672" lon="9.694391757208436"><ele>45.0</ele><time>2026-04-25T10:18:33Z</time></trkpt><trkpt lat="40.58349797834934" lon="9.694482634019415"><ele>45.0</ele><time>2026-04-25T10:18:34Z</time></trkpt><trkpt lat="40.583415725505645" lon="9.694567896485232"><ele>46.0</ele><time>2026-04-25T10:18:35Z</time></trkpt><trkpt lat="40.58332869726306" lon="9.694653631677864"><ele>47.0</ele><time>2026-04-25T10:18:36Z</time></trkpt><trkpt lat="40.58323886058351" lon="9.694743327721502"><ele>48.0</ele><time>2026-04-25T10:18:37Z</time></trkpt><trkpt lat="40.58314765991048" lon="9.694835173139312"><ele>49.0</ele><time>2026-04-25T10:18:38Z</time></trkpt><trkpt lat="40.58305324512329" lon="9.69493271630414"><ele>49.0</ele><time>2026-04-25T10:18:39Z</time></trkpt><trkpt lat="40.58295668894663" lon="9.69502496639944"><ele>49.0</ele><time>2026-04-25T10:18:40Z</time></trkpt><trkpt lat="40.58283949752319" lon="9.695131490305291"><ele>49.0</ele><time>2026-04-25T10:18:41Z</time></trkpt><trkpt lat="40.58272095807773" lon="9.695221088880764"><ele>49.0</ele><time>2026-04-25T10:18:42Z</time></trkpt><trkpt lat="40.58261164555533" lon="9.695287286151379"><ele>49.800000000000004</ele><time>2026-04-25T10:18:43Z</time></trkpt><trkpt lat="40.58250603306164" lon="9.69533678051594"><ele>50.6</ele><time>2026-04-25T10:18:44Z</time></trkpt><trkpt lat="40.58241178048131" lon="9.695378686200277"><ele>51.4</ele><time>2026-04-25T10:18:45Z</time></trkpt><trkpt lat="40.58232311938199" lon="9.69542147846314"><ele>52.2</ele><time>2026-04-25T10:18:46Z</time></trkpt><trkpt lat="40.582239979243184" lon="9.69546264190123"><ele>53.0</ele><time>2026-04-25T10:18:47Z</time></trkpt><trkpt lat="40.5821575304" lon="9.695502421035116"><ele>53.0</ele><time>2026-04-25T10:18:48Z</time></trkpt><trkpt lat="40.58207875119013" lon="9.695542507262939"><ele>53.0</ele><time>2026-04-25T10:18:49Z</time></trkpt><trkpt lat="40.581994012639726" lon="9.695583101743596"><ele>53.0</ele><time>2026-04-25T10:18:50Z</time></trkpt><trkpt lat="40.581904464839766" lon="9.695630450212672"><ele>53.0</ele><time>2026-04-25T10:18:51Z</time></trkpt><trkpt lat="40.581807531128156" lon="9.695684606101931"><ele>53.0</ele><time>2026-04-25T10:18:52Z</time></trkpt><trkpt lat="40.58171184526091" lon="9.695731809249322"><ele>52.8</ele><time>2026-04-25T10:18:53Z</time></trkpt><trkpt lat="40.58162020153332" lon="9.695775934463189"><ele>52.599999999999994</ele><time>2026-04-25T10:18:54Z</time></trkpt><trkpt lat="40.58152948090459" lon="9.695821558173352"><ele>52.400000000000006</ele><time>2026-04-25T10:18:55Z</time></trkpt><trkpt lat="40.58143723796376" lon="9.695864044568816"><ele>52.2</ele><time>2026-04-25T10:18:56Z</time></trkpt><trkpt lat="40.58135938188104" lon="9.6958999357013"><ele>52.0</ele><time>2026-04-25T10:18:57Z</time></trkpt><trkpt lat="40.581279072261744" lon="9.69593193496469"><ele>51.6</ele><time>2026-04-25T10:18:59Z</time></trkpt><trkpt lat="40.58118063306981" lon="9.695972311697082"><ele>51.2</ele><time>2026-04-25T10:19:01Z</time></trkpt><trkpt lat="40.581098299106536" lon="9.695989607220483"><ele>50.8</ele><time>2026-04-25T10:19:02Z</time></trkpt><trkpt lat="40.58100468085797" lon="9.695992803002294"><ele>50.4</ele><time>2026-04-25T10:19:03Z</time></trkpt><trkpt lat="40.58090112495829" lon="9.695979262807464"><ele>50.0</ele><time>2026-04-25T10:19:04Z</time></trkpt><trkpt lat="40.580790246151444" lon="9.695948630351175"><ele>50.0</ele><time>2026-04-25T10:19:05Z</time></trkpt><trkpt lat="40.580671450549" lon="9.695913406032332"><ele>50.0</ele><time>2026-04-25T10:19:06Z</time></trkpt><trkpt lat="40.580547803599124" lon="9.69587271962161"><ele>50.0</ele><time>2026-04-25T10:19:07Z</time></trkpt><trkpt lat="40.58042913798892" lon="9.69582939120501"><ele>50.0</ele><time>2026-04-25T10:19:08Z</time></trkpt><trkpt lat="40.58031899733894" lon="9.695787932906097"><ele>49.0</ele><time>2026-04-25T10:19:09Z</time></trkpt><trkpt lat="40.580212724308026" lon="9.695749433318909"><ele>48.0</ele><time>2026-04-25T10:19:10Z</time></trkpt><trkpt lat="40.58011097823716" lon="9.695714209483286"><ele>47.0</ele><time>2026-04-25T10:19:11Z</time></trkpt><trkpt lat="40.5800102769669" lon="9.695680533064385"><ele>46.0</ele><time>2026-04-25T10:19:12Z</time></trkpt><trkpt lat="40.57990316298702" lon="9.695641294828784"><ele>45.0</ele><time>2026-04-25T10:19:13Z</time></trkpt><trkpt lat="40.57978946613529" lon="9.69559863097732"><ele>45.0</ele><time>2026-04-25T10:19:14Z</time></trkpt><trkpt lat="40.579676934666956" lon="9.695563732730488"><ele>45.0</ele><time>2026-04-25T10:19:15Z</time></trkpt><trkpt lat="40.57956856262117" lon="9.695531914682132"><ele>45.0</ele><time>2026-04-25T10:19:16Z</time></trkpt><trkpt lat="40.57946444435016" lon="9.69549870758898"><ele>45.0</ele><time>2026-04-25T10:19:17Z</time></trkpt><trkpt lat="40.579364185567" lon="9.695466240658098"><ele>45.0</ele><time>2026-04-25T10:19:18Z</time></trkpt><trkpt lat="40.579266968248014" lon="9.695434330450745"><ele>45.166666666666664</ele><time>2026-04-25T10:19:19Z</time></trkpt><trkpt lat="40.57917572414051" lon="9.695401739884382"><ele>45.333333333333336</ele><time>2026-04-25T10:19:20Z</time></trkpt><trkpt lat="40.579085070004204" lon="9.69537254824034"><ele>45.5</ele><time>2026-04-25T10:19:21Z</time></trkpt><trkpt lat="40.57899964144643" lon="9.695342695939578"><ele>45.66666666666667</ele><time>2026-04-25T10:19:22Z</time></trkpt><trkpt lat="40.57891666634413" lon="9.69531284990164"><ele>45.833333333333336</ele><time>2026-04-25T10:19:23Z</time></trkpt><trkpt lat="40.57883738291535" lon="9.695279247006242"><ele>46.0</ele><time>2026-04-25T10:19:24Z</time></trkpt><trkpt lat="40.57876414136649" lon="9.695226446012446"><ele>46.0</ele><time>2026-04-25T10:19:25Z</time></trkpt><trkpt lat="40.57868847432153" lon="9.695141869489298"><ele>46.0</ele><time>2026-04-25T10:19:26Z</time></trkpt><trkpt lat="40.57861711619413" lon="9.695037310107374"><ele>46.0</ele><time>2026-04-25T10:19:27Z</time></trkpt><trkpt lat="40.578559897907745" lon="9.694931500569362"><ele>46.0</ele><time>2026-04-25T10:19:28Z</time></trkpt><trkpt lat="40.57850188816718" lon="9.694835832436265"><ele>46.0</ele><time>2026-04-25T10:19:29Z</time></trkpt><trkpt lat="40.57844161485428" lon="9.694745369782366"><ele>45.5</ele><time>2026-04-25T10:19:30Z</time></trkpt><trkpt lat="40.57838035092184" lon="9.694653090213802"><ele>45.0</ele><time>2026-04-25T10:19:31Z</time></trkpt><trkpt lat="40.57832186186089" lon="9.694563005403602"><ele>44.5</ele><time>2026-04-25T10:19:32Z</time></trkpt><trkpt lat="40.5782625358996" lon="9.694475169565921"><ele>44.0</ele><time>2026-04-25T10:19:33Z</time></trkpt><trkpt lat="40.57820666469878" lon="9.694389258937182"><ele>43.5</ele><time>2026-04-25T10:19:34Z</time></trkpt><trkpt lat="40.578154346919355" lon="9.694301772339752"><ele>43.0</ele><time>2026-04-25T10:19:35Z</time></trkpt><trkpt lat="40.578102207542166" lon="9.694205870412624"><ele>43.0</ele><time>2026-04-25T10:19:36Z</time></trkpt><trkpt lat="40.57805162740321" lon="9.69411635693812"><ele>43.0</ele><time>2026-04-25T10:19:37Z</time></trkpt><trkpt lat="40.57799882857786" lon="9.694028399966827"><ele>43.0</ele><time>2026-04-25T10:19:38Z</time></trkpt><trkpt lat="40.577943452962444" lon="9.693943427944138"><ele>43.0</ele><time>2026-04-25T10:19:39Z</time></trkpt><trkpt lat="40.57788517941868" lon="9.693856504603117"><ele>43.0</ele><time>2026-04-25T10:19:40Z</time></trkpt><trkpt lat="40.577823292955166" lon="9.693779894165822"><ele>43.0</ele><time>2026-04-25T10:19:41Z</time></trkpt><trkpt lat="40.57775613193123" lon="9.693722252526817"><ele>42.333333333333336</ele><time>2026-04-25T10:19:42Z</time></trkpt><trkpt lat="40.577681457568666" lon="9.693686631927577"><ele>41.66666666666667</ele><time>2026-04-25T10:19:43Z</time></trkpt><trkpt lat="40.57760803312999" lon="9.69366260634906"><ele>41.0</ele><time>2026-04-25T10:19:44Z</time></trkpt><trkpt lat="40.57753429207994" lon="9.693645740429007"><ele>40.333333333333336</ele><time>2026-04-25T10:19:45Z</time></trkpt><trkpt lat="40.57746444828028" lon="9.693620099419327"><ele>39.666666666666664</ele><time>2026-04-25T10:19:46Z</time></trkpt><trkpt lat="40.57738610486456" lon="9.693599773733537"><ele>39.0</ele><time>2026-04-25T10:19:47Z</time></trkpt><trkpt lat="40.5772998814532" lon="9.693586713949294"><ele>39.0</ele><time>2026-04-25T10:19:48Z</time></trkpt><trkpt lat="40.57721162339635" lon="9.693575178170299"><ele>39.0</ele><time>2026-04-25T10:19:49Z</time></trkpt><trkpt lat="40.57712304464464" lon="9.693552192537489"><ele>39.0</ele><time>2026-04-25T10:19:50Z</time></trkpt><trkpt lat="40.57703800829482" lon="9.693532746031725"><ele>39.0</ele><time>2026-04-25T10:19:51Z</time></trkpt><trkpt lat="40.57696311361614" lon="9.693518643842534"><ele>39.0</ele><time>2026-04-25T10:19:52Z</time></trkpt><trkpt lat="40.576891015250055" lon="9.693507371878555"><ele>39.0</ele><time>2026-04-25T10:19:53Z</time></trkpt><trkpt lat="40.57677319485277" lon="9.693474570756715"><ele>38.4</ele><time>2026-04-25T10:19:55Z</time></trkpt><trkpt lat="40.576710554197916" lon="9.693489614005998"><ele>37.8</ele><time>2026-04-25T10:19:56Z</time></trkpt><trkpt lat="40.576605464433655" lon="9.693505221204212"><ele>37.2</ele><time>2026-04-25T10:19:58Z</time></trkpt><trkpt lat="40.57650697414478" lon="9.693510851593327"><ele>36.6</ele><time>2026-04-25T10:20:00Z</time></trkpt><trkpt lat="40.57639327254618" lon="9.69351992025606"><ele>36.0</ele><time>2026-04-25T10:20:02Z</time></trkpt><trkpt lat="40.57628163274297" lon="9.693537829216721"><ele>36.0</ele><time>2026-04-25T10:20:04Z</time></trkpt><trkpt lat="40.57616641975845" lon="9.69354952428868"><ele>36.0</ele><time>2026-04-25T10:20:06Z</time></trkpt><trkpt lat="40.576040508190005" lon="9.693540675162595"><ele>36.0</ele><time>2026-04-25T10:20:08Z</time></trkpt><trkpt lat="40.575968666343584" lon="9.693515620015143"><ele>36.0</ele><time>2026-04-25T10:20:09Z</time></trkpt><trkpt lat="40.575895778117776" lon="9.693488567467321"><ele>36.0</ele><time>2026-04-25T10:20:10Z</time></trkpt><trkpt lat="40.57585192124245" lon="9.693398817673884"><ele>36.0</ele><time>2026-04-25T10:20:11Z</time></trkpt><trkpt lat="40.57578776677219" lon="9.693347880273677"><ele>36.0</ele><time>2026-04-25T10:20:12Z</time></trkpt><trkpt lat="40.57571977798508" lon="9.693295513631147"><ele>36.0</ele><time>2026-04-25T10:20:13Z</time></trkpt><trkpt lat="40.57564911669968" lon="9.693241599077284"><ele>36.0</ele><time>2026-04-25T10:20:14Z</time></trkpt><trkpt lat="40.57558927097536" lon="9.69319627271605"><ele>36.0</ele><time>2026-04-25T10:20:15Z</time></trkpt><trkpt lat="40.57549726240278" lon="9.693126586642158"><ele>36.0</ele><time>2026-04-25T10:20:17Z</time></trkpt><trkpt lat="40.575439095351115" lon="9.69308253177338"><ele>36.0</ele><time>2026-04-25T10:20:19Z</time></trkpt><trkpt lat="40.57556077173475" lon="9.693267453265566"><ele>36.0</ele><time>2026-04-25T10:20:32Z</time></trkpt><trkpt lat="40.57566574519181" lon="9.693339336622047"><ele>36.0</ele><time>2026-04-25T10:20:33Z</time></trkpt><trkpt lat="40.57575582832746" lon="9.69340224498428"><ele>36.0</ele><time>2026-04-25T10:20:34Z</time></trkpt><trkpt lat="40.57583005190565" lon="9.693460197156682"><ele>36.0</ele><time>2026-04-25T10:20:35Z</time></trkpt><trkpt lat="40.57588878474404" lon="9.693506912758378"><ele>36.0</ele><time>2026-04-25T10:20:36Z</time></trkpt><trkpt lat="40.575945302229705" lon="9.693553593411435"><ele>36.0</ele><time>2026-04-25T10:20:37Z</time></trkpt><trkpt lat="40.57599997552828" lon="9.693600823575535"><ele>31.0</ele><time>2026-04-25T10:20:38Z</time></trkpt><trkpt lat="40.576066622482585" lon="9.693665441973351"><ele>31.0</ele><time>2026-04-25T10:20:40Z</time></trkpt></trkseg><trkseg><trkpt lat="40.577030561887454" lon="9.694398826768172"><ele>35.25</ele><time>2026-04-25T10:33:55Z</time></trkpt><trkpt lat="40.57709681159165" lon="9.694561033789643"><ele>35.5</ele><time>2026-04-25T10:33:56Z</time></trkpt><trkpt lat="40.57718044272445" lon="9.694748045914382"><ele>35.75</ele><time>2026-04-25T10:33:57Z</time></trkpt><trkpt lat="40.577252027548816" lon="9.694894551463166"><ele>36.0</ele><time>2026-04-25T10:33:58Z</time></trkpt><trkpt lat="40.577309641092086" lon="9.695044864251999"><ele>36.0</ele><time>2026-04-25T10:33:59Z</time></trkpt><trkpt lat="40.577367547021325" lon="9.695183533597204"><ele>36.0</ele><time>2026-04-25T10:34:00Z</time></trkpt><trkpt lat="40.577425058714255" lon="9.695317194373018"><ele>36.0</ele><time>2026-04-25T10:34:01Z</time></trkpt><trkpt lat="40.577476787921555" lon="9.695442003520418"><ele>36.0</ele><time>2026-04-25T10:34:02Z</time></trkpt><trkpt lat="40.57752640041038" lon="9.695555942285337"><ele>36.0</ele><time>2026-04-25T10:34:03Z</time></trkpt><trkpt lat="40.577572716538654" lon="9.695671896368301"><ele>36.0</ele><time>2026-04-25T10:34:04Z</time></trkpt><trkpt lat="40.5776164790207" lon="9.695797975039744"><ele>36.0</ele><time>2026-04-25T10:34:05Z</time></trkpt><trkpt lat="40.577648932729566" lon="9.695934261485478"><ele>36.0</ele><time>2026-04-25T10:34:06Z</time></trkpt><trkpt lat="40.577674115430035" lon="9.696080271362344"><ele>36.0</ele><time>2026-04-25T10:34:07Z</time></trkpt><trkpt lat="40.577702728723715" lon="9.696202513471114"><ele>36.0</ele><time>2026-04-25T10:34:08Z</time></trkpt><trkpt lat="40.57772573080874" lon="9.696308574289757"><ele>36.0</ele><time>2026-04-25T10:34:09Z</time></trkpt><trkpt lat="40.57775997848233" lon="9.696456859173347"><ele>36.0</ele><time>2026-04-25T10:34:11Z</time></trkpt><trkpt lat="40.57778028585843" lon="9.696540841707286"><ele>36.0</ele><time>2026-04-25T10:34:13Z</time></trkpt><trkpt lat="40.57781107719625" lon="9.696638591998987"><ele>36.0</ele><time>2026-04-25T10:34:15Z</time></trkpt><trkpt lat="40.57790102256822" lon="9.696674201379976"><ele>36.0</ele><time>2026-04-25T10:34:17Z</time></trkpt><trkpt lat="40.577977001288" lon="9.696649386363472"><ele>36.0</ele><time>2026-04-25T10:34:19Z</time></trkpt><trkpt lat="40.57800771960255" lon="9.69640788792124"><ele>37.0</ele><time>2026-04-25T10:34:19.999Z</time></trkpt><trkpt lat="40.57812850672886" lon="9.696290202696375"><ele>38.0</ele><time>2026-04-25T10:34:20.999Z</time></trkpt><trkpt lat="40.578225752511464" lon="9.696178141223891"><ele>39.0</ele><time>2026-04-25T10:34:21.999Z</time></trkpt><trkpt lat="40.57832745018899" lon="9.696068073250236"><ele>40.0</ele><time>2026-04-25T10:34:22.999Z</time></trkpt><trkpt lat="40.578413203550156" lon="9.695968257632355"><ele>40.0</ele><time>2026-04-25T10:34:23.999Z</time></trkpt><trkpt lat="40.578488131725216" lon="9.69587600069984"><ele>40.0</ele><time>2026-04-25T10:34:24.999Z</time></trkpt><trkpt lat="40.57856561773654" lon="9.695791938386426"><ele>40.0</ele><time>2026-04-25T10:34:25.999Z</time></trkpt><trkpt lat="40.57865909471581" lon="9.695713901039902"><ele>40.0</ele><time>2026-04-25T10:34:26.999Z</time></trkpt><trkpt lat="40.57873539545937" lon="9.695633556266626"><ele>40.0</ele><time>2026-04-25T10:34:27.999Z</time></trkpt><trkpt lat="40.57880087192781" lon="9.695560975072365"><ele>40.4</ele><time>2026-04-25T10:34:28.999Z</time></trkpt><trkpt lat="40.578861979840404" lon="9.69549834435266"><ele>40.8</ele><time>2026-04-25T10:34:29.999Z</time></trkpt><trkpt lat="40.578924252162224" lon="9.695442354448637"><ele>41.2</ele><time>2026-04-25T10:34:30.999Z</time></trkpt><trkpt lat="40.57896066954963" lon="9.695367330867933"><ele>41.6</ele><time>2026-04-25T10:34:31.999Z</time></trkpt><trkpt lat="40.57908205657575" lon="9.695403323924559"><ele>42.0</ele><time>2026-04-25T10:34:32.999Z</time></trkpt><trkpt lat="40.57919001660516" lon="9.695447763075173"><ele>42.0</ele><time>2026-04-25T10:34:34Z</time></trkpt><trkpt lat="40.579338083282046" lon="9.69547666745885"><ele>42.0</ele><time>2026-04-25T10:34:35Z</time></trkpt><trkpt lat="40.57949261288325" lon="9.695541866204888"><ele>42.0</ele><time>2026-04-25T10:34:36Z</time></trkpt><trkpt lat="40.579639262126975" lon="9.695599020494848"><ele>42.75</ele><time>2026-04-25T10:34:37Z</time></trkpt><trkpt lat="40.579779761293636" lon="9.695646462940422"><ele>43.5</ele><time>2026-04-25T10:34:38Z</time></trkpt><trkpt lat="40.579915448155084" lon="9.695688523803117"><ele>44.25</ele><time>2026-04-25T10:34:39Z</time></trkpt><trkpt lat="40.58005206722161" lon="9.69573585917175"><ele>45.0</ele><time>2026-04-25T10:34:40Z</time></trkpt><trkpt lat="40.58018311991848" lon="9.69577807446892"><ele>45.0</ele><time>2026-04-25T10:34:41Z</time></trkpt><trkpt lat="40.58030980567954" lon="9.69581796434492"><ele>45.0</ele><time>2026-04-25T10:34:42Z</time></trkpt><trkpt lat="40.58043314601451" lon="9.695859227006926"><ele>45.0</ele><time>2026-04-25T10:34:43Z</time></trkpt><trkpt lat="40.580548759473416" lon="9.695898729928956"><ele>45.0</ele><time>2026-04-25T10:34:44Z</time></trkpt><trkpt lat="40.58066156309503" lon="9.695940975369698"><ele>46.0</ele><time>2026-04-25T10:34:45Z</time></trkpt><trkpt lat="40.58077151384345" lon="9.69597924277125"><ele>47.0</ele><time>2026-04-25T10:34:46Z</time></trkpt><trkpt lat="40.58088089000501" lon="9.696012642642827"><ele>48.0</ele><time>2026-04-25T10:34:47Z</time></trkpt><trkpt lat="40.580989558912826" lon="9.696035167002847"><ele>49.0</ele><time>2026-04-25T10:34:48Z</time></trkpt><trkpt lat="40.581095806603614" lon="9.696036974850763"><ele>50.0</ele><time>2026-04-25T10:34:49Z</time></trkpt><trkpt lat="40.58120273247554" lon="9.696017396801606"><ele>50.5</ele><time>2026-04-25T10:34:50Z</time></trkpt><trkpt lat="40.58131118796968" lon="9.695974962387956"><ele>51.0</ele><time>2026-04-25T10:34:51Z</time></trkpt><trkpt lat="40.581413209482534" lon="9.695920154006064"><ele>51.5</ele><time>2026-04-25T10:34:52Z</time></trkpt><trkpt lat="40.581523411040386" lon="9.695859236875032"><ele>52.0</ele><time>2026-04-25T10:34:53Z</time></trkpt><trkpt lat="40.581639618735785" lon="9.695802173058443"><ele>52.0</ele><time>2026-04-25T10:34:54Z</time></trkpt><trkpt lat="40.58176855033698" lon="9.695740055585844"><ele>52.0</ele><time>2026-04-25T10:34:55Z</time></trkpt><trkpt lat="40.58190825595438" lon="9.695674668481983"><ele>52.0</ele><time>2026-04-25T10:34:56Z</time></trkpt><trkpt lat="40.582064046998724" lon="9.695592553645518"><ele>52.33333333333333</ele><time>2026-04-25T10:34:57Z</time></trkpt><trkpt lat="40.582236447038234" lon="9.695502699756041"><ele>52.66666666666667</ele><time>2026-04-25T10:34:58Z</time></trkpt><trkpt lat="40.58239761730279" lon="9.695429788189958"><ele>53.0</ele><time>2026-04-25T10:34:59Z</time></trkpt><trkpt lat="40.582538034334924" lon="9.695359097703948"><ele>53.0</ele><time>2026-04-25T10:35:00Z</time></trkpt><trkpt lat="40.58266844927656" lon="9.695289827376257"><ele>53.0</ele><time>2026-04-25T10:35:01Z</time></trkpt><trkpt lat="40.582788252130506" lon="9.695215654881702"><ele>53.0</ele><time>2026-04-25T10:35:02Z</time></trkpt><trkpt lat="40.582906727040495" lon="9.695122523783752"><ele>53.0</ele><time>2026-04-25T10:35:03Z</time></trkpt><trkpt lat="40.58302377564342" lon="9.695014949320136"><ele>51.66666666666667</ele><time>2026-04-25T10:35:04Z</time></trkpt><trkpt lat="40.58314219359008" lon="9.694894195093108"><ele>50.33333333333333</ele><time>2026-04-25T10:35:05Z</time></trkpt><trkpt lat="40.58326229108489" lon="9.694767677434351"><ele>49.0</ele><time>2026-04-25T10:35:06Z</time></trkpt><trkpt lat="40.58339208913615" lon="9.694632077135495"><ele>49.0</ele><time>2026-04-25T10:35:07Z</time></trkpt><trkpt lat="40.58352993892455" lon="9.694492189814214"><ele>49.0</ele><time>2026-04-25T10:35:08Z</time></trkpt><trkpt lat="40.583677289967156" lon="9.694344671298733"><ele>49.0</ele><time>2026-04-25T10:35:09Z</time></trkpt><trkpt lat="40.58382828677651" lon="9.694185932077453"><ele>47.666666666666664</ele><time>2026-04-25T10:35:10Z</time></trkpt><trkpt lat="40.58399032565307" lon="9.694030622651601"><ele>46.33333333333333</ele><time>2026-04-25T10:35:11Z</time></trkpt><trkpt lat="40.584153986107815" lon="9.693877898919622"><ele>45.0</ele><time>2026-04-25T10:35:12Z</time></trkpt><trkpt lat="40.58431573316005" lon="9.69373159156252"><ele>45.0</ele><time>2026-04-25T10:35:13Z</time></trkpt><trkpt lat="40.58447031691313" lon="9.693597408864319"><ele>45.0</ele><time>2026-04-25T10:35:14Z</time></trkpt><trkpt lat="40.58461453843602" lon="9.693467985564084"><ele>45.0</ele><time>2026-04-25T10:35:15Z</time></trkpt><trkpt lat="40.58475930340531" lon="9.693342168720692"><ele>44.0</ele><time>2026-04-25T10:35:16Z</time></trkpt><trkpt lat="40.584900707799235" lon="9.693218625407889"><ele>43.0</ele><time>2026-04-25T10:35:17Z</time></trkpt><trkpt lat="40.585038646785" lon="9.693099380107823"><ele>42.0</ele><time>2026-04-25T10:35:18Z</time></trkpt><trkpt lat="40.58517375224145" lon="9.692978812316232"><ele>42.0</ele><time>2026-04-25T10:35:19Z</time></trkpt><trkpt lat="40.58529792548795" lon="9.69286869192129"><ele>42.0</ele><time>2026-04-25T10:35:20Z</time></trkpt><trkpt lat="40.58540957063604" lon="9.692776464625108"><ele>42.0</ele><time>2026-04-25T10:35:21Z</time></trkpt><trkpt lat="40.58550384808725" lon="9.692707786166995"><ele>42.0</ele><time>2026-04-25T10:35:22Z</time></trkpt><trkpt lat="40.58558992470129" lon="9.692672574468814"><ele>43.400000000000006</ele><time>2026-04-25T10:35:23Z</time></trkpt><trkpt lat="40.58567269227756" lon="9.69267859190091"><ele>44.800000000000004</ele><time>2026-04-25T10:35:24Z</time></trkpt><trkpt lat="40.58575924385221" lon="9.692712061174094"><ele>46.2</ele><time>2026-04-25T10:35:25Z</time></trkpt><trkpt lat="40.585848881275254" lon="9.69276142666578"><ele>47.6</ele><time>2026-04-25T10:35:26Z</time></trkpt><trkpt lat="40.5859540263788" lon="9.692799768227674"><ele>49.0</ele><time>2026-04-25T10:35:27Z</time></trkpt><trkpt lat="40.58608875005292" lon="9.692802851110619"><ele>50.33333333333333</ele><time>2026-04-25T10:35:28Z</time></trkpt><trkpt lat="40.58625364915643" lon="9.692767402891798"><ele>51.66666666666667</ele><time>2026-04-25T10:35:29Z</time></trkpt><trkpt lat="40.58642593472861" lon="9.692723156576868"><ele>53.0</ele><time>2026-04-25T10:35:30Z</time></trkpt><trkpt lat="40.58658094405785" lon="9.6926894159117"><ele>53.0</ele><time>2026-04-25T10:35:31Z</time></trkpt><trkpt lat="40.586724285463454" lon="9.69266204308213"><ele>53.0</ele><time>2026-04-25T10:35:32Z</time></trkpt><trkpt lat="40.58685993542691" lon="9.69263276744708"><ele>53.0</ele><time>2026-04-25T10:35:33Z</time></trkpt><trkpt lat="40.5869915646409" lon="9.692602337139318"><ele>53.0</ele><time>2026-04-25T10:35:34Z</time></trkpt><trkpt lat="40.58711945918778" lon="9.69257626400148"><ele>52.25</ele><time>2026-04-25T10:35:35Z</time></trkpt><trkpt lat="40.58724507415984" lon="9.6925607194492"><ele>51.5</ele><time>2026-04-25T10:35:36Z</time></trkpt><trkpt lat="40.58736803782813" lon="9.692572207937701"><ele>50.75</ele><time>2026-04-25T10:35:37Z</time></trkpt><trkpt lat="40.5874957470141" lon="9.692607209680927"><ele>50.0</ele><time>2026-04-25T10:35:38Z</time></trkpt><trkpt lat="40.587629348098446" lon="9.692662470268319"><ele>50.0</ele><time>2026-04-25T10:35:39Z</time></trkpt><trkpt lat="40.587768876314044" lon="9.6927304959844"><ele>50.0</ele><time>2026-04-25T10:35:40Z</time></trkpt><trkpt lat="40.587920359332415" lon="9.692802877215543"><ele>50.0</ele><time>2026-04-25T10:35:41Z</time></trkpt><trkpt lat="40.58808326318141" lon="9.69287384700112"><ele>48.333333333333336</ele><time>2026-04-25T10:35:42Z</time></trkpt><trkpt lat="40.588259383564925" lon="9.692950937459488"><ele>46.66666666666667</ele><time>2026-04-25T10:35:43Z</time></trkpt><trkpt lat="40.58843343378459" lon="9.693030362263249"><ele>45.0</ele><time>2026-04-25T10:35:44Z</time></trkpt><trkpt lat="40.588598798352116" lon="9.693105184201743"><ele>47.0</ele><time>2026-04-25T10:35:45Z</time></trkpt><trkpt lat="40.58875696432308" lon="9.693178883853188"><ele>49.0</ele><time>2026-04-25T10:35:46Z</time></trkpt><trkpt lat="40.58889842644953" lon="9.69324468068769"><ele>51.0</ele><time>2026-04-25T10:35:47Z</time></trkpt><trkpt lat="40.589026754705024" lon="9.69330330085175"><ele>51.0</ele><time>2026-04-25T10:35:48Z</time></trkpt><trkpt lat="40.589143429688356" lon="9.693355201856823"><ele>51.0</ele><time>2026-04-25T10:35:49Z</time></trkpt><trkpt lat="40.58924087791515" lon="9.69339986909099"><ele>51.0</ele><time>2026-04-25T10:35:50Z</time></trkpt><trkpt lat="40.589316699484804" lon="9.693429245156274"><ele>51.0</ele><time>2026-04-25T10:35:51Z</time></trkpt><trkpt lat="40.589383505751975" lon="9.693455727385023"><ele>51.0</ele><time>2026-04-25T10:35:52Z</time></trkpt><trkpt lat="40.58945025536258" lon="9.693479952591295"><ele>51.0</ele><time>2026-04-25T10:35:53Z</time></trkpt><trkpt lat="40.58951492124704" lon="9.693504279913833"><ele>50.833333333333336</ele><time>2026-04-25T10:35:54Z</time></trkpt><trkpt lat="40.589575947602356" lon="9.693530252513655"><ele>50.66666666666667</ele><time>2026-04-25T10:35:55Z</time></trkpt><trkpt lat="40.589676336544365" lon="9.693557797964154"><ele>50.5</ele><time>2026-04-25T10:35:57Z</time></trkpt><trkpt lat="40.58974719713094" lon="9.693572829385834"><ele>50.333333333333336</ele><time>2026-04-25T10:35:59Z</time></trkpt><trkpt lat="40.58982043361075" lon="9.693584237853745"><ele>50.16666666666667</ele><time>2026-04-25T10:36:01Z</time></trkpt><trkpt lat="40.58994363420896" lon="9.693599385953977"><ele>50.0</ele><time>2026-04-25T10:36:03Z</time></trkpt><trkpt lat="40.59000986195884" lon="9.693607848553572"><ele>50.00000000000001</ele><time>2026-04-25T10:36:04Z</time></trkpt><trkpt lat="40.590079502128695" lon="9.69362013167548"><ele>50.0</ele><time>2026-04-25T10:36:05Z</time></trkpt><trkpt lat="40.590151891660454" lon="9.693626941734996"><ele>50.0</ele><time>2026-04-25T10:36:06Z</time></trkpt><trkpt lat="40.590224733283414" lon="9.693649909309196"><ele>50.0</ele><time>2026-04-25T10:36:07Z</time></trkpt><trkpt lat="40.59033191580148" lon="9.693670496412263"><ele>50.00000000000001</ele><time>2026-04-25T10:36:09Z</time></trkpt><trkpt lat="40.59041600008358" lon="9.693686646847292"><ele>50.0</ele><time>2026-04-25T10:36:11Z</time></trkpt><trkpt lat="40.59049104150755" lon="9.693701060240063"><ele>49.333333333333336</ele><time>2026-04-25T10:36:13Z</time></trkpt><trkpt lat="40.59056223952604" lon="9.693714253790334"><ele>48.66666666666667</ele><time>2026-04-25T10:36:15Z</time></trkpt><trkpt lat="40.59060946460756" lon="9.693629719975426"><ele>48.0</ele><time>2026-04-25T10:36:16Z</time></trkpt><trkpt lat="40.59070170135049" lon="9.693653311192591"><ele>47.333333333333336</ele><time>2026-04-25T10:36:18Z</time></trkpt><trkpt lat="40.59076932760371" lon="9.693660983831064"><ele>46.66666666666667</ele><time>2026-04-25T10:36:20Z</time></trkpt><trkpt lat="40.59083901976147" lon="9.693658075078217"><ele>46.0</ele><time>2026-04-25T10:36:22Z</time></trkpt><trkpt lat="40.59091711075197" lon="9.693667465969597"><ele>46.0</ele><time>2026-04-25T10:36:25Z</time></trkpt><trkpt lat="40.591005216053425" lon="9.693649598215549"><ele>46.0</ele><time>2026-04-25T10:36:29Z</time></trkpt><trkpt lat="40.59101289867765" lon="9.693548850330597"><ele>46.0</ele><time>2026-04-25T10:36:30Z</time></trkpt><trkpt lat="40.59104600752394" lon="9.693428744433502"><ele>46.0</ele><time>2026-04-25T10:36:33Z</time></trkpt><trkpt lat="40.591065466122544" lon="9.693339337966849"><ele>46.0</ele><time>2026-04-25T10:36:35Z</time></trkpt><trkpt lat="40.591051519288335" lon="9.693200651289231"><ele>46.0</ele><time>2026-04-25T10:36:37Z</time></trkpt><trkpt lat="40.591052755608175" lon="9.693075810407413"><ele>46.333333333333336</ele><time>2026-04-25T10:36:39Z</time></trkpt><trkpt lat="40.59108209052477" lon="9.692948301518038"><ele>46.66666666666667</ele><time>2026-04-25T10:36:41Z</time></trkpt><trkpt lat="40.59111973347409" lon="9.692833119834349"><ele>47.0</ele><time>2026-04-25T10:36:43Z</time></trkpt><trkpt lat="40.59115721622757" lon="9.69275279426242"><ele>47.333333333333336</ele><time>2026-04-25T10:36:45Z</time></trkpt><trkpt lat="40.59120151098606" lon="9.692653107928056"><ele>47.666666666666664</ele><time>2026-04-25T10:36:48Z</time></trkpt><trkpt lat="40.591271925115834" lon="9.692642863098454"><ele>48.0</ele><time>2026-04-25T10:36:50Z</time></trkpt><trkpt lat="40.591311168214766" lon="9.692560474275119"><ele>48.0</ele><time>2026-04-25T10:36:54Z</time></trkpt><trkpt lat="40.59134807475426" lon="9.69246715820274"><ele>48.0</ele><time>2026-04-25T10:36:59Z</time></trkpt><trkpt lat="40.591308912481374" lon="9.692343875432762"><ele>48.0</ele><time>2026-04-25T10:37:01Z</time></trkpt><trkpt lat="40.591260540869975" lon="9.692230175048463"><ele>48.0</ele><time>2026-04-25T10:37:03Z</time></trkpt><trkpt lat="40.591206196275614" lon="9.69210691861268"><ele>48.0</ele><time>2026-04-25T10:37:05Z</time></trkpt><trkpt lat="40.59115094011289" lon="9.691973373695266"><ele>48.0</ele><time>2026-04-25T10:37:07Z</time></trkpt><trkpt lat="40.591127905080384" lon="9.69184559783343"><ele>48.0</ele><time>2026-04-25T10:37:09Z</time></trkpt><trkpt lat="40.59113587802792" lon="9.691700721035367"><ele>48.0</ele><time>2026-04-25T10:37:11Z</time></trkpt><trkpt lat="40.59115350895866" lon="9.691571891594961"><ele>48.0</ele><time>2026-04-25T10:37:13Z</time></trkpt><trkpt lat="40.591177388959515" lon="9.69147703460981"><ele>48.0</ele><time>2026-04-25T10:37:15Z</time></trkpt><trkpt lat="40.591177789145846" lon="9.691389169574173"><ele>48.0</ele><time>2026-04-25T10:37:22Z</time></trkpt><trkpt lat="40.59118016476838" lon="9.691228932826304"><ele>48.0</ele><time>2026-04-25T10:37:24Z</time></trkpt><trkpt lat="40.591179746915735" lon="9.691104539735086"><ele>48.0</ele><time>2026-04-25T10:37:26Z</time></trkpt><trkpt lat="40.59118880040742" lon="9.691012229878291"><ele>50.0</ele><time>2026-04-25T10:37:28Z</time></trkpt></trkseg><trkseg><trkpt lat="40.59128001517444" lon="9.690987846864298"><ele>50.0</ele><time>2026-04-25T13:13:58Z</time></trkpt><trkpt lat="40.59121723657038" lon="9.690980916411505"><ele>50.0</ele><time>2026-04-25T13:14:58Z</time></trkpt><trkpt lat="40.591178909686924" lon="9.691090747609547"><ele>50.0</ele><time>2026-04-25T13:16:43Z</time></trkpt><trkpt lat="40.59115626105019" lon="9.691234369872463"><ele>50.0</ele><time>2026-04-25T13:16:45Z</time></trkpt><trkpt lat="40.59114932942021" lon="9.691389136429166"><ele>50.0</ele><time>2026-04-25T13:16:47Z</time></trkpt><trkpt lat="40.59113185873251" lon="9.691533825142029"><ele>49.8</ele><time>2026-04-25T13:16:49Z</time></trkpt><trkpt lat="40.59111031301922" lon="9.691679679881538"><ele>49.6</ele><time>2026-04-25T13:16:51Z</time></trkpt><trkpt lat="40.59109974134732" lon="9.691771419787925"><ele>49.400000000000006</ele><time>2026-04-25T13:16:52Z</time></trkpt><trkpt lat="40.59110205071781" lon="9.691912258656115"><ele>49.2</ele><time>2026-04-25T13:16:54Z</time></trkpt><trkpt lat="40.59114836359304" lon="9.69203789406484"><ele>49.0</ele><time>2026-04-25T13:16:56Z</time></trkpt><trkpt lat="40.59118089227265" lon="9.69212127533613"><ele>48.857142857142854</ele><time>2026-04-25T13:16:57Z</time></trkpt><trkpt lat="40.591215987450965" lon="9.692209598923785"><ele>48.714285714285715</ele><time>2026-04-25T13:16:58Z</time></trkpt><trkpt lat="40.59124893552904" lon="9.692285311596489"><ele>48.57142857142857</ele><time>2026-04-25T13:16:59Z</time></trkpt><trkpt lat="40.591280901344795" lon="9.692361117006866"><ele>48.42857142857143</ele><time>2026-04-25T13:17:00Z</time></trkpt><trkpt lat="40.591317497734" lon="9.692485661502712"><ele>48.285714285714285</ele><time>2026-04-25T13:17:02Z</time></trkpt><trkpt lat="40.59128558068093" lon="9.692557747426273"><ele>48.14285714285714</ele><time>2026-04-25T13:17:04Z</time></trkpt><trkpt lat="40.59123305567036" lon="9.692620897855335"><ele>48.0</ele><time>2026-04-25T13:17:07Z</time></trkpt><trkpt lat="40.591188392008334" lon="9.692684440705909"><ele>48.0</ele><time>2026-04-25T13:17:09Z</time></trkpt><trkpt lat="40.59113975287313" lon="9.692773626157427"><ele>48.0</ele><time>2026-04-25T13:17:11Z</time></trkpt><trkpt lat="40.591113779721226" lon="9.692899024920015"><ele>48.0</ele><time>2026-04-25T13:17:13Z</time></trkpt><trkpt lat="40.59106313097932" lon="9.693048793492542"><ele>48.0</ele><time>2026-04-25T13:17:15Z</time></trkpt><trkpt lat="40.59104592936839" lon="9.693153226564865"><ele>48.0</ele><time>2026-04-25T13:17:16Z</time></trkpt><trkpt lat="40.591038025783064" lon="9.693275358655455"><ele>48.0</ele><time>2026-04-25T13:17:17Z</time></trkpt><trkpt lat="40.59099110473656" lon="9.693351452793593"><ele>48.0</ele><time>2026-04-25T13:17:18Z</time></trkpt><trkpt lat="40.59101659925088" lon="9.693440928441488"><ele>48.0</ele><time>2026-04-25T13:17:19Z</time></trkpt><trkpt lat="40.5909980288966" lon="9.693538946232318"><ele>48.0</ele><time>2026-04-25T13:17:21Z</time></trkpt><trkpt lat="40.59094660595126" lon="9.693623133710506"><ele>48.0</ele><time>2026-04-25T13:17:24Z</time></trkpt><trkpt lat="40.590866384550054" lon="9.693633556928162"><ele>48.0</ele><time>2026-04-25T13:17:26Z</time></trkpt><trkpt lat="40.59077340246969" lon="9.69362901370931"><ele>47.666666666666664</ele><time>2026-04-25T13:17:28Z</time></trkpt><trkpt lat="40.59064346431834" lon="9.693606220100754"><ele>47.333333333333336</ele><time>2026-04-25T13:17:30Z</time></trkpt><trkpt lat="40.5905759636102" lon="9.693595427561199"><ele>47.0</ele><time>2026-04-25T13:17:31Z</time></trkpt><trkpt lat="40.590492703328025" lon="9.693589246865088"><ele>46.66666666666667</ele><time>2026-04-25T13:17:33Z</time></trkpt><trkpt lat="40.59042458456266" lon="9.693618727456135"><ele>46.333333333333336</ele><time>2026-04-25T13:17:35Z</time></trkpt><trkpt lat="40.59034030300167" lon="9.693607673787707"><ele>46.0</ele><time>2026-04-25T13:17:37Z</time></trkpt><trkpt lat="40.59024223445078" lon="9.693616596225112"><ele>46.8</ele><time>2026-04-25T13:17:39Z</time></trkpt><trkpt lat="40.59016998793012" lon="9.693607689447981"><ele>47.599999999999994</ele><time>2026-04-25T13:17:40Z</time></trkpt><trkpt lat="40.590076498069486" lon="9.693590781994558"><ele>48.4</ele><time>2026-04-25T13:17:41Z</time></trkpt><trkpt lat="40.58997093207261" lon="9.693571996607483"><ele>49.2</ele><time>2026-04-25T13:17:42Z</time></trkpt><trkpt lat="40.58986005428452" lon="9.69354999512681"><ele>50.0</ele><time>2026-04-25T13:17:43Z</time></trkpt><trkpt lat="40.589744069350814" lon="9.693524039605178"><ele>50.0</ele><time>2026-04-25T13:17:44Z</time></trkpt><trkpt lat="40.58962443888655" lon="9.693495477057752"><ele>50.0</ele><time>2026-04-25T13:17:45Z</time></trkpt><trkpt lat="40.58950250138353" lon="9.693463680584221"><ele>50.0</ele><time>2026-04-25T13:17:46Z</time></trkpt><trkpt lat="40.58938229145303" lon="9.69341947381556"><ele>50.0</ele><time>2026-04-25T13:17:47Z</time></trkpt><trkpt lat="40.58926168700698" lon="9.693370912976356"><ele>50.25</ele><time>2026-04-25T13:17:48Z</time></trkpt><trkpt lat="40.58913300432997" lon="9.693315826728409"><ele>50.5</ele><time>2026-04-25T13:17:49Z</time></trkpt><trkpt lat="40.588995039448065" lon="9.69325652866692"><ele>50.75</ele><time>2026-04-25T13:17:50Z</time></trkpt><trkpt lat="40.5888493599814" lon="9.693192530602351"><ele>51.0</ele><time>2026-04-25T13:17:51Z</time></trkpt><trkpt lat="40.58869385263525" lon="9.693123844582104"><ele>49.0</ele><time>2026-04-25T13:17:52Z</time></trkpt><trkpt lat="40.58854310031308" lon="9.693054390485615"><ele>47.0</ele><time>2026-04-25T13:17:53Z</time></trkpt><trkpt lat="40.58838991765626" lon="9.69298712057828"><ele>45.0</ele><time>2026-04-25T13:17:54Z</time></trkpt><trkpt lat="40.58823898730216" lon="9.692916765015442"><ele>45.0</ele><time>2026-04-25T13:17:55Z</time></trkpt><trkpt lat="40.58808904179226" lon="9.692852253247503"><ele>45.0</ele><time>2026-04-25T13:17:56Z</time></trkpt><trkpt lat="40.587945274527314" lon="9.692789918257324"><ele>45.0</ele><time>2026-04-25T13:17:57Z</time></trkpt><trkpt lat="40.58780303986276" lon="9.692725133097895"><ele>46.25</ele><time>2026-04-25T13:17:58Z</time></trkpt><trkpt lat="40.58766499036383" lon="9.69266369506838"><ele>47.5</ele><time>2026-04-25T13:17:59Z</time></trkpt><trkpt lat="40.5875295271214" lon="9.692603587376079"><ele>48.75</ele><time>2026-04-25T13:18:00Z</time></trkpt><trkpt lat="40.587401243668644" lon="9.692553503209613"><ele>50.0</ele><time>2026-04-25T13:18:01Z</time></trkpt><trkpt lat="40.58727431498697" lon="9.692531057462563"><ele>50.0</ele><time>2026-04-25T13:18:02Z</time></trkpt><trkpt lat="40.587128531184305" lon="9.692530417129428"><ele>50.0</ele><time>2026-04-25T13:18:03Z</time></trkpt><trkpt lat="40.58697056447388" lon="9.692556635869567"><ele>50.0</ele><time>2026-04-25T13:18:04Z</time></trkpt><trkpt lat="40.586798360401744" lon="9.69258948261036"><ele>51.0</ele><time>2026-04-25T13:18:05Z</time></trkpt><trkpt lat="40.586627651530755" lon="9.692631519133544"><ele>52.0</ele><time>2026-04-25T13:18:06Z</time></trkpt><trkpt lat="40.586476170911666" lon="9.692666498553146"><ele>53.0</ele><time>2026-04-25T13:18:07Z</time></trkpt><trkpt lat="40.586338960295215" lon="9.692698842473348"><ele>53.0</ele><time>2026-04-25T13:18:08Z</time></trkpt><trkpt lat="40.58621234419585" lon="9.692726336075632"><ele>53.0</ele><time>2026-04-25T13:18:09Z</time></trkpt><trkpt lat="40.58610672203061" lon="9.69275026002296"><ele>53.0</ele><time>2026-04-25T13:18:10Z</time></trkpt><trkpt lat="40.58602088614543" lon="9.692769709068001"><ele>53.0</ele><time>2026-04-25T13:18:11Z</time></trkpt><trkpt lat="40.585957407443004" lon="9.69277412393247"><ele>53.0</ele><time>2026-04-25T13:18:12Z</time></trkpt><trkpt lat="40.58587949008211" lon="9.692719847318314"><ele>53.5</ele><time>2026-04-25T13:18:14Z</time></trkpt><trkpt lat="40.585851153979135" lon="9.692631736418432"><ele>54.0</ele><time>2026-04-25T13:18:18Z</time></trkpt><trkpt lat="40.58567820777132" lon="9.69260003950153"><ele>54.5</ele><time>2026-04-25T13:18:20Z</time></trkpt><trkpt lat="40.58555911619626" lon="9.692643092278425"><ele>55.0</ele><time>2026-04-25T13:18:21Z</time></trkpt><trkpt lat="40.58543229168256" lon="9.692714416170169"><ele>50.666666666666664</ele><time>2026-04-25T13:18:22Z</time></trkpt><trkpt lat="40.58528983833728" lon="9.692827961490702"><ele>46.33333333333333</ele><time>2026-04-25T13:18:23Z</time></trkpt><trkpt lat="40.58513023267991" lon="9.692977113464057"><ele>42.0</ele><time>2026-04-25T13:18:24Z</time></trkpt><trkpt lat="40.58495842031242" lon="9.693130484860138"><ele>42.0</ele><time>2026-04-25T13:18:25Z</time></trkpt><trkpt lat="40.58478678020787" lon="9.69327890333041"><ele>42.0</ele><time>2026-04-25T13:18:26Z</time></trkpt><trkpt lat="40.58461545405752" lon="9.69342388439042"><ele>42.0</ele><time>2026-04-25T13:18:27Z</time></trkpt><trkpt lat="40.58444912902764" lon="9.693567844187847"><ele>43.0</ele><time>2026-04-25T13:18:28Z</time></trkpt><trkpt lat="40.58428855973687" lon="9.693711183210144"><ele>44.0</ele><time>2026-04-25T13:18:29Z</time></trkpt><trkpt lat="40.58412895160583" lon="9.693853110870156"><ele>45.0</ele><time>2026-04-25T13:18:30Z</time></trkpt><trkpt lat="40.58397612030772" lon="9.693993219464016"><ele>45.0</ele><time>2026-04-25T13:18:31Z</time></trkpt><trkpt lat="40.58382915383202" lon="9.694137375226433"><ele>45.0</ele><time>2026-04-25T13:18:32Z</time></trkpt><trkpt lat="40.583680091146135" lon="9.694291605915176"><ele>45.0</ele><time>2026-04-25T13:18:33Z</time></trkpt><trkpt lat="40.583525140012796" lon="9.694452183760815"><ele>46.33333333333333</ele><time>2026-04-25T13:18:34Z</time></trkpt><trkpt lat="40.583381280268554" lon="9.694600317193464"><ele>47.666666666666664</ele><time>2026-04-25T13:18:35Z</time></trkpt><trkpt lat="40.5832437096114" lon="9.694740863912553"><ele>49.0</ele><time>2026-04-25T13:18:36Z</time></trkpt><trkpt lat="40.583108114448926" lon="9.694867842530472"><ele>49.0</ele><time>2026-04-25T13:18:37Z</time></trkpt><trkpt lat="40.58298378547646" lon="9.694991755758327"><ele>49.0</ele><time>2026-04-25T13:18:38Z</time></trkpt><trkpt lat="40.58286909095478" lon="9.695096934797284"><ele>49.0</ele><time>2026-04-25T13:18:39Z</time></trkpt><trkpt lat="40.58275564420428" lon="9.695187837288529"><ele>49.0</ele><time>2026-04-25T13:18:40Z</time></trkpt><trkpt lat="40.58263269667004" lon="9.695279088044959"><ele>50.33333333333333</ele><time>2026-04-25T13:18:41Z</time></trkpt><trkpt lat="40.582492504160555" lon="9.695347144821215"><ele>51.66666666666667</ele><time>2026-04-25T13:18:42Z</time></trkpt><trkpt lat="40.58234102750412" lon="9.695417214335698"><ele>53.0</ele><time>2026-04-25T13:18:43Z</time></trkpt><trkpt lat="40.58217375605512" lon="9.69549147346126"><ele>53.0</ele><time>2026-04-25T13:18:44Z</time></trkpt><trkpt lat="40.58201792969243" lon="9.695570462791379"><ele>53.0</ele><time>2026-04-25T13:18:45Z</time></trkpt><trkpt lat="40.581870651662705" lon="9.695648844932334"><ele>53.0</ele><time>2026-04-25T13:18:46Z</time></trkpt><trkpt lat="40.58173410407014" lon="9.69572370363908"><ele>52.75</ele><time>2026-04-25T13:18:47Z</time></trkpt><trkpt lat="40.581600937277834" lon="9.695794285806233"><ele>52.5</ele><time>2026-04-25T13:18:48Z</time></trkpt><trkpt lat="40.58147378204095" lon="9.695856351440762"><ele>52.25</ele><time>2026-04-25T13:18:49Z</time></trkpt><trkpt lat="40.581353464944165" lon="9.695914441114606"><ele>52.0</ele><time>2026-04-25T13:18:50Z</time></trkpt><trkpt lat="40.581234624622724" lon="9.695966125039595"><ele>51.5</ele><time>2026-04-25T13:18:51Z</time></trkpt><trkpt lat="40.58111856152318" lon="9.696003653864086"><ele>51.0</ele><time>2026-04-25T13:18:52Z</time></trkpt><trkpt lat="40.58100503505614" lon="9.696013689577107"><ele>50.5</ele><time>2026-04-25T13:18:53Z</time></trkpt><trkpt lat="40.58088852167147" lon="9.695994741898108"><ele>50.0</ele><time>2026-04-25T13:18:54Z</time></trkpt><trkpt lat="40.58076250904942" lon="9.695959830280815"><ele>50.0</ele><time>2026-04-25T13:18:55Z</time></trkpt><trkpt lat="40.58064186653209" lon="9.695916448105027"><ele>50.0</ele><time>2026-04-25T13:18:56Z</time></trkpt><trkpt lat="40.580518856466064" lon="9.695870257926007"><ele>50.0</ele><time>2026-04-25T13:18:57Z</time></trkpt><trkpt lat="40.58039631294808" lon="9.695823847572665"><ele>50.0</ele><time>2026-04-25T13:18:58Z</time></trkpt><trkpt lat="40.58026799298951" lon="9.695778267841803"><ele>48.75</ele><time>2026-04-25T13:18:59Z</time></trkpt><trkpt lat="40.58013507197131" lon="9.695731297643766"><ele>47.5</ele><time>2026-04-25T13:19:00Z</time></trkpt><trkpt lat="40.58000058601099" lon="9.695685815914455"><ele>46.25</ele><time>2026-04-25T13:19:01Z</time></trkpt><trkpt lat="40.57986338607146" lon="9.695639772467462"><ele>45.0</ele><time>2026-04-25T13:19:02Z</time></trkpt><trkpt lat="40.579722874244084" lon="9.695595854837626"><ele>45.0</ele><time>2026-04-25T13:19:03Z</time></trkpt><trkpt lat="40.57958748267949" lon="9.69555105633794"><ele>45.0</ele><time>2026-04-25T13:19:04Z</time></trkpt><trkpt lat="40.57946039406903" lon="9.695508965660599"><ele>45.0</ele><time>2026-04-25T13:19:05Z</time></trkpt><trkpt lat="40.579338280317074" lon="9.695463079794608"><ele>45.0</ele><time>2026-04-25T13:19:06Z</time></trkpt><trkpt lat="40.579219228913296" lon="9.695423057567014"><ele>45.2</ele><time>2026-04-25T13:19:07Z</time></trkpt><trkpt lat="40.57910566427268" lon="9.695382010687087"><ele>45.4</ele><time>2026-04-25T13:19:08Z</time></trkpt><trkpt lat="40.5789983420836" lon="9.695347296873432"><ele>45.599999999999994</ele><time>2026-04-25T13:19:09Z</time></trkpt><trkpt lat="40.5788977732643" lon="9.695311627789085"><ele>45.8</ele><time>2026-04-25T13:19:10Z</time></trkpt><trkpt lat="40.57880261479607" lon="9.695264592609172"><ele>46.0</ele><time>2026-04-25T13:19:11Z</time></trkpt><trkpt lat="40.57871890562815" lon="9.6951929829282"><ele>44.25</ele><time>2026-04-25T13:19:12Z</time></trkpt><trkpt lat="40.57863753103588" lon="9.695082944795356"><ele>42.5</ele><time>2026-04-25T13:19:13Z</time></trkpt><trkpt lat="40.57855428354839" lon="9.694933626014457"><ele>40.75</ele><time>2026-04-25T13:19:14Z</time></trkpt><trkpt lat="40.578473376603576" lon="9.69479609955521"><ele>39.0</ele><time>2026-04-25T13:19:15Z</time></trkpt><trkpt lat="40.578395460384094" lon="9.694670525694283"><ele>39.0</ele><time>2026-04-25T13:19:16Z</time></trkpt><trkpt lat="40.578319450459354" lon="9.694550751971226"><ele>39.0</ele><time>2026-04-25T13:19:17Z</time></trkpt><trkpt lat="40.57824857390446" lon="9.694428831589713"><ele>39.0</ele><time>2026-04-25T13:19:18Z</time></trkpt><trkpt lat="40.5781746617028" lon="9.694310142330842"><ele>39.0</ele><time>2026-04-25T13:19:19Z</time></trkpt><trkpt lat="40.578091154542435" lon="9.694173546351124"><ele>40.0</ele><time>2026-04-25T13:19:20Z</time></trkpt><trkpt lat="40.578011381133706" lon="9.694038707130765"><ele>41.0</ele><time>2026-04-25T13:19:21Z</time></trkpt><trkpt lat="40.57793459189158" lon="9.693916403791912"><ele>42.0</ele><time>2026-04-25T13:19:22Z</time></trkpt><trkpt lat="40.57785406786671" lon="9.69380413971104"><ele>43.0</ele><time>2026-04-25T13:19:23Z</time></trkpt><trkpt lat="40.577773165605755" lon="9.693722274640246"><ele>42.199999999999996</ele><time>2026-04-25T13:19:24Z</time></trkpt><trkpt lat="40.57768319279116" lon="9.693673851292193"><ele>41.4</ele><time>2026-04-25T13:19:25Z</time></trkpt><trkpt lat="40.57758568499412" lon="9.69364377077774"><ele>40.599999999999994</ele><time>2026-04-25T13:19:26Z</time></trkpt><trkpt lat="40.57747417404068" lon="9.693619491168077"><ele>39.8</ele><time>2026-04-25T13:19:27Z</time></trkpt><trkpt lat="40.577375335136736" lon="9.6935924425306"><ele>39.0</ele><time>2026-04-25T13:19:28Z</time></trkpt><trkpt lat="40.577275396623826" lon="9.693574422203348"><ele>39.0</ele><time>2026-04-25T13:19:29Z</time></trkpt><trkpt lat="40.57716524461851" lon="9.693551936495986"><ele>39.0</ele><time>2026-04-25T13:19:30Z</time></trkpt><trkpt lat="40.57705482380007" lon="9.69353054665455"><ele>39.0</ele><time>2026-04-25T13:19:31Z</time></trkpt><trkpt lat="40.57694739997358" lon="9.693505652635361"><ele>39.0</ele><time>2026-04-25T13:19:32Z</time></trkpt><trkpt lat="40.576843857599464" lon="9.693485117700613"><ele>39.0</ele><time>2026-04-25T13:19:33Z</time></trkpt><trkpt lat="40.57674714022128" lon="9.69346756799233"><ele>38.4</ele><time>2026-04-25T13:19:34Z</time></trkpt><trkpt lat="40.576648180156546" lon="9.69347761044596"><ele>37.8</ele><time>2026-04-25T13:19:35Z</time></trkpt><trkpt lat="40.57655072212864" lon="9.693496941928471"><ele>37.2</ele><time>2026-04-25T13:19:36Z</time></trkpt><trkpt lat="40.576455817068265" lon="9.693509239109563"><ele>36.6</ele><time>2026-04-25T13:19:37Z</time></trkpt><trkpt lat="40.57635987727555" lon="9.693517020674177"><ele>36.0</ele><time>2026-04-25T13:19:38Z</time></trkpt><trkpt lat="40.57626555728532" lon="9.693531425494267"><ele>36.0</ele><time>2026-04-25T13:19:39Z</time></trkpt><trkpt lat="40.57616709479407" lon="9.693525132701481"><ele>36.0</ele><time>2026-04-25T13:19:40Z</time></trkpt><trkpt lat="40.576077967344105" lon="9.693530740884809"><ele>36.0</ele><time>2026-04-25T13:19:41Z</time></trkpt><trkpt lat="40.57598401670859" lon="9.693519094071533"><ele>36.0</ele><time>2026-04-25T13:19:42Z</time></trkpt><trkpt lat="40.575888624581665" lon="9.693480690831585"><ele>36.0</ele><time>2026-04-25T13:19:43Z</time></trkpt><trkpt lat="40.575806372195615" lon="9.69336525095261"><ele>36.0</ele><time>2026-04-25T13:19:44Z</time></trkpt><trkpt lat="40.57568803106227" lon="9.69327107227652"><ele>36.0</ele><time>2026-04-25T13:19:45Z</time></trkpt><trkpt lat="40.5755707039579" lon="9.693182210293104"><ele>36.0</ele><time>2026-04-25T13:19:46Z</time></trkpt><trkpt lat="40.57547477775307" lon="9.693109557050404"><ele>36.0</ele><time>2026-04-25T13:19:47Z</time></trkpt><trkpt lat="40.57538063427335" lon="9.693060406360583"><ele>36.4</ele><time>2026-04-25T13:19:48Z</time></trkpt><trkpt lat="40.575295520193734" lon="9.692987081399789"><ele>36.8</ele><time>2026-04-25T13:19:49Z</time></trkpt><trkpt lat="40.57520221134738" lon="9.692919837069521"><ele>37.199999999999996</ele><time>2026-04-25T13:19:50Z</time></trkpt><trkpt lat="40.57511405675346" lon="9.692851627732626"><ele>37.6</ele><time>2026-04-25T13:19:51Z</time></trkpt><trkpt lat="40.57501855455413" lon="9.692782621125424"><ele>38.0</ele><time>2026-04-25T13:19:52Z</time></trkpt><trkpt lat="40.57491849272483" lon="9.69270414557366"><ele>38.8</ele><time>2026-04-25T13:19:53Z</time></trkpt><trkpt lat="40.57482478196432" lon="9.692623671183833"><ele>39.599999999999994</ele><time>2026-04-25T13:19:54Z</time></trkpt><trkpt lat="40.574745984858176" lon="9.69253283414304"><ele>40.400000000000006</ele><time>2026-04-25T13:19:55Z</time></trkpt><trkpt lat="40.574668584152256" lon="9.692441977890184"><ele>41.2</ele><time>2026-04-25T13:19:56Z</time></trkpt><trkpt lat="40.57459572898775" lon="9.692339736825739"><ele>42.0</ele><time>2026-04-25T13:19:57Z</time></trkpt><trkpt lat="40.57452180713361" lon="9.692226030336295"><ele>42.5</ele><time>2026-04-25T13:19:58Z</time></trkpt><trkpt lat="40.57444629551027" lon="9.692107061522794"><ele>43.0</ele><time>2026-04-25T13:19:59Z</time></trkpt><trkpt lat="40.57436303291785" lon="9.691978963662349"><ele>43.5</ele><time>2026-04-25T13:20:00Z</time></trkpt><trkpt lat="40.574282094611746" lon="9.691855315038845"><ele>44.0</ele><time>2026-04-25T13:20:01Z</time></trkpt><trkpt lat="40.57420243365293" lon="9.691728533138916"><ele>44.0</ele><time>2026-04-25T13:20:02Z</time></trkpt><trkpt lat="40.57412863615302" lon="9.691611900596065"><ele>44.0</ele><time>2026-04-25T13:20:03Z</time></trkpt><trkpt lat="40.574054816546436" lon="9.691494938839151"><ele>44.0</ele><time>2026-04-25T13:20:04Z</time></trkpt><trkpt lat="40.573983768707095" lon="9.691382225163379"><ele>44.0</ele><time>2026-04-25T13:20:05Z</time></trkpt><trkpt lat="40.57391249358016" lon="9.691269150914378"><ele>44.0</ele><time>2026-04-25T13:20:06Z</time></trkpt><trkpt lat="40.573838096524746" lon="9.691151123929647"><ele>44.0</ele><time>2026-04-25T13:20:07Z</time></trkpt><trkpt lat="40.5737613206486" lon="9.691033389183668"><ele>44.0</ele><time>2026-04-25T13:20:08Z</time></trkpt><trkpt lat="40.57368426821841" lon="9.690914282892853"><ele>44.0</ele><time>2026-04-25T13:20:09Z</time></trkpt><trkpt lat="40.573593629541556" lon="9.690806954046055"><ele>45.2</ele><time>2026-04-25T13:20:10Z</time></trkpt><trkpt lat="40.573529495295666" lon="9.69067087718096"><ele>46.400000000000006</ele><time>2026-04-25T13:20:11Z</time></trkpt><trkpt lat="40.57345581232725" lon="9.690553479130205"><ele>47.6</ele><time>2026-04-25T13:20:12Z</time></trkpt><trkpt lat="40.573388824175744" lon="9.690450061311221"><ele>48.8</ele><time>2026-04-25T13:20:13Z</time></trkpt><trkpt lat="40.57331262822044" lon="9.690358763452156"><ele>50.0</ele><time>2026-04-25T13:20:14Z</time></trkpt><trkpt lat="40.5732520137856" lon="9.690248310162149"><ele>51.25</ele><time>2026-04-25T13:20:15Z</time></trkpt><trkpt lat="40.57317535867759" lon="9.690148309047094"><ele>52.5</ele><time>2026-04-25T13:20:16Z</time></trkpt><trkpt lat="40.573079483627744" lon="9.690059410761629"><ele>53.75</ele><time>2026-04-25T13:20:17Z</time></trkpt><trkpt lat="40.57298041863819" lon="9.689976836097502"><ele>55.0</ele><time>2026-04-25T13:20:18Z</time></trkpt><trkpt lat="40.572882809121616" lon="9.689895777970968"><ele>53.83333333333333</ele><time>2026-04-25T13:20:19Z</time></trkpt><trkpt lat="40.57279640682301" lon="9.68982322021807"><ele>52.666666666666664</ele><time>2026-04-25T13:20:20Z</time></trkpt><trkpt lat="40.57271664572346" lon="9.689754108138102"><ele>51.5</ele><time>2026-04-25T13:20:21Z</time></trkpt><trkpt lat="40.57264622025964" lon="9.6896884068658"><ele>50.33333333333333</ele><time>2026-04-25T13:20:22Z</time></trkpt><trkpt lat="40.57257985715383" lon="9.689624129196856"><ele>49.166666666666664</ele><time>2026-04-25T13:20:23Z</time></trkpt><trkpt lat="40.57251781778153" lon="9.68958777996602"><ele>48.0</ele><time>2026-04-25T13:20:24Z</time></trkpt><trkpt lat="40.57246637121737" lon="9.689512055989239"><ele>48.5</ele><time>2026-04-25T13:20:25Z</time></trkpt><trkpt lat="40.57240214058052" lon="9.689413138609659"><ele>49.0</ele><time>2026-04-25T13:20:26Z</time></trkpt><trkpt lat="40.57233388774729" lon="9.689280158819503"><ele>49.5</ele><time>2026-04-25T13:20:27Z</time></trkpt><trkpt lat="40.5722392338067" lon="9.689166491116676"><ele>50.0</ele><time>2026-04-25T13:20:28Z</time></trkpt><trkpt lat="40.57212400257236" lon="9.68907891734237"><ele>50.0</ele><time>2026-04-25T13:20:29Z</time></trkpt><trkpt lat="40.57203706996764" lon="9.68897571509834"><ele>50.0</ele><time>2026-04-25T13:20:30Z</time></trkpt><trkpt lat="40.57196563490782" lon="9.688872068829188"><ele>50.0</ele><time>2026-04-25T13:20:31Z</time></trkpt><trkpt lat="40.57189129045461" lon="9.688746351140923"><ele>50.0</ele><time>2026-04-25T13:20:32Z</time></trkpt><trkpt lat="40.571816966632376" lon="9.688622259068996"><ele>50.75</ele><time>2026-04-25T13:20:33Z</time></trkpt><trkpt lat="40.571726796397506" lon="9.688503877890405"><ele>51.5</ele><time>2026-04-25T13:20:34Z</time></trkpt><trkpt lat="40.57164796522214" lon="9.68836558727314"><ele>52.25</ele><time>2026-04-25T13:20:35Z</time></trkpt><trkpt lat="40.57157468544266" lon="9.688237695934891"><ele>53.0</ele><time>2026-04-25T13:20:36Z</time></trkpt><trkpt lat="40.57149430412626" lon="9.688113438105702"><ele>53.0</ele><time>2026-04-25T13:20:37Z</time></trkpt><trkpt lat="40.57142298471028" lon="9.687986211488855"><ele>53.0</ele><time>2026-04-25T13:20:38Z</time></trkpt><trkpt lat="40.57134626662031" lon="9.687858900807237"><ele>53.0</ele><time>2026-04-25T13:20:39Z</time></trkpt><trkpt lat="40.57126692079503" lon="9.687732728955828"><ele>53.0</ele><time>2026-04-25T13:20:40Z</time></trkpt><trkpt lat="40.571201463865805" lon="9.687604809387915"><ele>54.75</ele><time>2026-04-25T13:20:41Z</time></trkpt><trkpt lat="40.57113646862914" lon="9.687469259384796"><ele>56.5</ele><time>2026-04-25T13:20:42Z</time></trkpt><trkpt lat="40.571089426710095" lon="9.68733056404"><ele>58.25</ele><time>2026-04-25T13:20:43Z</time></trkpt><trkpt lat="40.57103984355425" lon="9.687188981934138"><ele>60.0</ele><time>2026-04-25T13:20:44Z</time></trkpt><trkpt lat="40.5709902861351" lon="9.687059463857388"><ele>61.0</ele><time>2026-04-25T13:20:45Z</time></trkpt><trkpt lat="40.570946089273285" lon="9.68691719418175"><ele>62.0</ele><time>2026-04-25T13:20:46Z</time></trkpt><trkpt lat="40.57089686510417" lon="9.686776521953504"><ele>63.0</ele><time>2026-04-25T13:20:47Z</time></trkpt><trkpt lat="40.57086760723448" lon="9.686637351704169"><ele>64.0</ele><time>2026-04-25T13:20:48Z</time></trkpt><trkpt lat="40.57084964039347" lon="9.686495676548692"><ele>64.0</ele><time>2026-04-25T13:20:49Z</time></trkpt><trkpt lat="40.57084489137817" lon="9.686345804032696"><ele>64.0</ele><time>2026-04-25T13:20:50Z</time></trkpt><trkpt lat="40.57085373457104" lon="9.686195866110898"><ele>64.0</ele><time>2026-04-25T13:20:51Z</time></trkpt><trkpt lat="40.57086868949363" lon="9.686044654059392"><ele>64.0</ele><time>2026-04-25T13:20:52Z</time></trkpt><trkpt lat="40.570878778602406" lon="9.685888826385817"><ele>65.0</ele><time>2026-04-25T13:20:53Z</time></trkpt><trkpt lat="40.57088634588728" lon="9.68573439394012"><ele>66.0</ele><time>2026-04-25T13:20:54Z</time></trkpt><trkpt lat="40.57088405529454" lon="9.685588085824275"><ele>67.0</ele><time>2026-04-25T13:20:55Z</time></trkpt><trkpt lat="40.57088235640108" lon="9.685461811091372"><ele>68.0</ele><time>2026-04-25T13:20:56Z</time></trkpt><trkpt lat="40.57088878807935" lon="9.685342272778083"><ele>69.0</ele><time>2026-04-25T13:20:57Z</time></trkpt><trkpt lat="40.57088129667769" lon="9.68521722688583"><ele>70.33333333333333</ele><time>2026-04-25T13:20:58Z</time></trkpt><trkpt lat="40.5708596565834" lon="9.68510286582478"><ele>71.66666666666667</ele><time>2026-04-25T13:20:59Z</time></trkpt><trkpt lat="40.57081650034529" lon="9.685015409369468"><ele>73.0</ele><time>2026-04-25T13:21:00Z</time></trkpt><trkpt lat="40.570763533485575" lon="9.684933399333184"><ele>74.33333333333334</ele><time>2026-04-25T13:21:01Z</time></trkpt><trkpt lat="40.5707110511937" lon="9.684856812996534"><ele>75.66666666666667</ele><time>2026-04-25T13:21:02Z</time></trkpt><trkpt lat="40.57066928734214" lon="9.684788041575475"><ele>77.0</ele><time>2026-04-25T13:21:03Z</time></trkpt><trkpt lat="40.570635453126904" lon="9.684709968519922"><ele>77.0</ele><time>2026-04-25T13:21:04Z</time></trkpt><trkpt lat="40.570611705651366" lon="9.68461846446664"><ele>77.0</ele><time>2026-04-25T13:21:05Z</time></trkpt><trkpt lat="40.57060885957219" lon="9.684521728877874"><ele>77.0</ele><time>2026-04-25T13:21:06Z</time></trkpt><trkpt lat="40.570620577028485" lon="9.684426394650277"><ele>77.0</ele><time>2026-04-25T13:21:07Z</time></trkpt><trkpt lat="40.570638511978686" lon="9.684322512496381"><ele>77.0</ele><time>2026-04-25T13:21:08Z</time></trkpt><trkpt lat="40.57066280540036" lon="9.684202724528072"><ele>77.0</ele><time>2026-04-25T13:21:09Z</time></trkpt><trkpt lat="40.57069239956887" lon="9.684051627014966"><ele>78.25</ele><time>2026-04-25T13:21:10Z</time></trkpt><trkpt lat="40.570725823950696" lon="9.683877045202541"><ele>79.5</ele><time>2026-04-25T13:21:11Z</time></trkpt><trkpt lat="40.570754492343106" lon="9.683730462896227"><ele>80.75</ele><time>2026-04-25T13:21:12Z</time></trkpt><trkpt lat="40.57076922184765" lon="9.683600376610295"><ele>82.0</ele><time>2026-04-25T13:21:13Z</time></trkpt><trkpt lat="40.57075940208265" lon="9.683469744951616"><ele>82.75</ele><time>2026-04-25T13:21:14Z</time></trkpt><trkpt lat="40.570719577570415" lon="9.683332341058334"><ele>83.5</ele><time>2026-04-25T13:21:15Z</time></trkpt><trkpt lat="40.57065078785022" lon="9.683167873090905"><ele>84.25</ele><time>2026-04-25T13:21:16Z</time></trkpt><trkpt lat="40.57059963307194" lon="9.683023189805658"><ele>85.0</ele><time>2026-04-25T13:21:17Z</time></trkpt><trkpt lat="40.57053625469035" lon="9.682928578482322"><ele>85.0</ele><time>2026-04-25T13:21:18Z</time></trkpt><trkpt lat="40.57050901650667" lon="9.68283564293739"><ele>85.0</ele><time>2026-04-25T13:21:19Z</time></trkpt><trkpt lat="40.57048632503476" lon="9.682747581093645"><ele>85.0</ele><time>2026-04-25T13:21:20Z</time></trkpt><trkpt lat="40.57063473563868" lon="9.68263030306876"><ele>85.0</ele><time>2026-04-25T13:21:21Z</time></trkpt><trkpt lat="40.57067531570582" lon="9.682509082842607"><ele>85.0</ele><time>2026-04-25T13:21:22Z</time></trkpt><trkpt lat="40.57072957835449" lon="9.682403050415145"><ele>86.6</ele><time>2026-04-25T13:21:23Z</time></trkpt><trkpt lat="40.570782239092566" lon="9.682286510355905"><ele>88.2</ele><time>2026-04-25T13:21:24Z</time></trkpt><trkpt lat="40.57083501309553" lon="9.682161288982549"><ele>89.80000000000001</ele><time>2026-04-25T13:21:25Z</time></trkpt><trkpt lat="40.57088521895414" lon="9.682030283024131"><ele>91.4</ele><time>2026-04-25T13:21:26Z</time></trkpt><trkpt lat="40.57091799511628" lon="9.68188340915953"><ele>93.0</ele><time>2026-04-25T13:21:27Z</time></trkpt><trkpt lat="40.57093603012604" lon="9.681725790096248"><ele>93.0</ele><time>2026-04-25T13:21:28Z</time></trkpt><trkpt lat="40.57093802789601" lon="9.681552606447788"><ele>93.0</ele><time>2026-04-25T13:21:29Z</time></trkpt><trkpt lat="40.57093892639188" lon="9.681355987097826"><ele>93.0</ele><time>2026-04-25T13:21:30Z</time></trkpt><trkpt lat="40.5709486707156" lon="9.681152346364744"><ele>93.0</ele><time>2026-04-25T13:21:31Z</time></trkpt><trkpt lat="40.57096229149716" lon="9.68095396799801"><ele>91.0</ele><time>2026-04-25T13:21:32Z</time></trkpt><trkpt lat="40.57101422890709" lon="9.680772217260664"><ele>89.0</ele><time>2026-04-25T13:21:33Z</time></trkpt><trkpt lat="40.57107995402669" lon="9.680588227086057"><ele>87.0</ele><time>2026-04-25T13:21:34Z</time></trkpt><trkpt lat="40.57116140674005" lon="9.680388134612851"><ele>98.33333333333334</ele><time>2026-04-25T13:21:35Z</time></trkpt><trkpt lat="40.571239749997225" lon="9.680165246442575"><ele>109.66666666666667</ele><time>2026-04-25T13:21:36Z</time></trkpt><trkpt lat="40.5713325692865" lon="9.679949466528054"><ele>121.0</ele><time>2026-04-25T13:21:37Z</time></trkpt><trkpt lat="40.57141721295043" lon="9.679752867549416"><ele>121.0</ele><time>2026-04-25T13:21:38Z</time></trkpt><trkpt lat="40.57149351480385" lon="9.679568056600692"><ele>121.0</ele><time>2026-04-25T13:21:39Z</time></trkpt><trkpt lat="40.57157297814982" lon="9.67938676274819"><ele>121.0</ele><time>2026-04-25T13:21:40Z</time></trkpt><trkpt lat="40.57165778666734" lon="9.679217828635613"><ele>117.8</ele><time>2026-04-25T13:21:41Z</time></trkpt><trkpt lat="40.571727731030016" lon="9.679080986989172"><ele>114.6</ele><time>2026-04-25T13:21:42Z</time></trkpt><trkpt lat="40.57178034470537" lon="9.678983294439847"><ele>111.4</ele><time>2026-04-25T13:21:43Z</time></trkpt><trkpt lat="40.57183089526948" lon="9.678898128916694"><ele>108.2</ele><time>2026-04-25T13:21:44Z</time></trkpt><trkpt lat="40.571886336064736" lon="9.678812691230622"><ele>105.0</ele><time>2026-04-25T13:21:45Z</time></trkpt><trkpt lat="40.571944779257635" lon="9.67871472340521"><ele>105.0</ele><time>2026-04-25T13:21:46Z</time></trkpt><trkpt lat="40.572010438765716" lon="9.67861466124029"><ele>105.0</ele><time>2026-04-25T13:21:47Z</time></trkpt><trkpt lat="40.57208376613883" lon="9.67850766473901"><ele>105.0</ele><time>2026-04-25T13:21:48Z</time></trkpt><trkpt lat="40.572161936134734" lon="9.678392788116579"><ele>105.0</ele><time>2026-04-25T13:21:49Z</time></trkpt><trkpt lat="40.5722413285385" lon="9.678276635767219"><ele>105.0</ele><time>2026-04-25T13:21:50Z</time></trkpt><trkpt lat="40.57231779150306" lon="9.67815627543656"><ele>106.5</ele><time>2026-04-25T13:21:51Z</time></trkpt><trkpt lat="40.57239574884593" lon="9.678032941964856"><ele>108.0</ele><time>2026-04-25T13:21:52Z</time></trkpt><trkpt lat="40.57247620291153" lon="9.677913513042963"><ele>109.5</ele><time>2026-04-25T13:21:53Z</time></trkpt><trkpt lat="40.57255536314428" lon="9.6778023566382"><ele>111.0</ele><time>2026-04-25T13:21:54Z</time></trkpt><trkpt lat="40.57262385033132" lon="9.67769957657374"><ele>111.0</ele><time>2026-04-25T13:21:55Z</time></trkpt><trkpt lat="40.572682926994325" lon="9.677615833941287"><ele>111.0</ele><time>2026-04-25T13:21:56Z</time></trkpt><trkpt lat="40.57273675941591" lon="9.677541267919452"><ele>111.0</ele><time>2026-04-25T13:21:57Z</time></trkpt><trkpt lat="40.572786431297786" lon="9.67746830527905"><ele>111.0</ele><time>2026-04-25T13:21:58Z</time></trkpt><trkpt lat="40.572840465958876" lon="9.677397499164611"><ele>111.0</ele><time>2026-04-25T13:21:59Z</time></trkpt><trkpt lat="40.57290110372813" lon="9.67732890531102"><ele>111.0</ele><time>2026-04-25T13:22:00Z</time></trkpt><trkpt lat="40.572967052639136" lon="9.677261412855167"><ele>113.19999999999999</ele><time>2026-04-25T13:22:01Z</time></trkpt><trkpt lat="40.57303705161855" lon="9.677191980412063"><ele>115.39999999999999</ele><time>2026-04-25T13:22:02Z</time></trkpt><trkpt lat="40.57310935134533" lon="9.677108547885261"><ele>117.6</ele><time>2026-04-25T13:22:03Z</time></trkpt><trkpt lat="40.57319118545007" lon="9.677023137656505"><ele>119.8</ele><time>2026-04-25T13:22:04Z</time></trkpt><trkpt lat="40.573280439249906" lon="9.676936169680811"><ele>122.0</ele><time>2026-04-25T13:22:05Z</time></trkpt><trkpt lat="40.57336928090173" lon="9.676852151243706"><ele>122.0</ele><time>2026-04-25T13:22:06Z</time></trkpt><trkpt lat="40.57345149233127" lon="9.676767941970816"><ele>121.99999999999999</ele><time>2026-04-25T13:22:07Z</time></trkpt><trkpt lat="40.573529568432036" lon="9.676690866700108"><ele>121.99999999999999</ele><time>2026-04-25T13:22:08Z</time></trkpt><trkpt lat="40.57360457693267" lon="9.676624315153918"><ele>122.0</ele><time>2026-04-25T13:22:09Z</time></trkpt><trkpt lat="40.57367927729757" lon="9.676551775836112"><ele>122.0</ele><time>2026-04-25T13:22:10Z</time></trkpt><trkpt lat="40.57376645678735" lon="9.676472481609265"><ele>123.25</ele><time>2026-04-25T13:22:11Z</time></trkpt><trkpt lat="40.57387378637861" lon="9.67637754660377"><ele>124.5</ele><time>2026-04-25T13:22:12Z</time></trkpt><trkpt lat="40.57398921161718" lon="9.676268216733833"><ele>125.75</ele><time>2026-04-25T13:22:13Z</time></trkpt><trkpt lat="40.57410100335928" lon="9.67615097594603"><ele>127.0</ele><time>2026-04-25T13:22:14Z</time></trkpt><trkpt lat="40.57419499059991" lon="9.676041394342402"><ele>127.0</ele><time>2026-04-25T13:22:15Z</time></trkpt><trkpt lat="40.574279229699904" lon="9.67595184349797"><ele>126.99999999999999</ele><time>2026-04-25T13:22:16Z</time></trkpt><trkpt lat="40.57436268422461" lon="9.675879938061279"><ele>126.99999999999999</ele><time>2026-04-25T13:22:17Z</time></trkpt><trkpt lat="40.574459553456464" lon="9.67583190282382"><ele>127.0</ele><time>2026-04-25T13:22:18Z</time></trkpt><trkpt lat="40.57457913952073" lon="9.675810744220694"><ele>127.0</ele><time>2026-04-25T13:22:19Z</time></trkpt><trkpt lat="40.574722003673095" lon="9.67580367369459"><ele>133.0</ele><time>2026-04-25T13:22:20Z</time></trkpt><trkpt lat="40.57488200687785" lon="9.675793978547436"><ele>139.0</ele><time>2026-04-25T13:22:21Z</time></trkpt><trkpt lat="40.57503445761394" lon="9.675774203552578"><ele>145.0</ele><time>2026-04-25T13:22:22Z</time></trkpt><trkpt lat="40.57517276725742" lon="9.675729843962587"><ele>145.0</ele><time>2026-04-25T13:22:23Z</time></trkpt><trkpt lat="40.57531977940589" lon="9.675638444204692"><ele>145.0</ele><time>2026-04-25T13:22:24Z</time></trkpt><trkpt lat="40.57547149687109" lon="9.67551409601283"><ele>145.0</ele><time>2026-04-25T13:22:25Z</time></trkpt><trkpt lat="40.575608458381446" lon="9.67541017218958"><ele>150.5</ele><time>2026-04-25T13:22:26Z</time></trkpt><trkpt lat="40.575737759095354" lon="9.675349774608009"><ele>156.0</ele><time>2026-04-25T13:22:27Z</time></trkpt><trkpt lat="40.575863384954786" lon="9.675359796842253"><ele>161.5</ele><time>2026-04-25T13:22:28Z</time></trkpt><trkpt lat="40.57597820779903" lon="9.675349781346124"><ele>167.0</ele><time>2026-04-25T13:22:29Z</time></trkpt><trkpt lat="40.57608496796612" lon="9.67531302968615"><ele>165.33333333333331</ele><time>2026-04-25T13:22:30Z</time></trkpt><trkpt lat="40.57619118005949" lon="9.675204750644973"><ele>163.66666666666666</ele><time>2026-04-25T13:22:31Z</time></trkpt><trkpt lat="40.576292980805015" lon="9.675045316771408"><ele>162.0</ele><time>2026-04-25T13:22:32Z</time></trkpt><trkpt lat="40.57639650829018" lon="9.674858568467878"><ele>162.0</ele><time>2026-04-25T13:22:33Z</time></trkpt><trkpt lat="40.576501351310036" lon="9.67469166894111"><ele>162.0</ele><time>2026-04-25T13:22:34Z</time></trkpt><trkpt lat="40.57659865929256" lon="9.674556722748699"><ele>162.0</ele><time>2026-04-25T13:22:35Z</time></trkpt><trkpt lat="40.5767018143289" lon="9.674458346656516"><ele>162.0</ele><time>2026-04-25T13:22:36Z</time></trkpt><trkpt lat="40.5768158213109" lon="9.674396582024263"><ele>159.0</ele><time>2026-04-25T13:22:37Z</time></trkpt><trkpt lat="40.57693100124651" lon="9.674373861045801"><ele>156.0</ele><time>2026-04-25T13:22:38Z</time></trkpt><trkpt lat="40.57702815568075" lon="9.67435036467217"><ele>153.0</ele><time>2026-04-25T13:22:39Z</time></trkpt><trkpt lat="40.57712291369328" lon="9.674278273902498"><ele>150.0</ele><time>2026-04-25T13:22:40Z</time></trkpt><trkpt lat="40.57721294406835" lon="9.674155400323956"><ele>153.75</ele><time>2026-04-25T13:22:41Z</time></trkpt><trkpt lat="40.577292781130225" lon="9.674010227069779"><ele>157.5</ele><time>2026-04-25T13:22:42Z</time></trkpt><trkpt lat="40.577359036801546" lon="9.673847048879221"><ele>161.25</ele><time>2026-04-25T13:22:43Z</time></trkpt><trkpt lat="40.57739399230966" lon="9.67365416737042"><ele>165.0</ele><time>2026-04-25T13:22:44Z</time></trkpt><trkpt lat="40.577418101839605" lon="9.673465073019376"><ele>165.0</ele><time>2026-04-25T13:22:45Z</time></trkpt><trkpt lat="40.57749317835232" lon="9.673309710676577"><ele>165.0</ele><time>2026-04-25T13:22:46Z</time></trkpt><trkpt lat="40.57757927427856" lon="9.673150835220358"><ele>165.0</ele><time>2026-04-25T13:22:47Z</time></trkpt><trkpt lat="40.57765614542733" lon="9.672985013665107"><ele>165.0</ele><time>2026-04-25T13:22:48Z</time></trkpt><trkpt lat="40.577780421423874" lon="9.672866430734691"><ele>169.66666666666666</ele><time>2026-04-25T13:22:49Z</time></trkpt><trkpt lat="40.57791941017347" lon="9.672735309749699"><ele>174.33333333333331</ele><time>2026-04-25T13:22:50Z</time></trkpt><trkpt lat="40.57803180589121" lon="9.672579397875817"><ele>179.0</ele><time>2026-04-25T13:22:51Z</time></trkpt><trkpt lat="40.578119920434325" lon="9.672433543484559"><ele>179.0</ele><time>2026-04-25T13:22:52Z</time></trkpt><trkpt lat="40.5781969965063" lon="9.672302432026656"><ele>179.0</ele><time>2026-04-25T13:22:53Z</time></trkpt><trkpt lat="40.57828125806605" lon="9.672200851026718"><ele>179.0</ele><time>2026-04-25T13:22:54Z</time></trkpt><trkpt lat="40.57838709256717" lon="9.672152617595051"><ele>179.0</ele><time>2026-04-25T13:22:55Z</time></trkpt><trkpt lat="40.57851597526729" lon="9.67215178911902"><ele>179.0</ele><time>2026-04-25T13:22:56Z</time></trkpt><trkpt lat="40.5786460562368" lon="9.672157730480551"><ele>179.0</ele><time>2026-04-25T13:22:57Z</time></trkpt><trkpt lat="40.57874508506718" lon="9.672118679438034"><ele>179.0</ele><time>2026-04-25T13:22:58Z</time></trkpt><trkpt lat="40.57882477853774" lon="9.67201038281403"><ele>179.0</ele><time>2026-04-25T13:22:59Z</time></trkpt><trkpt lat="40.57889311434798" lon="9.671852121079192"><ele>182.0</ele><time>2026-04-25T13:23:00Z</time></trkpt><trkpt lat="40.57896168464211" lon="9.671664211579438"><ele>185.0</ele><time>2026-04-25T13:23:01Z</time></trkpt><trkpt lat="40.57905523361992" lon="9.671521143224865"><ele>188.0</ele><time>2026-04-25T13:23:02Z</time></trkpt><trkpt lat="40.57916268951471" lon="9.671441461260306"><ele>191.0</ele><time>2026-04-25T13:23:03Z</time></trkpt><trkpt lat="40.57923690017414" lon="9.67134376399065"><ele>191.0</ele><time>2026-04-25T13:23:04Z</time></trkpt><trkpt lat="40.57929770719284" lon="9.671231975849864"><ele>191.0</ele><time>2026-04-25T13:23:05Z</time></trkpt><trkpt lat="40.57932438107631" lon="9.671065425103231"><ele>191.0</ele><time>2026-04-25T13:23:06Z</time></trkpt><trkpt lat="40.57933516506205" lon="9.670856921977563"><ele>191.0</ele><time>2026-04-25T13:23:07Z</time></trkpt><trkpt lat="40.579403021122964" lon="9.670660365990265"><ele>188.25</ele><time>2026-04-25T13:23:08Z</time></trkpt><trkpt lat="40.57946923462289" lon="9.67047648800873"><ele>185.5</ele><time>2026-04-25T13:23:09Z</time></trkpt><trkpt lat="40.579541365542106" lon="9.670337681693132"><ele>182.75</ele><time>2026-04-25T13:23:10Z</time></trkpt><trkpt lat="40.57963924258571" lon="9.67022857636881"><ele>180.0</ele><time>2026-04-25T13:23:11Z</time></trkpt><trkpt lat="40.579743750058604" lon="9.670099378334957"><ele>186.25</ele><time>2026-04-25T13:23:12Z</time></trkpt><trkpt lat="40.57985089299453" lon="9.670001856743045"><ele>192.5</ele><time>2026-04-25T13:23:13Z</time></trkpt><trkpt lat="40.57993765847965" lon="9.669908513970448"><ele>198.75</ele><time>2026-04-25T13:23:14Z</time></trkpt><trkpt lat="40.580012985505746" lon="9.669809952743005"><ele>205.0</ele><time>2026-04-25T13:23:15Z</time></trkpt><trkpt lat="40.58004981848051" lon="9.6696790738479"><ele>205.0</ele><time>2026-04-25T13:23:16Z</time></trkpt><trkpt lat="40.58004924427848" lon="9.6695450968186"><ele>205.0</ele><time>2026-04-25T13:23:17Z</time></trkpt><trkpt lat="40.58000394442823" lon="9.669426241422022"><ele>205.0</ele><time>2026-04-25T13:23:18Z</time></trkpt><trkpt lat="40.57989602035168" lon="9.66931330336872"><ele>205.0</ele><time>2026-04-25T13:23:19Z</time></trkpt><trkpt lat="40.579800969715166" lon="9.669188767567732"><ele>205.2</ele><time>2026-04-25T13:23:20Z</time></trkpt><trkpt lat="40.579749117512094" lon="9.669067530910018"><ele>205.4</ele><time>2026-04-25T13:23:21Z</time></trkpt><trkpt lat="40.57974465749414" lon="9.668937131326842"><ele>205.60000000000002</ele><time>2026-04-25T13:23:22Z</time></trkpt><trkpt lat="40.57978117771326" lon="9.668801149081617"><ele>205.8</ele><time>2026-04-25T13:23:23Z</time></trkpt><trkpt lat="40.5798462782803" lon="9.668651409220752"><ele>206.0</ele><time>2026-04-25T13:23:24Z</time></trkpt><trkpt lat="40.579921665850996" lon="9.668531733026775"><ele>205.20000000000002</ele><time>2026-04-25T13:23:25Z</time></trkpt><trkpt lat="40.58002641878027" lon="9.668478166159936"><ele>204.4</ele><time>2026-04-25T13:23:26Z</time></trkpt><trkpt lat="40.580117252077834" lon="9.668422188936422"><ele>203.6</ele><time>2026-04-25T13:23:27Z</time></trkpt><trkpt lat="40.5801788572275" lon="9.66833664668936"><ele>202.8</ele><time>2026-04-25T13:23:28Z</time></trkpt><trkpt lat="40.58019657533105" lon="9.668210472881054"><ele>202.0</ele><time>2026-04-25T13:23:29Z</time></trkpt><trkpt lat="40.58017647153403" lon="9.668065225525892"><ele>202.0</ele><time>2026-04-25T13:23:30Z</time></trkpt><trkpt lat="40.58016403449045" lon="9.667876664113235"><ele>202.0</ele><time>2026-04-25T13:23:31Z</time></trkpt><trkpt lat="40.58014559715366" lon="9.667700075040955"><ele>202.0</ele><time>2026-04-25T13:23:32Z</time></trkpt><trkpt lat="40.580150270095466" lon="9.667547399264727"><ele>202.0</ele><time>2026-04-25T13:23:33Z</time></trkpt><trkpt lat="40.58013969232946" lon="9.667433380126322"><ele>202.0</ele><time>2026-04-25T13:23:34Z</time></trkpt><trkpt lat="40.58031489297109" lon="9.667347693097865"><ele>202.0</ele><time>2026-04-25T13:23:35Z</time></trkpt><trkpt lat="40.58043424937437" lon="9.667305520196749"><ele>202.0</ele><time>2026-04-25T13:23:36Z</time></trkpt><trkpt lat="40.58053861003739" lon="9.667262385460798"><ele>202.0</ele><time>2026-04-25T13:23:37Z</time></trkpt><trkpt lat="40.58060202060225" lon="9.667159075503324"><ele>209.0</ele><time>2026-04-25T13:23:38Z</time></trkpt><trkpt lat="40.580632183648156" lon="9.667016022125697"><ele>216.0</ele><time>2026-04-25T13:23:39Z</time></trkpt><trkpt lat="40.58064806588874" lon="9.666833623205106"><ele>223.0</ele><time>2026-04-25T13:23:40Z</time></trkpt><trkpt lat="40.58066645493943" lon="9.666631091740001"><ele>230.0</ele><time>2026-04-25T13:23:41Z</time></trkpt><trkpt lat="40.58066179531233" lon="9.666433509769426"><ele>230.0</ele><time>2026-04-25T13:23:42Z</time></trkpt><trkpt lat="40.58064140501315" lon="9.66626111339435"><ele>230.0</ele><time>2026-04-25T13:23:43Z</time></trkpt><trkpt lat="40.58063736430428" lon="9.66610293991094"><ele>230.0</ele><time>2026-04-25T13:23:44Z</time></trkpt><trkpt lat="40.580669447109855" lon="9.66595355097734"><ele>230.0</ele><time>2026-04-25T13:23:45Z</time></trkpt><trkpt lat="40.58073809582371" lon="9.66579663388575"><ele>230.25</ele><time>2026-04-25T13:23:46Z</time></trkpt><trkpt lat="40.580787677056655" lon="9.665646388745778"><ele>230.5</ele><time>2026-04-25T13:23:47Z</time></trkpt><trkpt lat="40.58078156271006" lon="9.665492968590945"><ele>230.75</ele><time>2026-04-25T13:23:48Z</time></trkpt><trkpt lat="40.580734294322426" lon="9.665338109639142"><ele>231.0</ele><time>2026-04-25T13:23:49Z</time></trkpt><trkpt lat="40.580692810716116" lon="9.665205264506918"><ele>231.75</ele><time>2026-04-25T13:23:50Z</time></trkpt><trkpt lat="40.58069456979484" lon="9.665042674976124"><ele>232.5</ele><time>2026-04-25T13:23:51Z</time></trkpt><trkpt lat="40.58072816347495" lon="9.664852456103642"><ele>233.25</ele><time>2026-04-25T13:23:52Z</time></trkpt><trkpt lat="40.580773869226185" lon="9.6646978509703"><ele>234.0</ele><time>2026-04-25T13:23:53Z</time></trkpt><trkpt lat="40.58084088666937" lon="9.66457402959287"><ele>234.0</ele><time>2026-04-25T13:23:54Z</time></trkpt><trkpt lat="40.58094406273249" lon="9.66445393908419"><ele>234.0</ele><time>2026-04-25T13:23:55Z</time></trkpt><trkpt lat="40.58106026773586" lon="9.664362153617963"><ele>234.0</ele><time>2026-04-25T13:23:56Z</time></trkpt><trkpt lat="40.58115366883639" lon="9.664287999501532"><ele>234.0</ele><time>2026-04-25T13:23:57Z</time></trkpt><trkpt lat="40.58121766295673" lon="9.664204714980222"><ele>234.79999999999998</ele><time>2026-04-25T13:23:58Z</time></trkpt><trkpt lat="40.58124759725293" lon="9.664099219514853"><ele>235.59999999999997</ele><time>2026-04-25T13:23:59Z</time></trkpt><trkpt lat="40.581227185271594" lon="9.66396786610094"><ele>236.4</ele><time>2026-04-25T13:24:00Z</time></trkpt><trkpt lat="40.58117406042711" lon="9.663835226562119"><ele>237.2</ele><time>2026-04-25T13:24:01Z</time></trkpt><trkpt lat="40.581107720625575" lon="9.663672854146249"><ele>238.0</ele><time>2026-04-25T13:24:02Z</time></trkpt><trkpt lat="40.58108360972062" lon="9.663482834098826"><ele>238.0</ele><time>2026-04-25T13:24:03Z</time></trkpt><trkpt lat="40.5810960948851" lon="9.663312949083465"><ele>238.0</ele><time>2026-04-25T13:24:04Z</time></trkpt><trkpt lat="40.58109589033738" lon="9.663177372868295"><ele>238.0</ele><time>2026-04-25T13:24:05Z</time></trkpt><trkpt lat="40.5810451285166" lon="9.663062517814499"><ele>238.0</ele><time>2026-04-25T13:24:06Z</time></trkpt><trkpt lat="40.58094245931178" lon="9.66296015117753"><ele>238.0</ele><time>2026-04-25T13:24:07Z</time></trkpt><trkpt lat="40.58080953698781" lon="9.662863929483576"><ele>238.0</ele><time>2026-04-25T13:24:08Z</time></trkpt><trkpt lat="40.58069737157112" lon="9.662778791705197"><ele>238.0</ele><time>2026-04-25T13:24:09Z</time></trkpt><trkpt lat="40.580630750321006" lon="9.662681516112379"><ele>238.0</ele><time>2026-04-25T13:24:10Z</time></trkpt><trkpt lat="40.580620512990095" lon="9.662562573836615"><ele>239.60000000000002</ele><time>2026-04-25T13:24:11Z</time></trkpt><trkpt lat="40.58065517208333" lon="9.662439671971761"><ele>241.20000000000002</ele><time>2026-04-25T13:24:12Z</time></trkpt><trkpt lat="40.580726472293414" lon="9.662363508299446"><ele>242.8</ele><time>2026-04-25T13:24:13Z</time></trkpt><trkpt lat="40.5808154516389" lon="9.66235045968743"><ele>244.4</ele><time>2026-04-25T13:24:14Z</time></trkpt><trkpt lat="40.58091764312673" lon="9.66240079060589"><ele>246.0</ele><time>2026-04-25T13:24:15Z</time></trkpt><trkpt lat="40.58102607499198" lon="9.662502323875762"><ele>246.0</ele><time>2026-04-25T13:24:16Z</time></trkpt><trkpt lat="40.58113942488697" lon="9.662655691939623"><ele>246.0</ele><time>2026-04-25T13:24:16.999Z</time></trkpt><trkpt lat="40.58124033795224" lon="9.662843707219327"><ele>246.0</ele><time>2026-04-25T13:24:17.999Z</time></trkpt><trkpt lat="40.58131678853128" lon="9.663049584333328"><ele>251.33333333333331</ele><time>2026-04-25T13:24:18.999Z</time></trkpt><trkpt lat="40.581375311090184" lon="9.66326741921566"><ele>256.66666666666663</ele><time>2026-04-25T13:24:19.999Z</time></trkpt><trkpt lat="40.581428082925356" lon="9.663458974580923"><ele>262.0</ele><time>2026-04-25T13:24:20.999Z</time></trkpt><trkpt lat="40.58150137576886" lon="9.663600100164846"><ele>260.75</ele><time>2026-04-25T13:24:21.999Z</time></trkpt><trkpt lat="40.58160501993654" lon="9.663681619378531"><ele>259.5</ele><time>2026-04-25T13:24:22.999Z</time></trkpt><trkpt lat="40.58173586146645" lon="9.663711605536795"><ele>258.25</ele><time>2026-04-25T13:24:23.999Z</time></trkpt><trkpt lat="40.5818684798835" lon="9.663713587034774"><ele>257.0</ele><time>2026-04-25T13:24:24.999Z</time></trkpt><trkpt lat="40.581964563706954" lon="9.663751225349369"><ele>257.0</ele><time>2026-04-25T13:24:25.999Z</time></trkpt><trkpt lat="40.58201616085618" lon="9.663845860129385"><ele>257.0</ele><time>2026-04-25T13:24:26.999Z</time></trkpt><trkpt lat="40.58201597400195" lon="9.663965325169906"><ele>257.0</ele><time>2026-04-25T13:24:27.999Z</time></trkpt><trkpt lat="40.581990025629445" lon="9.664111825691856"><ele>257.0</ele><time>2026-04-25T13:24:28.999Z</time></trkpt><trkpt lat="40.581962130143744" lon="9.664299743148648"><ele>257.0</ele><time>2026-04-25T13:24:30Z</time></trkpt><trkpt lat="40.581939708496556" lon="9.664515064577387"><ele>257.75</ele><time>2026-04-25T13:24:31Z</time></trkpt><trkpt lat="40.58191946871495" lon="9.664739848958334"><ele>258.5</ele><time>2026-04-25T13:24:32Z</time></trkpt><trkpt lat="40.581891311903306" lon="9.664932214005793"><ele>259.25</ele><time>2026-04-25T13:24:33Z</time></trkpt><trkpt lat="40.58183792768729" lon="9.665085748535079"><ele>260.0</ele><time>2026-04-25T13:24:34Z</time></trkpt><trkpt lat="40.58177596578338" lon="9.665216813887936"><ele>260.25</ele><time>2026-04-25T13:24:35Z</time></trkpt><trkpt lat="40.58174699376095" lon="9.665371194771307"><ele>260.5</ele><time>2026-04-25T13:24:36Z</time></trkpt><trkpt lat="40.58175866020404" lon="9.665569561215532"><ele>260.75</ele><time>2026-04-25T13:24:37Z</time></trkpt><trkpt lat="40.581773484690025" lon="9.6657423884413"><ele>261.0</ele><time>2026-04-25T13:24:38Z</time></trkpt><trkpt lat="40.58179413421761" lon="9.665875533518047"><ele>261.0</ele><time>2026-04-25T13:24:39Z</time></trkpt><trkpt lat="40.58184782936132" lon="9.66596704451591"><ele>261.0</ele><time>2026-04-25T13:24:40Z</time></trkpt><trkpt lat="40.581933803970536" lon="9.666007825270237"><ele>261.0</ele><time>2026-04-25T13:24:41Z</time></trkpt><trkpt lat="40.58203200094316" lon="9.665998950189625"><ele>261.0</ele><time>2026-04-25T13:24:42Z</time></trkpt><trkpt lat="40.58212014051802" lon="9.665934627811792"><ele>261.0</ele><time>2026-04-25T13:24:43Z</time></trkpt><trkpt lat="40.58218811677533" lon="9.665822498620248"><ele>261.0</ele><time>2026-04-25T13:24:44Z</time></trkpt><trkpt lat="40.58223508669926" lon="9.665649557880515"><ele>261.0</ele><time>2026-04-25T13:24:45Z</time></trkpt><trkpt lat="40.58228168481755" lon="9.665447454339"><ele>261.0</ele><time>2026-04-25T13:24:46Z</time></trkpt><trkpt lat="40.58233527897194" lon="9.665219968093968"><ele>262.6666666666667</ele><time>2026-04-25T13:24:47Z</time></trkpt><trkpt lat="40.582402973081784" lon="9.664978671458963"><ele>264.33333333333337</ele><time>2026-04-25T13:24:48Z</time></trkpt><trkpt lat="40.58247823922074" lon="9.664731770992109"><ele>266.0</ele><time>2026-04-25T13:24:49Z</time></trkpt><trkpt lat="40.582544430543535" lon="9.664509314120123"><ele>268.0</ele><time>2026-04-25T13:24:50Z</time></trkpt><trkpt lat="40.582602586699075" lon="9.664306247578134"><ele>270.0</ele><time>2026-04-25T13:24:51Z</time></trkpt><trkpt lat="40.58265265642962" lon="9.66412124367874"><ele>272.0</ele><time>2026-04-25T13:24:52Z</time></trkpt><trkpt lat="40.58270526046251" lon="9.663960223482448"><ele>274.0</ele><time>2026-04-25T13:24:53Z</time></trkpt><trkpt lat="40.582784227459655" lon="9.66384403824241"><ele>271.3333333333333</ele><time>2026-04-25T13:24:54Z</time></trkpt><trkpt lat="40.58289716742376" lon="9.663771112957347"><ele>268.6666666666667</ele><time>2026-04-25T13:24:55Z</time></trkpt><trkpt lat="40.58304292179328" lon="9.663720004755223"><ele>266.0</ele><time>2026-04-25T13:24:56Z</time></trkpt><trkpt lat="40.583211309889876" lon="9.663666615913892"><ele>265.25</ele><time>2026-04-25T13:24:57Z</time></trkpt><trkpt lat="40.58336354624138" lon="9.6636027217514"><ele>264.5</ele><time>2026-04-25T13:24:58Z</time></trkpt><trkpt lat="40.58348600783815" lon="9.663573275294521"><ele>263.75</ele><time>2026-04-25T13:24:59Z</time></trkpt><trkpt lat="40.58359124801333" lon="9.663599440495496"><ele>263.0</ele><time>2026-04-25T13:25:00Z</time></trkpt><trkpt lat="40.58368891843744" lon="9.663675947967626"><ele>263.0</ele><time>2026-04-25T13:25:01Z</time></trkpt><trkpt lat="40.58378849131933" lon="9.663760764533285"><ele>263.0</ele><time>2026-04-25T13:25:02Z</time></trkpt><trkpt lat="40.58388342145233" lon="9.66379419049882"><ele>263.0</ele><time>2026-04-25T13:25:03Z</time></trkpt><trkpt lat="40.58396945540916" lon="9.663767412974584"><ele>263.0</ele><time>2026-04-25T13:25:04Z</time></trkpt><trkpt lat="40.58403181751273" lon="9.663689941450885"><ele>263.0</ele><time>2026-04-25T13:25:05Z</time></trkpt><trkpt lat="40.58405063910696" lon="9.66357713049445"><ele>271.25</ele><time>2026-04-25T13:25:06Z</time></trkpt><trkpt lat="40.58403686484819" lon="9.663458849624407"><ele>279.5</ele><time>2026-04-25T13:25:07Z</time></trkpt><trkpt lat="40.58398144192726" lon="9.663343085760866"><ele>287.75</ele><time>2026-04-25T13:25:08Z</time></trkpt><trkpt lat="40.583884195583664" lon="9.663239789307296"><ele>296.0</ele><time>2026-04-25T13:25:09Z</time></trkpt><trkpt lat="40.583744074114755" lon="9.663159061541421"><ele>294.5</ele><time>2026-04-25T13:25:10Z</time></trkpt><trkpt lat="40.58360280703041" lon="9.663109247950082"><ele>293.0</ele><time>2026-04-25T13:25:11Z</time></trkpt><trkpt lat="40.58346713148405" lon="9.663104867430095"><ele>291.5</ele><time>2026-04-25T13:25:12Z</time></trkpt><trkpt lat="40.58332970101912" lon="9.663145390992591"><ele>290.0</ele><time>2026-04-25T13:25:13Z</time></trkpt><trkpt lat="40.58321509136295" lon="9.663205808628037"><ele>290.0</ele><time>2026-04-25T13:25:14Z</time></trkpt><trkpt lat="40.58311641444875" lon="9.663196129734088"><ele>290.0</ele><time>2026-04-25T13:25:15Z</time></trkpt><trkpt lat="40.58303016537976" lon="9.663160599378395"><ele>290.0</ele><time>2026-04-25T13:25:16Z</time></trkpt><trkpt lat="40.58297708064192" lon="9.66305562045275"><ele>290.0</ele><time>2026-04-25T13:25:17Z</time></trkpt><trkpt lat="40.58290771293973" lon="9.662916361663644"><ele>290.0</ele><time>2026-04-25T13:25:18Z</time></trkpt><trkpt lat="40.58282506375044" lon="9.662745492713634"><ele>291.25</ele><time>2026-04-25T13:25:19Z</time></trkpt><trkpt lat="40.58274207810922" lon="9.66256423937942"><ele>292.5</ele><time>2026-04-25T13:25:20Z</time></trkpt><trkpt lat="40.58267714157689" lon="9.662405236769827"><ele>293.75</ele><time>2026-04-25T13:25:21Z</time></trkpt><trkpt lat="40.5826339814944" lon="9.662245165599662"><ele>295.0</ele><time>2026-04-25T13:25:22Z</time></trkpt><trkpt lat="40.582601253908145" lon="9.662045477958973"><ele>299.3333333333333</ele><time>2026-04-25T13:25:23Z</time></trkpt><trkpt lat="40.58257334000263" lon="9.661822176120191"><ele>303.6666666666667</ele><time>2026-04-25T13:25:24Z</time></trkpt><trkpt lat="40.58252589330775" lon="9.661633720244593"><ele>308.0</ele><time>2026-04-25T13:25:25Z</time></trkpt><trkpt lat="40.582454473663745" lon="9.661476037643308"><ele>308.0</ele><time>2026-04-25T13:25:26Z</time></trkpt><trkpt lat="40.582368081986225" lon="9.661340522412607"><ele>308.0</ele><time>2026-04-25T13:25:27Z</time></trkpt><trkpt lat="40.58234164814381" lon="9.661183050509278"><ele>308.0</ele><time>2026-04-25T13:25:28Z</time></trkpt><trkpt lat="40.582318398812546" lon="9.661019748123138"><ele>308.0</ele><time>2026-04-25T13:25:29Z</time></trkpt><trkpt lat="40.5823439215529" lon="9.660845391672838"><ele>310.0</ele><time>2026-04-25T13:25:30Z</time></trkpt><trkpt lat="40.582353899253086" lon="9.660664756794858"><ele>312.0</ele><time>2026-04-25T13:25:31Z</time></trkpt><trkpt lat="40.58235304551854" lon="9.66051677504344"><ele>314.0</ele><time>2026-04-25T13:25:32Z</time></trkpt><trkpt lat="40.582294091378714" lon="9.660375434656725"><ele>316.0</ele><time>2026-04-25T13:25:33Z</time></trkpt><trkpt lat="40.582194470434494" lon="9.66024112595346"><ele>318.3333333333333</ele><time>2026-04-25T13:25:34Z</time></trkpt><trkpt lat="40.58209810567911" lon="9.660072797081021"><ele>320.6666666666667</ele><time>2026-04-25T13:25:35Z</time></trkpt><trkpt lat="40.58201823549262" lon="9.659883154089039"><ele>323.0</ele><time>2026-04-25T13:25:36Z</time></trkpt><trkpt lat="40.581938538315306" lon="9.659668625622883"><ele>322.6666666666667</ele><time>2026-04-25T13:25:37Z</time></trkpt><trkpt lat="40.58186156825803" lon="9.65943495768988"><ele>322.3333333333333</ele><time>2026-04-25T13:25:38Z</time></trkpt><trkpt lat="40.58177877515751" lon="9.65918989050629"><ele>322.0</ele><time>2026-04-25T13:25:39Z</time></trkpt><trkpt lat="40.58171387529148" lon="9.658929367723173"><ele>322.0</ele><time>2026-04-25T13:25:40Z</time></trkpt><trkpt lat="40.5815983969857" lon="9.658692930384088"><ele>322.0</ele><time>2026-04-25T13:25:41Z</time></trkpt><trkpt lat="40.581499103533346" lon="9.658456608821622"><ele>322.0</ele><time>2026-04-25T13:25:42Z</time></trkpt><trkpt lat="40.581439856885176" lon="9.65819800222375"><ele>326.3333333333333</ele><time>2026-04-25T13:25:43Z</time></trkpt><trkpt lat="40.58134637943406" lon="9.65796162473237"><ele>330.6666666666667</ele><time>2026-04-25T13:25:44Z</time></trkpt><trkpt lat="40.581244354150044" lon="9.657767030096906"><ele>335.0</ele><time>2026-04-25T13:25:45Z</time></trkpt><trkpt lat="40.58119521204843" lon="9.657563446766538"><ele>331.33333333333337</ele><time>2026-04-25T13:25:46Z</time></trkpt><trkpt lat="40.58112129207117" lon="9.657377034771121"><ele>327.6666666666667</ele><time>2026-04-25T13:25:47Z</time></trkpt><trkpt lat="40.581033429561685" lon="9.657189334009745"><ele>324.0</ele><time>2026-04-25T13:25:48Z</time></trkpt><trkpt lat="40.58090802021309" lon="9.65700531481568"><ele>331.3333333333333</ele><time>2026-04-25T13:25:49Z</time></trkpt><trkpt lat="40.58080972048099" lon="9.656811659985626"><ele>338.66666666666663</ele><time>2026-04-25T13:25:50Z</time></trkpt><trkpt lat="40.580726626838036" lon="9.656639758628907"><ele>346.0</ele><time>2026-04-25T13:25:51Z</time></trkpt><trkpt lat="40.5806620549155" lon="9.656471006694213"><ele>346.0</ele><time>2026-04-25T13:25:52Z</time></trkpt><trkpt lat="40.58061337775078" lon="9.656271090494368"><ele>346.0</ele><time>2026-04-25T13:25:53Z</time></trkpt><trkpt lat="40.58056037602873" lon="9.656049082626735"><ele>346.0</ele><time>2026-04-25T13:25:54Z</time></trkpt><trkpt lat="40.580467087735954" lon="9.655828850575872"><ele>346.0</ele><time>2026-04-25T13:25:55Z</time></trkpt><trkpt lat="40.58035454798774" lon="9.65561775247243"><ele>346.0</ele><time>2026-04-25T13:25:56Z</time></trkpt><trkpt lat="40.58025372999923" lon="9.655430782213775"><ele>346.0</ele><time>2026-04-25T13:25:57Z</time></trkpt><trkpt lat="40.58021230352182" lon="9.655237699234728"><ele>346.0</ele><time>2026-04-25T13:25:58Z</time></trkpt><trkpt lat="40.58020358068889" lon="9.655049472984846"><ele>346.0</ele><time>2026-04-25T13:25:59Z</time></trkpt><trkpt lat="40.580169505833055" lon="9.654860251580981"><ele>346.0</ele><time>2026-04-25T13:26:00Z</time></trkpt><trkpt lat="40.58013816563711" lon="9.654700786610576"><ele>346.0</ele><time>2026-04-25T13:26:01Z</time></trkpt><trkpt lat="40.58005273620682" lon="9.65457311435275"><ele>346.0</ele><time>2026-04-25T13:26:02Z</time></trkpt><trkpt lat="40.5799326069097" lon="9.654462137540552"><ele>346.0</ele><time>2026-04-25T13:26:03Z</time></trkpt><trkpt lat="40.5798000807216" lon="9.654346089194775"><ele>346.0</ele><time>2026-04-25T13:26:04Z</time></trkpt><trkpt lat="40.57971442041962" lon="9.654175878547353"><ele>341.0</ele><time>2026-04-25T13:26:05Z</time></trkpt><trkpt lat="40.57963143731287" lon="9.653990090093625"><ele>336.0</ele><time>2026-04-25T13:26:06Z</time></trkpt><trkpt lat="40.579527196562" lon="9.65381695914532"><ele>331.0</ele><time>2026-04-25T13:26:07Z</time></trkpt><trkpt lat="40.57944386699425" lon="9.653659483168042"><ele>335.0</ele><time>2026-04-25T13:26:08Z</time></trkpt><trkpt lat="40.579374778800364" lon="9.653536773638669"><ele>339.0</ele><time>2026-04-25T13:26:09Z</time></trkpt><trkpt lat="40.57933498587669" lon="9.653430477544353"><ele>343.0</ele><time>2026-04-25T13:26:10Z</time></trkpt><trkpt lat="40.57934081502906" lon="9.65332192724801"><ele>347.0</ele><time>2026-04-25T13:26:11Z</time></trkpt><trkpt lat="40.57938871431546" lon="9.65323013776086"><ele>351.0</ele><time>2026-04-25T13:26:12Z</time></trkpt><trkpt lat="40.57946141722739" lon="9.653184028248312"><ele>355.0</ele><time>2026-04-25T13:26:13Z</time></trkpt><trkpt lat="40.57954222286853" lon="9.653182989042786"><ele>359.0</ele><time>2026-04-25T13:26:14Z</time></trkpt><trkpt lat="40.57962363961377" lon="9.653221120363721"><ele>363.0</ele><time>2026-04-25T13:26:15Z</time></trkpt><trkpt lat="40.57968343467925" lon="9.653332596372561"><ele>367.0</ele><time>2026-04-25T13:26:16Z</time></trkpt><trkpt lat="40.579720552638555" lon="9.653460975448247"><ele>371.0</ele><time>2026-04-25T13:26:17Z</time></trkpt><trkpt lat="40.579746053099036" lon="9.653638690096159"><ele>371.0</ele><time>2026-04-25T13:26:18Z</time></trkpt><trkpt lat="40.57978596346329" lon="9.653831274538067"><ele>371.0</ele><time>2026-04-25T13:26:19Z</time></trkpt><trkpt lat="40.579850613954434" lon="9.65400379199288"><ele>371.0</ele><time>2026-04-25T13:26:20Z</time></trkpt><trkpt lat="40.57994939274959" lon="9.65414552332342"><ele>371.0</ele><time>2026-04-25T13:26:21Z</time></trkpt><trkpt lat="40.58008454048565" lon="9.654270974565788"><ele>371.0</ele><time>2026-04-25T13:26:21.999Z</time></trkpt><trkpt lat="40.58024026310237" lon="9.65437599300319"><ele>371.0</ele><time>2026-04-25T13:26:22.999Z</time></trkpt><trkpt lat="40.580376971700915" lon="9.654458410468004"><ele>371.0</ele><time>2026-04-25T13:26:23.999Z</time></trkpt><trkpt lat="40.5804769311711" lon="9.654571416132306"><ele>374.25</ele><time>2026-04-25T13:26:24.999Z</time></trkpt><trkpt lat="40.58053262743574" lon="9.654723056419577"><ele>377.5</ele><time>2026-04-25T13:26:25.999Z</time></trkpt><trkpt lat="40.58056592615608" lon="9.654896736894255"><ele>380.75</ele><time>2026-04-25T13:26:26.999Z</time></trkpt><trkpt lat="40.5806057482321" lon="9.655072341554293"><ele>384.0</ele><time>2026-04-25T13:26:27.999Z</time></trkpt><trkpt lat="40.58067142143514" lon="9.65524016646385"><ele>379.0</ele><time>2026-04-25T13:26:28.999Z</time></trkpt><trkpt lat="40.58077843706263" lon="9.655392612872124"><ele>374.0</ele><time>2026-04-25T13:26:29.999Z</time></trkpt><trkpt lat="40.580896613192266" lon="9.655558193872634"><ele>369.0</ele><time>2026-04-25T13:26:31Z</time></trkpt><trkpt lat="40.58100486125725" lon="9.65573923188466"><ele>369.0</ele><time>2026-04-25T13:26:32Z</time></trkpt><trkpt lat="40.58109946835098" lon="9.655900858107923"><ele>369.0</ele><time>2026-04-25T13:26:33Z</time></trkpt><trkpt lat="40.58119611581405" lon="9.656048330684348"><ele>369.0</ele><time>2026-04-25T13:26:34Z</time></trkpt><trkpt lat="40.5813010825056" lon="9.656174150502782"><ele>369.0</ele><time>2026-04-25T13:26:35Z</time></trkpt><trkpt lat="40.58140802973381" lon="9.656274391252966"><ele>371.25</ele><time>2026-04-25T13:26:36Z</time></trkpt><trkpt lat="40.58151534445598" lon="9.65637570564465"><ele>373.5</ele><time>2026-04-25T13:26:37Z</time></trkpt><trkpt lat="40.58161462376106" lon="9.656478708837351"><ele>375.75</ele><time>2026-04-25T13:26:38Z</time></trkpt><trkpt lat="40.58170012379868" lon="9.65656085747187"><ele>378.0</ele><time>2026-04-25T13:26:39Z</time></trkpt><trkpt lat="40.581788105034086" lon="9.656619140011028"><ele>378.0</ele><time>2026-04-25T13:26:40Z</time></trkpt><trkpt lat="40.581892262206196" lon="9.656642097152934"><ele>378.0</ele><time>2026-04-25T13:26:41Z</time></trkpt><trkpt lat="40.58201106916666" lon="9.65662232044383"><ele>378.0</ele><time>2026-04-25T13:26:42Z</time></trkpt><trkpt lat="40.58214330317778" lon="9.656544446006603"><ele>378.0</ele><time>2026-04-25T13:26:43Z</time></trkpt><trkpt lat="40.58227674767534" lon="9.65642496977828"><ele>377.25</ele><time>2026-04-25T13:26:44Z</time></trkpt><trkpt lat="40.58241636788627" lon="9.65630437801255"><ele>376.5</ele><time>2026-04-25T13:26:45Z</time></trkpt><trkpt lat="40.58254217172012" lon="9.656206938968197"><ele>375.75</ele><time>2026-04-25T13:26:46Z</time></trkpt><trkpt lat="40.582659523469594" lon="9.656128094596074"><ele>375.0</ele><time>2026-04-25T13:26:47Z</time></trkpt><trkpt lat="40.582756849629064" lon="9.656074241309708"><ele>374.8333333333333</ele><time>2026-04-25T13:26:48Z</time></trkpt><trkpt lat="40.58282012554385" lon="9.656035608556733"><ele>374.6666666666667</ele><time>2026-04-25T13:26:49Z</time></trkpt><trkpt lat="40.58288123542111" lon="9.655984477108184"><ele>374.5</ele><time>2026-04-25T13:26:50Z</time></trkpt><trkpt lat="40.58293346988956" lon="9.65590485422809"><ele>374.33333333333337</ele><time>2026-04-25T13:26:51Z</time></trkpt><trkpt lat="40.58296232351477" lon="9.65578266270005"><ele>374.1666666666667</ele><time>2026-04-25T13:26:52Z</time></trkpt><trkpt lat="40.58294665382081" lon="9.655641023166291"><ele>374.0</ele><time>2026-04-25T13:26:53Z</time></trkpt><trkpt lat="40.58289005763037" lon="9.655493520400897"><ele>380.5</ele><time>2026-04-25T13:26:54Z</time></trkpt><trkpt lat="40.58279764755721" lon="9.655348882432873"><ele>387.0</ele><time>2026-04-25T13:26:55Z</time></trkpt><trkpt lat="40.58269052821879" lon="9.655240855648294"><ele>393.5</ele><time>2026-04-25T13:26:56Z</time></trkpt><trkpt lat="40.58255885127752" lon="9.655146847252361"><ele>400.0</ele><time>2026-04-25T13:26:57Z</time></trkpt><trkpt lat="40.58241991694797" lon="9.655034612784663"><ele>400.25</ele><time>2026-04-25T13:26:58Z</time></trkpt><trkpt lat="40.582294267125825" lon="9.654941105920711"><ele>400.5</ele><time>2026-04-25T13:26:59Z</time></trkpt><trkpt lat="40.582181904876236" lon="9.654848121192618"><ele>400.75</ele><time>2026-04-25T13:27:00Z</time></trkpt><trkpt lat="40.58208062785213" lon="9.65476229509233"><ele>401.0</ele><time>2026-04-25T13:27:01Z</time></trkpt><trkpt lat="40.58199805198454" lon="9.654677883327771"><ele>403.25</ele><time>2026-04-25T13:27:02Z</time></trkpt><trkpt lat="40.58192861238839" lon="9.654577198308447"><ele>405.5</ele><time>2026-04-25T13:27:03Z</time></trkpt><trkpt lat="40.581898283485486" lon="9.654439513306006"><ele>407.75</ele><time>2026-04-25T13:27:04Z</time></trkpt><trkpt lat="40.581901863876666" lon="9.65428911150333"><ele>410.0</ele><time>2026-04-25T13:27:05Z</time></trkpt><trkpt lat="40.58193991089634" lon="9.654122108509446"><ele>411.5</ele><time>2026-04-25T13:27:06Z</time></trkpt><trkpt lat="40.582000041650524" lon="9.653940079085197"><ele>413.0</ele><time>2026-04-25T13:27:07Z</time></trkpt><trkpt lat="40.58205026245414" lon="9.653781987357869"><ele>414.5</ele><time>2026-04-25T13:27:08Z</time></trkpt><trkpt lat="40.58207672662958" lon="9.653633090124062"><ele>416.0</ele><time>2026-04-25T13:27:09Z</time></trkpt><trkpt lat="40.58207052196613" lon="9.653470082485796"><ele>417.0</ele><time>2026-04-25T13:27:10Z</time></trkpt><trkpt lat="40.582045183376565" lon="9.653309217398132"><ele>418.0</ele><time>2026-04-25T13:27:11Z</time></trkpt><trkpt lat="40.58194755117638" lon="9.653175131180268"><ele>419.0</ele><time>2026-04-25T13:27:12Z</time></trkpt><trkpt lat="40.581861950530154" lon="9.653063190555129"><ele>420.0</ele><time>2026-04-25T13:27:13Z</time></trkpt><trkpt lat="40.581794254044496" lon="9.652958482024859"><ele>420.0</ele><time>2026-04-25T13:27:14Z</time></trkpt><trkpt lat="40.581747588685985" lon="9.652856900045528"><ele>420.0</ele><time>2026-04-25T13:27:15Z</time></trkpt><trkpt lat="40.58172654226005" lon="9.652740737698212"><ele>420.0</ele><time>2026-04-25T13:27:16Z</time></trkpt><trkpt lat="40.58172528448359" lon="9.652584857169815"><ele>420.0</ele><time>2026-04-25T13:27:17Z</time></trkpt><trkpt lat="40.58173264052952" lon="9.65239652750987"><ele>420.0</ele><time>2026-04-25T13:27:18Z</time></trkpt><trkpt lat="40.581736950368125" lon="9.652185821310596"><ele>421.66666666666663</ele><time>2026-04-25T13:27:19Z</time></trkpt><trkpt lat="40.581739140695475" lon="9.651957710582579"><ele>423.3333333333333</ele><time>2026-04-25T13:27:20Z</time></trkpt><trkpt lat="40.581741181179126" lon="9.65174207633855"><ele>425.0</ele><time>2026-04-25T13:27:21Z</time></trkpt><trkpt lat="40.581748264644986" lon="9.651554692667618"><ele>427.25</ele><time>2026-04-25T13:27:22Z</time></trkpt><trkpt lat="40.58176143332915" lon="9.651381906180765"><ele>429.5</ele><time>2026-04-25T13:27:23Z</time></trkpt><trkpt lat="40.58179026867224" lon="9.651227564628849"><ele>431.75</ele><time>2026-04-25T13:27:24Z</time></trkpt><trkpt lat="40.58184812720327" lon="9.651090671628538"><ele>434.0</ele><time>2026-04-25T13:27:25Z</time></trkpt><trkpt lat="40.58189998686643" lon="9.650969567705047"><ele>434.0</ele><time>2026-04-25T13:27:26Z</time></trkpt><trkpt lat="40.58189737682448" lon="9.650851549009843"><ele>434.0</ele><time>2026-04-25T13:27:27Z</time></trkpt><trkpt lat="40.58185566560861" lon="9.650750449388307"><ele>434.0</ele><time>2026-04-25T13:27:28Z</time></trkpt><trkpt lat="40.58177520808602" lon="9.650667165485576"><ele>434.0</ele><time>2026-04-25T13:27:29Z</time></trkpt><trkpt lat="40.581671809955935" lon="9.650572353472013"><ele>434.0</ele><time>2026-04-25T13:27:30Z</time></trkpt><trkpt lat="40.581571653596406" lon="9.65049961275352"><ele>434.0</ele><time>2026-04-25T13:27:31Z</time></trkpt><trkpt lat="40.58148171473299" lon="9.650418257449566"><ele>434.0</ele><time>2026-04-25T13:27:32Z</time></trkpt><trkpt lat="40.581393595586455" lon="9.650303064230917"><ele>434.0</ele><time>2026-04-25T13:27:33Z</time></trkpt><trkpt lat="40.58135138931388" lon="9.65011621114422"><ele>434.0</ele><time>2026-04-25T13:27:34Z</time></trkpt><trkpt lat="40.581293235351275" lon="9.64991047338268"><ele>430.3333333333333</ele><time>2026-04-25T13:27:35Z</time></trkpt><trkpt lat="40.58122243236041" lon="9.649697454844718"><ele>426.66666666666663</ele><time>2026-04-25T13:27:36Z</time></trkpt><trkpt lat="40.581149236490916" lon="9.649519909058546"><ele>423.0</ele><time>2026-04-25T13:27:37Z</time></trkpt><trkpt lat="40.58112080162526" lon="9.64934030941996"><ele>432.25</ele><time>2026-04-25T13:27:38Z</time></trkpt><trkpt lat="40.58111270542519" lon="9.649146479762775"><ele>441.5</ele><time>2026-04-25T13:27:39Z</time></trkpt><trkpt lat="40.58110701214762" lon="9.648970778543573"><ele>450.75</ele><time>2026-04-25T13:27:40Z</time></trkpt><trkpt lat="40.58106642798951" lon="9.648815498753995"><ele>460.0</ele><time>2026-04-25T13:27:41Z</time></trkpt><trkpt lat="40.581009862559895" lon="9.64867143238727"><ele>455.25</ele><time>2026-04-25T13:27:42Z</time></trkpt><trkpt lat="40.580902043639526" lon="9.648599974468958"><ele>450.5</ele><time>2026-04-25T13:27:43Z</time></trkpt><trkpt lat="40.580776147663514" lon="9.648547532281032"><ele>445.75</ele><time>2026-04-25T13:27:44Z</time></trkpt><trkpt lat="40.58062271725447" lon="9.648512215307706"><ele>441.0</ele><time>2026-04-25T13:27:45Z</time></trkpt><trkpt lat="40.58046544961311" lon="9.648431933153747"><ele>445.66666666666663</ele><time>2026-04-25T13:27:46Z</time></trkpt><trkpt lat="40.580306047350206" lon="9.648347622481708"><ele>450.3333333333333</ele><time>2026-04-25T13:27:47Z</time></trkpt><trkpt lat="40.580167220139494" lon="9.64827562360073"><ele>455.0</ele><time>2026-04-25T13:27:48Z</time></trkpt><trkpt lat="40.58002953133843" lon="9.648256121655912"><ele>455.0</ele><time>2026-04-25T13:27:49Z</time></trkpt><trkpt lat="40.579899758667466" lon="9.648310455157434"><ele>455.0</ele><time>2026-04-25T13:27:50Z</time></trkpt><trkpt lat="40.57978372339483" lon="9.648318972315394"><ele>455.0</ele><time>2026-04-25T13:27:51Z</time></trkpt><trkpt lat="40.57968928546498" lon="9.648337366437197"><ele>455.0</ele><time>2026-04-25T13:27:52Z</time></trkpt><trkpt lat="40.57961364042514" lon="9.648350751207362"><ele>455.0</ele><time>2026-04-25T13:27:53Z</time></trkpt><trkpt lat="40.579526979394956" lon="9.648309835941209"><ele>456.75</ele><time>2026-04-25T13:27:54Z</time></trkpt><trkpt lat="40.579462377791444" lon="9.648199065290838"><ele>458.5</ele><time>2026-04-25T13:27:55Z</time></trkpt><trkpt lat="40.57938345752383" lon="9.648089801439662"><ele>460.25</ele><time>2026-04-25T13:27:56Z</time></trkpt><trkpt lat="40.579358682037" lon="9.647929962601438"><ele>462.0</ele><time>2026-04-25T13:27:57Z</time></trkpt><trkpt lat="40.579323418717294" lon="9.647763375121976"><ele>462.0</ele><time>2026-04-25T13:27:58Z</time></trkpt><trkpt lat="40.57930979603762" lon="9.647608798719402"><ele>462.0</ele><time>2026-04-25T13:27:59Z</time></trkpt><trkpt lat="40.57925010629669" lon="9.6474760053413"><ele>462.0</ele><time>2026-04-25T13:28:00Z</time></trkpt><trkpt lat="40.57917800207751" lon="9.647350698141882"><ele>462.0</ele><time>2026-04-25T13:28:01Z</time></trkpt><trkpt lat="40.579060646282876" lon="9.64728606927044"><ele>462.0</ele><time>2026-04-25T13:28:02Z</time></trkpt><trkpt lat="40.57893097758617" lon="9.647252819816055"><ele>462.0</ele><time>2026-04-25T13:28:03Z</time></trkpt><trkpt lat="40.57877734040847" lon="9.647275542660884"><ele>462.0</ele><time>2026-04-25T13:28:04Z</time></trkpt><trkpt lat="40.57862287624077" lon="9.64729488766923"><ele>462.0</ele><time>2026-04-25T13:28:05Z</time></trkpt><trkpt lat="40.57849350860797" lon="9.647299451306523"><ele>461.75</ele><time>2026-04-25T13:28:06Z</time></trkpt><trkpt lat="40.57837700642091" lon="9.647247571319248"><ele>461.5</ele><time>2026-04-25T13:28:07Z</time></trkpt><trkpt lat="40.57826668095573" lon="9.647141155814557"><ele>461.25</ele><time>2026-04-25T13:28:08Z</time></trkpt><trkpt lat="40.5781568842454" lon="9.64702514498945"><ele>461.0</ele><time>2026-04-25T13:28:09Z</time></trkpt><trkpt lat="40.57808964204759" lon="9.64688105731625"><ele>461.0</ele><time>2026-04-25T13:28:10Z</time></trkpt><trkpt lat="40.578017678836204" lon="9.64670878500505"><ele>461.0</ele><time>2026-04-25T13:28:11Z</time></trkpt><trkpt lat="40.57790614514097" lon="9.646572398413449"><ele>461.0</ele><time>2026-04-25T13:28:12Z</time></trkpt><trkpt lat="40.57779757823417" lon="9.646458534315215"><ele>461.0</ele><time>2026-04-25T13:28:13Z</time></trkpt><trkpt lat="40.57772712351462" lon="9.646317467939973"><ele>472.0</ele><time>2026-04-25T13:28:14Z</time></trkpt><trkpt lat="40.577696459833554" lon="9.646153821781692"><ele>483.0</ele><time>2026-04-25T13:28:15Z</time></trkpt><trkpt lat="40.57765396629328" lon="9.645945617661804"><ele>494.0</ele><time>2026-04-25T13:28:16Z</time></trkpt><trkpt lat="40.57759315205155" lon="9.645731203500063"><ele>494.0</ele><time>2026-04-25T13:28:17Z</time></trkpt><trkpt lat="40.57754690167142" lon="9.645546427395118"><ele>494.0</ele><time>2026-04-25T13:28:18Z</time></trkpt><trkpt lat="40.57753998570043" lon="9.645395062641695"><ele>494.0</ele><time>2026-04-25T13:28:19Z</time></trkpt><trkpt lat="40.57754353625768" lon="9.64526555730292"><ele>494.0</ele><time>2026-04-25T13:28:20Z</time></trkpt><trkpt lat="40.577530789791375" lon="9.64513994775692"><ele>491.0</ele><time>2026-04-25T13:28:21Z</time></trkpt><trkpt lat="40.57749112155852" lon="9.64503380507654"><ele>488.0</ele><time>2026-04-25T13:28:22Z</time></trkpt><trkpt lat="40.57741024355055" lon="9.644933036311398"><ele>485.0</ele><time>2026-04-25T13:28:23Z</time></trkpt><trkpt lat="40.577287456290705" lon="9.64483550526808"><ele>482.0</ele><time>2026-04-25T13:28:24Z</time></trkpt><trkpt lat="40.577174897845595" lon="9.644747876440134"><ele>482.0</ele><time>2026-04-25T13:28:25Z</time></trkpt><trkpt lat="40.577109348971874" lon="9.644640513467516"><ele>482.00000000000006</ele><time>2026-04-25T13:28:26Z</time></trkpt><trkpt lat="40.57705034508994" lon="9.644535456611226"><ele>482.00000000000006</ele><time>2026-04-25T13:28:27Z</time></trkpt><trkpt lat="40.576990678350406" lon="9.64441815086148"><ele>482.0</ele><time>2026-04-25T13:28:28Z</time></trkpt><trkpt lat="40.57694698177237" lon="9.644261569105847"><ele>482.0</ele><time>2026-04-25T13:28:29Z</time></trkpt><trkpt lat="40.57690616118128" lon="9.64407199280015"><ele>490.0</ele><time>2026-04-25T13:28:30Z</time></trkpt><trkpt lat="40.576875539456914" lon="9.643888268915328"><ele>498.00000000000006</ele><time>2026-04-25T13:28:31Z</time></trkpt><trkpt lat="40.57684379328325" lon="9.64374144464905"><ele>506.00000000000006</ele><time>2026-04-25T13:28:32Z</time></trkpt><trkpt lat="40.57679027332944" lon="9.643631453936992"><ele>514.0</ele><time>2026-04-25T13:28:33Z</time></trkpt><trkpt lat="40.5767691050854" lon="9.643528787143548"><ele>522.0</ele><time>2026-04-25T13:28:34Z</time></trkpt><trkpt lat="40.576760363800176" lon="9.643441196808363"><ele>523.75</ele><time>2026-04-25T13:28:35Z</time></trkpt><trkpt lat="40.57682721355791" lon="9.643338883342402"><ele>525.5</ele><time>2026-04-25T13:28:36Z</time></trkpt><trkpt lat="40.57692031063062" lon="9.643265498030038"><ele>527.25</ele><time>2026-04-25T13:28:37Z</time></trkpt><trkpt lat="40.577040526769444" lon="9.643221980396408"><ele>529.0</ele><time>2026-04-25T13:28:38Z</time></trkpt><trkpt lat="40.577181300238706" lon="9.643186741694453"><ele>523.0</ele><time>2026-04-25T13:28:39Z</time></trkpt><trkpt lat="40.577322303592176" lon="9.643177227500578"><ele>517.0</ele><time>2026-04-25T13:28:40Z</time></trkpt><trkpt lat="40.57744616670647" lon="9.643248426059365"><ele>511.0</ele><time>2026-04-25T13:28:41Z</time></trkpt><trkpt lat="40.57759622881961" lon="9.643312112016996"><ele>505.0</ele><time>2026-04-25T13:28:42Z</time></trkpt><trkpt lat="40.57772687980348" lon="9.643399997263325"><ele>505.0</ele><time>2026-04-25T13:28:43Z</time></trkpt><trkpt lat="40.577845436801375" lon="9.643415885369654"><ele>505.0</ele><time>2026-04-25T13:28:44Z</time></trkpt><trkpt lat="40.577937213257144" lon="9.643339522691733"><ele>505.0</ele><time>2026-04-25T13:28:45Z</time></trkpt><trkpt lat="40.57802165567389" lon="9.64325577202654"><ele>505.0</ele><time>2026-04-25T13:28:46Z</time></trkpt><trkpt lat="40.57809911287781" lon="9.643111856214523"><ele>502.33333333333337</ele><time>2026-04-25T13:28:47Z</time></trkpt><trkpt lat="40.578199098677516" lon="9.642980828798532"><ele>499.66666666666663</ele><time>2026-04-25T13:28:48Z</time></trkpt><trkpt lat="40.57834892624677" lon="9.642921893850096"><ele>497.0</ele><time>2026-04-25T13:28:49Z</time></trkpt><trkpt lat="40.578512938338505" lon="9.642878216955893"><ele>497.0</ele><time>2026-04-25T13:28:50Z</time></trkpt><trkpt lat="40.578680521269035" lon="9.642801671230936"><ele>497.0</ele><time>2026-04-25T13:28:51Z</time></trkpt><trkpt lat="40.57882356666461" lon="9.642724482359963"><ele>497.0</ele><time>2026-04-25T13:28:52Z</time></trkpt><trkpt lat="40.57895787905376" lon="9.642688171253186"><ele>501.40000000000003</ele><time>2026-04-25T13:28:53Z</time></trkpt><trkpt lat="40.57907633749731" lon="9.642751215395633"><ele>505.80000000000007</ele><time>2026-04-25T13:28:54Z</time></trkpt><trkpt lat="40.57918609819628" lon="9.642770812437584"><ele>510.2</ele><time>2026-04-25T13:28:55Z</time></trkpt><trkpt lat="40.579282011531205" lon="9.6427772484076"><ele>514.6</ele><time>2026-04-25T13:28:56Z</time></trkpt><trkpt lat="40.57937642595511" lon="9.642719756643134"><ele>519.0</ele><time>2026-04-25T13:28:57Z</time></trkpt><trkpt lat="40.57945667713713" lon="9.64260828410613"><ele>519.0</ele><time>2026-04-25T13:28:58Z</time></trkpt><trkpt lat="40.579499764070455" lon="9.642457839941065"><ele>519.0</ele><time>2026-04-25T13:28:59Z</time></trkpt><trkpt lat="40.579516436349515" lon="9.64226874439632"><ele>519.0</ele><time>2026-04-25T13:29:00Z</time></trkpt><trkpt lat="40.579495830087055" lon="9.642060815220715"><ele>519.0</ele><time>2026-04-25T13:29:01Z</time></trkpt><trkpt lat="40.57943622016408" lon="9.641845229087957"><ele>523.3333333333334</ele><time>2026-04-25T13:29:02Z</time></trkpt><trkpt lat="40.57935461027432" lon="9.641633060834874"><ele>527.6666666666667</ele><time>2026-04-25T13:29:03Z</time></trkpt><trkpt lat="40.57929745673752" lon="9.641435026734491"><ele>532.0</ele><time>2026-04-25T13:29:04Z</time></trkpt><trkpt lat="40.57924465450914" lon="9.641278311855887"><ele>532.0</ele><time>2026-04-25T13:29:05Z</time></trkpt><trkpt lat="40.57921866242754" lon="9.641146689003957"><ele>532.0</ele><time>2026-04-25T13:29:06Z</time></trkpt><trkpt lat="40.57920077386087" lon="9.641027788599756"><ele>532.0</ele><time>2026-04-25T13:29:07Z</time></trkpt><trkpt lat="40.5792812693382" lon="9.640926822014936"><ele>532.0</ele><time>2026-04-25T13:29:08Z</time></trkpt><trkpt lat="40.57936948696042" lon="9.640822670222592"><ele>532.0</ele><time>2026-04-25T13:29:09Z</time></trkpt><trkpt lat="40.579495407708066" lon="9.640705566203263"><ele>524.6666666666667</ele><time>2026-04-25T13:29:10Z</time></trkpt><trkpt lat="40.57964683826016" lon="9.640605830543578"><ele>517.3333333333334</ele><time>2026-04-25T13:29:11Z</time></trkpt><trkpt lat="40.579786588921664" lon="9.64046424957268"><ele>510.0</ele><time>2026-04-25T13:29:12Z</time></trkpt><trkpt lat="40.57990746518628" lon="9.6403152763845"><ele>519.0</ele><time>2026-04-25T13:29:13Z</time></trkpt><trkpt lat="40.58004453488423" lon="9.640238326674712"><ele>528.0</ele><time>2026-04-25T13:29:14Z</time></trkpt><trkpt lat="40.58019644164845" lon="9.640158645595562"><ele>537.0</ele><time>2026-04-25T13:29:15Z</time></trkpt><trkpt lat="40.58035603921677" lon="9.640077745369657"><ele>537.0</ele><time>2026-04-25T13:29:16Z</time></trkpt><trkpt lat="40.58048434264633" lon="9.639970786129087"><ele>537.0</ele><time>2026-04-25T13:29:17Z</time></trkpt><trkpt lat="40.58059875405869" lon="9.639900695206766"><ele>537.0</ele><time>2026-04-25T13:29:18Z</time></trkpt><trkpt lat="40.58072603836999" lon="9.639925061932423"><ele>537.0</ele><time>2026-04-25T13:29:19Z</time></trkpt><trkpt lat="40.58086287976186" lon="9.639956851350163"><ele>537.0</ele><time>2026-04-25T13:29:20Z</time></trkpt><trkpt lat="40.58097441535678" lon="9.640033360201713"><ele>537.0</ele><time>2026-04-25T13:29:21Z</time></trkpt><trkpt lat="40.581046982164146" lon="9.640092865633164"><ele>537.0</ele><time>2026-04-25T13:29:22Z</time></trkpt><trkpt lat="40.58111009506461" lon="9.640120138536895"><ele>537.0</ele><time>2026-04-25T13:29:23Z</time></trkpt><trkpt lat="40.5811820971133" lon="9.640100580645115"><ele>537.0</ele><time>2026-04-25T13:29:24Z</time></trkpt><trkpt lat="40.58125985599714" lon="9.640026499167856"><ele>537.0</ele><time>2026-04-25T13:29:25Z</time></trkpt><trkpt lat="40.58130151983255" lon="9.639912465154419"><ele>537.0</ele><time>2026-04-25T13:29:26Z</time></trkpt><trkpt lat="40.58129550923377" lon="9.639788194214557"><ele>537.0</ele><time>2026-04-25T13:29:27Z</time></trkpt><trkpt lat="40.58124711255265" lon="9.639678667974707"><ele>537.0</ele><time>2026-04-25T13:29:28Z</time></trkpt><trkpt lat="40.58115628430686" lon="9.639596319959118"><ele>537.0</ele><time>2026-04-25T13:29:29Z</time></trkpt><trkpt lat="40.58105580248823" lon="9.63951122452387"><ele>537.0</ele><time>2026-04-25T13:29:30Z</time></trkpt><trkpt lat="40.58092923685014" lon="9.639417192981497"><ele>537.25</ele><time>2026-04-25T13:29:31Z</time></trkpt><trkpt lat="40.58081669439359" lon="9.63935105737058"><ele>537.5</ele><time>2026-04-25T13:29:32Z</time></trkpt><trkpt lat="40.58067674859693" lon="9.639347308020682"><ele>537.75</ele><time>2026-04-25T13:29:33Z</time></trkpt><trkpt lat="40.58053511037474" lon="9.639385316614062"><ele>538.0</ele><time>2026-04-25T13:29:34Z</time></trkpt><trkpt lat="40.58041247686657" lon="9.639366797836031"><ele>543.25</ele><time>2026-04-25T13:29:35Z</time></trkpt><trkpt lat="40.580303685685095" lon="9.639292593748873"><ele>548.5</ele><time>2026-04-25T13:29:36Z</time></trkpt><trkpt lat="40.58019080065571" lon="9.639173548486138"><ele>553.75</ele><time>2026-04-25T13:29:37Z</time></trkpt><trkpt lat="40.58005403449052" lon="9.639100044216216"><ele>559.0</ele><time>2026-04-25T13:29:38Z</time></trkpt><trkpt lat="40.579944670089255" lon="9.639029250793845"><ele>559.0</ele><time>2026-04-25T13:29:39Z</time></trkpt><trkpt lat="40.5798763096272" lon="9.638927224240048"><ele>559.0</ele><time>2026-04-25T13:29:40Z</time></trkpt><trkpt lat="40.57983488370567" lon="9.638819942677197"><ele>559.0</ele><time>2026-04-25T13:29:41Z</time></trkpt><trkpt lat="40.579837593058265" lon="9.638697818801555"><ele>559.0</ele><time>2026-04-25T13:29:42Z</time></trkpt><trkpt lat="40.57985614502665" lon="9.638566715307537"><ele>559.0</ele><time>2026-04-25T13:29:43Z</time></trkpt><trkpt lat="40.57993670421494" lon="9.638435446317333"><ele>563.0</ele><time>2026-04-25T13:29:44Z</time></trkpt><trkpt lat="40.58005122965636" lon="9.63830371553951"><ele>567.0</ele><time>2026-04-25T13:29:45Z</time></trkpt><trkpt lat="40.580184269412534" lon="9.638177113673608"><ele>571.0</ele><time>2026-04-25T13:29:46Z</time></trkpt><trkpt lat="40.58033789507493" lon="9.638060331510873"><ele>573.3333333333334</ele><time>2026-04-25T13:29:47Z</time></trkpt><trkpt lat="40.580500146972" lon="9.637934721070124"><ele>575.6666666666666</ele><time>2026-04-25T13:29:48Z</time></trkpt><trkpt lat="40.58065760953485" lon="9.637803270271839"><ele>578.0</ele><time>2026-04-25T13:29:49Z</time></trkpt><trkpt lat="40.580795519893016" lon="9.637691964012328"><ele>578.0</ele><time>2026-04-25T13:29:50Z</time></trkpt><trkpt lat="40.5809219495664" lon="9.637603103357682"><ele>578.0</ele><time>2026-04-25T13:29:51Z</time></trkpt><trkpt lat="40.581040786494306" lon="9.63753843827329"><ele>578.0</ele><time>2026-04-25T13:29:52Z</time></trkpt><trkpt lat="40.581145495438065" lon="9.637475615446965"><ele>578.0</ele><time>2026-04-25T13:29:53Z</time></trkpt><trkpt lat="40.581219639660425" lon="9.637377951220824"><ele>571.5</ele><time>2026-04-25T13:29:54Z</time></trkpt><trkpt lat="40.58126379998007" lon="9.637240610734986"><ele>565.0</ele><time>2026-04-25T13:29:55Z</time></trkpt><trkpt lat="40.581275526725435" lon="9.637069661829509"><ele>558.5</ele><time>2026-04-25T13:29:56Z</time></trkpt><trkpt lat="40.581253088524946" lon="9.636878672794865"><ele>552.0</ele><time>2026-04-25T13:29:57Z</time></trkpt><trkpt lat="40.581214720251474" lon="9.636668709054103"><ele>552.0</ele><time>2026-04-25T13:29:58Z</time></trkpt><trkpt lat="40.58118495505999" lon="9.636477111881858"><ele>552.0</ele><time>2026-04-25T13:29:59Z</time></trkpt><trkpt lat="40.58115982180676" lon="9.636314734464875"><ele>552.0</ele><time>2026-04-25T13:30:00Z</time></trkpt><trkpt lat="40.58114966022705" lon="9.636170513124448"><ele>552.0</ele><time>2026-04-25T13:30:01Z</time></trkpt><trkpt lat="40.58118439335089" lon="9.636037576811395"><ele>558.5</ele><time>2026-04-25T13:30:02Z</time></trkpt><trkpt lat="40.581265759538596" lon="9.635926126613938"><ele>565.0</ele><time>2026-04-25T13:30:03Z</time></trkpt><trkpt lat="40.58139224555902" lon="9.635883574134793"><ele>571.5</ele><time>2026-04-25T13:30:04Z</time></trkpt><trkpt lat="40.58152357246314" lon="9.635791290269667"><ele>578.0</ele><time>2026-04-25T13:30:05Z</time></trkpt><trkpt lat="40.58166965202551" lon="9.635732638755734"><ele>578.0</ele><time>2026-04-25T13:30:06Z</time></trkpt><trkpt lat="40.581798780613305" lon="9.635700447616353"><ele>578.0</ele><time>2026-04-25T13:30:07Z</time></trkpt><trkpt lat="40.58191503679564" lon="9.635669288983715"><ele>578.0</ele><time>2026-04-25T13:30:08Z</time></trkpt><trkpt lat="40.58201901366911" lon="9.63557406604331"><ele>578.0</ele><time>2026-04-25T13:30:09Z</time></trkpt><trkpt lat="40.582119340117266" lon="9.635418597279937"><ele>573.25</ele><time>2026-04-25T13:30:10Z</time></trkpt><trkpt lat="40.58219584769117" lon="9.635265933932141"><ele>568.5</ele><time>2026-04-25T13:30:11Z</time></trkpt><trkpt lat="40.58223543410896" lon="9.635104636290206"><ele>563.75</ele><time>2026-04-25T13:30:12Z</time></trkpt><trkpt lat="40.58223399589536" lon="9.634898111781853"><ele>559.0</ele><time>2026-04-25T13:30:13Z</time></trkpt><trkpt lat="40.58220315946956" lon="9.63468706291745"><ele>559.0</ele><time>2026-04-25T13:30:14Z</time></trkpt><trkpt lat="40.58218286065871" lon="9.634505980561388"><ele>559.0</ele><time>2026-04-25T13:30:15Z</time></trkpt><trkpt lat="40.58219891610717" lon="9.634356943449022"><ele>559.0</ele><time>2026-04-25T13:30:16Z</time></trkpt><trkpt lat="40.58226188072417" lon="9.63423697709822"><ele>559.0</ele><time>2026-04-25T13:30:17Z</time></trkpt><trkpt lat="40.58235519399608" lon="9.634089986376603"><ele>565.3333333333334</ele><time>2026-04-25T13:30:18Z</time></trkpt><trkpt lat="40.58246348943044" lon="9.633918511626842"><ele>571.6666666666666</ele><time>2026-04-25T13:30:19Z</time></trkpt><trkpt lat="40.582559165334885" lon="9.633739151455872"><ele>578.0</ele><time>2026-04-25T13:30:20Z</time></trkpt><trkpt lat="40.582618719518585" lon="9.633544720078508"><ele>580.5</ele><time>2026-04-25T13:30:21Z</time></trkpt><trkpt lat="40.582662690741365" lon="9.6333718898925"><ele>583.0</ele><time>2026-04-25T13:30:22Z</time></trkpt><trkpt lat="40.58271244153611" lon="9.633235551627793"><ele>585.5</ele><time>2026-04-25T13:30:23Z</time></trkpt><trkpt lat="40.582786958972996" lon="9.633142481556717"><ele>588.0</ele><time>2026-04-25T13:30:24Z</time></trkpt><trkpt lat="40.582888836362486" lon="9.633136141527954"><ele>588.0</ele><time>2026-04-25T13:30:25Z</time></trkpt><trkpt lat="40.58298952822457" lon="9.633158867749462"><ele>588.0</ele><time>2026-04-25T13:30:26Z</time></trkpt><trkpt lat="40.58311677788981" lon="9.633165052122449"><ele>588.0</ele><time>2026-04-25T13:30:27Z</time></trkpt><trkpt lat="40.58325454174222" lon="9.633182727617683"><ele>588.0</ele><time>2026-04-25T13:30:28Z</time></trkpt><trkpt lat="40.58339622349459" lon="9.633148717929464"><ele>588.0</ele><time>2026-04-25T13:30:29Z</time></trkpt><trkpt lat="40.583543561698036" lon="9.633059447529693"><ele>588.0</ele><time>2026-04-25T13:30:30Z</time></trkpt><trkpt lat="40.583694948624704" lon="9.632939696027565"><ele>588.0</ele><time>2026-04-25T13:30:31Z</time></trkpt><trkpt lat="40.583846660554514" lon="9.632820015056671"><ele>591.75</ele><time>2026-04-25T13:30:32Z</time></trkpt><trkpt lat="40.58398212211471" lon="9.63273039085441"><ele>595.5</ele><time>2026-04-25T13:30:33Z</time></trkpt><trkpt lat="40.58409606944302" lon="9.632667127415496"><ele>599.25</ele><time>2026-04-25T13:30:34.001Z</time></trkpt><trkpt lat="40.584187605889205" lon="9.63260121569162"><ele>603.0</ele><time>2026-04-25T13:30:35.001Z</time></trkpt><trkpt lat="40.584258545769465" lon="9.632504868472557"><ele>603.0</ele><time>2026-04-25T13:30:36.001Z</time></trkpt><trkpt lat="40.584311148207924" lon="9.632370435043194"><ele>603.0</ele><time>2026-04-25T13:30:37.001Z</time></trkpt><trkpt lat="40.58433288972842" lon="9.632193728482022"><ele>603.0</ele><time>2026-04-25T13:30:38.001Z</time></trkpt><trkpt lat="40.58431706908908" lon="9.63198742595859"><ele>603.0</ele><time>2026-04-25T13:30:39.001Z</time></trkpt><trkpt lat="40.58427066037683" lon="9.631762478677276"><ele>606.6666666666666</ele><time>2026-04-25T13:30:40.001Z</time></trkpt><trkpt lat="40.584217859793405" lon="9.631540132749612"><ele>610.3333333333333</ele><time>2026-04-25T13:30:41.001Z</time></trkpt><trkpt lat="40.584178390679455" lon="9.63133351801298"><ele>614.0</ele><time>2026-04-25T13:30:42.001Z</time></trkpt><trkpt lat="40.5841883749062" lon="9.631117532401896"><ele>614.3333333333333</ele><time>2026-04-25T13:30:43.001Z</time></trkpt><trkpt lat="40.58420639024181" lon="9.630882646797183"><ele>614.6666666666666</ele><time>2026-04-25T13:30:44.001Z</time></trkpt><trkpt lat="40.58421228773359" lon="9.63064711622909"><ele>615.0</ele><time>2026-04-25T13:30:45.001Z</time></trkpt><trkpt lat="40.58423348034221" lon="9.630444531368187"><ele>616.6</ele><time>2026-04-25T13:30:46.001Z</time></trkpt><trkpt lat="40.58424822917939" lon="9.630265314768733"><ele>618.2</ele><time>2026-04-25T13:30:47.001Z</time></trkpt><trkpt lat="40.58426369581705" lon="9.630123259578403"><ele>619.8</ele><time>2026-04-25T13:30:48Z</time></trkpt><trkpt lat="40.58429776694816" lon="9.630010454921335"><ele>621.4</ele><time>2026-04-25T13:30:49Z</time></trkpt><trkpt lat="40.584370179774595" lon="9.629942156721723"><ele>623.0</ele><time>2026-04-25T13:30:50Z</time></trkpt><trkpt lat="40.584413229109764" lon="9.629862675165425"><ele>623.0</ele><time>2026-04-25T13:30:51Z</time></trkpt><trkpt lat="40.58449446327083" lon="9.629753496223934"><ele>623.0</ele><time>2026-04-25T13:30:53Z</time></trkpt><trkpt lat="40.58454906702728" lon="9.62964542872488"><ele>623.0</ele><time>2026-04-25T13:30:55Z</time></trkpt><trkpt lat="40.58457444110425" lon="9.629518327744375"><ele>623.0</ele><time>2026-04-25T13:30:57Z</time></trkpt><trkpt lat="40.58446770619653" lon="9.62946342445846"><ele>623.0</ele><time>2026-04-25T13:30:58Z</time></trkpt><trkpt lat="40.58439974853576" lon="9.629388963994353"><ele>623.4</ele><time>2026-04-25T13:30:59Z</time></trkpt><trkpt lat="40.5843245808516" lon="9.629303303776334"><ele>623.8</ele><time>2026-04-25T13:31:00Z</time></trkpt><trkpt lat="40.584245269708056" lon="9.629207951144089"><ele>624.2</ele><time>2026-04-25T13:31:01Z</time></trkpt><trkpt lat="40.584162389227025" lon="9.629108165707699"><ele>624.6</ele><time>2026-04-25T13:31:02Z</time></trkpt><trkpt lat="40.58409362506883" lon="9.629030395563163"><ele>625.0</ele><time>2026-04-25T13:31:03Z</time></trkpt><trkpt lat="40.58402757514772" lon="9.628995026505262"><ele>625.0</ele><time>2026-04-25T13:31:04Z</time></trkpt><trkpt lat="40.58394841467737" lon="9.629005808070085"><ele>625.0</ele><time>2026-04-25T13:31:05Z</time></trkpt><trkpt lat="40.58385937228995" lon="9.629062496178747"><ele>625.0</ele><time>2026-04-25T13:31:06Z</time></trkpt><trkpt lat="40.58376332073088" lon="9.62914218432463"><ele>625.0</ele><time>2026-04-25T13:31:07Z</time></trkpt><trkpt lat="40.583671025649544" lon="9.62918452294099"><ele>625.0</ele><time>2026-04-25T13:31:08Z</time></trkpt><trkpt lat="40.583594421692545" lon="9.629230541766365"><ele>625.6666666666667</ele><time>2026-04-25T13:31:09Z</time></trkpt><trkpt lat="40.58351793675998" lon="9.629265571499639"><ele>626.3333333333334</ele><time>2026-04-25T13:31:10Z</time></trkpt><trkpt lat="40.583440342229636" lon="9.629272869397019"><ele>627.0</ele><time>2026-04-25T13:31:11Z</time></trkpt><trkpt lat="40.58336164993251" lon="9.629247610565633"><ele>627.6666666666666</ele><time>2026-04-25T13:31:12Z</time></trkpt><trkpt lat="40.58328300206888" lon="9.62919733886066"><ele>628.3333333333333</ele><time>2026-04-25T13:31:13Z</time></trkpt><trkpt lat="40.583208380363175" lon="9.629128530801522"><ele>629.0</ele><time>2026-04-25T13:31:14Z</time></trkpt><trkpt lat="40.58313852999535" lon="9.629075815481254"><ele>629.0</ele><time>2026-04-25T13:31:15Z</time></trkpt><trkpt lat="40.583079894325785" lon="9.629035791884505"><ele>629.0</ele><time>2026-04-25T13:31:16Z</time></trkpt><trkpt lat="40.58295672705481" lon="9.629002281153108"><ele>629.0</ele><time>2026-04-25T13:31:18Z</time></trkpt><trkpt lat="40.58288625551171" lon="9.629039583185303"><ele>629.0</ele><time>2026-04-25T13:31:19Z</time></trkpt><trkpt lat="40.58281095751003" lon="9.629074091769366"><ele>629.0</ele><time>2026-04-25T13:31:20Z</time></trkpt><trkpt lat="40.58273159128016" lon="9.62911980736377"><ele>629.0</ele><time>2026-04-25T13:31:21Z</time></trkpt><trkpt lat="40.58264976102653" lon="9.629147132312754"><ele>629.0</ele><time>2026-04-25T13:31:22Z</time></trkpt><trkpt lat="40.58261084291486" lon="9.629229755199622"><ele>629.0</ele><time>2026-04-25T13:31:23Z</time></trkpt><trkpt lat="40.582591316080055" lon="9.629316208041397"><ele>629.0</ele><time>2026-04-25T13:31:24Z</time></trkpt><trkpt lat="40.5825941833892" lon="9.629426747618814"><ele>629.0</ele><time>2026-04-25T13:31:25Z</time></trkpt><trkpt lat="40.582611451607384" lon="9.629550194909244"><ele>629.0</ele><time>2026-04-25T13:31:26Z</time></trkpt><trkpt lat="40.58262948668758" lon="9.629699100339865"><ele>629.0</ele><time>2026-04-25T13:31:27Z</time></trkpt><trkpt lat="40.58264100938946" lon="9.629864571992327"><ele>630.75</ele><time>2026-04-25T13:31:28Z</time></trkpt><trkpt lat="40.582650394720744" lon="9.63003040662616"><ele>632.5</ele><time>2026-04-25T13:31:29Z</time></trkpt><trkpt lat="40.58265994923655" lon="9.630196239130541"><ele>634.25</ele><time>2026-04-25T13:31:30Z</time></trkpt><trkpt lat="40.58266963295753" lon="9.630351168416013"><ele>636.0</ele><time>2026-04-25T13:31:31Z</time></trkpt><trkpt lat="40.582676825428244" lon="9.630487785666135"><ele>637.2</ele><time>2026-04-25T13:31:32Z</time></trkpt><trkpt lat="40.582678049689235" lon="9.630615049127309"><ele>638.4000000000001</ele><time>2026-04-25T13:31:33Z</time></trkpt><trkpt lat="40.58265694483491" lon="9.630738681783429"><ele>639.6</ele><time>2026-04-25T13:31:34Z</time></trkpt><trkpt lat="40.582584962226676" lon="9.63083754062983"><ele>640.8000000000001</ele><time>2026-04-25T13:31:35Z</time></trkpt><trkpt lat="40.582547227437544" lon="9.630966955260792"><ele>642.0</ele><time>2026-04-25T13:31:36Z</time></trkpt><trkpt lat="40.58250335129576" lon="9.631080817865273"><ele>642.2</ele><time>2026-04-25T13:31:37Z</time></trkpt><trkpt lat="40.58249443007135" lon="9.631214732387546"><ele>642.4000000000001</ele><time>2026-04-25T13:31:38Z</time></trkpt><trkpt lat="40.58250045808892" lon="9.631353373141193"><ele>642.5999999999999</ele><time>2026-04-25T13:31:39Z</time></trkpt><trkpt lat="40.582503773276095" lon="9.631471124422267"><ele>642.8</ele><time>2026-04-25T13:31:40Z</time></trkpt><trkpt lat="40.58248846405687" lon="9.6315751670005"><ele>643.0</ele><time>2026-04-25T13:31:41Z</time></trkpt><trkpt lat="40.58244563771721" lon="9.631657597749596"><ele>643.0</ele><time>2026-04-25T13:31:42Z</time></trkpt><trkpt lat="40.58236221592727" lon="9.631682649995103"><ele>643.0</ele><time>2026-04-25T13:31:43Z</time></trkpt><trkpt lat="40.58229034497588" lon="9.631671718896252"><ele>643.0</ele><time>2026-04-25T13:31:44Z</time></trkpt><trkpt lat="40.582227896564866" lon="9.631618812506423"><ele>643.0</ele><time>2026-04-25T13:31:45Z</time></trkpt><trkpt lat="40.58215671832407" lon="9.631541674590194"><ele>643.0</ele><time>2026-04-25T13:31:46Z</time></trkpt><trkpt lat="40.58207956950259" lon="9.631420759552615"><ele>643.0</ele><time>2026-04-25T13:31:47Z</time></trkpt><trkpt lat="40.58198974979838" lon="9.631281459819615"><ele>642.1999999999999</ele><time>2026-04-25T13:31:48Z</time></trkpt><trkpt lat="40.581910089777935" lon="9.631165833575936"><ele>641.4</ele><time>2026-04-25T13:31:49Z</time></trkpt><trkpt lat="40.581828161769195" lon="9.631096913238078"><ele>640.5999999999999</ele><time>2026-04-25T13:31:50Z</time></trkpt><trkpt lat="40.58173816499873" lon="9.631076018062846"><ele>639.8</ele><time>2026-04-25T13:31:51Z</time></trkpt><trkpt lat="40.58163893236812" lon="9.631104881665918"><ele>639.0</ele><time>2026-04-25T13:31:52Z</time></trkpt><trkpt lat="40.581537771560804" lon="9.631178651613393"><ele>642.0</ele><time>2026-04-25T13:31:53Z</time></trkpt><trkpt lat="40.58142959703452" lon="9.631284080459523"><ele>645.0</ele><time>2026-04-25T13:31:54Z</time></trkpt><trkpt lat="40.58133486943399" lon="9.631404874717262"><ele>648.0</ele><time>2026-04-25T13:31:55Z</time></trkpt><trkpt lat="40.581271405757136" lon="9.631562427963473"><ele>651.0</ele><time>2026-04-25T13:31:56Z</time></trkpt><trkpt lat="40.581227075471226" lon="9.631747619639304"><ele>651.0</ele><time>2026-04-25T13:31:57Z</time></trkpt><trkpt lat="40.58120321923636" lon="9.631961854543968"><ele>651.0</ele><time>2026-04-25T13:31:58Z</time></trkpt><trkpt lat="40.581185362563495" lon="9.632149716216015"><ele>651.0</ele><time>2026-04-25T13:31:59Z</time></trkpt><trkpt lat="40.58116138844722" lon="9.632306001224793"><ele>651.0</ele><time>2026-04-25T13:32:00Z</time></trkpt><trkpt lat="40.58110469439649" lon="9.632425955720617"><ele>653.1666666666666</ele><time>2026-04-25T13:32:01Z</time></trkpt><trkpt lat="40.58105566641676" lon="9.632509818916438"><ele>655.3333333333334</ele><time>2026-04-25T13:32:02Z</time></trkpt><trkpt lat="40.580997799161025" lon="9.632567001561599"><ele>657.5</ele><time>2026-04-25T13:32:03Z</time></trkpt><trkpt lat="40.58090967630549" lon="9.632529710098426"><ele>659.6666666666667</ele><time>2026-04-25T13:32:04Z</time></trkpt><trkpt lat="40.58083546944303" lon="9.632464640793414"><ele>661.8333333333334</ele><time>2026-04-25T13:32:05Z</time></trkpt><trkpt lat="40.58076225211655" lon="9.632355467308411"><ele>664.0</ele><time>2026-04-25T13:32:06Z</time></trkpt><trkpt lat="40.58067304800721" lon="9.632225029576688"><ele>664.0</ele><time>2026-04-25T13:32:07Z</time></trkpt><trkpt lat="40.58060278655993" lon="9.632060313145727"><ele>664.0</ele><time>2026-04-25T13:32:08Z</time></trkpt><trkpt lat="40.580536338138984" lon="9.631892011470029"><ele>664.0</ele><time>2026-04-25T13:32:09Z</time></trkpt><trkpt lat="40.580456635662635" lon="9.631768130456361"><ele>664.0</ele><time>2026-04-25T13:32:10Z</time></trkpt><trkpt lat="40.5803571867104" lon="9.631660383851138"><ele>665.25</ele><time>2026-04-25T13:32:11Z</time></trkpt><trkpt lat="40.580228131234456" lon="9.631565679076436"><ele>666.5</ele><time>2026-04-25T13:32:12Z</time></trkpt><trkpt lat="40.58008638437492" lon="9.631483394062238"><ele>667.75</ele><time>2026-04-25T13:32:13Z</time></trkpt><trkpt lat="40.57996384604901" lon="9.631425716680221"><ele>669.0</ele><time>2026-04-25T13:32:14Z</time></trkpt><trkpt lat="40.57984126498398" lon="9.631416041021705"><ele>669.0</ele><time>2026-04-25T13:32:15Z</time></trkpt><trkpt lat="40.57969562131081" lon="9.631446457640592"><ele>669.0</ele><time>2026-04-25T13:32:16Z</time></trkpt><trkpt lat="40.57953255910384" lon="9.631436896320702"><ele>669.0</ele><time>2026-04-25T13:32:17Z</time></trkpt><trkpt lat="40.57935708410554" lon="9.631393216261277"><ele>672.0</ele><time>2026-04-25T13:32:18Z</time></trkpt><trkpt lat="40.579178895967225" lon="9.631366223744202"><ele>675.0</ele><time>2026-04-25T13:32:19Z</time></trkpt><trkpt lat="40.57903072227879" lon="9.63132007926332"><ele>678.0</ele><time>2026-04-25T13:32:20Z</time></trkpt><trkpt lat="40.578909346611375" lon="9.63129713850817"><ele>678.0</ele><time>2026-04-25T13:32:21Z</time></trkpt><trkpt lat="40.578808580648804" lon="9.631311445026803"><ele>678.0</ele><time>2026-04-25T13:32:22Z</time></trkpt><trkpt lat="40.57871657374527" lon="9.631374771117306"><ele>678.0</ele><time>2026-04-25T13:32:23Z</time></trkpt><trkpt lat="40.578628391559896" lon="9.631471923969029"><ele>678.0</ele><time>2026-04-25T13:32:24Z</time></trkpt><trkpt lat="40.57856948094803" lon="9.631589361901685"><ele>678.0</ele><time>2026-04-25T13:32:25Z</time></trkpt><trkpt lat="40.57853991213458" lon="9.631734482710309"><ele>677.5</ele><time>2026-04-25T13:32:26Z</time></trkpt><trkpt lat="40.57853665835755" lon="9.631914787858538"><ele>677.0</ele><time>2026-04-25T13:32:27Z</time></trkpt><trkpt lat="40.57855920105698" lon="9.632107257785439"><ele>676.5</ele><time>2026-04-25T13:32:28Z</time></trkpt><trkpt lat="40.57858179658073" lon="9.632262286729512"><ele>676.0</ele><time>2026-04-25T13:32:29Z</time></trkpt><trkpt lat="40.57855607661785" lon="9.632388494867275"><ele>676.0</ele><time>2026-04-25T13:32:30Z</time></trkpt><trkpt lat="40.57845525320527" lon="9.632487951819469"><ele>676.0</ele><time>2026-04-25T13:32:31Z</time></trkpt><trkpt lat="40.578355147207176" lon="9.632632052363325"><ele>676.0</ele><time>2026-04-25T13:32:32Z</time></trkpt><trkpt lat="40.578245872614104" lon="9.632795597293155"><ele>676.0</ele><time>2026-04-25T13:32:33Z</time></trkpt><trkpt lat="40.578139485503215" lon="9.632932452642192"><ele>680.5</ele><time>2026-04-25T13:32:34Z</time></trkpt><trkpt lat="40.57805942302215" lon="9.63306074819724"><ele>685.0</ele><time>2026-04-25T13:32:35Z</time></trkpt><trkpt lat="40.577996055630855" lon="9.633202402255451"><ele>689.5</ele><time>2026-04-25T13:32:36Z</time></trkpt><trkpt lat="40.57794895269209" lon="9.633390527299664"><ele>694.0</ele><time>2026-04-25T13:32:37Z</time></trkpt><trkpt lat="40.577922015987106" lon="9.633615763389539"><ele>698.0</ele><time>2026-04-25T13:32:38Z</time></trkpt><trkpt lat="40.57790222581205" lon="9.63385312034025"><ele>702.0</ele><time>2026-04-25T13:32:39Z</time></trkpt><trkpt lat="40.57789205544434" lon="9.634074314263932"><ele>706.0</ele><time>2026-04-25T13:32:40.001Z</time></trkpt><trkpt lat="40.57789142697599" lon="9.634269144655102"><ele>706.0</ele><time>2026-04-25T13:32:41.001Z</time></trkpt><trkpt lat="40.5778970305096" lon="9.634441395857666"><ele>706.0</ele><time>2026-04-25T13:32:42.001Z</time></trkpt><trkpt lat="40.5778976330116" lon="9.634601463447478"><ele>706.0</ele><time>2026-04-25T13:32:43.001Z</time></trkpt><trkpt lat="40.57784826782856" lon="9.634731872772779"><ele>706.0</ele><time>2026-04-25T13:32:44.001Z</time></trkpt><trkpt lat="40.577767090846805" lon="9.63481061773203"><ele>704.0</ele><time>2026-04-25T13:32:45.001Z</time></trkpt><trkpt lat="40.5776665317371" lon="9.63487741077756"><ele>702.0</ele><time>2026-04-25T13:32:46.001Z</time></trkpt><trkpt lat="40.57753393841046" lon="9.634958234874867"><ele>700.0</ele><time>2026-04-25T13:32:47.001Z</time></trkpt><trkpt lat="40.57738353529508" lon="9.635043812436974"><ele>698.0</ele><time>2026-04-25T13:32:48.001Z</time></trkpt><trkpt lat="40.57722225449067" lon="9.635085956207242"><ele>698.0</ele><time>2026-04-25T13:32:49.001Z</time></trkpt><trkpt lat="40.57705064352703" lon="9.635081192818998"><ele>698.0</ele><time>2026-04-25T13:32:50.001Z</time></trkpt><trkpt lat="40.57686268985722" lon="9.635079152166975"><ele>698.0</ele><time>2026-04-25T13:32:51.001Z</time></trkpt><trkpt lat="40.57668631245553" lon="9.635082238159514"><ele>698.0</ele><time>2026-04-25T13:32:52.001Z</time></trkpt><trkpt lat="40.576532702057726" lon="9.635098765927996"><ele>698.0</ele><time>2026-04-25T13:32:53.001Z</time></trkpt><trkpt lat="40.57639913989298" lon="9.635071948633025"><ele>698.0</ele><time>2026-04-25T13:32:54Z</time></trkpt><trkpt lat="40.576278133891" lon="9.635039670084186"><ele>698.0</ele><time>2026-04-25T13:32:55Z</time></trkpt><trkpt lat="40.576187323191384" lon="9.634960514920605"><ele>701.3333333333333</ele><time>2026-04-25T13:32:56Z</time></trkpt><trkpt lat="40.57609763044714" lon="9.634887114516069"><ele>704.6666666666666</ele><time>2026-04-25T13:32:57Z</time></trkpt><trkpt lat="40.576018873735364" lon="9.63481357501627"><ele>708.0</ele><time>2026-04-25T13:32:58Z</time></trkpt><trkpt lat="40.575965558526136" lon="9.634731698016505"><ele>711.3333333333334</ele><time>2026-04-25T13:32:59Z</time></trkpt><trkpt lat="40.57595231621566" lon="9.634634281745699"><ele>714.6666666666667</ele><time>2026-04-25T13:33:00Z</time></trkpt><trkpt lat="40.57596831790202" lon="9.63453534792157"><ele>718.0</ele><time>2026-04-25T13:33:01Z</time></trkpt><trkpt lat="40.576027834296475" lon="9.63445100833956"><ele>719.25</ele><time>2026-04-25T13:33:02Z</time></trkpt><trkpt lat="40.57610700501783" lon="9.634360078444802"><ele>720.5</ele><time>2026-04-25T13:33:03Z</time></trkpt><trkpt lat="40.57619811037268" lon="9.634220940921415"><ele>721.75</ele><time>2026-04-25T13:33:04Z</time></trkpt><trkpt lat="40.576314406445924" lon="9.634080203319556"><ele>723.0</ele><time>2026-04-25T13:33:05Z</time></trkpt><trkpt lat="40.57641571471521" lon="9.633952897478949"><ele>717.5999999999999</ele><time>2026-04-25T13:33:06Z</time></trkpt><trkpt lat="40.576491646326936" lon="9.633848109844479"><ele>712.1999999999999</ele><time>2026-04-25T13:33:07Z</time></trkpt><trkpt lat="40.57653033058509" lon="9.633747722086818"><ele>706.8</ele><time>2026-04-25T13:33:08Z</time></trkpt><trkpt lat="40.5765302930461" lon="9.63363949325141"><ele>701.4</ele><time>2026-04-25T13:33:09Z</time></trkpt><trkpt lat="40.57649004457134" lon="9.633534773909341"><ele>696.0</ele><time>2026-04-25T13:33:10Z</time></trkpt><trkpt lat="40.576413331647316" lon="9.63341061539172"><ele>696.0</ele><time>2026-04-25T13:33:11Z</time></trkpt><trkpt lat="40.57633483026902" lon="9.63325979814872"><ele>696.0</ele><time>2026-04-25T13:33:12Z</time></trkpt><trkpt lat="40.576268148844406" lon="9.633127172831726"><ele>696.0</ele><time>2026-04-25T13:33:13Z</time></trkpt><trkpt lat="40.57623289685347" lon="9.63299105397288"><ele>696.0</ele><time>2026-04-25T13:33:14Z</time></trkpt><trkpt lat="40.576226343800805" lon="9.63284840815371"><ele>695.1999999999999</ele><time>2026-04-25T13:33:15Z</time></trkpt><trkpt lat="40.57623918436511" lon="9.63270205113824"><ele>694.4</ele><time>2026-04-25T13:33:16Z</time></trkpt><trkpt lat="40.57621879352456" lon="9.632575687765296"><ele>693.6</ele><time>2026-04-25T13:33:17Z</time></trkpt><trkpt lat="40.576188782077054" lon="9.63248723952879"><ele>692.8</ele><time>2026-04-25T13:33:18Z</time></trkpt><trkpt lat="40.57612392057788" lon="9.632383854517837"><ele>692.0</ele><time>2026-04-25T13:33:19Z</time></trkpt><trkpt lat="40.57602715401303" lon="9.63225786965858"><ele>698.8</ele><time>2026-04-25T13:33:20Z</time></trkpt><trkpt lat="40.57594015691323" lon="9.63210904107389"><ele>705.6</ele><time>2026-04-25T13:33:21Z</time></trkpt><trkpt lat="40.57586372218882" lon="9.632000469041031"><ele>712.4</ele><time>2026-04-25T13:33:22Z</time></trkpt><trkpt lat="40.57580082828579" lon="9.631905707345489"><ele>719.1999999999999</ele><time>2026-04-25T13:33:23Z</time></trkpt><trkpt lat="40.57574830489132" lon="9.631822508737503"><ele>726.0</ele><time>2026-04-25T13:33:24Z</time></trkpt><trkpt lat="40.57570744560546" lon="9.63174500443409"><ele>726.0</ele><time>2026-04-25T13:33:25Z</time></trkpt><trkpt lat="40.5756880037604" lon="9.631659657109202"><ele>726.0</ele><time>2026-04-25T13:33:26Z</time></trkpt><trkpt lat="40.575694623116895" lon="9.631564429387534"><ele>726.0</ele><time>2026-04-25T13:33:27Z</time></trkpt><trkpt lat="40.57577709226129" lon="9.631484546958214"><ele>726.0</ele><time>2026-04-25T13:33:28Z</time></trkpt><trkpt lat="40.575844616685345" lon="9.631390820426402"><ele>726.0</ele><time>2026-04-25T13:33:29Z</time></trkpt><trkpt lat="40.57589942685041" lon="9.631322371680593"><ele>726.0</ele><time>2026-04-25T13:33:30Z</time></trkpt><trkpt lat="40.57593132233735" lon="9.631186486933874"><ele>726.0</ele><time>2026-04-25T13:33:32Z</time></trkpt><trkpt lat="40.575923070354605" lon="9.631094566725956"><ele>726.0</ele><time>2026-04-25T13:33:34Z</time></trkpt><trkpt lat="40.575893720708265" lon="9.630955637566698"><ele>726.0</ele><time>2026-04-25T13:34:22Z</time></trkpt><trkpt lat="40.57587053530051" lon="9.63085464973111"><ele>726.0</ele><time>2026-04-25T13:34:23Z</time></trkpt><trkpt lat="40.57584906471403" lon="9.630742089052985"><ele>726.0</ele><time>2026-04-25T13:34:24Z</time></trkpt><trkpt lat="40.57579769879142" lon="9.63064358119292"><ele>726.0</ele><time>2026-04-25T13:34:25Z</time></trkpt><trkpt lat="40.575734348670984" lon="9.630558086830577"><ele>726.0</ele><time>2026-04-25T13:34:26Z</time></trkpt><trkpt lat="40.57565672534293" lon="9.630517161141498"><ele>726.0</ele><time>2026-04-25T13:34:27Z</time></trkpt><trkpt lat="40.575578558000274" lon="9.63047566852223"><ele>726.0</ele><time>2026-04-25T13:34:28Z</time></trkpt><trkpt lat="40.57548643833747" lon="9.630466796225349"><ele>726.0</ele><time>2026-04-25T13:34:29Z</time></trkpt><trkpt lat="40.57536575659054" lon="9.630489907293267"><ele>726.0</ele><time>2026-04-25T13:34:30Z</time></trkpt><trkpt lat="40.57526049430536" lon="9.630454225421238"><ele>726.8</ele><time>2026-04-25T13:34:31Z</time></trkpt><trkpt lat="40.57518159319516" lon="9.630359655034257"><ele>727.5999999999999</ele><time>2026-04-25T13:34:32Z</time></trkpt><trkpt lat="40.57506956402768" lon="9.630297678746345"><ele>728.4</ele><time>2026-04-25T13:34:33Z</time></trkpt><trkpt lat="40.57497792655367" lon="9.630241302236676"><ele>729.2</ele><time>2026-04-25T13:34:34Z</time></trkpt><trkpt lat="40.574892718993745" lon="9.630223891971935"><ele>730.0</ele><time>2026-04-25T13:34:35Z</time></trkpt><trkpt lat="40.57480154267535" lon="9.630240309150594"><ele>730.0</ele><time>2026-04-25T13:34:36Z</time></trkpt><trkpt lat="40.57472262360045" lon="9.630293612250437"><ele>730.0</ele><time>2026-04-25T13:34:37Z</time></trkpt><trkpt lat="40.57465436077899" lon="9.630368982279997"><ele>730.0</ele><time>2026-04-25T13:34:38Z</time></trkpt><trkpt lat="40.57459206327569" lon="9.630436519242147"><ele>730.0</ele><time>2026-04-25T13:34:39Z</time></trkpt><trkpt lat="40.574516223539916" lon="9.630488034869805"><ele>730.0</ele><time>2026-04-25T13:34:40Z</time></trkpt><trkpt lat="40.574409544602474" lon="9.63052923205324"><ele>734.5</ele><time>2026-04-25T13:34:41Z</time></trkpt><trkpt lat="40.5742771814629" lon="9.630518915786208"><ele>739.0</ele><time>2026-04-25T13:34:42Z</time></trkpt><trkpt lat="40.574158282146854" lon="9.63054514161821"><ele>743.5</ele><time>2026-04-25T13:34:43Z</time></trkpt><trkpt lat="40.574055728774866" lon="9.630570691180736"><ele>748.0</ele><time>2026-04-25T13:34:44Z</time></trkpt><trkpt lat="40.57396466786745" lon="9.630626555747451"><ele>748.0</ele><time>2026-04-25T13:34:45Z</time></trkpt><trkpt lat="40.5738859360037" lon="9.630685247008813"><ele>748.0</ele><time>2026-04-25T13:34:46Z</time></trkpt><trkpt lat="40.57380835919345" lon="9.630733748943776"><ele>748.0</ele><time>2026-04-25T13:34:47Z</time></trkpt><trkpt lat="40.57373167004567" lon="9.6307721831685"><ele>748.0</ele><time>2026-04-25T13:34:48Z</time></trkpt><trkpt lat="40.57366355241309" lon="9.630801529383332"><ele>748.0</ele><time>2026-04-25T13:34:49Z</time></trkpt><trkpt lat="40.57355977486421" lon="9.630835735126173"><ele>748.0</ele><time>2026-04-25T13:34:51Z</time></trkpt><trkpt lat="40.57348246018884" lon="9.630864342624053"><ele>749.0</ele><time>2026-04-25T13:34:53Z</time></trkpt><trkpt lat="40.573392405763606" lon="9.630903071598977"><ele>750.0</ele><time>2026-04-25T13:34:55Z</time></trkpt><trkpt lat="40.57330430328878" lon="9.630954013632591"><ele>751.0</ele><time>2026-04-25T13:34:57Z</time></trkpt><trkpt lat="40.57325023107021" lon="9.631004734731496"><ele>752.0</ele><time>2026-04-25T13:34:59Z</time></trkpt><trkpt lat="40.57321935645123" lon="9.631077585486246"><ele>753.0</ele><time>2026-04-25T13:36:44Z</time></trkpt><trkpt lat="40.57319751020311" lon="9.63121429285354"><ele>754.0</ele><time>2026-04-25T13:36:46Z</time></trkpt><trkpt lat="40.573200838552026" lon="9.63132063531807"><ele>754.0</ele><time>2026-04-25T13:36:47Z</time></trkpt><trkpt lat="40.573198454982744" lon="9.6314397628529"><ele>754.0</ele><time>2026-04-25T13:36:48Z</time></trkpt><trkpt lat="40.5731802218926" lon="9.631561604805118"><ele>754.0</ele><time>2026-04-25T13:36:49Z</time></trkpt><trkpt lat="40.57310911887072" lon="9.631651822794662"><ele>754.0</ele><time>2026-04-25T13:36:50Z</time></trkpt><trkpt lat="40.573056797862016" lon="9.631761138942737"><ele>754.0</ele><time>2026-04-25T13:36:51Z</time></trkpt><trkpt lat="40.5730139434418" lon="9.631867682160294"><ele>754.75</ele><time>2026-04-25T13:36:51.999Z</time></trkpt><trkpt lat="40.57300747861135" lon="9.632017767719306"><ele>755.5</ele><time>2026-04-25T13:36:52.999Z</time></trkpt><trkpt lat="40.57301270442122" lon="9.632202608656351"><ele>756.25</ele><time>2026-04-25T13:36:53.999Z</time></trkpt><trkpt lat="40.57302652356302" lon="9.632381811900029"><ele>757.0</ele><time>2026-04-25T13:36:54.999Z</time></trkpt><trkpt lat="40.57306180965233" lon="9.63252168099631"><ele>757.0</ele><time>2026-04-25T13:36:55.999Z</time></trkpt><trkpt lat="40.573130166953646" lon="9.63263707831491"><ele>757.0</ele><time>2026-04-25T13:36:56.999Z</time></trkpt><trkpt lat="40.57321938632521" lon="9.632727822492106"><ele>757.0</ele><time>2026-04-25T13:36:57.999Z</time></trkpt><trkpt lat="40.57331227804886" lon="9.632801347234734"><ele>757.0</ele><time>2026-04-25T13:36:58.999Z</time></trkpt><trkpt lat="40.57337295798424" lon="9.632885074138455"><ele>757.0</ele><time>2026-04-25T13:36:59.999Z</time></trkpt><trkpt lat="40.57339351300849" lon="9.633008888372887"><ele>758.0</ele><time>2026-04-25T13:37:00.999Z</time></trkpt><trkpt lat="40.57338087981365" lon="9.633150062600809"><ele>759.0</ele><time>2026-04-25T13:37:01.999Z</time></trkpt><trkpt lat="40.573316602507944" lon="9.633280053096088"><ele>760.0</ele><time>2026-04-25T13:37:02.999Z</time></trkpt><trkpt lat="40.57325999242605" lon="9.63345486886765"><ele>761.0</ele><time>2026-04-25T13:37:03.999Z</time></trkpt><trkpt lat="40.5731787867553" lon="9.633637937691622"><ele>765.6666666666666</ele><time>2026-04-25T13:37:04.999Z</time></trkpt><trkpt lat="40.5730978729491" lon="9.633837395669396"><ele>770.3333333333333</ele><time>2026-04-25T13:37:05.999Z</time></trkpt><trkpt lat="40.573018076148564" lon="9.634044676347832"><ele>775.0</ele><time>2026-04-25T13:37:06.999Z</time></trkpt><trkpt lat="40.572928269137435" lon="9.63425697406455"><ele>769.3333333333333</ele><time>2026-04-25T13:37:07.999Z</time></trkpt><trkpt lat="40.572848801255205" lon="9.634488618931664"><ele>763.6666666666666</ele><time>2026-04-25T13:37:08.999Z</time></trkpt><trkpt lat="40.572771071602446" lon="9.63469245012133"><ele>758.0</ele><time>2026-04-25T13:37:09.999Z</time></trkpt><trkpt lat="40.572696621006216" lon="9.634875111211867"><ele>758.0</ele><time>2026-04-25T13:37:10.999Z</time></trkpt><trkpt lat="40.57262702286754" lon="9.63504415299704"><ele>758.0</ele><time>2026-04-25T13:37:11.999Z</time></trkpt><trkpt lat="40.5725697092999" lon="9.635206539442068"><ele>758.0</ele><time>2026-04-25T13:37:12.999Z</time></trkpt><trkpt lat="40.572530670239615" lon="9.635378784902965"><ele>758.0</ele><time>2026-04-25T13:37:13.999Z</time></trkpt><trkpt lat="40.57252082892923" lon="9.63557333406153"><ele>761.25</ele><time>2026-04-25T13:37:15Z</time></trkpt><trkpt lat="40.57251796790713" lon="9.635771166466915"><ele>764.5</ele><time>2026-04-25T13:37:16Z</time></trkpt><trkpt lat="40.57251847312528" lon="9.635938514564367"><ele>767.75</ele><time>2026-04-25T13:37:17Z</time></trkpt><trkpt lat="40.57251472945997" lon="9.636088695449475"><ele>771.0</ele><time>2026-04-25T13:37:18Z</time></trkpt><trkpt lat="40.5724944492559" lon="9.636218485353531"><ele>773.3333333333334</ele><time>2026-04-25T13:37:19Z</time></trkpt><trkpt lat="40.57245038927103" lon="9.636327328732067"><ele>775.6666666666667</ele><time>2026-04-25T13:37:20Z</time></trkpt><trkpt lat="40.572376893995546" lon="9.636398013323614"><ele>778.0</ele><time>2026-04-25T13:37:21Z</time></trkpt><trkpt lat="40.572306627606075" lon="9.63646412866085"><ele>780.3333333333334</ele><time>2026-04-25T13:37:22Z</time></trkpt><trkpt lat="40.57223080917823" lon="9.636517444071291"><ele>782.6666666666667</ele><time>2026-04-25T13:37:23Z</time></trkpt><trkpt lat="40.57214373009986" lon="9.636529606079797"><ele>785.0</ele><time>2026-04-25T13:37:24Z</time></trkpt><trkpt lat="40.57204704542128" lon="9.63650211237927"><ele>783.5</ele><time>2026-04-25T13:37:25Z</time></trkpt><trkpt lat="40.57193332026404" lon="9.636466075441373"><ele>782.0</ele><time>2026-04-25T13:37:26Z</time></trkpt><trkpt lat="40.57180120711472" lon="9.636464074437576"><ele>780.5</ele><time>2026-04-25T13:37:27Z</time></trkpt><trkpt lat="40.57166706271016" lon="9.636454718240463"><ele>779.0</ele><time>2026-04-25T13:37:28Z</time></trkpt><trkpt lat="40.57155550197805" lon="9.636460037953523"><ele>779.0</ele><time>2026-04-25T13:37:29Z</time></trkpt><trkpt lat="40.5714567776698" lon="9.636482077860888"><ele>779.0</ele><time>2026-04-25T13:37:30Z</time></trkpt><trkpt lat="40.571357805336454" lon="9.636537214622184"><ele>779.0</ele><time>2026-04-25T13:37:31Z</time></trkpt><trkpt lat="40.57125380746737" lon="9.636622403124486"><ele>779.0</ele><time>2026-04-25T13:37:32Z</time></trkpt><trkpt lat="40.57114459420287" lon="9.63672981786245"><ele>775.6666666666667</ele><time>2026-04-25T13:37:33Z</time></trkpt><trkpt lat="40.571024264461585" lon="9.636845450971272"><ele>772.3333333333333</ele><time>2026-04-25T13:37:34Z</time></trkpt><trkpt lat="40.57089637876953" lon="9.636963194057968"><ele>769.0</ele><time>2026-04-25T13:37:35Z</time></trkpt><trkpt lat="40.570776032136095" lon="9.637075219752822"><ele>775.25</ele><time>2026-04-25T13:37:36Z</time></trkpt><trkpt lat="40.570661550594565" lon="9.637177078611805"><ele>781.5</ele><time>2026-04-25T13:37:37Z</time></trkpt><trkpt lat="40.57055657042858" lon="9.637261972042262"><ele>787.75</ele><time>2026-04-25T13:37:38Z</time></trkpt><trkpt lat="40.57044474809459" lon="9.63730849999976"><ele>794.0</ele><time>2026-04-25T13:37:39Z</time></trkpt><trkpt lat="40.570335035969634" lon="9.637335875192003"><ele>794.25</ele><time>2026-04-25T13:37:40Z</time></trkpt><trkpt lat="40.57021080440532" lon="9.63733436269454"><ele>794.5</ele><time>2026-04-25T13:37:41Z</time></trkpt><trkpt lat="40.57007045265342" lon="9.63732602290685"><ele>794.75</ele><time>2026-04-25T13:37:42Z</time></trkpt><trkpt lat="40.56994558041328" lon="9.637310926906897"><ele>795.0</ele><time>2026-04-25T13:37:43Z</time></trkpt><trkpt lat="40.569847537025225" lon="9.6372924343708"><ele>795.0</ele><time>2026-04-25T13:37:44Z</time></trkpt><trkpt lat="40.56977426112935" lon="9.637254089819077"><ele>795.0</ele><time>2026-04-25T13:37:45Z</time></trkpt><trkpt lat="40.569722465128294" lon="9.637189979954623"><ele>795.0</ele><time>2026-04-25T13:37:46Z</time></trkpt><trkpt lat="40.56971238681112" lon="9.637092716211308"><ele>795.0</ele><time>2026-04-25T13:37:47Z</time></trkpt><trkpt lat="40.56969439679128" lon="9.63697916854127"><ele>795.0</ele><time>2026-04-25T13:37:48Z</time></trkpt><trkpt lat="40.569662903955034" lon="9.636827596999096"><ele>795.0</ele><time>2026-04-25T13:37:49Z</time></trkpt><trkpt lat="40.569600807819086" lon="9.636671972101482"><ele>793.25</ele><time>2026-04-25T13:37:50Z</time></trkpt><trkpt lat="40.569535019836835" lon="9.636497193640652"><ele>791.5</ele><time>2026-04-25T13:37:51Z</time></trkpt><trkpt lat="40.56946963293288" lon="9.636336129313369"><ele>789.75</ele><time>2026-04-25T13:37:52Z</time></trkpt><trkpt lat="40.56941535291593" lon="9.63619957641898"><ele>788.0</ele><time>2026-04-25T13:37:53Z</time></trkpt><trkpt lat="40.56936790565264" lon="9.636079251737954"><ele>788.0</ele><time>2026-04-25T13:37:54Z</time></trkpt><trkpt lat="40.56931871976304" lon="9.63598590855559"><ele>788.0</ele><time>2026-04-25T13:37:55Z</time></trkpt><trkpt lat="40.569255131610234" lon="9.635923723216438"><ele>788.0</ele><time>2026-04-25T13:37:56Z</time></trkpt><trkpt lat="40.569165816162496" lon="9.635883479128676"><ele>788.0</ele><time>2026-04-25T13:37:57Z</time></trkpt><trkpt lat="40.56905934172201" lon="9.635872570759277"><ele>788.0</ele><time>2026-04-25T13:37:58Z</time></trkpt><trkpt lat="40.568951585581964" lon="9.635853826958535"><ele>788.0</ele><time>2026-04-25T13:37:59Z</time></trkpt><trkpt lat="40.56885191482859" lon="9.635775925105586"><ele>788.0</ele><time>2026-04-25T13:38:00Z</time></trkpt><trkpt lat="40.56875478191087" lon="9.635699705857395"><ele>788.0</ele><time>2026-04-25T13:38:01Z</time></trkpt><trkpt lat="40.568652744741115" lon="9.635650519777691"><ele>788.0</ele><time>2026-04-25T13:38:02Z</time></trkpt><trkpt lat="40.568565283168915" lon="9.635592889738962"><ele>788.0</ele><time>2026-04-25T13:38:03Z</time></trkpt><trkpt lat="40.56847488477831" lon="9.635568803407033"><ele>791.0</ele><time>2026-04-25T13:38:04Z</time></trkpt><trkpt lat="40.56837465450848" lon="9.635586263674432"><ele>794.0</ele><time>2026-04-25T13:38:05Z</time></trkpt><trkpt lat="40.56826221229624" lon="9.635648859514285"><ele>797.0</ele><time>2026-04-25T13:38:06Z</time></trkpt><trkpt lat="40.56814099520663" lon="9.63571146456871"><ele>800.0</ele><time>2026-04-25T13:38:07Z</time></trkpt><trkpt lat="40.56801415563326" lon="9.635710541269352"><ele>800.0</ele><time>2026-04-25T13:38:08Z</time></trkpt><trkpt lat="40.56787979145989" lon="9.635723803543375"><ele>800.0</ele><time>2026-04-25T13:38:09Z</time></trkpt><trkpt lat="40.56775611547958" lon="9.635748664722291"><ele>800.0</ele><time>2026-04-25T13:38:10Z</time></trkpt><trkpt lat="40.56763936684082" lon="9.635758260652475"><ele>800.0</ele><time>2026-04-25T13:38:11Z</time></trkpt><trkpt lat="40.567538566206196" lon="9.635766126416435"><ele>800.8</ele><time>2026-04-25T13:38:12Z</time></trkpt><trkpt lat="40.56744692988272" lon="9.63572944225243"><ele>801.6</ele><time>2026-04-25T13:38:13Z</time></trkpt><trkpt lat="40.567363059709244" lon="9.635676280666363"><ele>802.4000000000001</ele><time>2026-04-25T13:38:14Z</time></trkpt><trkpt lat="40.56726623501861" lon="9.63559632776417"><ele>803.2</ele><time>2026-04-25T13:38:15Z</time></trkpt><trkpt lat="40.567145025416366" lon="9.63550650143093"><ele>804.0</ele><time>2026-04-25T13:38:16Z</time></trkpt><trkpt lat="40.56699620791509" lon="9.635458583813628"><ele>806.0</ele><time>2026-04-25T13:38:17Z</time></trkpt><trkpt lat="40.566878720711614" lon="9.635382179622109"><ele>808.0</ele><time>2026-04-25T13:38:18Z</time></trkpt><trkpt lat="40.56677464993447" lon="9.635299641778719"><ele>810.0</ele><time>2026-04-25T13:38:19Z</time></trkpt><trkpt lat="40.56667489922888" lon="9.635219071043805"><ele>812.0</ele><time>2026-04-25T13:38:20Z</time></trkpt><trkpt lat="40.56658280060136" lon="9.635137952191563"><ele>806.6</ele><time>2026-04-25T13:38:21Z</time></trkpt><trkpt lat="40.56650183188998" lon="9.635051509233264"><ele>801.2</ele><time>2026-04-25T13:38:22Z</time></trkpt><trkpt lat="40.566437810078895" lon="9.634951155066199"><ele>795.8</ele><time>2026-04-25T13:38:23Z</time></trkpt><trkpt lat="40.56639508114191" lon="9.634839461219558"><ele>790.4</ele><time>2026-04-25T13:38:24Z</time></trkpt><trkpt lat="40.56636728999584" lon="9.634707889268718"><ele>785.0</ele><time>2026-04-25T13:38:25Z</time></trkpt><trkpt lat="40.56633298331332" lon="9.634587960458889"><ele>785.0</ele><time>2026-04-25T13:38:26Z</time></trkpt><trkpt lat="40.566267466144964" lon="9.634499312655835"><ele>785.0</ele><time>2026-04-25T13:38:27Z</time></trkpt><trkpt lat="40.56619533567163" lon="9.634441250240034"><ele>785.0</ele><time>2026-04-25T13:38:28Z</time></trkpt><trkpt lat="40.566104543838144" lon="9.634418207927535"><ele>785.0</ele><time>2026-04-25T13:38:29Z</time></trkpt><trkpt lat="40.56599512331387" lon="9.634414663592448"><ele>785.0</ele><time>2026-04-25T13:38:30Z</time></trkpt><trkpt lat="40.56588843999609" lon="9.634424267968836"><ele>782.75</ele><time>2026-04-25T13:38:31Z</time></trkpt><trkpt lat="40.565795118907594" lon="9.634463385001578"><ele>780.5</ele><time>2026-04-25T13:38:32Z</time></trkpt><trkpt lat="40.56570577599403" lon="9.634542905200805"><ele>778.25</ele><time>2026-04-25T13:38:33Z</time></trkpt><trkpt lat="40.565612981446044" lon="9.634662234741828"><ele>776.0</ele><time>2026-04-25T13:38:34Z</time></trkpt><trkpt lat="40.56550933497716" lon="9.634789834434132"><ele>778.25</ele><time>2026-04-25T13:38:34.999Z</time></trkpt><trkpt lat="40.56539377402822" lon="9.634864719312915"><ele>780.5</ele><time>2026-04-25T13:38:35.999Z</time></trkpt><trkpt lat="40.565265708794385" lon="9.634935004750016"><ele>782.75</ele><time>2026-04-25T13:38:36.999Z</time></trkpt><trkpt lat="40.56513367218164" lon="9.635003763507795"><ele>785.0</ele><time>2026-04-25T13:38:37.999Z</time></trkpt><trkpt lat="40.565004545864895" lon="9.635068672343685"><ele>785.0</ele><time>2026-04-25T13:38:38.999Z</time></trkpt><trkpt lat="40.56488575295673" lon="9.63511641696984"><ele>785.0</ele><time>2026-04-25T13:38:39.999Z</time></trkpt><trkpt lat="40.56477080289775" lon="9.635141093640685"><ele>785.0</ele><time>2026-04-25T13:38:40.999Z</time></trkpt><trkpt lat="40.564658140357025" lon="9.635113954139394"><ele>785.0</ele><time>2026-04-25T13:38:41.999Z</time></trkpt><trkpt lat="40.564517892698746" lon="9.635089169452915"><ele>785.0</ele><time>2026-04-25T13:38:42.999Z</time></trkpt><trkpt lat="40.56436421418486" lon="9.63505812026937"><ele>785.0</ele><time>2026-04-25T13:38:43.999Z</time></trkpt><trkpt lat="40.564226019968046" lon="9.635011782302605"><ele>785.0</ele><time>2026-04-25T13:38:44.999Z</time></trkpt><trkpt lat="40.5641062232433" lon="9.634948728770382"><ele>785.0</ele><time>2026-04-25T13:38:45.999Z</time></trkpt><trkpt lat="40.56399052697923" lon="9.634878244636681"><ele>785.0</ele><time>2026-04-25T13:38:46.999Z</time></trkpt><trkpt lat="40.56386513770356" lon="9.634792758098476"><ele>785.0</ele><time>2026-04-25T13:38:47.999Z</time></trkpt><trkpt lat="40.56372933269353" lon="9.634718546870417"><ele>785.0</ele><time>2026-04-25T13:38:48.999Z</time></trkpt><trkpt lat="40.563578117991035" lon="9.634636003291405"><ele>780.6666666666667</ele><time>2026-04-25T13:38:49.999Z</time></trkpt><trkpt lat="40.563427590764306" lon="9.634535503439086"><ele>776.3333333333333</ele><time>2026-04-25T13:38:50.999Z</time></trkpt><trkpt lat="40.563279702263586" lon="9.634437759380592"><ele>772.0</ele><time>2026-04-25T13:38:51.999Z</time></trkpt><trkpt lat="40.56314390530733" lon="9.634342166179987"><ele>772.0</ele><time>2026-04-25T13:38:52.999Z</time></trkpt><trkpt lat="40.56301663282809" lon="9.634256971250338"><ele>772.0</ele><time>2026-04-25T13:38:53.999Z</time></trkpt><trkpt lat="40.56291073674406" lon="9.634196161771879"><ele>772.0</ele><time>2026-04-25T13:38:54.999Z</time></trkpt><trkpt lat="40.56281721042991" lon="9.634160486398846"><ele>772.0</ele><time>2026-04-25T13:38:55.999Z</time></trkpt><trkpt lat="40.56272717358545" lon="9.634146363867085"><ele>772.0</ele><time>2026-04-25T13:38:56.999Z</time></trkpt><trkpt lat="40.56264097948482" lon="9.63415341435018"><ele>774.0</ele><time>2026-04-25T13:38:58Z</time></trkpt><trkpt lat="40.56254338500785" lon="9.634178104005569"><ele>776.0</ele><time>2026-04-25T13:38:59Z</time></trkpt><trkpt lat="40.562421938037964" lon="9.634211115664161"><ele>778.0</ele><time>2026-04-25T13:39:00Z</time></trkpt><trkpt lat="40.56227569920661" lon="9.634239597689744"><ele>780.0</ele><time>2026-04-25T13:39:01Z</time></trkpt><trkpt lat="40.56211563566205" lon="9.634266461381753"><ele>779.0</ele><time>2026-04-25T13:39:02Z</time></trkpt><trkpt lat="40.56197134211476" lon="9.634280804941975"><ele>778.0</ele><time>2026-04-25T13:39:03Z</time></trkpt><trkpt lat="40.56184138673942" lon="9.634308509865567"><ele>777.0</ele><time>2026-04-25T13:39:04Z</time></trkpt><trkpt lat="40.5617170958062" lon="9.634323872507581"><ele>776.0</ele><time>2026-04-25T13:39:05Z</time></trkpt><trkpt lat="40.56159796114785" lon="9.634333263298624"><ele>776.0</ele><time>2026-04-25T13:39:06Z</time></trkpt><trkpt lat="40.5614886137518" lon="9.634304269942744"><ele>776.0</ele><time>2026-04-25T13:39:07Z</time></trkpt><trkpt lat="40.56137968377898" lon="9.634278522070524"><ele>776.0</ele><time>2026-04-25T13:39:08Z</time></trkpt><trkpt lat="40.56127033301145" lon="9.63423965935609"><ele>776.0</ele><time>2026-04-25T13:39:09Z</time></trkpt><trkpt lat="40.5611597985077" lon="9.63421572354637"><ele>776.0</ele><time>2026-04-25T13:39:10Z</time></trkpt><trkpt lat="40.561074207792096" lon="9.634132337264274"><ele>777.8333333333334</ele><time>2026-04-25T13:39:11Z</time></trkpt><trkpt lat="40.560989701362026" lon="9.634069155501189"><ele>779.6666666666667</ele><time>2026-04-25T13:39:12Z</time></trkpt><trkpt lat="40.560900572819655" lon="9.63402486838126"><ele>781.5</ele><time>2026-04-25T13:39:13Z</time></trkpt><trkpt lat="40.56082619059653" lon="9.633957718602119"><ele>783.3333333333333</ele><time>2026-04-25T13:39:14Z</time></trkpt><trkpt lat="40.560756559826494" lon="9.633888675879994"><ele>785.1666666666666</ele><time>2026-04-25T13:39:15Z</time></trkpt><trkpt lat="40.560712045385166" lon="9.633804527983875"><ele>787.0</ele><time>2026-04-25T13:39:16Z</time></trkpt><trkpt lat="40.560646495553726" lon="9.633745917819684"><ele>786.9999999999999</ele><time>2026-04-25T13:39:17Z</time></trkpt><trkpt lat="40.56059996173637" lon="9.63367898071556"><ele>787.0</ele><time>2026-04-25T13:39:18Z</time></trkpt><trkpt lat="40.56055054635978" lon="9.633616698719075"><ele>787.0</ele><time>2026-04-25T13:39:19Z</time></trkpt><trkpt lat="40.560509936157345" lon="9.633546949996731"><ele>787.0</ele><time>2026-04-25T13:39:20Z</time></trkpt><trkpt lat="40.56043481363056" lon="9.633450888972988"><ele>786.9999999999999</ele><time>2026-04-25T13:39:22Z</time></trkpt><trkpt lat="40.56038264083958" lon="9.633378226569274"><ele>787.0</ele><time>2026-04-25T13:39:24Z</time></trkpt><trkpt lat="40.56032152818443" lon="9.633290116038316"><ele>784.4000000000001</ele><time>2026-04-25T13:39:26Z</time></trkpt><trkpt lat="40.560241293745094" lon="9.63320912330903"><ele>781.8000000000001</ele><time>2026-04-25T13:39:28Z</time></trkpt><trkpt lat="40.56015304056524" lon="9.633154490380935"><ele>779.2</ele><time>2026-04-25T13:39:30Z</time></trkpt><trkpt lat="40.56008195807139" lon="9.633131238943127"><ele>776.6</ele><time>2026-04-25T13:39:32Z</time></trkpt><trkpt lat="40.559999828695865" lon="9.63308548310966"><ele>774.0</ele><time>2026-04-25T13:39:34Z</time></trkpt><trkpt lat="40.55987367714011" lon="9.633049945087201"><ele>774.0</ele><time>2026-04-25T13:39:36Z</time></trkpt><trkpt lat="40.55981064849395" lon="9.633027522307604"><ele>774.0</ele><time>2026-04-25T13:39:37Z</time></trkpt><trkpt lat="40.55971032624789" lon="9.632973447614354"><ele>774.0</ele><time>2026-04-25T13:39:39Z</time></trkpt><trkpt lat="40.55965217868766" lon="9.632933530531878"><ele>774.0</ele><time>2026-04-25T13:39:40Z</time></trkpt><trkpt lat="40.55954517590063" lon="9.632849831787707"><ele>774.0</ele><time>2026-04-25T13:39:42Z</time></trkpt><trkpt lat="40.559444087319726" lon="9.63274980025923"><ele>774.5</ele><time>2026-04-25T13:39:44Z</time></trkpt><trkpt lat="40.55937046053316" lon="9.63266447720453"><ele>775.0</ele><time>2026-04-25T13:39:46Z</time></trkpt><trkpt lat="40.55933421601166" lon="9.632589180629168"><ele>775.5</ele><time>2026-04-25T13:39:51Z</time></trkpt><trkpt lat="40.55928399729302" lon="9.632527756689536"><ele>776.0</ele><time>2026-04-25T13:41:22Z</time></trkpt><trkpt lat="40.55921952368306" lon="9.63241694652797"><ele>776.5</ele><time>2026-04-25T13:41:24Z</time></trkpt><trkpt lat="40.559164813364575" lon="9.632298320429072"><ele>777.0</ele><time>2026-04-25T13:41:26Z</time></trkpt><trkpt lat="40.55913854335927" lon="9.63218944052334"><ele>777.0</ele><time>2026-04-25T13:41:28Z</time></trkpt><trkpt lat="40.55909961207766" lon="9.632101351647215"><ele>777.0</ele><time>2026-04-25T13:41:30Z</time></trkpt><trkpt lat="40.55904469887035" lon="9.6319967964123"><ele>777.0</ele><time>2026-04-25T13:41:32Z</time></trkpt><trkpt lat="40.55897501516135" lon="9.631875492955869"><ele>777.0</ele><time>2026-04-25T13:41:34Z</time></trkpt><trkpt lat="40.5589340562924" lon="9.631810219767509"><ele>777.0</ele><time>2026-04-25T13:41:35Z</time></trkpt><trkpt lat="40.558888095216645" lon="9.631736265602576"><ele>777.0</ele><time>2026-04-25T13:41:36Z</time></trkpt><trkpt lat="40.558835858273305" lon="9.63165525508738"><ele>776.2</ele><time>2026-04-25T13:41:37Z</time></trkpt><trkpt lat="40.558779961502324" lon="9.631571739084286"><ele>775.4000000000001</ele><time>2026-04-25T13:41:38Z</time></trkpt><trkpt lat="40.55871807209409" lon="9.631479269371741"><ele>774.5999999999999</ele><time>2026-04-25T13:41:39Z</time></trkpt><trkpt lat="40.55865379517903" lon="9.631382700442808"><ele>773.8</ele><time>2026-04-25T13:41:40Z</time></trkpt><trkpt lat="40.55857647532857" lon="9.631290651680374"><ele>773.0</ele><time>2026-04-25T13:41:41Z</time></trkpt><trkpt lat="40.55851158760108" lon="9.631181437131577"><ele>775.0</ele><time>2026-04-25T13:41:42Z</time></trkpt><trkpt lat="40.55847055277625" lon="9.631045686341134"><ele>777.0</ele><time>2026-04-25T13:41:43Z</time></trkpt><trkpt lat="40.55843462957525" lon="9.630885133040376"><ele>779.0</ele><time>2026-04-25T13:41:44Z</time></trkpt><trkpt lat="40.55839925196201" lon="9.6307032236847"><ele>781.0</ele><time>2026-04-25T13:41:45Z</time></trkpt><trkpt lat="40.55835705561299" lon="9.630568216347095"><ele>781.0</ele><time>2026-04-25T13:41:46Z</time></trkpt><trkpt lat="40.558332093609906" lon="9.63046674531391"><ele>781.0</ele><time>2026-04-25T13:41:47Z</time></trkpt><trkpt lat="40.55828403962155" lon="9.630374142747227"><ele>781.0</ele><time>2026-04-25T13:41:48Z</time></trkpt><trkpt lat="40.55819263078595" lon="9.630274304289586"><ele>781.0</ele><time>2026-04-25T13:41:49Z</time></trkpt><trkpt lat="40.558074922724806" lon="9.630167604955224"><ele>781.0</ele><time>2026-04-25T13:41:50Z</time></trkpt><trkpt lat="40.55797314050921" lon="9.630074823582085"><ele>781.8</ele><time>2026-04-25T13:41:51Z</time></trkpt><trkpt lat="40.557910709139875" lon="9.629963426750882"><ele>782.5999999999999</ele><time>2026-04-25T13:41:52Z</time></trkpt><trkpt lat="40.55786591656935" lon="9.629845598961806"><ele>783.4</ele><time>2026-04-25T13:41:53Z</time></trkpt><trkpt lat="40.55783216478972" lon="9.629707714670083"><ele>784.2</ele><time>2026-04-25T13:41:54Z</time></trkpt><trkpt lat="40.557803609114764" lon="9.62954473310375"><ele>785.0</ele><time>2026-04-25T13:41:55Z</time></trkpt><trkpt lat="40.55776073180341" lon="9.62940332456349"><ele>785.75</ele><time>2026-04-25T13:41:56Z</time></trkpt><trkpt lat="40.5577213625874" lon="9.629270783216352"><ele>786.5</ele><time>2026-04-25T13:41:57Z</time></trkpt><trkpt lat="40.55764929346472" lon="9.629137395988208"><ele>787.25</ele><time>2026-04-25T13:41:58Z</time></trkpt><trkpt lat="40.55754459101667" lon="9.629001238311242"><ele>788.0</ele><time>2026-04-25T13:41:59Z</time></trkpt><trkpt lat="40.557431788712535" lon="9.628864748565194"><ele>788.0</ele><time>2026-04-25T13:42:00Z</time></trkpt><trkpt lat="40.55736073109934" lon="9.628726855956284"><ele>788.0</ele><time>2026-04-25T13:42:01Z</time></trkpt><trkpt lat="40.55728924403716" lon="9.628597296350673"><ele>788.0</ele><time>2026-04-25T13:42:02Z</time></trkpt><trkpt lat="40.557229401769824" lon="9.628454061461275"><ele>788.0</ele><time>2026-04-25T13:42:03Z</time></trkpt><trkpt lat="40.55717941268937" lon="9.628302267693453"><ele>785.4</ele><time>2026-04-25T13:42:04Z</time></trkpt><trkpt lat="40.55712941546585" lon="9.62815727708024"><ele>782.8</ele><time>2026-04-25T13:42:05Z</time></trkpt><trkpt lat="40.55708116433591" lon="9.62801655792407"><ele>780.2</ele><time>2026-04-25T13:42:06Z</time></trkpt><trkpt lat="40.55703683039248" lon="9.627887714052981"><ele>777.6</ele><time>2026-04-25T13:42:07Z</time></trkpt><trkpt lat="40.55699499733672" lon="9.627769627361381"><ele>775.0</ele><time>2026-04-25T13:42:08Z</time></trkpt><trkpt lat="40.55695778031329" lon="9.627659813130881"><ele>773.8571428571428</ele><time>2026-04-25T13:42:09Z</time></trkpt><trkpt lat="40.55693137092186" lon="9.627562791077393"><ele>772.7142857142857</ele><time>2026-04-25T13:42:10Z</time></trkpt><trkpt lat="40.556922431954575" lon="9.627468465827397"><ele>771.5714285714286</ele><time>2026-04-25T13:42:11Z</time></trkpt><trkpt lat="40.55693927943778" lon="9.627378386269694"><ele>770.4285714285713</ele><time>2026-04-25T13:42:12Z</time></trkpt><trkpt lat="40.556969397435196" lon="9.627295201958992"><ele>769.2857142857143</ele><time>2026-04-25T13:42:13Z</time></trkpt><trkpt lat="40.55701590694366" lon="9.627217780388214"><ele>768.1428571428571</ele><time>2026-04-25T13:42:14Z</time></trkpt><trkpt lat="40.557041338645774" lon="9.627114236335855"><ele>767.0</ele><time>2026-04-25T13:42:15Z</time></trkpt><trkpt lat="40.55707070178731" lon="9.627011226791797"><ele>768.0</ele><time>2026-04-25T13:42:16Z</time></trkpt><trkpt lat="40.55708885654639" lon="9.626885660451116"><ele>769.0</ele><time>2026-04-25T13:42:17Z</time></trkpt><trkpt lat="40.557100988091634" lon="9.626759861499508"><ele>770.0</ele><time>2026-04-25T13:42:18Z</time></trkpt><trkpt lat="40.55709672604484" lon="9.626651274312488"><ele>771.0</ele><time>2026-04-25T13:42:19Z</time></trkpt><trkpt lat="40.55708355860318" lon="9.626547861976269"><ele>772.0</ele><time>2026-04-25T13:42:20Z</time></trkpt><trkpt lat="40.557011601550094" lon="9.62645435446602"><ele>778.0</ele><time>2026-04-25T13:42:21Z</time></trkpt><trkpt lat="40.55691952005546" lon="9.626362241037505"><ele>784.0</ele><time>2026-04-25T13:42:22Z</time></trkpt><trkpt lat="40.55684709174305" lon="9.626250197664913"><ele>790.0</ele><time>2026-04-25T13:42:23Z</time></trkpt><trkpt lat="40.55679393437509" lon="9.62612704012439"><ele>796.0</ele><time>2026-04-25T13:42:24Z</time></trkpt><trkpt lat="40.5567538401767" lon="9.625995657448081"><ele>802.0</ele><time>2026-04-25T13:42:25Z</time></trkpt><trkpt lat="40.55673338147827" lon="9.625855402440125"><ele>802.0</ele><time>2026-04-25T13:42:26Z</time></trkpt><trkpt lat="40.556735457747706" lon="9.625708918159372"><ele>802.0</ele><time>2026-04-25T13:42:27Z</time></trkpt><trkpt lat="40.55673545774649" lon="9.625553583024354"><ele>802.0</ele><time>2026-04-25T13:42:28Z</time></trkpt><trkpt lat="40.55671932097785" lon="9.625395064984756"><ele>802.0</ele><time>2026-04-25T13:42:29Z</time></trkpt><trkpt lat="40.556720690755974" lon="9.625240024333353"><ele>800.9999999999999</ele><time>2026-04-25T13:42:30Z</time></trkpt><trkpt lat="40.55671611779013" lon="9.625101351174651"><ele>800.0</ele><time>2026-04-25T13:42:31Z</time></trkpt><trkpt lat="40.556699025538784" lon="9.62498051131772"><ele>799.0</ele><time>2026-04-25T13:42:32Z</time></trkpt><trkpt lat="40.55666546645216" lon="9.624870865353117"><ele>798.0</ele><time>2026-04-25T13:42:33Z</time></trkpt><trkpt lat="40.55663542638535" lon="9.624771889465903"><ele>796.9999999999999</ele><time>2026-04-25T13:42:34Z</time></trkpt><trkpt lat="40.556570985511335" lon="9.624712781613303"><ele>796.0</ele><time>2026-04-25T13:42:35Z</time></trkpt><trkpt lat="40.55648636152911" lon="9.624717539812966"><ele>795.9999999999999</ele><time>2026-04-25T13:42:36Z</time></trkpt><trkpt lat="40.556408763095455" lon="9.62474474966619"><ele>796.0</ele><time>2026-04-25T13:42:37Z</time></trkpt><trkpt lat="40.556325879248824" lon="9.624793344101887"><ele>796.0</ele><time>2026-04-25T13:42:38Z</time></trkpt><trkpt lat="40.55624321241391" lon="9.624828064898942"><ele>796.0</ele><time>2026-04-25T13:42:39Z</time></trkpt><trkpt lat="40.5561537312928" lon="9.624809058776028"><ele>795.9999999999999</ele><time>2026-04-25T13:42:40Z</time></trkpt><trkpt lat="40.55606742394409" lon="9.624776580363767"><ele>796.0</ele><time>2026-04-25T13:42:41Z</time></trkpt><trkpt lat="40.555986893395506" lon="9.624714023426561"><ele>797.5</ele><time>2026-04-25T13:42:42Z</time></trkpt><trkpt lat="40.55591280995892" lon="9.624618398654128"><ele>799.0</ele><time>2026-04-25T13:42:43Z</time></trkpt><trkpt lat="40.555834343648065" lon="9.624488366878209"><ele>800.5</ele><time>2026-04-25T13:42:44Z</time></trkpt><trkpt lat="40.5557489956493" lon="9.624345546072997"><ele>802.0</ele><time>2026-04-25T13:42:45Z</time></trkpt><trkpt lat="40.55567636838475" lon="9.624226126727233"><ele>801.9999999999999</ele><time>2026-04-25T13:42:46Z</time></trkpt><trkpt lat="40.55561682988641" lon="9.624120320539353"><ele>802.0</ele><time>2026-04-25T13:42:47Z</time></trkpt><trkpt lat="40.55558626820305" lon="9.624024667304315"><ele>802.0</ele><time>2026-04-25T13:42:48Z</time></trkpt><trkpt lat="40.555567433207685" lon="9.62394083788361"><ele>802.0</ele><time>2026-04-25T13:42:49Z</time></trkpt><trkpt lat="40.55558925249555" lon="9.623800856620866"><ele>801.9999999999999</ele><time>2026-04-25T13:42:51Z</time></trkpt><trkpt lat="40.55562201190247" lon="9.623712125095516"><ele>802.0</ele><time>2026-04-25T13:42:52Z</time></trkpt><trkpt lat="40.55567489163455" lon="9.623574187202744"><ele>802.75</ele><time>2026-04-25T13:42:53Z</time></trkpt><trkpt lat="40.555737751110286" lon="9.623405253876859"><ele>803.5</ele><time>2026-04-25T13:42:54Z</time></trkpt><trkpt lat="40.555804804579275" lon="9.623225094220723"><ele>804.25</ele><time>2026-04-25T13:42:55Z</time></trkpt><trkpt lat="40.555868827266444" lon="9.623063192991479"><ele>805.0</ele><time>2026-04-25T13:42:56Z</time></trkpt><trkpt lat="40.5559236463948" lon="9.622920776002752"><ele>807.3333333333333</ele><time>2026-04-25T13:42:57Z</time></trkpt><trkpt lat="40.555975532793376" lon="9.622793623497525"><ele>809.6666666666666</ele><time>2026-04-25T13:42:58Z</time></trkpt><trkpt lat="40.5560222056416" lon="9.622675437695504"><ele>812.0</ele><time>2026-04-25T13:42:59Z</time></trkpt><trkpt lat="40.55605547765018" lon="9.622578055696415"><ele>814.3333333333333</ele><time>2026-04-25T13:43:00Z</time></trkpt><trkpt lat="40.55607810473656" lon="9.622493891072349"><ele>816.6666666666666</ele><time>2026-04-25T13:43:01Z</time></trkpt><trkpt lat="40.556091347017784" lon="9.622403514213726"><ele>819.0</ele><time>2026-04-25T13:43:02Z</time></trkpt><trkpt lat="40.5560966627418" lon="9.622298588746983"><ele>819.0</ele><time>2026-04-25T13:43:03Z</time></trkpt><trkpt lat="40.5560960188222" lon="9.622175474229946"><ele>819.0</ele><time>2026-04-25T13:43:04Z</time></trkpt><trkpt lat="40.556088343127335" lon="9.622032561779456"><ele>819.0</ele><time>2026-04-25T13:43:05Z</time></trkpt><trkpt lat="40.55606674546489" lon="9.621911008472434"><ele>819.0</ele><time>2026-04-25T13:43:06Z</time></trkpt><trkpt lat="40.55602141819914" lon="9.621817308125372"><ele>819.0</ele><time>2026-04-25T13:43:07Z</time></trkpt><trkpt lat="40.55595039375642" lon="9.621731169247566"><ele>817.4000000000001</ele><time>2026-04-25T13:43:08Z</time></trkpt><trkpt lat="40.55586371234475" lon="9.621654244329966"><ele>815.8</ele><time>2026-04-25T13:43:09Z</time></trkpt><trkpt lat="40.555765552938915" lon="9.62159982717286"><ele>814.2</ele><time>2026-04-25T13:43:10Z</time></trkpt><trkpt lat="40.55565697147279" lon="9.62156887227328"><ele>812.5999999999999</ele><time>2026-04-25T13:43:11Z</time></trkpt><trkpt lat="40.55553330034537" lon="9.621563655145035"><ele>811.0</ele><time>2026-04-25T13:43:12Z</time></trkpt><trkpt lat="40.55539838144307" lon="9.621570482609192"><ele>814.1999999999999</ele><time>2026-04-25T13:43:13Z</time></trkpt><trkpt lat="40.55528225348741" lon="9.621551330167044"><ele>817.4</ele><time>2026-04-25T13:43:14Z</time></trkpt><trkpt lat="40.555183389005684" lon="9.621540205399842"><ele>820.6</ele><time>2026-04-25T13:43:15Z</time></trkpt><trkpt lat="40.55509389565887" lon="9.62151604926851"><ele>823.8</ele><time>2026-04-25T13:43:16Z</time></trkpt><trkpt lat="40.55501147608507" lon="9.6214727487673"><ele>827.0</ele><time>2026-04-25T13:43:17Z</time></trkpt><trkpt lat="40.55494789760215" lon="9.621380755861889"><ele>827.0</ele><time>2026-04-25T13:43:18Z</time></trkpt><trkpt lat="40.55487375281631" lon="9.621258432517964"><ele>827.0</ele><time>2026-04-25T13:43:19Z</time></trkpt><trkpt lat="40.55476531627046" lon="9.621150641623817"><ele>827.0</ele><time>2026-04-25T13:43:20Z</time></trkpt><trkpt lat="40.55465575026883" lon="9.62105034685764"><ele>827.0</ele><time>2026-04-25T13:43:21Z</time></trkpt><trkpt lat="40.55456279570307" lon="9.620965739526367"><ele>828.8</ele><time>2026-04-25T13:43:22Z</time></trkpt><trkpt lat="40.55449295848445" lon="9.620882937837797"><ele>830.6</ele><time>2026-04-25T13:43:23Z</time></trkpt><trkpt lat="40.55445312444344" lon="9.620785065616438"><ele>832.4</ele><time>2026-04-25T13:43:24Z</time></trkpt><trkpt lat="40.55444560959188" lon="9.620678374524738"><ele>834.1999999999999</ele><time>2026-04-25T13:43:25Z</time></trkpt><trkpt lat="40.554461575951855" lon="9.620554816363311"><ele>836.0</ele><time>2026-04-25T13:43:26Z</time></trkpt><trkpt lat="40.55450428440308" lon="9.620400185381946"><ele>837.6666666666667</ele><time>2026-04-25T13:43:27Z</time></trkpt><trkpt lat="40.554536432363385" lon="9.620197740431324"><ele>839.3333333333333</ele><time>2026-04-25T13:43:28Z</time></trkpt><trkpt lat="40.55458751318195" lon="9.61999171022038"><ele>841.0</ele><time>2026-04-25T13:43:29Z</time></trkpt><trkpt lat="40.55462304774565" lon="9.61981098338693"><ele>832.8</ele><time>2026-04-25T13:43:30Z</time></trkpt><trkpt lat="40.55464113258815" lon="9.619651009255113"><ele>824.5999999999999</ele><time>2026-04-25T13:43:31Z</time></trkpt><trkpt lat="40.5546438776019" lon="9.619502298942963"><ele>816.4</ele><time>2026-04-25T13:43:32Z</time></trkpt><trkpt lat="40.55463154893425" lon="9.619373266195574"><ele>808.2</ele><time>2026-04-25T13:43:33Z</time></trkpt><trkpt lat="40.55460671050081" lon="9.619272522391693"><ele>800.0</ele><time>2026-04-25T13:43:34Z</time></trkpt><trkpt lat="40.554561397499775" lon="9.619192877615806"><ele>805.2</ele><time>2026-04-25T13:43:35Z</time></trkpt><trkpt lat="40.55449607004477" lon="9.619127743604261"><ele>810.4</ele><time>2026-04-25T13:43:36Z</time></trkpt><trkpt lat="40.55441137512505" lon="9.61908489249796"><ele>815.5999999999999</ele><time>2026-04-25T13:43:37Z</time></trkpt><trkpt lat="40.55430510522271" lon="9.619063755759452"><ele>820.8</ele><time>2026-04-25T13:43:38Z</time></trkpt><trkpt lat="40.55419197082848" lon="9.61900930075124"><ele>826.0</ele><time>2026-04-25T13:43:39Z</time></trkpt><trkpt lat="40.55405834966887" lon="9.618990090056137"><ele>826.0</ele><time>2026-04-25T13:43:40Z</time></trkpt><trkpt lat="40.553917423962424" lon="9.618931273895296"><ele>826.0</ele><time>2026-04-25T13:43:41Z</time></trkpt><trkpt lat="40.55377470021056" lon="9.618909450001292"><ele>826.0</ele><time>2026-04-25T13:43:42Z</time></trkpt><trkpt lat="40.55364021745086" lon="9.618897777971455"><ele>826.0</ele><time>2026-04-25T13:43:43Z</time></trkpt><trkpt lat="40.5535105832098" lon="9.618899737762765"><ele>827.4</ele><time>2026-04-25T13:43:44Z</time></trkpt><trkpt lat="40.55338856958154" lon="9.618905115404718"><ele>828.8</ele><time>2026-04-25T13:43:45Z</time></trkpt><trkpt lat="40.553274140152205" lon="9.618913084785639"><ele>830.1999999999999</ele><time>2026-04-25T13:43:46Z</time></trkpt><trkpt lat="40.553171675720286" lon="9.618943610667362"><ele>831.5999999999999</ele><time>2026-04-25T13:43:47Z</time></trkpt><trkpt lat="40.55307901310184" lon="9.618947065886518"><ele>833.0</ele><time>2026-04-25T13:43:48Z</time></trkpt><trkpt lat="40.55301146544883" lon="9.618940894459447"><ele>833.0</ele><time>2026-04-25T13:43:49Z</time></trkpt><trkpt lat="40.55293072716674" lon="9.618842271509294"><ele>833.0</ele><time>2026-04-25T13:43:51Z</time></trkpt><trkpt lat="40.552955067092384" lon="9.618740069332683"><ele>833.0</ele><time>2026-04-25T13:43:52Z</time></trkpt><trkpt lat="40.55296135340118" lon="9.61862123621218"><ele>833.0</ele><time>2026-04-25T13:43:53Z</time></trkpt><trkpt lat="40.55296611213919" lon="9.618459400380416"><ele>833.0</ele><time>2026-04-25T13:43:54Z</time></trkpt><trkpt lat="40.55295747080464" lon="9.618322641676714"><ele>830.2</ele><time>2026-04-25T13:43:55Z</time></trkpt><trkpt lat="40.55294725369413" lon="9.61821024400202"><ele>827.4</ele><time>2026-04-25T13:43:56Z</time></trkpt><trkpt lat="40.55292521120334" lon="9.618110087009851"><ele>824.6</ele><time>2026-04-25T13:43:57Z</time></trkpt><trkpt lat="40.55286005246199" lon="9.618028460807265"><ele>821.8000000000001</ele><time>2026-04-25T13:43:58Z</time></trkpt><trkpt lat="40.55275789341677" lon="9.618002235797425"><ele>819.0</ele><time>2026-04-25T13:43:59Z</time></trkpt><trkpt lat="40.552665093347365" lon="9.617998035094566"><ele>819.0</ele><time>2026-04-25T13:44:00Z</time></trkpt><trkpt lat="40.552571556856" lon="9.618038516284432"><ele>819.0</ele><time>2026-04-25T13:44:01Z</time></trkpt><trkpt lat="40.55247141039582" lon="9.618115179100318"><ele>819.0</ele><time>2026-04-25T13:44:02Z</time></trkpt><trkpt lat="40.55237471344192" lon="9.618195108504437"><ele>819.0</ele><time>2026-04-25T13:44:03Z</time></trkpt><trkpt lat="40.55227375715209" lon="9.618209286862758"><ele>819.0</ele><time>2026-04-25T13:44:04Z</time></trkpt><trkpt lat="40.55216794625798" lon="9.618209960460801"><ele>819.0</ele><time>2026-04-25T13:44:05Z</time></trkpt><trkpt lat="40.55205513016643" lon="9.618171690230247"><ele>819.0</ele><time>2026-04-25T13:44:06Z</time></trkpt><trkpt lat="40.551927867800266" lon="9.618140093231892"><ele>819.0</ele><time>2026-04-25T13:44:07Z</time></trkpt><trkpt lat="40.551805343077135" lon="9.618139640329582"><ele>819.0</ele><time>2026-04-25T13:44:08Z</time></trkpt><trkpt lat="40.55167926037613" lon="9.618156669636765"><ele>820.25</ele><time>2026-04-25T13:44:09Z</time></trkpt><trkpt lat="40.551541850250125" lon="9.61819069934457"><ele>821.5</ele><time>2026-04-25T13:44:10Z</time></trkpt><trkpt lat="40.55141547355829" lon="9.618217618141118"><ele>822.75</ele><time>2026-04-25T13:44:11Z</time></trkpt><trkpt lat="40.55130068460633" lon="9.618238457094412"><ele>824.0</ele><time>2026-04-25T13:44:12Z</time></trkpt><trkpt lat="40.55120147182406" lon="9.618253500502883"><ele>823.0000000000001</ele><time>2026-04-25T13:44:13Z</time></trkpt><trkpt lat="40.55112320996484" lon="9.618221129132456"><ele>822.0</ele><time>2026-04-25T13:44:14Z</time></trkpt><trkpt lat="40.55105127129221" lon="9.618218648093462"><ele>821.0</ele><time>2026-04-25T13:44:15Z</time></trkpt><trkpt lat="40.55099460901912" lon="9.618147394427803"><ele>820.0</ele><time>2026-04-25T13:44:16Z</time></trkpt><trkpt lat="40.550969624896915" lon="9.61802170556234"><ele>819.0000000000001</ele><time>2026-04-25T13:44:17Z</time></trkpt><trkpt lat="40.55095225989442" lon="9.61789172999116"><ele>818.0</ele><time>2026-04-25T13:44:18Z</time></trkpt><trkpt lat="40.55093094067102" lon="9.617739133422367"><ele>818.0</ele><time>2026-04-25T13:44:19Z</time></trkpt><trkpt lat="40.550892379216194" lon="9.61758594298381"><ele>818.0</ele><time>2026-04-25T13:44:20Z</time></trkpt><trkpt lat="40.55087259828368" lon="9.617463033252566"><ele>818.0</ele><time>2026-04-25T13:44:21Z</time></trkpt><trkpt lat="40.55083861849356" lon="9.617371328199258"><ele>818.0</ele><time>2026-04-25T13:44:22Z</time></trkpt><trkpt lat="40.55078280355012" lon="9.617308572100175"><ele>818.0</ele><time>2026-04-25T13:44:23Z</time></trkpt><trkpt lat="40.55070108333287" lon="9.617278257099088"><ele>818.0</ele><time>2026-04-25T13:44:24Z</time></trkpt><trkpt lat="40.550599657942435" lon="9.61728617429312"><ele>818.0</ele><time>2026-04-25T13:44:25Z</time></trkpt><trkpt lat="40.550482509863826" lon="9.617309406082965"><ele>818.0</ele><time>2026-04-25T13:44:26Z</time></trkpt><trkpt lat="40.5503821087418" lon="9.617308015246069"><ele>818.0</ele><time>2026-04-25T13:44:27Z</time></trkpt><trkpt lat="40.55031492579105" lon="9.617229973741019"><ele>818.0</ele><time>2026-04-25T13:44:28Z</time></trkpt><trkpt lat="40.55025492095558" lon="9.617150024143575"><ele>818.8</ele><time>2026-04-25T13:44:29Z</time></trkpt><trkpt lat="40.550176319697776" lon="9.617064140162606"><ele>819.5999999999999</ele><time>2026-04-25T13:44:30Z</time></trkpt><trkpt lat="40.550096900973834" lon="9.616965914213619"><ele>820.4000000000001</ele><time>2026-04-25T13:44:31Z</time></trkpt><trkpt lat="40.550033143198775" lon="9.616852013765403"><ele>821.2</ele><time>2026-04-25T13:44:32Z</time></trkpt><trkpt lat="40.549986572596026" lon="9.616727508889204"><ele>822.0</ele><time>2026-04-25T13:44:33Z</time></trkpt><trkpt lat="40.54996731244473" lon="9.61659857033993"><ele>822.0</ele><time>2026-04-25T13:44:34Z</time></trkpt><trkpt lat="40.54997914854273" lon="9.616477472671892"><ele>822.0</ele><time>2026-04-25T13:44:35Z</time></trkpt><trkpt lat="40.54999181899601" lon="9.616343219983882"><ele>822.0</ele><time>2026-04-25T13:44:36Z</time></trkpt><trkpt lat="40.55000440096166" lon="9.61621708902213"><ele>822.0</ele><time>2026-04-25T13:44:37Z</time></trkpt><trkpt lat="40.55000154666029" lon="9.616101574161908"><ele>822.0</ele><time>2026-04-25T13:44:38Z</time></trkpt><trkpt lat="40.55001194874953" lon="9.615994935399176"><ele>821.0</ele><time>2026-04-25T13:44:39Z</time></trkpt><trkpt lat="40.55001570344601" lon="9.615898171882218"><ele>820.0</ele><time>2026-04-25T13:44:40Z</time></trkpt><trkpt lat="40.55000274603264" lon="9.615812976772105"><ele>819.0</ele><time>2026-04-25T13:44:41Z</time></trkpt><trkpt lat="40.54996632984745" lon="9.615730193863117"><ele>818.0</ele><time>2026-04-25T13:44:42Z</time></trkpt><trkpt lat="40.549894368970484" lon="9.615670380048329"><ele>817.0</ele><time>2026-04-25T13:44:43Z</time></trkpt><trkpt lat="40.54979691863004" lon="9.615624632415464"><ele>816.0</ele><time>2026-04-25T13:44:44Z</time></trkpt><trkpt lat="40.54966874437829" lon="9.615595546441707"><ele>816.0</ele><time>2026-04-25T13:44:45Z</time></trkpt><trkpt lat="40.5495505618435" lon="9.615568166623406"><ele>816.0</ele><time>2026-04-25T13:44:46Z</time></trkpt><trkpt lat="40.549455383131615" lon="9.615517396895072"><ele>816.0</ele><time>2026-04-25T13:44:47Z</time></trkpt><trkpt lat="40.54937528391305" lon="9.615478683022653"><ele>816.0</ele><time>2026-04-25T13:44:48Z</time></trkpt><trkpt lat="40.549314858094" lon="9.615437683910777"><ele>816.0</ele><time>2026-04-25T13:44:49Z</time></trkpt><trkpt lat="40.54923760369459" lon="9.615312997339652"><ele>818.1999999999999</ele><time>2026-04-25T13:44:51Z</time></trkpt><trkpt lat="40.54921384691495" lon="9.615213648921259"><ele>820.4</ele><time>2026-04-25T13:44:52Z</time></trkpt><trkpt lat="40.549206841828415" lon="9.61509807999121"><ele>822.6</ele><time>2026-04-25T13:44:53Z</time></trkpt><trkpt lat="40.54922066527802" lon="9.614966003363316"><ele>824.8</ele><time>2026-04-25T13:44:54Z</time></trkpt><trkpt lat="40.54924667579924" lon="9.614815575339417"><ele>827.0</ele><time>2026-04-25T13:44:55Z</time></trkpt><trkpt lat="40.549290898274705" lon="9.614681150769337"><ele>827.0</ele><time>2026-04-25T13:44:56Z</time></trkpt><trkpt lat="40.54931903403048" lon="9.61455593709276"><ele>827.0</ele><time>2026-04-25T13:44:57Z</time></trkpt><trkpt lat="40.54935179552124" lon="9.614444381771147"><ele>827.0</ele><time>2026-04-25T13:44:58Z</time></trkpt><trkpt lat="40.549354908006215" lon="9.614321268053388"><ele>827.0</ele><time>2026-04-25T13:44:59Z</time></trkpt><trkpt lat="40.549323038140244" lon="9.614185987371348"><ele>827.0</ele><time>2026-04-25T13:45:00Z</time></trkpt><trkpt lat="40.549271020779116" lon="9.614036970471993"><ele>826.0</ele><time>2026-04-25T13:45:01Z</time></trkpt><trkpt lat="40.54922638550361" lon="9.61388101967088"><ele>825.0</ele><time>2026-04-25T13:45:02Z</time></trkpt><trkpt lat="40.549177199939095" lon="9.613735507409544"><ele>824.0</ele><time>2026-04-25T13:45:03Z</time></trkpt><trkpt lat="40.5491395084703" lon="9.61360899005049"><ele>823.0</ele><time>2026-04-25T13:45:04Z</time></trkpt><trkpt lat="40.549100693423505" lon="9.613505647480771"><ele>822.0</ele><time>2026-04-25T13:45:05Z</time></trkpt><trkpt lat="40.549045174556916" lon="9.6134418404621"><ele>820.0</ele><time>2026-04-25T13:45:06Z</time></trkpt><trkpt lat="40.54897563687745" lon="9.613412218219757"><ele>818.0</ele><time>2026-04-25T13:45:07Z</time></trkpt><trkpt lat="40.548895433760904" lon="9.613408503184145"><ele>816.0</ele><time>2026-04-25T13:45:08Z</time></trkpt><trkpt lat="40.54880069296413" lon="9.613428956434708"><ele>814.0</ele><time>2026-04-25T13:45:09Z</time></trkpt><trkpt lat="40.54869592255161" lon="9.61347672289664"><ele>812.0</ele><time>2026-04-25T13:45:10Z</time></trkpt><trkpt lat="40.548580823681625" lon="9.613532391368603"><ele>812.0</ele><time>2026-04-25T13:45:11Z</time></trkpt><trkpt lat="40.548476212095714" lon="9.613576221504347"><ele>812.0</ele><time>2026-04-25T13:45:12Z</time></trkpt><trkpt lat="40.54837604902336" lon="9.613577979806317"><ele>812.0</ele><time>2026-04-25T13:45:13Z</time></trkpt><trkpt lat="40.54828710071649" lon="9.61357996205412"><ele>812.0</ele><time>2026-04-25T13:45:14Z</time></trkpt><trkpt lat="40.54820406576506" lon="9.613554436883911"><ele>812.0</ele><time>2026-04-25T13:45:15Z</time></trkpt><trkpt lat="40.54812760422993" lon="9.61349526598775"><ele>812.0</ele><time>2026-04-25T13:45:16Z</time></trkpt><trkpt lat="40.548058670803805" lon="9.613401304772731"><ele>812.0</ele><time>2026-04-25T13:45:17.001Z</time></trkpt><trkpt lat="40.54800590240526" lon="9.613282539706722"><ele>812.0</ele><time>2026-04-25T13:45:18Z</time></trkpt><trkpt lat="40.54794811707459" lon="9.613159473899305"><ele>812.0</ele><time>2026-04-25T13:45:19Z</time></trkpt><trkpt lat="40.54788469300399" lon="9.613063993513029"><ele>812.0</ele><time>2026-04-25T13:45:20Z</time></trkpt><trkpt lat="40.5478267810419" lon="9.612992638641051"><ele>809.4000000000001</ele><time>2026-04-25T13:45:21Z</time></trkpt><trkpt lat="40.547738776213485" lon="9.6129500034135"><ele>806.8000000000001</ele><time>2026-04-25T13:45:22Z</time></trkpt><trkpt lat="40.54763525499449" lon="9.612924552021466"><ele>804.2</ele><time>2026-04-25T13:45:23Z</time></trkpt><trkpt lat="40.54753324874651" lon="9.612867840686082"><ele>801.6</ele><time>2026-04-25T13:45:24Z</time></trkpt><trkpt lat="40.5474359118169" lon="9.612809721449377"><ele>799.0</ele><time>2026-04-25T13:45:25Z</time></trkpt><trkpt lat="40.54735497886073" lon="9.612709221262813"><ele>799.0</ele><time>2026-04-25T13:45:26Z</time></trkpt><trkpt lat="40.54728302192483" lon="9.612587669768834"><ele>799.0</ele><time>2026-04-25T13:45:27Z</time></trkpt><trkpt lat="40.54720965984506" lon="9.612456794521073"><ele>799.0</ele><time>2026-04-25T13:45:28Z</time></trkpt><trkpt lat="40.54713087900624" lon="9.612350482988703"><ele>799.0</ele><time>2026-04-25T13:45:29Z</time></trkpt><trkpt lat="40.54704771466169" lon="9.6122494844941"><ele>800.25</ele><time>2026-04-25T13:45:30Z</time></trkpt><trkpt lat="40.5469512986242" lon="9.612150299110835"><ele>801.5</ele><time>2026-04-25T13:45:31Z</time></trkpt><trkpt lat="40.546838610539105" lon="9.612057621025933"><ele>802.75</ele><time>2026-04-25T13:45:32Z</time></trkpt><trkpt lat="40.546742985091306" lon="9.611954906525325"><ele>804.0</ele><time>2026-04-25T13:45:33Z</time></trkpt><trkpt lat="40.5466499011902" lon="9.611874261346145"><ele>804.0</ele><time>2026-04-25T13:45:34Z</time></trkpt><trkpt lat="40.54655607812866" lon="9.611811583729176"><ele>804.0</ele><time>2026-04-25T13:45:35Z</time></trkpt><trkpt lat="40.54650505934215" lon="9.61171720708596"><ele>804.0</ele><time>2026-04-25T13:45:36Z</time></trkpt><trkpt lat="40.54646864672133" lon="9.6115553736351"><ele>804.0</ele><time>2026-04-25T13:45:38Z</time></trkpt><trkpt lat="40.546477594525435" lon="9.611464928596185"><ele>804.0</ele><time>2026-04-25T13:45:39Z</time></trkpt><trkpt lat="40.54647402870416" lon="9.611342030637381"><ele>804.0</ele><time>2026-04-25T13:45:40Z</time></trkpt><trkpt lat="40.54648165322928" lon="9.611232529230604"><ele>804.0</ele><time>2026-04-25T13:45:41Z</time></trkpt><trkpt lat="40.5464665507715" lon="9.611144348813362"><ele>804.0</ele><time>2026-04-25T13:45:42Z</time></trkpt><trkpt lat="40.546423343470295" lon="9.611062595541796"><ele>804.0</ele><time>2026-04-25T13:45:43Z</time></trkpt><trkpt lat="40.54636388711366" lon="9.610988687605706"><ele>804.0</ele><time>2026-04-25T13:45:44Z</time></trkpt><trkpt lat="40.54625327167964" lon="9.610972849265359"><ele>804.0</ele><time>2026-04-25T13:45:45Z</time></trkpt><trkpt lat="40.54611949555909" lon="9.610951423585316"><ele>805.75</ele><time>2026-04-25T13:45:46Z</time></trkpt><trkpt lat="40.54599674316796" lon="9.61089045025393"><ele>807.5</ele><time>2026-04-25T13:45:47Z</time></trkpt><trkpt lat="40.54588329404909" lon="9.61081603817592"><ele>809.25</ele><time>2026-04-25T13:45:48Z</time></trkpt><trkpt lat="40.545752879984526" lon="9.610718695071386"><ele>811.0</ele><time>2026-04-25T13:45:49Z</time></trkpt><trkpt lat="40.54564119091343" lon="9.610620500613384"><ele>811.0</ele><time>2026-04-25T13:45:50Z</time></trkpt><trkpt lat="40.54555182513513" lon="9.610506473903069"><ele>811.0</ele><time>2026-04-25T13:45:51Z</time></trkpt><trkpt lat="40.54546865946808" lon="9.610376674748597"><ele>811.0</ele><time>2026-04-25T13:45:52Z</time></trkpt><trkpt lat="40.5453607028408" lon="9.610266785680514"><ele>811.0</ele><time>2026-04-25T13:45:53Z</time></trkpt><trkpt lat="40.545257993427384" lon="9.610164586482014"><ele>813.1999999999999</ele><time>2026-04-25T13:45:54Z</time></trkpt><trkpt lat="40.54515991736296" lon="9.610086524121716"><ele>815.4</ele><time>2026-04-25T13:45:55Z</time></trkpt><trkpt lat="40.54510138744738" lon="9.609986374235332"><ele>817.6</ele><time>2026-04-25T13:45:56Z</time></trkpt><trkpt lat="40.54506647482963" lon="9.609888310649485"><ele>819.8</ele><time>2026-04-25T13:45:57Z</time></trkpt><trkpt lat="40.54504883961469" lon="9.609785063100071"><ele>822.0</ele><time>2026-04-25T13:45:58Z</time></trkpt><trkpt lat="40.545057895608814" lon="9.609674659934425"><ele>822.0</ele><time>2026-04-25T13:45:59Z</time></trkpt><trkpt lat="40.545087669555194" lon="9.609544476447134"><ele>822.0</ele><time>2026-04-25T13:46:00Z</time></trkpt><trkpt lat="40.54513490672584" lon="9.609395997207669"><ele>822.0</ele><time>2026-04-25T13:46:01Z</time></trkpt><trkpt lat="40.54517732807988" lon="9.609250289091785"><ele>822.0</ele><time>2026-04-25T13:46:02Z</time></trkpt><trkpt lat="40.545225135907366" lon="9.609136514883213"><ele>822.0</ele><time>2026-04-25T13:46:03Z</time></trkpt><trkpt lat="40.54524345016454" lon="9.609020262835648"><ele>820.25</ele><time>2026-04-25T13:46:04Z</time></trkpt><trkpt lat="40.54522784329812" lon="9.608893209095672"><ele>818.5</ele><time>2026-04-25T13:46:05Z</time></trkpt><trkpt lat="40.54518556535534" lon="9.608748753594739"><ele>816.75</ele><time>2026-04-25T13:46:06Z</time></trkpt><trkpt lat="40.5451233246164" lon="9.608583983378889"><ele>815.0</ele><time>2026-04-25T13:46:07Z</time></trkpt><trkpt lat="40.545082060682006" lon="9.608423314189789"><ele>814.4</ele><time>2026-04-25T13:46:08Z</time></trkpt><trkpt lat="40.545037440577225" lon="9.60828157009743"><ele>813.8</ele><time>2026-04-25T13:46:09Z</time></trkpt><trkpt lat="40.5450066156336" lon="9.608150133071451"><ele>813.2</ele><time>2026-04-25T13:46:10Z</time></trkpt><trkpt lat="40.54499704478948" lon="9.608020654871481"><ele>812.6</ele><time>2026-04-25T13:46:11Z</time></trkpt><trkpt lat="40.545010369182464" lon="9.607889997943534"><ele>812.0</ele><time>2026-04-25T13:46:12Z</time></trkpt><trkpt lat="40.54504967690405" lon="9.607757880825456"><ele>811.1666666666667</ele><time>2026-04-25T13:46:13Z</time></trkpt><trkpt lat="40.54509607463844" lon="9.607637253711873"><ele>810.3333333333334</ele><time>2026-04-25T13:46:14Z</time></trkpt><trkpt lat="40.54512495314226" lon="9.607528571016516"><ele>809.5</ele><time>2026-04-25T13:46:15Z</time></trkpt><trkpt lat="40.54514438024859" lon="9.607446176456905"><ele>808.6666666666667</ele><time>2026-04-25T13:46:16Z</time></trkpt><trkpt lat="40.545124079426245" lon="9.607354338336474"><ele>807.8333333333334</ele><time>2026-04-25T13:46:17Z</time></trkpt><trkpt lat="40.5450685514639" lon="9.607258712600395"><ele>807.0</ele><time>2026-04-25T13:46:18Z</time></trkpt><trkpt lat="40.54497201100531" lon="9.607171274654668"><ele>807.0</ele><time>2026-04-25T13:46:19Z</time></trkpt><trkpt lat="40.54485313183112" lon="9.607058920767901"><ele>807.0</ele><time>2026-04-25T13:46:20Z</time></trkpt><trkpt lat="40.54473677168519" lon="9.606983974336105"><ele>807.0</ele><time>2026-04-25T13:46:21Z</time></trkpt><trkpt lat="40.54463423353812" lon="9.606921895572542"><ele>807.0</ele><time>2026-04-25T13:46:22Z</time></trkpt><trkpt lat="40.54451270729093" lon="9.606901305854686"><ele>802.6666666666667</ele><time>2026-04-25T13:46:23Z</time></trkpt><trkpt lat="40.544362466757505" lon="9.606923408528678"><ele>798.3333333333334</ele><time>2026-04-25T13:46:24Z</time></trkpt><trkpt lat="40.544190867043284" lon="9.606961688401034"><ele>794.0</ele><time>2026-04-25T13:46:25Z</time></trkpt><trkpt lat="40.5440190096643" lon="9.606995457048951"><ele>794.0</ele><time>2026-04-25T13:46:26Z</time></trkpt><trkpt lat="40.54386396884464" lon="9.606980303210454"><ele>794.0</ele><time>2026-04-25T13:46:27Z</time></trkpt><trkpt lat="40.54371924065408" lon="9.606972666439972"><ele>794.0</ele><time>2026-04-25T13:46:28Z</time></trkpt><trkpt lat="40.543585789537225" lon="9.606941927798655"><ele>794.0</ele><time>2026-04-25T13:46:29Z</time></trkpt><trkpt lat="40.54345288669174" lon="9.606898855427003"><ele>794.4000000000001</ele><time>2026-04-25T13:46:30Z</time></trkpt><trkpt lat="40.54333980967498" lon="9.606878311321065"><ele>794.8</ele><time>2026-04-25T13:46:31Z</time></trkpt><trkpt lat="40.543250771904546" lon="9.606852520673145"><ele>795.2</ele><time>2026-04-25T13:46:32Z</time></trkpt><trkpt lat="40.54316495750037" lon="9.606868592490056"><ele>795.5999999999999</ele><time>2026-04-25T13:46:33Z</time></trkpt><trkpt lat="40.54306755571791" lon="9.60692361805997"><ele>796.0</ele><time>2026-04-25T13:46:34Z</time></trkpt><trkpt lat="40.542964152017184" lon="9.60701322333064"><ele>800.8</ele><time>2026-04-25T13:46:35Z</time></trkpt><trkpt lat="40.542868349813865" lon="9.607122535264871"><ele>805.5999999999999</ele><time>2026-04-25T13:46:36Z</time></trkpt><trkpt lat="40.542774525255254" lon="9.607195961527548"><ele>810.4</ele><time>2026-04-25T13:46:37Z</time></trkpt><trkpt lat="40.54267501600784" lon="9.607183135516024"><ele>815.2</ele><time>2026-04-25T13:46:38Z</time></trkpt><trkpt lat="40.542589148260454" lon="9.607136926260857"><ele>820.0</ele><time>2026-04-25T13:46:39Z</time></trkpt><trkpt lat="40.54247613649475" lon="9.607086104350222"><ele>820.0</ele><time>2026-04-25T13:46:40Z</time></trkpt><trkpt lat="40.54234342221995" lon="9.606997174302554"><ele>820.0</ele><time>2026-04-25T13:46:41Z</time></trkpt><trkpt lat="40.542205412094496" lon="9.606886455908967"><ele>820.0</ele><time>2026-04-25T13:46:42Z</time></trkpt><trkpt lat="40.542085562190586" lon="9.606772080404253"><ele>819.0</ele><time>2026-04-25T13:46:43Z</time></trkpt><trkpt lat="40.54197619391407" lon="9.6066657250323"><ele>818.0</ele><time>2026-04-25T13:46:44Z</time></trkpt><trkpt lat="40.54188647564774" lon="9.60656969285422"><ele>817.0</ele><time>2026-04-25T13:46:45Z</time></trkpt><trkpt lat="40.54181577878507" lon="9.606482366613852"><ele>816.0</ele><time>2026-04-25T13:46:46Z</time></trkpt><trkpt lat="40.54177716493031" lon="9.60638300869698"><ele>815.0</ele><time>2026-04-25T13:46:47Z</time></trkpt><trkpt lat="40.54177947528583" lon="9.606261197413367"><ele>812.75</ele><time>2026-04-25T13:46:48Z</time></trkpt><trkpt lat="40.54177565474808" lon="9.606108647107202"><ele>810.5</ele><time>2026-04-25T13:46:49Z</time></trkpt><trkpt lat="40.5417715458548" lon="9.605914863360658"><ele>808.25</ele><time>2026-04-25T13:46:50Z</time></trkpt><trkpt lat="40.541765051088255" lon="9.605711062935267"><ele>806.0</ele><time>2026-04-25T13:46:51Z</time></trkpt><trkpt lat="40.54175941084041" lon="9.605534077460607"><ele>806.0</ele><time>2026-04-25T13:46:52Z</time></trkpt><trkpt lat="40.541758617514944" lon="9.605376370141897"><ele>806.0</ele><time>2026-04-25T13:46:53Z</time></trkpt><trkpt lat="40.54177522922154" lon="9.605246387424529"><ele>806.0</ele><time>2026-04-25T13:46:54Z</time></trkpt><trkpt lat="40.54182174909336" lon="9.60513100721443"><ele>806.0</ele><time>2026-04-25T13:46:55Z</time></trkpt><trkpt lat="40.54189203395097" lon="9.605021389325072"><ele>806.0</ele><time>2026-04-25T13:46:56Z</time></trkpt><trkpt lat="40.541924043898476" lon="9.60487933963629"><ele>806.75</ele><time>2026-04-25T13:46:57Z</time></trkpt><trkpt lat="40.541946440731515" lon="9.604725268211352"><ele>807.5</ele><time>2026-04-25T13:46:58Z</time></trkpt><trkpt lat="40.5419551892418" lon="9.604539953929429"><ele>808.25</ele><time>2026-04-25T13:46:59Z</time></trkpt><trkpt lat="40.541959660342876" lon="9.60434464202124"><ele>809.0</ele><time>2026-04-25T13:47:00Z</time></trkpt><trkpt lat="40.541965117473765" lon="9.604171817454986"><ele>809.5</ele><time>2026-04-25T13:47:01Z</time></trkpt><trkpt lat="40.54196990445186" lon="9.60400839183118"><ele>810.0</ele><time>2026-04-25T13:47:02Z</time></trkpt><trkpt lat="40.54196582933178" lon="9.603843576714713"><ele>810.5</ele><time>2026-04-25T13:47:03Z</time></trkpt><trkpt lat="40.54195457407651" lon="9.60367562423521"><ele>811.0</ele><time>2026-04-25T13:47:04Z</time></trkpt><trkpt lat="40.541940953103556" lon="9.603508696807035"><ele>809.25</ele><time>2026-04-25T13:47:05Z</time></trkpt><trkpt lat="40.54192010183492" lon="9.60334307943564"><ele>807.5</ele><time>2026-04-25T13:47:06Z</time></trkpt><trkpt lat="40.54191168717844" lon="9.603183790750258"><ele>805.75</ele><time>2026-04-25T13:47:07Z</time></trkpt><trkpt lat="40.54189525837994" lon="9.603039161370706"><ele>804.0</ele><time>2026-04-25T13:47:08Z</time></trkpt><trkpt lat="40.54188440084847" lon="9.602903230166092"><ele>802.6666666666666</ele><time>2026-04-25T13:47:09Z</time></trkpt><trkpt lat="40.54187163243544" lon="9.602792670255887"><ele>801.3333333333333</ele><time>2026-04-25T13:47:10Z</time></trkpt><trkpt lat="40.54185613890887" lon="9.602701694515382"><ele>800.0</ele><time>2026-04-25T13:47:11Z</time></trkpt><trkpt lat="40.541813570454714" lon="9.602572928353084"><ele>798.6666666666666</ele><time>2026-04-25T13:47:13Z</time></trkpt><trkpt lat="40.54179079776824" lon="9.602490934713419"><ele>797.3333333333333</ele><time>2026-04-25T13:47:15Z</time></trkpt><trkpt lat="40.541831610538594" lon="9.602400471445618"><ele>796.0</ele><time>2026-04-25T13:47:18Z</time></trkpt><trkpt lat="40.541857898072074" lon="9.60232387639597"><ele>795.9999999999999</ele><time>2026-04-25T13:47:20Z</time></trkpt><trkpt lat="40.54188502379854" lon="9.60224461797071"><ele>796.0</ele><time>2026-04-25T13:47:25Z</time></trkpt><trkpt lat="40.54187164462626" lon="9.602326639831094"><ele>796.0</ele><time>2026-04-25T13:48:45Z</time></trkpt><trkpt lat="40.54181266026446" lon="9.60236788702254"><ele>796.0</ele><time>2026-04-25T13:49:01Z</time></trkpt><trkpt lat="40.54175564963477" lon="9.602322867941462"><ele>796.0</ele><time>2026-04-25T13:49:11Z</time></trkpt><trkpt lat="40.54182482217606" lon="9.602305942794237"><ele>795.9999999999999</ele><time>2026-04-25T13:52:44Z</time></trkpt><trkpt lat="40.541852744230134" lon="9.602225957550655"><ele>796.0</ele><time>2026-04-25T13:55:12Z</time></trkpt><trkpt lat="40.541848452816666" lon="9.602336900631975"><ele>796.0</ele><time>2026-04-25T13:55:22Z</time></trkpt><trkpt lat="40.54178880493055" lon="9.602409175255685"><ele>796.0</ele><time>2026-04-25T13:55:23Z</time></trkpt><trkpt lat="40.54168965931917" lon="9.602453330078824"><ele>796.0</ele><time>2026-04-25T13:55:25Z</time></trkpt><trkpt lat="40.54154983885905" lon="9.60245007687977"><ele>796.0</ele><time>2026-04-25T13:55:27Z</time></trkpt><trkpt lat="40.541451740295564" lon="9.602484969060047"><ele>796.0</ele><time>2026-04-25T13:55:29Z</time></trkpt><trkpt lat="40.54139126790711" lon="9.602532372942123"><ele>796.0</ele><time>2026-04-25T13:55:30Z</time></trkpt><trkpt lat="40.541298112859046" lon="9.6025981529785"><ele>796.0</ele><time>2026-04-25T13:55:31Z</time></trkpt><trkpt lat="40.54119932687519" lon="9.602676650683193"><ele>796.0</ele><time>2026-04-25T13:55:32Z</time></trkpt><trkpt lat="40.54112388797829" lon="9.60276831536174"><ele>796.0</ele><time>2026-04-25T13:55:33Z</time></trkpt><trkpt lat="40.541067017351885" lon="9.60286707208112"><ele>796.0</ele><time>2026-04-25T13:55:34Z</time></trkpt><trkpt lat="40.541009009537156" lon="9.602971780778557"><ele>795.4</ele><time>2026-04-25T13:55:35Z</time></trkpt><trkpt lat="40.540949150250384" lon="9.603089374278868"><ele>794.8</ele><time>2026-04-25T13:55:36Z</time></trkpt><trkpt lat="40.540885305833434" lon="9.603210777635976"><ele>794.1999999999999</ele><time>2026-04-25T13:55:37Z</time></trkpt><trkpt lat="40.54082281897617" lon="9.603322105559128"><ele>793.5999999999999</ele><time>2026-04-25T13:55:38Z</time></trkpt><trkpt lat="40.54076104601427" lon="9.603428454423756"><ele>793.0</ele><time>2026-04-25T13:55:39Z</time></trkpt><trkpt lat="40.54069771523547" lon="9.603527781692337"><ele>793.0</ele><time>2026-04-25T13:55:40Z</time></trkpt><trkpt lat="40.54062957071619" lon="9.603607237977688"><ele>793.0</ele><time>2026-04-25T13:55:41Z</time></trkpt><trkpt lat="40.540529718942" lon="9.6036199193643"><ele>793.0</ele><time>2026-04-25T13:55:42Z</time></trkpt><trkpt lat="40.54041296866246" lon="9.603669887063992"><ele>793.0</ele><time>2026-04-25T13:55:43Z</time></trkpt><trkpt lat="40.54027848332773" lon="9.603736887750168"><ele>794.25</ele><time>2026-04-25T13:55:44Z</time></trkpt><trkpt lat="40.54014927861272" lon="9.603798370261298"><ele>795.5</ele><time>2026-04-25T13:55:45Z</time></trkpt><trkpt lat="40.5400311800842" lon="9.603847649289202"><ele>796.75</ele><time>2026-04-25T13:55:46Z</time></trkpt><trkpt lat="40.53992750201102" lon="9.603893798697747"><ele>798.0</ele><time>2026-04-25T13:55:47Z</time></trkpt><trkpt lat="40.539842269880246" lon="9.60393332755258"><ele>798.0</ele><time>2026-04-25T13:55:48Z</time></trkpt><trkpt lat="40.53977413244374" lon="9.603965453135903"><ele>798.0</ele><time>2026-04-25T13:55:49Z</time></trkpt><trkpt lat="40.53965563075627" lon="9.60394679585138"><ele>798.0</ele><time>2026-04-25T13:55:51Z</time></trkpt><trkpt lat="40.53960816337541" lon="9.603875353007613"><ele>798.0</ele><time>2026-04-25T13:55:52Z</time></trkpt><trkpt lat="40.539576435855594" lon="9.603789087795292"><ele>798.0</ele><time>2026-04-25T13:55:53Z</time></trkpt><trkpt lat="40.53956609110824" lon="9.603665712112488"><ele>798.0</ele><time>2026-04-25T13:55:54Z</time></trkpt><trkpt lat="40.539532090741545" lon="9.603496353877961"><ele>796.25</ele><time>2026-04-25T13:55:55Z</time></trkpt><trkpt lat="40.53950031787982" lon="9.603320947158585"><ele>794.5</ele><time>2026-04-25T13:55:56Z</time></trkpt><trkpt lat="40.53946750979741" lon="9.603170150587642"><ele>792.75</ele><time>2026-04-25T13:55:57Z</time></trkpt><trkpt lat="40.539435520479074" lon="9.603022768458677"><ele>791.0</ele><time>2026-04-25T13:55:58Z</time></trkpt><trkpt lat="40.53940681564402" lon="9.60288576735199"><ele>786.4</ele><time>2026-04-25T13:55:59Z</time></trkpt><trkpt lat="40.53937208662324" lon="9.602770077351025"><ele>781.8</ele><time>2026-04-25T13:56:00Z</time></trkpt><trkpt lat="40.53931782208713" lon="9.602677807872036"><ele>777.1999999999999</ele><time>2026-04-25T13:56:01Z</time></trkpt><trkpt lat="40.53923873285834" lon="9.602611148432707"><ele>772.5999999999999</ele><time>2026-04-25T13:56:02Z</time></trkpt><trkpt lat="40.53913910756599" lon="9.602563732768457"><ele>768.0</ele><time>2026-04-25T13:56:03Z</time></trkpt><trkpt lat="40.53903867854302" lon="9.602515076175186"><ele>768.0</ele><time>2026-04-25T13:56:04Z</time></trkpt><trkpt lat="40.53895699792849" lon="9.602399310591862"><ele>768.0</ele><time>2026-04-25T13:56:05Z</time></trkpt><trkpt lat="40.53887211402958" lon="9.602284105626044"><ele>768.0</ele><time>2026-04-25T13:56:06Z</time></trkpt><trkpt lat="40.53879818898607" lon="9.602169374323392"><ele>768.0</ele><time>2026-04-25T13:56:07Z</time></trkpt><trkpt lat="40.5387480574128" lon="9.602053863638373"><ele>764.4</ele><time>2026-04-25T13:56:08Z</time></trkpt><trkpt lat="40.538734587419846" lon="9.601940630517069"><ele>760.8</ele><time>2026-04-25T13:56:09Z</time></trkpt><trkpt lat="40.53876013981439" lon="9.601835086975914"><ele>757.2</ele><time>2026-04-25T13:56:10Z</time></trkpt><trkpt lat="40.53878050276657" lon="9.601712576269703"><ele>753.6</ele><time>2026-04-25T13:56:11Z</time></trkpt><trkpt lat="40.53879087492807" lon="9.60157967508856"><ele>750.0</ele><time>2026-04-25T13:56:12Z</time></trkpt><trkpt lat="40.538739153206656" lon="9.601450170051146"><ele>752.1666666666666</ele><time>2026-04-25T13:56:13Z</time></trkpt><trkpt lat="40.538694059788355" lon="9.601326824759873"><ele>754.3333333333334</ele><time>2026-04-25T13:56:14Z</time></trkpt><trkpt lat="40.538646331172544" lon="9.601243366345418"><ele>756.5</ele><time>2026-04-25T13:56:15Z</time></trkpt><trkpt lat="40.53857633132068" lon="9.601201082867757"><ele>758.6666666666667</ele><time>2026-04-25T13:56:16Z</time></trkpt><trkpt lat="40.53849443958467" lon="9.601191195692257"><ele>760.8333333333334</ele><time>2026-04-25T13:56:17Z</time></trkpt><trkpt lat="40.53840613398574" lon="9.601217147267732"><ele>763.0</ele><time>2026-04-25T13:56:18Z</time></trkpt><trkpt lat="40.53833182630491" lon="9.601290296910355"><ele>763.0</ele><time>2026-04-25T13:56:19Z</time></trkpt><trkpt lat="40.53825841391603" lon="9.601394598011838"><ele>763.0</ele><time>2026-04-25T13:56:20Z</time></trkpt><trkpt lat="40.53817241391216" lon="9.6015226057484"><ele>763.0</ele><time>2026-04-25T13:56:21Z</time></trkpt><trkpt lat="40.53809468830297" lon="9.601648390621847"><ele>763.0</ele><time>2026-04-25T13:56:22Z</time></trkpt><trkpt lat="40.538028847855756" lon="9.601772381404416"><ele>763.0</ele><time>2026-04-25T13:56:23Z</time></trkpt><trkpt lat="40.53798184296741" lon="9.601899505937967"><ele>763.0</ele><time>2026-04-25T13:56:24Z</time></trkpt><trkpt lat="40.53794240703965" lon="9.602027550541417"><ele>763.0</ele><time>2026-04-25T13:56:25Z</time></trkpt><trkpt lat="40.53789359139999" lon="9.602145571841806"><ele>763.0</ele><time>2026-04-25T13:56:26Z</time></trkpt><trkpt lat="40.537815889462095" lon="9.602221493237735"><ele>763.0</ele><time>2026-04-25T13:56:27Z</time></trkpt><trkpt lat="40.53772714919924" lon="9.602274867517757"><ele>761.8</ele><time>2026-04-25T13:56:28Z</time></trkpt><trkpt lat="40.53762593888618" lon="9.602308881059933"><ele>760.5999999999999</ele><time>2026-04-25T13:56:29Z</time></trkpt><trkpt lat="40.53752700992107" lon="9.602363913199854"><ele>759.4000000000001</ele><time>2026-04-25T13:56:30Z</time></trkpt><trkpt lat="40.53744513098272" lon="9.602398811663106"><ele>758.2</ele><time>2026-04-25T13:56:31Z</time></trkpt><trkpt lat="40.53738113578423" lon="9.60245591838315"><ele>757.0</ele><time>2026-04-25T13:56:32Z</time></trkpt><trkpt lat="40.53734272741441" lon="9.602543499983073"><ele>757.0</ele><time>2026-04-25T13:56:33Z</time></trkpt><trkpt lat="40.537328141158596" lon="9.602659958176028"><ele>757.0</ele><time>2026-04-25T13:56:34Z</time></trkpt><trkpt lat="40.53733567980704" lon="9.602800416402967"><ele>757.0</ele><time>2026-04-25T13:56:35Z</time></trkpt><trkpt lat="40.53734368570039" lon="9.602962895924433"><ele>757.0</ele><time>2026-04-25T13:56:36Z</time></trkpt><trkpt lat="40.53736167758517" lon="9.603116582464786"><ele>757.0</ele><time>2026-04-25T13:56:37Z</time></trkpt><trkpt lat="40.53736988007465" lon="9.603252099583417"><ele>759.2</ele><time>2026-04-25T13:56:38Z</time></trkpt><trkpt lat="40.5373545007681" lon="9.6033748573381"><ele>761.4000000000001</ele><time>2026-04-25T13:56:39Z</time></trkpt><trkpt lat="40.53731973229243" lon="9.603488899114112"><ele>763.5999999999999</ele><time>2026-04-25T13:56:40Z</time></trkpt><trkpt lat="40.53726591490881" lon="9.603583188463139"><ele>765.8</ele><time>2026-04-25T13:56:41Z</time></trkpt><trkpt lat="40.53719460266372" lon="9.603665211491682"><ele>768.0</ele><time>2026-04-25T13:56:42Z</time></trkpt><trkpt lat="40.53710783689735" lon="9.603752893438383"><ele>768.5</ele><time>2026-04-25T13:56:43Z</time></trkpt><trkpt lat="40.53702894181353" lon="9.603837679437813"><ele>769.0</ele><time>2026-04-25T13:56:44Z</time></trkpt><trkpt lat="40.536959798466135" lon="9.603908434321008"><ele>769.5</ele><time>2026-04-25T13:56:45Z</time></trkpt><trkpt lat="40.53689834478039" lon="9.603962170341337"><ele>770.0</ele><time>2026-04-25T13:56:46Z</time></trkpt><trkpt lat="40.53683515366671" lon="9.603984781052462"><ele>770.5</ele><time>2026-04-25T13:56:47Z</time></trkpt><trkpt lat="40.53676366538717" lon="9.603939770059844"><ele>771.0</ele><time>2026-04-25T13:56:48Z</time></trkpt><trkpt lat="40.53669709960198" lon="9.603884802349684"><ele>771.0</ele><time>2026-04-25T13:56:49Z</time></trkpt><trkpt lat="40.53660134207458" lon="9.603807330612563"><ele>771.0</ele><time>2026-04-25T13:56:50Z</time></trkpt><trkpt lat="40.53646974842232" lon="9.603730874708067"><ele>771.0</ele><time>2026-04-25T13:56:51Z</time></trkpt><trkpt lat="40.53634807393804" lon="9.603636567235807"><ele>771.0</ele><time>2026-04-25T13:56:52Z</time></trkpt><trkpt lat="40.536233048216765" lon="9.603573269692065"><ele>766.0</ele><time>2026-04-25T13:56:53Z</time></trkpt><trkpt lat="40.53613014059431" lon="9.603526448793094"><ele>761.0</ele><time>2026-04-25T13:56:54Z</time></trkpt><trkpt lat="40.53602863208351" lon="9.60350504808843"><ele>756.0</ele><time>2026-04-25T13:56:55Z</time></trkpt><trkpt lat="40.5359246028139" lon="9.603522500927664"><ele>751.0</ele><time>2026-04-25T13:56:56Z</time></trkpt><trkpt lat="40.53582825231728" lon="9.603562295593328"><ele>746.0</ele><time>2026-04-25T13:56:57Z</time></trkpt><trkpt lat="40.53573376512986" lon="9.603595879760835"><ele>746.0</ele><time>2026-04-25T13:56:58Z</time></trkpt><trkpt lat="40.5356461563357" lon="9.603615225975114"><ele>746.0</ele><time>2026-04-25T13:56:59Z</time></trkpt><trkpt lat="40.53556981701798" lon="9.603626555765594"><ele>746.0</ele><time>2026-04-25T13:57:00Z</time></trkpt><trkpt lat="40.53549188071457" lon="9.603610485423298"><ele>746.0</ele><time>2026-04-25T13:57:01Z</time></trkpt><trkpt lat="40.53540058376858" lon="9.603567411215936"><ele>746.0</ele><time>2026-04-25T13:57:02Z</time></trkpt><trkpt lat="40.53529050655596" lon="9.603499220282712"><ele>748.0</ele><time>2026-04-25T13:57:03Z</time></trkpt><trkpt lat="40.53518230889676" lon="9.603442875904172"><ele>750.0</ele><time>2026-04-25T13:57:04Z</time></trkpt><trkpt lat="40.53508966601041" lon="9.603385908451145"><ele>752.0</ele><time>2026-04-25T13:57:05Z</time></trkpt><trkpt lat="40.535015127360424" lon="9.603308220774508"><ele>754.0</ele><time>2026-04-25T13:57:06Z</time></trkpt><trkpt lat="40.534976320875025" lon="9.603179661070609"><ele>756.0</ele><time>2026-04-25T13:57:07Z</time></trkpt><trkpt lat="40.53493386697153" lon="9.603049655721504"><ele>756.0</ele><time>2026-04-25T13:57:08Z</time></trkpt><trkpt lat="40.534887979105385" lon="9.602908590792762"><ele>756.0</ele><time>2026-04-25T13:57:09Z</time></trkpt><trkpt lat="40.534824895281396" lon="9.602775530574995"><ele>756.0</ele><time>2026-04-25T13:57:10Z</time></trkpt><trkpt lat="40.5347944928827" lon="9.602637371022647"><ele>756.0</ele><time>2026-04-25T13:57:11Z</time></trkpt><trkpt lat="40.53475072779837" lon="9.602528005095653"><ele>756.0</ele><time>2026-04-25T13:57:12Z</time></trkpt><trkpt lat="40.53471297736092" lon="9.60243952678527"><ele>758.0</ele><time>2026-04-25T13:57:13Z</time></trkpt><trkpt lat="40.534665142601355" lon="9.602374180273118"><ele>760.0</ele><time>2026-04-25T13:57:14Z</time></trkpt><trkpt lat="40.53459072637759" lon="9.602342466276223"><ele>762.0</ele><time>2026-04-25T13:57:15Z</time></trkpt><trkpt lat="40.53450170747628" lon="9.602343418496616"><ele>764.0</ele><time>2026-04-25T13:57:16Z</time></trkpt><trkpt lat="40.53441691854927" lon="9.602362488937091"><ele>766.0</ele><time>2026-04-25T13:57:17Z</time></trkpt><trkpt lat="40.53435416083384" lon="9.602309542907332"><ele>768.0</ele><time>2026-04-25T13:57:18Z</time></trkpt><trkpt lat="40.53431954764478" lon="9.60222143715882"><ele>768.0</ele><time>2026-04-25T13:57:19Z</time></trkpt><trkpt lat="40.53429171220409" lon="9.602116835768074"><ele>768.0</ele><time>2026-04-25T13:57:20Z</time></trkpt><trkpt lat="40.53429508153027" lon="9.601995610799648"><ele>768.0</ele><time>2026-04-25T13:57:21Z</time></trkpt><trkpt lat="40.53426263015389" lon="9.601864032443235"><ele>768.0</ele><time>2026-04-25T13:57:22Z</time></trkpt><trkpt lat="40.534228579628504" lon="9.60172516069892"><ele>768.0</ele><time>2026-04-25T13:57:23Z</time></trkpt><trkpt lat="40.534167335781774" lon="9.601559794301496"><ele>760.6666666666666</ele><time>2026-04-25T13:57:24Z</time></trkpt><trkpt lat="40.534096573657095" lon="9.601365207472673"><ele>753.3333333333333</ele><time>2026-04-25T13:57:25Z</time></trkpt><trkpt lat="40.53402784277033" lon="9.601176572496788"><ele>746.0</ele><time>2026-04-25T13:57:26Z</time></trkpt><trkpt lat="40.53397243712247" lon="9.601000899922845"><ele>741.25</ele><time>2026-04-25T13:57:27Z</time></trkpt><trkpt lat="40.533910281939285" lon="9.600838730346275"><ele>736.5</ele><time>2026-04-25T13:57:28Z</time></trkpt><trkpt lat="40.53385232172754" lon="9.600682903347625"><ele>731.75</ele><time>2026-04-25T13:57:29Z</time></trkpt><trkpt lat="40.53380108270226" lon="9.60053550972443"><ele>727.0</ele><time>2026-04-25T13:57:30Z</time></trkpt><trkpt lat="40.53375872188986" lon="9.600392579129952"><ele>729.8</ele><time>2026-04-25T13:57:31Z</time></trkpt><trkpt lat="40.53370773127358" lon="9.600262456323321"><ele>732.6</ele><time>2026-04-25T13:57:32Z</time></trkpt><trkpt lat="40.533660080359454" lon="9.60013838267746"><ele>735.4</ele><time>2026-04-25T13:57:33Z</time></trkpt><trkpt lat="40.533604730180606" lon="9.600025804486265"><ele>738.1999999999999</ele><time>2026-04-25T13:57:34Z</time></trkpt><trkpt lat="40.53353818152789" lon="9.599935889473933"><ele>741.0</ele><time>2026-04-25T13:57:35Z</time></trkpt><trkpt lat="40.53345969575448" lon="9.599858392160586"><ele>741.0</ele><time>2026-04-25T13:57:36Z</time></trkpt><trkpt lat="40.53336757836399" lon="9.599785773881415"><ele>741.0</ele><time>2026-04-25T13:57:37Z</time></trkpt><trkpt lat="40.533271068986075" lon="9.599699051454861"><ele>741.0</ele><time>2026-04-25T13:57:38Z</time></trkpt><trkpt lat="40.53318675667429" lon="9.59958085966127"><ele>741.0</ele><time>2026-04-25T13:57:39Z</time></trkpt><trkpt lat="40.53310179165678" lon="9.59945877078291"><ele>740.75</ele><time>2026-04-25T13:57:40Z</time></trkpt><trkpt lat="40.5330163049761" lon="9.599324540676234"><ele>740.5</ele><time>2026-04-25T13:57:41Z</time></trkpt><trkpt lat="40.53292550942208" lon="9.599186683864936"><ele>740.25</ele><time>2026-04-25T13:57:42Z</time></trkpt><trkpt lat="40.53283755627522" lon="9.599058539139627"><ele>740.0</ele><time>2026-04-25T13:57:43Z</time></trkpt><trkpt lat="40.53273931398408" lon="9.598946405913212"><ele>740.0</ele><time>2026-04-25T13:57:44Z</time></trkpt><trkpt lat="40.53266028341302" lon="9.598820762969158"><ele>740.0</ele><time>2026-04-25T13:57:45Z</time></trkpt><trkpt lat="40.53258005749522" lon="9.598714198176616"><ele>740.0</ele><time>2026-04-25T13:57:46Z</time></trkpt><trkpt lat="40.5324926049296" lon="9.598621178345015"><ele>740.0</ele><time>2026-04-25T13:57:47Z</time></trkpt><trkpt lat="40.53238210031961" lon="9.59855020626112"><ele>741.0</ele><time>2026-04-25T13:57:48Z</time></trkpt><trkpt lat="40.53226310980215" lon="9.598479299369055"><ele>742.0</ele><time>2026-04-25T13:57:49Z</time></trkpt><trkpt lat="40.53217064084273" lon="9.598367231152432"><ele>743.0</ele><time>2026-04-25T13:57:50Z</time></trkpt><trkpt lat="40.53207196133803" lon="9.598250398265147"><ele>744.0</ele><time>2026-04-25T13:57:51Z</time></trkpt><trkpt lat="40.53198004468261" lon="9.598122559375565"><ele>744.0</ele><time>2026-04-25T13:57:52Z</time></trkpt><trkpt lat="40.5318751774149" lon="9.59802213178051"><ele>744.0</ele><time>2026-04-25T13:57:53Z</time></trkpt><trkpt lat="40.531778195082346" lon="9.597922821339969"><ele>744.0</ele><time>2026-04-25T13:57:54Z</time></trkpt><trkpt lat="40.531681230637844" lon="9.597846153422335"><ele>744.0</ele><time>2026-04-25T13:57:55Z</time></trkpt><trkpt lat="40.53159486486534" lon="9.597772158509535"><ele>736.75</ele><time>2026-04-25T13:57:56Z</time></trkpt><trkpt lat="40.531547632419624" lon="9.597643162062713"><ele>729.5</ele><time>2026-04-25T13:57:57Z</time></trkpt><trkpt lat="40.53149521284978" lon="9.597502214300619"><ele>722.25</ele><time>2026-04-25T13:57:58Z</time></trkpt><trkpt lat="40.53142575910905" lon="9.597371343504143"><ele>715.0</ele><time>2026-04-25T13:57:59Z</time></trkpt><trkpt lat="40.531365473955525" lon="9.597250174868359"><ele>715.0</ele><time>2026-04-25T13:58:00Z</time></trkpt><trkpt lat="40.531295148469624" lon="9.59714308012041"><ele>715.0</ele><time>2026-04-25T13:58:01Z</time></trkpt><trkpt lat="40.531210402824605" lon="9.59705779299278"><ele>715.0</ele><time>2026-04-25T13:58:02Z</time></trkpt><trkpt lat="40.531122415115725" lon="9.596990392624091"><ele>715.0</ele><time>2026-04-25T13:58:03Z</time></trkpt><trkpt lat="40.53106426609886" lon="9.596904109406786"><ele>715.0</ele><time>2026-04-25T13:58:04Z</time></trkpt><trkpt lat="40.531008081608746" lon="9.596816625146731"><ele>715.0</ele><time>2026-04-25T13:58:05Z</time></trkpt><trkpt lat="40.5309799896572" lon="9.59669471840136"><ele>715.0</ele><time>2026-04-25T13:58:06Z</time></trkpt><trkpt lat="40.5309413571007" lon="9.596558321964107"><ele>715.0</ele><time>2026-04-25T13:58:07Z</time></trkpt><trkpt lat="40.530904448707886" lon="9.596420641754422"><ele>715.0</ele><time>2026-04-25T13:58:08Z</time></trkpt><trkpt lat="40.53088023984664" lon="9.596292422494455"><ele>715.0</ele><time>2026-04-25T13:58:09Z</time></trkpt><trkpt lat="40.53086606375889" lon="9.596165015094291"><ele>715.0</ele><time>2026-04-25T13:58:10Z</time></trkpt><trkpt lat="40.5308690939374" lon="9.596039331339366"><ele>715.0</ele><time>2026-04-25T13:58:11Z</time></trkpt><trkpt lat="40.53087741368867" lon="9.59590823663142"><ele>715.0</ele><time>2026-04-25T13:58:12Z</time></trkpt><trkpt lat="40.53087189789269" lon="9.595783854388612"><ele>715.0</ele><time>2026-04-25T13:58:13Z</time></trkpt><trkpt lat="40.53087415921463" lon="9.595676096857945"><ele>715.0</ele><time>2026-04-25T13:58:14Z</time></trkpt><trkpt lat="40.530858654530086" lon="9.595557516801405"><ele>715.0</ele><time>2026-04-25T13:58:15Z</time></trkpt><trkpt lat="40.5308135498458" lon="9.595416079194523"><ele>715.0</ele><time>2026-04-25T13:58:16Z</time></trkpt><trkpt lat="40.53073960569337" lon="9.59524107554437"><ele>715.0</ele><time>2026-04-25T13:58:17Z</time></trkpt><trkpt lat="40.53066161030053" lon="9.59503896759406"><ele>715.0</ele><time>2026-04-25T13:58:18Z</time></trkpt><trkpt lat="40.5305827320847" lon="9.59485320790819"><ele>711.75</ele><time>2026-04-25T13:58:19Z</time></trkpt><trkpt lat="40.530543600633195" lon="9.59466738549097"><ele>708.5</ele><time>2026-04-25T13:58:20Z</time></trkpt><trkpt lat="40.53050288079301" lon="9.594495275426963"><ele>705.25</ele><time>2026-04-25T13:58:21Z</time></trkpt><trkpt lat="40.53044953413451" lon="9.594330112533644"><ele>702.0</ele><time>2026-04-25T13:58:22Z</time></trkpt><trkpt lat="40.530411000927394" lon="9.59415440494879"><ele>705.0</ele><time>2026-04-25T13:58:23Z</time></trkpt><trkpt lat="40.530355954114654" lon="9.593976590426037"><ele>708.0</ele><time>2026-04-25T13:58:24Z</time></trkpt><trkpt lat="40.53027656853529" lon="9.593782611047294"><ele>711.0</ele><time>2026-04-25T13:58:25Z</time></trkpt><trkpt lat="40.5301781285848" lon="9.593578788350841"><ele>711.0</ele><time>2026-04-25T13:58:26Z</time></trkpt><trkpt lat="40.53007725902326" lon="9.593377690583191"><ele>711.0</ele><time>2026-04-25T13:58:27Z</time></trkpt><trkpt lat="40.5299859387685" lon="9.59319063284067"><ele>711.0</ele><time>2026-04-25T13:58:28Z</time></trkpt><trkpt lat="40.5299052280658" lon="9.593018155078724"><ele>711.0</ele><time>2026-04-25T13:58:29Z</time></trkpt><trkpt lat="40.52983955651298" lon="9.59285932550464"><ele>711.0</ele><time>2026-04-25T13:58:30Z</time></trkpt><trkpt lat="40.52980447667899" lon="9.592690548396856"><ele>711.0</ele><time>2026-04-25T13:58:31Z</time></trkpt><trkpt lat="40.52977716761561" lon="9.592527094034077"><ele>711.0</ele><time>2026-04-25T13:58:32Z</time></trkpt><trkpt lat="40.52976007488" lon="9.592374409127222"><ele>710.5</ele><time>2026-04-25T13:58:33Z</time></trkpt><trkpt lat="40.52973113828653" lon="9.592271557218258"><ele>710.0</ele><time>2026-04-25T13:58:34Z</time></trkpt><trkpt lat="40.529701073790115" lon="9.592196918516938"><ele>709.5</ele><time>2026-04-25T13:58:35Z</time></trkpt><trkpt lat="40.52964214051367" lon="9.592134766801578"><ele>709.0</ele><time>2026-04-25T13:58:36Z</time></trkpt><trkpt lat="40.52955246959198" lon="9.592092552341994"><ele>708.5</ele><time>2026-04-25T13:58:37Z</time></trkpt><trkpt lat="40.529480150570286" lon="9.591994523472591"><ele>708.0</ele><time>2026-04-25T13:58:38Z</time></trkpt><trkpt lat="40.52941940250793" lon="9.591869133842698"><ele>708.0</ele><time>2026-04-25T13:58:39Z</time></trkpt><trkpt lat="40.52936029723664" lon="9.59173849707702"><ele>708.0</ele><time>2026-04-25T13:58:40Z</time></trkpt><trkpt lat="40.529301997533985" lon="9.591609226007774"><ele>708.0</ele><time>2026-04-25T13:58:41Z</time></trkpt><trkpt lat="40.52924383740094" lon="9.591485470078187"><ele>708.0</ele><time>2026-04-25T13:58:42Z</time></trkpt><trkpt lat="40.529186818932075" lon="9.591366607870574"><ele>708.0</ele><time>2026-04-25T13:58:43Z</time></trkpt><trkpt lat="40.52912151982335" lon="9.59124446470689"><ele>702.5</ele><time>2026-04-25T13:58:44Z</time></trkpt><trkpt lat="40.52902629658749" lon="9.591114589213902"><ele>697.0</ele><time>2026-04-25T13:58:45Z</time></trkpt><trkpt lat="40.52893472117466" lon="9.590958248785114"><ele>691.5</ele><time>2026-04-25T13:58:46Z</time></trkpt><trkpt lat="40.5288530265166" lon="9.590811093321172"><ele>686.0</ele><time>2026-04-25T13:58:47Z</time></trkpt><trkpt lat="40.52878047752161" lon="9.590675502834044"><ele>686.0</ele><time>2026-04-25T13:58:48Z</time></trkpt><trkpt lat="40.528741051969035" lon="9.59051674909086"><ele>686.0</ele><time>2026-04-25T13:58:49Z</time></trkpt><trkpt lat="40.5287048346349" lon="9.59034460827144"><ele>686.0</ele><time>2026-04-25T13:58:50Z</time></trkpt><trkpt lat="40.528668399223456" lon="9.590140469936614"><ele>686.0</ele><time>2026-04-25T13:58:51Z</time></trkpt><trkpt lat="40.52862599479791" lon="9.589960845652534"><ele>684.5999999999999</ele><time>2026-04-25T13:58:52Z</time></trkpt><trkpt lat="40.528591077899485" lon="9.589810724696493"><ele>683.2</ele><time>2026-04-25T13:58:53Z</time></trkpt><trkpt lat="40.52853606099357" lon="9.589683000341209"><ele>681.8</ele><time>2026-04-25T13:58:54Z</time></trkpt><trkpt lat="40.52846064018116" lon="9.58959426473192"><ele>680.4000000000001</ele><time>2026-04-25T13:58:55Z</time></trkpt><trkpt lat="40.528369989367064" lon="9.58952675220634"><ele>679.0</ele><time>2026-04-25T13:58:56Z</time></trkpt><trkpt lat="40.528266763186075" lon="9.589472128202761"><ele>679.0</ele><time>2026-04-25T13:58:57Z</time></trkpt><trkpt lat="40.52820785144259" lon="9.589366181720754"><ele>679.0</ele><time>2026-04-25T13:58:58Z</time></trkpt><trkpt lat="40.52818325510698" lon="9.589239714113392"><ele>679.0</ele><time>2026-04-25T13:58:59Z</time></trkpt><trkpt lat="40.52814158292225" lon="9.589087254006747"><ele>679.0</ele><time>2026-04-25T13:59:00Z</time></trkpt><trkpt lat="40.52808940575284" lon="9.58895261894368"><ele>679.0</ele><time>2026-04-25T13:59:01Z</time></trkpt><trkpt lat="40.5280435039997" lon="9.588826533884433"><ele>679.0</ele><time>2026-04-25T13:59:02Z</time></trkpt><trkpt lat="40.527975358271185" lon="9.588706880326137"><ele>679.0</ele><time>2026-04-25T13:59:03Z</time></trkpt><trkpt lat="40.52789579301312" lon="9.58859891340967"><ele>679.0</ele><time>2026-04-25T13:59:04Z</time></trkpt><trkpt lat="40.527824057221814" lon="9.588525485951854"><ele>679.0</ele><time>2026-04-25T13:59:05Z</time></trkpt><trkpt lat="40.527760462095024" lon="9.58847085806674"><ele>679.0</ele><time>2026-04-25T13:59:06Z</time></trkpt><trkpt lat="40.52769614293995" lon="9.588426248818177"><ele>681.5</ele><time>2026-04-25T13:59:07Z</time></trkpt><trkpt lat="40.52763025710113" lon="9.588378321541477"><ele>684.0</ele><time>2026-04-25T13:59:08Z</time></trkpt><trkpt lat="40.52755504120077" lon="9.588317458903026"><ele>686.5</ele><time>2026-04-25T13:59:09Z</time></trkpt><trkpt lat="40.52746506537064" lon="9.588273223023634"><ele>689.0</ele><time>2026-04-25T13:59:10Z</time></trkpt><trkpt lat="40.52739085966608" lon="9.588226477781836"><ele>691.5</ele><time>2026-04-25T13:59:11Z</time></trkpt><trkpt lat="40.52734973777837" lon="9.58815689525679"><ele>694.0</ele><time>2026-04-25T13:59:12Z</time></trkpt><trkpt lat="40.52730007296735" lon="9.588011323632811"><ele>694.0</ele><time>2026-04-25T13:59:14Z</time></trkpt><trkpt lat="40.52728566433408" lon="9.587921298686263"><ele>694.0</ele><time>2026-04-25T13:59:15Z</time></trkpt><trkpt lat="40.52727296383015" lon="9.587828807265776"><ele>694.0</ele><time>2026-04-25T13:59:16Z</time></trkpt><trkpt lat="40.52724840790981" lon="9.587720182872756"><ele>694.0</ele><time>2026-04-25T13:59:17Z</time></trkpt><trkpt lat="40.52722803886299" lon="9.587591347208855"><ele>694.0</ele><time>2026-04-25T13:59:18Z</time></trkpt><trkpt lat="40.527204776328496" lon="9.587450192961517"><ele>694.0</ele><time>2026-04-25T13:59:19Z</time></trkpt><trkpt lat="40.52718184207791" lon="9.58731399085608"><ele>693.0</ele><time>2026-04-25T13:59:20Z</time></trkpt><trkpt lat="40.52713405177565" lon="9.587188107088009"><ele>692.0</ele><time>2026-04-25T13:59:21Z</time></trkpt><trkpt lat="40.52707585365039" lon="9.587062302541689"><ele>691.0</ele><time>2026-04-25T13:59:22Z</time></trkpt><trkpt lat="40.52700758378474" lon="9.586944937961674"><ele>690.0</ele><time>2026-04-25T13:59:23Z</time></trkpt><trkpt lat="40.526927251059696" lon="9.58683107771191"><ele>689.0</ele><time>2026-04-25T13:59:24Z</time></trkpt><trkpt lat="40.526844147072765" lon="9.586717327209774"><ele>689.0</ele><time>2026-04-25T13:59:25Z</time></trkpt><trkpt lat="40.52675942289096" lon="9.586598640070324"><ele>689.0</ele><time>2026-04-25T13:59:26Z</time></trkpt><trkpt lat="40.52666277669544" lon="9.586467757299529"><ele>689.0</ele><time>2026-04-25T13:59:27Z</time></trkpt><trkpt lat="40.5265660807398" lon="9.586331967071882"><ele>689.0</ele><time>2026-04-25T13:59:28Z</time></trkpt><trkpt lat="40.52648867053863" lon="9.586191567864933"><ele>685.25</ele><time>2026-04-25T13:59:29Z</time></trkpt><trkpt lat="40.52641738239929" lon="9.586027307459515"><ele>681.5</ele><time>2026-04-25T13:59:30Z</time></trkpt><trkpt lat="40.526357902364765" lon="9.585855835700809"><ele>677.75</ele><time>2026-04-25T13:59:31Z</time></trkpt><trkpt lat="40.52631468288617" lon="9.585687741917496"><ele>674.0</ele><time>2026-04-25T13:59:32Z</time></trkpt><trkpt lat="40.526287106195014" lon="9.58551910616862"><ele>674.0</ele><time>2026-04-25T13:59:33Z</time></trkpt><trkpt lat="40.52626815466318" lon="9.5853577698704"><ele>674.0</ele><time>2026-04-25T13:59:34Z</time></trkpt><trkpt lat="40.52623558116052" lon="9.585212358434834"><ele>674.0</ele><time>2026-04-25T13:59:35Z</time></trkpt><trkpt lat="40.526176204336174" lon="9.585070379164653"><ele>674.0</ele><time>2026-04-25T13:59:36Z</time></trkpt><trkpt lat="40.52609039278025" lon="9.584919367680685"><ele>675.0</ele><time>2026-04-25T13:59:37Z</time></trkpt><trkpt lat="40.525986862403386" lon="9.584745383454596"><ele>676.0</ele><time>2026-04-25T13:59:38Z</time></trkpt><trkpt lat="40.5258714277683" lon="9.584549603593633"><ele>677.0</ele><time>2026-04-25T13:59:39Z</time></trkpt><trkpt lat="40.52575180369435" lon="9.584345023909185"><ele>677.0</ele><time>2026-04-25T13:59:40Z</time></trkpt><trkpt lat="40.52564006583162" lon="9.584159334805245"><ele>677.0</ele><time>2026-04-25T13:59:41Z</time></trkpt><trkpt lat="40.52553726213244" lon="9.583987835611762"><ele>677.0</ele><time>2026-04-25T13:59:42Z</time></trkpt><trkpt lat="40.52543520520859" lon="9.583830181742092"><ele>680.3333333333333</ele><time>2026-04-25T13:59:43Z</time></trkpt><trkpt lat="40.525325652680266" lon="9.583684412236993"><ele>683.6666666666666</ele><time>2026-04-25T13:59:44Z</time></trkpt><trkpt lat="40.52520882369717" lon="9.583543601481509"><ele>687.0</ele><time>2026-04-25T13:59:45Z</time></trkpt><trkpt lat="40.52508980284119" lon="9.583409916097352"><ele>687.0</ele><time>2026-04-25T13:59:46Z</time></trkpt><trkpt lat="40.52496692402736" lon="9.583275236251744"><ele>687.0</ele><time>2026-04-25T13:59:47Z</time></trkpt><trkpt lat="40.524839349696265" lon="9.583132703440084"><ele>687.0</ele><time>2026-04-25T13:59:48Z</time></trkpt><trkpt lat="40.52470516702179" lon="9.582981815970241"><ele>689.6666666666666</ele><time>2026-04-25T13:59:49Z</time></trkpt><trkpt lat="40.524561652454196" lon="9.582819364228811"><ele>692.3333333333333</ele><time>2026-04-25T13:59:50Z</time></trkpt><trkpt lat="40.524431019273536" lon="9.5826700424668"><ele>695.0</ele><time>2026-04-25T13:59:51Z</time></trkpt><trkpt lat="40.5243121898255" lon="9.582528453349026"><ele>695.0</ele><time>2026-04-25T13:59:52Z</time></trkpt><trkpt lat="40.5242152318955" lon="9.582365852093767"><ele>695.0</ele><time>2026-04-25T13:59:53Z</time></trkpt><trkpt lat="40.52411234745183" lon="9.582200768387297"><ele>695.0</ele><time>2026-04-25T13:59:54Z</time></trkpt><trkpt lat="40.52401008346304" lon="9.582029096154113"><ele>686.3333333333333</ele><time>2026-04-25T13:59:55Z</time></trkpt><trkpt lat="40.523919285727466" lon="9.581848821508016"><ele>677.6666666666666</ele><time>2026-04-25T13:59:56Z</time></trkpt><trkpt lat="40.5238375273354" lon="9.58165483110738"><ele>669.0</ele><time>2026-04-25T13:59:57Z</time></trkpt><trkpt lat="40.52375858789511" lon="9.581457575909672"><ele>675.6666666666666</ele><time>2026-04-25T13:59:58Z</time></trkpt><trkpt lat="40.52367141601799" lon="9.581282398990842"><ele>682.3333333333333</ele><time>2026-04-25T13:59:59Z</time></trkpt><trkpt lat="40.523593996933464" lon="9.581110422136591"><ele>689.0</ele><time>2026-04-25T14:00:00Z</time></trkpt><trkpt lat="40.52350119469306" lon="9.580939592190727"><ele>689.0</ele><time>2026-04-25T14:00:01Z</time></trkpt><trkpt lat="40.523399752146645" lon="9.580779302527242"><ele>689.0</ele><time>2026-04-25T14:00:02Z</time></trkpt><trkpt lat="40.52330780604164" lon="9.580615598047622"><ele>689.0</ele><time>2026-04-25T14:00:03Z</time></trkpt><trkpt lat="40.523247270160475" lon="9.580432030449263"><ele>684.75</ele><time>2026-04-25T14:00:04Z</time></trkpt><trkpt lat="40.52316219818229" lon="9.580278756622652"><ele>680.5</ele><time>2026-04-25T14:00:05Z</time></trkpt><trkpt lat="40.523089774427525" lon="9.580130313234253"><ele>676.25</ele><time>2026-04-25T14:00:06Z</time></trkpt><trkpt lat="40.5230032939524" lon="9.580001895415128"><ele>672.0</ele><time>2026-04-25T14:00:07Z</time></trkpt><trkpt lat="40.52291262562719" lon="9.579880508894714"><ele>680.3333333333334</ele><time>2026-04-25T14:00:08Z</time></trkpt><trkpt lat="40.52284095925888" lon="9.579719671600039"><ele>688.6666666666667</ele><time>2026-04-25T14:00:09Z</time></trkpt><trkpt lat="40.5227626604145" lon="9.579536404114869"><ele>697.0</ele><time>2026-04-25T14:00:10Z</time></trkpt><trkpt lat="40.52267736386411" lon="9.579323122683443"><ele>697.0</ele><time>2026-04-25T14:00:11Z</time></trkpt><trkpt lat="40.52259568144637" lon="9.57912683114397"><ele>697.0</ele><time>2026-04-25T14:00:12Z</time></trkpt><trkpt lat="40.52252061496715" lon="9.578949984849913"><ele>697.0</ele><time>2026-04-25T14:00:13Z</time></trkpt><trkpt lat="40.52244657583793" lon="9.57877586662435"><ele>692.5</ele><time>2026-04-25T14:00:14Z</time></trkpt><trkpt lat="40.522358990134734" lon="9.578609751949935"><ele>688.0</ele><time>2026-04-25T14:00:15Z</time></trkpt><trkpt lat="40.522288041638575" lon="9.578435776341465"><ele>683.5</ele><time>2026-04-25T14:00:16Z</time></trkpt><trkpt lat="40.52221842032217" lon="9.578270139452806"><ele>679.0</ele><time>2026-04-25T14:00:17Z</time></trkpt><trkpt lat="40.52215291734952" lon="9.578118979608433"><ele>679.0</ele><time>2026-04-25T14:00:18Z</time></trkpt><trkpt lat="40.52209417990611" lon="9.577980567614016"><ele>679.0</ele><time>2026-04-25T14:00:19Z</time></trkpt><trkpt lat="40.5220361189023" lon="9.57784658597688"><ele>679.0</ele><time>2026-04-25T14:00:20Z</time></trkpt><trkpt lat="40.52197038344008" lon="9.577720303430715"><ele>679.0</ele><time>2026-04-25T14:00:21Z</time></trkpt><trkpt lat="40.521896726406226" lon="9.577603265928255"><ele>684.5</ele><time>2026-04-25T14:00:22Z</time></trkpt><trkpt lat="40.521805812110884" lon="9.577489417747525"><ele>690.0</ele><time>2026-04-25T14:00:23Z</time></trkpt><trkpt lat="40.52171122506648" lon="9.577376794478017"><ele>695.5</ele><time>2026-04-25T14:00:24Z</time></trkpt><trkpt lat="40.52164117113615" lon="9.577252954468076"><ele>701.0</ele><time>2026-04-25T14:00:25Z</time></trkpt><trkpt lat="40.521572190754085" lon="9.577130561231924"><ele>696.0</ele><time>2026-04-25T14:00:26Z</time></trkpt><trkpt lat="40.52151421920053" lon="9.576987429691995"><ele>691.0</ele><time>2026-04-25T14:00:27Z</time></trkpt><trkpt lat="40.52145400735036" lon="9.576832153726405"><ele>686.0</ele><time>2026-04-25T14:00:28Z</time></trkpt><trkpt lat="40.52137729595195" lon="9.57668174905162"><ele>681.0</ele><time>2026-04-25T14:00:29Z</time></trkpt><trkpt lat="40.52130320294814" lon="9.576530989016806"><ele>684.5</ele><time>2026-04-25T14:00:30Z</time></trkpt><trkpt lat="40.521223957914366" lon="9.576388886265857"><ele>688.0</ele><time>2026-04-25T14:00:31Z</time></trkpt><trkpt lat="40.52114166239114" lon="9.576251002185925"><ele>691.5</ele><time>2026-04-25T14:00:32Z</time></trkpt><trkpt lat="40.521068654055334" lon="9.576115721255732"><ele>695.0</ele><time>2026-04-25T14:00:33Z</time></trkpt><trkpt lat="40.52100353556857" lon="9.575980510518146"><ele>695.0</ele><time>2026-04-25T14:00:34Z</time></trkpt><trkpt lat="40.520911624222705" lon="9.575868313957871"><ele>695.0</ele><time>2026-04-25T14:00:35Z</time></trkpt><trkpt lat="40.52080864558449" lon="9.575752985969052"><ele>695.0</ele><time>2026-04-25T14:00:36Z</time></trkpt><trkpt lat="40.52069289529901" lon="9.575635146218618"><ele>695.0</ele><time>2026-04-25T14:00:37Z</time></trkpt><trkpt lat="40.52056924989657" lon="9.575509122784098"><ele>695.0</ele><time>2026-04-25T14:00:38Z</time></trkpt><trkpt lat="40.52045364993044" lon="9.575382102206985"><ele>695.0</ele><time>2026-04-25T14:00:39Z</time></trkpt><trkpt lat="40.52034988246525" lon="9.575250551744796"><ele>695.0</ele><time>2026-04-25T14:00:40Z</time></trkpt><trkpt lat="40.52025334489453" lon="9.57511709961747"><ele>695.0</ele><time>2026-04-25T14:00:41Z</time></trkpt><trkpt lat="40.52016590737842" lon="9.574980628124818"><ele>694.25</ele><time>2026-04-25T14:00:42Z</time></trkpt><trkpt lat="40.520087222979434" lon="9.574834401110271"><ele>693.5</ele><time>2026-04-25T14:00:43Z</time></trkpt><trkpt lat="40.52001079925921" lon="9.574677371651747"><ele>692.75</ele><time>2026-04-25T14:00:44Z</time></trkpt><trkpt lat="40.51994408724168" lon="9.57451736226565"><ele>692.0</ele><time>2026-04-25T14:00:45Z</time></trkpt><trkpt lat="40.51988292454505" lon="9.57435957917951"><ele>692.0</ele><time>2026-04-25T14:00:46Z</time></trkpt><trkpt lat="40.51981942889396" lon="9.574196966034048"><ele>692.0</ele><time>2026-04-25T14:00:47Z</time></trkpt><trkpt lat="40.519756059707305" lon="9.57403987040504"><ele>692.0</ele><time>2026-04-25T14:00:48Z</time></trkpt><trkpt lat="40.51969352863565" lon="9.573877680344529"><ele>692.0</ele><time>2026-04-25T14:00:49Z</time></trkpt><trkpt lat="40.51963189191627" lon="9.573717223348815"><ele>687.25</ele><time>2026-04-25T14:00:50Z</time></trkpt><trkpt lat="40.51957209187228" lon="9.573560860348138"><ele>682.5</ele><time>2026-04-25T14:00:51Z</time></trkpt><trkpt lat="40.51951299441845" lon="9.573406365156364"><ele>677.75</ele><time>2026-04-25T14:00:52Z</time></trkpt><trkpt lat="40.51945603731914" lon="9.573265519561089"><ele>673.0</ele><time>2026-04-25T14:00:53Z</time></trkpt><trkpt lat="40.51940095626564" lon="9.573131832344902"><ele>678.5</ele><time>2026-04-25T14:00:54Z</time></trkpt><trkpt lat="40.51934447589225" lon="9.572989847810959"><ele>684.0</ele><time>2026-04-25T14:00:55Z</time></trkpt><trkpt lat="40.51928247799124" lon="9.572841347374391"><ele>689.5</ele><time>2026-04-25T14:00:56Z</time></trkpt><trkpt lat="40.51922505177932" lon="9.572693607970894"><ele>695.0</ele><time>2026-04-25T14:00:57Z</time></trkpt><trkpt lat="40.51916455006115" lon="9.572541803129553"><ele>695.0</ele><time>2026-04-25T14:00:58Z</time></trkpt><trkpt lat="40.51910877954989" lon="9.572388885116988"><ele>695.0</ele><time>2026-04-25T14:00:59Z</time></trkpt><trkpt lat="40.51904564181018" lon="9.572237396127864"><ele>695.0</ele><time>2026-04-25T14:01:00Z</time></trkpt><trkpt lat="40.51898144453629" lon="9.572080482060237"><ele>695.0</ele><time>2026-04-25T14:01:01Z</time></trkpt><trkpt lat="40.518919479030494" lon="9.571924414669844"><ele>691.75</ele><time>2026-04-25T14:01:02Z</time></trkpt><trkpt lat="40.51885965197775" lon="9.571772477331306"><ele>688.5</ele><time>2026-04-25T14:01:03Z</time></trkpt><trkpt lat="40.51880312414702" lon="9.571626259658933"><ele>685.25</ele><time>2026-04-25T14:01:04Z</time></trkpt><trkpt lat="40.51875049096421" lon="9.5714847318957"><ele>682.0</ele><time>2026-04-25T14:01:05Z</time></trkpt><trkpt lat="40.51871278961122" lon="9.57132811467386"><ele>687.5</ele><time>2026-04-25T14:01:06Z</time></trkpt><trkpt lat="40.51865389047413" lon="9.571184952890736"><ele>693.0</ele><time>2026-04-25T14:01:07Z</time></trkpt><trkpt lat="40.51860286786262" lon="9.571038781535918"><ele>698.5</ele><time>2026-04-25T14:01:08Z</time></trkpt><trkpt lat="40.51855018702715" lon="9.570895690055025"><ele>704.0</ele><time>2026-04-25T14:01:09Z</time></trkpt><trkpt lat="40.518488926878184" lon="9.570757052742028"><ele>704.0</ele><time>2026-04-25T14:01:10Z</time></trkpt><trkpt lat="40.51842400131551" lon="9.570623115340206"><ele>704.0</ele><time>2026-04-25T14:01:11Z</time></trkpt><trkpt lat="40.51835358374897" lon="9.57049259190002"><ele>704.0</ele><time>2026-04-25T14:01:12Z</time></trkpt><trkpt lat="40.518287305821296" lon="9.570362301485924"><ele>704.0</ele><time>2026-04-25T14:01:13Z</time></trkpt><trkpt lat="40.51822203896441" lon="9.57023552276969"><ele>701.0</ele><time>2026-04-25T14:01:14Z</time></trkpt><trkpt lat="40.51815854383835" lon="9.57010593331886"><ele>698.0</ele><time>2026-04-25T14:01:15Z</time></trkpt><trkpt lat="40.518126229896026" lon="9.569938871583362"><ele>695.0</ele><time>2026-04-25T14:01:16Z</time></trkpt><trkpt lat="40.51807662279171" lon="9.569731521292919"><ele>692.0</ele><time>2026-04-25T14:01:17Z</time></trkpt><trkpt lat="40.51805465645721" lon="9.56950930654787"><ele>692.0</ele><time>2026-04-25T14:01:18Z</time></trkpt><trkpt lat="40.51804026740173" lon="9.56931594381184"><ele>692.0</ele><time>2026-04-25T14:01:19Z</time></trkpt><trkpt lat="40.518018304306295" lon="9.56915121940672"><ele>692.0</ele><time>2026-04-25T14:01:20Z</time></trkpt><trkpt lat="40.51798821449377" lon="9.56902886026271"><ele>692.0</ele><time>2026-04-25T14:01:21Z</time></trkpt><trkpt lat="40.51792991604605" lon="9.568935282502215"><ele>693.8</ele><time>2026-04-25T14:01:22Z</time></trkpt><trkpt lat="40.51784310032282" lon="9.56887612570063"><ele>695.6</ele><time>2026-04-25T14:01:23Z</time></trkpt><trkpt lat="40.517749716796885" lon="9.568844176511975"><ele>697.4</ele><time>2026-04-25T14:01:24Z</time></trkpt><trkpt lat="40.51764831508025" lon="9.56886270799946"><ele>699.1999999999999</ele><time>2026-04-25T14:01:25Z</time></trkpt><trkpt lat="40.5175367705828" lon="9.56890468201033"><ele>701.0</ele><time>2026-04-25T14:01:26Z</time></trkpt><trkpt lat="40.51742489743" lon="9.568919961141452"><ele>701.0</ele><time>2026-04-25T14:01:27Z</time></trkpt><trkpt lat="40.517323139448195" lon="9.568844969207552"><ele>701.0</ele><time>2026-04-25T14:01:28Z</time></trkpt><trkpt lat="40.51721961318336" lon="9.568775047749924"><ele>701.0</ele><time>2026-04-25T14:01:29Z</time></trkpt><trkpt lat="40.51710290091877" lon="9.56872626790395"><ele>701.0</ele><time>2026-04-25T14:01:30Z</time></trkpt><trkpt lat="40.51699085187206" lon="9.568663185810879"><ele>697.0</ele><time>2026-04-25T14:01:31Z</time></trkpt><trkpt lat="40.51686872431021" lon="9.56862875290985"><ele>693.0</ele><time>2026-04-25T14:01:32Z</time></trkpt><trkpt lat="40.51675063062176" lon="9.568587468128216"><ele>689.0</ele><time>2026-04-25T14:01:33Z</time></trkpt><trkpt lat="40.51663501388628" lon="9.568548569415624"><ele>685.0</ele><time>2026-04-25T14:01:34Z</time></trkpt><trkpt lat="40.51652274087383" lon="9.568495974851386"><ele>685.0</ele><time>2026-04-25T14:01:35Z</time></trkpt><trkpt lat="40.51641273463059" lon="9.568427309352463"><ele>685.0</ele><time>2026-04-25T14:01:36Z</time></trkpt><trkpt lat="40.51630249054456" lon="9.568355144722336"><ele>685.0</ele><time>2026-04-25T14:01:37Z</time></trkpt><trkpt lat="40.5161918791467" lon="9.568274797472752"><ele>685.0</ele><time>2026-04-25T14:01:38Z</time></trkpt><trkpt lat="40.516081847193774" lon="9.568200439580764"><ele>687.8</ele><time>2026-04-25T14:01:39Z</time></trkpt><trkpt lat="40.515979161560885" lon="9.568126414874193"><ele>690.6</ele><time>2026-04-25T14:01:40Z</time></trkpt><trkpt lat="40.51588588372898" lon="9.568067381303695"><ele>693.4000000000001</ele><time>2026-04-25T14:01:41Z</time></trkpt><trkpt lat="40.51579418405034" lon="9.568012877905018"><ele>696.2</ele><time>2026-04-25T14:01:42Z</time></trkpt><trkpt lat="40.51568770922934" lon="9.567995316309508"><ele>699.0</ele><time>2026-04-25T14:01:43Z</time></trkpt><trkpt lat="40.5155747509894" lon="9.568007384043993"><ele>699.0</ele><time>2026-04-25T14:01:44Z</time></trkpt><trkpt lat="40.515465329308704" lon="9.568027275617801"><ele>699.0</ele><time>2026-04-25T14:01:45Z</time></trkpt><trkpt lat="40.51536729369605" lon="9.567977557655984"><ele>699.0</ele><time>2026-04-25T14:01:46Z</time></trkpt><trkpt lat="40.515267224172504" lon="9.567914676411485"><ele>699.0</ele><time>2026-04-25T14:01:47Z</time></trkpt><trkpt lat="40.51515700323217" lon="9.56785450941723"><ele>699.0</ele><time>2026-04-25T14:01:48Z</time></trkpt><trkpt lat="40.515053457539096" lon="9.56778134870122"><ele>699.6</ele><time>2026-04-25T14:01:49Z</time></trkpt><trkpt lat="40.514950911131905" lon="9.567714662965505"><ele>700.2</ele><time>2026-04-25T14:01:50Z</time></trkpt><trkpt lat="40.51485250782564" lon="9.567653028519647"><ele>700.8000000000001</ele><time>2026-04-25T14:01:51Z</time></trkpt><trkpt lat="40.514759069655824" lon="9.567582758840084"><ele>701.4000000000001</ele><time>2026-04-25T14:01:52Z</time></trkpt><trkpt lat="40.51466639912605" lon="9.567514545706228"><ele>702.0</ele><time>2026-04-25T14:01:53Z</time></trkpt><trkpt lat="40.514569698649495" lon="9.56742602144685"><ele>702.0</ele><time>2026-04-25T14:01:54Z</time></trkpt><trkpt lat="40.51447421350938" lon="9.567324568039068"><ele>702.0</ele><time>2026-04-25T14:01:55Z</time></trkpt><trkpt lat="40.51437769190384" lon="9.56721968615616"><ele>702.0</ele><time>2026-04-25T14:01:56Z</time></trkpt><trkpt lat="40.51428200741324" lon="9.567113437551805"><ele>702.0</ele><time>2026-04-25T14:01:57Z</time></trkpt><trkpt lat="40.5141900314245" lon="9.567002654952296"><ele>694.5</ele><time>2026-04-25T14:01:58Z</time></trkpt><trkpt lat="40.51411501127" lon="9.566869684803002"><ele>687.0</ele><time>2026-04-25T14:01:59Z</time></trkpt><trkpt lat="40.51401656658315" lon="9.566754993648518"><ele>679.5</ele><time>2026-04-25T14:02:00Z</time></trkpt><trkpt lat="40.51393106321605" lon="9.566612555471577"><ele>672.0</ele><time>2026-04-25T14:02:01Z</time></trkpt><trkpt lat="40.51384041075835" lon="9.566461227824806"><ele>672.0</ele><time>2026-04-25T14:02:02Z</time></trkpt><trkpt lat="40.5137493655319" lon="9.566290958188242"><ele>672.0</ele><time>2026-04-25T14:02:03Z</time></trkpt><trkpt lat="40.513644526672465" lon="9.566134559118762"><ele>672.0</ele><time>2026-04-25T14:02:04Z</time></trkpt><trkpt lat="40.513553066837886" lon="9.565968895177063"><ele>673.75</ele><time>2026-04-25T14:02:05Z</time></trkpt><trkpt lat="40.51345511862653" lon="9.5658206225552"><ele>675.5</ele><time>2026-04-25T14:02:06Z</time></trkpt><trkpt lat="40.51336566858304" lon="9.565669142365014"><ele>677.25</ele><time>2026-04-25T14:02:07Z</time></trkpt><trkpt lat="40.513282031426925" lon="9.565515243339629"><ele>679.0</ele><time>2026-04-25T14:02:08Z</time></trkpt><trkpt lat="40.5132025625878" lon="9.565365950153561"><ele>682.25</ele><time>2026-04-25T14:02:09Z</time></trkpt><trkpt lat="40.51312528331273" lon="9.56521832569781"><ele>685.5</ele><time>2026-04-25T14:02:10Z</time></trkpt><trkpt lat="40.513038662283996" lon="9.565078587383729"><ele>688.75</ele><time>2026-04-25T14:02:11Z</time></trkpt><trkpt lat="40.5129409692379" lon="9.564943479375001"><ele>692.0</ele><time>2026-04-25T14:02:12Z</time></trkpt><trkpt lat="40.51283844240829" lon="9.56480414891385"><ele>692.0</ele><time>2026-04-25T14:02:13Z</time></trkpt><trkpt lat="40.51273740466666" lon="9.564665161889092"><ele>692.0</ele><time>2026-04-25T14:02:14Z</time></trkpt><trkpt lat="40.51263719517934" lon="9.564518842563567"><ele>692.0</ele><time>2026-04-25T14:02:15Z</time></trkpt><trkpt lat="40.51253848236812" lon="9.564381110863458"><ele>692.0</ele><time>2026-04-25T14:02:16Z</time></trkpt><trkpt lat="40.51244780201557" lon="9.564243484573979"><ele>684.0</ele><time>2026-04-25T14:02:17Z</time></trkpt><trkpt lat="40.512364859438144" lon="9.564117259528187"><ele>676.0</ele><time>2026-04-25T14:02:18Z</time></trkpt><trkpt lat="40.51228742598143" lon="9.564018388580717"><ele>668.0</ele><time>2026-04-25T14:02:19Z</time></trkpt><trkpt lat="40.512199658998846" lon="9.563944428523229"><ele>660.0</ele><time>2026-04-25T14:02:20Z</time></trkpt><trkpt lat="40.512084471934884" lon="9.563903921726373"><ele>659.8</ele><time>2026-04-25T14:02:21Z</time></trkpt><trkpt lat="40.511977776955376" lon="9.56383096784906"><ele>659.6</ele><time>2026-04-25T14:02:22Z</time></trkpt><trkpt lat="40.51188151373735" lon="9.563759403071472"><ele>659.4000000000001</ele><time>2026-04-25T14:02:23Z</time></trkpt><trkpt lat="40.51180374946059" lon="9.563686701660098"><ele>659.2</ele><time>2026-04-25T14:02:24Z</time></trkpt><trkpt lat="40.51174087433374" lon="9.563600624584717"><ele>659.0</ele><time>2026-04-25T14:02:25Z</time></trkpt><trkpt lat="40.51170307876293" lon="9.563469743655473"><ele>659.0</ele><time>2026-04-25T14:02:26Z</time></trkpt><trkpt lat="40.511645021417394" lon="9.563308293588213"><ele>659.0</ele><time>2026-04-25T14:02:27Z</time></trkpt><trkpt lat="40.51156422006988" lon="9.563159511202773"><ele>659.0</ele><time>2026-04-25T14:02:28Z</time></trkpt><trkpt lat="40.51151182256454" lon="9.562987182593501"><ele>659.0</ele><time>2026-04-25T14:02:29Z</time></trkpt><trkpt lat="40.511453351566395" lon="9.562836410947344"><ele>655.25</ele><time>2026-04-25T14:02:30Z</time></trkpt><trkpt lat="40.51140299437117" lon="9.562681257459824"><ele>651.5</ele><time>2026-04-25T14:02:31Z</time></trkpt><trkpt lat="40.51136828207289" lon="9.562525245339577"><ele>647.75</ele><time>2026-04-25T14:02:32Z</time></trkpt><trkpt lat="40.51132867154158" lon="9.562372442888357"><ele>644.0</ele><time>2026-04-25T14:02:33Z</time></trkpt><trkpt lat="40.51130270000693" lon="9.56221349240519"><ele>644.0</ele><time>2026-04-25T14:02:34Z</time></trkpt><trkpt lat="40.51128265676781" lon="9.562049802712204"><ele>644.0</ele><time>2026-04-25T14:02:35Z</time></trkpt><trkpt lat="40.5112613674708" lon="9.561894482803693"><ele>644.0</ele><time>2026-04-25T14:02:36Z</time></trkpt><trkpt lat="40.51122503456174" lon="9.561744225379751"><ele>644.0</ele><time>2026-04-25T14:02:37Z</time></trkpt><trkpt lat="40.51118421241422" lon="9.561591098066591"><ele>643.4000000000001</ele><time>2026-04-25T14:02:38Z</time></trkpt><trkpt lat="40.51115674884314" lon="9.561451616458733"><ele>642.8</ele><time>2026-04-25T14:02:39Z</time></trkpt><trkpt lat="40.51112805406518" lon="9.561331953271827"><ele>642.2</ele><time>2026-04-25T14:02:40Z</time></trkpt><trkpt lat="40.51109611651832" lon="9.56121557387588"><ele>641.5999999999999</ele><time>2026-04-25T14:02:41Z</time></trkpt><trkpt lat="40.511044870169385" lon="9.561108594164772"><ele>641.0</ele><time>2026-04-25T14:02:42Z</time></trkpt><trkpt lat="40.510972458892766" lon="9.561027783512216"><ele>641.0</ele><time>2026-04-25T14:02:43Z</time></trkpt><trkpt lat="40.51087556714101" lon="9.560971011974381"><ele>641.0</ele><time>2026-04-25T14:02:44Z</time></trkpt><trkpt lat="40.51076089647295" lon="9.560933642196135"><ele>641.0</ele><time>2026-04-25T14:02:45Z</time></trkpt><trkpt lat="40.51064065677085" lon="9.560901260078536"><ele>641.0</ele><time>2026-04-25T14:02:46Z</time></trkpt><trkpt lat="40.510533100551385" lon="9.56085982730156"><ele>641.0</ele><time>2026-04-25T14:02:47Z</time></trkpt><trkpt lat="40.51043737083944" lon="9.560800381630424"><ele>641.0</ele><time>2026-04-25T14:02:48Z</time></trkpt><trkpt lat="40.510365864179605" lon="9.560699705279356"><ele>641.0</ele><time>2026-04-25T14:02:49Z</time></trkpt><trkpt lat="40.51031307864076" lon="9.560593494451059"><ele>641.0</ele><time>2026-04-25T14:02:50Z</time></trkpt><trkpt lat="40.51028465631387" lon="9.560463401782641"><ele>641.0</ele><time>2026-04-25T14:02:51Z</time></trkpt><trkpt lat="40.51023294923239" lon="9.560314078552922"><ele>642.0</ele><time>2026-04-25T14:02:52Z</time></trkpt><trkpt lat="40.51017553067056" lon="9.560221170938393"><ele>643.0</ele><time>2026-04-25T14:02:53Z</time></trkpt><trkpt lat="40.510116557295675" lon="9.560112237223684"><ele>644.0</ele><time>2026-04-25T14:02:54Z</time></trkpt><trkpt lat="40.51007088296463" lon="9.559997393474609"><ele>645.0</ele><time>2026-04-25T14:02:55Z</time></trkpt><trkpt lat="40.510011853309514" lon="9.559910264645673"><ele>646.0</ele><time>2026-04-25T14:02:56Z</time></trkpt><trkpt lat="40.50996302713542" lon="9.559798165185668"><ele>646.0</ele><time>2026-04-25T14:02:57Z</time></trkpt><trkpt lat="40.509928027329444" lon="9.559678658630288"><ele>646.0</ele><time>2026-04-25T14:02:58Z</time></trkpt><trkpt lat="40.50989296188393" lon="9.559574091945631"><ele>646.0</ele><time>2026-04-25T14:02:59Z</time></trkpt><trkpt lat="40.5098797743944" lon="9.559450650749088"><ele>646.0</ele><time>2026-04-25T14:03:00Z</time></trkpt><trkpt lat="40.509850264411185" lon="9.559335966373471"><ele>646.0</ele><time>2026-04-25T14:03:01Z</time></trkpt><trkpt lat="40.509820815912434" lon="9.559221520840547"><ele>644.0</ele><time>2026-04-25T14:03:02Z</time></trkpt><trkpt lat="40.509780470849265" lon="9.559104280512914"><ele>642.0</ele><time>2026-04-25T14:03:03Z</time></trkpt><trkpt lat="40.50971788520494" lon="9.558985202789655"><ele>640.0</ele><time>2026-04-25T14:03:04Z</time></trkpt><trkpt lat="40.5096392072263" lon="9.558875979548233"><ele>638.0</ele><time>2026-04-25T14:03:05Z</time></trkpt><trkpt lat="40.50955299039432" lon="9.558780420328121"><ele>636.0</ele><time>2026-04-25T14:03:06Z</time></trkpt><trkpt lat="40.50949216332695" lon="9.558661857548598"><ele>636.0</ele><time>2026-04-25T14:03:07Z</time></trkpt><trkpt lat="40.509445260221966" lon="9.558530341904396"><ele>636.0</ele><time>2026-04-25T14:03:08Z</time></trkpt><trkpt lat="40.509407636639196" lon="9.55839662032201"><ele>636.0</ele><time>2026-04-25T14:03:09Z</time></trkpt><trkpt lat="40.50936353213797" lon="9.558271203630065"><ele>636.0</ele><time>2026-04-25T14:03:10Z</time></trkpt><trkpt lat="40.50929945622755" lon="9.558163137344104"><ele>636.0</ele><time>2026-04-25T14:03:11Z</time></trkpt><trkpt lat="40.50921655652429" lon="9.55806448188001"><ele>636.0</ele><time>2026-04-25T14:03:12Z</time></trkpt><trkpt lat="40.50912619128846" lon="9.557979652778275"><ele>636.0</ele><time>2026-04-25T14:03:13Z</time></trkpt><trkpt lat="40.509058429948205" lon="9.557868079663855"><ele>636.0</ele><time>2026-04-25T14:03:14Z</time></trkpt><trkpt lat="40.508990303360605" lon="9.557765913627215"><ele>636.0</ele><time>2026-04-25T14:03:15Z</time></trkpt><trkpt lat="40.50890584621698" lon="9.55765492631164"><ele>636.0</ele><time>2026-04-25T14:03:16Z</time></trkpt><trkpt lat="40.50883361915106" lon="9.55751412628577"><ele>638.5</ele><time>2026-04-25T14:03:17Z</time></trkpt><trkpt lat="40.50876674805037" lon="9.55737227251711"><ele>641.0</ele><time>2026-04-25T14:03:18Z</time></trkpt><trkpt lat="40.508708810303276" lon="9.557217865705885"><ele>643.5</ele><time>2026-04-25T14:03:19Z</time></trkpt><trkpt lat="40.508657352737025" lon="9.55705009762443"><ele>646.0</ele><time>2026-04-25T14:03:20Z</time></trkpt><trkpt lat="40.50860913546175" lon="9.556889997274444"><ele>641.0</ele><time>2026-04-25T14:03:21Z</time></trkpt><trkpt lat="40.50856077010176" lon="9.556737690960496"><ele>636.0</ele><time>2026-04-25T14:03:22Z</time></trkpt><trkpt lat="40.50850335379787" lon="9.556601998162067"><ele>631.0</ele><time>2026-04-25T14:03:23Z</time></trkpt><trkpt lat="40.50841781112509" lon="9.556481026148797"><ele>626.0</ele><time>2026-04-25T14:03:24Z</time></trkpt><trkpt lat="40.508344647146096" lon="9.556352464279023"><ele>626.0</ele><time>2026-04-25T14:03:25Z</time></trkpt><trkpt lat="40.508258594610176" lon="9.556239398836793"><ele>626.0</ele><time>2026-04-25T14:03:26Z</time></trkpt><trkpt lat="40.50819991601373" lon="9.556096720615855"><ele>626.0</ele><time>2026-04-25T14:03:27Z</time></trkpt><trkpt lat="40.508172600707674" lon="9.555932667329008"><ele>626.0</ele><time>2026-04-25T14:03:28Z</time></trkpt><trkpt lat="40.508152916525574" lon="9.555762847591325"><ele>622.0</ele><time>2026-04-25T14:03:29Z</time></trkpt><trkpt lat="40.50811436312982" lon="9.555605300028253"><ele>618.0</ele><time>2026-04-25T14:03:30Z</time></trkpt><trkpt lat="40.50805821149116" lon="9.555451489377841"><ele>614.0</ele><time>2026-04-25T14:03:31Z</time></trkpt><trkpt lat="40.50799092257412" lon="9.555301175936192"><ele>610.0</ele><time>2026-04-25T14:03:32Z</time></trkpt><trkpt lat="40.50795588705497" lon="9.555130220145504"><ele>612.75</ele><time>2026-04-25T14:03:33Z</time></trkpt><trkpt lat="40.50789783563186" lon="9.554966546046261"><ele>615.5</ele><time>2026-04-25T14:03:34Z</time></trkpt><trkpt lat="40.50786249717477" lon="9.55478944889383"><ele>618.25</ele><time>2026-04-25T14:03:35Z</time></trkpt><trkpt lat="40.50780655357458" lon="9.554628321032677"><ele>621.0</ele><time>2026-04-25T14:03:36Z</time></trkpt><trkpt lat="40.50775997533763" lon="9.55446325266284"><ele>621.0</ele><time>2026-04-25T14:03:37Z</time></trkpt><trkpt lat="40.507711101726976" lon="9.55430251603121"><ele>621.0</ele><time>2026-04-25T14:03:38Z</time></trkpt><trkpt lat="40.50766921850957" lon="9.554152018091376"><ele>621.0</ele><time>2026-04-25T14:03:39Z</time></trkpt><trkpt lat="40.50765947851697" lon="9.553987328991276"><ele>621.0</ele><time>2026-04-25T14:03:40Z</time></trkpt><trkpt lat="40.50765114742336" lon="9.553829903172181"><ele>617.0</ele><time>2026-04-25T14:03:41Z</time></trkpt><trkpt lat="40.50762772823197" lon="9.553678444425149"><ele>613.0</ele><time>2026-04-25T14:03:42Z</time></trkpt><trkpt lat="40.50761334188198" lon="9.55352852136628"><ele>609.0</ele><time>2026-04-25T14:03:43Z</time></trkpt><trkpt lat="40.50757192476549" lon="9.553378452238963"><ele>605.0</ele><time>2026-04-25T14:03:44Z</time></trkpt><trkpt lat="40.50751365592564" lon="9.553222959318573"><ele>605.0</ele><time>2026-04-25T14:03:45Z</time></trkpt><trkpt lat="40.507446380301104" lon="9.55307209910078"><ele>605.0</ele><time>2026-04-25T14:03:46Z</time></trkpt><trkpt lat="40.50738129507807" lon="9.552912064335347"><ele>605.0</ele><time>2026-04-25T14:03:47Z</time></trkpt><trkpt lat="40.50730671632225" lon="9.552753779374717"><ele>605.0</ele><time>2026-04-25T14:03:48Z</time></trkpt><trkpt lat="40.5072255087524" lon="9.552597734688034"><ele>605.5</ele><time>2026-04-25T14:03:49Z</time></trkpt><trkpt lat="40.507140904353065" lon="9.552442197189151"><ele>606.0</ele><time>2026-04-25T14:03:50Z</time></trkpt><trkpt lat="40.507063572923684" lon="9.55227916062685"><ele>606.5</ele><time>2026-04-25T14:03:51Z</time></trkpt><trkpt lat="40.506975380920714" lon="9.5521283343363"><ele>607.0</ele><time>2026-04-25T14:03:52Z</time></trkpt><trkpt lat="40.50689484285712" lon="9.55197904684186"><ele>607.0</ele><time>2026-04-25T14:03:53Z</time></trkpt><trkpt lat="40.50681728097478" lon="9.55183611132102"><ele>607.0</ele><time>2026-04-25T14:03:54Z</time></trkpt><trkpt lat="40.50674905235088" lon="9.55170168261017"><ele>607.0</ele><time>2026-04-25T14:03:55Z</time></trkpt><trkpt lat="40.506681073734235" lon="9.551578733921266"><ele>607.0</ele><time>2026-04-25T14:03:56Z</time></trkpt><trkpt lat="40.50661904488564" lon="9.551455273233744"><ele>607.0</ele><time>2026-04-25T14:03:57Z</time></trkpt><trkpt lat="40.50657194236825" lon="9.551332038787999"><ele>607.0</ele><time>2026-04-25T14:03:58Z</time></trkpt><trkpt lat="40.50654571803415" lon="9.551189009701314"><ele>607.0</ele><time>2026-04-25T14:03:59Z</time></trkpt><trkpt lat="40.50652106402018" lon="9.551054690997901"><ele>607.0</ele><time>2026-04-25T14:04:00Z</time></trkpt><trkpt lat="40.506461761951805" lon="9.550961819548949"><ele>607.0</ele><time>2026-04-25T14:04:01Z</time></trkpt><trkpt lat="40.50636473633496" lon="9.550908619474496"><ele>611.0</ele><time>2026-04-25T14:04:02Z</time></trkpt><trkpt lat="40.50624642004309" lon="9.550889381525067"><ele>615.0</ele><time>2026-04-25T14:04:03Z</time></trkpt><trkpt lat="40.506143800728914" lon="9.550832577673818"><ele>619.0</ele><time>2026-04-25T14:04:04Z</time></trkpt><trkpt lat="40.50605724575899" lon="9.550761906806605"><ele>623.0</ele><time>2026-04-25T14:04:05Z</time></trkpt><trkpt lat="40.50602849111027" lon="9.550596187919849"><ele>623.0</ele><time>2026-04-25T14:04:06Z</time></trkpt><trkpt lat="40.505938560112845" lon="9.550454814844699"><ele>623.0</ele><time>2026-04-25T14:04:07Z</time></trkpt><trkpt lat="40.50583289442312" lon="9.550315538528919"><ele>623.0</ele><time>2026-04-25T14:04:08Z</time></trkpt><trkpt lat="40.50569843254705" lon="9.550178647896818"><ele>629.25</ele><time>2026-04-25T14:04:09Z</time></trkpt><trkpt lat="40.50562751456176" lon="9.55001473561565"><ele>635.5</ele><time>2026-04-25T14:04:10Z</time></trkpt><trkpt lat="40.5055517847327" lon="9.549858899736282"><ele>641.75</ele><time>2026-04-25T14:04:11Z</time></trkpt><trkpt lat="40.50545833875157" lon="9.5497448693209"><ele>648.0</ele><time>2026-04-25T14:04:12Z</time></trkpt><trkpt lat="40.505368569784" lon="9.549633449881222"><ele>640.75</ele><time>2026-04-25T14:04:13Z</time></trkpt><trkpt lat="40.50527107585013" lon="9.5495309570829"><ele>633.5</ele><time>2026-04-25T14:04:14Z</time></trkpt><trkpt lat="40.50520372819676" lon="9.549409855310087"><ele>626.25</ele><time>2026-04-25T14:04:15Z</time></trkpt><trkpt lat="40.5051476892959" lon="9.549286721388818"><ele>619.0</ele><time>2026-04-25T14:04:16Z</time></trkpt><trkpt lat="40.50509129045608" lon="9.549160557107042"><ele>619.0</ele><time>2026-04-25T14:04:17Z</time></trkpt><trkpt lat="40.50503814817211" lon="9.54902445391153"><ele>619.0</ele><time>2026-04-25T14:04:18Z</time></trkpt><trkpt lat="40.50499074043341" lon="9.548889247054973"><ele>619.0</ele><time>2026-04-25T14:04:19Z</time></trkpt><trkpt lat="40.50495533619918" lon="9.548750915791459"><ele>619.0</ele><time>2026-04-25T14:04:20Z</time></trkpt><trkpt lat="40.50491797819651" lon="9.548616087075926"><ele>614.4</ele><time>2026-04-25T14:04:21Z</time></trkpt><trkpt lat="40.504896220133794" lon="9.548471691808903"><ele>609.8</ele><time>2026-04-25T14:04:22Z</time></trkpt><trkpt lat="40.504872580110174" lon="9.548344481311075"><ele>605.2</ele><time>2026-04-25T14:04:23Z</time></trkpt><trkpt lat="40.50482772407616" lon="9.548237766856738"><ele>600.6</ele><time>2026-04-25T14:04:24Z</time></trkpt><trkpt lat="40.504748853026605" lon="9.548144316675296"><ele>596.0</ele><time>2026-04-25T14:04:25Z</time></trkpt><trkpt lat="40.504634558500975" lon="9.548055299573534"><ele>601.75</ele><time>2026-04-25T14:04:26Z</time></trkpt><trkpt lat="40.50453013915016" lon="9.547941609715956"><ele>607.5</ele><time>2026-04-25T14:04:27Z</time></trkpt><trkpt lat="40.50443139478702" lon="9.54785415969258"><ele>613.25</ele><time>2026-04-25T14:04:28Z</time></trkpt><trkpt lat="40.50436757992765" lon="9.547737660892366"><ele>619.0</ele><time>2026-04-25T14:04:29Z</time></trkpt><trkpt lat="40.504307163126846" lon="9.54762316307927"><ele>619.0</ele><time>2026-04-25T14:04:30Z</time></trkpt><trkpt lat="40.504236446588465" lon="9.547508700616577"><ele>619.0</ele><time>2026-04-25T14:04:31Z</time></trkpt><trkpt lat="40.50419517323723" lon="9.5473762836011"><ele>619.0</ele><time>2026-04-25T14:04:32Z</time></trkpt><trkpt lat="40.5041790218769" lon="9.547224410160307"><ele>619.0</ele><time>2026-04-25T14:04:33Z</time></trkpt><trkpt lat="40.504131265130624" lon="9.547084221346697"><ele>613.0</ele><time>2026-04-25T14:04:34Z</time></trkpt><trkpt lat="40.504092813357346" lon="9.546936714097354"><ele>607.0</ele><time>2026-04-25T14:04:35Z</time></trkpt><trkpt lat="40.504039048779056" lon="9.546801993027206"><ele>601.0</ele><time>2026-04-25T14:04:36Z</time></trkpt><trkpt lat="40.503974514990865" lon="9.546679604161277"><ele>595.0</ele><time>2026-04-25T14:04:37Z</time></trkpt><trkpt lat="40.50389678249016" lon="9.546568025639683"><ele>595.0</ele><time>2026-04-25T14:04:38Z</time></trkpt><trkpt lat="40.50379051347986" lon="9.546462413204411"><ele>595.0</ele><time>2026-04-25T14:04:39Z</time></trkpt><trkpt lat="40.50367487171344" lon="9.54636904439827"><ele>595.0</ele><time>2026-04-25T14:04:40Z</time></trkpt><trkpt lat="40.503588935121556" lon="9.546257566732695"><ele>595.0</ele><time>2026-04-25T14:04:41Z</time></trkpt><trkpt lat="40.50351402908421" lon="9.546147617231057"><ele>598.5</ele><time>2026-04-25T14:04:42Z</time></trkpt><trkpt lat="40.50344815069218" lon="9.546014178715335"><ele>602.0</ele><time>2026-04-25T14:04:43Z</time></trkpt><trkpt lat="40.50337952640336" lon="9.5458749741181"><ele>605.5</ele><time>2026-04-25T14:04:44Z</time></trkpt><trkpt lat="40.5033139527226" lon="9.545741957743447"><ele>609.0</ele><time>2026-04-25T14:04:45Z</time></trkpt><trkpt lat="40.50325607132713" lon="9.545621289956951"><ele>609.0</ele><time>2026-04-25T14:04:46Z</time></trkpt><trkpt lat="40.50322335428805" lon="9.545515007429811"><ele>609.0</ele><time>2026-04-25T14:04:47Z</time></trkpt><trkpt lat="40.503190716081086" lon="9.545413911930082"><ele>609.0</ele><time>2026-04-25T14:04:48Z</time></trkpt><trkpt lat="40.503236820481796" lon="9.545299546966586"><ele>609.0</ele><time>2026-04-25T14:04:49Z</time></trkpt><trkpt lat="40.50324901731091" lon="9.545166026096942"><ele>609.0</ele><time>2026-04-25T14:04:50Z</time></trkpt><trkpt lat="40.50326269602151" lon="9.54503036942996"><ele>608.0</ele><time>2026-04-25T14:04:51Z</time></trkpt><trkpt lat="40.50323755982115" lon="9.544876954388009"><ele>607.0</ele><time>2026-04-25T14:04:52Z</time></trkpt><trkpt lat="40.50319004800541" lon="9.544721173783351"><ele>606.0</ele><time>2026-04-25T14:04:53Z</time></trkpt><trkpt lat="40.5031786223549" lon="9.5445665952586"><ele>605.0</ele><time>2026-04-25T14:04:54Z</time></trkpt><trkpt lat="40.50317117225118" lon="9.54442967164445"><ele>605.0</ele><time>2026-04-25T14:04:55Z</time></trkpt><trkpt lat="40.503182829669896" lon="9.54430207288635"><ele>605.0</ele><time>2026-04-25T14:04:56Z</time></trkpt><trkpt lat="40.50319428559691" lon="9.544177661842896"><ele>605.0</ele><time>2026-04-25T14:04:57Z</time></trkpt><trkpt lat="40.50319165805308" lon="9.54407411935116"><ele>605.0</ele><time>2026-04-25T14:04:58Z</time></trkpt><trkpt lat="40.50318865835055" lon="9.54398699883816"><ele>605.0</ele><time>2026-04-25T14:04:59Z</time></trkpt><trkpt lat="40.50317915087774" lon="9.543902221205949"><ele>605.0</ele><time>2026-04-25T14:05:00Z</time></trkpt><trkpt lat="40.50316213285312" lon="9.543814108050443"><ele>605.0</ele><time>2026-04-25T14:05:01Z</time></trkpt><trkpt lat="40.503122560510185" lon="9.543748956405103"><ele>605.0</ele><time>2026-04-25T14:05:02Z</time></trkpt><trkpt lat="40.50305071354733" lon="9.543704532579207"><ele>605.0</ele><time>2026-04-25T14:05:03Z</time></trkpt><trkpt lat="40.50296721065802" lon="9.543654504928188"><ele>605.0</ele><time>2026-04-25T14:05:04Z</time></trkpt><trkpt lat="40.50287450873287" lon="9.543575677290216"><ele>605.0</ele><time>2026-04-25T14:05:05Z</time></trkpt><trkpt lat="40.50276451179803" lon="9.543549346879821"><ele>604.2</ele><time>2026-04-25T14:05:06Z</time></trkpt><trkpt lat="40.50266797999272" lon="9.543505378683928"><ele>603.4</ele><time>2026-04-25T14:05:07Z</time></trkpt><trkpt lat="40.50257259531449" lon="9.543433768175037"><ele>602.6</ele><time>2026-04-25T14:05:08Z</time></trkpt><trkpt lat="40.50246581939463" lon="9.543424668055307"><ele>601.8</ele><time>2026-04-25T14:05:09Z</time></trkpt><trkpt lat="40.50235449846853" lon="9.543415358977523"><ele>601.0</ele><time>2026-04-25T14:05:10Z</time></trkpt><trkpt lat="40.50221723642593" lon="9.543429491845359"><ele>601.0</ele><time>2026-04-25T14:05:11Z</time></trkpt><trkpt lat="40.50209352867584" lon="9.543418594245956"><ele>601.0</ele><time>2026-04-25T14:05:12Z</time></trkpt><trkpt lat="40.50198391082214" lon="9.543383463534022"><ele>601.0</ele><time>2026-04-25T14:05:13Z</time></trkpt><trkpt lat="40.5018875661846" lon="9.543336472681736"><ele>601.0</ele><time>2026-04-25T14:05:14Z</time></trkpt><trkpt lat="40.50179912098129" lon="9.543268830392766"><ele>601.0</ele><time>2026-04-25T14:05:15Z</time></trkpt><trkpt lat="40.50174788577044" lon="9.543159557106993"><ele>600.8</ele><time>2026-04-25T14:05:16Z</time></trkpt><trkpt lat="40.501716699834034" lon="9.543027812294191"><ele>600.6</ele><time>2026-04-25T14:05:17Z</time></trkpt><trkpt lat="40.501681583091774" lon="9.542890159550685"><ele>600.4</ele><time>2026-04-25T14:05:18Z</time></trkpt><trkpt lat="40.501629327845514" lon="9.542755142463513"><ele>600.2</ele><time>2026-04-25T14:05:19Z</time></trkpt><trkpt lat="40.50159518259381" lon="9.542625907064078"><ele>600.0</ele><time>2026-04-25T14:05:20Z</time></trkpt><trkpt lat="40.50156178658092" lon="9.54251269302584"><ele>600.0</ele><time>2026-04-25T14:05:21Z</time></trkpt><trkpt lat="40.501514684161265" lon="9.542409779162721"><ele>600.0</ele><time>2026-04-25T14:05:22Z</time></trkpt><trkpt lat="40.501430405727206" lon="9.542315784030658"><ele>600.0</ele><time>2026-04-25T14:05:23Z</time></trkpt><trkpt lat="40.501325472062454" lon="9.542240348477314"><ele>600.0</ele><time>2026-04-25T14:05:24Z</time></trkpt><trkpt lat="40.501216825917304" lon="9.542190801089173"><ele>600.0</ele><time>2026-04-25T14:05:25Z</time></trkpt><trkpt lat="40.501115300475306" lon="9.542151607206371"><ele>603.75</ele><time>2026-04-25T14:05:26Z</time></trkpt><trkpt lat="40.50100713480325" lon="9.542141490688165"><ele>607.5</ele><time>2026-04-25T14:05:27Z</time></trkpt><trkpt lat="40.50089195646073" lon="9.542155746899924"><ele>611.25</ele><time>2026-04-25T14:05:28Z</time></trkpt><trkpt lat="40.50077527331134" lon="9.542197320576722"><ele>615.0</ele><time>2026-04-25T14:05:29Z</time></trkpt><trkpt lat="40.50066786295005" lon="9.542243790297395"><ele>615.0</ele><time>2026-04-25T14:05:30Z</time></trkpt><trkpt lat="40.500572870574224" lon="9.54229705561266"><ele>615.0</ele><time>2026-04-25T14:05:31Z</time></trkpt><trkpt lat="40.50047985138346" lon="9.542329558611518"><ele>615.0</ele><time>2026-04-25T14:05:32Z</time></trkpt><trkpt lat="40.500395115303164" lon="9.542283633284582"><ele>615.0</ele><time>2026-04-25T14:05:33Z</time></trkpt><trkpt lat="40.50033052530773" lon="9.542208269412406"><ele>615.0</ele><time>2026-04-25T14:05:34Z</time></trkpt><trkpt lat="40.50027589761439" lon="9.542110217369869"><ele>612.0</ele><time>2026-04-25T14:05:35Z</time></trkpt><trkpt lat="40.50020723750437" lon="9.542013674478309"><ele>609.0</ele><time>2026-04-25T14:05:36Z</time></trkpt><trkpt lat="40.500146659890895" lon="9.541910322890955"><ele>606.0</ele><time>2026-04-25T14:05:37Z</time></trkpt><trkpt lat="40.50008384310805" lon="9.541817201210797"><ele>603.0</ele><time>2026-04-25T14:05:38Z</time></trkpt><trkpt lat="40.50003431697477" lon="9.541722787466753"><ele>600.0</ele><time>2026-04-25T14:05:39Z</time></trkpt><trkpt lat="40.49998481875502" lon="9.541635483643573"><ele>600.0</ele><time>2026-04-25T14:05:40Z</time></trkpt><trkpt lat="40.49992568847755" lon="9.541556153310937"><ele>600.0</ele><time>2026-04-25T14:05:41Z</time></trkpt><trkpt lat="40.49986177624626" lon="9.541484454363863"><ele>600.0</ele><time>2026-04-25T14:05:42Z</time></trkpt><trkpt lat="40.49978145603173" lon="9.54141192454708"><ele>600.0</ele><time>2026-04-25T14:05:43Z</time></trkpt><trkpt lat="40.499661130390066" lon="9.54136415621832"><ele>600.0</ele><time>2026-04-25T14:05:44Z</time></trkpt><trkpt lat="40.49951922029304" lon="9.541333576463032"><ele>605.0</ele><time>2026-04-25T14:05:45Z</time></trkpt><trkpt lat="40.49936572667644" lon="9.541318996685046"><ele>610.0</ele><time>2026-04-25T14:05:46Z</time></trkpt><trkpt lat="40.49921581196243" lon="9.541333012420838"><ele>615.0</ele><time>2026-04-25T14:05:47Z</time></trkpt><trkpt lat="40.49908080451264" lon="9.541328644249306"><ele>620.0</ele><time>2026-04-25T14:05:48Z</time></trkpt><trkpt lat="40.4989570582059" lon="9.541307987285904"><ele>620.0</ele><time>2026-04-25T14:05:49Z</time></trkpt><trkpt lat="40.49884780786045" lon="9.54124244265716"><ele>620.0</ele><time>2026-04-25T14:05:50Z</time></trkpt><trkpt lat="40.49874437538925" lon="9.54115162980166"><ele>620.0</ele><time>2026-04-25T14:05:51Z</time></trkpt><trkpt lat="40.49861486554193" lon="9.541055650197174"><ele>620.0</ele><time>2026-04-25T14:05:52Z</time></trkpt><trkpt lat="40.4984612826612" lon="9.540980800545642"><ele>615.75</ele><time>2026-04-25T14:05:53Z</time></trkpt><trkpt lat="40.49832252522419" lon="9.540928526331726"><ele>611.5</ele><time>2026-04-25T14:05:54Z</time></trkpt><trkpt lat="40.49819193608029" lon="9.540876250319664"><ele>607.25</ele><time>2026-04-25T14:05:55Z</time></trkpt><trkpt lat="40.498073428923085" lon="9.540832379532425"><ele>603.0</ele><time>2026-04-25T14:05:56Z</time></trkpt><trkpt lat="40.497958476395176" lon="9.540797295150886"><ele>600.1999999999999</ele><time>2026-04-25T14:05:57Z</time></trkpt><trkpt lat="40.497850789216834" lon="9.540748257354434"><ele>597.4</ele><time>2026-04-25T14:05:58Z</time></trkpt><trkpt lat="40.49776561196378" lon="9.540670405297146"><ele>594.5999999999999</ele><time>2026-04-25T14:05:59Z</time></trkpt><trkpt lat="40.4977109666267" lon="9.540566030467012"><ele>591.8</ele><time>2026-04-25T14:06:00Z</time></trkpt><trkpt lat="40.497672517856245" lon="9.54044922439288"><ele>589.0</ele><time>2026-04-25T14:06:01Z</time></trkpt><trkpt lat="40.49759958907698" lon="9.540366559531133"><ele>589.0</ele><time>2026-04-25T14:06:02Z</time></trkpt><trkpt lat="40.49749980398797" lon="9.540345264077187"><ele>589.0</ele><time>2026-04-25T14:06:03Z</time></trkpt><trkpt lat="40.497387465727506" lon="9.540327072047269"><ele>589.0</ele><time>2026-04-25T14:06:04Z</time></trkpt><trkpt lat="40.49728781835273" lon="9.540300089176176"><ele>589.0</ele><time>2026-04-25T14:06:05Z</time></trkpt><trkpt lat="40.49719341567783" lon="9.540264194330822"><ele>589.0</ele><time>2026-04-25T14:06:06Z</time></trkpt><trkpt lat="40.497111078675296" lon="9.540209046334468"><ele>594.6</ele><time>2026-04-25T14:06:07Z</time></trkpt><trkpt lat="40.49704700493896" lon="9.540119120164546"><ele>600.2</ele><time>2026-04-25T14:06:08Z</time></trkpt><trkpt lat="40.497011992711926" lon="9.539987656499315"><ele>605.8000000000001</ele><time>2026-04-25T14:06:09Z</time></trkpt><trkpt lat="40.4969900266471" lon="9.539856344758581"><ele>611.4</ele><time>2026-04-25T14:06:10Z</time></trkpt><trkpt lat="40.49694127414756" lon="9.539754295443538"><ele>617.0</ele><time>2026-04-25T14:06:11Z</time></trkpt><trkpt lat="40.49686095854563" lon="9.53968610624528"><ele>617.0</ele><time>2026-04-25T14:06:12Z</time></trkpt><trkpt lat="40.496754580571945" lon="9.539657043814321"><ele>617.0</ele><time>2026-04-25T14:06:13Z</time></trkpt><trkpt lat="40.49665314865419" lon="9.539616971287474"><ele>617.0</ele><time>2026-04-25T14:06:14Z</time></trkpt><trkpt lat="40.49657018868587" lon="9.539522851452002"><ele>617.0</ele><time>2026-04-25T14:06:15Z</time></trkpt><trkpt lat="40.496494243038754" lon="9.539385288069182"><ele>619.5</ele><time>2026-04-25T14:06:16Z</time></trkpt><trkpt lat="40.49643136638329" lon="9.539264024482039"><ele>622.0</ele><time>2026-04-25T14:06:17Z</time></trkpt><trkpt lat="40.49634957609821" lon="9.539155590314955"><ele>624.5</ele><time>2026-04-25T14:06:18Z</time></trkpt><trkpt lat="40.49625149661579" lon="9.539060297634512"><ele>627.0</ele><time>2026-04-25T14:06:19Z</time></trkpt><trkpt lat="40.49614947088051" lon="9.538975893727423"><ele>627.0</ele><time>2026-04-25T14:06:20Z</time></trkpt><trkpt lat="40.49605967111904" lon="9.538885077222462"><ele>627.0</ele><time>2026-04-25T14:06:21Z</time></trkpt><trkpt lat="40.495980954403535" lon="9.538768320578592"><ele>627.0</ele><time>2026-04-25T14:06:22Z</time></trkpt><trkpt lat="40.495913289208104" lon="9.538642451940717"><ele>627.0</ele><time>2026-04-25T14:06:23Z</time></trkpt><trkpt lat="40.4958425823903" lon="9.538531380507136"><ele>621.0</ele><time>2026-04-25T14:06:24Z</time></trkpt><trkpt lat="40.49575983369998" lon="9.538442738587413"><ele>615.0</ele><time>2026-04-25T14:06:25Z</time></trkpt><trkpt lat="40.49567977250106" lon="9.538361683140247"><ele>609.0</ele><time>2026-04-25T14:06:26Z</time></trkpt><trkpt lat="40.495616827586396" lon="9.538274465167166"><ele>603.0</ele><time>2026-04-25T14:06:27Z</time></trkpt><trkpt lat="40.495572011429694" lon="9.53816306217944"><ele>597.0</ele><time>2026-04-25T14:06:28Z</time></trkpt><trkpt lat="40.49555902587701" lon="9.538028240954928"><ele>597.0</ele><time>2026-04-25T14:06:29Z</time></trkpt><trkpt lat="40.495571577215934" lon="9.53789605317959"><ele>597.0</ele><time>2026-04-25T14:06:30Z</time></trkpt><trkpt lat="40.49559244017789" lon="9.537764406749243"><ele>597.0</ele><time>2026-04-25T14:06:31Z</time></trkpt><trkpt lat="40.49559198873246" lon="9.53764449804131"><ele>597.0</ele><time>2026-04-25T14:06:32Z</time></trkpt><trkpt lat="40.4956022920126" lon="9.537526643699932"><ele>597.0</ele><time>2026-04-25T14:06:33Z</time></trkpt><trkpt lat="40.49554735372646" lon="9.537433970034025"><ele>599.25</ele><time>2026-04-25T14:06:34Z</time></trkpt><trkpt lat="40.49546985295238" lon="9.537361148305003"><ele>601.5</ele><time>2026-04-25T14:06:35Z</time></trkpt><trkpt lat="40.49536724705666" lon="9.537282687672366"><ele>603.75</ele><time>2026-04-25T14:06:36Z</time></trkpt><trkpt lat="40.495282462390776" lon="9.53714149868915"><ele>606.0</ele><time>2026-04-25T14:06:37Z</time></trkpt><trkpt lat="40.49520984595897" lon="9.537003831404425"><ele>606.0</ele><time>2026-04-25T14:06:38Z</time></trkpt><trkpt lat="40.49513439991223" lon="9.536881960728468"><ele>606.0</ele><time>2026-04-25T14:06:39Z</time></trkpt><trkpt lat="40.49512033634905" lon="9.53672826845847"><ele>606.0</ele><time>2026-04-25T14:06:40Z</time></trkpt><trkpt lat="40.49509758898212" lon="9.536571298221128"><ele>606.0</ele><time>2026-04-25T14:06:41Z</time></trkpt><trkpt lat="40.495055248139074" lon="9.536431897518161"><ele>606.0</ele><time>2026-04-25T14:06:42Z</time></trkpt><trkpt lat="40.49502470581376" lon="9.536290397592094"><ele>606.0</ele><time>2026-04-25T14:06:43Z</time></trkpt><trkpt lat="40.494993369213276" lon="9.536155649608048"><ele>606.0</ele><time>2026-04-25T14:06:44Z</time></trkpt><trkpt lat="40.494964724381994" lon="9.536027385887456"><ele>606.0</ele><time>2026-04-25T14:06:45Z</time></trkpt><trkpt lat="40.49489244807172" lon="9.535913540488083"><ele>606.0</ele><time>2026-04-25T14:06:46Z</time></trkpt><trkpt lat="40.49479241568626" lon="9.535851235243172"><ele>608.4</ele><time>2026-04-25T14:06:47Z</time></trkpt><trkpt lat="40.4946960252545" lon="9.535794817770256"><ele>610.8</ele><time>2026-04-25T14:06:48Z</time></trkpt><trkpt lat="40.49461368227213" lon="9.535713176706514"><ele>613.1999999999999</ele><time>2026-04-25T14:06:49Z</time></trkpt><trkpt lat="40.49458735201369" lon="9.535572573393342"><ele>615.6</ele><time>2026-04-25T14:06:50Z</time></trkpt><trkpt lat="40.49453384879562" lon="9.535450789216176"><ele>618.0</ele><time>2026-04-25T14:06:51Z</time></trkpt><trkpt lat="40.4944675105029" lon="9.535342283580437"><ele>612.8</ele><time>2026-04-25T14:06:52Z</time></trkpt><trkpt lat="40.49440792313685" lon="9.535239525690047"><ele>607.5999999999999</ele><time>2026-04-25T14:06:53Z</time></trkpt><trkpt lat="40.49434710466026" lon="9.535127390267375"><ele>602.4000000000001</ele><time>2026-04-25T14:06:54Z</time></trkpt><trkpt lat="40.4942480700298" lon="9.535054897780872"><ele>597.2</ele><time>2026-04-25T14:06:55Z</time></trkpt><trkpt lat="40.49414407110937" lon="9.534976456904465"><ele>592.0</ele><time>2026-04-25T14:06:56Z</time></trkpt><trkpt lat="40.49402840056687" lon="9.53489496778242"><ele>592.0</ele><time>2026-04-25T14:06:57Z</time></trkpt><trkpt lat="40.49391395490788" lon="9.534796241909547"><ele>592.0</ele><time>2026-04-25T14:06:58Z</time></trkpt><trkpt lat="40.49380336952612" lon="9.534690722667037"><ele>592.0</ele><time>2026-04-25T14:06:59Z</time></trkpt><trkpt lat="40.49370131720457" lon="9.534590323904395"><ele>592.0</ele><time>2026-04-25T14:07:00Z</time></trkpt><trkpt lat="40.49359995663277" lon="9.534489292673756"><ele>591.5</ele><time>2026-04-25T14:07:01Z</time></trkpt><trkpt lat="40.49349856550627" lon="9.534391174188587"><ele>591.0</ele><time>2026-04-25T14:07:02Z</time></trkpt><trkpt lat="40.49339908337554" lon="9.534294484620446"><ele>590.5</ele><time>2026-04-25T14:07:03Z</time></trkpt><trkpt lat="40.493302826167536" lon="9.53420238135116"><ele>590.0</ele><time>2026-04-25T14:07:04Z</time></trkpt><trkpt lat="40.49321149393345" lon="9.53411466149712"><ele>590.0</ele><time>2026-04-25T14:07:05Z</time></trkpt><trkpt lat="40.49312216684585" lon="9.534030683312276"><ele>590.0</ele><time>2026-04-25T14:07:06Z</time></trkpt><trkpt lat="40.493035081809296" lon="9.533932010148279"><ele>590.0</ele><time>2026-04-25T14:07:07Z</time></trkpt><trkpt lat="40.49294804094026" lon="9.533803289200748"><ele>590.0</ele><time>2026-04-25T14:07:08Z</time></trkpt><trkpt lat="40.49286718344971" lon="9.533644346435493"><ele>592.0</ele><time>2026-04-25T14:07:09Z</time></trkpt><trkpt lat="40.49279729621449" lon="9.533501028534133"><ele>594.0</ele><time>2026-04-25T14:07:10Z</time></trkpt><trkpt lat="40.49272541466805" lon="9.533369036534188"><ele>596.0</ele><time>2026-04-25T14:07:11Z</time></trkpt><trkpt lat="40.492661850460294" lon="9.533236664783338"><ele>598.0</ele><time>2026-04-25T14:07:12Z</time></trkpt><trkpt lat="40.492612699277394" lon="9.533100311669166"><ele>598.0</ele><time>2026-04-25T14:07:13Z</time></trkpt><trkpt lat="40.492591005229166" lon="9.532956653267597"><ele>598.0</ele><time>2026-04-25T14:07:14Z</time></trkpt><trkpt lat="40.492598780161295" lon="9.5328010505467"><ele>598.0</ele><time>2026-04-25T14:07:15Z</time></trkpt><trkpt lat="40.492610925085316" lon="9.53265481182711"><ele>598.0</ele><time>2026-04-25T14:07:16Z</time></trkpt><trkpt lat="40.49259979329094" lon="9.532521119949072"><ele>598.0</ele><time>2026-04-25T14:07:17Z</time></trkpt><trkpt lat="40.49254208258754" lon="9.532402247293692"><ele>595.0</ele><time>2026-04-25T14:07:18Z</time></trkpt><trkpt lat="40.492458764149916" lon="9.532312482169566"><ele>592.0</ele><time>2026-04-25T14:07:19Z</time></trkpt><trkpt lat="40.492365262012406" lon="9.532235915499884"><ele>589.0</ele><time>2026-04-25T14:07:20Z</time></trkpt><trkpt lat="40.4922698692772" lon="9.53216399190365"><ele>586.0</ele><time>2026-04-25T14:07:21Z</time></trkpt><trkpt lat="40.49218537730054" lon="9.53208960279183"><ele>583.0</ele><time>2026-04-25T14:07:22Z</time></trkpt><trkpt lat="40.492102548271006" lon="9.532025832668948"><ele>584.1999999999999</ele><time>2026-04-25T14:07:23Z</time></trkpt><trkpt lat="40.49202628174193" lon="9.53195659566641"><ele>585.4</ele><time>2026-04-25T14:07:24Z</time></trkpt><trkpt lat="40.491957760346125" lon="9.53188070423219"><ele>586.5999999999999</ele><time>2026-04-25T14:07:25Z</time></trkpt><trkpt lat="40.49191081966667" lon="9.531775731316209"><ele>587.8</ele><time>2026-04-25T14:07:26Z</time></trkpt><trkpt lat="40.4919206547512" lon="9.531632742289872"><ele>589.0</ele><time>2026-04-25T14:07:27Z</time></trkpt><trkpt lat="40.49187584000025" lon="9.531488316936716"><ele>589.0</ele><time>2026-04-25T14:07:28Z</time></trkpt><trkpt lat="40.49180706442558" lon="9.531375526651944"><ele>589.0</ele><time>2026-04-25T14:07:29Z</time></trkpt><trkpt lat="40.491700035452915" lon="9.531263610747635"><ele>589.0</ele><time>2026-04-25T14:07:30Z</time></trkpt><trkpt lat="40.491581942816374" lon="9.531173709070428"><ele>589.0</ele><time>2026-04-25T14:07:31Z</time></trkpt><trkpt lat="40.49147128628437" lon="9.531104592273087"><ele>588.75</ele><time>2026-04-25T14:07:32Z</time></trkpt><trkpt lat="40.49136510743542" lon="9.531044509011801"><ele>588.5</ele><time>2026-04-25T14:07:33Z</time></trkpt><trkpt lat="40.49126012288054" lon="9.530988538198432"><ele>588.25</ele><time>2026-04-25T14:07:34Z</time></trkpt><trkpt lat="40.491158220854935" lon="9.530923503779906"><ele>588.0</ele><time>2026-04-25T14:07:35Z</time></trkpt><trkpt lat="40.4910573261338" lon="9.530847191570546"><ele>588.0</ele><time>2026-04-25T14:07:36Z</time></trkpt><trkpt lat="40.490949034535866" lon="9.53075332478947"><ele>588.0</ele><time>2026-04-25T14:07:37Z</time></trkpt><trkpt lat="40.49083161985633" lon="9.53065949618406"><ele>588.0</ele><time>2026-04-25T14:07:38Z</time></trkpt><trkpt lat="40.490714227085036" lon="9.5305596060355"><ele>588.0</ele><time>2026-04-25T14:07:39Z</time></trkpt><trkpt lat="40.490593407330735" lon="9.530461392854493"><ele>587.75</ele><time>2026-04-25T14:07:40Z</time></trkpt><trkpt lat="40.49047106146144" lon="9.530358973096027"><ele>587.5</ele><time>2026-04-25T14:07:41Z</time></trkpt><trkpt lat="40.49036524628527" lon="9.5302527345374"><ele>587.25</ele><time>2026-04-25T14:07:42Z</time></trkpt><trkpt lat="40.49026020172492" lon="9.530138562731205"><ele>587.0</ele><time>2026-04-25T14:07:43Z</time></trkpt><trkpt lat="40.49017284859065" lon="9.530001303794998"><ele>587.0</ele><time>2026-04-25T14:07:44Z</time></trkpt><trkpt lat="40.49010172592111" lon="9.529845488488517"><ele>587.0</ele><time>2026-04-25T14:07:45Z</time></trkpt><trkpt lat="40.49004378324823" lon="9.529690225378825"><ele>587.0</ele><time>2026-04-25T14:07:46Z</time></trkpt><trkpt lat="40.48998978104769" lon="9.529540305764028"><ele>587.0</ele><time>2026-04-25T14:07:47Z</time></trkpt><trkpt lat="40.4899344899232" lon="9.529400285782502"><ele>584.0</ele><time>2026-04-25T14:07:48Z</time></trkpt><trkpt lat="40.48986373393926" lon="9.529282134334945"><ele>581.0</ele><time>2026-04-25T14:07:49Z</time></trkpt><trkpt lat="40.48978084266846" lon="9.529179467496045"><ele>578.0</ele><time>2026-04-25T14:07:50Z</time></trkpt><trkpt lat="40.48970798438345" lon="9.529093962807583"><ele>575.0</ele><time>2026-04-25T14:07:51Z</time></trkpt><trkpt lat="40.48965582333989" lon="9.529010030643828"><ele>572.0</ele><time>2026-04-25T14:07:52Z</time></trkpt><trkpt lat="40.4896398925926" lon="9.528913060132341"><ele>572.0</ele><time>2026-04-25T14:07:53Z</time></trkpt><trkpt lat="40.48968027246401" lon="9.528821330008514"><ele>572.0</ele><time>2026-04-25T14:07:54Z</time></trkpt><trkpt lat="40.489672212938494" lon="9.52871748200321"><ele>572.0</ele><time>2026-04-25T14:07:55Z</time></trkpt><trkpt lat="40.489648337859265" lon="9.528617323952782"><ele>572.0</ele><time>2026-04-25T14:07:56Z</time></trkpt><trkpt lat="40.48958733841476" lon="9.528544817732005"><ele>572.0</ele><time>2026-04-25T14:07:57Z</time></trkpt><trkpt lat="40.489508876673945" lon="9.528508966549575"><ele>572.0</ele><time>2026-04-25T14:07:58Z</time></trkpt><trkpt lat="40.48944526213883" lon="9.528460761648804"><ele>575.6</ele><time>2026-04-25T14:07:59Z</time></trkpt><trkpt lat="40.489382841089544" lon="9.528318885577217"><ele>579.2</ele><time>2026-04-25T14:08:01Z</time></trkpt><trkpt lat="40.48940539252754" lon="9.528229407984332"><ele>582.8</ele><time>2026-04-25T14:08:02Z</time></trkpt><trkpt lat="40.48944760854941" lon="9.52811705113643"><ele>586.4</ele><time>2026-04-25T14:08:03Z</time></trkpt><trkpt lat="40.48949783920691" lon="9.528005904617906"><ele>590.0</ele><time>2026-04-25T14:08:04Z</time></trkpt><trkpt lat="40.48953199729652" lon="9.527896061651846"><ele>587.75</ele><time>2026-04-25T14:08:05Z</time></trkpt><trkpt lat="40.489540843225356" lon="9.527764673754973"><ele>585.5</ele><time>2026-04-25T14:08:06Z</time></trkpt><trkpt lat="40.48951781967192" lon="9.527607581011363"><ele>583.25</ele><time>2026-04-25T14:08:07Z</time></trkpt><trkpt lat="40.48947906966739" lon="9.52745094422847"><ele>581.0</ele><time>2026-04-25T14:08:08Z</time></trkpt><trkpt lat="40.48943527781723" lon="9.527315087082744"><ele>581.0</ele><time>2026-04-25T14:08:09Z</time></trkpt><trkpt lat="40.48937561471954" lon="9.52719533844144"><ele>581.0</ele><time>2026-04-25T14:08:10Z</time></trkpt><trkpt lat="40.48930019225662" lon="9.527103171999805"><ele>581.0</ele><time>2026-04-25T14:08:11Z</time></trkpt><trkpt lat="40.48920504464775" lon="9.527039244161962"><ele>581.0</ele><time>2026-04-25T14:08:12Z</time></trkpt><trkpt lat="40.48911387058121" lon="9.526978124088854"><ele>581.0</ele><time>2026-04-25T14:08:13Z</time></trkpt><trkpt lat="40.48903646682048" lon="9.526897077340374"><ele>578.5</ele><time>2026-04-25T14:08:14Z</time></trkpt><trkpt lat="40.48898402408031" lon="9.526784206967676"><ele>576.0</ele><time>2026-04-25T14:08:15Z</time></trkpt><trkpt lat="40.48898149746525" lon="9.526642746496725"><ele>573.5</ele><time>2026-04-25T14:08:16Z</time></trkpt><trkpt lat="40.48894099601632" lon="9.526494797880476"><ele>571.0</ele><time>2026-04-25T14:08:17Z</time></trkpt><trkpt lat="40.488895280781" lon="9.526330845387317"><ele>568.5</ele><time>2026-04-25T14:08:18Z</time></trkpt><trkpt lat="40.48883460327136" lon="9.526160945708906"><ele>566.0</ele><time>2026-04-25T14:08:19Z</time></trkpt><trkpt lat="40.48876852380271" lon="9.525994969041891"><ele>563.5</ele><time>2026-04-25T14:08:20Z</time></trkpt><trkpt lat="40.48870315837718" lon="9.52583037102565"><ele>561.0</ele><time>2026-04-25T14:08:21Z</time></trkpt><trkpt lat="40.488638412470095" lon="9.525665011915102"><ele>565.25</ele><time>2026-04-25T14:08:22Z</time></trkpt><trkpt lat="40.488577085358166" lon="9.525510722808942"><ele>569.5</ele><time>2026-04-25T14:08:23Z</time></trkpt><trkpt lat="40.4885213100246" lon="9.52536547400445"><ele>573.75</ele><time>2026-04-25T14:08:24Z</time></trkpt><trkpt lat="40.48847701571503" lon="9.525245581580352"><ele>578.0</ele><time>2026-04-25T14:08:25Z</time></trkpt><trkpt lat="40.488443958147535" lon="9.525125716775365"><ele>578.0</ele><time>2026-04-25T14:08:26Z</time></trkpt><trkpt lat="40.48843223729395" lon="9.525000443505606"><ele>578.0</ele><time>2026-04-25T14:08:27Z</time></trkpt><trkpt lat="40.4884729859456" lon="9.524888012134515"><ele>578.0</ele><time>2026-04-25T14:08:28Z</time></trkpt><trkpt lat="40.48851747689796" lon="9.524763242695625"><ele>578.0</ele><time>2026-04-25T14:08:29Z</time></trkpt><trkpt lat="40.48857410017047" lon="9.524627346941477"><ele>578.0</ele><time>2026-04-25T14:08:30Z</time></trkpt><trkpt lat="40.48864066798041" lon="9.524481890468204"><ele>578.5</ele><time>2026-04-25T14:08:31Z</time></trkpt><trkpt lat="40.488744924996354" lon="9.524379283876558"><ele>579.0</ele><time>2026-04-25T14:08:32Z</time></trkpt><trkpt lat="40.4888099492772" lon="9.52424568798666"><ele>579.5</ele><time>2026-04-25T14:08:33Z</time></trkpt><trkpt lat="40.4888752836381" lon="9.52410617550901"><ele>580.0</ele><time>2026-04-25T14:08:34Z</time></trkpt><trkpt lat="40.48892386781081" lon="9.523967368726195"><ele>574.5</ele><time>2026-04-25T14:08:35Z</time></trkpt><trkpt lat="40.48895258866258" lon="9.523824063145785"><ele>569.0</ele><time>2026-04-25T14:08:36Z</time></trkpt><trkpt lat="40.48896657876237" lon="9.523670901567296"><ele>563.5</ele><time>2026-04-25T14:08:37Z</time></trkpt><trkpt lat="40.488966306748964" lon="9.52351220450595"><ele>558.0</ele><time>2026-04-25T14:08:38Z</time></trkpt><trkpt lat="40.4889714764494" lon="9.523351025058433"><ele>558.0</ele><time>2026-04-25T14:08:39Z</time></trkpt><trkpt lat="40.48898346835969" lon="9.523189075738523"><ele>558.0</ele><time>2026-04-25T14:08:40Z</time></trkpt><trkpt lat="40.48899513083893" lon="9.523036174685757"><ele>558.0</ele><time>2026-04-25T14:08:41Z</time></trkpt><trkpt lat="40.489018570175865" lon="9.522894684697244"><ele>558.0</ele><time>2026-04-25T14:08:42Z</time></trkpt><trkpt lat="40.48903263927693" lon="9.522763187472687"><ele>559.4</ele><time>2026-04-25T14:08:43Z</time></trkpt><trkpt lat="40.489055539791984" lon="9.522644512268728"><ele>560.8</ele><time>2026-04-25T14:08:44Z</time></trkpt><trkpt lat="40.48910714518126" lon="9.522546456521274"><ele>562.2</ele><time>2026-04-25T14:08:45Z</time></trkpt><trkpt lat="40.48920682277615" lon="9.522480417250636"><ele>563.6</ele><time>2026-04-25T14:08:46Z</time></trkpt><trkpt lat="40.48927151173003" lon="9.522343393711393"><ele>565.0</ele><time>2026-04-25T14:08:47Z</time></trkpt><trkpt lat="40.48934663802017" lon="9.522172681270641"><ele>567.75</ele><time>2026-04-25T14:08:48Z</time></trkpt><trkpt lat="40.48941549605565" lon="9.522004926550009"><ele>570.5</ele><time>2026-04-25T14:08:49Z</time></trkpt><trkpt lat="40.489476313620294" lon="9.521849490233986"><ele>573.25</ele><time>2026-04-25T14:08:50Z</time></trkpt><trkpt lat="40.4895289340114" lon="9.52170041259099"><ele>576.0</ele><time>2026-04-25T14:08:51Z</time></trkpt><trkpt lat="40.489572332441256" lon="9.521564339158612"><ele>574.2</ele><time>2026-04-25T14:08:52Z</time></trkpt><trkpt lat="40.48961081952219" lon="9.521433950853886"><ele>572.4000000000001</ele><time>2026-04-25T14:08:52.999Z</time></trkpt><trkpt lat="40.48962807639865" lon="9.521307032898687"><ele>570.6</ele><time>2026-04-25T14:08:53.999Z</time></trkpt><trkpt lat="40.4896255373615" lon="9.521202082552096"><ele>568.8000000000001</ele><time>2026-04-25T14:08:54.999Z</time></trkpt><trkpt lat="40.48959486828885" lon="9.521090981290662"><ele>567.0</ele><time>2026-04-25T14:08:55.999Z</time></trkpt><trkpt lat="40.489541925643046" lon="9.520977333334407"><ele>567.0</ele><time>2026-04-25T14:08:56.999Z</time></trkpt><trkpt lat="40.48945980796143" lon="9.52086984915856"><ele>567.0</ele><time>2026-04-25T14:08:57.999Z</time></trkpt><trkpt lat="40.48934810445488" lon="9.520767710281287"><ele>567.0</ele><time>2026-04-25T14:08:58.999Z</time></trkpt><trkpt lat="40.48921212661351" lon="9.52068418803768"><ele>567.0</ele><time>2026-04-25T14:08:59.999Z</time></trkpt><trkpt lat="40.48908822814418" lon="9.520610577453994"><ele>567.0</ele><time>2026-04-25T14:09:00.999Z</time></trkpt><trkpt lat="40.48898245375699" lon="9.52052963534666"><ele>567.0</ele><time>2026-04-25T14:09:01.999Z</time></trkpt><trkpt lat="40.48890917241763" lon="9.520406844711049"><ele>567.0</ele><time>2026-04-25T14:09:02.999Z</time></trkpt><trkpt lat="40.488833658956715" lon="9.520289317043753"><ele>567.0</ele><time>2026-04-25T14:09:03.999Z</time></trkpt><trkpt lat="40.48874860834472" lon="9.520177443315243"><ele>566.0</ele><time>2026-04-25T14:09:04.999Z</time></trkpt><trkpt lat="40.488676468003376" lon="9.520052008894854"><ele>565.0</ele><time>2026-04-25T14:09:05.999Z</time></trkpt><trkpt lat="40.48859797458097" lon="9.519933987018304"><ele>564.0</ele><time>2026-04-25T14:09:06.999Z</time></trkpt><trkpt lat="40.488515907273005" lon="9.519821383220911"><ele>563.0</ele><time>2026-04-25T14:09:07.999Z</time></trkpt><trkpt lat="40.48843487807113" lon="9.519709393096177"><ele>563.0</ele><time>2026-04-25T14:09:08.999Z</time></trkpt><trkpt lat="40.488353077246174" lon="9.519596776803725"><ele>563.0</ele><time>2026-04-25T14:09:09.999Z</time></trkpt><trkpt lat="40.488273017787535" lon="9.519485275777162"><ele>563.0</ele><time>2026-04-25T14:09:10.999Z</time></trkpt><trkpt lat="40.48819576806512" lon="9.519369344573951"><ele>563.0</ele><time>2026-04-25T14:09:12Z</time></trkpt><trkpt lat="40.48811863689624" lon="9.519255608178153"><ele>562.6</ele><time>2026-04-25T14:09:13Z</time></trkpt><trkpt lat="40.48805232649205" lon="9.519137191686708"><ele>562.1999999999999</ele><time>2026-04-25T14:09:14Z</time></trkpt><trkpt lat="40.487989778104506" lon="9.519016446553369"><ele>561.8</ele><time>2026-04-25T14:09:15Z</time></trkpt><trkpt lat="40.487935945133756" lon="9.518895223641202"><ele>561.4</ele><time>2026-04-25T14:09:16Z</time></trkpt><trkpt lat="40.48791004077026" lon="9.518761526379823"><ele>561.0</ele><time>2026-04-25T14:09:17Z</time></trkpt><trkpt lat="40.48788453090489" lon="9.518638780333065"><ele>558.4</ele><time>2026-04-25T14:09:18Z</time></trkpt><trkpt lat="40.4878431026366" lon="9.518515863087122"><ele>555.8</ele><time>2026-04-25T14:09:19Z</time></trkpt><trkpt lat="40.48781678329591" lon="9.518392836755723"><ele>553.1999999999999</ele><time>2026-04-25T14:09:20Z</time></trkpt><trkpt lat="40.487763484497776" lon="9.518291008166985"><ele>550.6</ele><time>2026-04-25T14:09:21Z</time></trkpt><trkpt lat="40.487681083353536" lon="9.518223880387424"><ele>548.0</ele><time>2026-04-25T14:09:22Z</time></trkpt><trkpt lat="40.48758931932898" lon="9.518234822047052"><ele>548.0</ele><time>2026-04-25T14:09:23Z</time></trkpt><trkpt lat="40.487521265631614" lon="9.518225348576848"><ele>548.0</ele><time>2026-04-25T14:09:24Z</time></trkpt><trkpt lat="40.48745167964857" lon="9.518204199779658"><ele>548.0</ele><time>2026-04-25T14:09:25Z</time></trkpt><trkpt lat="40.48738785710389" lon="9.518119712310579"><ele>548.0</ele><time>2026-04-25T14:09:26Z</time></trkpt><trkpt lat="40.487359721214204" lon="9.517972980132779"><ele>548.0</ele><time>2026-04-25T14:09:27Z</time></trkpt><trkpt lat="40.487291766922304" lon="9.517886351270278"><ele>548.0</ele><time>2026-04-25T14:09:28Z</time></trkpt><trkpt lat="40.48720478965706" lon="9.517828253924977"><ele>546.6</ele><time>2026-04-25T14:09:29Z</time></trkpt><trkpt lat="40.48709725101204" lon="9.517824594414279"><ele>545.1999999999999</ele><time>2026-04-25T14:09:30Z</time></trkpt><trkpt lat="40.48700035134767" lon="9.51781318971672"><ele>543.8</ele><time>2026-04-25T14:09:31Z</time></trkpt><trkpt lat="40.48692625789251" lon="9.517774912002842"><ele>542.4</ele><time>2026-04-25T14:09:32Z</time></trkpt><trkpt lat="40.48688454293691" lon="9.51769240433412"><ele>541.0</ele><time>2026-04-25T14:09:33Z</time></trkpt><trkpt lat="40.486917379426465" lon="9.517552523601998"><ele>541.0</ele><time>2026-04-25T14:09:34Z</time></trkpt><trkpt lat="40.48687213490325" lon="9.517459206438506"><ele>541.0</ele><time>2026-04-25T14:09:35Z</time></trkpt><trkpt lat="40.486826005567266" lon="9.517372549797713"><ele>541.0</ele><time>2026-04-25T14:09:36Z</time></trkpt><trkpt lat="40.48674090539783" lon="9.517324550608492"><ele>541.0</ele><time>2026-04-25T14:09:37Z</time></trkpt><trkpt lat="40.48666190709196" lon="9.517285877207074"><ele>541.0</ele><time>2026-04-25T14:09:38Z</time></trkpt><trkpt lat="40.486591776404715" lon="9.517237144700673"><ele>541.0</ele><time>2026-04-25T14:09:39Z</time></trkpt><trkpt lat="40.486523783999296" lon="9.51717644169954"><ele>541.0</ele><time>2026-04-25T14:09:40Z</time></trkpt><trkpt lat="40.486461454025914" lon="9.517103844237413"><ele>541.0</ele><time>2026-04-25T14:09:41Z</time></trkpt><trkpt lat="40.486415729943644" lon="9.516984277013412"><ele>541.0</ele><time>2026-04-25T14:09:42Z</time></trkpt><trkpt lat="40.48641325692178" lon="9.516852415588527"><ele>541.0</ele><time>2026-04-25T14:09:43Z</time></trkpt><trkpt lat="40.48641620109085" lon="9.516727951868361"><ele>541.0</ele><time>2026-04-25T14:09:44Z</time></trkpt><trkpt lat="40.48641555189734" lon="9.516602017069278"><ele>542.8</ele><time>2026-04-25T14:09:45Z</time></trkpt><trkpt lat="40.4863644239283" lon="9.51649137643026"><ele>544.6</ele><time>2026-04-25T14:09:46Z</time></trkpt><trkpt lat="40.48630369190354" lon="9.516402637114636"><ele>546.4</ele><time>2026-04-25T14:09:47Z</time></trkpt><trkpt lat="40.48623250226361" lon="9.516334769116348"><ele>548.2</ele><time>2026-04-25T14:09:48Z</time></trkpt><trkpt lat="40.486163901971594" lon="9.516260077211895"><ele>550.0</ele><time>2026-04-25T14:09:49Z</time></trkpt><trkpt lat="40.48613024925207" lon="9.516147828476234"><ele>546.2</ele><time>2026-04-25T14:09:50Z</time></trkpt><trkpt lat="40.48610751612131" lon="9.51604091270455"><ele>542.4</ele><time>2026-04-25T14:09:51Z</time></trkpt><trkpt lat="40.48609773723487" lon="9.515929547036034"><ele>538.6</ele><time>2026-04-25T14:09:52Z</time></trkpt><trkpt lat="40.48608522330394" lon="9.515806126252006"><ele>534.8</ele><time>2026-04-25T14:09:53Z</time></trkpt><trkpt lat="40.4860471301313" lon="9.515683128671943"><ele>531.0</ele><time>2026-04-25T14:09:54Z</time></trkpt><trkpt lat="40.48600099346929" lon="9.515567633491013"><ele>531.0</ele><time>2026-04-25T14:09:55Z</time></trkpt><trkpt lat="40.485945871748214" lon="9.515471751532822"><ele>531.0</ele><time>2026-04-25T14:09:56Z</time></trkpt><trkpt lat="40.48587462013329" lon="9.515400332234305"><ele>531.0</ele><time>2026-04-25T14:09:57Z</time></trkpt><trkpt lat="40.485787662070166" lon="9.515376232977705"><ele>531.0</ele><time>2026-04-25T14:09:58Z</time></trkpt><trkpt lat="40.485698818503415" lon="9.515399423335452"><ele>531.0</ele><time>2026-04-25T14:09:59Z</time></trkpt><trkpt lat="40.48561603836518" lon="9.515445372030628"><ele>531.0</ele><time>2026-04-25T14:10:00Z</time></trkpt><trkpt lat="40.48553834434071" lon="9.51549413626"><ele>531.0</ele><time>2026-04-25T14:10:01Z</time></trkpt><trkpt lat="40.48546265620306" lon="9.515529171639239"><ele>531.0</ele><time>2026-04-25T14:10:02Z</time></trkpt><trkpt lat="40.485380482987075" lon="9.51551830540829"><ele>531.0</ele><time>2026-04-25T14:10:03Z</time></trkpt><trkpt lat="40.485309738361636" lon="9.515461831110926"><ele>531.0</ele><time>2026-04-25T14:10:04Z</time></trkpt><trkpt lat="40.485258722933466" lon="9.51534761806702"><ele>531.0</ele><time>2026-04-25T14:10:05Z</time></trkpt><trkpt lat="40.485199975683365" lon="9.515200011440786"><ele>529.0</ele><time>2026-04-25T14:10:06Z</time></trkpt><trkpt lat="40.485128144875645" lon="9.515061065318982"><ele>527.0</ele><time>2026-04-25T14:10:07Z</time></trkpt><trkpt lat="40.48507855142338" lon="9.51491629473445"><ele>525.0</ele><time>2026-04-25T14:10:08Z</time></trkpt><trkpt lat="40.48502616136752" lon="9.514777212012683"><ele>523.0</ele><time>2026-04-25T14:10:09Z</time></trkpt><trkpt lat="40.484972800749254" lon="9.514640277075051"><ele>524.1999999999999</ele><time>2026-04-25T14:10:10Z</time></trkpt><trkpt lat="40.484923402324476" lon="9.514504132532354"><ele>525.4</ele><time>2026-04-25T14:10:11Z</time></trkpt><trkpt lat="40.48487909215384" lon="9.514366837163358"><ele>526.5999999999999</ele><time>2026-04-25T14:10:12Z</time></trkpt><trkpt lat="40.48483765651544" lon="9.514231338495732"><ele>527.8</ele><time>2026-04-25T14:10:13Z</time></trkpt><trkpt lat="40.4848006348862" lon="9.514095241956165"><ele>529.0</ele><time>2026-04-25T14:10:14Z</time></trkpt><trkpt lat="40.484767861238524" lon="9.513961071604502"><ele>529.0</ele><time>2026-04-25T14:10:15Z</time></trkpt><trkpt lat="40.484736086374454" lon="9.513826745733947"><ele>529.0</ele><time>2026-04-25T14:10:16Z</time></trkpt><trkpt lat="40.484701713993665" lon="9.51370436806145"><ele>529.0</ele><time>2026-04-25T14:10:17Z</time></trkpt><trkpt lat="40.48465668778391" lon="9.51360204456853"><ele>529.0</ele><time>2026-04-25T14:10:18Z</time></trkpt><trkpt lat="40.48458770268319" lon="9.513518811276668"><ele>529.0</ele><time>2026-04-25T14:10:19Z</time></trkpt><trkpt lat="40.48449787117259" lon="9.513482551855883"><ele>528.0</ele><time>2026-04-25T14:10:20Z</time></trkpt><trkpt lat="40.484403575573154" lon="9.513492238600763"><ele>527.0</ele><time>2026-04-25T14:10:21Z</time></trkpt><trkpt lat="40.48430331894037" lon="9.513540949675376"><ele>526.0</ele><time>2026-04-25T14:10:22Z</time></trkpt><trkpt lat="40.48420149313066" lon="9.513598594854042"><ele>525.0</ele><time>2026-04-25T14:10:23Z</time></trkpt><trkpt lat="40.48409020004518" lon="9.513647049048748"><ele>524.0</ele><time>2026-04-25T14:10:24Z</time></trkpt><trkpt lat="40.483977466357516" lon="9.513675205154202"><ele>524.0</ele><time>2026-04-25T14:10:25Z</time></trkpt><trkpt lat="40.48386940972993" lon="9.513681986284391"><ele>524.0</ele><time>2026-04-25T14:10:26Z</time></trkpt><trkpt lat="40.483768891859974" lon="9.513676702905203"><ele>524.0</ele><time>2026-04-25T14:10:27Z</time></trkpt><trkpt lat="40.48368031801711" lon="9.51365379116165"><ele>524.0</ele><time>2026-04-25T14:10:28Z</time></trkpt><trkpt lat="40.483595469042626" lon="9.513623698568436"><ele>524.0</ele><time>2026-04-25T14:10:29Z</time></trkpt><trkpt lat="40.48353764616809" lon="9.513537440487912"><ele>521.8</ele><time>2026-04-25T14:10:30Z</time></trkpt><trkpt lat="40.48349456102486" lon="9.51342842405198"><ele>519.5999999999999</ele><time>2026-04-25T14:10:31Z</time></trkpt><trkpt lat="40.48347083338768" lon="9.513284330529965"><ele>517.4</ele><time>2026-04-25T14:10:32Z</time></trkpt><trkpt lat="40.48342148336606" lon="9.5131431530131"><ele>515.1999999999999</ele><time>2026-04-25T14:10:33Z</time></trkpt><trkpt lat="40.48334942709722" lon="9.513030756563555"><ele>513.0</ele><time>2026-04-25T14:10:34Z</time></trkpt><trkpt lat="40.48328371269392" lon="9.512917331083026"><ele>513.6</ele><time>2026-04-25T14:10:35Z</time></trkpt><trkpt lat="40.48321387958436" lon="9.512801090618924"><ele>514.1999999999999</ele><time>2026-04-25T14:10:36Z</time></trkpt><trkpt lat="40.48314899022428" lon="9.512681708125465"><ele>514.8</ele><time>2026-04-25T14:10:37Z</time></trkpt><trkpt lat="40.48312896736887" lon="9.512538772242547"><ele>515.4</ele><time>2026-04-25T14:10:38Z</time></trkpt><trkpt lat="40.48311634982756" lon="9.51238941506134"><ele>516.0</ele><time>2026-04-25T14:10:39Z</time></trkpt><trkpt lat="40.483109025090265" lon="9.512224225168184"><ele>516.25</ele><time>2026-04-25T14:10:40Z</time></trkpt><trkpt lat="40.4830899576285" lon="9.512063007186965"><ele>516.5</ele><time>2026-04-25T14:10:41Z</time></trkpt><trkpt lat="40.48306187705497" lon="9.511915473528214"><ele>516.75</ele><time>2026-04-25T14:10:42Z</time></trkpt><trkpt lat="40.48301084743893" lon="9.511773725980092"><ele>517.0</ele><time>2026-04-25T14:10:43Z</time></trkpt><trkpt lat="40.482972087851564" lon="9.511629889292985"><ele>514.6</ele><time>2026-04-25T14:10:44Z</time></trkpt><trkpt lat="40.482926246760414" lon="9.511494223971228"><ele>512.2</ele><time>2026-04-25T14:10:45Z</time></trkpt><trkpt lat="40.482864801381304" lon="9.51136989751094"><ele>509.8</ele><time>2026-04-25T14:10:46Z</time></trkpt><trkpt lat="40.482788976424615" lon="9.511261607861588"><ele>507.4</ele><time>2026-04-25T14:10:46.999Z</time></trkpt><trkpt lat="40.482718120031066" lon="9.511165526562314"><ele>505.0</ele><time>2026-04-25T14:10:47.999Z</time></trkpt><trkpt lat="40.48268533499771" lon="9.511042873776994"><ele>504.2</ele><time>2026-04-25T14:10:48.999Z</time></trkpt><trkpt lat="40.48267232015613" lon="9.510923285634465"><ele>503.4</ele><time>2026-04-25T14:10:49.999Z</time></trkpt><trkpt lat="40.482691968260056" lon="9.510790026242727"><ele>502.6</ele><time>2026-04-25T14:10:50.999Z</time></trkpt><trkpt lat="40.48273040289065" lon="9.510642205082945"><ele>501.8</ele><time>2026-04-25T14:10:51.999Z</time></trkpt><trkpt lat="40.48277334712949" lon="9.510502899467475"><ele>501.0</ele><time>2026-04-25T14:10:52.999Z</time></trkpt><trkpt lat="40.4828129812829" lon="9.510372793136765"><ele>499.8</ele><time>2026-04-25T14:10:53.999Z</time></trkpt><trkpt lat="40.482839930721" lon="9.510240086840486"><ele>498.6</ele><time>2026-04-25T14:10:54.999Z</time></trkpt><trkpt lat="40.482843458778746" lon="9.510103193326973"><ele>497.4</ele><time>2026-04-25T14:10:55.999Z</time></trkpt><trkpt lat="40.4828106757313" lon="9.509971709333058"><ele>496.2</ele><time>2026-04-25T14:10:56.999Z</time></trkpt><trkpt lat="40.482816914673286" lon="9.509829615889133"><ele>495.0</ele><time>2026-04-25T14:10:57.999Z</time></trkpt><trkpt lat="40.48281814527891" lon="9.509692743593137"><ele>494.8</ele><time>2026-04-25T14:10:58.999Z</time></trkpt><trkpt lat="40.482838043920545" lon="9.509568320378191"><ele>494.6</ele><time>2026-04-25T14:10:59.999Z</time></trkpt><trkpt lat="40.48287937109644" lon="9.509441109187952"><ele>494.4</ele><time>2026-04-25T14:11:00.999Z</time></trkpt><trkpt lat="40.482947898455755" lon="9.509342345871637"><ele>494.2</ele><time>2026-04-25T14:11:01.999Z</time></trkpt><trkpt lat="40.48303350447963" lon="9.509260186823095"><ele>494.0</ele><time>2026-04-25T14:11:02.999Z</time></trkpt><trkpt lat="40.48312729086698" lon="9.509197478616237"><ele>494.0</ele><time>2026-04-25T14:11:03.999Z</time></trkpt><trkpt lat="40.48321663844703" lon="9.50915185146452"><ele>494.0</ele><time>2026-04-25T14:11:04.999Z</time></trkpt><trkpt lat="40.483289864707665" lon="9.50907212868105"><ele>494.0</ele><time>2026-04-25T14:11:05.999Z</time></trkpt><trkpt lat="40.48336662052444" lon="9.509000670031636"><ele>494.0</ele><time>2026-04-25T14:11:06.999Z</time></trkpt><trkpt lat="40.48338755288654" lon="9.50886678812245"><ele>494.0</ele><time>2026-04-25T14:11:07.999Z</time></trkpt><trkpt lat="40.483372663609835" lon="9.508743595032852"><ele>493.75</ele><time>2026-04-25T14:11:08.999Z</time></trkpt><trkpt lat="40.483327094218" lon="9.508607916921358"><ele>493.5</ele><time>2026-04-25T14:11:09.999Z</time></trkpt><trkpt lat="40.48324597079667" lon="9.508447424623615"><ele>493.25</ele><time>2026-04-25T14:11:10.999Z</time></trkpt><trkpt lat="40.48315790256485" lon="9.508287987215398"><ele>493.0</ele><time>2026-04-25T14:11:11.999Z</time></trkpt><trkpt lat="40.48307738701654" lon="9.50815419741636"><ele>493.0</ele><time>2026-04-25T14:11:12.999Z</time></trkpt><trkpt lat="40.48300276661772" lon="9.508039917407478"><ele>492.99999999999994</ele><time>2026-04-25T14:11:13.999Z</time></trkpt><trkpt lat="40.48293275550654" lon="9.507935142541571"><ele>492.99999999999994</ele><time>2026-04-25T14:11:14.999Z</time></trkpt><trkpt lat="40.482867503140405" lon="9.507837933694654"><ele>493.0</ele><time>2026-04-25T14:11:15.999Z</time></trkpt><trkpt lat="40.48281258070125" lon="9.50773403576729"><ele>493.0</ele><time>2026-04-25T14:11:16.999Z</time></trkpt><trkpt lat="40.482750104664625" lon="9.507649089264723"><ele>492.50000000000006</ele><time>2026-04-25T14:11:18Z</time></trkpt><trkpt lat="40.482704794911825" lon="9.507559901706234"><ele>492.0</ele><time>2026-04-25T14:11:19Z</time></trkpt><trkpt lat="40.482704949939944" lon="9.507455555883755"><ele>491.5</ele><time>2026-04-25T14:11:20Z</time></trkpt><trkpt lat="40.4827302353725" lon="9.507369155996935"><ele>491.0</ele><time>2026-04-25T14:11:21Z</time></trkpt><trkpt lat="40.48279192248134" lon="9.507313312767504"><ele>490.50000000000006</ele><time>2026-04-25T14:11:22Z</time></trkpt><trkpt lat="40.482882961225286" lon="9.507272133726566"><ele>490.0</ele><time>2026-04-25T14:11:23Z</time></trkpt><trkpt lat="40.4829496573327" lon="9.50720424688129"><ele>490.0</ele><time>2026-04-25T14:11:24Z</time></trkpt><trkpt lat="40.48297709423125" lon="9.507074213129773"><ele>490.0</ele><time>2026-04-25T14:11:25Z</time></trkpt><trkpt lat="40.48296124225197" lon="9.506905809509126"><ele>490.0</ele><time>2026-04-25T14:11:26Z</time></trkpt><trkpt lat="40.482946606961285" lon="9.506708554226671"><ele>490.0</ele><time>2026-04-25T14:11:27Z</time></trkpt><trkpt lat="40.48299440182521" lon="9.506533819195504"><ele>490.0</ele><time>2026-04-25T14:11:28Z</time></trkpt><trkpt lat="40.48303342096212" lon="9.506370641470154"><ele>490.0</ele><time>2026-04-25T14:11:29Z</time></trkpt><trkpt lat="40.483078884265616" lon="9.506230792149053"><ele>490.0</ele><time>2026-04-25T14:11:30Z</time></trkpt><trkpt lat="40.48312960605014" lon="9.506106242863053"><ele>490.0</ele><time>2026-04-25T14:11:31Z</time></trkpt><trkpt lat="40.48317672198631" lon="9.505988332569492"><ele>491.0</ele><time>2026-04-25T14:11:32Z</time></trkpt><trkpt lat="40.48322024245024" lon="9.505873605826775"><ele>492.0</ele><time>2026-04-25T14:11:33Z</time></trkpt><trkpt lat="40.483270832383475" lon="9.505760780405453"><ele>493.0</ele><time>2026-04-25T14:11:34Z</time></trkpt><trkpt lat="40.48331557252506" lon="9.505641725076638"><ele>494.0</ele><time>2026-04-25T14:11:35Z</time></trkpt><trkpt lat="40.48335860495826" lon="9.505524039903264"><ele>495.0</ele><time>2026-04-25T14:11:36Z</time></trkpt><trkpt lat="40.48338962797874" lon="9.505403616767106"><ele>496.0</ele><time>2026-04-25T14:11:37Z</time></trkpt><trkpt lat="40.48340013153816" lon="9.505271922126301"><ele>497.0</ele><time>2026-04-25T14:11:38Z</time></trkpt><trkpt lat="40.48338371043979" lon="9.505125409167439"><ele>498.0</ele><time>2026-04-25T14:11:39Z</time></trkpt><trkpt lat="40.48334282557745" lon="9.504968904132037"><ele>499.0</ele><time>2026-04-25T14:11:40Z</time></trkpt><trkpt lat="40.48328303933234" lon="9.504817984669028"><ele>499.0</ele><time>2026-04-25T14:11:41Z</time></trkpt><trkpt lat="40.483204646073084" lon="9.504697905025713"><ele>499.0</ele><time>2026-04-25T14:11:42Z</time></trkpt><trkpt lat="40.483115692702185" lon="9.504605064830285"><ele>499.0</ele><time>2026-04-25T14:11:43Z</time></trkpt><trkpt lat="40.48302754358851" lon="9.504535303218548"><ele>499.0</ele><time>2026-04-25T14:11:44Z</time></trkpt><trkpt lat="40.4829717411346" lon="9.504447146530172"><ele>499.0</ele><time>2026-04-25T14:11:45Z</time></trkpt><trkpt lat="40.48297920200728" lon="9.504325713752007"><ele>499.1666666666667</ele><time>2026-04-25T14:11:46Z</time></trkpt><trkpt lat="40.482992458759846" lon="9.50420711950043"><ele>499.33333333333337</ele><time>2026-04-25T14:11:47Z</time></trkpt><trkpt lat="40.482972391998395" lon="9.504095014633286"><ele>499.5</ele><time>2026-04-25T14:11:48Z</time></trkpt><trkpt lat="40.48292517658647" lon="9.503997306560304"><ele>499.66666666666663</ele><time>2026-04-25T14:11:49Z</time></trkpt><trkpt lat="40.48285182559744" lon="9.503943905468718"><ele>499.8333333333333</ele><time>2026-04-25T14:11:50Z</time></trkpt><trkpt lat="40.48275727925618" lon="9.503943123429986"><ele>500.0</ele><time>2026-04-25T14:11:51Z</time></trkpt><trkpt lat="40.48265820473717" lon="9.503984030480929"><ele>500.0</ele><time>2026-04-25T14:11:52Z</time></trkpt><trkpt lat="40.48256040665332" lon="9.504044228357579"><ele>500.0</ele><time>2026-04-25T14:11:53Z</time></trkpt><trkpt lat="40.48245826834318" lon="9.50408298624368"><ele>500.0</ele><time>2026-04-25T14:11:54Z</time></trkpt><trkpt lat="40.482351963051734" lon="9.504117580986096"><ele>500.0</ele><time>2026-04-25T14:11:55Z</time></trkpt><trkpt lat="40.48224700388492" lon="9.504158591320428"><ele>500.0</ele><time>2026-04-25T14:11:56Z</time></trkpt><trkpt lat="40.48214098256058" lon="9.50419999617457"><ele>501.6</ele><time>2026-04-25T14:11:57Z</time></trkpt><trkpt lat="40.482038278739886" lon="9.504243259036473"><ele>503.2</ele><time>2026-04-25T14:11:58Z</time></trkpt><trkpt lat="40.481941508164894" lon="9.504290628664009"><ele>504.79999999999995</ele><time>2026-04-25T14:11:59Z</time></trkpt><trkpt lat="40.48184870864399" lon="9.504327426341872"><ele>506.4</ele><time>2026-04-25T14:12:00Z</time></trkpt><trkpt lat="40.481758255926536" lon="9.504331377017106"><ele>508.0</ele><time>2026-04-25T14:12:01Z</time></trkpt><trkpt lat="40.48167163706115" lon="9.504249913734443"><ele>508.0</ele><time>2026-04-25T14:12:02Z</time></trkpt><trkpt lat="40.481605313799996" lon="9.504134996726416"><ele>508.0</ele><time>2026-04-25T14:12:03Z</time></trkpt><trkpt lat="40.481538686441134" lon="9.503987592756841"><ele>508.0</ele><time>2026-04-25T14:12:04Z</time></trkpt><trkpt lat="40.48144277232424" lon="9.503833505243737"><ele>508.0</ele><time>2026-04-25T14:12:05Z</time></trkpt><trkpt lat="40.48136363286959" lon="9.503693036247512"><ele>509.0</ele><time>2026-04-25T14:12:06Z</time></trkpt><trkpt lat="40.48128632759683" lon="9.503580284737941"><ele>510.0</ele><time>2026-04-25T14:12:07Z</time></trkpt><trkpt lat="40.48120118429367" lon="9.503483266163464"><ele>511.0</ele><time>2026-04-25T14:12:08Z</time></trkpt><trkpt lat="40.48110148496258" lon="9.503402788164731"><ele>512.0</ele><time>2026-04-25T14:12:09Z</time></trkpt><trkpt lat="40.481001032441" lon="9.503323997845236"><ele>512.0</ele><time>2026-04-25T14:12:10Z</time></trkpt><trkpt lat="40.48090531097671" lon="9.5032424848687"><ele>512.0</ele><time>2026-04-25T14:12:11Z</time></trkpt><trkpt lat="40.48081584433009" lon="9.503157861697835"><ele>512.0</ele><time>2026-04-25T14:12:12Z</time></trkpt><trkpt lat="40.48072872071753" lon="9.503075380558608"><ele>512.0</ele><time>2026-04-25T14:12:13Z</time></trkpt><trkpt lat="40.480642136039805" lon="9.502998380774143"><ele>512.0</ele><time>2026-04-25T14:12:14Z</time></trkpt><trkpt lat="40.4805526203718" lon="9.50292569160776"><ele>512.8000000000001</ele><time>2026-04-25T14:12:15Z</time></trkpt><trkpt lat="40.48045444881757" lon="9.502869769631593"><ele>513.6</ele><time>2026-04-25T14:12:16Z</time></trkpt><trkpt lat="40.480347020207255" lon="9.502835898193243"><ele>514.4000000000001</ele><time>2026-04-25T14:12:17Z</time></trkpt><trkpt lat="40.48023645410056" lon="9.502822038550361"><ele>515.2</ele><time>2026-04-25T14:12:18Z</time></trkpt><trkpt lat="40.48013738852943" lon="9.50282382507768"><ele>516.0</ele><time>2026-04-25T14:12:19Z</time></trkpt><trkpt lat="40.480049535284685" lon="9.502835944101141"><ele>516.0</ele><time>2026-04-25T14:12:20Z</time></trkpt><trkpt lat="40.47997851704114" lon="9.502826318013184"><ele>516.0</ele><time>2026-04-25T14:12:21Z</time></trkpt><trkpt lat="40.479926740882824" lon="9.502696102008201"><ele>516.0</ele><time>2026-04-25T14:12:23Z</time></trkpt><trkpt lat="40.479960736719484" lon="9.502553180187316"><ele>516.0</ele><time>2026-04-25T14:12:25Z</time></trkpt><trkpt lat="40.48001837409173" lon="9.502483903533635"><ele>516.0</ele><time>2026-04-25T14:12:26Z</time></trkpt><trkpt lat="40.48012699573135" lon="9.502429065421437"><ele>516.0</ele><time>2026-04-25T14:12:27Z</time></trkpt><trkpt lat="40.480241550122194" lon="9.50236920424124"><ele>516.0</ele><time>2026-04-25T14:12:28Z</time></trkpt><trkpt lat="40.48033079894771" lon="9.502302938550503"><ele>516.0</ele><time>2026-04-25T14:12:29Z</time></trkpt><trkpt lat="40.480409362560906" lon="9.502259558097887"><ele>516.0</ele><time>2026-04-25T14:12:30Z</time></trkpt><trkpt lat="40.480478084267" lon="9.50222304388333"><ele>516.0</ele><time>2026-04-25T14:12:31Z</time></trkpt><trkpt lat="40.48054355690075" lon="9.502192730930203"><ele>516.8</ele><time>2026-04-25T14:12:32Z</time></trkpt><trkpt lat="40.48063706100474" lon="9.502098508283796"><ele>517.6</ele><time>2026-04-25T14:12:33.999Z</time></trkpt><trkpt lat="40.4806334763876" lon="9.501934317183327"><ele>518.4</ele><time>2026-04-25T14:12:35.999Z</time></trkpt><trkpt lat="40.48057696376125" lon="9.501848956695946"><ele>519.2</ele><time>2026-04-25T14:12:36.999Z</time></trkpt><trkpt lat="40.48048923212743" lon="9.501810311603409"><ele>520.0</ele><time>2026-04-25T14:12:37.999Z</time></trkpt><trkpt lat="40.48038327474466" lon="9.501778608070415"><ele>520.0</ele><time>2026-04-25T14:12:38.999Z</time></trkpt><trkpt lat="40.48026243231344" lon="9.501718473806728"><ele>520.0</ele><time>2026-04-25T14:12:39.999Z</time></trkpt><trkpt lat="40.48015084304575" lon="9.501594867043863"><ele>520.0</ele><time>2026-04-25T14:12:40.999Z</time></trkpt><trkpt lat="40.48002900466707" lon="9.501449980999618"><ele>520.0</ele><time>2026-04-25T14:12:41.999Z</time></trkpt><trkpt lat="40.47991197015152" lon="9.501334110872614"><ele>518.25</ele><time>2026-04-25T14:12:42.999Z</time></trkpt><trkpt lat="40.479825779515465" lon="9.501210547747121"><ele>516.5</ele><time>2026-04-25T14:12:43.999Z</time></trkpt><trkpt lat="40.4797470086335" lon="9.501100476356148"><ele>514.75</ele><time>2026-04-25T14:12:44.999Z</time></trkpt><trkpt lat="40.47966266408651" lon="9.501006526204241"><ele>513.0</ele><time>2026-04-25T14:12:45.999Z</time></trkpt><trkpt lat="40.47956427606774" lon="9.500939683057851"><ele>513.0</ele><time>2026-04-25T14:12:46.999Z</time></trkpt><trkpt lat="40.47945396070873" lon="9.500892751554309"><ele>513.0</ele><time>2026-04-25T14:12:47.999Z</time></trkpt><trkpt lat="40.479347300451984" lon="9.500871792701256"><ele>513.0</ele><time>2026-04-25T14:12:48.999Z</time></trkpt><trkpt lat="40.47924800630838" lon="9.500876496516742"><ele>513.0</ele><time>2026-04-25T14:12:49.999Z</time></trkpt><trkpt lat="40.47914005129399" lon="9.5009245329221"><ele>513.0</ele><time>2026-04-25T14:12:50.999Z</time></trkpt><trkpt lat="40.47903624355862" lon="9.500999235389639"><ele>513.0</ele><time>2026-04-25T14:12:51.999Z</time></trkpt><trkpt lat="40.47895197221455" lon="9.50108464208702"><ele>513.0</ele><time>2026-04-25T14:12:52.999Z</time></trkpt><trkpt lat="40.478874423541235" lon="9.501146243957418"><ele>513.0</ele><time>2026-04-25T14:12:53.999Z</time></trkpt><trkpt lat="40.478792796618265" lon="9.501163987941167"><ele>513.0</ele><time>2026-04-25T14:12:54.999Z</time></trkpt><trkpt lat="40.478708732067794" lon="9.501128277147775"><ele>513.0</ele><time>2026-04-25T14:12:55.999Z</time></trkpt><trkpt lat="40.478640055150976" lon="9.501030552582515"><ele>515.0</ele><time>2026-04-25T14:12:56.999Z</time></trkpt><trkpt lat="40.47858575888899" lon="9.500896363422719"><ele>517.0</ele><time>2026-04-25T14:12:57.999Z</time></trkpt><trkpt lat="40.47851928159328" lon="9.500779593433135"><ele>519.0</ele><time>2026-04-25T14:12:58.999Z</time></trkpt><trkpt lat="40.478429283664155" lon="9.500718251958121"><ele>521.0</ele><time>2026-04-25T14:12:59.999Z</time></trkpt><trkpt lat="40.4783189012386" lon="9.500704797095647"><ele>523.0</ele><time>2026-04-25T14:13:00.999Z</time></trkpt><trkpt lat="40.47821170688379" lon="9.500726170940586"><ele>523.0</ele><time>2026-04-25T14:13:01.999Z</time></trkpt><trkpt lat="40.47812541795874" lon="9.500732361584706"><ele>523.0</ele><time>2026-04-25T14:13:02.999Z</time></trkpt><trkpt lat="40.478037532804535" lon="9.500703682961834"><ele>523.0</ele><time>2026-04-25T14:13:03.999Z</time></trkpt><trkpt lat="40.477964202877224" lon="9.500609701223272"><ele>523.0</ele><time>2026-04-25T14:13:04.999Z</time></trkpt><trkpt lat="40.477926115999225" lon="9.500462331303263"><ele>523.0</ele><time>2026-04-25T14:13:05.999Z</time></trkpt><trkpt lat="40.47791139325091" lon="9.500331856218382"><ele>522.6666666666667</ele><time>2026-04-25T14:13:06.999Z</time></trkpt><trkpt lat="40.477878001360786" lon="9.500218244947492"><ele>522.3333333333334</ele><time>2026-04-25T14:13:07.999Z</time></trkpt><trkpt lat="40.477865796571685" lon="9.500116405710415"><ele>522.0</ele><time>2026-04-25T14:13:08.999Z</time></trkpt><trkpt lat="40.477828831440554" lon="9.50003332194603"><ele>521.6666666666666</ele><time>2026-04-25T14:13:09.999Z</time></trkpt><trkpt lat="40.477760037143895" lon="9.499963343631583"><ele>521.3333333333333</ele><time>2026-04-25T14:13:10.999Z</time></trkpt><trkpt lat="40.47765835073035" lon="9.499921169362125"><ele>521.0</ele><time>2026-04-25T14:13:11.999Z</time></trkpt><trkpt lat="40.4775436939493" lon="9.49991051817793"><ele>521.0</ele><time>2026-04-25T14:13:12.999Z</time></trkpt><trkpt lat="40.47743981776879" lon="9.499903962920243"><ele>521.0</ele><time>2026-04-25T14:13:13.999Z</time></trkpt><trkpt lat="40.477339366671444" lon="9.499908635980251"><ele>521.0</ele><time>2026-04-25T14:13:14.999Z</time></trkpt><trkpt lat="40.47723452683695" lon="9.499967308980205"><ele>521.0</ele><time>2026-04-25T14:13:15.999Z</time></trkpt><trkpt lat="40.47713306465445" lon="9.500045886095958"><ele>521.0</ele><time>2026-04-25T14:13:16.999Z</time></trkpt><trkpt lat="40.47704044519855" lon="9.500117484571494"><ele>520.6</ele><time>2026-04-25T14:13:17.999Z</time></trkpt><trkpt lat="40.47695330742584" lon="9.500178552755653"><ele>520.2</ele><time>2026-04-25T14:13:18.999Z</time></trkpt><trkpt lat="40.47686878637524" lon="9.500238705061234"><ele>519.8</ele><time>2026-04-25T14:13:19.999Z</time></trkpt><trkpt lat="40.47679010992015" lon="9.500311648531683"><ele>519.4</ele><time>2026-04-25T14:13:20.999Z</time></trkpt><trkpt lat="40.47672975942067" lon="9.500406566949843"><ele>519.0</ele><time>2026-04-25T14:13:21.999Z</time></trkpt><trkpt lat="40.4766876731547" lon="9.500516282894594"><ele>521.3333333333334</ele><time>2026-04-25T14:13:22.999Z</time></trkpt><trkpt lat="40.47665196162079" lon="9.500628120090527"><ele>523.6666666666666</ele><time>2026-04-25T14:13:24Z</time></trkpt><trkpt lat="40.47659411273923" lon="9.500713343369624"><ele>526.0</ele><time>2026-04-25T14:13:25Z</time></trkpt><trkpt lat="40.476499166385125" lon="9.50072028070136"><ele>528.3333333333333</ele><time>2026-04-25T14:13:26Z</time></trkpt><trkpt lat="40.47641924859854" lon="9.500702884167115"><ele>530.6666666666666</ele><time>2026-04-25T14:13:27Z</time></trkpt><trkpt lat="40.47635284167912" lon="9.500636136645776"><ele>533.0</ele><time>2026-04-25T14:13:28Z</time></trkpt><trkpt lat="40.47634610175371" lon="9.500475732602546"><ele>531.6</ele><time>2026-04-25T14:13:29Z</time></trkpt><trkpt lat="40.47631573780183" lon="9.500322931147604"><ele>530.1999999999999</ele><time>2026-04-25T14:13:30Z</time></trkpt><trkpt lat="40.47628395013789" lon="9.500185604451492"><ele>528.8</ele><time>2026-04-25T14:13:31Z</time></trkpt><trkpt lat="40.47625335274485" lon="9.50005416452655"><ele>527.4</ele><time>2026-04-25T14:13:32Z</time></trkpt><trkpt lat="40.47622522000065" lon="9.499933312202492"><ele>526.0</ele><time>2026-04-25T14:13:33Z</time></trkpt><trkpt lat="40.47619588289649" lon="9.499828165274373"><ele>526.0</ele><time>2026-04-25T14:13:34Z</time></trkpt><trkpt lat="40.47616593190289" lon="9.499734967895389"><ele>526.0</ele><time>2026-04-25T14:13:35Z</time></trkpt><trkpt lat="40.47614187015462" lon="9.499643963783909"><ele>526.0</ele><time>2026-04-25T14:13:36Z</time></trkpt><trkpt lat="40.47608434411994" lon="9.499573257719483"><ele>526.0</ele><time>2026-04-25T14:13:37Z</time></trkpt><trkpt lat="40.47600205568267" lon="9.499540836295209"><ele>526.0</ele><time>2026-04-25T14:13:38Z</time></trkpt><trkpt lat="40.4759071765569" lon="9.499561307827072"><ele>526.0</ele><time>2026-04-25T14:13:39Z</time></trkpt><trkpt lat="40.47582034148723" lon="9.499628040345684"><ele>526.0</ele><time>2026-04-25T14:13:40Z</time></trkpt><trkpt lat="40.47574161643732" lon="9.499712381356325"><ele>526.0</ele><time>2026-04-25T14:13:41Z</time></trkpt><trkpt lat="40.47568084441072" lon="9.499804175439829"><ele>526.0</ele><time>2026-04-25T14:13:42Z</time></trkpt><trkpt lat="40.475649878929424" lon="9.499913760115108"><ele>526.0</ele><time>2026-04-25T14:13:43Z</time></trkpt><trkpt lat="40.47564517523893" lon="9.500048976633805"><ele>526.0</ele><time>2026-04-25T14:13:44Z</time></trkpt><trkpt lat="40.47564427985289" lon="9.500190704887773"><ele>526.0</ele><time>2026-04-25T14:13:45Z</time></trkpt><trkpt lat="40.47561507943039" lon="9.500329391515235"><ele>526.0</ele><time>2026-04-25T14:13:46Z</time></trkpt><trkpt lat="40.47556165835242" lon="9.500472895387965"><ele>526.0</ele><time>2026-04-25T14:13:47Z</time></trkpt><trkpt lat="40.47550057366978" lon="9.500612095051828"><ele>526.0</ele><time>2026-04-25T14:13:48Z</time></trkpt><trkpt lat="40.475452465545" lon="9.500739755623485"><ele>525.4</ele><time>2026-04-25T14:13:49Z</time></trkpt><trkpt lat="40.47541324249684" lon="9.500869074546038"><ele>524.8</ele><time>2026-04-25T14:13:50Z</time></trkpt><trkpt lat="40.47538577660163" lon="9.500994438087478"><ele>524.1999999999999</ele><time>2026-04-25T14:13:51Z</time></trkpt><trkpt lat="40.47535903288236" lon="9.501109760197242"><ele>523.6</ele><time>2026-04-25T14:13:52Z</time></trkpt><trkpt lat="40.475321649191635" lon="9.50120473360375"><ele>523.0</ele><time>2026-04-25T14:13:53Z</time></trkpt><trkpt lat="40.475261390554316" lon="9.501270069226834"><ele>523.0</ele><time>2026-04-25T14:13:54Z</time></trkpt><trkpt lat="40.475181826661284" lon="9.501282607050431"><ele>523.0</ele><time>2026-04-25T14:13:55Z</time></trkpt><trkpt lat="40.475107488582886" lon="9.50121775586496"><ele>523.0</ele><time>2026-04-25T14:13:56Z</time></trkpt><trkpt lat="40.47503960625221" lon="9.50116202332634"><ele>523.0</ele><time>2026-04-25T14:13:57Z</time></trkpt><trkpt lat="40.47497406183209" lon="9.501128748485652"><ele>523.0</ele><time>2026-04-25T14:13:58Z</time></trkpt><trkpt lat="40.47489706147953" lon="9.501177491917487"><ele>523.0</ele><time>2026-04-25T14:13:59Z</time></trkpt><trkpt lat="40.474834610248884" lon="9.501275898786695"><ele>525.0</ele><time>2026-04-25T14:14:00Z</time></trkpt><trkpt lat="40.47479998351382" lon="9.501392720212365"><ele>527.0</ele><time>2026-04-25T14:14:01Z</time></trkpt><trkpt lat="40.474766115561636" lon="9.501504445112415"><ele>529.0</ele><time>2026-04-25T14:14:02Z</time></trkpt><trkpt lat="40.474727682594285" lon="9.501590662562332"><ele>531.0</ele><time>2026-04-25T14:14:03Z</time></trkpt><trkpt lat="40.47468367903522" lon="9.5016613112049"><ele>533.0</ele><time>2026-04-25T14:14:04Z</time></trkpt><trkpt lat="40.474640979136126" lon="9.501728025503963"><ele>535.0</ele><time>2026-04-25T14:14:05Z</time></trkpt><trkpt lat="40.47455202481797" lon="9.501840394979995"><ele>535.0</ele><time>2026-04-25T14:14:07Z</time></trkpt><trkpt lat="40.474493529329585" lon="9.501914458881558"><ele>535.0</ele><time>2026-04-25T14:14:08Z</time></trkpt><trkpt lat="40.47443435780952" lon="9.501982422535335"><ele>535.0</ele><time>2026-04-25T14:14:09Z</time></trkpt><trkpt lat="40.47437698317117" lon="9.502029975015349"><ele>535.0</ele><time>2026-04-25T14:14:10Z</time></trkpt><trkpt lat="40.47427811825155" lon="9.502068623094324"><ele>535.0</ele><time>2026-04-25T14:14:12Z</time></trkpt><trkpt lat="40.474196934369395" lon="9.5020784857555"><ele>535.0</ele><time>2026-04-25T14:14:14Z</time></trkpt><trkpt lat="40.474083273200876" lon="9.502007206024569"><ele>535.0</ele><time>2026-04-25T14:14:16Z</time></trkpt><trkpt lat="40.47409300854302" lon="9.5019013290014"><ele>535.0</ele><time>2026-04-25T14:14:17Z</time></trkpt><trkpt lat="40.47412510461355" lon="9.501819171176919"><ele>535.0</ele><time>2026-04-25T14:14:18Z</time></trkpt><trkpt lat="40.47418033439485" lon="9.501717879247117"><ele>535.0</ele><time>2026-04-25T14:14:19Z</time></trkpt><trkpt lat="40.474214158208966" lon="9.501579273491433"><ele>535.0</ele><time>2026-04-25T14:14:20Z</time></trkpt><trkpt lat="40.47424246847882" lon="9.501461803545942"><ele>535.0</ele><time>2026-04-25T14:14:21Z</time></trkpt><trkpt lat="40.47424952544508" lon="9.501333535738263"><ele>535.0</ele><time>2026-04-25T14:14:22Z</time></trkpt><trkpt lat="40.47422819203632" lon="9.501211276925575"><ele>535.0</ele><time>2026-04-25T14:14:23Z</time></trkpt><trkpt lat="40.47417579971556" lon="9.501092694053373"><ele>535.0</ele><time>2026-04-25T14:14:24Z</time></trkpt><trkpt lat="40.47413263363127" lon="9.500964051911494"><ele>535.0</ele><time>2026-04-25T14:14:25Z</time></trkpt><trkpt lat="40.474091102869565" lon="9.500837565293505"><ele>533.6</ele><time>2026-04-25T14:14:26Z</time></trkpt><trkpt lat="40.47404606545788" lon="9.500729227699601"><ele>532.2</ele><time>2026-04-25T14:14:27Z</time></trkpt><trkpt lat="40.47400907210546" lon="9.500610378802563"><ele>530.8</ele><time>2026-04-25T14:14:28Z</time></trkpt><trkpt lat="40.47394879379846" lon="9.500494307586457"><ele>529.4</ele><time>2026-04-25T14:14:29Z</time></trkpt><trkpt lat="40.47386387173907" lon="9.500378948782744"><ele>528.0</ele><time>2026-04-25T14:14:30Z</time></trkpt><trkpt lat="40.47377710190936" lon="9.50027203861103"><ele>526.4</ele><time>2026-04-25T14:14:31Z</time></trkpt><trkpt lat="40.47369489924836" lon="9.500165565471676"><ele>524.8</ele><time>2026-04-25T14:14:32Z</time></trkpt><trkpt lat="40.47362210773642" lon="9.500060179446425"><ele>523.2</ele><time>2026-04-25T14:14:33Z</time></trkpt><trkpt lat="40.473546268834674" lon="9.499962610248119"><ele>521.6</ele><time>2026-04-25T14:14:34Z</time></trkpt><trkpt lat="40.473475537206255" lon="9.4999008288528"><ele>520.0</ele><time>2026-04-25T14:14:35Z</time></trkpt><trkpt lat="40.473399839035096" lon="9.499872993042839"><ele>520.0</ele><time>2026-04-25T14:14:36Z</time></trkpt><trkpt lat="40.47332490432843" lon="9.49989935048282"><ele>520.0</ele><time>2026-04-25T14:14:37Z</time></trkpt><trkpt lat="40.47325610641114" lon="9.499974450038968"><ele>520.0</ele><time>2026-04-25T14:14:38Z</time></trkpt><trkpt lat="40.47320579446251" lon="9.500095725508864"><ele>520.0</ele><time>2026-04-25T14:14:39Z</time></trkpt><trkpt lat="40.47318550039196" lon="9.500234094736866"><ele>520.0</ele><time>2026-04-25T14:14:40Z</time></trkpt><trkpt lat="40.47318207955447" lon="9.500380341831866"><ele>522.2</ele><time>2026-04-25T14:14:41Z</time></trkpt><trkpt lat="40.47317095071866" lon="9.500515676101703"><ele>524.4</ele><time>2026-04-25T14:14:42Z</time></trkpt><trkpt lat="40.47314818704854" lon="9.500645200426739"><ele>526.6</ele><time>2026-04-25T14:14:43Z</time></trkpt><trkpt lat="40.47312013127902" lon="9.500772568746003"><ele>528.8</ele><time>2026-04-25T14:14:44Z</time></trkpt><trkpt lat="40.47308941528519" lon="9.5008928206602"><ele>531.0</ele><time>2026-04-25T14:14:45Z</time></trkpt><trkpt lat="40.473060252265434" lon="9.501009198417771"><ele>531.0</ele><time>2026-04-25T14:14:46Z</time></trkpt><trkpt lat="40.47303258196131" lon="9.501121162499068"><ele>531.0</ele><time>2026-04-25T14:14:47Z</time></trkpt><trkpt lat="40.47299904564967" lon="9.501222591854136"><ele>531.0</ele><time>2026-04-25T14:14:48Z</time></trkpt><trkpt lat="40.472942254548045" lon="9.50132169950491"><ele>531.0</ele><time>2026-04-25T14:14:49Z</time></trkpt><trkpt lat="40.4728558258003" lon="9.501408126272278"><ele>531.0</ele><time>2026-04-25T14:14:50Z</time></trkpt><trkpt lat="40.47274262531192" lon="9.501463252420868"><ele>528.6666666666666</ele><time>2026-04-25T14:14:50.999Z</time></trkpt><trkpt lat="40.472589470188055" lon="9.501470362255047"><ele>526.3333333333333</ele><time>2026-04-25T14:14:51.999Z</time></trkpt><trkpt lat="40.472414236434616" lon="9.501515043025403"><ele>524.0</ele><time>2026-04-25T14:14:52.999Z</time></trkpt><trkpt lat="40.472249466588885" lon="9.501537547842924"><ele>524.0</ele><time>2026-04-25T14:14:53.999Z</time></trkpt><trkpt lat="40.472107761086036" lon="9.501557316850477"><ele>524.0</ele><time>2026-04-25T14:14:54.999Z</time></trkpt><trkpt lat="40.471993869234524" lon="9.501576224529748"><ele>524.0</ele><time>2026-04-25T14:14:55.999Z</time></trkpt><trkpt lat="40.471898001676614" lon="9.501593427821073"><ele>524.0</ele><time>2026-04-25T14:14:56.999Z</time></trkpt><trkpt lat="40.47181855641722" lon="9.501575985704184"><ele>524.0</ele><time>2026-04-25T14:14:57.999Z</time></trkpt><trkpt lat="40.47175403916519" lon="9.501530833309893"><ele>523.3333333333333</ele><time>2026-04-25T14:14:58.999Z</time></trkpt><trkpt lat="40.47169969843407" lon="9.501454392698113"><ele>522.6666666666666</ele><time>2026-04-25T14:14:59.999Z</time></trkpt><trkpt lat="40.47167339197219" lon="9.50135977609825"><ele>522.0</ele><time>2026-04-25T14:15:00.999Z</time></trkpt><trkpt lat="40.47164074293936" lon="9.501270099959855"><ele>521.3333333333334</ele><time>2026-04-25T14:15:01.999Z</time></trkpt><trkpt lat="40.471707047787504" lon="9.501176794367217"><ele>520.6666666666667</ele><time>2026-04-25T14:15:02.999Z</time></trkpt><trkpt lat="40.471774831472985" lon="9.501110470031591"><ele>520.0</ele><time>2026-04-25T14:15:03.999Z</time></trkpt><trkpt lat="40.47186242511418" lon="9.5010606979737"><ele>519.4</ele><time>2026-04-25T14:15:04.999Z</time></trkpt><trkpt lat="40.47194347770522" lon="9.500971749082659"><ele>518.8</ele><time>2026-04-25T14:15:05.999Z</time></trkpt><trkpt lat="40.472027731256375" lon="9.500895129631761"><ele>518.2</ele><time>2026-04-25T14:15:06.999Z</time></trkpt><trkpt lat="40.47209861367674" lon="9.500818032816657"><ele>517.6</ele><time>2026-04-25T14:15:07.999Z</time></trkpt><trkpt lat="40.47216044363546" lon="9.500724153197696"><ele>517.0</ele><time>2026-04-25T14:15:08.999Z</time></trkpt><trkpt lat="40.47220881248785" lon="9.500614626521434"><ele>517.0</ele><time>2026-04-25T14:15:09.999Z</time></trkpt><trkpt lat="40.47225573477236" lon="9.500502108314429"><ele>517.0</ele><time>2026-04-25T14:15:10.999Z</time></trkpt><trkpt lat="40.47222906439013" lon="9.500356904677576"><ele>517.0</ele><time>2026-04-25T14:15:11.999Z</time></trkpt><trkpt lat="40.47218555598937" lon="9.500215397824459"><ele>517.0</ele><time>2026-04-25T14:15:12.999Z</time></trkpt><trkpt lat="40.47213412412944" lon="9.500096912835867"><ele>517.0</ele><time>2026-04-25T14:15:13.999Z</time></trkpt><trkpt lat="40.472082885338374" lon="9.499985575691145"><ele>521.0</ele><time>2026-04-25T14:15:14.999Z</time></trkpt><trkpt lat="40.472040591140605" lon="9.49987069305448"><ele>525.0</ele><time>2026-04-25T14:15:15.999Z</time></trkpt><trkpt lat="40.47200266913185" lon="9.499743688014755"><ele>529.0</ele><time>2026-04-25T14:15:16.999Z</time></trkpt><trkpt lat="40.47199783528317" lon="9.499591727710214"><ele>533.0</ele><time>2026-04-25T14:15:17.999Z</time></trkpt><trkpt lat="40.47202914665262" lon="9.499431591988076"><ele>537.0</ele><time>2026-04-25T14:15:18.999Z</time></trkpt><trkpt lat="40.47205198768344" lon="9.499288413950216"><ele>537.0</ele><time>2026-04-25T14:15:19.999Z</time></trkpt><trkpt lat="40.47205426588831" lon="9.49916565780654"><ele>537.0</ele><time>2026-04-25T14:15:20.999Z</time></trkpt><trkpt lat="40.47206639748135" lon="9.499046734322611"><ele>537.0</ele><time>2026-04-25T14:15:21.999Z</time></trkpt><trkpt lat="40.47206630191549" lon="9.498932706598966"><ele>537.0</ele><time>2026-04-25T14:15:22.999Z</time></trkpt><trkpt lat="40.47203685929846" lon="9.498797654952265"><ele>537.0</ele><time>2026-04-25T14:15:23.999Z</time></trkpt><trkpt lat="40.47196179944247" lon="9.49867009379397"><ele>535.5</ele><time>2026-04-25T14:15:24.999Z</time></trkpt><trkpt lat="40.47185596248594" lon="9.498594692261603"><ele>534.0</ele><time>2026-04-25T14:15:25.999Z</time></trkpt><trkpt lat="40.471732705221946" lon="9.498556478331766"><ele>532.5</ele><time>2026-04-25T14:15:26.999Z</time></trkpt><trkpt lat="40.47161399338686" lon="9.498539626854445"><ele>531.0</ele><time>2026-04-25T14:15:27.999Z</time></trkpt><trkpt lat="40.471507991288576" lon="9.498534695294152"><ele>531.0</ele><time>2026-04-25T14:15:28.999Z</time></trkpt><trkpt lat="40.47141501942854" lon="9.498520349964018"><ele>531.0</ele><time>2026-04-25T14:15:30Z</time></trkpt><trkpt lat="40.47132318313575" lon="9.498503628801902"><ele>531.0</ele><time>2026-04-25T14:15:31Z</time></trkpt><trkpt lat="40.47123084830529" lon="9.49848572492173"><ele>531.0</ele><time>2026-04-25T14:15:32Z</time></trkpt><trkpt lat="40.47115153824223" lon="9.498440986603793"><ele>531.0</ele><time>2026-04-25T14:15:33Z</time></trkpt><trkpt lat="40.471096211574064" lon="9.498355285375053"><ele>531.0</ele><time>2026-04-25T14:15:34Z</time></trkpt><trkpt lat="40.47109941303931" lon="9.498244021259616"><ele>531.0</ele><time>2026-04-25T14:15:35Z</time></trkpt><trkpt lat="40.47113996580963" lon="9.498171706183301"><ele>531.0</ele><time>2026-04-25T14:15:36Z</time></trkpt><trkpt lat="40.47119744172631" lon="9.498105762841476"><ele>531.0</ele><time>2026-04-25T14:15:37Z</time></trkpt><trkpt lat="40.47129864621099" lon="9.498044615037013"><ele>531.0</ele><time>2026-04-25T14:15:38Z</time></trkpt><trkpt lat="40.471380283527296" lon="9.49794958466186"><ele>531.2</ele><time>2026-04-25T14:15:39Z</time></trkpt><trkpt lat="40.47144573210786" lon="9.497865884546094"><ele>531.4000000000001</ele><time>2026-04-25T14:15:40Z</time></trkpt><trkpt lat="40.471482705504634" lon="9.497748665637157"><ele>531.6</ele><time>2026-04-25T14:15:41Z</time></trkpt><trkpt lat="40.47150408234224" lon="9.497618799204792"><ele>531.8000000000001</ele><time>2026-04-25T14:15:42Z</time></trkpt><trkpt lat="40.47151730073597" lon="9.497491740149673"><ele>532.0</ele><time>2026-04-25T14:15:43Z</time></trkpt><trkpt lat="40.47152930280879" lon="9.49737174515239"><ele>532.0</ele><time>2026-04-25T14:15:44Z</time></trkpt><trkpt lat="40.47155368695654" lon="9.497264153640671"><ele>532.0</ele><time>2026-04-25T14:15:45Z</time></trkpt><trkpt lat="40.47154481786265" lon="9.497147468675395"><ele>532.0</ele><time>2026-04-25T14:15:46Z</time></trkpt><trkpt lat="40.471551492316" lon="9.497045101338845"><ele>532.0</ele><time>2026-04-25T14:15:47Z</time></trkpt><trkpt lat="40.47155978346066" lon="9.496940817322495"><ele>532.0</ele><time>2026-04-25T14:15:48Z</time></trkpt><trkpt lat="40.47151836236382" lon="9.496838746421998"><ele>532.0</ele><time>2026-04-25T14:15:49Z</time></trkpt><trkpt lat="40.471430998558354" lon="9.496766857283518"><ele>532.0</ele><time>2026-04-25T14:15:50Z</time></trkpt><trkpt lat="40.47136589845837" lon="9.496708148697515"><ele>532.0</ele><time>2026-04-25T14:15:51Z</time></trkpt><trkpt lat="40.47130810162887" lon="9.496659531679901"><ele>532.0</ele><time>2026-04-25T14:15:52Z</time></trkpt><trkpt lat="40.47125733663338" lon="9.496593921133861"><ele>532.0</ele><time>2026-04-25T14:15:53Z</time></trkpt><trkpt lat="40.47121639917319" lon="9.496495377792812"><ele>532.0</ele><time>2026-04-25T14:15:54Z</time></trkpt><trkpt lat="40.471223087446084" lon="9.496346969646087"><ele>532.0</ele><time>2026-04-25T14:15:55Z</time></trkpt><trkpt lat="40.47122732063109" lon="9.496209879803706"><ele>532.5</ele><time>2026-04-25T14:15:56Z</time></trkpt><trkpt lat="40.471228889340125" lon="9.496090657963208"><ele>533.0</ele><time>2026-04-25T14:15:57Z</time></trkpt><trkpt lat="40.47123123955401" lon="9.495985660451447"><ele>533.5</ele><time>2026-04-25T14:15:58Z</time></trkpt><trkpt lat="40.47123788597768" lon="9.49588009125989"><ele>534.0</ele><time>2026-04-25T14:15:59Z</time></trkpt><trkpt lat="40.471262504977744" lon="9.495784809910697"><ele>534.5</ele><time>2026-04-25T14:16:00Z</time></trkpt><trkpt lat="40.47130000988149" lon="9.495693815752338"><ele>535.0</ele><time>2026-04-25T14:16:01Z</time></trkpt><trkpt lat="40.471335242381436" lon="9.49561808756009"><ele>535.0</ele><time>2026-04-25T14:16:02Z</time></trkpt><trkpt lat="40.47137708284352" lon="9.495512387343197"><ele>535.0</ele><time>2026-04-25T14:16:04Z</time></trkpt><trkpt lat="40.471399342236296" lon="9.49541207582854"><ele>535.0</ele><time>2026-04-25T14:16:06Z</time></trkpt><trkpt lat="40.471392659559136" lon="9.495289755666048"><ele>535.0</ele><time>2026-04-25T14:16:08Z</time></trkpt><trkpt lat="40.471379623113656" lon="9.495152148781683"><ele>535.0</ele><time>2026-04-25T14:16:10Z</time></trkpt><trkpt lat="40.471372199677376" lon="9.49506759006203"><ele>535.0</ele><time>2026-04-25T14:16:11Z</time></trkpt><trkpt lat="40.47134524165413" lon="9.4949865479634"><ele>535.4</ele><time>2026-04-25T14:16:12Z</time></trkpt><trkpt lat="40.4712908870334" lon="9.494843780041771"><ele>535.8</ele><time>2026-04-25T14:16:14Z</time></trkpt><trkpt lat="40.47123919859572" lon="9.49471710816504"><ele>536.2</ele><time>2026-04-25T14:16:16Z</time></trkpt><trkpt lat="40.47119078924411" lon="9.49460099858713"><ele>536.6</ele><time>2026-04-25T14:16:18Z</time></trkpt><trkpt lat="40.47113198610126" lon="9.49448242951681"><ele>537.0</ele><time>2026-04-25T14:16:20Z</time></trkpt><trkpt lat="40.47109584758252" lon="9.494406125559317"><ele>536.9999999999999</ele><time>2026-04-25T14:16:21Z</time></trkpt><trkpt lat="40.47106227816717" lon="9.49432651729238"><ele>537.0</ele><time>2026-04-25T14:16:22Z</time></trkpt><trkpt lat="40.471026217509404" lon="9.494236487572001"><ele>537.0</ele><time>2026-04-25T14:16:23Z</time></trkpt><trkpt lat="40.47098812884719" lon="9.494144179795224"><ele>537.0</ele><time>2026-04-25T14:16:24Z</time></trkpt><trkpt lat="40.470955703029865" lon="9.494057453575135"><ele>537.0</ele><time>2026-04-25T14:16:25Z</time></trkpt><trkpt lat="40.47092715752495" lon="9.493967784445044"><ele>536.9999999999999</ele><time>2026-04-25T14:16:26Z</time></trkpt><trkpt lat="40.470912447957076" lon="9.493878068919079"><ele>537.0</ele><time>2026-04-25T14:16:27Z</time></trkpt><trkpt lat="40.470904384756345" lon="9.493793799298244"><ele>536.9999999999999</ele><time>2026-04-25T14:16:28Z</time></trkpt><trkpt lat="40.47090685362475" lon="9.493703240518505"><ele>537.0</ele><time>2026-04-25T14:16:29Z</time></trkpt><trkpt lat="40.47091865271779" lon="9.493610926857512"><ele>537.0</ele><time>2026-04-25T14:16:30Z</time></trkpt><trkpt lat="40.47093750047388" lon="9.49350942271693"><ele>537.0</ele><time>2026-04-25T14:16:31Z</time></trkpt><trkpt lat="40.47096008718185" lon="9.493407645559964"><ele>537.0</ele><time>2026-04-25T14:16:32Z</time></trkpt><trkpt lat="40.47098191414183" lon="9.493314215845935"><ele>536.9999999999999</ele><time>2026-04-25T14:16:33Z</time></trkpt><trkpt lat="40.47100518673588" lon="9.493224006866134"><ele>537.0</ele><time>2026-04-25T14:16:34Z</time></trkpt><trkpt lat="40.47102721167002" lon="9.493133805643705"><ele>536.9999999999999</ele><time>2026-04-25T14:16:35Z</time></trkpt><trkpt lat="40.47104484021478" lon="9.493042743126763"><ele>537.0</ele><time>2026-04-25T14:16:36Z</time></trkpt><trkpt lat="40.471060065395775" lon="9.492951208172975"><ele>537.0</ele><time>2026-04-25T14:16:37Z</time></trkpt><trkpt lat="40.47107215920285" lon="9.492849974497215"><ele>537.0</ele><time>2026-04-25T14:16:38Z</time></trkpt><trkpt lat="40.47108132710889" lon="9.492749171110724"><ele>537.0</ele><time>2026-04-25T14:16:39Z</time></trkpt><trkpt lat="40.471087317378604" lon="9.49265721616154"><ele>536.9999999999999</ele><time>2026-04-25T14:16:40Z</time></trkpt><trkpt lat="40.47109844347824" lon="9.492570577262631"><ele>537.0</ele><time>2026-04-25T14:16:41Z</time></trkpt><trkpt lat="40.47109822320919" lon="9.492482744521414"><ele>537.1666666666666</ele><time>2026-04-25T14:16:42Z</time></trkpt><trkpt lat="40.47110899648656" lon="9.492324817262617"><ele>537.3333333333334</ele><time>2026-04-25T14:16:44Z</time></trkpt><trkpt lat="40.471114551524224" lon="9.492234267599502"><ele>537.5</ele><time>2026-04-25T14:16:45Z</time></trkpt><trkpt lat="40.4711210292372" lon="9.492136580655982"><ele>537.6666666666667</ele><time>2026-04-25T14:16:46Z</time></trkpt><trkpt lat="40.471121210946826" lon="9.492029728169866"><ele>537.8333333333334</ele><time>2026-04-25T14:16:47Z</time></trkpt><trkpt lat="40.4711174232475" lon="9.49192692793671"><ele>538.0</ele><time>2026-04-25T14:16:48Z</time></trkpt><trkpt lat="40.47111430447181" lon="9.49182951028574"><ele>537.5</ele><time>2026-04-25T14:16:49Z</time></trkpt><trkpt lat="40.47111135122287" lon="9.491735339006127"><ele>537.0</ele><time>2026-04-25T14:16:50Z</time></trkpt><trkpt lat="40.47110586898368" lon="9.491634298246785"><ele>536.5</ele><time>2026-04-25T14:16:51Z</time></trkpt><trkpt lat="40.47109483195371" lon="9.491536171730369"><ele>536.0</ele><time>2026-04-25T14:16:52Z</time></trkpt><trkpt lat="40.471077596591606" lon="9.491430526599379"><ele>535.5</ele><time>2026-04-25T14:16:53Z</time></trkpt><trkpt lat="40.47106852921733" lon="9.491321061811123"><ele>535.0</ele><time>2026-04-25T14:16:54Z</time></trkpt><trkpt lat="40.47106522820922" lon="9.49122023907613"><ele>534.1666666666667</ele><time>2026-04-25T14:16:55Z</time></trkpt><trkpt lat="40.471051768697194" lon="9.491119734798616"><ele>533.3333333333334</ele><time>2026-04-25T14:16:56Z</time></trkpt><trkpt lat="40.471042878441594" lon="9.491019787540544"><ele>532.5</ele><time>2026-04-25T14:16:57Z</time></trkpt><trkpt lat="40.47103274980286" lon="9.490904031441211"><ele>531.6666666666666</ele><time>2026-04-25T14:16:58Z</time></trkpt><trkpt lat="40.47102080094055" lon="9.490789958172286"><ele>530.8333333333333</ele><time>2026-04-25T14:16:59Z</time></trkpt><trkpt lat="40.47100654909632" lon="9.490680883848318"><ele>530.0</ele><time>2026-04-25T14:17:00Z</time></trkpt><trkpt lat="40.47099660417728" lon="9.490573044674717"><ele>530.0</ele><time>2026-04-25T14:17:01Z</time></trkpt><trkpt lat="40.47098628768566" lon="9.490462294004162"><ele>530.0</ele><time>2026-04-25T14:17:01.999Z</time></trkpt><trkpt lat="40.47097556953467" lon="9.49034437710862"><ele>530.0</ele><time>2026-04-25T14:17:02.999Z</time></trkpt><trkpt lat="40.47096446642157" lon="9.4902231668884"><ele>530.0</ele><time>2026-04-25T14:17:03.999Z</time></trkpt><trkpt lat="40.47095173327965" lon="9.490098061470034"><ele>530.0</ele><time>2026-04-25T14:17:04.999Z</time></trkpt><trkpt lat="40.47094132255267" lon="9.489973478501687"><ele>529.6666666666666</ele><time>2026-04-25T14:17:05.999Z</time></trkpt><trkpt lat="40.47092788848577" lon="9.489854622894079"><ele>529.3333333333333</ele><time>2026-04-25T14:17:06.999Z</time></trkpt><trkpt lat="40.470916015520615" lon="9.48974057199272"><ele>529.0</ele><time>2026-04-25T14:17:07.999Z</time></trkpt><trkpt lat="40.47090679697592" lon="9.489630853133118"><ele>528.6666666666666</ele><time>2026-04-25T14:17:08.999Z</time></trkpt><trkpt lat="40.47090168799642" lon="9.489513572034966"><ele>528.3333333333334</ele><time>2026-04-25T14:17:09.999Z</time></trkpt><trkpt lat="40.47090890720062" lon="9.48940052239951"><ele>528.0</ele><time>2026-04-25T14:17:10.999Z</time></trkpt><trkpt lat="40.47092625534821" lon="9.489277906068773"><ele>527.4</ele><time>2026-04-25T14:17:11.999Z</time></trkpt><trkpt lat="40.47095002540547" lon="9.489162047533828"><ele>526.8</ele><time>2026-04-25T14:17:12.999Z</time></trkpt><trkpt lat="40.47097447138675" lon="9.489043452167692"><ele>526.2</ele><time>2026-04-25T14:17:13.999Z</time></trkpt><trkpt lat="40.4709992108775" lon="9.488931624794375"><ele>525.6</ele><time>2026-04-25T14:17:14.999Z</time></trkpt><trkpt lat="40.47102725745462" lon="9.488824466182024"><ele>525.0</ele><time>2026-04-25T14:17:15.999Z</time></trkpt><trkpt lat="40.47107144416202" lon="9.488718600594732"><ele>524.5</ele><time>2026-04-25T14:17:16.999Z</time></trkpt><trkpt lat="40.471095414830344" lon="9.488607005550046"><ele>524.0</ele><time>2026-04-25T14:17:17.999Z</time></trkpt><trkpt lat="40.471102909228556" lon="9.488494034184239"><ele>523.5</ele><time>2026-04-25T14:17:18.999Z</time></trkpt><trkpt lat="40.47114127102293" lon="9.488393522149313"><ele>523.0</ele><time>2026-04-25T14:17:19.999Z</time></trkpt><trkpt lat="40.47115426537388" lon="9.488275575900891"><ele>522.5</ele><time>2026-04-25T14:17:20.999Z</time></trkpt><trkpt lat="40.471156458738754" lon="9.488165640616335"><ele>522.0</ele><time>2026-04-25T14:17:21.999Z</time></trkpt><trkpt lat="40.471132696058454" lon="9.488050735354483"><ele>522.0</ele><time>2026-04-25T14:17:22.999Z</time></trkpt><trkpt lat="40.47112628774013" lon="9.487954041588901"><ele>522.0</ele><time>2026-04-25T14:17:23.999Z</time></trkpt><trkpt lat="40.47111863115597" lon="9.487860170220427"><ele>522.0</ele><time>2026-04-25T14:17:24.999Z</time></trkpt><trkpt lat="40.47108881906412" lon="9.487714128139041"><ele>522.0</ele><time>2026-04-25T14:17:26.999Z</time></trkpt><trkpt lat="40.4710155915414" lon="9.487598532685297"><ele>522.0</ele><time>2026-04-25T14:17:28.999Z</time></trkpt><trkpt lat="40.47091797295016" lon="9.487523058868687"><ele>521.5</ele><time>2026-04-25T14:17:30.999Z</time></trkpt><trkpt lat="40.470837743050346" lon="9.487440256289524"><ele>521.0</ele><time>2026-04-25T14:17:32.999Z</time></trkpt><trkpt lat="40.470783948828576" lon="9.487307959133723"><ele>520.5</ele><time>2026-04-25T14:17:34.999Z</time></trkpt><trkpt lat="40.47074641569778" lon="9.487235380021097"><ele>520.0</ele><time>2026-04-25T14:17:36Z</time></trkpt><trkpt lat="40.4706963788603" lon="9.487166683798062"><ele>519.5</ele><time>2026-04-25T14:17:37Z</time></trkpt><trkpt lat="40.4706705251385" lon="9.487083613903176"><ele>519.0</ele><time>2026-04-25T14:17:38Z</time></trkpt><trkpt lat="40.47066820307623" lon="9.486991639862259"><ele>518.7142857142857</ele><time>2026-04-25T14:17:39Z</time></trkpt><trkpt lat="40.47070993584183" lon="9.486907840974947"><ele>518.4285714285713</ele><time>2026-04-25T14:17:40Z</time></trkpt><trkpt lat="40.47071916068413" lon="9.486818114041423"><ele>518.1428571428571</ele><time>2026-04-25T14:17:41Z</time></trkpt><trkpt lat="40.47072175873536" lon="9.48672985535352"><ele>517.8571428571429</ele><time>2026-04-25T14:17:42Z</time></trkpt><trkpt lat="40.47070754039554" lon="9.486634147716105"><ele>517.5714285714287</ele><time>2026-04-25T14:17:43Z</time></trkpt><trkpt lat="40.470680904671916" lon="9.486541276493092"><ele>517.2857142857143</ele><time>2026-04-25T14:17:44Z</time></trkpt><trkpt lat="40.47064397114779" lon="9.486452762499459"><ele>517.0</ele><time>2026-04-25T14:17:45Z</time></trkpt><trkpt lat="40.47059641831939" lon="9.486371280406896"><ele>517.0</ele><time>2026-04-25T14:17:46Z</time></trkpt><trkpt lat="40.470531007328994" lon="9.486310708825723"><ele>517.0</ele><time>2026-04-25T14:17:47Z</time></trkpt><trkpt lat="40.470481866409926" lon="9.486245084449436"><ele>517.0</ele><time>2026-04-25T14:17:48Z</time></trkpt><trkpt lat="40.470435599755724" lon="9.48618594053696"><ele>517.0</ele><time>2026-04-25T14:17:49Z</time></trkpt><trkpt lat="40.470401972464444" lon="9.486114311892706"><ele>517.0</ele><time>2026-04-25T14:17:50Z</time></trkpt><trkpt lat="40.470316776235585" lon="9.486016623853061"><ele>517.0</ele><time>2026-04-25T14:17:52Z</time></trkpt><trkpt lat="40.470233741693775" lon="9.48596546271393"><ele>517.1666666666667</ele><time>2026-04-25T14:17:54Z</time></trkpt><trkpt lat="40.4701699601193" lon="9.485913088123088"><ele>517.3333333333334</ele><time>2026-04-25T14:17:56Z</time></trkpt><trkpt lat="40.470111474184485" lon="9.485864083971459"><ele>517.5</ele><time>2026-04-25T14:17:59Z</time></trkpt><trkpt lat="40.47004845427881" lon="9.485853078085013"><ele>517.6666666666666</ele><time>2026-04-25T14:18:36Z</time></trkpt><trkpt lat="40.47005521799482" lon="9.485712392531104"><ele>517.8333333333333</ele><time>2026-04-25T14:18:38Z</time></trkpt><trkpt lat="40.470045521657255" lon="9.485566504655546"><ele>518.0</ele><time>2026-04-25T14:18:39Z</time></trkpt><trkpt lat="40.47005681535408" lon="9.485447587676699"><ele>517.8</ele><time>2026-04-25T14:18:40Z</time></trkpt><trkpt lat="40.47007109093529" lon="9.485337954265832"><ele>517.5999999999999</ele><time>2026-04-25T14:18:41Z</time></trkpt><trkpt lat="40.470088741403536" lon="9.485225727700087"><ele>517.4000000000001</ele><time>2026-04-25T14:18:42Z</time></trkpt><trkpt lat="40.47010735509954" lon="9.485108433368852"><ele>517.2</ele><time>2026-04-25T14:18:43Z</time></trkpt><trkpt lat="40.47012644859711" lon="9.484980246558985"><ele>517.0</ele><time>2026-04-25T14:18:44Z</time></trkpt><trkpt lat="40.47014592581536" lon="9.484846725697137"><ele>517.0</ele><time>2026-04-25T14:18:45Z</time></trkpt><trkpt lat="40.47016622225066" lon="9.484707588904483"><ele>517.0</ele><time>2026-04-25T14:18:46Z</time></trkpt><trkpt lat="40.47018602403804" lon="9.484571842997818"><ele>517.0</ele><time>2026-04-25T14:18:47Z</time></trkpt><trkpt lat="40.470206013184914" lon="9.484434812417003"><ele>517.0</ele><time>2026-04-25T14:18:48Z</time></trkpt><trkpt lat="40.47022735864181" lon="9.48429268427956"><ele>517.0</ele><time>2026-04-25T14:18:49Z</time></trkpt><trkpt lat="40.47023693151229" lon="9.484135110681487"><ele>516.8333333333334</ele><time>2026-04-25T14:18:50Z</time></trkpt><trkpt lat="40.47025412509878" lon="9.484001675015623"><ele>516.6666666666667</ele><time>2026-04-25T14:18:51Z</time></trkpt><trkpt lat="40.47026715383892" lon="9.48392033885005"><ele>516.5</ele><time>2026-04-25T14:18:52Z</time></trkpt><trkpt lat="40.470276753269644" lon="9.483814437158822"><ele>516.3333333333334</ele><time>2026-04-25T14:18:54Z</time></trkpt><trkpt lat="40.47030754228857" lon="9.483691938118008"><ele>516.1666666666666</ele><time>2026-04-25T14:18:56Z</time></trkpt><trkpt lat="40.47031860039217" lon="9.483605049478534"><ele>516.0</ele><time>2026-04-25T14:18:57Z</time></trkpt><trkpt lat="40.47033044484822" lon="9.483506612778559"><ele>515.4</ele><time>2026-04-25T14:18:58Z</time></trkpt><trkpt lat="40.47034492792696" lon="9.483386279015239"><ele>514.8</ele><time>2026-04-25T14:18:59Z</time></trkpt><trkpt lat="40.47036044491503" lon="9.483257462002564"><ele>514.1999999999999</ele><time>2026-04-25T14:19:00Z</time></trkpt><trkpt lat="40.470366904727825" lon="9.483116281416391"><ele>513.6</ele><time>2026-04-25T14:19:01Z</time></trkpt><trkpt lat="40.47039030029617" lon="9.482988604673864"><ele>513.0</ele><time>2026-04-25T14:19:02Z</time></trkpt><trkpt lat="40.470409268021456" lon="9.482862748603862"><ele>512.6666666666666</ele><time>2026-04-25T14:19:03Z</time></trkpt><trkpt lat="40.47042904401257" lon="9.482748701759423"><ele>512.3333333333334</ele><time>2026-04-25T14:19:04Z</time></trkpt><trkpt lat="40.4704444253865" lon="9.482643106607359"><ele>512.0</ele><time>2026-04-25T14:19:05Z</time></trkpt><trkpt lat="40.47045812334188" lon="9.482550551847773"><ele>511.6666666666667</ele><time>2026-04-25T14:19:06Z</time></trkpt><trkpt lat="40.47047373172817" lon="9.482461181760934"><ele>511.33333333333337</ele><time>2026-04-25T14:19:07Z</time></trkpt><trkpt lat="40.47049099920768" lon="9.482361961050914"><ele>511.0</ele><time>2026-04-25T14:19:08Z</time></trkpt><trkpt lat="40.47051898104494" lon="9.48225207083888"><ele>510.6</ele><time>2026-04-25T14:19:09Z</time></trkpt><trkpt lat="40.47055054113896" lon="9.482133741243258"><ele>510.20000000000005</ele><time>2026-04-25T14:19:10Z</time></trkpt><trkpt lat="40.470583343301755" lon="9.48200398775751"><ele>509.79999999999995</ele><time>2026-04-25T14:19:11Z</time></trkpt><trkpt lat="40.470624046972716" lon="9.48186732438584"><ele>509.4</ele><time>2026-04-25T14:19:12Z</time></trkpt><trkpt lat="40.47066460141833" lon="9.48174773990064"><ele>509.0</ele><time>2026-04-25T14:19:13Z</time></trkpt><trkpt lat="40.470699013175846" lon="9.481629465519953"><ele>508.8333333333333</ele><time>2026-04-25T14:19:14Z</time></trkpt><trkpt lat="40.470736283852546" lon="9.481520738974423"><ele>508.66666666666663</ele><time>2026-04-25T14:19:15Z</time></trkpt><trkpt lat="40.470779261341576" lon="9.48141386910126"><ele>508.5</ele><time>2026-04-25T14:19:16Z</time></trkpt><trkpt lat="40.47081934412584" lon="9.481318788536466"><ele>508.33333333333337</ele><time>2026-04-25T14:19:16.999Z</time></trkpt><trkpt lat="40.47087031735815" lon="9.481224967222849"><ele>508.1666666666667</ele><time>2026-04-25T14:19:17.999Z</time></trkpt><trkpt lat="40.470914657230175" lon="9.481145420407344"><ele>508.0</ele><time>2026-04-25T14:19:18.999Z</time></trkpt><trkpt lat="40.47095694120019" lon="9.48107431484281"><ele>507.4</ele><time>2026-04-25T14:19:19.999Z</time></trkpt><trkpt lat="40.47100068436518" lon="9.4810009860658"><ele>506.79999999999995</ele><time>2026-04-25T14:19:20.999Z</time></trkpt><trkpt lat="40.471048160591145" lon="9.480912767747997"><ele>506.2</ele><time>2026-04-25T14:19:21.999Z</time></trkpt><trkpt lat="40.471105630068266" lon="9.48081163108698"><ele>505.6</ele><time>2026-04-25T14:19:22.999Z</time></trkpt><trkpt lat="40.4711721521334" lon="9.480698597959563"><ele>505.0</ele><time>2026-04-25T14:19:23.999Z</time></trkpt><trkpt lat="40.47124108407033" lon="9.480574073892646"><ele>505.0</ele><time>2026-04-25T14:19:24.999Z</time></trkpt><trkpt lat="40.47132958841891" lon="9.480454828078551"><ele>505.0</ele><time>2026-04-25T14:19:25.999Z</time></trkpt><trkpt lat="40.47139770166558" lon="9.480307728702874"><ele>505.0</ele><time>2026-04-25T14:19:26.999Z</time></trkpt><trkpt lat="40.471478434979204" lon="9.480171006277827"><ele>505.0</ele><time>2026-04-25T14:19:27.999Z</time></trkpt><trkpt lat="40.47155815109665" lon="9.48003960212782"><ele>503.8</ele><time>2026-04-25T14:19:28.999Z</time></trkpt><trkpt lat="40.471631543408826" lon="9.47990958682725"><ele>502.6</ele><time>2026-04-25T14:19:29.999Z</time></trkpt><trkpt lat="40.47169660564146" lon="9.479796910156951"><ele>501.4</ele><time>2026-04-25T14:19:30.999Z</time></trkpt><trkpt lat="40.47174981290124" lon="9.47970697169342"><ele>500.2</ele><time>2026-04-25T14:19:31.999Z</time></trkpt><trkpt lat="40.47179110969522" lon="9.479644290245119"><ele>499.0</ele><time>2026-04-25T14:19:32.999Z</time></trkpt><trkpt lat="40.47186590593423" lon="9.4795160866024"><ele>499.0</ele><time>2026-04-25T14:19:34.999Z</time></trkpt><trkpt lat="40.47193934905381" lon="9.47938994054738"><ele>499.0</ele><time>2026-04-25T14:19:36.999Z</time></trkpt><trkpt lat="40.47198595616302" lon="9.47931865760945"><ele>499.0</ele><time>2026-04-25T14:19:37.999Z</time></trkpt><trkpt lat="40.47203875650094" lon="9.47923385562652"><ele>499.0</ele><time>2026-04-25T14:19:38.999Z</time></trkpt><trkpt lat="40.47209191312944" lon="9.479139911022816"><ele>499.0</ele><time>2026-04-25T14:19:39.999Z</time></trkpt><trkpt lat="40.47214814714737" lon="9.479040671002554"><ele>499.0</ele><time>2026-04-25T14:19:40.999Z</time></trkpt><trkpt lat="40.472211344932695" lon="9.478929566298058"><ele>499.0</ele><time>2026-04-25T14:19:42Z</time></trkpt><trkpt lat="40.47227924622742" lon="9.478814533853468"><ele>499.0</ele><time>2026-04-25T14:19:43Z</time></trkpt><trkpt lat="40.472350466996325" lon="9.478695168757008"><ele>499.0</ele><time>2026-04-25T14:19:44Z</time></trkpt><trkpt lat="40.47241953621428" lon="9.478572637114635"><ele>499.0</ele><time>2026-04-25T14:19:45Z</time></trkpt><trkpt lat="40.47248551216565" lon="9.478455704250585"><ele>499.0</ele><time>2026-04-25T14:19:46Z</time></trkpt><trkpt lat="40.472555933596816" lon="9.47833366685459"><ele>499.0</ele><time>2026-04-25T14:19:47Z</time></trkpt><trkpt lat="40.47262598253116" lon="9.478214186010067"><ele>499.0</ele><time>2026-04-25T14:19:48Z</time></trkpt><trkpt lat="40.47269270236694" lon="9.478102204926284"><ele>499.0</ele><time>2026-04-25T14:19:49Z</time></trkpt><trkpt lat="40.47275518720028" lon="9.477996493411359"><ele>499.0</ele><time>2026-04-25T14:19:50Z</time></trkpt><trkpt lat="40.47281017236737" lon="9.477894839754446"><ele>500.0</ele><time>2026-04-25T14:19:51Z</time></trkpt><trkpt lat="40.4728539530616" lon="9.477811028525709"><ele>501.0</ele><time>2026-04-25T14:19:52Z</time></trkpt><trkpt lat="40.47292768361098" lon="9.477714758213242"><ele>502.0</ele><time>2026-04-25T14:19:54Z</time></trkpt><trkpt lat="40.472820803928386" lon="9.477501754379858"><ele>503.0</ele><time>2026-04-25T14:19:57Z</time></trkpt><trkpt lat="40.472750674149935" lon="9.477440533799227"><ele>503.0</ele><time>2026-04-25T14:19:58Z</time></trkpt><trkpt lat="40.472674556899996" lon="9.477362847042865"><ele>502.99999999999994</ele><time>2026-04-25T14:19:59Z</time></trkpt><trkpt lat="40.47259490620858" lon="9.477271446036632"><ele>502.99999999999994</ele><time>2026-04-25T14:20:00Z</time></trkpt><trkpt lat="40.47251637427211" lon="9.477168857993364"><ele>503.0</ele><time>2026-04-25T14:20:01Z</time></trkpt><trkpt lat="40.47243491009931" lon="9.477058901175175"><ele>503.0</ele><time>2026-04-25T14:20:02Z</time></trkpt><trkpt lat="40.47235030203778" lon="9.476945756857663"><ele>503.75</ele><time>2026-04-25T14:20:03Z</time></trkpt><trkpt lat="40.47225321854698" lon="9.476812726306862"><ele>504.5</ele><time>2026-04-25T14:20:04Z</time></trkpt><trkpt lat="40.472145856850084" lon="9.476662280117692"><ele>505.25</ele><time>2026-04-25T14:20:05Z</time></trkpt><trkpt lat="40.47203778562558" lon="9.4765279296288"><ele>506.0</ele><time>2026-04-25T14:20:06Z</time></trkpt><trkpt lat="40.47191361540361" lon="9.47641895560517"><ele>508.3333333333333</ele><time>2026-04-25T14:20:07Z</time></trkpt><trkpt lat="40.47177168675183" lon="9.476318606726718"><ele>510.66666666666663</ele><time>2026-04-25T14:20:08Z</time></trkpt><trkpt lat="40.471612682844466" lon="9.476227087448265"><ele>513.0</ele><time>2026-04-25T14:20:09Z</time></trkpt><trkpt lat="40.471461828161516" lon="9.4761620405964"><ele>513.8</ele><time>2026-04-25T14:20:10Z</time></trkpt><trkpt lat="40.47135074711591" lon="9.47610064762481"><ele>514.5999999999999</ele><time>2026-04-25T14:20:11Z</time></trkpt><trkpt lat="40.47127632277152" lon="9.47601703311669"><ele>515.4000000000001</ele><time>2026-04-25T14:20:12Z</time></trkpt><trkpt lat="40.47122854148931" lon="9.475911245178674"><ele>516.2</ele><time>2026-04-25T14:20:13Z</time></trkpt><trkpt lat="40.47125303120706" lon="9.475776126490954"><ele>517.0</ele><time>2026-04-25T14:20:14Z</time></trkpt><trkpt lat="40.47125461343843" lon="9.475624419327282"><ele>517.6666666666667</ele><time>2026-04-25T14:20:15Z</time></trkpt><trkpt lat="40.47127004979617" lon="9.475427570069511"><ele>518.3333333333334</ele><time>2026-04-25T14:20:16Z</time></trkpt><trkpt lat="40.47130435175235" lon="9.475199809915654"><ele>519.0</ele><time>2026-04-25T14:20:17Z</time></trkpt><trkpt lat="40.47133056968785" lon="9.474976035909677"><ele>519.3333333333334</ele><time>2026-04-25T14:20:18Z</time></trkpt><trkpt lat="40.47132410561116" lon="9.474775178478515"><ele>519.6666666666667</ele><time>2026-04-25T14:20:19Z</time></trkpt><trkpt lat="40.4713093153723" lon="9.474577920977099"><ele>520.0</ele><time>2026-04-25T14:20:20Z</time></trkpt><trkpt lat="40.47127256522834" lon="9.474374460380076"><ele>520.0</ele><time>2026-04-25T14:20:21Z</time></trkpt><trkpt lat="40.471224003038806" lon="9.474170867901453"><ele>520.0</ele><time>2026-04-25T14:20:22Z</time></trkpt><trkpt lat="40.47117951066399" lon="9.473980152730764"><ele>520.0</ele><time>2026-04-25T14:20:23Z</time></trkpt><trkpt lat="40.47114591946558" lon="9.473786396823515"><ele>520.3333333333334</ele><time>2026-04-25T14:20:24Z</time></trkpt><trkpt lat="40.47112909737879" lon="9.47358218201608"><ele>520.6666666666666</ele><time>2026-04-25T14:20:25Z</time></trkpt><trkpt lat="40.47111825701408" lon="9.473369884516503"><ele>521.0</ele><time>2026-04-25T14:20:26Z</time></trkpt><trkpt lat="40.471109998407485" lon="9.47314924211921"><ele>520.6666666666666</ele><time>2026-04-25T14:20:27Z</time></trkpt><trkpt lat="40.471100473322174" lon="9.47292860132459"><ele>520.3333333333334</ele><time>2026-04-25T14:20:28Z</time></trkpt><trkpt lat="40.47109363503938" lon="9.472707669993042"><ele>520.0</ele><time>2026-04-25T14:20:29Z</time></trkpt><trkpt lat="40.47108908453192" lon="9.472481684376707"><ele>520.0</ele><time>2026-04-25T14:20:30Z</time></trkpt><trkpt lat="40.47108833272466" lon="9.472259745118022"><ele>520.0</ele><time>2026-04-25T14:20:31Z</time></trkpt><trkpt lat="40.471084579563154" lon="9.472050446458548"><ele>520.0</ele><time>2026-04-25T14:20:32Z</time></trkpt><trkpt lat="40.471073834237906" lon="9.471856605126494"><ele>520.0</ele><time>2026-04-25T14:20:33Z</time></trkpt><trkpt lat="40.47105242861418" lon="9.471674258494321"><ele>520.0</ele><time>2026-04-25T14:20:34Z</time></trkpt><trkpt lat="40.471024665657126" lon="9.47149478026292"><ele>520.0</ele><time>2026-04-25T14:20:35Z</time></trkpt><trkpt lat="40.47099096615929" lon="9.471309512928338"><ele>520.0</ele><time>2026-04-25T14:20:36Z</time></trkpt><trkpt lat="40.4709543374092" lon="9.471125345947407"><ele>519.5</ele><time>2026-04-25T14:20:37Z</time></trkpt><trkpt lat="40.47091706289746" lon="9.470939970691171"><ele>519.0</ele><time>2026-04-25T14:20:38Z</time></trkpt><trkpt lat="40.470880170759756" lon="9.470763585496199"><ele>518.5</ele><time>2026-04-25T14:20:39Z</time></trkpt><trkpt lat="40.470843028806804" lon="9.470595281378667"><ele>518.0</ele><time>2026-04-25T14:20:40Z</time></trkpt><trkpt lat="40.47080344244333" lon="9.47042815565614"><ele>517.75</ele><time>2026-04-25T14:20:41Z</time></trkpt><trkpt lat="40.47075823561736" lon="9.47025419073945"><ele>517.5</ele><time>2026-04-25T14:20:42Z</time></trkpt><trkpt lat="40.47070904243311" lon="9.470073340750561"><ele>517.25</ele><time>2026-04-25T14:20:43Z</time></trkpt><trkpt lat="40.4706567558653" lon="9.469886101888966"><ele>517.0</ele><time>2026-04-25T14:20:44Z</time></trkpt><trkpt lat="40.47060351810747" lon="9.469695993673112"><ele>516.6666666666667</ele><time>2026-04-25T14:20:45Z</time></trkpt><trkpt lat="40.470549417468824" lon="9.469506066264392"><ele>516.3333333333334</ele><time>2026-04-25T14:20:46Z</time></trkpt><trkpt lat="40.47049670558575" lon="9.46931243717818"><ele>516.0</ele><time>2026-04-25T14:20:47Z</time></trkpt><trkpt lat="40.47044534374666" lon="9.469132294450738"><ele>516.0</ele><time>2026-04-25T14:20:48Z</time></trkpt><trkpt lat="40.47039098366032" lon="9.46896186840981"><ele>516.0</ele><time>2026-04-25T14:20:49Z</time></trkpt><trkpt lat="40.47033504627141" lon="9.468803782303292"><ele>516.0</ele><time>2026-04-25T14:20:50Z</time></trkpt><trkpt lat="40.4702745674468" lon="9.468656571780814"><ele>516.0</ele><time>2026-04-25T14:20:51Z</time></trkpt><trkpt lat="40.47020601235527" lon="9.468534868086197"><ele>514.75</ele><time>2026-04-25T14:20:52Z</time></trkpt><trkpt lat="40.470129150665024" lon="9.46841138052023"><ele>513.5</ele><time>2026-04-25T14:20:53Z</time></trkpt><trkpt lat="40.47005048690126" lon="9.468289116209101"><ele>512.25</ele><time>2026-04-25T14:20:54Z</time></trkpt><trkpt lat="40.46996900834801" lon="9.468173112495943"><ele>511.0</ele><time>2026-04-25T14:20:55Z</time></trkpt><trkpt lat="40.469878564844635" lon="9.46806396042361"><ele>511.0</ele><time>2026-04-25T14:20:56Z</time></trkpt><trkpt lat="40.469782467784" lon="9.467967860900284"><ele>511.0</ele><time>2026-04-25T14:20:57Z</time></trkpt><trkpt lat="40.469680656269844" lon="9.467882178941338"><ele>511.0</ele><time>2026-04-25T14:20:58Z</time></trkpt><trkpt lat="40.46957552055441" lon="9.467807760502495"><ele>511.0</ele><time>2026-04-25T14:20:59Z</time></trkpt><trkpt lat="40.46946200893071" lon="9.467740590354092"><ele>513.0</ele><time>2026-04-25T14:21:00Z</time></trkpt><trkpt lat="40.4693439327863" lon="9.467678901054443"><ele>515.0</ele><time>2026-04-25T14:21:01Z</time></trkpt><trkpt lat="40.46921892555947" lon="9.467625658469096"><ele>517.0</ele><time>2026-04-25T14:21:02Z</time></trkpt><trkpt lat="40.469096090600935" lon="9.467585050539808"><ele>519.0</ele><time>2026-04-25T14:21:03Z</time></trkpt><trkpt lat="40.46897625463965" lon="9.467552054811602"><ele>519.0</ele><time>2026-04-25T14:21:04Z</time></trkpt><trkpt lat="40.468860316848385" lon="9.467517635059911"><ele>519.0</ele><time>2026-04-25T14:21:05Z</time></trkpt><trkpt lat="40.46874468084402" lon="9.467487131846148"><ele>519.0</ele><time>2026-04-25T14:21:06Z</time></trkpt><trkpt lat="40.468625635592815" lon="9.467457808237375"><ele>519.0</ele><time>2026-04-25T14:21:07Z</time></trkpt><trkpt lat="40.468499897237706" lon="9.46742491985479"><ele>522.25</ele><time>2026-04-25T14:21:08Z</time></trkpt><trkpt lat="40.46836937485943" lon="9.467390147459335"><ele>525.5</ele><time>2026-04-25T14:21:09Z</time></trkpt><trkpt lat="40.468237572428386" lon="9.467355003406812"><ele>528.75</ele><time>2026-04-25T14:21:10Z</time></trkpt><trkpt lat="40.4681203591026" lon="9.467312952957725"><ele>532.0</ele><time>2026-04-25T14:21:11Z</time></trkpt><trkpt lat="40.468025882113814" lon="9.46725379365787"><ele>532.0</ele><time>2026-04-25T14:21:12Z</time></trkpt><trkpt lat="40.46795697979882" lon="9.467166838656164"><ele>532.0</ele><time>2026-04-25T14:21:13Z</time></trkpt><trkpt lat="40.46792955413811" lon="9.467052860514466"><ele>532.0</ele><time>2026-04-25T14:21:14Z</time></trkpt><trkpt lat="40.467922025010616" lon="9.466919812030447"><ele>532.0</ele><time>2026-04-25T14:21:15Z</time></trkpt><trkpt lat="40.46791903173318" lon="9.466775577630088"><ele>532.0</ele><time>2026-04-25T14:21:16Z</time></trkpt><trkpt lat="40.46791292434892" lon="9.466627592963055"><ele>533.4</ele><time>2026-04-25T14:21:17Z</time></trkpt><trkpt lat="40.46790791227359" lon="9.46649040810092"><ele>534.8000000000001</ele><time>2026-04-25T14:21:18Z</time></trkpt><trkpt lat="40.467901006480616" lon="9.466370698498876"><ele>536.2</ele><time>2026-04-25T14:21:19Z</time></trkpt><trkpt lat="40.46788600404229" lon="9.466234823822647"><ele>537.6</ele><time>2026-04-25T14:21:20Z</time></trkpt><trkpt lat="40.46786136948999" lon="9.466076999275115"><ele>539.0</ele><time>2026-04-25T14:21:21Z</time></trkpt><trkpt lat="40.46782066950442" lon="9.465909199296474"><ele>539.0</ele><time>2026-04-25T14:21:22Z</time></trkpt><trkpt lat="40.46775333260619" lon="9.465741440798949"><ele>539.0</ele><time>2026-04-25T14:21:23Z</time></trkpt><trkpt lat="40.46767016353215" lon="9.465581857875602"><ele>539.0</ele><time>2026-04-25T14:21:23.999Z</time></trkpt><trkpt lat="40.46758088955211" lon="9.465445218763566"><ele>539.0</ele><time>2026-04-25T14:21:24.999Z</time></trkpt><trkpt lat="40.467493306091555" lon="9.465323384581758"><ele>536.5</ele><time>2026-04-25T14:21:25.999Z</time></trkpt><trkpt lat="40.46741642701048" lon="9.465195974415796"><ele>534.0</ele><time>2026-04-25T14:21:26.999Z</time></trkpt><trkpt lat="40.46735810846179" lon="9.465050542801698"><ele>531.5</ele><time>2026-04-25T14:21:27.999Z</time></trkpt><trkpt lat="40.46734662816617" lon="9.464887272044871"><ele>529.0</ele><time>2026-04-25T14:21:28.999Z</time></trkpt><trkpt lat="40.46731398393326" lon="9.464730700195979"><ele>526.5</ele><time>2026-04-25T14:21:29.999Z</time></trkpt><trkpt lat="40.467303408509466" lon="9.464560560498912"><ele>524.0</ele><time>2026-04-25T14:21:30.999Z</time></trkpt><trkpt lat="40.46729704649289" lon="9.46438873116168"><ele>521.5</ele><time>2026-04-25T14:21:31.999Z</time></trkpt><trkpt lat="40.467294206432214" lon="9.464218861684877"><ele>519.0</ele><time>2026-04-25T14:21:32.999Z</time></trkpt><trkpt lat="40.4672887651835" lon="9.464045910756319"><ele>519.0</ele><time>2026-04-25T14:21:33.999Z</time></trkpt><trkpt lat="40.46728424576101" lon="9.46386978754382"><ele>519.0</ele><time>2026-04-25T14:21:34.999Z</time></trkpt><trkpt lat="40.46726993771384" lon="9.463703533604981"><ele>519.0</ele><time>2026-04-25T14:21:35.999Z</time></trkpt><trkpt lat="40.467241486293666" lon="9.463527111997134"><ele>519.0</ele><time>2026-04-25T14:21:36.999Z</time></trkpt><trkpt lat="40.4671993712175" lon="9.463349315735583"><ele>518.0</ele><time>2026-04-25T14:21:37.999Z</time></trkpt><trkpt lat="40.46714615437682" lon="9.46318034196159"><ele>517.0</ele><time>2026-04-25T14:21:38.999Z</time></trkpt><trkpt lat="40.467090430194574" lon="9.463012870784034"><ele>516.0</ele><time>2026-04-25T14:21:39.999Z</time></trkpt><trkpt lat="40.46702708027337" lon="9.462864263829552"><ele>515.0</ele><time>2026-04-25T14:21:40.999Z</time></trkpt><trkpt lat="40.466948200048584" lon="9.462731846342354"><ele>515.0</ele><time>2026-04-25T14:21:41.999Z</time></trkpt><trkpt lat="40.46683664537344" lon="9.462623523537781"><ele>515.0</ele><time>2026-04-25T14:21:42.999Z</time></trkpt><trkpt lat="40.46673117143449" lon="9.462506732767814"><ele>515.0</ele><time>2026-04-25T14:21:43.999Z</time></trkpt><trkpt lat="40.46663139736245" lon="9.46238370979876"><ele>515.0</ele><time>2026-04-25T14:21:44.999Z</time></trkpt><trkpt lat="40.46653595377634" lon="9.462240783611582"><ele>516.0</ele><time>2026-04-25T14:21:45.999Z</time></trkpt><trkpt lat="40.46644588145011" lon="9.462097560485102"><ele>517.0</ele><time>2026-04-25T14:21:46.999Z</time></trkpt><trkpt lat="40.46636048283248" lon="9.461952347540178"><ele>518.0</ele><time>2026-04-25T14:21:48Z</time></trkpt><trkpt lat="40.46627451548034" lon="9.461811796832752"><ele>519.0</ele><time>2026-04-25T14:21:49Z</time></trkpt><trkpt lat="40.4661781017684" lon="9.461687323901236"><ele>519.0</ele><time>2026-04-25T14:21:50Z</time></trkpt><trkpt lat="40.466070264257596" lon="9.461578636791796"><ele>519.0</ele><time>2026-04-25T14:21:51Z</time></trkpt><trkpt lat="40.4659545597667" lon="9.461483977664702"><ele>519.0</ele><time>2026-04-25T14:21:52Z</time></trkpt><trkpt lat="40.46583077005214" lon="9.461392193417492"><ele>519.0</ele><time>2026-04-25T14:21:53Z</time></trkpt><trkpt lat="40.465703686731715" lon="9.461306784779152"><ele>521.0</ele><time>2026-04-25T14:21:54Z</time></trkpt><trkpt lat="40.46556925674118" lon="9.461227971609688"><ele>523.0</ele><time>2026-04-25T14:21:55Z</time></trkpt><trkpt lat="40.46542364865716" lon="9.461157651119535"><ele>525.0</ele><time>2026-04-25T14:21:56Z</time></trkpt><trkpt lat="40.46527198836427" lon="9.461093292808274"><ele>525.0</ele><time>2026-04-25T14:21:57Z</time></trkpt><trkpt lat="40.46512092328849" lon="9.461031884022681"><ele>525.0</ele><time>2026-04-25T14:21:58Z</time></trkpt><trkpt lat="40.46496936473134" lon="9.460971228587697"><ele>525.0</ele><time>2026-04-25T14:21:59Z</time></trkpt><trkpt lat="40.46484367735453" lon="9.460917584767607"><ele>525.0</ele><time>2026-04-25T14:22:00Z</time></trkpt><trkpt lat="40.46472905925462" lon="9.460867887378551"><ele>525.0</ele><time>2026-04-25T14:22:01Z</time></trkpt><trkpt lat="40.46462632466142" lon="9.460824674794992"><ele>525.0</ele><time>2026-04-25T14:22:02Z</time></trkpt><trkpt lat="40.464539720303726" lon="9.460788620118516"><ele>525.0</ele><time>2026-04-25T14:22:03Z</time></trkpt><trkpt lat="40.464469038002875" lon="9.460751688174492"><ele>525.0</ele><time>2026-04-25T14:22:04Z</time></trkpt><trkpt lat="40.46441451488026" lon="9.460706972919574"><ele>525.0</ele><time>2026-04-25T14:22:05Z</time></trkpt><trkpt lat="40.464324692916264" lon="9.46060696689993"><ele>526.4</ele><time>2026-04-25T14:22:07Z</time></trkpt><trkpt lat="40.464264748520236" lon="9.46052158261649"><ele>527.8</ele><time>2026-04-25T14:22:09Z</time></trkpt><trkpt lat="40.46418648236109" lon="9.460425958037616"><ele>529.2</ele><time>2026-04-25T14:22:12Z</time></trkpt><trkpt lat="40.46407740417591" lon="9.46044644910431"><ele>530.6</ele><time>2026-04-25T14:22:13Z</time></trkpt><trkpt lat="40.463968733777314" lon="9.46046970914244"><ele>532.0</ele><time>2026-04-25T14:22:14Z</time></trkpt><trkpt lat="40.463848492186465" lon="9.460514861274673"><ele>530.75</ele><time>2026-04-25T14:22:15Z</time></trkpt><trkpt lat="40.46371701762728" lon="9.460565333298687"><ele>529.5</ele><time>2026-04-25T14:22:16Z</time></trkpt><trkpt lat="40.46358198251445" lon="9.46061034661382"><ele>528.25</ele><time>2026-04-25T14:22:17Z</time></trkpt><trkpt lat="40.46344388898212" lon="9.460647984756708"><ele>527.0</ele><time>2026-04-25T14:22:18Z</time></trkpt><trkpt lat="40.46314942678103" lon="9.460725759154265"><ele>527.0</ele><time>2026-04-25T14:22:20Z</time></trkpt><trkpt lat="40.462994692429376" lon="9.460764317552957"><ele>527.0</ele><time>2026-04-25T14:22:21Z</time></trkpt><trkpt lat="40.46283141499496" lon="9.46080579105898"><ele>527.0</ele><time>2026-04-25T14:22:22Z</time></trkpt><trkpt lat="40.46265232835792" lon="9.460851498262885"><ele>521.6666666666666</ele><time>2026-04-25T14:22:23Z</time></trkpt><trkpt lat="40.46248702351632" lon="9.460897339095743"><ele>516.3333333333334</ele><time>2026-04-25T14:22:24Z</time></trkpt><trkpt lat="40.46232853917785" lon="9.460942376117405"><ele>511.0</ele><time>2026-04-25T14:22:25Z</time></trkpt><trkpt lat="40.46217387347815" lon="9.460985113196525"><ele>507.0</ele><time>2026-04-25T14:22:26Z</time></trkpt><trkpt lat="40.4620256506142" lon="9.461030928460817"><ele>503.0</ele><time>2026-04-25T14:22:27Z</time></trkpt><trkpt lat="40.46187944258866" lon="9.461085436413303"><ele>499.0</ele><time>2026-04-25T14:22:28Z</time></trkpt><trkpt lat="40.46174050252287" lon="9.461150439283333"><ele>499.0</ele><time>2026-04-25T14:22:29Z</time></trkpt><trkpt lat="40.46161069475342" lon="9.461229193373878"><ele>499.0</ele><time>2026-04-25T14:22:30Z</time></trkpt><trkpt lat="40.46149291098543" lon="9.461324514523266"><ele>499.0</ele><time>2026-04-25T14:22:31Z</time></trkpt><trkpt lat="40.46138497073619" lon="9.461431386163865"><ele>499.0</ele><time>2026-04-25T14:22:32Z</time></trkpt><trkpt lat="40.461282153777624" lon="9.461558625059508"><ele>499.6666666666667</ele><time>2026-04-25T14:22:33Z</time></trkpt><trkpt lat="40.46118888363503" lon="9.461705922835037"><ele>500.33333333333337</ele><time>2026-04-25T14:22:34Z</time></trkpt><trkpt lat="40.46109927177643" lon="9.461872454452246"><ele>501.0</ele><time>2026-04-25T14:22:35Z</time></trkpt><trkpt lat="40.461027897497246" lon="9.462056271614841"><ele>504.0</ele><time>2026-04-25T14:22:36Z</time></trkpt><trkpt lat="40.4609739744295" lon="9.462246490190303"><ele>507.0</ele><time>2026-04-25T14:22:37Z</time></trkpt><trkpt lat="40.460938399914696" lon="9.462452930926826"><ele>510.0</ele><time>2026-04-25T14:22:38Z</time></trkpt><trkpt lat="40.46091771241492" lon="9.462661052191208"><ele>510.0</ele><time>2026-04-25T14:22:39Z</time></trkpt><trkpt lat="40.46091280015174" lon="9.462864228892279"><ele>510.0</ele><time>2026-04-25T14:22:40Z</time></trkpt><trkpt lat="40.460932316239145" lon="9.463076524667859"><ele>510.0</ele><time>2026-04-25T14:22:41Z</time></trkpt><trkpt lat="40.46097198821312" lon="9.463310592599196"><ele>507.0</ele><time>2026-04-25T14:22:42Z</time></trkpt><trkpt lat="40.46103514073592" lon="9.46353452891564"><ele>504.0</ele><time>2026-04-25T14:22:43Z</time></trkpt><trkpt lat="40.46109918482283" lon="9.463743357610717"><ele>501.0</ele><time>2026-04-25T14:22:44Z</time></trkpt><trkpt lat="40.46115865494084" lon="9.463952192952771"><ele>496.33333333333337</ele><time>2026-04-25T14:22:45Z</time></trkpt><trkpt lat="40.46119960179344" lon="9.464162909713895"><ele>491.6666666666667</ele><time>2026-04-25T14:22:46Z</time></trkpt><trkpt lat="40.46122271956266" lon="9.464372235791796"><ele>487.0</ele><time>2026-04-25T14:22:47Z</time></trkpt><trkpt lat="40.461226067865965" lon="9.464580014287998"><ele>488.33333333333337</ele><time>2026-04-25T14:22:48Z</time></trkpt><trkpt lat="40.46121105880422" lon="9.464784737217595"><ele>489.66666666666663</ele><time>2026-04-25T14:22:49Z</time></trkpt><trkpt lat="40.46117132537104" lon="9.464993048950681"><ele>491.0</ele><time>2026-04-25T14:22:50Z</time></trkpt><trkpt lat="40.461114163008254" lon="9.465200328273792"><ele>491.0</ele><time>2026-04-25T14:22:51Z</time></trkpt><trkpt lat="40.46103122748792" lon="9.465406974538359"><ele>491.0</ele><time>2026-04-25T14:22:52Z</time></trkpt><trkpt lat="40.46092516799616" lon="9.465603447696717"><ele>491.0</ele><time>2026-04-25T14:22:53Z</time></trkpt><trkpt lat="40.4607978451041" lon="9.465786661881399"><ele>491.0</ele><time>2026-04-25T14:22:54Z</time></trkpt><trkpt lat="40.46065311090565" lon="9.465959240888454"><ele>491.0</ele><time>2026-04-25T14:22:55Z</time></trkpt><trkpt lat="40.46048709159372" lon="9.466130879680273"><ele>491.0</ele><time>2026-04-25T14:22:56Z</time></trkpt><trkpt lat="40.460318730899296" lon="9.466299851324967"><ele>491.0</ele><time>2026-04-25T14:22:57Z</time></trkpt><trkpt lat="40.460158099457246" lon="9.46645684267339"><ele>491.0</ele><time>2026-04-25T14:22:58Z</time></trkpt><trkpt lat="40.46000322463862" lon="9.466610706586517"><ele>491.0</ele><time>2026-04-25T14:22:59Z</time></trkpt><trkpt lat="40.45984604558327" lon="9.466763437233347"><ele>491.0</ele><time>2026-04-25T14:23:00Z</time></trkpt><trkpt lat="40.45968430107998" lon="9.466897028800842"><ele>491.0</ele><time>2026-04-25T14:23:01Z</time></trkpt><trkpt lat="40.45951079617792" lon="9.466996673205292"><ele>491.0</ele><time>2026-04-25T14:23:02Z</time></trkpt><trkpt lat="40.45933389236108" lon="9.467039118705308"><ele>483.66666666666663</ele><time>2026-04-25T14:23:03Z</time></trkpt><trkpt lat="40.459155991739934" lon="9.46706938013253"><ele>476.33333333333337</ele><time>2026-04-25T14:23:04Z</time></trkpt><trkpt lat="40.4589801283563" lon="9.46706699215842"><ele>469.0</ele><time>2026-04-25T14:23:05Z</time></trkpt><trkpt lat="40.45880956412453" lon="9.467031371854567"><ele>466.33333333333337</ele><time>2026-04-25T14:23:06Z</time></trkpt><trkpt lat="40.45864310446218" lon="9.466971207011003"><ele>463.66666666666663</ele><time>2026-04-25T14:23:07Z</time></trkpt><trkpt lat="40.45847500288146" lon="9.466901414127534"><ele>461.0</ele><time>2026-04-25T14:23:08Z</time></trkpt><trkpt lat="40.45832435756226" lon="9.466762860566007"><ele>461.0</ele><time>2026-04-25T14:23:09Z</time></trkpt><trkpt lat="40.45817271102289" lon="9.46661584311851"><ele>461.0</ele><time>2026-04-25T14:23:10Z</time></trkpt><trkpt lat="40.45802071998603" lon="9.466475802126645"><ele>461.0</ele><time>2026-04-25T14:23:11Z</time></trkpt><trkpt lat="40.45788181465661" lon="9.466327076073007"><ele>456.0</ele><time>2026-04-25T14:23:12Z</time></trkpt><trkpt lat="40.45774128792039" lon="9.466189432379066"><ele>451.0</ele><time>2026-04-25T14:23:13Z</time></trkpt><trkpt lat="40.457599561069635" lon="9.466060943969644"><ele>446.0</ele><time>2026-04-25T14:23:14Z</time></trkpt><trkpt lat="40.457453877930625" lon="9.465944909756036"><ele>446.0</ele><time>2026-04-25T14:23:15Z</time></trkpt><trkpt lat="40.457304932013926" lon="9.465846394298577"><ele>446.0</ele><time>2026-04-25T14:23:16Z</time></trkpt><trkpt lat="40.45715183924827" lon="9.465778221483516"><ele>446.0</ele><time>2026-04-25T14:23:17Z</time></trkpt><trkpt lat="40.456992585020046" lon="9.465743053362365"><ele>446.0</ele><time>2026-04-25T14:23:18Z</time></trkpt><trkpt lat="40.45682162257595" lon="9.465733884630529"><ele>446.0</ele><time>2026-04-25T14:23:19Z</time></trkpt><trkpt lat="40.45664396926056" lon="9.465754601694666"><ele>446.0</ele><time>2026-04-25T14:23:20Z</time></trkpt><trkpt lat="40.456470117364" lon="9.465800628938144"><ele>446.0</ele><time>2026-04-25T14:23:21Z</time></trkpt><trkpt lat="40.456309764345995" lon="9.465870975065245"><ele>446.0</ele><time>2026-04-25T14:23:22Z</time></trkpt><trkpt lat="40.4561590077954" lon="9.465963775736482"><ele>446.0</ele><time>2026-04-25T14:23:23Z</time></trkpt><trkpt lat="40.45602091110515" lon="9.466085250210703"><ele>446.3333333333333</ele><time>2026-04-25T14:23:24Z</time></trkpt><trkpt lat="40.455889993580726" lon="9.466240484600942"><ele>446.66666666666663</ele><time>2026-04-25T14:23:25Z</time></trkpt><trkpt lat="40.455766029355686" lon="9.466423047718063"><ele>447.0</ele><time>2026-04-25T14:23:26Z</time></trkpt><trkpt lat="40.455647726790275" lon="9.466643691210367"><ele>447.0</ele><time>2026-04-25T14:23:27Z</time></trkpt><trkpt lat="40.45553258382254" lon="9.466888772759727"><ele>447.0</ele><time>2026-04-25T14:23:27.999Z</time></trkpt><trkpt lat="40.45542756601993" lon="9.467118885282252"><ele>447.0</ele><time>2026-04-25T14:23:28.999Z</time></trkpt><trkpt lat="40.45531857497376" lon="9.46733263301919"><ele>440.0</ele><time>2026-04-25T14:23:29.999Z</time></trkpt><trkpt lat="40.45519420780347" lon="9.467518947302963"><ele>433.0</ele><time>2026-04-25T14:23:30.999Z</time></trkpt><trkpt lat="40.455050532717244" lon="9.467676588001767"><ele>426.0</ele><time>2026-04-25T14:23:31.999Z</time></trkpt><trkpt lat="40.45489277819915" lon="9.467799611068473"><ele>426.0</ele><time>2026-04-25T14:23:32.999Z</time></trkpt><trkpt lat="40.45472478095616" lon="9.467902362400604"><ele>426.0</ele><time>2026-04-25T14:23:33.999Z</time></trkpt><trkpt lat="40.454564827445175" lon="9.467999788455726"><ele>426.0</ele><time>2026-04-25T14:23:34.999Z</time></trkpt><trkpt lat="40.45440098650194" lon="9.468108894765894"><ele>421.66666666666663</ele><time>2026-04-25T14:23:35.999Z</time></trkpt><trkpt lat="40.454233360549" lon="9.468211544543465"><ele>417.3333333333333</ele><time>2026-04-25T14:23:36.999Z</time></trkpt><trkpt lat="40.45405992190716" lon="9.468317004401138"><ele>413.0</ele><time>2026-04-25T14:23:37.999Z</time></trkpt><trkpt lat="40.45388690052996" lon="9.468429103893076"><ele>414.66666666666663</ele><time>2026-04-25T14:23:38.999Z</time></trkpt><trkpt lat="40.4537085613696" lon="9.46854941614393"><ele>416.33333333333337</ele><time>2026-04-25T14:23:39.999Z</time></trkpt><trkpt lat="40.45353205520362" lon="9.468669360034394"><ele>418.0</ele><time>2026-04-25T14:23:40.999Z</time></trkpt><trkpt lat="40.453355664023434" lon="9.468784276996432"><ele>418.0</ele><time>2026-04-25T14:23:41.999Z</time></trkpt><trkpt lat="40.45317846440933" lon="9.468902026102842"><ele>418.0</ele><time>2026-04-25T14:23:42.999Z</time></trkpt><trkpt lat="40.4529993712428" lon="9.469021213580383"><ele>418.0</ele><time>2026-04-25T14:23:43.999Z</time></trkpt><trkpt lat="40.452818866317244" lon="9.469140793016015"><ele>424.6666666666667</ele><time>2026-04-25T14:23:44.999Z</time></trkpt><trkpt lat="40.45263641640057" lon="9.46925906285676"><ele>431.33333333333337</ele><time>2026-04-25T14:23:45.999Z</time></trkpt><trkpt lat="40.45245494942465" lon="9.469377392020396"><ele>438.0</ele><time>2026-04-25T14:23:46.999Z</time></trkpt><trkpt lat="40.4522706768959" lon="9.469495978632077"><ele>438.0</ele><time>2026-04-25T14:23:47.999Z</time></trkpt><trkpt lat="40.45207858366293" lon="9.469621935816129"><ele>438.0</ele><time>2026-04-25T14:23:48.999Z</time></trkpt><trkpt lat="40.45187882565409" lon="9.469756468655527"><ele>438.0</ele><time>2026-04-25T14:23:49.999Z</time></trkpt><trkpt lat="40.45168319746963" lon="9.469891820299715"><ele>438.0</ele><time>2026-04-25T14:23:50.999Z</time></trkpt><trkpt lat="40.45149465987347" lon="9.470011850284363"><ele>438.0</ele><time>2026-04-25T14:23:51.999Z</time></trkpt><trkpt lat="40.451314020938426" lon="9.470112254554284"><ele>438.0</ele><time>2026-04-25T14:23:52.999Z</time></trkpt><trkpt lat="40.45113297451454" lon="9.470190919277808"><ele>432.66666666666663</ele><time>2026-04-25T14:23:54Z</time></trkpt><trkpt lat="40.4509541908746" lon="9.470239526229348"><ele>427.3333333333333</ele><time>2026-04-25T14:23:55Z</time></trkpt><trkpt lat="40.450773409753786" lon="9.47026541363062"><ele>422.0</ele><time>2026-04-25T14:23:56Z</time></trkpt><trkpt lat="40.45059381234099" lon="9.470263703153236"><ele>421.0</ele><time>2026-04-25T14:23:57Z</time></trkpt><trkpt lat="40.45042060820271" lon="9.470236055275208"><ele>420.0</ele><time>2026-04-25T14:23:58Z</time></trkpt><trkpt lat="40.450245800549204" lon="9.470180273191085"><ele>419.0</ele><time>2026-04-25T14:23:59Z</time></trkpt><trkpt lat="40.45006498292054" lon="9.470110540184368"><ele>419.0</ele><time>2026-04-25T14:24:00Z</time></trkpt><trkpt lat="40.44988345256734" lon="9.470014876875826"><ele>419.0</ele><time>2026-04-25T14:24:01Z</time></trkpt><trkpt lat="40.44970258339701" lon="9.469889680637705"><ele>419.0</ele><time>2026-04-25T14:24:02Z</time></trkpt><trkpt lat="40.449521949345225" lon="9.46973979336173"><ele>416.5</ele><time>2026-04-25T14:24:03Z</time></trkpt><trkpt lat="40.449330495591276" lon="9.469575988117528"><ele>414.0</ele><time>2026-04-25T14:24:04Z</time></trkpt><trkpt lat="40.449131792237054" lon="9.469411140873406"><ele>414.0</ele><time>2026-04-25T14:24:05Z</time></trkpt><trkpt lat="40.44893595098953" lon="9.469253415287435"><ele>414.0</ele><time>2026-04-25T14:24:06Z</time></trkpt><trkpt lat="40.44874809101688" lon="9.469107505608891"><ele>414.0</ele><time>2026-04-25T14:24:07Z</time></trkpt><trkpt lat="40.44856850489369" lon="9.468964879227372"><ele>409.33333333333337</ele><time>2026-04-25T14:24:08Z</time></trkpt><trkpt lat="40.44839216181543" lon="9.468824724475937"><ele>404.6666666666667</ele><time>2026-04-25T14:24:09Z</time></trkpt><trkpt lat="40.448220075301975" lon="9.4686858906517"><ele>400.0</ele><time>2026-04-25T14:24:10Z</time></trkpt><trkpt lat="40.44805316669156" lon="9.468549252033668"><ele>394.0</ele><time>2026-04-25T14:24:11Z</time></trkpt><trkpt lat="40.44788797209497" lon="9.468411749554111"><ele>388.0</ele><time>2026-04-25T14:24:12Z</time></trkpt><trkpt lat="40.44771690534311" lon="9.46827334071543"><ele>382.0</ele><time>2026-04-25T14:24:13Z</time></trkpt><trkpt lat="40.44754459810307" lon="9.46813966530325"><ele>382.0</ele><time>2026-04-25T14:24:14Z</time></trkpt><trkpt lat="40.447371038769774" lon="9.46800355052124"><ele>382.0</ele><time>2026-04-25T14:24:15Z</time></trkpt><trkpt lat="40.44719984418261" lon="9.467867211035792"><ele>382.0</ele><time>2026-04-25T14:24:16Z</time></trkpt><trkpt lat="40.44702865324926" lon="9.467729576085262"><ele>378.3333333333333</ele><time>2026-04-25T14:24:17Z</time></trkpt><trkpt lat="40.446859461558034" lon="9.467587361304737"><ele>374.6666666666667</ele><time>2026-04-25T14:24:18Z</time></trkpt><trkpt lat="40.44668990132501" lon="9.467445389358069"><ele>371.0</ele><time>2026-04-25T14:24:19Z</time></trkpt><trkpt lat="40.44652114579857" lon="9.467308354625077"><ele>371.0</ele><time>2026-04-25T14:24:20Z</time></trkpt><trkpt lat="40.44634944505583" lon="9.467169493833607"><ele>371.0</ele><time>2026-04-25T14:24:21Z</time></trkpt><trkpt lat="40.44617844881182" lon="9.467029362705484"><ele>371.0</ele><time>2026-04-25T14:24:22Z</time></trkpt><trkpt lat="40.44600801472493" lon="9.466884218289158"><ele>377.33333333333337</ele><time>2026-04-25T14:24:23Z</time></trkpt><trkpt lat="40.44584190288571" lon="9.466730482353602"><ele>383.6666666666667</ele><time>2026-04-25T14:24:24Z</time></trkpt><trkpt lat="40.44567925680523" lon="9.466558615002679"><ele>390.0</ele><time>2026-04-25T14:24:25Z</time></trkpt><trkpt lat="40.44552544296846" lon="9.466377356182024"><ele>394.0</ele><time>2026-04-25T14:24:26Z</time></trkpt><trkpt lat="40.445381998158716" lon="9.466185623481406"><ele>398.0</ele><time>2026-04-25T14:24:27Z</time></trkpt><trkpt lat="40.44523852741991" lon="9.465974994887473"><ele>402.0</ele><time>2026-04-25T14:24:28Z</time></trkpt><trkpt lat="40.4450916031792" lon="9.465739857068389"><ele>402.0</ele><time>2026-04-25T14:24:29Z</time></trkpt><trkpt lat="40.44494891604553" lon="9.46549475947396"><ele>402.0</ele><time>2026-04-25T14:24:30Z</time></trkpt><trkpt lat="40.44480447866198" lon="9.46523127176072"><ele>402.0</ele><time>2026-04-25T14:24:31Z</time></trkpt><trkpt lat="40.444662427588916" lon="9.464964664136168"><ele>402.0</ele><time>2026-04-25T14:24:32Z</time></trkpt><trkpt lat="40.44451682013606" lon="9.464687471302485"><ele>398.5</ele><time>2026-04-25T14:24:33Z</time></trkpt><trkpt lat="40.44437241965712" lon="9.46441355688467"><ele>395.0</ele><time>2026-04-25T14:24:34Z</time></trkpt><trkpt lat="40.44423758822932" lon="9.464158846784436"><ele>395.0</ele><time>2026-04-25T14:24:35Z</time></trkpt><trkpt lat="40.444114938767704" lon="9.46392783196015"><ele>395.0</ele><time>2026-04-25T14:24:36Z</time></trkpt><trkpt lat="40.44400416924122" lon="9.46371837381685"><ele>395.0</ele><time>2026-04-25T14:24:37Z</time></trkpt><trkpt lat="40.443901453783454" lon="9.463528500269803"><ele>394.66666666666663</ele><time>2026-04-25T14:24:38Z</time></trkpt><trkpt lat="40.44380553808505" lon="9.463349575144376"><ele>394.33333333333337</ele><time>2026-04-25T14:24:39Z</time></trkpt><trkpt lat="40.44371091693841" lon="9.463176218181452"><ele>394.0</ele><time>2026-04-25T14:24:40Z</time></trkpt><trkpt lat="40.44361324135335" lon="9.463001550814186"><ele>398.33333333333337</ele><time>2026-04-25T14:24:41Z</time></trkpt><trkpt lat="40.443514823964755" lon="9.462829163151842"><ele>402.66666666666663</ele><time>2026-04-25T14:24:42Z</time></trkpt><trkpt lat="40.44341352941821" lon="9.462652176007401"><ele>407.0</ele><time>2026-04-25T14:24:43Z</time></trkpt><trkpt lat="40.44331639634462" lon="9.462476113183465"><ele>407.0</ele><time>2026-04-25T14:24:44Z</time></trkpt><trkpt lat="40.4432274945002" lon="9.462294892177637"><ele>407.0</ele><time>2026-04-25T14:24:45Z</time></trkpt><trkpt lat="40.443137176048644" lon="9.4621153695074"><ele>407.0</ele><time>2026-04-25T14:24:46Z</time></trkpt><trkpt lat="40.44304667284639" lon="9.46193676105678"><ele>404.0</ele><time>2026-04-25T14:24:47Z</time></trkpt><trkpt lat="40.44295461532983" lon="9.461764053979861"><ele>401.0</ele><time>2026-04-25T14:24:48Z</time></trkpt><trkpt lat="40.44286856117662" lon="9.461613610695437"><ele>398.0</ele><time>2026-04-25T14:24:49Z</time></trkpt><trkpt lat="40.442797627168076" lon="9.461486463912761"><ele>395.0</ele><time>2026-04-25T14:24:50Z</time></trkpt><trkpt lat="40.44272906979334" lon="9.461360943538766"><ele>395.2</ele><time>2026-04-25T14:24:51Z</time></trkpt><trkpt lat="40.44266272622359" lon="9.461237924329813"><ele>395.4</ele><time>2026-04-25T14:24:52Z</time></trkpt><trkpt lat="40.44260722129649" lon="9.46113008419548"><ele>395.6</ele><time>2026-04-25T14:24:53Z</time></trkpt><trkpt lat="40.442561342050595" lon="9.461039885840474"><ele>395.8</ele><time>2026-04-25T14:24:54Z</time></trkpt><trkpt lat="40.44250902280848" lon="9.460928922132197"><ele>396.0</ele><time>2026-04-25T14:24:56Z</time></trkpt><trkpt lat="40.44244006707927" lon="9.460895661826997"><ele>396.0</ele><time>2026-04-25T14:25:19Z</time></trkpt><trkpt lat="40.4423863210161" lon="9.461082879314393"><ele>396.0</ele><time>2026-04-25T14:25:22Z</time></trkpt><trkpt lat="40.44242410582602" lon="9.461186119681559"><ele>396.0</ele><time>2026-04-25T14:25:24Z</time></trkpt><trkpt lat="40.44245200334806" lon="9.461292802144621"><ele>396.0</ele><time>2026-04-25T14:25:26Z</time></trkpt><trkpt lat="40.4424694868312" lon="9.461401821784769"><ele>396.0</ele><time>2026-04-25T14:25:28Z</time></trkpt><trkpt lat="40.44247583086807" lon="9.461484560137883"><ele>396.0</ele><time>2026-04-25T14:25:29Z</time></trkpt><trkpt lat="40.44248274103223" lon="9.461575441236196"><ele>396.0</ele><time>2026-04-25T14:25:30Z</time></trkpt><trkpt lat="40.44249390275649" lon="9.461673888004624"><ele>396.0</ele><time>2026-04-25T14:25:31Z</time></trkpt><trkpt lat="40.442506979245806" lon="9.461778784805961"><ele>396.0</ele><time>2026-04-25T14:25:32Z</time></trkpt><trkpt lat="40.44252010428212" lon="9.461901664626158"><ele>396.0</ele><time>2026-04-25T14:25:33Z</time></trkpt><trkpt lat="40.44252784107745" lon="9.46203789638203"><ele>396.0</ele><time>2026-04-25T14:25:34Z</time></trkpt><trkpt lat="40.442519488658554" lon="9.462167027366432"><ele>396.0</ele><time>2026-04-25T14:25:35Z</time></trkpt><trkpt lat="40.44250178344108" lon="9.462286417450649"><ele>396.0</ele><time>2026-04-25T14:25:36Z</time></trkpt><trkpt lat="40.44247977864098" lon="9.462388829169951"><ele>396.0</ele><time>2026-04-25T14:25:37Z</time></trkpt><trkpt lat="40.44245640909847" lon="9.462489408333154"><ele>396.0</ele><time>2026-04-25T14:25:38Z</time></trkpt><trkpt lat="40.44243429918597" lon="9.462580467155341"><ele>396.0</ele><time>2026-04-25T14:25:39Z</time></trkpt><trkpt lat="40.44241259696797" lon="9.462665355920889"><ele>396.0</ele><time>2026-04-25T14:25:40Z</time></trkpt><trkpt lat="40.44239339980071" lon="9.462752188731056"><ele>396.0</ele><time>2026-04-25T14:25:41Z</time></trkpt><trkpt lat="40.44237820020962" lon="9.462849585358018"><ele>396.0</ele><time>2026-04-25T14:25:42Z</time></trkpt><trkpt lat="40.44237246338749" lon="9.462954857437873"><ele>396.0</ele><time>2026-04-25T14:25:43Z</time></trkpt><trkpt lat="40.442373068927196" lon="9.4630730517017"><ele>396.0</ele><time>2026-04-25T14:25:44Z</time></trkpt><trkpt lat="40.442371965047364" lon="9.463227807406959"><ele>396.0</ele><time>2026-04-25T14:25:45Z</time></trkpt><trkpt lat="40.44236991230533" lon="9.463366195945738"><ele>395.4</ele><time>2026-04-25T14:25:46Z</time></trkpt><trkpt lat="40.44236630642262" lon="9.463497982894538"><ele>394.8</ele><time>2026-04-25T14:25:47Z</time></trkpt><trkpt lat="40.442370506669555" lon="9.463622387944874"><ele>394.2</ele><time>2026-04-25T14:25:48Z</time></trkpt><trkpt lat="40.44239029976219" lon="9.463736274265731"><ele>393.59999999999997</ele><time>2026-04-25T14:25:49Z</time></trkpt><trkpt lat="40.442426233609254" lon="9.463843092553478"><ele>393.0</ele><time>2026-04-25T14:25:50Z</time></trkpt><trkpt lat="40.442473248851414" lon="9.46395233023339"><ele>393.0</ele><time>2026-04-25T14:25:51Z</time></trkpt><trkpt lat="40.4425309926901" lon="9.464079182468964"><ele>393.0</ele><time>2026-04-25T14:25:52Z</time></trkpt><trkpt lat="40.44259858835095" lon="9.464221485772452"><ele>393.0</ele><time>2026-04-25T14:25:52.999Z</time></trkpt><trkpt lat="40.442669131133115" lon="9.464368775124202"><ele>393.0</ele><time>2026-04-25T14:25:53.999Z</time></trkpt><trkpt lat="40.4427379937656" lon="9.464510764973628"><ele>394.75</ele><time>2026-04-25T14:25:54.999Z</time></trkpt><trkpt lat="40.44280364243857" lon="9.464645106100319"><ele>396.5</ele><time>2026-04-25T14:25:55.999Z</time></trkpt><trkpt lat="40.442866972704536" lon="9.464775700022313"><ele>398.25</ele><time>2026-04-25T14:25:56.999Z</time></trkpt><trkpt lat="40.44292737070146" lon="9.464908416216803"><ele>400.0</ele><time>2026-04-25T14:25:57.999Z</time></trkpt><trkpt lat="40.44298516611285" lon="9.465052660713162"><ele>400.0</ele><time>2026-04-25T14:25:58.999Z</time></trkpt><trkpt lat="40.44303387528351" lon="9.465206008689103"><ele>400.0</ele><time>2026-04-25T14:26:00Z</time></trkpt><trkpt lat="40.44308059669017" lon="9.465359535265986"><ele>400.0</ele><time>2026-04-25T14:26:01Z</time></trkpt><trkpt lat="40.443134861807415" lon="9.465505718244607"><ele>400.0</ele><time>2026-04-25T14:26:02Z</time></trkpt><trkpt lat="40.44320267905684" lon="9.465644891414932"><ele>397.0</ele><time>2026-04-25T14:26:03Z</time></trkpt><trkpt lat="40.44327750608092" lon="9.465771674051455"><ele>394.0</ele><time>2026-04-25T14:26:04Z</time></trkpt><trkpt lat="40.443351008372645" lon="9.465894771349257"><ele>391.0</ele><time>2026-04-25T14:26:05Z</time></trkpt><trkpt lat="40.44342751905208" lon="9.466006252698119"><ele>388.0</ele><time>2026-04-25T14:26:06Z</time></trkpt><trkpt lat="40.44350549051732" lon="9.466117301982008"><ele>388.0</ele><time>2026-04-25T14:26:07Z</time></trkpt><trkpt lat="40.44358250104684" lon="9.466237322129635"><ele>388.0</ele><time>2026-04-25T14:26:08Z</time></trkpt><trkpt lat="40.443647950777354" lon="9.466357501217265"><ele>388.0</ele><time>2026-04-25T14:26:09Z</time></trkpt><trkpt lat="40.443693902776396" lon="9.466474216580156"><ele>388.0</ele><time>2026-04-25T14:26:10Z</time></trkpt><trkpt lat="40.443716878308514" lon="9.46657922619443"><ele>388.0</ele><time>2026-04-25T14:26:11Z</time></trkpt><trkpt lat="40.44371674507467" lon="9.46667789222091"><ele>385.2</ele><time>2026-04-25T14:26:12Z</time></trkpt><trkpt lat="40.44370745559194" lon="9.466785116930945"><ele>382.4</ele><time>2026-04-25T14:26:13Z</time></trkpt><trkpt lat="40.44367851257248" lon="9.466924563304087"><ele>379.59999999999997</ele><time>2026-04-25T14:26:14Z</time></trkpt><trkpt lat="40.44363856908095" lon="9.46707423102862"><ele>376.79999999999995</ele><time>2026-04-25T14:26:15Z</time></trkpt><trkpt lat="40.443610119420526" lon="9.467206796117393"><ele>374.0</ele><time>2026-04-25T14:26:16Z</time></trkpt><trkpt lat="40.443612249526005" lon="9.467331628808079"><ele>373.25</ele><time>2026-04-25T14:26:17Z</time></trkpt><trkpt lat="40.443641018256095" lon="9.467453730722275"><ele>372.5</ele><time>2026-04-25T14:26:18Z</time></trkpt><trkpt lat="40.44370770848956" lon="9.467598609984934"><ele>371.75</ele><time>2026-04-25T14:26:19Z</time></trkpt><trkpt lat="40.443777116092164" lon="9.467754257212462"><ele>371.0</ele><time>2026-04-25T14:26:20Z</time></trkpt><trkpt lat="40.4438304290153" lon="9.467918239893512"><ele>378.0</ele><time>2026-04-25T14:26:21Z</time></trkpt><trkpt lat="40.44387831285446" lon="9.468091220531353"><ele>385.0</ele><time>2026-04-25T14:26:22Z</time></trkpt><trkpt lat="40.44391463104756" lon="9.468259316147279"><ele>392.0</ele><time>2026-04-25T14:26:23Z</time></trkpt><trkpt lat="40.44394916617934" lon="9.468423316296748"><ele>399.0</ele><time>2026-04-25T14:26:24Z</time></trkpt><trkpt lat="40.443985255664366" lon="9.468578826821872"><ele>399.0</ele><time>2026-04-25T14:26:25Z</time></trkpt><trkpt lat="40.44401725383433" lon="9.468718185724924"><ele>399.0</ele><time>2026-04-25T14:26:26Z</time></trkpt><trkpt lat="40.44403718362333" lon="9.468846563868285"><ele>399.0</ele><time>2026-04-25T14:26:27Z</time></trkpt><trkpt lat="40.44404159472565" lon="9.468949545810707"><ele>399.0</ele><time>2026-04-25T14:26:28Z</time></trkpt><trkpt lat="40.44402062984703" lon="9.46907193769132"><ele>399.0</ele><time>2026-04-25T14:26:30Z</time></trkpt><trkpt lat="40.44385068276033" lon="9.46906965547583"><ele>396.0</ele><time>2026-04-25T14:26:36Z</time></trkpt><trkpt lat="40.44375418129064" lon="9.469057058068676"><ele>393.0</ele><time>2026-04-25T14:26:37Z</time></trkpt><trkpt lat="40.44365523827518" lon="9.469077765007153"><ele>390.0</ele><time>2026-04-25T14:26:38Z</time></trkpt><trkpt lat="40.4435499666772" lon="9.469135669477733"><ele>387.0</ele><time>2026-04-25T14:26:39Z</time></trkpt><trkpt lat="40.44344026689943" lon="9.469229013757237"><ele>384.0</ele><time>2026-04-25T14:26:40Z</time></trkpt><trkpt lat="40.44334043194703" lon="9.469341966541938"><ele>384.0</ele><time>2026-04-25T14:26:41Z</time></trkpt><trkpt lat="40.44325274629682" lon="9.46942973218774"><ele>384.0</ele><time>2026-04-25T14:26:42Z</time></trkpt><trkpt lat="40.443160265087435" lon="9.469486636745224"><ele>384.0</ele><time>2026-04-25T14:26:43Z</time></trkpt><trkpt lat="40.44305688293802" lon="9.469522121680535"><ele>384.0</ele><time>2026-04-25T14:26:44Z</time></trkpt><trkpt lat="40.4429477799472" lon="9.469531092038032"><ele>384.0</ele><time>2026-04-25T14:26:45Z</time></trkpt><trkpt lat="40.44284452550578" lon="9.469516118219392"><ele>383.3333333333333</ele><time>2026-04-25T14:26:46Z</time></trkpt><trkpt lat="40.44275316324136" lon="9.469519935124202"><ele>382.6666666666667</ele><time>2026-04-25T14:26:47Z</time></trkpt><trkpt lat="40.4426730179926" lon="9.469551759735914"><ele>382.0</ele><time>2026-04-25T14:26:48Z</time></trkpt><trkpt lat="40.442612201043" lon="9.469623909256635"><ele>381.33333333333337</ele><time>2026-04-25T14:26:49Z</time></trkpt><trkpt lat="40.44257501775799" lon="9.469728551769471"><ele>380.6666666666667</ele><time>2026-04-25T14:26:50Z</time></trkpt><trkpt lat="40.44256671346519" lon="9.469840042424853"><ele>380.0</ele><time>2026-04-25T14:26:51Z</time></trkpt><trkpt lat="40.44259694528903" lon="9.469944207895754"><ele>382.25</ele><time>2026-04-25T14:26:52Z</time></trkpt><trkpt lat="40.442658144864616" lon="9.470035291927793"><ele>384.5</ele><time>2026-04-25T14:26:53Z</time></trkpt><trkpt lat="40.442744034995265" lon="9.470122304790587"><ele>386.75</ele><time>2026-04-25T14:26:54Z</time></trkpt><trkpt lat="40.44285646792471" lon="9.47021763994419"><ele>389.0</ele><time>2026-04-25T14:26:55Z</time></trkpt><trkpt lat="40.44293710234824" lon="9.47035011039193"><ele>391.3333333333333</ele><time>2026-04-25T14:26:56Z</time></trkpt><trkpt lat="40.443030315328954" lon="9.47049983771625"><ele>393.66666666666663</ele><time>2026-04-25T14:26:57Z</time></trkpt><trkpt lat="40.44310652229343" lon="9.470686756232139"><ele>396.0</ele><time>2026-04-25T14:26:58Z</time></trkpt><trkpt lat="40.44318282824142" lon="9.470861952148917"><ele>396.0</ele><time>2026-04-25T14:26:59Z</time></trkpt><trkpt lat="40.44326312996976" lon="9.471016359992921"><ele>396.0</ele><time>2026-04-25T14:27:00Z</time></trkpt><trkpt lat="40.443352907822316" lon="9.471167483890085"><ele>396.0</ele><time>2026-04-25T14:27:01Z</time></trkpt><trkpt lat="40.443457668262205" lon="9.471312341032045"><ele>396.0</ele><time>2026-04-25T14:27:02Z</time></trkpt><trkpt lat="40.44357314798651" lon="9.47145027401162"><ele>396.66666666666663</ele><time>2026-04-25T14:27:03Z</time></trkpt><trkpt lat="40.44369791909664" lon="9.471579130891536"><ele>397.3333333333333</ele><time>2026-04-25T14:27:04Z</time></trkpt><trkpt lat="40.44382904326188" lon="9.471695751296833"><ele>398.0</ele><time>2026-04-25T14:27:05Z</time></trkpt><trkpt lat="40.443957219927015" lon="9.47179919694488"><ele>398.0</ele><time>2026-04-25T14:27:06Z</time></trkpt><trkpt lat="40.444084766322554" lon="9.471891277748616"><ele>398.0</ele><time>2026-04-25T14:27:07Z</time></trkpt><trkpt lat="40.4442106980668" lon="9.471977333233186"><ele>398.0</ele><time>2026-04-25T14:27:08Z</time></trkpt><trkpt lat="40.44431990968196" lon="9.472057257292175"><ele>398.0</ele><time>2026-04-25T14:27:09Z</time></trkpt><trkpt lat="40.44441396875092" lon="9.472158514639844"><ele>397.0</ele><time>2026-04-25T14:27:10Z</time></trkpt><trkpt lat="40.4444943750146" lon="9.472287921075527"><ele>396.0</ele><time>2026-04-25T14:27:11Z</time></trkpt><trkpt lat="40.44457295223242" lon="9.4724575918428"><ele>395.0</ele><time>2026-04-25T14:27:12Z</time></trkpt><trkpt lat="40.44465684661498" lon="9.472632408994219"><ele>394.0</ele><time>2026-04-25T14:27:13Z</time></trkpt><trkpt lat="40.44474072341597" lon="9.47278791449673"><ele>394.0</ele><time>2026-04-25T14:27:14Z</time></trkpt><trkpt lat="40.444816322393315" lon="9.472927022659338"><ele>394.0</ele><time>2026-04-25T14:27:15Z</time></trkpt><trkpt lat="40.444877323019895" lon="9.473054311385484"><ele>394.0</ele><time>2026-04-25T14:27:16Z</time></trkpt><trkpt lat="40.44491796994852" lon="9.473195786756133"><ele>394.0</ele><time>2026-04-25T14:27:17Z</time></trkpt><trkpt lat="40.44491578430364" lon="9.473371616339351"><ele>390.0</ele><time>2026-04-25T14:27:18Z</time></trkpt><trkpt lat="40.44493490768366" lon="9.473571183649177"><ele>386.0</ele><time>2026-04-25T14:27:19Z</time></trkpt><trkpt lat="40.44494277114042" lon="9.473782604949541"><ele>382.0</ele><time>2026-04-25T14:27:20Z</time></trkpt><trkpt lat="40.44495548592936" lon="9.473980647720097"><ele>380.0</ele><time>2026-04-25T14:27:21Z</time></trkpt><trkpt lat="40.444973938626916" lon="9.47414718200214"><ele>378.0</ele><time>2026-04-25T14:27:22Z</time></trkpt><trkpt lat="40.44499633403674" lon="9.47428841522079"><ele>376.0</ele><time>2026-04-25T14:27:23Z</time></trkpt><trkpt lat="40.4450251885767" lon="9.474424034024018"><ele>374.0</ele><time>2026-04-25T14:27:24Z</time></trkpt><trkpt lat="40.44505929183701" lon="9.474555363068148"><ele>370.75</ele><time>2026-04-25T14:27:25Z</time></trkpt><trkpt lat="40.44509175663972" lon="9.474688559669271"><ele>367.5</ele><time>2026-04-25T14:27:26Z</time></trkpt><trkpt lat="40.44512582020883" lon="9.474820085614367"><ele>364.25</ele><time>2026-04-25T14:27:27Z</time></trkpt><trkpt lat="40.4451678903863" lon="9.474959413201766"><ele>361.0</ele><time>2026-04-25T14:27:28Z</time></trkpt><trkpt lat="40.44522468951525" lon="9.475105392257124"><ele>361.0</ele><time>2026-04-25T14:27:29Z</time></trkpt><trkpt lat="40.445305214791084" lon="9.47526972069785"><ele>361.0</ele><time>2026-04-25T14:27:30Z</time></trkpt><trkpt lat="40.445404026869454" lon="9.475456047492862"><ele>361.0</ele><time>2026-04-25T14:27:31Z</time></trkpt><trkpt lat="40.44549835376738" lon="9.47567058574434"><ele>366.0</ele><time>2026-04-25T14:27:32Z</time></trkpt><trkpt lat="40.44557023473111" lon="9.475882494884496"><ele>371.0</ele><time>2026-04-25T14:27:33Z</time></trkpt><trkpt lat="40.44562734338291" lon="9.476081519726787"><ele>376.0</ele><time>2026-04-25T14:27:34Z</time></trkpt><trkpt lat="40.44564327872256" lon="9.476278619147603"><ele>376.0</ele><time>2026-04-25T14:27:35Z</time></trkpt><trkpt lat="40.44566150247582" lon="9.476460822018764"><ele>376.0</ele><time>2026-04-25T14:27:36Z</time></trkpt><trkpt lat="40.44563791151288" lon="9.476643964873752"><ele>376.0</ele><time>2026-04-25T14:27:37Z</time></trkpt><trkpt lat="40.44560437089924" lon="9.47681441900333"><ele>376.0</ele><time>2026-04-25T14:27:38Z</time></trkpt><trkpt lat="40.44557702012606" lon="9.47697265826551"><ele>373.5</ele><time>2026-04-25T14:27:39Z</time></trkpt><trkpt lat="40.445580776204224" lon="9.477128937236468"><ele>371.0</ele><time>2026-04-25T14:27:40Z</time></trkpt><trkpt lat="40.445617697007876" lon="9.477276721678674"><ele>368.5</ele><time>2026-04-25T14:27:41Z</time></trkpt><trkpt lat="40.4456881941545" lon="9.477427005989815"><ele>366.0</ele><time>2026-04-25T14:27:42Z</time></trkpt><trkpt lat="40.445793075606275" lon="9.477581179619373"><ele>366.0</ele><time>2026-04-25T14:27:43Z</time></trkpt><trkpt lat="40.445922476111974" lon="9.47775933616289"><ele>366.0</ele><time>2026-04-25T14:27:44Z</time></trkpt><trkpt lat="40.44604659442751" lon="9.477946238851759"><ele>366.0</ele><time>2026-04-25T14:27:45Z</time></trkpt><trkpt lat="40.4461589173605" lon="9.47812404616596"><ele>368.75</ele><time>2026-04-25T14:27:46Z</time></trkpt><trkpt lat="40.4462616130751" lon="9.478286840948035"><ele>371.5</ele><time>2026-04-25T14:27:47Z</time></trkpt><trkpt lat="40.446361111434626" lon="9.478443495182445"><ele>374.25</ele><time>2026-04-25T14:27:48Z</time></trkpt><trkpt lat="40.44644697901275" lon="9.478576568719873"><ele>377.0</ele><time>2026-04-25T14:27:49Z</time></trkpt><trkpt lat="40.44651533598175" lon="9.478702525210444"><ele>374.75</ele><time>2026-04-25T14:27:50Z</time></trkpt><trkpt lat="40.44655317333258" lon="9.478833798440212"><ele>372.5</ele><time>2026-04-25T14:27:51Z</time></trkpt><trkpt lat="40.44655494097696" lon="9.478977897453166"><ele>370.25</ele><time>2026-04-25T14:27:52Z</time></trkpt><trkpt lat="40.44649910584121" lon="9.479112603314702"><ele>368.0</ele><time>2026-04-25T14:27:53Z</time></trkpt><trkpt lat="40.44647589932339" lon="9.479263656566637"><ele>368.0</ele><time>2026-04-25T14:27:54Z</time></trkpt><trkpt lat="40.446447456033155" lon="9.479416748398338"><ele>368.0</ele><time>2026-04-25T14:27:55Z</time></trkpt><trkpt lat="40.446466437448926" lon="9.479587367722212"><ele>368.0</ele><time>2026-04-25T14:27:55.999Z</time></trkpt><trkpt lat="40.44650955660458" lon="9.479763818399235"><ele>368.0</ele><time>2026-04-25T14:27:56.999Z</time></trkpt><trkpt lat="40.44653317701394" lon="9.479912125682816"><ele>366.79999999999995</ele><time>2026-04-25T14:27:57.999Z</time></trkpt><trkpt lat="40.446510718091105" lon="9.480035645685607"><ele>365.6</ele><time>2026-04-25T14:27:58.999Z</time></trkpt><trkpt lat="40.44648704074743" lon="9.480149656988079"><ele>364.4</ele><time>2026-04-25T14:27:59.999Z</time></trkpt><trkpt lat="40.446387701375286" lon="9.480218662631843"><ele>363.20000000000005</ele><time>2026-04-25T14:28:00.999Z</time></trkpt><trkpt lat="40.44631045343913" lon="9.480322392076667"><ele>362.0</ele><time>2026-04-25T14:28:01.999Z</time></trkpt><trkpt lat="40.446238892012666" lon="9.480416169610411"><ele>354.75</ele><time>2026-04-25T14:28:02.999Z</time></trkpt><trkpt lat="40.446192822529206" lon="9.480547408406922"><ele>347.5</ele><time>2026-04-25T14:28:03.999Z</time></trkpt><trkpt lat="40.44617621162928" lon="9.480722325697625"><ele>340.25</ele><time>2026-04-25T14:28:04.999Z</time></trkpt><trkpt lat="40.44617344424368" lon="9.48091986131365"><ele>333.0</ele><time>2026-04-25T14:28:06Z</time></trkpt><trkpt lat="40.44617757378028" lon="9.48109473219479"><ele>333.0</ele><time>2026-04-25T14:28:07Z</time></trkpt><trkpt lat="40.44619479885959" lon="9.481247021531711"><ele>333.0</ele><time>2026-04-25T14:28:08Z</time></trkpt><trkpt lat="40.446238124740745" lon="9.481382552906775"><ele>333.0</ele><time>2026-04-25T14:28:09Z</time></trkpt><trkpt lat="40.44631453301543" lon="9.481508372523328"><ele>333.0</ele><time>2026-04-25T14:28:10Z</time></trkpt><trkpt lat="40.44641351837774" lon="9.481619529426789"><ele>336.25</ele><time>2026-04-25T14:28:11Z</time></trkpt><trkpt lat="40.446522515409946" lon="9.481687692404025"><ele>339.5</ele><time>2026-04-25T14:28:12Z</time></trkpt><trkpt lat="40.44664462490054" lon="9.481717339385714"><ele>342.75</ele><time>2026-04-25T14:28:13Z</time></trkpt><trkpt lat="40.44676802537998" lon="9.481720911882926"><ele>346.0</ele><time>2026-04-25T14:28:14Z</time></trkpt><trkpt lat="40.44687597076379" lon="9.481732924777619"><ele>346.0</ele><time>2026-04-25T14:28:15Z</time></trkpt><trkpt lat="40.446963996382195" lon="9.48182321877033"><ele>346.0</ele><time>2026-04-25T14:28:16Z</time></trkpt><trkpt lat="40.44704649370512" lon="9.481923293804646"><ele>346.0</ele><time>2026-04-25T14:28:17Z</time></trkpt><trkpt lat="40.4471078258809" lon="9.482067447925322"><ele>346.0</ele><time>2026-04-25T14:28:18Z</time></trkpt><trkpt lat="40.44715846926561" lon="9.482219091319823"><ele>345.0</ele><time>2026-04-25T14:28:19Z</time></trkpt><trkpt lat="40.44722456470387" lon="9.482348179148387"><ele>344.0</ele><time>2026-04-25T14:28:20Z</time></trkpt><trkpt lat="40.447323242743686" lon="9.482457131835789"><ele>343.0</ele><time>2026-04-25T14:28:21Z</time></trkpt><trkpt lat="40.44742772469242" lon="9.482542751377373"><ele>342.0</ele><time>2026-04-25T14:28:22Z</time></trkpt><trkpt lat="40.44752712161554" lon="9.482620659632554"><ele>342.0</ele><time>2026-04-25T14:28:23Z</time></trkpt><trkpt lat="40.447608496124275" lon="9.48268677534127"><ele>342.0</ele><time>2026-04-25T14:28:24Z</time></trkpt><trkpt lat="40.44767111399097" lon="9.482751810563123"><ele>342.0</ele><time>2026-04-25T14:28:25Z</time></trkpt><trkpt lat="40.447700225875515" lon="9.482841089733554"><ele>342.0</ele><time>2026-04-25T14:28:26Z</time></trkpt><trkpt lat="40.447683580424595" lon="9.482951939787272"><ele>342.0</ele><time>2026-04-25T14:28:27Z</time></trkpt><trkpt lat="40.44764130329796" lon="9.48305535088006"><ele>342.0</ele><time>2026-04-25T14:28:28Z</time></trkpt><trkpt lat="40.44755186290881" lon="9.4831201202956"><ele>341.20000000000005</ele><time>2026-04-25T14:28:29Z</time></trkpt><trkpt lat="40.44744244784802" lon="9.483116874316911"><ele>340.4</ele><time>2026-04-25T14:28:30Z</time></trkpt><trkpt lat="40.44733764179961" lon="9.483171059855582"><ele>339.6</ele><time>2026-04-25T14:28:31Z</time></trkpt><trkpt lat="40.44725310065543" lon="9.483219440183829"><ele>338.79999999999995</ele><time>2026-04-25T14:28:32Z</time></trkpt><trkpt lat="40.44718803186934" lon="9.483314755665571"><ele>338.0</ele><time>2026-04-25T14:28:33Z</time></trkpt><trkpt lat="40.44715152210538" lon="9.483446868536959"><ele>338.0</ele><time>2026-04-25T14:28:34Z</time></trkpt><trkpt lat="40.44715132272806" lon="9.483588295935862"><ele>338.0</ele><time>2026-04-25T14:28:35Z</time></trkpt><trkpt lat="40.447172373682555" lon="9.483732329376082"><ele>338.0</ele><time>2026-04-25T14:28:36Z</time></trkpt><trkpt lat="40.44722143699816" lon="9.483899443590284"><ele>338.0</ele><time>2026-04-25T14:28:37Z</time></trkpt><trkpt lat="40.4472758259469" lon="9.48406223976474"><ele>338.0</ele><time>2026-04-25T14:28:38Z</time></trkpt><trkpt lat="40.44731875366674" lon="9.484202721476432"><ele>338.0</ele><time>2026-04-25T14:28:39Z</time></trkpt><trkpt lat="40.447347369353885" lon="9.484325498495158"><ele>338.0</ele><time>2026-04-25T14:28:40Z</time></trkpt><trkpt lat="40.447348040334994" lon="9.484435428331539"><ele>338.0</ele><time>2026-04-25T14:28:41Z</time></trkpt><trkpt lat="40.4473059287068" lon="9.48453300270274"><ele>338.0</ele><time>2026-04-25T14:28:42Z</time></trkpt><trkpt lat="40.447233125035055" lon="9.484596479165697"><ele>336.59999999999997</ele><time>2026-04-25T14:28:43Z</time></trkpt><trkpt lat="40.447143269511635" lon="9.484620335509412"><ele>335.2</ele><time>2026-04-25T14:28:44Z</time></trkpt><trkpt lat="40.44705473805333" lon="9.484599638025266"><ele>333.8</ele><time>2026-04-25T14:28:45Z</time></trkpt><trkpt lat="40.446981545238984" lon="9.48450075360998"><ele>332.4</ele><time>2026-04-25T14:28:46Z</time></trkpt><trkpt lat="40.44689384301663" lon="9.484427213859533"><ele>331.0</ele><time>2026-04-25T14:28:47Z</time></trkpt><trkpt lat="40.446820487578776" lon="9.484346889027213"><ele>328.0</ele><time>2026-04-25T14:28:48Z</time></trkpt><trkpt lat="40.44673683161044" lon="9.484312714402646"><ele>325.0</ele><time>2026-04-25T14:28:49Z</time></trkpt><trkpt lat="40.44664896483547" lon="9.484336440834465"><ele>322.0</ele><time>2026-04-25T14:28:50Z</time></trkpt><trkpt lat="40.44657531276717" lon="9.484409626185974"><ele>319.0</ele><time>2026-04-25T14:28:51Z</time></trkpt><trkpt lat="40.446520828355" lon="9.48451217065471"><ele>316.0</ele><time>2026-04-25T14:28:52Z</time></trkpt><trkpt lat="40.44649734524752" lon="9.484635539828476"><ele>316.0</ele><time>2026-04-25T14:28:53Z</time></trkpt><trkpt lat="40.44651611571092" lon="9.484778602691456"><ele>316.0</ele><time>2026-04-25T14:28:54Z</time></trkpt><trkpt lat="40.44655603756111" lon="9.484933784988158"><ele>316.0</ele><time>2026-04-25T14:28:55Z</time></trkpt><trkpt lat="40.446596654142766" lon="9.48511182302541"><ele>316.0</ele><time>2026-04-25T14:28:56Z</time></trkpt><trkpt lat="40.44663274368316" lon="9.485306856681962"><ele>315.0</ele><time>2026-04-25T14:28:57Z</time></trkpt><trkpt lat="40.44666775017563" lon="9.485497704275117"><ele>314.0</ele><time>2026-04-25T14:28:58Z</time></trkpt><trkpt lat="40.44670136780893" lon="9.48567805024201"><ele>313.0</ele><time>2026-04-25T14:28:59Z</time></trkpt><trkpt lat="40.44673675141989" lon="9.485854012572101"><ele>312.0</ele><time>2026-04-25T14:29:00Z</time></trkpt><trkpt lat="40.44676624568598" lon="9.486008834274772"><ele>312.0</ele><time>2026-04-25T14:29:01Z</time></trkpt><trkpt lat="40.44679070417864" lon="9.486132200467067"><ele>312.0</ele><time>2026-04-25T14:29:02Z</time></trkpt><trkpt lat="40.44681287029891" lon="9.486252088245612"><ele>312.0</ele><time>2026-04-25T14:29:03Z</time></trkpt><trkpt lat="40.44684135027058" lon="9.486376829704868"><ele>312.0</ele><time>2026-04-25T14:29:04Z</time></trkpt><trkpt lat="40.44684694305749" lon="9.486504094924566"><ele>312.0</ele><time>2026-04-25T14:29:05Z</time></trkpt><trkpt lat="40.446852530650084" lon="9.48661750363524"><ele>309.8</ele><time>2026-04-25T14:29:06Z</time></trkpt><trkpt lat="40.44679698228837" lon="9.486705527050317"><ele>307.6</ele><time>2026-04-25T14:29:07Z</time></trkpt><trkpt lat="40.44670554923018" lon="9.486742289131607"><ele>305.40000000000003</ele><time>2026-04-25T14:29:08Z</time></trkpt><trkpt lat="40.446613447657" lon="9.486731709800303"><ele>303.2</ele><time>2026-04-25T14:29:09Z</time></trkpt><trkpt lat="40.44653357197543" lon="9.486657289279574"><ele>301.0</ele><time>2026-04-25T14:29:10Z</time></trkpt><trkpt lat="40.446492871942624" lon="9.486535252293699"><ele>301.0</ele><time>2026-04-25T14:29:11Z</time></trkpt><trkpt lat="40.44647365680992" lon="9.486395429265485"><ele>301.0</ele><time>2026-04-25T14:29:12Z</time></trkpt><trkpt lat="40.44643069718421" lon="9.486223084767136"><ele>301.0</ele><time>2026-04-25T14:29:13Z</time></trkpt><trkpt lat="40.446395317631435" lon="9.48600940516199"><ele>301.0</ele><time>2026-04-25T14:29:14Z</time></trkpt><trkpt lat="40.446357766051165" lon="9.485813035969727"><ele>299.25</ele><time>2026-04-25T14:29:15Z</time></trkpt><trkpt lat="40.44632365277375" lon="9.485632653281698"><ele>297.5</ele><time>2026-04-25T14:29:16Z</time></trkpt><trkpt lat="40.44627925688197" lon="9.485456034152351"><ele>295.75</ele><time>2026-04-25T14:29:17Z</time></trkpt><trkpt lat="40.44622118486117" lon="9.485277546390975"><ele>294.0</ele><time>2026-04-25T14:29:18Z</time></trkpt><trkpt lat="40.44614078354265" lon="9.485105567279838"><ele>294.0</ele><time>2026-04-25T14:29:19Z</time></trkpt><trkpt lat="40.44605808135701" lon="9.484935144487052"><ele>294.0</ele><time>2026-04-25T14:29:20Z</time></trkpt><trkpt lat="40.445975115004195" lon="9.484769741828202"><ele>294.0</ele><time>2026-04-25T14:29:21Z</time></trkpt><trkpt lat="40.445906330071715" lon="9.48460161338348"><ele>294.0</ele><time>2026-04-25T14:29:22Z</time></trkpt><trkpt lat="40.44583585069305" lon="9.484442041086362"><ele>294.0</ele><time>2026-04-25T14:29:23Z</time></trkpt><trkpt lat="40.44574692876137" lon="9.484298744099052"><ele>294.0</ele><time>2026-04-25T14:29:24Z</time></trkpt><trkpt lat="40.4456449287748" lon="9.484178290481005"><ele>294.0</ele><time>2026-04-25T14:29:25Z</time></trkpt><trkpt lat="40.44552027900051" lon="9.484074725489164"><ele>291.6666666666667</ele><time>2026-04-25T14:29:26Z</time></trkpt><trkpt lat="40.4453853536583" lon="9.483973627528183"><ele>289.33333333333337</ele><time>2026-04-25T14:29:27Z</time></trkpt><trkpt lat="40.44525282967693" lon="9.483864040859636"><ele>287.0</ele><time>2026-04-25T14:29:28Z</time></trkpt><trkpt lat="40.445124612193354" lon="9.483747779765284"><ele>286.33333333333337</ele><time>2026-04-25T14:29:29Z</time></trkpt><trkpt lat="40.44499789380436" lon="9.483632376530453"><ele>285.6666666666667</ele><time>2026-04-25T14:29:30Z</time></trkpt><trkpt lat="40.44487076905712" lon="9.483521401196677"><ele>285.0</ele><time>2026-04-25T14:29:31Z</time></trkpt><trkpt lat="40.44473904084688" lon="9.483430204248428"><ele>288.0</ele><time>2026-04-25T14:29:32Z</time></trkpt><trkpt lat="40.44458621160086" lon="9.483366146718033"><ele>291.0</ele><time>2026-04-25T14:29:33Z</time></trkpt><trkpt lat="40.44441721826271" lon="9.483318420419709"><ele>294.0</ele><time>2026-04-25T14:29:34Z</time></trkpt><trkpt lat="40.444252164494955" lon="9.483284273837265"><ele>294.0</ele><time>2026-04-25T14:29:35Z</time></trkpt><trkpt lat="40.444112175879276" lon="9.483259873646475"><ele>294.0</ele><time>2026-04-25T14:29:36Z</time></trkpt><trkpt lat="40.44398784763415" lon="9.483256589640789"><ele>294.0</ele><time>2026-04-25T14:29:37Z</time></trkpt><trkpt lat="40.44386949079244" lon="9.48328758486972"><ele>294.0</ele><time>2026-04-25T14:29:38Z</time></trkpt><trkpt lat="40.44376918827714" lon="9.483365934244736"><ele>294.25</ele><time>2026-04-25T14:29:39Z</time></trkpt><trkpt lat="40.4436791667695" lon="9.483480472116502"><ele>294.5</ele><time>2026-04-25T14:29:40Z</time></trkpt><trkpt lat="40.44360140322427" lon="9.483618192398508"><ele>294.75</ele><time>2026-04-25T14:29:41Z</time></trkpt><trkpt lat="40.4435300649013" lon="9.483742411641066"><ele>295.0</ele><time>2026-04-25T14:29:42Z</time></trkpt><trkpt lat="40.44344193746262" lon="9.483782827193295"><ele>295.0</ele><time>2026-04-25T14:29:43Z</time></trkpt><trkpt lat="40.44337288432692" lon="9.483767164795292"><ele>295.0</ele><time>2026-04-25T14:29:44Z</time></trkpt><trkpt lat="40.44330353036854" lon="9.48374490415913"><ele>295.0</ele><time>2026-04-25T14:29:45Z</time></trkpt><trkpt lat="40.44323524599274" lon="9.483642208324747"><ele>295.0</ele><time>2026-04-25T14:29:46Z</time></trkpt><trkpt lat="40.44319549467542" lon="9.483509663271542"><ele>295.0</ele><time>2026-04-25T14:29:47Z</time></trkpt><trkpt lat="40.4432145593921" lon="9.483350104254958"><ele>295.0</ele><time>2026-04-25T14:29:48Z</time></trkpt><trkpt lat="40.44320532131949" lon="9.483159389044458"><ele>295.0</ele><time>2026-04-25T14:29:49Z</time></trkpt><trkpt lat="40.44321061714451" lon="9.48298920638693"><ele>295.0</ele><time>2026-04-25T14:29:50Z</time></trkpt><trkpt lat="40.443196530488095" lon="9.482844119022682"><ele>295.0</ele><time>2026-04-25T14:29:51Z</time></trkpt><trkpt lat="40.443146112623175" lon="9.482689446235002"><ele>293.5</ele><time>2026-04-25T14:29:52Z</time></trkpt><trkpt lat="40.44306001368716" lon="9.482525164586978"><ele>292.0</ele><time>2026-04-25T14:29:53Z</time></trkpt><trkpt lat="40.44296395307814" lon="9.482393952290217"><ele>290.5</ele><time>2026-04-25T14:29:54Z</time></trkpt><trkpt lat="40.442893875893915" lon="9.482266003842705"><ele>289.0</ele><time>2026-04-25T14:29:55Z</time></trkpt><trkpt lat="40.442899241261216" lon="9.482120105033365"><ele>288.2</ele><time>2026-04-25T14:29:56Z</time></trkpt><trkpt lat="40.44291171567935" lon="9.481974001195765"><ele>287.4</ele><time>2026-04-25T14:29:57Z</time></trkpt><trkpt lat="40.4429345442431" lon="9.48181620046731"><ele>286.6</ele><time>2026-04-25T14:29:58Z</time></trkpt><trkpt lat="40.4429775845583" lon="9.481669580650982"><ele>285.8</ele><time>2026-04-25T14:29:59Z</time></trkpt><trkpt lat="40.44299400040522" lon="9.481547011884905"><ele>285.0</ele><time>2026-04-25T14:30:00Z</time></trkpt><trkpt lat="40.44297001190563" lon="9.481440889995826"><ele>288.6</ele><time>2026-04-25T14:30:01Z</time></trkpt><trkpt lat="40.442902955837944" lon="9.481355017261215"><ele>292.2</ele><time>2026-04-25T14:30:02Z</time></trkpt><trkpt lat="40.442810521432996" lon="9.48131943851258"><ele>295.8</ele><time>2026-04-25T14:30:03Z</time></trkpt><trkpt lat="40.44271059553801" lon="9.481333635662647"><ele>299.4</ele><time>2026-04-25T14:30:04Z</time></trkpt><trkpt lat="40.44263983830346" lon="9.48140259389188"><ele>303.0</ele><time>2026-04-25T14:30:05Z</time></trkpt><trkpt lat="40.44259972956963" lon="9.48151028175277"><ele>303.0</ele><time>2026-04-25T14:30:06Z</time></trkpt><trkpt lat="40.44258436459948" lon="9.481645193522699"><ele>303.0</ele><time>2026-04-25T14:30:07Z</time></trkpt><trkpt lat="40.44258334957253" lon="9.4818154630042"><ele>303.0</ele><time>2026-04-25T14:30:08Z</time></trkpt><trkpt lat="40.4425915157757" lon="9.482017482455054"><ele>303.0</ele><time>2026-04-25T14:30:09Z</time></trkpt><trkpt lat="40.44259564658698" lon="9.482237858924965"><ele>307.0</ele><time>2026-04-25T14:30:09.999Z</time></trkpt><trkpt lat="40.44260834576916" lon="9.482477086517067"><ele>311.0</ele><time>2026-04-25T14:30:10.999Z</time></trkpt><trkpt lat="40.44263635548088" lon="9.48272574551223"><ele>315.0</ele><time>2026-04-25T14:30:12Z</time></trkpt><trkpt lat="40.44267431512927" lon="9.482985980199597"><ele>318.6666666666667</ele><time>2026-04-25T14:30:13Z</time></trkpt><trkpt lat="40.442713911089015" lon="9.48323527300437"><ele>322.33333333333337</ele><time>2026-04-25T14:30:14Z</time></trkpt><trkpt lat="40.44274324518214" lon="9.483461668215496"><ele>326.0</ele><time>2026-04-25T14:30:15Z</time></trkpt><trkpt lat="40.44275829126486" lon="9.48369081509178"><ele>327.75</ele><time>2026-04-25T14:30:16Z</time></trkpt><trkpt lat="40.442785398151536" lon="9.483898741151071"><ele>329.5</ele><time>2026-04-25T14:30:17Z</time></trkpt><trkpt lat="40.44280996836141" lon="9.48408624086854"><ele>331.25</ele><time>2026-04-25T14:30:18Z</time></trkpt><trkpt lat="40.442850381973834" lon="9.484253980598586"><ele>333.0</ele><time>2026-04-25T14:30:19Z</time></trkpt><trkpt lat="40.44286955211116" lon="9.484411407309732"><ele>333.0</ele><time>2026-04-25T14:30:20Z</time></trkpt><trkpt lat="40.44288406697329" lon="9.48455318443332"><ele>333.0</ele><time>2026-04-25T14:30:21Z</time></trkpt><trkpt lat="40.442867381077896" lon="9.484690330621493"><ele>333.0</ele><time>2026-04-25T14:30:22Z</time></trkpt><trkpt lat="40.44285307334618" lon="9.484827982069302"><ele>333.0</ele><time>2026-04-25T14:30:23Z</time></trkpt><trkpt lat="40.44282829958467" lon="9.48496469485797"><ele>333.0</ele><time>2026-04-25T14:30:24Z</time></trkpt><trkpt lat="40.44280168640039" lon="9.485101758594059"><ele>334.4</ele><time>2026-04-25T14:30:25Z</time></trkpt><trkpt lat="40.442779457031826" lon="9.485229963433211"><ele>335.79999999999995</ele><time>2026-04-25T14:30:26Z</time></trkpt><trkpt lat="40.442781520609444" lon="9.485341219874964"><ele>337.2</ele><time>2026-04-25T14:30:27Z</time></trkpt><trkpt lat="40.44275941067575" lon="9.485440313756303"><ele>338.6</ele><time>2026-04-25T14:30:28Z</time></trkpt><trkpt lat="40.44281988441605" lon="9.485543116441516"><ele>340.0</ele><time>2026-04-25T14:30:29Z</time></trkpt><trkpt lat="40.442893107011884" lon="9.48561597260267"><ele>340.0</ele><time>2026-04-25T14:30:30Z</time></trkpt><trkpt lat="40.44298082328022" lon="9.485658588582172"><ele>340.0</ele><time>2026-04-25T14:30:31Z</time></trkpt><trkpt lat="40.44307523782087" lon="9.485640486767313"><ele>340.0</ele><time>2026-04-25T14:30:32Z</time></trkpt><trkpt lat="40.44315374081103" lon="9.485575981896295"><ele>340.0</ele><time>2026-04-25T14:30:33Z</time></trkpt><trkpt lat="40.44322030485532" lon="9.485447254923521"><ele>340.0</ele><time>2026-04-25T14:30:34Z</time></trkpt><trkpt lat="40.443289600263974" lon="9.485289253765343"><ele>336.6</ele><time>2026-04-25T14:30:35Z</time></trkpt><trkpt lat="40.44336452798907" lon="9.485126580998145"><ele>333.2</ele><time>2026-04-25T14:30:36Z</time></trkpt><trkpt lat="40.44343609489354" lon="9.485009264444722"><ele>329.79999999999995</ele><time>2026-04-25T14:30:37Z</time></trkpt><trkpt lat="40.44351003785573" lon="9.484938714032527"><ele>326.4</ele><time>2026-04-25T14:30:38Z</time></trkpt><trkpt lat="40.44358928342022" lon="9.484930165383865"><ele>323.0</ele><time>2026-04-25T14:30:39Z</time></trkpt><trkpt lat="40.44366809462934" lon="9.484984076532061"><ele>323.0</ele><time>2026-04-25T14:30:40Z</time></trkpt><trkpt lat="40.44372731213135" lon="9.485094087059787"><ele>323.0</ele><time>2026-04-25T14:30:41Z</time></trkpt><trkpt lat="40.44377021325655" lon="9.48520457994383"><ele>323.0</ele><time>2026-04-25T14:30:42Z</time></trkpt><trkpt lat="40.44372770384478" lon="9.485351824332056"><ele>323.0</ele><time>2026-04-25T14:30:43Z</time></trkpt><trkpt lat="40.44370049940779" lon="9.485532353339535"><ele>327.25</ele><time>2026-04-25T14:30:44Z</time></trkpt><trkpt lat="40.44368691988845" lon="9.485716425225842"><ele>331.5</ele><time>2026-04-25T14:30:45Z</time></trkpt><trkpt lat="40.44367729149864" lon="9.485857650138707"><ele>335.75</ele><time>2026-04-25T14:30:46Z</time></trkpt><trkpt lat="40.44369966356602" lon="9.485991821839686"><ele>340.0</ele><time>2026-04-25T14:30:47Z</time></trkpt><trkpt lat="40.44376095068865" lon="9.486124893970707"><ele>338.75</ele><time>2026-04-25T14:30:48Z</time></trkpt><trkpt lat="40.44386521915863" lon="9.48625251688935"><ele>337.5</ele><time>2026-04-25T14:30:49Z</time></trkpt><trkpt lat="40.44399102414294" lon="9.48637189013921"><ele>336.25</ele><time>2026-04-25T14:30:50Z</time></trkpt><trkpt lat="40.44406772530241" lon="9.486501350496372"><ele>335.0</ele><time>2026-04-25T14:30:51Z</time></trkpt><trkpt lat="40.444131094345686" lon="9.486639110966586"><ele>335.0</ele><time>2026-04-25T14:30:52Z</time></trkpt><trkpt lat="40.44415495168056" lon="9.486788261575755"><ele>335.0</ele><time>2026-04-25T14:30:53Z</time></trkpt><trkpt lat="40.44415940343401" lon="9.48694017030934"><ele>335.0</ele><time>2026-04-25T14:30:54Z</time></trkpt><trkpt lat="40.44413649077907" lon="9.487089895811245"><ele>335.0</ele><time>2026-04-25T14:30:55Z</time></trkpt><trkpt lat="40.44409431738448" lon="9.487228075563623"><ele>333.6666666666667</ele><time>2026-04-25T14:30:56Z</time></trkpt><trkpt lat="40.44401449599045" lon="9.48736667007376"><ele>332.3333333333333</ele><time>2026-04-25T14:30:57Z</time></trkpt><trkpt lat="40.4439223804084" lon="9.487540881285124"><ele>331.0</ele><time>2026-04-25T14:30:58Z</time></trkpt><trkpt lat="40.44382573466601" lon="9.48772153568284"><ele>335.5</ele><time>2026-04-25T14:30:59Z</time></trkpt><trkpt lat="40.443747884903864" lon="9.48787864159836"><ele>340.0</ele><time>2026-04-25T14:31:00Z</time></trkpt><trkpt lat="40.443640922298385" lon="9.487984576213828"><ele>344.5</ele><time>2026-04-25T14:31:01Z</time></trkpt><trkpt lat="40.44354003299306" lon="9.488090528095999"><ele>349.0</ele><time>2026-04-25T14:31:02Z</time></trkpt><trkpt lat="40.44344999076145" lon="9.488162504854143"><ele>349.0</ele><time>2026-04-25T14:31:03Z</time></trkpt><trkpt lat="40.443352314561686" lon="9.488195781959687"><ele>349.0</ele><time>2026-04-25T14:31:04Z</time></trkpt><trkpt lat="40.44323631306718" lon="9.488189073908476"><ele>349.0</ele><time>2026-04-25T14:31:05Z</time></trkpt><trkpt lat="40.44311382844831" lon="9.488207404487714"><ele>349.0</ele><time>2026-04-25T14:31:06Z</time></trkpt><trkpt lat="40.443005047243204" lon="9.488238807373982"><ele>349.75</ele><time>2026-04-25T14:31:07Z</time></trkpt><trkpt lat="40.44290961387485" lon="9.488323601936685"><ele>350.5</ele><time>2026-04-25T14:31:08Z</time></trkpt><trkpt lat="40.44283714698319" lon="9.488462507609269"><ele>351.25</ele><time>2026-04-25T14:31:09Z</time></trkpt><trkpt lat="40.44278022554533" lon="9.48863609944536"><ele>352.0</ele><time>2026-04-25T14:31:10Z</time></trkpt><trkpt lat="40.44271836120515" lon="9.488775777841585"><ele>352.0</ele><time>2026-04-25T14:31:11Z</time></trkpt><trkpt lat="40.44263084003446" lon="9.488864792586648"><ele>352.0</ele><time>2026-04-25T14:31:12Z</time></trkpt><trkpt lat="40.44252944031794" lon="9.488901434624266"><ele>352.0</ele><time>2026-04-25T14:31:13Z</time></trkpt><trkpt lat="40.44240765759843" lon="9.488918756341725"><ele>352.0</ele><time>2026-04-25T14:31:14Z</time></trkpt><trkpt lat="40.44226453460645" lon="9.488832886894826"><ele>354.5</ele><time>2026-04-25T14:31:15Z</time></trkpt><trkpt lat="40.442116260402415" lon="9.488826345879412"><ele>357.0</ele><time>2026-04-25T14:31:16Z</time></trkpt><trkpt lat="40.44199711164235" lon="9.488839540696155"><ele>359.5</ele><time>2026-04-25T14:31:17Z</time></trkpt><trkpt lat="40.44188492772562" lon="9.488903018913936"><ele>362.0</ele><time>2026-04-25T14:31:18Z</time></trkpt><trkpt lat="40.441778770544" lon="9.488956085454149"><ele>362.0</ele><time>2026-04-25T14:31:19Z</time></trkpt><trkpt lat="40.4416732220998" lon="9.488924796417962"><ele>362.0</ele><time>2026-04-25T14:31:20Z</time></trkpt><trkpt lat="40.441557461149586" lon="9.48885991712333"><ele>362.0</ele><time>2026-04-25T14:31:21Z</time></trkpt><trkpt lat="40.44141889914264" lon="9.488805019300619"><ele>362.0</ele><time>2026-04-25T14:31:22Z</time></trkpt><trkpt lat="40.441304716460294" lon="9.488736184447953"><ele>364.25</ele><time>2026-04-25T14:31:23Z</time></trkpt><trkpt lat="40.44120153246404" lon="9.488696102793522"><ele>366.5</ele><time>2026-04-25T14:31:24Z</time></trkpt><trkpt lat="40.44108962653288" lon="9.488700439945625"><ele>368.75</ele><time>2026-04-25T14:31:25Z</time></trkpt><trkpt lat="40.44097380167376" lon="9.48875494875582"><ele>371.0</ele><time>2026-04-25T14:31:26Z</time></trkpt><trkpt lat="40.440869132368604" lon="9.488849331902896"><ele>371.0</ele><time>2026-04-25T14:31:27Z</time></trkpt><trkpt lat="40.440779883050375" lon="9.488990788392929"><ele>371.0</ele><time>2026-04-25T14:31:28Z</time></trkpt><trkpt lat="40.44069597874263" lon="9.489176301630769"><ele>371.0</ele><time>2026-04-25T14:31:29Z</time></trkpt><trkpt lat="40.440600386069875" lon="9.489378562088866"><ele>371.0</ele><time>2026-04-25T14:31:30Z</time></trkpt><trkpt lat="40.44050418984378" lon="9.489564540931077"><ele>371.0</ele><time>2026-04-25T14:31:31Z</time></trkpt><trkpt lat="40.440420823376165" lon="9.48972222703904"><ele>371.0</ele><time>2026-04-25T14:31:32Z</time></trkpt><trkpt lat="40.44034056418054" lon="9.489862593140677"><ele>372.0</ele><time>2026-04-25T14:31:33Z</time></trkpt><trkpt lat="40.44025950421748" lon="9.489973942605477"><ele>373.0</ele><time>2026-04-25T14:31:34Z</time></trkpt><trkpt lat="40.44015981652818" lon="9.49002775090753"><ele>374.0</ele><time>2026-04-25T14:31:35Z</time></trkpt><trkpt lat="40.440053892867944" lon="9.49005957535452"><ele>375.0</ele><time>2026-04-25T14:31:36Z</time></trkpt><trkpt lat="40.43994441334869" lon="9.490078616437692"><ele>376.0</ele><time>2026-04-25T14:31:37Z</time></trkpt><trkpt lat="40.43983017823036" lon="9.49008803732016"><ele>376.0</ele><time>2026-04-25T14:31:38Z</time></trkpt><trkpt lat="40.43971257644832" lon="9.490122203295526"><ele>376.0</ele><time>2026-04-25T14:31:39Z</time></trkpt><trkpt lat="40.43960425092917" lon="9.4901357824208"><ele>376.0</ele><time>2026-04-25T14:31:40Z</time></trkpt><trkpt lat="40.43950803014526" lon="9.490158104364657"><ele>376.0</ele><time>2026-04-25T14:31:41Z</time></trkpt><trkpt lat="40.43942060225207" lon="9.490199200884458"><ele>376.0</ele><time>2026-04-25T14:31:42Z</time></trkpt><trkpt lat="40.439336129664035" lon="9.49026510080819"><ele>376.75</ele><time>2026-04-25T14:31:43Z</time></trkpt><trkpt lat="40.439251197345406" lon="9.490384338068107"><ele>377.5</ele><time>2026-04-25T14:31:44Z</time></trkpt><trkpt lat="40.439164477356506" lon="9.490539391735743"><ele>378.25</ele><time>2026-04-25T14:31:45Z</time></trkpt><trkpt lat="40.43908737319952" lon="9.490681229781114"><ele>379.0</ele><time>2026-04-25T14:31:46Z</time></trkpt><trkpt lat="40.43899589211599" lon="9.49079067115432"><ele>379.0</ele><time>2026-04-25T14:31:47Z</time></trkpt><trkpt lat="40.43887334250869" lon="9.49084496223233"><ele>379.0</ele><time>2026-04-25T14:31:48Z</time></trkpt><trkpt lat="40.438756419584465" lon="9.490940494988804"><ele>379.0</ele><time>2026-04-25T14:31:49Z</time></trkpt><trkpt lat="40.43861892443099" lon="9.491013541668389"><ele>379.0</ele><time>2026-04-25T14:31:50Z</time></trkpt><trkpt lat="40.438484725235675" lon="9.491091529315591"><ele>379.79999999999995</ele><time>2026-04-25T14:31:51Z</time></trkpt><trkpt lat="40.43836541605408" lon="9.491168332400987"><ele>380.59999999999997</ele><time>2026-04-25T14:31:52Z</time></trkpt><trkpt lat="40.438259494510774" lon="9.491236217078043"><ele>381.4</ele><time>2026-04-25T14:31:53Z</time></trkpt><trkpt lat="40.43816300623242" lon="9.49124421235874"><ele>382.2</ele><time>2026-04-25T14:31:54Z</time></trkpt><trkpt lat="40.438070415589046" lon="9.491266636533204"><ele>383.0</ele><time>2026-04-25T14:31:55Z</time></trkpt><trkpt lat="40.43797657646526" lon="9.491205162897808"><ele>379.75</ele><time>2026-04-25T14:31:56Z</time></trkpt><trkpt lat="40.43788410314772" lon="9.491115261649092"><ele>376.5</ele><time>2026-04-25T14:31:57Z</time></trkpt><trkpt lat="40.43777372280303" lon="9.491008163567505"><ele>373.25</ele><time>2026-04-25T14:31:58Z</time></trkpt><trkpt lat="40.43764854673355" lon="9.490883362269022"><ele>370.0</ele><time>2026-04-25T14:31:59Z</time></trkpt><trkpt lat="40.437524746327426" lon="9.490779154267546"><ele>370.0</ele><time>2026-04-25T14:32:00Z</time></trkpt><trkpt lat="40.43741724986286" lon="9.49066945199784"><ele>370.0</ele><time>2026-04-25T14:32:01Z</time></trkpt><trkpt lat="40.437304432958" lon="9.490563377301639"><ele>370.0</ele><time>2026-04-25T14:32:02Z</time></trkpt><trkpt lat="40.437179284063355" lon="9.490469888691692"><ele>370.0</ele><time>2026-04-25T14:32:03Z</time></trkpt><trkpt lat="40.43704087843531" lon="9.490396768613362"><ele>367.66666666666663</ele><time>2026-04-25T14:32:04Z</time></trkpt><trkpt lat="40.43688457794436" lon="9.49034538691232"><ele>365.3333333333333</ele><time>2026-04-25T14:32:05Z</time></trkpt><trkpt lat="40.43672211089403" lon="9.49029201234593"><ele>363.0</ele><time>2026-04-25T14:32:06Z</time></trkpt><trkpt lat="40.43656275142996" lon="9.49023249018926"><ele>363.0</ele><time>2026-04-25T14:32:07Z</time></trkpt><trkpt lat="40.43641117025821" lon="9.490171184360834"><ele>363.0</ele><time>2026-04-25T14:32:08Z</time></trkpt><trkpt lat="40.436263950082555" lon="9.490112414751325"><ele>363.0</ele><time>2026-04-25T14:32:09Z</time></trkpt><trkpt lat="40.43612095870683" lon="9.490056945316134"><ele>361.3333333333333</ele><time>2026-04-25T14:32:10Z</time></trkpt><trkpt lat="40.435980490489165" lon="9.4899969610069"><ele>359.66666666666663</ele><time>2026-04-25T14:32:11Z</time></trkpt><trkpt lat="40.43584959849438" lon="9.489896173648393"><ele>358.0</ele><time>2026-04-25T14:32:12Z</time></trkpt><trkpt lat="40.43569396845909" lon="9.489814047460383"><ele>358.0</ele><time>2026-04-25T14:32:13Z</time></trkpt><trkpt lat="40.435537096028206" lon="9.489701729958734"><ele>358.0</ele><time>2026-04-25T14:32:14Z</time></trkpt><trkpt lat="40.43537905546574" lon="9.489595607518046"><ele>358.0</ele><time>2026-04-25T14:32:14.999Z</time></trkpt><trkpt lat="40.435227876357665" lon="9.48949351978324"><ele>357.3333333333333</ele><time>2026-04-25T14:32:15.999Z</time></trkpt><trkpt lat="40.43508345338223" lon="9.489397109650318"><ele>356.6666666666667</ele><time>2026-04-25T14:32:16.999Z</time></trkpt><trkpt lat="40.43495537002183" lon="9.489309022565518"><ele>356.0</ele><time>2026-04-25T14:32:18Z</time></trkpt><trkpt lat="40.43482952184685" lon="9.489219653069881"><ele>356.0</ele><time>2026-04-25T14:32:19Z</time></trkpt><trkpt lat="40.434710915493525" lon="9.48913432088594"><ele>356.0</ele><time>2026-04-25T14:32:20Z</time></trkpt><trkpt lat="40.43460457771432" lon="9.489066837524142"><ele>356.0</ele><time>2026-04-25T14:32:21Z</time></trkpt><trkpt lat="40.43450593416145" lon="9.48902954656446"><ele>356.0</ele><time>2026-04-25T14:32:22Z</time></trkpt><trkpt lat="40.4343969760806" lon="9.489030933808332"><ele>353.75</ele><time>2026-04-25T14:32:23Z</time></trkpt><trkpt lat="40.434279533804705" lon="9.489060535833472"><ele>351.5</ele><time>2026-04-25T14:32:24Z</time></trkpt><trkpt lat="40.43414852415098" lon="9.48913282287667"><ele>349.25</ele><time>2026-04-25T14:32:25Z</time></trkpt><trkpt lat="40.434015107131366" lon="9.489209842703701"><ele>347.0</ele><time>2026-04-25T14:32:26Z</time></trkpt><trkpt lat="40.433889993986256" lon="9.48927804989301"><ele>345.8</ele><time>2026-04-25T14:32:27Z</time></trkpt><trkpt lat="40.43377371528569" lon="9.489337715285004"><ele>344.6</ele><time>2026-04-25T14:32:28Z</time></trkpt><trkpt lat="40.43366960995886" lon="9.489383299288646"><ele>343.40000000000003</ele><time>2026-04-25T14:32:29Z</time></trkpt><trkpt lat="40.43356469484117" lon="9.489410705035494"><ele>342.20000000000005</ele><time>2026-04-25T14:32:30Z</time></trkpt><trkpt lat="40.43345739342511" lon="9.489405996726148"><ele>341.0</ele><time>2026-04-25T14:32:31Z</time></trkpt><trkpt lat="40.43336112529155" lon="9.489348620545378"><ele>341.0</ele><time>2026-04-25T14:32:32Z</time></trkpt><trkpt lat="40.43326023827867" lon="9.489304931565128"><ele>341.0</ele><time>2026-04-25T14:32:33Z</time></trkpt><trkpt lat="40.433171542317986" lon="9.489205233659522"><ele>341.0</ele><time>2026-04-25T14:32:34Z</time></trkpt><trkpt lat="40.433089483046714" lon="9.489074498758217"><ele>341.0</ele><time>2026-04-25T14:32:35Z</time></trkpt><trkpt lat="40.43300066542526" lon="9.488938624118953"><ele>339.6666666666667</ele><time>2026-04-25T14:32:36Z</time></trkpt><trkpt lat="40.43290275067084" lon="9.488800731113265"><ele>338.3333333333333</ele><time>2026-04-25T14:32:37Z</time></trkpt><trkpt lat="40.432799881289675" lon="9.488654631382131"><ele>337.0</ele><time>2026-04-25T14:32:38Z</time></trkpt><trkpt lat="40.432691522454135" lon="9.488498541461366"><ele>337.0</ele><time>2026-04-25T14:32:39Z</time></trkpt><trkpt lat="40.43258240381713" lon="9.488341483727318"><ele>337.0</ele><time>2026-04-25T14:32:40Z</time></trkpt><trkpt lat="40.43247713169412" lon="9.48818949943584"><ele>337.0</ele><time>2026-04-25T14:32:41Z</time></trkpt><trkpt lat="40.43237622644756" lon="9.488042807246643"><ele>336.75</ele><time>2026-04-25T14:32:42Z</time></trkpt><trkpt lat="40.432278463808274" lon="9.487898805311476"><ele>336.5</ele><time>2026-04-25T14:32:43Z</time></trkpt><trkpt lat="40.43218432265175" lon="9.48776851160469"><ele>336.25</ele><time>2026-04-25T14:32:44Z</time></trkpt><trkpt lat="40.432103926173696" lon="9.487662814095124"><ele>336.0</ele><time>2026-04-25T14:32:45Z</time></trkpt><trkpt lat="40.432034906983766" lon="9.487587735965066"><ele>334.6</ele><time>2026-04-25T14:32:46Z</time></trkpt><trkpt lat="40.43195612601279" lon="9.487547875062647"><ele>333.20000000000005</ele><time>2026-04-25T14:32:47Z</time></trkpt><trkpt lat="40.43186339699338" lon="9.487540286077193"><ele>331.79999999999995</ele><time>2026-04-25T14:32:48Z</time></trkpt><trkpt lat="40.4317748530288" lon="9.48758461436162"><ele>330.4</ele><time>2026-04-25T14:32:49Z</time></trkpt><trkpt lat="40.43170261538953" lon="9.487665812542385"><ele>329.0</ele><time>2026-04-25T14:32:50Z</time></trkpt><trkpt lat="40.4316504576863" lon="9.487774546763728"><ele>329.0</ele><time>2026-04-25T14:32:51Z</time></trkpt><trkpt lat="40.43162433880896" lon="9.487897054154667"><ele>329.0</ele><time>2026-04-25T14:32:52Z</time></trkpt><trkpt lat="40.431634055474056" lon="9.488030949302145"><ele>329.0</ele><time>2026-04-25T14:32:53Z</time></trkpt><trkpt lat="40.431679248833056" lon="9.488174736205604"><ele>329.0</ele><time>2026-04-25T14:32:54Z</time></trkpt><trkpt lat="40.43175074064614" lon="9.488343939106882"><ele>327.75</ele><time>2026-04-25T14:32:55Z</time></trkpt><trkpt lat="40.43182280460448" lon="9.48851784344427"><ele>326.5</ele><time>2026-04-25T14:32:56Z</time></trkpt><trkpt lat="40.43187962765038" lon="9.48867795893818"><ele>325.25</ele><time>2026-04-25T14:32:57Z</time></trkpt><trkpt lat="40.43192946291256" lon="9.488820926884406"><ele>324.0</ele><time>2026-04-25T14:32:58Z</time></trkpt><trkpt lat="40.43196884077223" lon="9.48894977715471"><ele>322.8</ele><time>2026-04-25T14:32:59Z</time></trkpt><trkpt lat="40.431987145867744" lon="9.489068551406756"><ele>321.59999999999997</ele><time>2026-04-25T14:33:00Z</time></trkpt><trkpt lat="40.43198097018616" lon="9.489189334297917"><ele>320.4</ele><time>2026-04-25T14:33:01Z</time></trkpt><trkpt lat="40.431948053922014" lon="9.489309907272078"><ele>319.2</ele><time>2026-04-25T14:33:02Z</time></trkpt><trkpt lat="40.431892534510936" lon="9.489436857310483"><ele>318.0</ele><time>2026-04-25T14:33:03Z</time></trkpt><trkpt lat="40.43183474559513" lon="9.489553569110043"><ele>316.8</ele><time>2026-04-25T14:33:04Z</time></trkpt><trkpt lat="40.431772640856764" lon="9.489653770604901"><ele>315.6</ele><time>2026-04-25T14:33:05Z</time></trkpt><trkpt lat="40.43169439609815" lon="9.489702657145925"><ele>314.4</ele><time>2026-04-25T14:33:06Z</time></trkpt><trkpt lat="40.43161313365863" lon="9.48974586955753"><ele>313.2</ele><time>2026-04-25T14:33:07Z</time></trkpt><trkpt lat="40.43151449798301" lon="9.489751085545022"><ele>312.0</ele><time>2026-04-25T14:33:08Z</time></trkpt><trkpt lat="40.43141197088859" lon="9.489705247100055"><ele>311.75</ele><time>2026-04-25T14:33:09Z</time></trkpt><trkpt lat="40.43129197094146" lon="9.489670008962829"><ele>311.5</ele><time>2026-04-25T14:33:10Z</time></trkpt><trkpt lat="40.431157218514834" lon="9.489643218978275"><ele>311.25</ele><time>2026-04-25T14:33:11Z</time></trkpt><trkpt lat="40.431013575615566" lon="9.489596292666059"><ele>311.0</ele><time>2026-04-25T14:33:12Z</time></trkpt><trkpt lat="40.430855564578856" lon="9.489548269133097"><ele>311.0</ele><time>2026-04-25T14:33:13Z</time></trkpt><trkpt lat="40.430687604365694" lon="9.489494108488369"><ele>311.0</ele><time>2026-04-25T14:33:14Z</time></trkpt><trkpt lat="40.43052912934647" lon="9.489438065963556"><ele>311.0</ele><time>2026-04-25T14:33:15Z</time></trkpt><trkpt lat="40.430366446797386" lon="9.489391699905049"><ele>311.0</ele><time>2026-04-25T14:33:16Z</time></trkpt><trkpt lat="40.43018747482625" lon="9.48935838975841"><ele>311.0</ele><time>2026-04-25T14:33:17Z</time></trkpt><trkpt lat="40.42999158500165" lon="9.489332469545955"><ele>311.0</ele><time>2026-04-25T14:33:18Z</time></trkpt><trkpt lat="40.429789301564284" lon="9.489308604522291"><ele>311.0</ele><time>2026-04-25T14:33:19Z</time></trkpt><trkpt lat="40.429599714065205" lon="9.489286686205396"><ele>311.0</ele><time>2026-04-25T14:33:20Z</time></trkpt><trkpt lat="40.42942086779325" lon="9.489266000692776"><ele>311.0</ele><time>2026-04-25T14:33:21Z</time></trkpt><trkpt lat="40.42924592095516" lon="9.48924500805538"><ele>311.0</ele><time>2026-04-25T14:33:22Z</time></trkpt><trkpt lat="40.42907220687773" lon="9.489221578552153"><ele>311.0</ele><time>2026-04-25T14:33:23Z</time></trkpt><trkpt lat="40.428902570463855" lon="9.48919984007639"><ele>311.0</ele><time>2026-04-25T14:33:24Z</time></trkpt><trkpt lat="40.42873808977227" lon="9.489179506996985"><ele>311.33333333333337</ele><time>2026-04-25T14:33:25Z</time></trkpt><trkpt lat="40.428572229729276" lon="9.489158610966774"><ele>311.6666666666667</ele><time>2026-04-25T14:33:26Z</time></trkpt><trkpt lat="40.428408491667064" lon="9.489137473482199"><ele>312.0</ele><time>2026-04-25T14:33:27Z</time></trkpt><trkpt lat="40.428245467459824" lon="9.489115898970173"><ele>312.0</ele><time>2026-04-25T14:33:28Z</time></trkpt><trkpt lat="40.428086352521824" lon="9.489093231589289"><ele>312.0</ele><time>2026-04-25T14:33:29Z</time></trkpt><trkpt lat="40.42793647444312" lon="9.489074396646592"><ele>312.0</ele><time>2026-04-25T14:33:30Z</time></trkpt><trkpt lat="40.42778690503196" lon="9.489056837590935"><ele>312.0</ele><time>2026-04-25T14:33:31Z</time></trkpt><trkpt lat="40.42763983022663" lon="9.489040232955677"><ele>312.0</ele><time>2026-04-25T14:33:32Z</time></trkpt><trkpt lat="40.427494721406426" lon="9.489017925080503"><ele>312.0</ele><time>2026-04-25T14:33:33Z</time></trkpt><trkpt lat="40.42734036209664" lon="9.488997314924948"><ele>312.0</ele><time>2026-04-25T14:33:34Z</time></trkpt><trkpt lat="40.4271808842228" lon="9.488980697368289"><ele>308.6666666666667</ele><time>2026-04-25T14:33:35Z</time></trkpt><trkpt lat="40.42702045125558" lon="9.48895773877934"><ele>305.33333333333337</ele><time>2026-04-25T14:33:36Z</time></trkpt><trkpt lat="40.42686453139282" lon="9.488936210719599"><ele>302.0</ele><time>2026-04-25T14:33:37Z</time></trkpt><trkpt lat="40.42671699777137" lon="9.488918610610694"><ele>302.0</ele><time>2026-04-25T14:33:38Z</time></trkpt><trkpt lat="40.42658462235617" lon="9.488906284041962"><ele>302.0</ele><time>2026-04-25T14:33:39Z</time></trkpt><trkpt lat="40.426465042404985" lon="9.488891620692758"><ele>302.0</ele><time>2026-04-25T14:33:40Z</time></trkpt><trkpt lat="40.42636469097911" lon="9.488870000013904"><ele>302.0</ele><time>2026-04-25T14:33:41Z</time></trkpt><trkpt lat="40.42627270549884" lon="9.488820305075798"><ele>300.25</ele><time>2026-04-25T14:33:42Z</time></trkpt><trkpt lat="40.42620915355221" lon="9.488714069851397"><ele>298.5</ele><time>2026-04-25T14:33:43Z</time></trkpt><trkpt lat="40.426159432095716" lon="9.488586370081688"><ele>296.75</ele><time>2026-04-25T14:33:44Z</time></trkpt><trkpt lat="40.42610537558715" lon="9.48841757629052"><ele>295.0</ele><time>2026-04-25T14:33:45Z</time></trkpt><trkpt lat="40.42604442898661" lon="9.488258880481569"><ele>295.0</ele><time>2026-04-25T14:33:46Z</time></trkpt><trkpt lat="40.42599094505414" lon="9.48811111271479"><ele>295.0</ele><time>2026-04-25T14:33:47Z</time></trkpt><trkpt lat="40.42593235208808" lon="9.487992369807138"><ele>295.0</ele><time>2026-04-25T14:33:48Z</time></trkpt><trkpt lat="40.42586073487905" lon="9.487913047683312"><ele>295.0</ele><time>2026-04-25T14:33:49Z</time></trkpt><trkpt lat="40.42577357043093" lon="9.487862073442104"><ele>295.0</ele><time>2026-04-25T14:33:50Z</time></trkpt><trkpt lat="40.425673231806634" lon="9.487848028551852"><ele>296.25</ele><time>2026-04-25T14:33:51Z</time></trkpt><trkpt lat="40.42555993770129" lon="9.48786766174164"><ele>297.5</ele><time>2026-04-25T14:33:52Z</time></trkpt><trkpt lat="40.425427418153106" lon="9.487909145857026"><ele>298.75</ele><time>2026-04-25T14:33:53Z</time></trkpt><trkpt lat="40.42528329427382" lon="9.487950443314956"><ele>300.0</ele><time>2026-04-25T14:33:54Z</time></trkpt><trkpt lat="40.42513097730693" lon="9.487986889662173"><ele>298.0</ele><time>2026-04-25T14:33:55Z</time></trkpt><trkpt lat="40.42499113482021" lon="9.488016907992584"><ele>296.0</ele><time>2026-04-25T14:33:56Z</time></trkpt><trkpt lat="40.42485794944999" lon="9.488043923042111"><ele>294.0</ele><time>2026-04-25T14:33:57Z</time></trkpt><trkpt lat="40.424734358659165" lon="9.488070100481707"><ele>292.0</ele><time>2026-04-25T14:33:58Z</time></trkpt><trkpt lat="40.42462708683973" lon="9.488095906953507"><ele>292.0</ele><time>2026-04-25T14:33:59Z</time></trkpt><trkpt lat="40.42454111497482" lon="9.48814374694017"><ele>292.0</ele><time>2026-04-25T14:34:00Z</time></trkpt><trkpt lat="40.42446861747112" lon="9.488230005959519"><ele>292.0</ele><time>2026-04-25T14:34:01Z</time></trkpt><trkpt lat="40.42441912021141" lon="9.488351974312437"><ele>292.0</ele><time>2026-04-25T14:34:02Z</time></trkpt><trkpt lat="40.424389231782406" lon="9.48849929539524"><ele>292.0</ele><time>2026-04-25T14:34:03Z</time></trkpt><trkpt lat="40.424361730373306" lon="9.48867935017646"><ele>289.25</ele><time>2026-04-25T14:34:04Z</time></trkpt><trkpt lat="40.42432897423493" lon="9.488846169691232"><ele>286.5</ele><time>2026-04-25T14:34:05Z</time></trkpt><trkpt lat="40.42428933770451" lon="9.48899687668305"><ele>283.75</ele><time>2026-04-25T14:34:06Z</time></trkpt><trkpt lat="40.42424402396751" lon="9.489127828834404"><ele>281.0</ele><time>2026-04-25T14:34:07Z</time></trkpt><trkpt lat="40.424176435115314" lon="9.48923169935435"><ele>281.0</ele><time>2026-04-25T14:34:08Z</time></trkpt><trkpt lat="40.42408833027954" lon="9.489306024891365"><ele>281.0</ele><time>2026-04-25T14:34:09Z</time></trkpt><trkpt lat="40.42398292329786" lon="9.48932763324116"><ele>281.0</ele><time>2026-04-25T14:34:10Z</time></trkpt><trkpt lat="40.42388220053678" lon="9.489291170981236"><ele>281.0</ele><time>2026-04-25T14:34:11Z</time></trkpt><trkpt lat="40.423783047587094" lon="9.489263901984824"><ele>281.0</ele><time>2026-04-25T14:34:12Z</time></trkpt><trkpt lat="40.42371392588908" lon="9.489142397470204"><ele>279.75</ele><time>2026-04-25T14:34:13Z</time></trkpt><trkpt lat="40.423629766677195" lon="9.489024726090193"><ele>278.5</ele><time>2026-04-25T14:34:14Z</time></trkpt><trkpt lat="40.423537292079175" lon="9.488924260750869"><ele>277.25</ele><time>2026-04-25T14:34:15Z</time></trkpt><trkpt lat="40.42344840953101" lon="9.488839841240141"><ele>276.0</ele><time>2026-04-25T14:34:16Z</time></trkpt><trkpt lat="40.42334279699577" lon="9.488801192504399"><ele>276.0</ele><time>2026-04-25T14:34:17Z</time></trkpt><trkpt lat="40.423227577381105" lon="9.48881439499425"><ele>276.0</ele><time>2026-04-25T14:34:18Z</time></trkpt><trkpt lat="40.423113608796214" lon="9.488873393933527"><ele>276.0</ele><time>2026-04-25T14:34:19Z</time></trkpt><trkpt lat="40.42300186994109" lon="9.488971805224365"><ele>276.0</ele><time>2026-04-25T14:34:20Z</time></trkpt><trkpt lat="40.42288294623128" lon="9.489113775649413"><ele>277.3333333333333</ele><time>2026-04-25T14:34:21Z</time></trkpt><trkpt lat="40.422749328140334" lon="9.489267847042756"><ele>278.66666666666663</ele><time>2026-04-25T14:34:22Z</time></trkpt><trkpt lat="40.42259176415678" lon="9.489437054597772"><ele>280.0</ele><time>2026-04-25T14:34:23Z</time></trkpt><trkpt lat="40.42242929898081" lon="9.489605892853394"><ele>275.0</ele><time>2026-04-25T14:34:24Z</time></trkpt><trkpt lat="40.42227822238856" lon="9.489761898362126"><ele>270.0</ele><time>2026-04-25T14:34:25Z</time></trkpt><trkpt lat="40.42213741998471" lon="9.489908963755145"><ele>265.0</ele><time>2026-04-25T14:34:26Z</time></trkpt><trkpt lat="40.42201573397511" lon="9.490026733768252"><ele>265.0</ele><time>2026-04-25T14:34:27Z</time></trkpt><trkpt lat="40.42189673349756" lon="9.490118234656938"><ele>265.0</ele><time>2026-04-25T14:34:28Z</time></trkpt><trkpt lat="40.421749383297566" lon="9.49014609562424"><ele>265.0</ele><time>2026-04-25T14:34:29Z</time></trkpt><trkpt lat="40.42158754743008" lon="9.490225228479554"><ele>265.0</ele><time>2026-04-25T14:34:30Z</time></trkpt><trkpt lat="40.421424664167375" lon="9.49027487587255"><ele>265.0</ele><time>2026-04-25T14:34:31Z</time></trkpt><trkpt lat="40.42127663883306" lon="9.490327798098582"><ele>265.0</ele><time>2026-04-25T14:34:32Z</time></trkpt><trkpt lat="40.42115533392121" lon="9.490342048142358"><ele>265.0</ele><time>2026-04-25T14:34:33Z</time></trkpt><trkpt lat="40.42104962965986" lon="9.490327627971068"><ele>263.2</ele><time>2026-04-25T14:34:34Z</time></trkpt><trkpt lat="40.420962372670125" lon="9.490275355810967"><ele>261.4</ele><time>2026-04-25T14:34:35Z</time></trkpt><trkpt lat="40.420879194024714" lon="9.490181725558566"><ele>259.6</ele><time>2026-04-25T14:34:36Z</time></trkpt><trkpt lat="40.42082488883147" lon="9.490062010088405"><ele>257.8</ele><time>2026-04-25T14:34:37Z</time></trkpt><trkpt lat="40.420791906746416" lon="9.489931477367927"><ele>256.0</ele><time>2026-04-25T14:34:38Z</time></trkpt><trkpt lat="40.42073619860529" lon="9.489796230962353"><ele>256.0</ele><time>2026-04-25T14:34:39Z</time></trkpt><trkpt lat="40.42070994411774" lon="9.489661962222003"><ele>256.0</ele><time>2026-04-25T14:34:40Z</time></trkpt><trkpt lat="40.420669723531475" lon="9.48954606899224"><ele>256.0</ele><time>2026-04-25T14:34:41Z</time></trkpt><trkpt lat="40.42060305253652" lon="9.489456804108963"><ele>256.0</ele><time>2026-04-25T14:34:42Z</time></trkpt><trkpt lat="40.42051565426544" lon="9.489387830788774"><ele>256.0</ele><time>2026-04-25T14:34:43Z</time></trkpt><trkpt lat="40.42040719499047" lon="9.489357417805316"><ele>255.75</ele><time>2026-04-25T14:34:44Z</time></trkpt><trkpt lat="40.420284165491076" lon="9.489353740499704"><ele>255.5</ele><time>2026-04-25T14:34:45Z</time></trkpt><trkpt lat="40.42015001067984" lon="9.489377690046389"><ele>255.25</ele><time>2026-04-25T14:34:46Z</time></trkpt><trkpt lat="40.42001882441292" lon="9.48941275274447"><ele>255.0</ele><time>2026-04-25T14:34:47Z</time></trkpt><trkpt lat="40.4198932342374" lon="9.48943551279421"><ele>255.0</ele><time>2026-04-25T14:34:48Z</time></trkpt><trkpt lat="40.41977737483244" lon="9.489448390657312"><ele>255.0</ele><time>2026-04-25T14:34:49Z</time></trkpt><trkpt lat="40.41967300837363" lon="9.489459335887137"><ele>255.0</ele><time>2026-04-25T14:34:50Z</time></trkpt><trkpt lat="40.41957551323791" lon="9.489460295044061"><ele>255.0</ele><time>2026-04-25T14:34:51Z</time></trkpt><trkpt lat="40.41948472923082" lon="9.48943035464064"><ele>255.0</ele><time>2026-04-25T14:34:52Z</time></trkpt><trkpt lat="40.419402502257434" lon="9.48935753699646"><ele>253.25</ele><time>2026-04-25T14:34:53Z</time></trkpt><trkpt lat="40.4193514646588" lon="9.489230078955307"><ele>251.5</ele><time>2026-04-25T14:34:54Z</time></trkpt><trkpt lat="40.41931547323276" lon="9.489081568606485"><ele>249.75</ele><time>2026-04-25T14:34:55Z</time></trkpt><trkpt lat="40.41929310382557" lon="9.488913745437939"><ele>248.0</ele><time>2026-04-25T14:34:56Z</time></trkpt><trkpt lat="40.41926005791134" lon="9.488750991615383"><ele>248.0</ele><time>2026-04-25T14:34:57Z</time></trkpt><trkpt lat="40.41922096542981" lon="9.488612951697075"><ele>248.0</ele><time>2026-04-25T14:34:58Z</time></trkpt><trkpt lat="40.419142887179824" lon="9.488506202347928"><ele>248.0</ele><time>2026-04-25T14:34:59Z</time></trkpt><trkpt lat="40.419038851635825" lon="9.488429437353497"><ele>248.0</ele><time>2026-04-25T14:35:00Z</time></trkpt><trkpt lat="40.41892106387397" lon="9.488394118073327"><ele>245.75</ele><time>2026-04-25T14:35:01Z</time></trkpt><trkpt lat="40.41879953738391" lon="9.48839361567432"><ele>243.5</ele><time>2026-04-25T14:35:02Z</time></trkpt><trkpt lat="40.418661725498666" lon="9.488434724794507"><ele>241.25</ele><time>2026-04-25T14:35:03Z</time></trkpt><trkpt lat="40.418533088139625" lon="9.488472228032455"><ele>239.0</ele><time>2026-04-25T14:35:04Z</time></trkpt><trkpt lat="40.41841190180262" lon="9.488478216633414"><ele>239.0</ele><time>2026-04-25T14:35:05Z</time></trkpt><trkpt lat="40.418305562540965" lon="9.488404796737894"><ele>239.0</ele><time>2026-04-25T14:35:06Z</time></trkpt><trkpt lat="40.41820271854269" lon="9.488319138612653"><ele>239.0</ele><time>2026-04-25T14:35:07Z</time></trkpt><trkpt lat="40.41808381287727" lon="9.488243335112049"><ele>239.0</ele><time>2026-04-25T14:35:08Z</time></trkpt><trkpt lat="40.417974978876885" lon="9.488149045662581"><ele>236.25</ele><time>2026-04-25T14:35:09Z</time></trkpt><trkpt lat="40.41787649153663" lon="9.488046672530073"><ele>233.5</ele><time>2026-04-25T14:35:10Z</time></trkpt><trkpt lat="40.41780781716743" lon="9.487881443976145"><ele>230.75</ele><time>2026-04-25T14:35:11Z</time></trkpt><trkpt lat="40.4176962667308" lon="9.487707916574301"><ele>228.0</ele><time>2026-04-25T14:35:12Z</time></trkpt><trkpt lat="40.417607902774364" lon="9.487535492788442"><ele>228.0</ele><time>2026-04-25T14:35:13Z</time></trkpt><trkpt lat="40.41752208040089" lon="9.487378840026697"><ele>228.0</ele><time>2026-04-25T14:35:14Z</time></trkpt><trkpt lat="40.41745273020893" lon="9.487249265118486"><ele>228.0</ele><time>2026-04-25T14:35:15Z</time></trkpt><trkpt lat="40.41740056375329" lon="9.48712997691147"><ele>228.0</ele><time>2026-04-25T14:35:16Z</time></trkpt><trkpt lat="40.41737309618371" lon="9.486997424528843"><ele>229.0</ele><time>2026-04-25T14:35:17Z</time></trkpt><trkpt lat="40.41739363645431" lon="9.48685296720232"><ele>230.0</ele><time>2026-04-25T14:35:18Z</time></trkpt><trkpt lat="40.41742992081863" lon="9.486717911457754"><ele>231.0</ele><time>2026-04-25T14:35:19Z</time></trkpt><trkpt lat="40.417446922261995" lon="9.486578914082246"><ele>232.0</ele><time>2026-04-25T14:35:20Z</time></trkpt><trkpt lat="40.41744679967164" lon="9.486444048324408"><ele>233.0</ele><time>2026-04-25T14:35:21Z</time></trkpt><trkpt lat="40.41738831371648" lon="9.486314999608721"><ele>233.25</ele><time>2026-04-25T14:35:22Z</time></trkpt><trkpt lat="40.41731341328102" lon="9.486164347827538"><ele>233.5</ele><time>2026-04-25T14:35:23Z</time></trkpt><trkpt lat="40.417240852835334" lon="9.485996235376133"><ele>233.75</ele><time>2026-04-25T14:35:24Z</time></trkpt><trkpt lat="40.417183970111324" lon="9.485847534687228"><ele>234.0</ele><time>2026-04-25T14:35:25Z</time></trkpt><trkpt lat="40.41714160267906" lon="9.485672682378572"><ele>235.0</ele><time>2026-04-25T14:35:26Z</time></trkpt><trkpt lat="40.417126827129906" lon="9.48549124215384"><ele>236.0</ele><time>2026-04-25T14:35:27Z</time></trkpt><trkpt lat="40.41712238728374" lon="9.485320439859636"><ele>237.0</ele><time>2026-04-25T14:35:28Z</time></trkpt><trkpt lat="40.41713751855996" lon="9.485161502230966"><ele>238.0</ele><time>2026-04-25T14:35:29Z</time></trkpt><trkpt lat="40.41718032808153" lon="9.48500771654194"><ele>238.0</ele><time>2026-04-25T14:35:30Z</time></trkpt><trkpt lat="40.41723941615355" lon="9.484852214698405"><ele>238.0</ele><time>2026-04-25T14:35:31Z</time></trkpt><trkpt lat="40.41727964910002" lon="9.48469731869593"><ele>238.0</ele><time>2026-04-25T14:35:32Z</time></trkpt><trkpt lat="40.41729032744355" lon="9.484544248484234"><ele>238.0</ele><time>2026-04-25T14:35:33Z</time></trkpt><trkpt lat="40.41726720512085" lon="9.484370621688798"><ele>236.25</ele><time>2026-04-25T14:35:34Z</time></trkpt><trkpt lat="40.41725221137107" lon="9.484209490159095"><ele>234.5</ele><time>2026-04-25T14:35:35Z</time></trkpt><trkpt lat="40.4172701497859" lon="9.484049027605154"><ele>232.75</ele><time>2026-04-25T14:35:36Z</time></trkpt><trkpt lat="40.41731903859088" lon="9.483894175082865"><ele>231.0</ele><time>2026-04-25T14:35:37Z</time></trkpt><trkpt lat="40.4173844629262" lon="9.483739825303232"><ele>227.5</ele><time>2026-04-25T14:35:38Z</time></trkpt><trkpt lat="40.41745040795786" lon="9.483586135160401"><ele>224.0</ele><time>2026-04-25T14:35:39Z</time></trkpt><trkpt lat="40.417507182700575" lon="9.483438901236509"><ele>220.5</ele><time>2026-04-25T14:35:40Z</time></trkpt><trkpt lat="40.4175615243691" lon="9.48332213679566"><ele>217.0</ele><time>2026-04-25T14:35:41Z</time></trkpt><trkpt lat="40.41762899384465" lon="9.483231848957649"><ele>216.99999999999997</ele><time>2026-04-25T14:35:42Z</time></trkpt><trkpt lat="40.41771452542567" lon="9.483167263046528"><ele>217.0</ele><time>2026-04-25T14:35:43Z</time></trkpt><trkpt lat="40.41779540413895" lon="9.483107978846276"><ele>217.0</ele><time>2026-04-25T14:35:44Z</time></trkpt><trkpt lat="40.41785130171554" lon="9.483030540585133"><ele>217.0</ele><time>2026-04-25T14:35:45Z</time></trkpt><trkpt lat="40.41787271516429" lon="9.482924767598261"><ele>216.99999999999997</ele><time>2026-04-25T14:35:46Z</time></trkpt><trkpt lat="40.41785889426789" lon="9.482807394643478"><ele>217.0</ele><time>2026-04-25T14:35:47Z</time></trkpt><trkpt lat="40.417811183136855" lon="9.482716114708962"><ele>219.2</ele><time>2026-04-25T14:35:48Z</time></trkpt><trkpt lat="40.417740112555045" lon="9.482662930791536"><ele>221.39999999999998</ele><time>2026-04-25T14:35:49Z</time></trkpt><trkpt lat="40.41764538613084" lon="9.482644242340903"><ele>223.60000000000002</ele><time>2026-04-25T14:35:50Z</time></trkpt><trkpt lat="40.41754368902206" lon="9.482660563997348"><ele>225.8</ele><time>2026-04-25T14:35:51Z</time></trkpt><trkpt lat="40.417427990873655" lon="9.482703239602225"><ele>228.0</ele><time>2026-04-25T14:35:52Z</time></trkpt><trkpt lat="40.41729844111647" lon="9.482745979714032"><ele>228.0</ele><time>2026-04-25T14:35:53Z</time></trkpt><trkpt lat="40.41716130238494" lon="9.482785151605668"><ele>228.0</ele><time>2026-04-25T14:35:54Z</time></trkpt><trkpt lat="40.4170136948994" lon="9.482819874952582"><ele>228.0</ele><time>2026-04-25T14:35:55Z</time></trkpt><trkpt lat="40.41685966002598" lon="9.482863275695394"><ele>228.0</ele><time>2026-04-25T14:35:56Z</time></trkpt><trkpt lat="40.41669784699377" lon="9.482913847588863"><ele>219.0</ele><time>2026-04-25T14:35:57Z</time></trkpt><trkpt lat="40.41654728944189" lon="9.48296792923648"><ele>210.0</ele><time>2026-04-25T14:35:58Z</time></trkpt><trkpt lat="40.41640373733183" lon="9.483035126969224"><ele>201.0</ele><time>2026-04-25T14:35:59Z</time></trkpt><trkpt lat="40.41625488599585" lon="9.483106051355687"><ele>201.0</ele><time>2026-04-25T14:36:00Z</time></trkpt><trkpt lat="40.41610970579019" lon="9.483177241283142"><ele>201.0</ele><time>2026-04-25T14:36:01Z</time></trkpt><trkpt lat="40.41596964162321" lon="9.4832427743601"><ele>201.0</ele><time>2026-04-25T14:36:02Z</time></trkpt><trkpt lat="40.41583380482574" lon="9.483306268448834"><ele>201.0</ele><time>2026-04-25T14:36:03Z</time></trkpt><trkpt lat="40.41571217369571" lon="9.483363033973259"><ele>201.0</ele><time>2026-04-25T14:36:04Z</time></trkpt><trkpt lat="40.41560091015095" lon="9.483402402062238"><ele>201.0</ele><time>2026-04-25T14:36:05Z</time></trkpt><trkpt lat="40.41549578401648" lon="9.483409751087144"><ele>201.0</ele><time>2026-04-25T14:36:06Z</time></trkpt><trkpt lat="40.41539635268046" lon="9.483378437715784"><ele>201.0</ele><time>2026-04-25T14:36:07Z</time></trkpt><trkpt lat="40.41531043804505" lon="9.483309323417197"><ele>201.0</ele><time>2026-04-25T14:36:08Z</time></trkpt><trkpt lat="40.41522067913762" lon="9.48322232683549"><ele>200.20000000000002</ele><time>2026-04-25T14:36:09Z</time></trkpt><trkpt lat="40.415130084420085" lon="9.483137145246006"><ele>199.4</ele><time>2026-04-25T14:36:10Z</time></trkpt><trkpt lat="40.41503500675996" lon="9.483074018414678"><ele>198.6</ele><time>2026-04-25T14:36:11Z</time></trkpt><trkpt lat="40.41493472339314" lon="9.483052077886272"><ele>197.8</ele><time>2026-04-25T14:36:12Z</time></trkpt><trkpt lat="40.41483341712861" lon="9.483073333552731"><ele>197.0</ele><time>2026-04-25T14:36:13Z</time></trkpt><trkpt lat="40.41474394171051" lon="9.48312976218081"><ele>197.0</ele><time>2026-04-25T14:36:14Z</time></trkpt><trkpt lat="40.41466977512141" lon="9.483222057996917"><ele>197.0</ele><time>2026-04-25T14:36:15Z</time></trkpt><trkpt lat="40.4145970942718" lon="9.483337428248143"><ele>197.0</ele><time>2026-04-25T14:36:16Z</time></trkpt><trkpt lat="40.414522780370994" lon="9.483460133216868"><ele>197.0</ele><time>2026-04-25T14:36:17Z</time></trkpt><trkpt lat="40.41444662885723" lon="9.483575500999207"><ele>199.25</ele><time>2026-04-25T14:36:18Z</time></trkpt><trkpt lat="40.41435730695466" lon="9.483669035653246"><ele>201.5</ele><time>2026-04-25T14:36:19Z</time></trkpt><trkpt lat="40.41424465589612" lon="9.483733474726211"><ele>203.75</ele><time>2026-04-25T14:36:20Z</time></trkpt><trkpt lat="40.41411798173396" lon="9.48378025503677"><ele>206.0</ele><time>2026-04-25T14:36:21Z</time></trkpt><trkpt lat="40.414000301627226" lon="9.483833588167807"><ele>199.25</ele><time>2026-04-25T14:36:22Z</time></trkpt><trkpt lat="40.413886210888826" lon="9.483883793953341"><ele>192.5</ele><time>2026-04-25T14:36:23Z</time></trkpt><trkpt lat="40.41377202790017" lon="9.48392453202175"><ele>185.75</ele><time>2026-04-25T14:36:24Z</time></trkpt><trkpt lat="40.41365156697275" lon="9.4839355977199"><ele>179.0</ele><time>2026-04-25T14:36:25Z</time></trkpt><trkpt lat="40.4135246472457" lon="9.483894105555242"><ele>179.0</ele><time>2026-04-25T14:36:26Z</time></trkpt><trkpt lat="40.41338621603892" lon="9.483876600964525"><ele>179.0</ele><time>2026-04-25T14:36:27Z</time></trkpt><trkpt lat="40.41324520348805" lon="9.483845143833861"><ele>179.0</ele><time>2026-04-25T14:36:28Z</time></trkpt><trkpt lat="40.41310964321654" lon="9.483817118276525"><ele>179.0</ele><time>2026-04-25T14:36:29Z</time></trkpt><trkpt lat="40.41297856107494" lon="9.483790339543189"><ele>178.2</ele><time>2026-04-25T14:36:30Z</time></trkpt><trkpt lat="40.412853203798704" lon="9.48376320904927"><ele>177.39999999999998</ele><time>2026-04-25T14:36:31Z</time></trkpt><trkpt lat="40.412754165680624" lon="9.483738422526057"><ele>176.6</ele><time>2026-04-25T14:36:32Z</time></trkpt><trkpt lat="40.41267752274199" lon="9.483705634290526"><ele>175.8</ele><time>2026-04-25T14:36:33Z</time></trkpt><trkpt lat="40.41260667203223" lon="9.483653635887544"><ele>175.0</ele><time>2026-04-25T14:36:34Z</time></trkpt><trkpt lat="40.41254511987646" lon="9.483564858509922"><ele>175.0</ele><time>2026-04-25T14:36:35Z</time></trkpt><trkpt lat="40.41249430025018" lon="9.483458218008993"><ele>175.0</ele><time>2026-04-25T14:36:36Z</time></trkpt><trkpt lat="40.41246930364771" lon="9.483339522392695"><ele>175.0</ele><time>2026-04-25T14:36:37Z</time></trkpt><trkpt lat="40.41248084876065" lon="9.483208392122545"><ele>175.0</ele><time>2026-04-25T14:36:38Z</time></trkpt><trkpt lat="40.41248146330914" lon="9.483055800855073"><ele>175.0</ele><time>2026-04-25T14:36:39Z</time></trkpt><trkpt lat="40.41251130713921" lon="9.482882875945936"><ele>175.2</ele><time>2026-04-25T14:36:40Z</time></trkpt><trkpt lat="40.4125374638028" lon="9.48272934995632"><ele>175.4</ele><time>2026-04-25T14:36:41Z</time></trkpt><trkpt lat="40.41255765383079" lon="9.48259622491515"><ele>175.60000000000002</ele><time>2026-04-25T14:36:42Z</time></trkpt><trkpt lat="40.41256714599334" lon="9.482482981465928"><ele>175.8</ele><time>2026-04-25T14:36:43Z</time></trkpt><trkpt lat="40.412553710912356" lon="9.482372167845899"><ele>176.0</ele><time>2026-04-25T14:36:44Z</time></trkpt><trkpt lat="40.41250831563538" lon="9.482273669788698"><ele>176.0</ele><time>2026-04-25T14:36:45Z</time></trkpt><trkpt lat="40.41244122798919" lon="9.482195870043943"><ele>176.0</ele><time>2026-04-25T14:36:46Z</time></trkpt><trkpt lat="40.41236020724078" lon="9.482146206072683"><ele>176.0</ele><time>2026-04-25T14:36:47Z</time></trkpt><trkpt lat="40.412267902941146" lon="9.48213519568812"><ele>176.0</ele><time>2026-04-25T14:36:48Z</time></trkpt><trkpt lat="40.412178768157744" lon="9.48217025177794"><ele>176.0</ele><time>2026-04-25T14:36:49Z</time></trkpt><trkpt lat="40.41208593645382" lon="9.482232775064595"><ele>172.0</ele><time>2026-04-25T14:36:50Z</time></trkpt><trkpt lat="40.411984778465424" lon="9.482315054852714"><ele>168.0</ele><time>2026-04-25T14:36:51Z</time></trkpt><trkpt lat="40.411887535128294" lon="9.482375768204493"><ele>164.0</ele><time>2026-04-25T14:36:52Z</time></trkpt><trkpt lat="40.411780612480186" lon="9.482395828580081"><ele>160.0</ele><time>2026-04-25T14:36:53Z</time></trkpt><trkpt lat="40.41166346450293" lon="9.482393581890628"><ele>160.0</ele><time>2026-04-25T14:36:54Z</time></trkpt><trkpt lat="40.41154084154909" lon="9.482385109283323"><ele>160.0</ele><time>2026-04-25T14:36:55Z</time></trkpt><trkpt lat="40.41143904456123" lon="9.48233869431555"><ele>160.0</ele><time>2026-04-25T14:36:56Z</time></trkpt><trkpt lat="40.4113729404438" lon="9.482243968382885"><ele>160.0</ele><time>2026-04-25T14:36:57Z</time></trkpt><trkpt lat="40.411321535959644" lon="9.48214193267868"><ele>160.0</ele><time>2026-04-25T14:36:58Z</time></trkpt><trkpt lat="40.41128035050366" lon="9.481997451424986"><ele>161.8</ele><time>2026-04-25T14:36:59Z</time></trkpt><trkpt lat="40.41121804748354" lon="9.48184090855639"><ele>163.6</ele><time>2026-04-25T14:37:00Z</time></trkpt><trkpt lat="40.41117504371451" lon="9.48170411511264"><ele>165.39999999999998</ele><time>2026-04-25T14:37:01Z</time></trkpt><trkpt lat="40.411133889927896" lon="9.481587323122932"><ele>167.2</ele><time>2026-04-25T14:37:02Z</time></trkpt><trkpt lat="40.41108426926445" lon="9.481500805105494"><ele>169.0</ele><time>2026-04-25T14:37:03Z</time></trkpt><trkpt lat="40.41101298517976" lon="9.481448395459948"><ele>169.0</ele><time>2026-04-25T14:37:04Z</time></trkpt><trkpt lat="40.41094210604976" lon="9.481437184972961"><ele>169.0</ele><time>2026-04-25T14:37:05Z</time></trkpt><trkpt lat="40.410869418236025" lon="9.481464913225679"><ele>169.0</ele><time>2026-04-25T14:37:06Z</time></trkpt><trkpt lat="40.4108099224718" lon="9.481535231101716"><ele>169.0</ele><time>2026-04-25T14:37:07Z</time></trkpt><trkpt lat="40.41077064694191" lon="9.481626763488046"><ele>169.0</ele><time>2026-04-25T14:37:08Z</time></trkpt><trkpt lat="40.410759082954804" lon="9.4817525476794"><ele>169.0</ele><time>2026-04-25T14:37:09Z</time></trkpt><trkpt lat="40.410759202563376" lon="9.481887973743339"><ele>169.0</ele><time>2026-04-25T14:37:10Z</time></trkpt><trkpt lat="40.41075870825736" lon="9.482036643244797"><ele>169.0</ele><time>2026-04-25T14:37:11Z</time></trkpt><trkpt lat="40.4107336161894" lon="9.482178876605557"><ele>169.0</ele><time>2026-04-25T14:37:12Z</time></trkpt><trkpt lat="40.410678141942356" lon="9.482320165519457"><ele>169.0</ele><time>2026-04-25T14:37:13Z</time></trkpt><trkpt lat="40.4105994850613" lon="9.482474960719676"><ele>168.5</ele><time>2026-04-25T14:37:14Z</time></trkpt><trkpt lat="40.410524152945854" lon="9.482633507281905"><ele>168.0</ele><time>2026-04-25T14:37:15Z</time></trkpt><trkpt lat="40.41045762969984" lon="9.482778719941757"><ele>167.5</ele><time>2026-04-25T14:37:16Z</time></trkpt><trkpt lat="40.41038454635029" lon="9.482888442499549"><ele>167.0</ele><time>2026-04-25T14:37:17Z</time></trkpt><trkpt lat="40.41028232030345" lon="9.482949218347272"><ele>160.5</ele><time>2026-04-25T14:37:18Z</time></trkpt><trkpt lat="40.41018262570646" lon="9.483029347392229"><ele>154.0</ele><time>2026-04-25T14:37:19Z</time></trkpt><trkpt lat="40.410080141994676" lon="9.483122737062564"><ele>147.5</ele><time>2026-04-25T14:37:20Z</time></trkpt><trkpt lat="40.409982557549675" lon="9.483203861258986"><ele>141.0</ele><time>2026-04-25T14:37:21Z</time></trkpt><trkpt lat="40.40987679581222" lon="9.483252680529407"><ele>141.0</ele><time>2026-04-25T14:37:22Z</time></trkpt><trkpt lat="40.40976726107498" lon="9.483270587373484"><ele>141.0</ele><time>2026-04-25T14:37:23Z</time></trkpt><trkpt lat="40.409670840765685" lon="9.483216807084009"><ele>141.0</ele><time>2026-04-25T14:37:24Z</time></trkpt><trkpt lat="40.40955946311989" lon="9.483187447320388"><ele>141.0</ele><time>2026-04-25T14:37:25Z</time></trkpt><trkpt lat="40.40943677907898" lon="9.483129652410279"><ele>139.6</ele><time>2026-04-25T14:37:26Z</time></trkpt><trkpt lat="40.40931362478339" lon="9.483082479143556"><ele>138.2</ele><time>2026-04-25T14:37:27Z</time></trkpt><trkpt lat="40.40920345329587" lon="9.48304315042038"><ele>136.8</ele><time>2026-04-25T14:37:28Z</time></trkpt><trkpt lat="40.40912179180131" lon="9.482971459340355"><ele>135.4</ele><time>2026-04-25T14:37:29Z</time></trkpt><trkpt lat="40.409045566808636" lon="9.482904769727725"><ele>134.0</ele><time>2026-04-25T14:37:30Z</time></trkpt><trkpt lat="40.40900730628315" lon="9.482798068894576"><ele>136.83333333333331</ele><time>2026-04-25T14:37:31Z</time></trkpt><trkpt lat="40.40896579259608" lon="9.482688291059123"><ele>139.66666666666666</ele><time>2026-04-25T14:37:32Z</time></trkpt><trkpt lat="40.40891395756565" lon="9.482593363270441"><ele>142.5</ele><time>2026-04-25T14:37:33Z</time></trkpt><trkpt lat="40.40885696723349" lon="9.48251659601327"><ele>145.33333333333334</ele><time>2026-04-25T14:37:34Z</time></trkpt><trkpt lat="40.40877816144864" lon="9.48246575242873"><ele>148.16666666666669</ele><time>2026-04-25T14:37:35Z</time></trkpt><trkpt lat="40.40868043218684" lon="9.48246275586602"><ele>151.0</ele><time>2026-04-25T14:37:36Z</time></trkpt><trkpt lat="40.4085843138358" lon="9.482494451890435"><ele>151.0</ele><time>2026-04-25T14:37:37Z</time></trkpt><trkpt lat="40.40849607836125" lon="9.482577520637681"><ele>151.0</ele><time>2026-04-25T14:37:38Z</time></trkpt><trkpt lat="40.408416954510045" lon="9.482695923199412"><ele>151.0</ele><time>2026-04-25T14:37:39Z</time></trkpt><trkpt lat="40.408337095299686" lon="9.48282059325863"><ele>151.0</ele><time>2026-04-25T14:37:40Z</time></trkpt><trkpt lat="40.4082590694431" lon="9.482943575990362"><ele>145.75</ele><time>2026-04-25T14:37:41Z</time></trkpt><trkpt lat="40.40818922315269" lon="9.483072270781788"><ele>140.5</ele><time>2026-04-25T14:37:42Z</time></trkpt><trkpt lat="40.40813752985044" lon="9.483223953612958"><ele>135.25</ele><time>2026-04-25T14:37:43Z</time></trkpt><trkpt lat="40.40810923806703" lon="9.483400554476683"><ele>130.0</ele><time>2026-04-25T14:37:44Z</time></trkpt><trkpt lat="40.408085913048915" lon="9.483590620499355"><ele>129.75</ele><time>2026-04-25T14:37:45Z</time></trkpt><trkpt lat="40.40806311084634" lon="9.48378279802684"><ele>129.5</ele><time>2026-04-25T14:37:46Z</time></trkpt><trkpt lat="40.40803578931636" lon="9.48397493736592"><ele>129.25</ele><time>2026-04-25T14:37:47Z</time></trkpt><trkpt lat="40.40800803078135" lon="9.4841573778061"><ele>129.0</ele><time>2026-04-25T14:37:48Z</time></trkpt><trkpt lat="40.40797337195202" lon="9.48433170383284"><ele>129.0</ele><time>2026-04-25T14:37:49Z</time></trkpt><trkpt lat="40.407924397335236" lon="9.48449306509504"><ele>129.0</ele><time>2026-04-25T14:37:50Z</time></trkpt><trkpt lat="40.4078532356042" lon="9.484636701497125"><ele>129.0</ele><time>2026-04-25T14:37:51Z</time></trkpt><trkpt lat="40.40778564398539" lon="9.484736203557178"><ele>129.0</ele><time>2026-04-25T14:37:52Z</time></trkpt><trkpt lat="40.407716516917816" lon="9.48480814963903"><ele>126.0</ele><time>2026-04-25T14:37:53Z</time></trkpt><trkpt lat="40.40763552716187" lon="9.48485014541254"><ele>123.0</ele><time>2026-04-25T14:37:54Z</time></trkpt><trkpt lat="40.40754093833677" lon="9.48484589048028"><ele>120.0</ele><time>2026-04-25T14:37:55Z</time></trkpt><trkpt lat="40.407451811834676" lon="9.484790946843821"><ele>117.0</ele><time>2026-04-25T14:37:56Z</time></trkpt><trkpt lat="40.40737212627163" lon="9.484719669193902"><ele>114.0</ele><time>2026-04-25T14:37:57Z</time></trkpt><trkpt lat="40.407273204728355" lon="9.484642035649294"><ele>115.0</ele><time>2026-04-25T14:37:58Z</time></trkpt><trkpt lat="40.40716370165246" lon="9.484517421626785"><ele>116.0</ele><time>2026-04-25T14:37:59Z</time></trkpt><trkpt lat="40.407057339937666" lon="9.484400100984693"><ele>117.0</ele><time>2026-04-25T14:38:00Z</time></trkpt><trkpt lat="40.40696411447549" lon="9.484282374116239"><ele>118.0</ele><time>2026-04-25T14:38:01Z</time></trkpt><trkpt lat="40.406887760455135" lon="9.484166664451553"><ele>118.00000000000001</ele><time>2026-04-25T14:38:02Z</time></trkpt><trkpt lat="40.40682106033646" lon="9.484064719835475"><ele>118.0</ele><time>2026-04-25T14:38:03Z</time></trkpt><trkpt lat="40.40675476458973" lon="9.483995867269158"><ele>118.0</ele><time>2026-04-25T14:38:04Z</time></trkpt><trkpt lat="40.40667968574035" lon="9.48397067393077"><ele>118.0</ele><time>2026-04-25T14:38:05Z</time></trkpt><trkpt lat="40.40660393134669" lon="9.483984452575951"><ele>118.00000000000001</ele><time>2026-04-25T14:38:06Z</time></trkpt><trkpt lat="40.406534386074874" lon="9.484032477448348"><ele>118.0</ele><time>2026-04-25T14:38:07Z</time></trkpt><trkpt lat="40.40647791817252" lon="9.484117334005479"><ele>118.0</ele><time>2026-04-25T14:38:08Z</time></trkpt><trkpt lat="40.40644197795151" lon="9.484224231452702"><ele>118.00000000000001</ele><time>2026-04-25T14:38:09Z</time></trkpt><trkpt lat="40.40644020883995" lon="9.484342036722332"><ele>118.00000000000001</ele><time>2026-04-25T14:38:10Z</time></trkpt><trkpt lat="40.40648036734918" lon="9.484478883269462"><ele>118.0</ele><time>2026-04-25T14:38:11Z</time></trkpt><trkpt lat="40.40654514422426" lon="9.48464741814228"><ele>118.0</ele><time>2026-04-25T14:38:12Z</time></trkpt><trkpt lat="40.40661308983327" lon="9.484828474363459"><ele>116.5</ele><time>2026-04-25T14:38:13Z</time></trkpt><trkpt lat="40.406670550773526" lon="9.484993491871714"><ele>115.0</ele><time>2026-04-25T14:38:14Z</time></trkpt><trkpt lat="40.406717878795945" lon="9.48515200866028"><ele>113.5</ele><time>2026-04-25T14:38:15Z</time></trkpt><trkpt lat="40.40674153332571" lon="9.485321578779608"><ele>112.0</ele><time>2026-04-25T14:38:16Z</time></trkpt><trkpt lat="40.40673090018127" lon="9.485508396478288"><ele>110.0</ele><time>2026-04-25T14:38:17Z</time></trkpt><trkpt lat="40.406713607130506" lon="9.485696726383441"><ele>108.0</ele><time>2026-04-25T14:38:18Z</time></trkpt><trkpt lat="40.40669431812905" lon="9.485873137331176"><ele>106.0</ele><time>2026-04-25T14:38:19Z</time></trkpt><trkpt lat="40.40667027480878" lon="9.486044458595101"><ele>104.0</ele><time>2026-04-25T14:38:20Z</time></trkpt><trkpt lat="40.40661576749677" lon="9.486192427816365"><ele>102.25</ele><time>2026-04-25T14:38:21Z</time></trkpt><trkpt lat="40.406520717384495" lon="9.486292097294044"><ele>100.5</ele><time>2026-04-25T14:38:22Z</time></trkpt><trkpt lat="40.40642252121877" lon="9.486408584133931"><ele>98.75</ele><time>2026-04-25T14:38:23Z</time></trkpt><trkpt lat="40.40632041912806" lon="9.486550629037414"><ele>97.0</ele><time>2026-04-25T14:38:24Z</time></trkpt><trkpt lat="40.406200850293224" lon="9.486690310321487"><ele>97.0</ele><time>2026-04-25T14:38:25Z</time></trkpt><trkpt lat="40.40608037457852" lon="9.486837289074922"><ele>97.0</ele><time>2026-04-25T14:38:26Z</time></trkpt><trkpt lat="40.405963166482046" lon="9.486987832305113"><ele>97.0</ele><time>2026-04-25T14:38:27Z</time></trkpt><trkpt lat="40.40585215825696" lon="9.487131745511771"><ele>95.33333333333334</ele><time>2026-04-25T14:38:28Z</time></trkpt><trkpt lat="40.4057383709411" lon="9.487279608968374"><ele>93.66666666666667</ele><time>2026-04-25T14:38:29Z</time></trkpt><trkpt lat="40.40562463569849" lon="9.487421389912697"><ele>92.0</ele><time>2026-04-25T14:38:30Z</time></trkpt><trkpt lat="40.40551549644836" lon="9.487557381793046"><ele>92.0</ele><time>2026-04-25T14:38:31Z</time></trkpt><trkpt lat="40.405408561353994" lon="9.48769392001873"><ele>92.0</ele><time>2026-04-25T14:38:32Z</time></trkpt><trkpt lat="40.405305174010465" lon="9.487828648300052"><ele>92.0</ele><time>2026-04-25T14:38:33Z</time></trkpt><trkpt lat="40.40520787543624" lon="9.487980262480695"><ele>92.0</ele><time>2026-04-25T14:38:34Z</time></trkpt><trkpt lat="40.40510898071971" lon="9.488145486665909"><ele>92.0</ele><time>2026-04-25T14:38:35Z</time></trkpt><trkpt lat="40.40501167715893" lon="9.488317142138165"><ele>92.0</ele><time>2026-04-25T14:38:36Z</time></trkpt><trkpt lat="40.404915898381795" lon="9.488499004598092"><ele>92.0</ele><time>2026-04-25T14:38:37Z</time></trkpt><trkpt lat="40.40481224832267" lon="9.488682336095296"><ele>91.25</ele><time>2026-04-25T14:38:38Z</time></trkpt><trkpt lat="40.404719182021125" lon="9.488852421023264"><ele>90.5</ele><time>2026-04-25T14:38:39Z</time></trkpt><trkpt lat="40.40463015080104" lon="9.489002317120775"><ele>89.75</ele><time>2026-04-25T14:38:40Z</time></trkpt><trkpt lat="40.40453641130284" lon="9.489123035624578"><ele>89.0</ele><time>2026-04-25T14:38:41Z</time></trkpt><trkpt lat="40.40442358835765" lon="9.48918439986683"><ele>91.25</ele><time>2026-04-25T14:38:42Z</time></trkpt><trkpt lat="40.40430661131854" lon="9.489234360210798"><ele>93.5</ele><time>2026-04-25T14:38:43Z</time></trkpt><trkpt lat="40.40417556616128" lon="9.489298827606282"><ele>95.75</ele><time>2026-04-25T14:38:44Z</time></trkpt><trkpt lat="40.404005415577345" lon="9.489364214243318"><ele>98.0</ele><time>2026-04-25T14:38:45Z</time></trkpt><trkpt lat="40.40384972740589" lon="9.489430058067766"><ele>97.33333333333333</ele><time>2026-04-25T14:38:46Z</time></trkpt><trkpt lat="40.40370023780984" lon="9.48948326085756"><ele>96.66666666666666</ele><time>2026-04-25T14:38:47Z</time></trkpt><trkpt lat="40.40354927709633" lon="9.489518404210155"><ele>96.0</ele><time>2026-04-25T14:38:48Z</time></trkpt><trkpt lat="40.40339747000731" lon="9.489548998247251"><ele>96.0</ele><time>2026-04-25T14:38:49Z</time></trkpt><trkpt lat="40.40325011554198" lon="9.489580110299205"><ele>96.0</ele><time>2026-04-25T14:38:50Z</time></trkpt><trkpt lat="40.40310969974939" lon="9.489610239470657"><ele>96.0</ele><time>2026-04-25T14:38:51Z</time></trkpt><trkpt lat="40.40296843540314" lon="9.489641009703899"><ele>96.0</ele><time>2026-04-25T14:38:52Z</time></trkpt><trkpt lat="40.40283750347685" lon="9.489673522459789"><ele>92.8</ele><time>2026-04-25T14:38:53Z</time></trkpt><trkpt lat="40.40272342201183" lon="9.489706563076272"><ele>89.6</ele><time>2026-04-25T14:38:54Z</time></trkpt><trkpt lat="40.40262031078502" lon="9.48973377911276"><ele>86.4</ele><time>2026-04-25T14:38:55Z</time></trkpt><trkpt lat="40.402515949436" lon="9.489739032959436"><ele>83.2</ele><time>2026-04-25T14:38:56Z</time></trkpt><trkpt lat="40.402401827744725" lon="9.489764664557017"><ele>80.0</ele><time>2026-04-25T14:38:57Z</time></trkpt><trkpt lat="40.40227562201083" lon="9.489796679280694"><ele>80.25</ele><time>2026-04-25T14:38:58Z</time></trkpt><trkpt lat="40.40214399129258" lon="9.48982356650659"><ele>80.5</ele><time>2026-04-25T14:38:59Z</time></trkpt><trkpt lat="40.40201961872002" lon="9.489846550193997"><ele>80.75</ele><time>2026-04-25T14:39:00Z</time></trkpt><trkpt lat="40.40190797004483" lon="9.489866562209064"><ele>81.0</ele><time>2026-04-25T14:39:01Z</time></trkpt><trkpt lat="40.401802704350736" lon="9.489888405027827"><ele>81.0</ele><time>2026-04-25T14:39:02Z</time></trkpt><trkpt lat="40.40170261366213" lon="9.489911875550915"><ele>81.0</ele><time>2026-04-25T14:39:03Z</time></trkpt><trkpt lat="40.40160536137762" lon="9.48993719676478"><ele>81.0</ele><time>2026-04-25T14:39:04Z</time></trkpt><trkpt lat="40.401510987308505" lon="9.489964168757439"><ele>81.0</ele><time>2026-04-25T14:39:05Z</time></trkpt><trkpt lat="40.40142102592847" lon="9.489984653164564"><ele>81.0</ele><time>2026-04-25T14:39:06Z</time></trkpt><trkpt lat="40.401329332547895" lon="9.490003239845045"><ele>80.0</ele><time>2026-04-25T14:39:07Z</time></trkpt><trkpt lat="40.40122316122032" lon="9.490029336358942"><ele>79.0</ele><time>2026-04-25T14:39:08Z</time></trkpt><trkpt lat="40.40110852773437" lon="9.490053503645257"><ele>78.0</ele><time>2026-04-25T14:39:09Z</time></trkpt><trkpt lat="40.400981282202906" lon="9.490084496291468"><ele>77.0</ele><time>2026-04-25T14:39:10Z</time></trkpt><trkpt lat="40.40082540338788" lon="9.490120528134426"><ele>77.0</ele><time>2026-04-25T14:39:11Z</time></trkpt><trkpt lat="40.40065977727093" lon="9.490160401436455"><ele>77.0</ele><time>2026-04-25T14:39:12Z</time></trkpt><trkpt lat="40.400497855615185" lon="9.49019554628797"><ele>77.0</ele><time>2026-04-25T14:39:13Z</time></trkpt><trkpt lat="40.4003388625636" lon="9.490231050992705"><ele>77.25</ele><time>2026-04-25T14:39:14Z</time></trkpt><trkpt lat="40.40019010974264" lon="9.49026217828255"><ele>77.5</ele><time>2026-04-25T14:39:15Z</time></trkpt><trkpt lat="40.40004868453579" lon="9.490295259499222"><ele>77.75</ele><time>2026-04-25T14:39:16Z</time></trkpt><trkpt lat="40.399909173476075" lon="9.490330996043271"><ele>78.0</ele><time>2026-04-25T14:39:17Z</time></trkpt><trkpt lat="40.39976049567071" lon="9.490363060871186"><ele>77.5</ele><time>2026-04-25T14:39:18Z</time></trkpt><trkpt lat="40.39962447001328" lon="9.49039821523653"><ele>77.0</ele><time>2026-04-25T14:39:19Z</time></trkpt><trkpt lat="40.399501642344404" lon="9.490430103402867"><ele>76.5</ele><time>2026-04-25T14:39:20Z</time></trkpt><trkpt lat="40.399390764007585" lon="9.490456473018103"><ele>76.0</ele><time>2026-04-25T14:39:21Z</time></trkpt><trkpt lat="40.39927851912659" lon="9.490481515304062"><ele>76.0</ele><time>2026-04-25T14:39:22Z</time></trkpt><trkpt lat="40.399175826446225" lon="9.490495195490102"><ele>76.0</ele><time>2026-04-25T14:39:23Z</time></trkpt><trkpt lat="40.39907784564165" lon="9.490493334099268"><ele>76.0</ele><time>2026-04-25T14:39:24Z</time></trkpt><trkpt lat="40.39899623935655" lon="9.490491703874806"><ele>76.0</ele><time>2026-04-25T14:39:25Z</time></trkpt><trkpt lat="40.398916024786125" lon="9.490395967500733"><ele>76.0</ele><time>2026-04-25T14:39:26Z</time></trkpt><trkpt lat="40.39885700697336" lon="9.490307972251125"><ele>76.0</ele><time>2026-04-25T14:39:27Z</time></trkpt><trkpt lat="40.39881138960638" lon="9.49020662069257"><ele>76.0</ele><time>2026-04-25T14:39:28Z</time></trkpt><trkpt lat="40.39878102645414" lon="9.490096387718221"><ele>76.0</ele><time>2026-04-25T14:39:29Z</time></trkpt><trkpt lat="40.39880473177422" lon="9.489956709070583"><ele>76.0</ele><time>2026-04-25T14:39:30Z</time></trkpt><trkpt lat="40.3988434057574" lon="9.48982568513457"><ele>76.0</ele><time>2026-04-25T14:39:31Z</time></trkpt><trkpt lat="40.39892944851921" lon="9.489683371873424"><ele>76.66666666666666</ele><time>2026-04-25T14:39:32Z</time></trkpt><trkpt lat="40.39899554466351" lon="9.489493399012241"><ele>77.33333333333333</ele><time>2026-04-25T14:39:33Z</time></trkpt><trkpt lat="40.39907793372332" lon="9.489311014310385"><ele>78.0</ele><time>2026-04-25T14:39:34Z</time></trkpt><trkpt lat="40.39915820666148" lon="9.489147234910636"><ele>78.0</ele><time>2026-04-25T14:39:35Z</time></trkpt><trkpt lat="40.399238050622586" lon="9.48901179675231"><ele>78.0</ele><time>2026-04-25T14:39:36Z</time></trkpt><trkpt lat="40.39932302946038" lon="9.48889094942677"><ele>78.0</ele><time>2026-04-25T14:39:37Z</time></trkpt><trkpt lat="40.399405132642435" lon="9.488783687328299"><ele>78.0</ele><time>2026-04-25T14:39:38Z</time></trkpt><trkpt lat="40.39948785522838" lon="9.488693339091553"><ele>77.6</ele><time>2026-04-25T14:39:39Z</time></trkpt><trkpt lat="40.39957422091127" lon="9.488608050407429"><ele>77.19999999999999</ele><time>2026-04-25T14:39:40Z</time></trkpt><trkpt lat="40.3996611284137" lon="9.488535607760493"><ele>76.8</ele><time>2026-04-25T14:39:41Z</time></trkpt><trkpt lat="40.39974475685689" lon="9.488459331863407"><ele>76.39999999999999</ele><time>2026-04-25T14:39:42Z</time></trkpt><trkpt lat="40.399835170635555" lon="9.48839802043491"><ele>76.0</ele><time>2026-04-25T14:39:43Z</time></trkpt><trkpt lat="40.399937216827986" lon="9.488352128967087"><ele>77.25</ele><time>2026-04-25T14:39:44Z</time></trkpt><trkpt lat="40.400056158201494" lon="9.488321913595247"><ele>78.5</ele><time>2026-04-25T14:39:45Z</time></trkpt><trkpt lat="40.400183749776666" lon="9.488308567870726"><ele>79.75</ele><time>2026-04-25T14:39:46Z</time></trkpt><trkpt lat="40.40031700298754" lon="9.488323423345944"><ele>81.0</ele><time>2026-04-25T14:39:47Z</time></trkpt><trkpt lat="40.40044230031607" lon="9.488357964625925"><ele>81.25</ele><time>2026-04-25T14:39:48Z</time></trkpt><trkpt lat="40.40056242583778" lon="9.488418456946683"><ele>81.5</ele><time>2026-04-25T14:39:49Z</time></trkpt><trkpt lat="40.40067082631515" lon="9.488497221366973"><ele>81.75</ele><time>2026-04-25T14:39:50Z</time></trkpt><trkpt lat="40.40076295176364" lon="9.488591861542549"><ele>82.0</ele><time>2026-04-25T14:39:51Z</time></trkpt><trkpt lat="40.40084930283736" lon="9.48869946943325"><ele>81.75</ele><time>2026-04-25T14:39:52Z</time></trkpt><trkpt lat="40.400924245188946" lon="9.488826819748866"><ele>81.5</ele><time>2026-04-25T14:39:53Z</time></trkpt><trkpt lat="40.40100352631764" lon="9.488971820991514"><ele>81.25</ele><time>2026-04-25T14:39:54Z</time></trkpt><trkpt lat="40.40110268343909" lon="9.489137044495447"><ele>81.0</ele><time>2026-04-25T14:39:55Z</time></trkpt><trkpt lat="40.40122439794359" lon="9.489329284311939"><ele>81.0</ele><time>2026-04-25T14:39:56Z</time></trkpt><trkpt lat="40.401351865537016" lon="9.489538024266361"><ele>81.0</ele><time>2026-04-25T14:39:57Z</time></trkpt><trkpt lat="40.40147905837479" lon="9.489760377355285"><ele>81.0</ele><time>2026-04-25T14:39:58Z</time></trkpt><trkpt lat="40.40160008077295" lon="9.489978367823586"><ele>81.0</ele><time>2026-04-25T14:39:59Z</time></trkpt><trkpt lat="40.401718919393154" lon="9.4901915745332"><ele>81.0</ele><time>2026-04-25T14:40:00Z</time></trkpt><trkpt lat="40.401836001338786" lon="9.490399855915669"><ele>81.0</ele><time>2026-04-25T14:40:01Z</time></trkpt><trkpt lat="40.40195072823273" lon="9.490604065471949"><ele>81.0</ele><time>2026-04-25T14:40:02Z</time></trkpt><trkpt lat="40.40206658034634" lon="9.490811760048803"><ele>81.0</ele><time>2026-04-25T14:40:03Z</time></trkpt><trkpt lat="40.40218521232051" lon="9.491024932484263"><ele>81.0</ele><time>2026-04-25T14:40:04Z</time></trkpt><trkpt lat="40.40230579212038" lon="9.491239233642176"><ele>81.33333333333333</ele><time>2026-04-25T14:40:05Z</time></trkpt><trkpt lat="40.40242943138568" lon="9.491455803389497"><ele>81.66666666666666</ele><time>2026-04-25T14:40:06Z</time></trkpt><trkpt lat="40.40255346931914" lon="9.491674721711428"><ele>82.0</ele><time>2026-04-25T14:40:07Z</time></trkpt><trkpt lat="40.40267715626092" lon="9.491894630401168"><ele>82.0</ele><time>2026-04-25T14:40:08Z</time></trkpt><trkpt lat="40.40280355852648" lon="9.492116780231633"><ele>82.0</ele><time>2026-04-25T14:40:09Z</time></trkpt><trkpt lat="40.402927267406554" lon="9.492338330971767"><ele>82.0</ele><time>2026-04-25T14:40:10Z</time></trkpt><trkpt lat="40.403051560159405" lon="9.492561170055254"><ele>83.0</ele><time>2026-04-25T14:40:11Z</time></trkpt><trkpt lat="40.40317586663315" lon="9.492785144007692"><ele>84.0</ele><time>2026-04-25T14:40:12Z</time></trkpt><trkpt lat="40.40330210457454" lon="9.493010243966195"><ele>85.0</ele><time>2026-04-25T14:40:13Z</time></trkpt><trkpt lat="40.40342877940741" lon="9.493236400427255"><ele>85.0</ele><time>2026-04-25T14:40:14Z</time></trkpt><trkpt lat="40.40355710334799" lon="9.49346098564988"><ele>85.0</ele><time>2026-04-25T14:40:15Z</time></trkpt><trkpt lat="40.403683819619815" lon="9.493686759112405"><ele>85.0</ele><time>2026-04-25T14:40:16Z</time></trkpt><trkpt lat="40.40381186285194" lon="9.493913436877493"><ele>86.0</ele><time>2026-04-25T14:40:17Z</time></trkpt><trkpt lat="40.40393936508643" lon="9.494141362614702"><ele>87.0</ele><time>2026-04-25T14:40:18Z</time></trkpt><trkpt lat="40.40406843001142" lon="9.4943704650968"><ele>88.0</ele><time>2026-04-25T14:40:19Z</time></trkpt><trkpt lat="40.40419952058524" lon="9.494602183775134"><ele>88.0</ele><time>2026-04-25T14:40:20Z</time></trkpt><trkpt lat="40.40433262022367" lon="9.49483588988123"><ele>88.0</ele><time>2026-04-25T14:40:21Z</time></trkpt><trkpt lat="40.404466598244596" lon="9.495073386447809"><ele>88.0</ele><time>2026-04-25T14:40:22Z</time></trkpt><trkpt lat="40.404601864135046" lon="9.495313479833484"><ele>88.66666666666666</ele><time>2026-04-25T14:40:23Z</time></trkpt><trkpt lat="40.40473485645602" lon="9.49555106110209"><ele>89.33333333333333</ele><time>2026-04-25T14:40:24Z</time></trkpt><trkpt lat="40.40486043476795" lon="9.495773199039133"><ele>90.0</ele><time>2026-04-25T14:40:25Z</time></trkpt><trkpt lat="40.404978288577986" lon="9.495987371673586"><ele>90.0</ele><time>2026-04-25T14:40:26Z</time></trkpt><trkpt lat="40.4050965731951" lon="9.496202782806426"><ele>90.0</ele><time>2026-04-25T14:40:27Z</time></trkpt><trkpt lat="40.40521466603214" lon="9.49641309708488"><ele>90.0</ele><time>2026-04-25T14:40:28Z</time></trkpt><trkpt lat="40.40533149668123" lon="9.496622163333774"><ele>89.33333333333333</ele><time>2026-04-25T14:40:29Z</time></trkpt><trkpt lat="40.405450837026486" lon="9.496830762711168"><ele>88.66666666666666</ele><time>2026-04-25T14:40:30Z</time></trkpt><trkpt lat="40.40556846053149" lon="9.49703546331769"><ele>88.0</ele><time>2026-04-25T14:40:31Z</time></trkpt><trkpt lat="40.40569018194566" lon="9.497234836678192"><ele>90.0</ele><time>2026-04-25T14:40:32Z</time></trkpt><trkpt lat="40.405810399143625" lon="9.49742084593431"><ele>92.0</ele><time>2026-04-25T14:40:33Z</time></trkpt><trkpt lat="40.40592681022956" lon="9.497593428142755"><ele>94.0</ele><time>2026-04-25T14:40:34Z</time></trkpt><trkpt lat="40.406039758367164" lon="9.497751952110654"><ele>94.0</ele><time>2026-04-25T14:40:35Z</time></trkpt><trkpt lat="40.406149205617545" lon="9.49789947135712"><ele>94.0</ele><time>2026-04-25T14:40:36Z</time></trkpt><trkpt lat="40.4062531723209" lon="9.498036754655013"><ele>94.0</ele><time>2026-04-25T14:40:37Z</time></trkpt><trkpt lat="40.40635541653908" lon="9.498163275379671"><ele>94.0</ele><time>2026-04-25T14:40:38Z</time></trkpt><trkpt lat="40.406440580483796" lon="9.498263758217846"><ele>94.33333333333333</ele><time>2026-04-25T14:40:39Z</time></trkpt><trkpt lat="40.40651117314094" lon="9.498350570712"><ele>94.66666666666666</ele><time>2026-04-25T14:40:40Z</time></trkpt><trkpt lat="40.40656298170678" lon="9.498415329134852"><ele>95.0</ele><time>2026-04-25T14:40:41Z</time></trkpt><trkpt lat="40.40663596756913" lon="9.498513190118489"><ele>95.33333333333333</ele><time>2026-04-25T14:40:43Z</time></trkpt><trkpt lat="40.40671894439226" lon="9.498587224110224"><ele>95.66666666666667</ele><time>2026-04-25T14:41:06Z</time></trkpt><trkpt lat="40.4067799134269" lon="9.498638417053563"><ele>96.0</ele><time>2026-04-25T14:41:07Z</time></trkpt><trkpt lat="40.40684122227366" lon="9.498699355799108"><ele>95.33333333333333</ele><time>2026-04-25T14:41:08Z</time></trkpt><trkpt lat="40.40690872919512" lon="9.498766353397242"><ele>94.66666666666667</ele><time>2026-04-25T14:41:09Z</time></trkpt><trkpt lat="40.40697207112805" lon="9.498830501537645"><ele>94.0</ele><time>2026-04-25T14:41:10Z</time></trkpt><trkpt lat="40.40702930221945" lon="9.498887069269104"><ele>93.33333333333334</ele><time>2026-04-25T14:41:11Z</time></trkpt><trkpt lat="40.407084454916046" lon="9.498942633061032"><ele>92.66666666666667</ele><time>2026-04-25T14:41:12Z</time></trkpt><trkpt lat="40.407143146046" lon="9.499000877971595"><ele>92.0</ele><time>2026-04-25T14:41:13Z</time></trkpt><trkpt lat="40.40720794393214" lon="9.49906207191507"><ele>92.0</ele><time>2026-04-25T14:41:14Z</time></trkpt><trkpt lat="40.40728069025382" lon="9.499128924369156"><ele>92.0</ele><time>2026-04-25T14:41:15Z</time></trkpt><trkpt lat="40.40735508691863" lon="9.499200009925358"><ele>92.0</ele><time>2026-04-25T14:41:16Z</time></trkpt><trkpt lat="40.407422192398464" lon="9.499265092748708"><ele>92.0</ele><time>2026-04-25T14:41:17Z</time></trkpt><trkpt lat="40.407493382031035" lon="9.499333684162949"><ele>92.0</ele><time>2026-04-25T14:41:18Z</time></trkpt><trkpt lat="40.40756935157577" lon="9.499405170655786"><ele>92.0</ele><time>2026-04-25T14:41:19Z</time></trkpt><trkpt lat="40.40765888626909" lon="9.499484399558082"><ele>92.0</ele><time>2026-04-25T14:41:20Z</time></trkpt><trkpt lat="40.407761708165765" lon="9.499577500949535"><ele>92.0</ele><time>2026-04-25T14:41:21Z</time></trkpt><trkpt lat="40.407873801669524" lon="9.499682045353891"><ele>92.0</ele><time>2026-04-25T14:41:22Z</time></trkpt><trkpt lat="40.40799390428671" lon="9.499795207633714"><ele>92.0</ele><time>2026-04-25T14:41:23Z</time></trkpt><trkpt lat="40.4081222173013" lon="9.499916712944563"><ele>93.0</ele><time>2026-04-25T14:41:24Z</time></trkpt><trkpt lat="40.408255334763716" lon="9.500044913218073"><ele>94.0</ele><time>2026-04-25T14:41:25Z</time></trkpt><trkpt lat="40.40839355767326" lon="9.500174451458632"><ele>95.0</ele><time>2026-04-25T14:41:26Z</time></trkpt><trkpt lat="40.40853182378336" lon="9.500306879628683"><ele>95.33333333333334</ele><time>2026-04-25T14:41:27Z</time></trkpt><trkpt lat="40.408673559896954" lon="9.50044348144894"><ele>95.66666666666667</ele><time>2026-04-25T14:41:28Z</time></trkpt><trkpt lat="40.40881244875585" lon="9.500585190228202"><ele>96.0</ele><time>2026-04-25T14:41:29Z</time></trkpt><trkpt lat="40.4089528675377" lon="9.50073270200496"><ele>96.0</ele><time>2026-04-25T14:41:30Z</time></trkpt><trkpt lat="40.409090492702745" lon="9.50088807255338"><ele>96.0</ele><time>2026-04-25T14:41:31Z</time></trkpt><trkpt lat="40.40922846463664" lon="9.501049295260218"><ele>96.0</ele><time>2026-04-25T14:41:32Z</time></trkpt><trkpt lat="40.4093667938218" lon="9.501212777600221"><ele>94.0</ele><time>2026-04-25T14:41:33Z</time></trkpt><trkpt lat="40.40950117158" lon="9.50138359161764"><ele>92.0</ele><time>2026-04-25T14:41:34Z</time></trkpt><trkpt lat="40.409630977879814" lon="9.501562459725125"><ele>90.0</ele><time>2026-04-25T14:41:35Z</time></trkpt><trkpt lat="40.409759370628436" lon="9.501751752891991"><ele>92.0</ele><time>2026-04-25T14:41:36Z</time></trkpt><trkpt lat="40.40988958911586" lon="9.501946680087471"><ele>94.0</ele><time>2026-04-25T14:41:37Z</time></trkpt><trkpt lat="40.41002156524455" lon="9.502144317987064"><ele>96.0</ele><time>2026-04-25T14:41:38Z</time></trkpt><trkpt lat="40.41015915781462" lon="9.502354358763197"><ele>96.0</ele><time>2026-04-25T14:41:39Z</time></trkpt><trkpt lat="40.41030273166858" lon="9.502575656696234"><ele>96.0</ele><time>2026-04-25T14:41:40Z</time></trkpt><trkpt lat="40.41045404959231" lon="9.502802243704135"><ele>98.0</ele><time>2026-04-25T14:41:41Z</time></trkpt><trkpt lat="40.410607071320044" lon="9.503029622332804"><ele>100.0</ele><time>2026-04-25T14:41:42Z</time></trkpt><trkpt lat="40.410756047275584" lon="9.503254153438279"><ele>100.0</ele><time>2026-04-25T14:41:43Z</time></trkpt><trkpt lat="40.41090314870192" lon="9.503478523231806"><ele>100.0</ele><time>2026-04-25T14:41:44Z</time></trkpt><trkpt lat="40.411051672386726" lon="9.50370563901994"><ele>99.0</ele><time>2026-04-25T14:41:45Z</time></trkpt><trkpt lat="40.411202765065774" lon="9.503937994901387"><ele>98.0</ele><time>2026-04-25T14:41:46Z</time></trkpt><trkpt lat="40.41135620210115" lon="9.504173198536348"><ele>101.5</ele><time>2026-04-25T14:41:47Z</time></trkpt><trkpt lat="40.41150754066725" lon="9.504405104820764"><ele>105.0</ele><time>2026-04-25T14:41:48Z</time></trkpt><trkpt lat="40.41165905001519" lon="9.504638430534179"><ele>105.0</ele><time>2026-04-25T14:41:49Z</time></trkpt><trkpt lat="40.411814979402926" lon="9.504874709593764"><ele>105.0</ele><time>2026-04-25T14:41:50Z</time></trkpt><trkpt lat="40.41197666236547" lon="9.50511900321635"><ele>105.0</ele><time>2026-04-25T14:41:51Z</time></trkpt><trkpt lat="40.412143781106565" lon="9.505373602650481"><ele>105.0</ele><time>2026-04-25T14:41:52Z</time></trkpt><trkpt lat="40.412312569858" lon="9.505631942613402"><ele>103.5</ele><time>2026-04-25T14:41:53Z</time></trkpt><trkpt lat="40.41247784012475" lon="9.505882976247701"><ele>102.0</ele><time>2026-04-25T14:41:54Z</time></trkpt><trkpt lat="40.41263783110239" lon="9.506124784794608"><ele>101.0</ele><time>2026-04-25T14:41:55Z</time></trkpt><trkpt lat="40.41279779561744" lon="9.506370439835534"><ele>100.0</ele><time>2026-04-25T14:41:56Z</time></trkpt><trkpt lat="40.412963146621266" lon="9.506623379075332"><ele>103.5</ele><time>2026-04-25T14:41:57Z</time></trkpt><trkpt lat="40.41313289757384" lon="9.50688547207982"><ele>107.0</ele><time>2026-04-25T14:41:58Z</time></trkpt><trkpt lat="40.41330419211055" lon="9.50714750693539"><ele>107.0</ele><time>2026-04-25T14:41:59Z</time></trkpt><trkpt lat="40.413475421939516" lon="9.507410018229807"><ele>107.0</ele><time>2026-04-25T14:42:00Z</time></trkpt><trkpt lat="40.41365005209331" lon="9.50767527352056"><ele>114.0</ele><time>2026-04-25T14:42:01Z</time></trkpt><trkpt lat="40.41382473656604" lon="9.507943351584467"><ele>121.0</ele><time>2026-04-25T14:42:02Z</time></trkpt><trkpt lat="40.41399989093106" lon="9.508212532662169"><ele>121.0</ele><time>2026-04-25T14:42:03Z</time></trkpt><trkpt lat="40.414173437612895" lon="9.508478517890458"><ele>121.0</ele><time>2026-04-25T14:42:04Z</time></trkpt><trkpt lat="40.41435076619579" lon="9.508747462633178"><ele>122.0</ele><time>2026-04-25T14:42:05Z</time></trkpt><trkpt lat="40.4145250339911" lon="9.509011638457133"><ele>123.0</ele><time>2026-04-25T14:42:06Z</time></trkpt><trkpt lat="40.414698264056135" lon="9.509271873424748"><ele>123.0</ele><time>2026-04-25T14:42:07Z</time></trkpt><trkpt lat="40.414874035048" lon="9.509539071443886"><ele>123.0</ele><time>2026-04-25T14:42:08Z</time></trkpt><trkpt lat="40.415044708664524" lon="9.50979768208947"><ele>120.0</ele><time>2026-04-25T14:42:09Z</time></trkpt><trkpt lat="40.4152100990276" lon="9.510059169945928"><ele>117.0</ele><time>2026-04-25T14:42:10Z</time></trkpt><trkpt lat="40.41537517819404" lon="9.510315460520468"><ele>119.0</ele><time>2026-04-25T14:42:11Z</time></trkpt><trkpt lat="40.41553957547136" lon="9.510569027238093"><ele>121.0</ele><time>2026-04-25T14:42:12Z</time></trkpt><trkpt lat="40.4157012052983" lon="9.510819081901083"><ele>121.0</ele><time>2026-04-25T14:42:13Z</time></trkpt><trkpt lat="40.415861372144484" lon="9.511069004186671"><ele>121.0</ele><time>2026-04-25T14:42:14Z</time></trkpt><trkpt lat="40.416026657939504" lon="9.511319432757707"><ele>120.5</ele><time>2026-04-25T14:42:15Z</time></trkpt><trkpt lat="40.4161957576737" lon="9.511563032608453"><ele>120.0</ele><time>2026-04-25T14:42:16Z</time></trkpt><trkpt lat="40.41636578558278" lon="9.511785496998213"><ele>125.0</ele><time>2026-04-25T14:42:17Z</time></trkpt><trkpt lat="40.416540764397894" lon="9.511993979861542"><ele>130.0</ele><time>2026-04-25T14:42:18Z</time></trkpt><trkpt lat="40.41672749054533" lon="9.512195396058123"><ele>130.0</ele><time>2026-04-25T14:42:19Z</time></trkpt><trkpt lat="40.41691995559303" lon="9.512387821533203"><ele>130.0</ele><time>2026-04-25T14:42:20Z</time></trkpt><trkpt lat="40.417119258809656" lon="9.512562881899688"><ele>132.5</ele><time>2026-04-25T14:42:21Z</time></trkpt><trkpt lat="40.41732712141075" lon="9.512719007334061"><ele>135.0</ele><time>2026-04-25T14:42:22Z</time></trkpt><trkpt lat="40.41754282763229" lon="9.51286462713973"><ele>135.5</ele><time>2026-04-25T14:42:23Z</time></trkpt><trkpt lat="40.41776596900153" lon="9.51300233825541"><ele>136.0</ele><time>2026-04-25T14:42:24Z</time></trkpt><trkpt lat="40.41800110485433" lon="9.513120875860068"><ele>139.5</ele><time>2026-04-25T14:42:25Z</time></trkpt><trkpt lat="40.4182398133132" lon="9.513224269856833"><ele>143.0</ele><time>2026-04-25T14:42:26Z</time></trkpt><trkpt lat="40.41848652918124" lon="9.513305569259048"><ele>143.0</ele><time>2026-04-25T14:42:27Z</time></trkpt><trkpt lat="40.4187393811531" lon="9.51337082536698"><ele>143.0</ele><time>2026-04-25T14:42:28Z</time></trkpt><trkpt lat="40.418998251830445" lon="9.513420487267481"><ele>147.0</ele><time>2026-04-25T14:42:29Z</time></trkpt><trkpt lat="40.419263005341776" lon="9.513459380637403"><ele>151.0</ele><time>2026-04-25T14:42:30Z</time></trkpt><trkpt lat="40.41953145768127" lon="9.513488061339828"><ele>154.5</ele><time>2026-04-25T14:42:31Z</time></trkpt><trkpt lat="40.4198009378328" lon="9.513512407173206"><ele>158.0</ele><time>2026-04-25T14:42:32Z</time></trkpt><trkpt lat="40.42007165578592" lon="9.513539638811283"><ele>158.0</ele><time>2026-04-25T14:42:33Z</time></trkpt><trkpt lat="40.420342525872904" lon="9.51357167191322"><ele>158.0</ele><time>2026-04-25T14:42:34Z</time></trkpt><trkpt lat="40.42060316792555" lon="9.513603652445598"><ele>160.0</ele><time>2026-04-25T14:42:35Z</time></trkpt><trkpt lat="40.4208457313811" lon="9.513640739133635"><ele>162.0</ele><time>2026-04-25T14:42:36Z</time></trkpt><trkpt lat="40.421083574267726" lon="9.513686437298709"><ele>160.0</ele><time>2026-04-25T14:42:37Z</time></trkpt><trkpt lat="40.42131726469719" lon="9.513753541849143"><ele>158.0</ele><time>2026-04-25T14:42:38Z</time></trkpt><trkpt lat="40.42155290060344" lon="9.513843605385766"><ele>158.0</ele><time>2026-04-25T14:42:39Z</time></trkpt><trkpt lat="40.42178330795772" lon="9.51394553450714"><ele>158.0</ele><time>2026-04-25T14:42:40Z</time></trkpt><trkpt lat="40.42200254396714" lon="9.514062218489007"><ele>165.5</ele><time>2026-04-25T14:42:41Z</time></trkpt><trkpt lat="40.422221668442326" lon="9.514198352275166"><ele>173.0</ele><time>2026-04-25T14:42:42Z</time></trkpt><trkpt lat="40.42244059916359" lon="9.514356138434794"><ele>173.0</ele><time>2026-04-25T14:42:43Z</time></trkpt><trkpt lat="40.42264957376314" lon="9.51452418957466"><ele>173.0</ele><time>2026-04-25T14:42:44Z</time></trkpt><trkpt lat="40.42284578731382" lon="9.514704938766522"><ele>176.0</ele><time>2026-04-25T14:42:45Z</time></trkpt><trkpt lat="40.423034715303224" lon="9.514896554003615"><ele>179.0</ele><time>2026-04-25T14:42:46Z</time></trkpt><trkpt lat="40.42321302541112" lon="9.515096122413446"><ele>179.0</ele><time>2026-04-25T14:42:47Z</time></trkpt><trkpt lat="40.423378317915386" lon="9.51530238731213"><ele>179.0</ele><time>2026-04-25T14:42:48Z</time></trkpt><trkpt lat="40.42353808847049" lon="9.515519748366783"><ele>176.33333333333331</ele><time>2026-04-25T14:42:49Z</time></trkpt><trkpt lat="40.4236905513678" lon="9.515747935595178"><ele>173.66666666666666</ele><time>2026-04-25T14:42:50Z</time></trkpt><trkpt lat="40.42382193633589" lon="9.515974843539885"><ele>171.0</ele><time>2026-04-25T14:42:51Z</time></trkpt><trkpt lat="40.423939133683106" lon="9.516206511417758"><ele>176.33333333333334</ele><time>2026-04-25T14:42:52Z</time></trkpt><trkpt lat="40.42405171321281" lon="9.516441863874542"><ele>181.66666666666669</ele><time>2026-04-25T14:42:53Z</time></trkpt><trkpt lat="40.42415582093428" lon="9.516684918344568"><ele>187.0</ele><time>2026-04-25T14:42:54Z</time></trkpt><trkpt lat="40.42424804012185" lon="9.516938652183882"><ele>185.66666666666669</ele><time>2026-04-25T14:42:55Z</time></trkpt><trkpt lat="40.4243333528129" lon="9.517198718291839"><ele>184.33333333333334</ele><time>2026-04-25T14:42:56Z</time></trkpt><trkpt lat="40.424411497219054" lon="9.517467554316537"><ele>183.0</ele><time>2026-04-25T14:42:57Z</time></trkpt><trkpt lat="40.42448071908382" lon="9.517735803184529"><ele>182.33333333333334</ele><time>2026-04-25T14:42:58Z</time></trkpt><trkpt lat="40.42453952645531" lon="9.518009913360336"><ele>181.66666666666669</ele><time>2026-04-25T14:42:59Z</time></trkpt><trkpt lat="40.42458808183324" lon="9.518290449063235"><ele>181.0</ele><time>2026-04-25T14:43:00Z</time></trkpt><trkpt lat="40.42462658016122" lon="9.5185810345509"><ele>191.5</ele><time>2026-04-25T14:43:01Z</time></trkpt><trkpt lat="40.42465491715639" lon="9.518872656178578"><ele>202.0</ele><time>2026-04-25T14:43:02Z</time></trkpt><trkpt lat="40.424677229814925" lon="9.51917266100506"><ele>202.0</ele><time>2026-04-25T14:43:03Z</time></trkpt><trkpt lat="40.42469789607614" lon="9.51947462005149"><ele>202.0</ele><time>2026-04-25T14:43:04Z</time></trkpt><trkpt lat="40.42472004934884" lon="9.519777265234449"><ele>203.5</ele><time>2026-04-25T14:43:05Z</time></trkpt><trkpt lat="40.424747662711916" lon="9.520082824882802"><ele>205.0</ele><time>2026-04-25T14:43:06Z</time></trkpt><trkpt lat="40.42477582043927" lon="9.520398313176864"><ele>204.0</ele><time>2026-04-25T14:43:07Z</time></trkpt><trkpt lat="40.424802220192944" lon="9.520716378156104"><ele>203.0</ele><time>2026-04-25T14:43:08Z</time></trkpt><trkpt lat="40.42483032198447" lon="9.521034766258394"><ele>203.5</ele><time>2026-04-25T14:43:09Z</time></trkpt><trkpt lat="40.42485594487533" lon="9.521345070710634"><ele>204.0</ele><time>2026-04-25T14:43:10Z</time></trkpt><trkpt lat="40.42488178667876" lon="9.521653789612255"><ele>204.0</ele><time>2026-04-25T14:43:11Z</time></trkpt><trkpt lat="40.42490427715606" lon="9.521947329329391"><ele>204.0</ele><time>2026-04-25T14:43:12Z</time></trkpt><trkpt lat="40.42493026532764" lon="9.522227794098997"><ele>204.0</ele><time>2026-04-25T14:43:13Z</time></trkpt><trkpt lat="40.42495440125313" lon="9.522502254148888"><ele>203.66666666666669</ele><time>2026-04-25T14:43:14Z</time></trkpt><trkpt lat="40.42498332203648" lon="9.522774082085588"><ele>203.33333333333334</ele><time>2026-04-25T14:43:15Z</time></trkpt><trkpt lat="40.425017522826856" lon="9.523057829810943"><ele>203.0</ele><time>2026-04-25T14:43:16Z</time></trkpt><trkpt lat="40.42505968783153" lon="9.523350560704607"><ele>203.0</ele><time>2026-04-25T14:43:17Z</time></trkpt><trkpt lat="40.42511180192871" lon="9.523651404768637"><ele>203.0</ele><time>2026-04-25T14:43:18Z</time></trkpt><trkpt lat="40.42517527494077" lon="9.523952186513077"><ele>203.5</ele><time>2026-04-25T14:43:19Z</time></trkpt><trkpt lat="40.425243408783906" lon="9.524252527664771"><ele>204.0</ele><time>2026-04-25T14:43:20Z</time></trkpt><trkpt lat="40.42531648676272" lon="9.524546050137623"><ele>205.66666666666669</ele><time>2026-04-25T14:43:21Z</time></trkpt><trkpt lat="40.42539814795736" lon="9.524834011996356"><ele>207.33333333333334</ele><time>2026-04-25T14:43:22Z</time></trkpt><trkpt lat="40.42547841231586" lon="9.525094804103325"><ele>209.0</ele><time>2026-04-25T14:43:23Z</time></trkpt><trkpt lat="40.4255654319642" lon="9.525345788761163"><ele>210.66666666666669</ele><time>2026-04-25T14:43:24Z</time></trkpt><trkpt lat="40.42565961494537" lon="9.525599161929263"><ele>212.33333333333331</ele><time>2026-04-25T14:43:25Z</time></trkpt><trkpt lat="40.425755515109195" lon="9.525850220368111"><ele>214.0</ele><time>2026-04-25T14:43:26Z</time></trkpt><trkpt lat="40.425849816053514" lon="9.526098977787028"><ele>215.0</ele><time>2026-04-25T14:43:27Z</time></trkpt><trkpt lat="40.42594842854495" lon="9.526353669618489"><ele>216.0</ele><time>2026-04-25T14:43:28Z</time></trkpt><trkpt lat="40.426048284926864" lon="9.526612202082731"><ele>217.0</ele><time>2026-04-25T14:43:29Z</time></trkpt><trkpt lat="40.42614838938198" lon="9.526869975561672"><ele>218.33333333333331</ele><time>2026-04-25T14:43:30Z</time></trkpt><trkpt lat="40.42624693167067" lon="9.527126790022091"><ele>219.66666666666669</ele><time>2026-04-25T14:43:31Z</time></trkpt><trkpt lat="40.42634781804129" lon="9.527384424773022"><ele>221.0</ele><time>2026-04-25T14:43:32Z</time></trkpt><trkpt lat="40.42644885936952" lon="9.527640659251983"><ele>219.33333333333334</ele><time>2026-04-25T14:43:33Z</time></trkpt><trkpt lat="40.4265498510311" lon="9.527900373704831"><ele>217.66666666666669</ele><time>2026-04-25T14:43:34Z</time></trkpt><trkpt lat="40.42665161912705" lon="9.5281591534829"><ele>216.0</ele><time>2026-04-25T14:43:35Z</time></trkpt><trkpt lat="40.426751344004465" lon="9.528419425082221"><ele>216.0</ele><time>2026-04-25T14:43:36Z</time></trkpt><trkpt lat="40.42685482476992" lon="9.528683532526948"><ele>216.0</ele><time>2026-04-25T14:43:37Z</time></trkpt><trkpt lat="40.426960148079104" lon="9.528948081910896"><ele>214.0</ele><time>2026-04-25T14:43:38Z</time></trkpt><trkpt lat="40.42706572629755" lon="9.52921461790121"><ele>212.0</ele><time>2026-04-25T14:43:39Z</time></trkpt><trkpt lat="40.427170771111406" lon="9.529482721273457"><ele>210.5</ele><time>2026-04-25T14:43:40Z</time></trkpt><trkpt lat="40.42727692827317" lon="9.529754193249628"><ele>209.0</ele><time>2026-04-25T14:43:41Z</time></trkpt><trkpt lat="40.42738213627345" lon="9.530027526991084"><ele>209.0</ele><time>2026-04-25T14:43:42Z</time></trkpt><trkpt lat="40.42748824973525" lon="9.530299785734922"><ele>209.0</ele><time>2026-04-25T14:43:43Z</time></trkpt><trkpt lat="40.427594421262775" lon="9.530576760122129"><ele>202.5</ele><time>2026-04-25T14:43:44Z</time></trkpt><trkpt lat="40.427701386668524" lon="9.530853663543791"><ele>196.0</ele><time>2026-04-25T14:43:45Z</time></trkpt><trkpt lat="40.42780767640152" lon="9.53113052848864"><ele>198.0</ele><time>2026-04-25T14:43:46Z</time></trkpt><trkpt lat="40.42791635918735" lon="9.531410832457366"><ele>200.0</ele><time>2026-04-25T14:43:47Z</time></trkpt><trkpt lat="40.428025082901094" lon="9.53169041274542"><ele>200.0</ele><time>2026-04-25T14:43:48Z</time></trkpt><trkpt lat="40.42813330063084" lon="9.531970049130445"><ele>200.0</ele><time>2026-04-25T14:43:49Z</time></trkpt><trkpt lat="40.42824319058665" lon="9.532247576702595"><ele>195.0</ele><time>2026-04-25T14:43:50Z</time></trkpt><trkpt lat="40.42834848729159" lon="9.532523265161808"><ele>190.0</ele><time>2026-04-25T14:43:51Z</time></trkpt><trkpt lat="40.428451052302215" lon="9.532792270954161"><ele>186.0</ele><time>2026-04-25T14:43:52Z</time></trkpt><trkpt lat="40.42855530894497" lon="9.533062537200628"><ele>182.0</ele><time>2026-04-25T14:43:53Z</time></trkpt><trkpt lat="40.42866174343847" lon="9.533335381873476"><ele>182.0</ele><time>2026-04-25T14:43:54Z</time></trkpt><trkpt lat="40.428771185129186" lon="9.533609830999724"><ele>182.0</ele><time>2026-04-25T14:43:55Z</time></trkpt><trkpt lat="40.428886924737206" lon="9.53388057463433"><ele>180.5</ele><time>2026-04-25T14:43:56Z</time></trkpt><trkpt lat="40.42900906606607" lon="9.534146366363512"><ele>179.0</ele><time>2026-04-25T14:43:57Z</time></trkpt><trkpt lat="40.42913570106474" lon="9.534400692987637"><ele>178.5</ele><time>2026-04-25T14:43:58Z</time></trkpt><trkpt lat="40.4292679159264" lon="9.534641961772929"><ele>178.0</ele><time>2026-04-25T14:43:59Z</time></trkpt><trkpt lat="40.42940640080298" lon="9.534883770019286"><ele>178.0</ele><time>2026-04-25T14:44:00Z</time></trkpt><trkpt lat="40.429548237323694" lon="9.535125428766039"><ele>178.0</ele><time>2026-04-25T14:44:01Z</time></trkpt><trkpt lat="40.429697911402535" lon="9.535356658953402"><ele>174.5</ele><time>2026-04-25T14:44:02Z</time></trkpt><trkpt lat="40.42985613814506" lon="9.535580050340824"><ele>171.0</ele><time>2026-04-25T14:44:03Z</time></trkpt><trkpt lat="40.43002163810933" lon="9.535803985823838"><ele>171.0</ele><time>2026-04-25T14:44:04Z</time></trkpt><trkpt lat="40.430189993793746" lon="9.536022015802091"><ele>171.0</ele><time>2026-04-25T14:44:05Z</time></trkpt><trkpt lat="40.430365242253465" lon="9.536241046107268"><ele>169.0</ele><time>2026-04-25T14:44:06Z</time></trkpt><trkpt lat="40.43054033112523" lon="9.536457481510425"><ele>167.0</ele><time>2026-04-25T14:44:07Z</time></trkpt><trkpt lat="40.430712880417126" lon="9.536674460316748"><ele>167.0</ele><time>2026-04-25T14:44:08Z</time></trkpt><trkpt lat="40.43088681630769" lon="9.5368920406501"><ele>167.0</ele><time>2026-04-25T14:44:09Z</time></trkpt><trkpt lat="40.43106046399256" lon="9.537109141265354"><ele>165.0</ele><time>2026-04-25T14:44:10Z</time></trkpt><trkpt lat="40.431233841938706" lon="9.537324174619174"><ele>163.0</ele><time>2026-04-25T14:44:11Z</time></trkpt><trkpt lat="40.431406977447004" lon="9.53753901422732"><ele>163.0</ele><time>2026-04-25T14:44:12Z</time></trkpt><trkpt lat="40.431578877060566" lon="9.537755103459387"><ele>163.0</ele><time>2026-04-25T14:44:13Z</time></trkpt><trkpt lat="40.431749757955316" lon="9.537969353605346"><ele>160.5</ele><time>2026-04-25T14:44:14Z</time></trkpt><trkpt lat="40.43192160837676" lon="9.53818505564063"><ele>158.0</ele><time>2026-04-25T14:44:15Z</time></trkpt><trkpt lat="40.432097058682466" lon="9.538402230766215"><ele>159.0</ele><time>2026-04-25T14:44:16Z</time></trkpt><trkpt lat="40.43227089953428" lon="9.53861898001203"><ele>160.0</ele><time>2026-04-25T14:44:17Z</time></trkpt><trkpt lat="40.43244273545568" lon="9.5388315513031"><ele>158.0</ele><time>2026-04-25T14:44:18Z</time></trkpt><trkpt lat="40.432615286004015" lon="9.539046963574897"><ele>156.0</ele><time>2026-04-25T14:44:19Z</time></trkpt><trkpt lat="40.43278747462804" lon="9.539260835115314"><ele>156.0</ele><time>2026-04-25T14:44:20Z</time></trkpt><trkpt lat="40.432960078909545" lon="9.539473318188094"><ele>156.0</ele><time>2026-04-25T14:44:21Z</time></trkpt><trkpt lat="40.43313212194871" lon="9.539685902498166"><ele>156.0</ele><time>2026-04-25T14:44:22Z</time></trkpt><trkpt lat="40.43330265240509" lon="9.539900910919197"><ele>156.0</ele><time>2026-04-25T14:44:23Z</time></trkpt><trkpt lat="40.433473850016576" lon="9.540113840228328"><ele>156.0</ele><time>2026-04-25T14:44:24Z</time></trkpt><trkpt lat="40.43364437034362" lon="9.540326310398179"><ele>156.0</ele><time>2026-04-25T14:44:25Z</time></trkpt><trkpt lat="40.43381529451349" lon="9.540537020225976"><ele>156.5</ele><time>2026-04-25T14:44:26Z</time></trkpt><trkpt lat="40.43398503771387" lon="9.540747342264332"><ele>157.0</ele><time>2026-04-25T14:44:27Z</time></trkpt><trkpt lat="40.43415201397335" lon="9.540958354706516"><ele>157.0</ele><time>2026-04-25T14:44:28Z</time></trkpt><trkpt lat="40.434319398858506" lon="9.54116895695643"><ele>157.0</ele><time>2026-04-25T14:44:29Z</time></trkpt><trkpt lat="40.4344867271572" lon="9.541376847465214"><ele>157.0</ele><time>2026-04-25T14:44:30Z</time></trkpt><trkpt lat="40.43464337536017" lon="9.541572679017497"><ele>157.0</ele><time>2026-04-25T14:44:31Z</time></trkpt><trkpt lat="40.434796708525184" lon="9.54176340621801"><ele>157.0</ele><time>2026-04-25T14:44:32Z</time></trkpt><trkpt lat="40.43494810274601" lon="9.541952183361063"><ele>156.0</ele><time>2026-04-25T14:44:33Z</time></trkpt><trkpt lat="40.43509620351186" lon="9.542139709215478"><ele>155.0</ele><time>2026-04-25T14:44:34Z</time></trkpt><trkpt lat="40.43524064354817" lon="9.542319290134662"><ele>154.0</ele><time>2026-04-25T14:44:35Z</time></trkpt><trkpt lat="40.43538296799506" lon="9.54249252504835"><ele>154.66666666666669</ele><time>2026-04-25T14:44:36Z</time></trkpt><trkpt lat="40.43551753303557" lon="9.542661948344225"><ele>155.33333333333334</ele><time>2026-04-25T14:44:37Z</time></trkpt><trkpt lat="40.43564709056" lon="9.542828346582516"><ele>156.0</ele><time>2026-04-25T14:44:38Z</time></trkpt><trkpt lat="40.43575801313609" lon="9.542967701047212"><ele>156.0</ele><time>2026-04-25T14:44:39Z</time></trkpt><trkpt lat="40.435842016231746" lon="9.543080481182574"><ele>156.0</ele><time>2026-04-25T14:44:40Z</time></trkpt><trkpt lat="40.43592629248873" lon="9.543187752809583"><ele>156.0</ele><time>2026-04-25T14:44:41Z</time></trkpt><trkpt lat="40.43601176604945" lon="9.54329100399278"><ele>156.0</ele><time>2026-04-25T14:44:42Z</time></trkpt><trkpt lat="40.43609394901889" lon="9.543393437884255"><ele>156.0</ele><time>2026-04-25T14:44:43Z</time></trkpt><trkpt lat="40.436174860736465" lon="9.543492667456011"><ele>156.0</ele><time>2026-04-25T14:44:43.999Z</time></trkpt><trkpt lat="40.43624642550772" lon="9.54358330730129"><ele>156.0</ele><time>2026-04-25T14:44:44.999Z</time></trkpt><trkpt lat="40.43630954291704" lon="9.543662683068568"><ele>156.0</ele><time>2026-04-25T14:44:45.999Z</time></trkpt><trkpt lat="40.436362074841185" lon="9.543731471342706"><ele>156.0</ele><time>2026-04-25T14:44:46.999Z</time></trkpt><trkpt lat="40.43640785413181" lon="9.543794569586057"><ele>156.0</ele><time>2026-04-25T14:44:47.999Z</time></trkpt><trkpt lat="40.43646267242937" lon="9.543861333745195"><ele>155.4</ele><time>2026-04-25T14:44:49.999Z</time></trkpt><trkpt lat="40.43657358307782" lon="9.54395823557529"><ele>154.8</ele><time>2026-04-25T14:45:56Z</time></trkpt><trkpt lat="40.43662654183725" lon="9.544015966614873"><ele>154.20000000000002</ele><time>2026-04-25T14:45:57Z</time></trkpt><trkpt lat="40.43669080658667" lon="9.54408959484053"><ele>153.6</ele><time>2026-04-25T14:45:58Z</time></trkpt><trkpt lat="40.43676266447041" lon="9.544180291853637"><ele>153.0</ele><time>2026-04-25T14:45:59Z</time></trkpt><trkpt lat="40.436843283293335" lon="9.544283527300589"><ele>153.0</ele><time>2026-04-25T14:46:00Z</time></trkpt><trkpt lat="40.43693155301785" lon="9.544396399464242"><ele>153.0</ele><time>2026-04-25T14:46:01Z</time></trkpt><trkpt lat="40.43702617016042" lon="9.544516847757885"><ele>153.0</ele><time>2026-04-25T14:46:02Z</time></trkpt><trkpt lat="40.437127072810966" lon="9.54464431362931"><ele>153.0</ele><time>2026-04-25T14:46:03Z</time></trkpt><trkpt lat="40.437235793667284" lon="9.54478123399607"><ele>151.66666666666666</ele><time>2026-04-25T14:46:04Z</time></trkpt><trkpt lat="40.43735049313879" lon="9.544924485212553"><ele>150.33333333333331</ele><time>2026-04-25T14:46:05Z</time></trkpt><trkpt lat="40.43747814919636" lon="9.545082316400823"><ele>149.0</ele><time>2026-04-25T14:46:06Z</time></trkpt><trkpt lat="40.437620829228834" lon="9.545257081454153"><ele>148.66666666666666</ele><time>2026-04-25T14:46:07Z</time></trkpt><trkpt lat="40.43777767629342" lon="9.545445790534021"><ele>148.33333333333334</ele><time>2026-04-25T14:46:08Z</time></trkpt><trkpt lat="40.43794103327254" lon="9.545649555109609"><ele>148.0</ele><time>2026-04-25T14:46:09Z</time></trkpt><trkpt lat="40.43811004231474" lon="9.54585856801541"><ele>148.0</ele><time>2026-04-25T14:46:10Z</time></trkpt><trkpt lat="40.438275301751744" lon="9.546063942517085"><ele>148.0</ele><time>2026-04-25T14:46:11Z</time></trkpt><trkpt lat="40.43843745287629" lon="9.546267250678873"><ele>147.33333333333334</ele><time>2026-04-25T14:46:12Z</time></trkpt><trkpt lat="40.438593133926865" lon="9.546461995668897"><ele>146.66666666666666</ele><time>2026-04-25T14:46:13Z</time></trkpt><trkpt lat="40.43874454374212" lon="9.546655550094703"><ele>146.0</ele><time>2026-04-25T14:46:14Z</time></trkpt><trkpt lat="40.43889617193203" lon="9.546849835707684"><ele>146.0</ele><time>2026-04-25T14:46:15Z</time></trkpt><trkpt lat="40.43904651208428" lon="9.547041014902538"><ele>146.0</ele><time>2026-04-25T14:46:16Z</time></trkpt><trkpt lat="40.43919948238627" lon="9.547232005622158"><ele>146.0</ele><time>2026-04-25T14:46:17Z</time></trkpt><trkpt lat="40.43935842345701" lon="9.547425814586738"><ele>146.0</ele><time>2026-04-25T14:46:18Z</time></trkpt><trkpt lat="40.439519418973326" lon="9.547624000289247"><ele>146.0</ele><time>2026-04-25T14:46:19Z</time></trkpt><trkpt lat="40.43968092405968" lon="9.547822833809851"><ele>146.0</ele><time>2026-04-25T14:46:20Z</time></trkpt><trkpt lat="40.43984162704381" lon="9.548021529004933"><ele>144.66666666666666</ele><time>2026-04-25T14:46:21Z</time></trkpt><trkpt lat="40.44000313069558" lon="9.548224190330902"><ele>143.33333333333334</ele><time>2026-04-25T14:46:22Z</time></trkpt><trkpt lat="40.44016400285477" lon="9.548423693831863"><ele>142.0</ele><time>2026-04-25T14:46:23Z</time></trkpt><trkpt lat="40.440325189877136" lon="9.548625035604335"><ele>142.0</ele><time>2026-04-25T14:46:24Z</time></trkpt><trkpt lat="40.4404844397177" lon="9.548825753700429"><ele>142.0</ele><time>2026-04-25T14:46:25Z</time></trkpt><trkpt lat="40.4406475470103" lon="9.549029432856825"><ele>142.0</ele><time>2026-04-25T14:46:26Z</time></trkpt><trkpt lat="40.44081046082028" lon="9.549233946150819"><ele>142.0</ele><time>2026-04-25T14:46:27Z</time></trkpt><trkpt lat="40.44097485485056" lon="9.549436145446858"><ele>142.0</ele><time>2026-04-25T14:46:28Z</time></trkpt><trkpt lat="40.44114234573589" lon="9.549644908925108"><ele>143.0</ele><time>2026-04-25T14:46:29Z</time></trkpt><trkpt lat="40.44131277673785" lon="9.549860763516083"><ele>144.0</ele><time>2026-04-25T14:46:30Z</time></trkpt><trkpt lat="40.441488921539964" lon="9.550078407836972"><ele>144.0</ele><time>2026-04-25T14:46:31Z</time></trkpt><trkpt lat="40.44166841542068" lon="9.550297907235667"><ele>144.0</ele><time>2026-04-25T14:46:32Z</time></trkpt><trkpt lat="40.44184698509556" lon="9.550519810603866"><ele>142.5</ele><time>2026-04-25T14:46:33Z</time></trkpt><trkpt lat="40.442022739686614" lon="9.550740268068454"><ele>141.0</ele><time>2026-04-25T14:46:34Z</time></trkpt><trkpt lat="40.44220050675452" lon="9.55096002698535"><ele>143.0</ele><time>2026-04-25T14:46:35Z</time></trkpt><trkpt lat="40.44237918839743" lon="9.551181387646738"><ele>145.0</ele><time>2026-04-25T14:46:36Z</time></trkpt><trkpt lat="40.44255383528196" lon="9.551402406776194"><ele>145.0</ele><time>2026-04-25T14:46:37Z</time></trkpt><trkpt lat="40.44272904168065" lon="9.551623753021499"><ele>145.0</ele><time>2026-04-25T14:46:38Z</time></trkpt><trkpt lat="40.44290518915072" lon="9.551844457639993"><ele>145.0</ele><time>2026-04-25T14:46:39Z</time></trkpt><trkpt lat="40.44308367361661" lon="9.552066008686435"><ele>145.0</ele><time>2026-04-25T14:46:40Z</time></trkpt><trkpt lat="40.44326169588346" lon="9.552285531510055"><ele>145.0</ele><time>2026-04-25T14:46:41Z</time></trkpt><trkpt lat="40.443441306883344" lon="9.552507091545605"><ele>145.0</ele><time>2026-04-25T14:46:42Z</time></trkpt><trkpt lat="40.44361827770944" lon="9.552728271524433"><ele>144.5</ele><time>2026-04-25T14:46:43Z</time></trkpt><trkpt lat="40.44379498002704" lon="9.55294930018259"><ele>144.0</ele><time>2026-04-25T14:46:44Z</time></trkpt><trkpt lat="40.44397304101316" lon="9.5531694685409"><ele>144.0</ele><time>2026-04-25T14:46:45Z</time></trkpt><trkpt lat="40.44414956678445" lon="9.553387911502666"><ele>144.0</ele><time>2026-04-25T14:46:46Z</time></trkpt><trkpt lat="40.44432434239442" lon="9.55360747295282"><ele>142.5</ele><time>2026-04-25T14:46:47Z</time></trkpt><trkpt lat="40.44450198730659" lon="9.553829323081468"><ele>141.0</ele><time>2026-04-25T14:46:48Z</time></trkpt><trkpt lat="40.444675408643846" lon="9.554049695832074"><ele>144.5</ele><time>2026-04-25T14:46:49Z</time></trkpt><trkpt lat="40.44485324542014" lon="9.554271496610214"><ele>148.0</ele><time>2026-04-25T14:46:50Z</time></trkpt><trkpt lat="40.445026532513815" lon="9.554486642057492"><ele>146.0</ele><time>2026-04-25T14:46:51Z</time></trkpt><trkpt lat="40.44520281370513" lon="9.554703728111814"><ele>144.0</ele><time>2026-04-25T14:46:52Z</time></trkpt><trkpt lat="40.44537848775849" lon="9.554922424175226"><ele>147.5</ele><time>2026-04-25T14:46:53Z</time></trkpt><trkpt lat="40.445556182565554" lon="9.555138946810859"><ele>151.0</ele><time>2026-04-25T14:46:54Z</time></trkpt><trkpt lat="40.445738668731614" lon="9.555353422752336"><ele>150.0</ele><time>2026-04-25T14:46:55Z</time></trkpt><trkpt lat="40.44592873736182" lon="9.555567460002212"><ele>149.0</ele><time>2026-04-25T14:46:56Z</time></trkpt><trkpt lat="40.44612592341931" lon="9.55577818433804"><ele>152.0</ele><time>2026-04-25T14:46:57Z</time></trkpt><trkpt lat="40.446329992840106" lon="9.555984230741016"><ele>155.0</ele><time>2026-04-25T14:46:58Z</time></trkpt><trkpt lat="40.44654599735631" lon="9.556196400773484"><ele>154.0</ele><time>2026-04-25T14:46:59Z</time></trkpt><trkpt lat="40.44676516443432" lon="9.556403463776308"><ele>153.0</ele><time>2026-04-25T14:47:00Z</time></trkpt><trkpt lat="40.44699162506415" lon="9.556617824305151"><ele>152.5</ele><time>2026-04-25T14:47:01Z</time></trkpt><trkpt lat="40.44721787894013" lon="9.556836897364057"><ele>152.0</ele><time>2026-04-25T14:47:02Z</time></trkpt><trkpt lat="40.44744632036726" lon="9.557059199392663"><ele>152.0</ele><time>2026-04-25T14:47:03Z</time></trkpt><trkpt lat="40.447677258173684" lon="9.557281875160768"><ele>152.0</ele><time>2026-04-25T14:47:04Z</time></trkpt><trkpt lat="40.44791619904845" lon="9.557509143674384"><ele>151.5</ele><time>2026-04-25T14:47:05Z</time></trkpt><trkpt lat="40.448156235575574" lon="9.557738386019153"><ele>151.0</ele><time>2026-04-25T14:47:06Z</time></trkpt><trkpt lat="40.44839275721198" lon="9.55796766619472"><ele>150.5</ele><time>2026-04-25T14:47:07Z</time></trkpt><trkpt lat="40.44863543425751" lon="9.558198870043093"><ele>150.0</ele><time>2026-04-25T14:47:08Z</time></trkpt><trkpt lat="40.44887756596927" lon="9.558429167460268"><ele>150.0</ele><time>2026-04-25T14:47:09Z</time></trkpt><trkpt lat="40.44911233074011" lon="9.558654993537424"><ele>150.0</ele><time>2026-04-25T14:47:10Z</time></trkpt><trkpt lat="40.449334507333475" lon="9.558869180795782"><ele>150.0</ele><time>2026-04-25T14:47:11Z</time></trkpt><trkpt lat="40.44955577142298" lon="9.559083603334399"><ele>150.0</ele><time>2026-04-25T14:47:12Z</time></trkpt><trkpt lat="40.449765549551394" lon="9.559284878256435"><ele>151.0</ele><time>2026-04-25T14:47:13Z</time></trkpt><trkpt lat="40.44996268801723" lon="9.559474367872609"><ele>152.0</ele><time>2026-04-25T14:47:14Z</time></trkpt><trkpt lat="40.45015088542925" lon="9.55965747028423"><ele>152.0</ele><time>2026-04-25T14:47:15Z</time></trkpt><trkpt lat="40.45034086602109" lon="9.559844712973412"><ele>152.0</ele><time>2026-04-25T14:47:16Z</time></trkpt><trkpt lat="40.4505387792986" lon="9.56003579693046"><ele>153.0</ele><time>2026-04-25T14:47:17Z</time></trkpt><trkpt lat="40.45074118889335" lon="9.560231771217857"><ele>154.0</ele><time>2026-04-25T14:47:18Z</time></trkpt><trkpt lat="40.45094660851324" lon="9.560428969636945"><ele>154.0</ele><time>2026-04-25T14:47:19Z</time></trkpt><trkpt lat="40.45115168701052" lon="9.560627426643055"><ele>154.0</ele><time>2026-04-25T14:47:20Z</time></trkpt><trkpt lat="40.45135401794451" lon="9.560824670411947"><ele>154.0</ele><time>2026-04-25T14:47:21Z</time></trkpt><trkpt lat="40.45155670941961" lon="9.561020576193545"><ele>154.0</ele><time>2026-04-25T14:47:22Z</time></trkpt><trkpt lat="40.451759294731595" lon="9.561217993975227"><ele>154.5</ele><time>2026-04-25T14:47:23Z</time></trkpt><trkpt lat="40.45196398210189" lon="9.561413297689715"><ele>155.0</ele><time>2026-04-25T14:47:24Z</time></trkpt><trkpt lat="40.4521663417037" lon="9.561603971881379"><ele>156.0</ele><time>2026-04-25T14:47:25Z</time></trkpt><trkpt lat="40.45237045044287" lon="9.561797924155442"><ele>157.0</ele><time>2026-04-25T14:47:26Z</time></trkpt><trkpt lat="40.45257989169703" lon="9.561997100149037"><ele>157.0</ele><time>2026-04-25T14:47:27Z</time></trkpt><trkpt lat="40.45279363119155" lon="9.56220660433553"><ele>157.0</ele><time>2026-04-25T14:47:28Z</time></trkpt><trkpt lat="40.45301447949153" lon="9.562419129848303"><ele>158.5</ele><time>2026-04-25T14:47:29Z</time></trkpt><trkpt lat="40.45322964203155" lon="9.562628046206505"><ele>160.0</ele><time>2026-04-25T14:47:30Z</time></trkpt><trkpt lat="40.45344135521604" lon="9.56282996545325"><ele>159.5</ele><time>2026-04-25T14:47:31Z</time></trkpt><trkpt lat="40.45364933242941" lon="9.563035699640599"><ele>159.0</ele><time>2026-04-25T14:47:32Z</time></trkpt><trkpt lat="40.45385741055683" lon="9.563252328276173"><ele>160.0</ele><time>2026-04-25T14:47:33Z</time></trkpt><trkpt lat="40.45405773150872" lon="9.563478567969526"><ele>161.0</ele><time>2026-04-25T14:47:34Z</time></trkpt><trkpt lat="40.454254026206776" lon="9.563711812957207"><ele>161.0</ele><time>2026-04-25T14:47:35Z</time></trkpt><trkpt lat="40.454450553214436" lon="9.563956921628924"><ele>161.0</ele><time>2026-04-25T14:47:36Z</time></trkpt><trkpt lat="40.45464351806002" lon="9.564200557226346"><ele>163.0</ele><time>2026-04-25T14:47:37Z</time></trkpt><trkpt lat="40.45483339486125" lon="9.564445465120574"><ele>165.0</ele><time>2026-04-25T14:47:38Z</time></trkpt><trkpt lat="40.45502649538006" lon="9.564694359833359"><ele>165.5</ele><time>2026-04-25T14:47:39Z</time></trkpt><trkpt lat="40.455219104863225" lon="9.564947303548678"><ele>166.0</ele><time>2026-04-25T14:47:40Z</time></trkpt><trkpt lat="40.45541061103936" lon="9.565194725931484"><ele>167.5</ele><time>2026-04-25T14:47:41Z</time></trkpt><trkpt lat="40.45560365490551" lon="9.56544222797135"><ele>169.0</ele><time>2026-04-25T14:47:42Z</time></trkpt><trkpt lat="40.45580108819189" lon="9.565691923167078"><ele>169.0</ele><time>2026-04-25T14:47:43Z</time></trkpt><trkpt lat="40.45599475808191" lon="9.565942822028228"><ele>169.0</ele><time>2026-04-25T14:47:44Z</time></trkpt><trkpt lat="40.4561910170409" lon="9.56619668845439"><ele>169.0</ele><time>2026-04-25T14:47:45Z</time></trkpt><trkpt lat="40.45638843574043" lon="9.566450293346564"><ele>169.0</ele><time>2026-04-25T14:47:46Z</time></trkpt><trkpt lat="40.45658715582882" lon="9.566706062260236"><ele>169.0</ele><time>2026-04-25T14:47:47Z</time></trkpt><trkpt lat="40.45678567542524" lon="9.566964515614151"><ele>169.0</ele><time>2026-04-25T14:47:48Z</time></trkpt><trkpt lat="40.45698796179571" lon="9.567224696034446"><ele>170.5</ele><time>2026-04-25T14:47:49Z</time></trkpt><trkpt lat="40.45719013471" lon="9.567484588387861"><ele>172.0</ele><time>2026-04-25T14:47:50Z</time></trkpt><trkpt lat="40.4573894848637" lon="9.567744282040463"><ele>170.5</ele><time>2026-04-25T14:47:51Z</time></trkpt><trkpt lat="40.45758982220965" lon="9.568003827505747"><ele>169.0</ele><time>2026-04-25T14:47:52Z</time></trkpt><trkpt lat="40.45779119010242" lon="9.568263117035777"><ele>171.5</ele><time>2026-04-25T14:47:53Z</time></trkpt><trkpt lat="40.457989571774284" lon="9.568519752185535"><ele>174.0</ele><time>2026-04-25T14:47:54Z</time></trkpt><trkpt lat="40.45818741801467" lon="9.568774659356528"><ele>174.0</ele><time>2026-04-25T14:47:55Z</time></trkpt><trkpt lat="40.458383095155725" lon="9.569029469946887"><ele>174.0</ele><time>2026-04-25T14:47:56Z</time></trkpt><trkpt lat="40.45857833430278" lon="9.569283732669653"><ele>175.0</ele><time>2026-04-25T14:47:57Z</time></trkpt><trkpt lat="40.45877324560865" lon="9.56953646765328"><ele>176.0</ele><time>2026-04-25T14:47:58Z</time></trkpt><trkpt lat="40.45896820236342" lon="9.569787113038107"><ele>176.0</ele><time>2026-04-25T14:47:59Z</time></trkpt><trkpt lat="40.459161647037064" lon="9.570038704350514"><ele>176.0</ele><time>2026-04-25T14:48:00Z</time></trkpt><trkpt lat="40.459354621737575" lon="9.57028855875275"><ele>177.0</ele><time>2026-04-25T14:48:01Z</time></trkpt><trkpt lat="40.4595493196577" lon="9.570540324143499"><ele>178.0</ele><time>2026-04-25T14:48:02Z</time></trkpt><trkpt lat="40.45974999053797" lon="9.570800363713532"><ele>178.5</ele><time>2026-04-25T14:48:03Z</time></trkpt><trkpt lat="40.45995394906803" lon="9.571062416807777"><ele>179.0</ele><time>2026-04-25T14:48:04Z</time></trkpt><trkpt lat="40.460158451168425" lon="9.571327149550184"><ele>179.0</ele><time>2026-04-25T14:48:05Z</time></trkpt><trkpt lat="40.46036583169365" lon="9.57159410543828"><ele>179.0</ele><time>2026-04-25T14:48:06Z</time></trkpt><trkpt lat="40.46057400340257" lon="9.571865962797848"><ele>183.0</ele><time>2026-04-25T14:48:07Z</time></trkpt><trkpt lat="40.46078091153729" lon="9.572137630987685"><ele>187.0</ele><time>2026-04-25T14:48:08Z</time></trkpt><trkpt lat="40.460983779650974" lon="9.572395479980491"><ele>187.0</ele><time>2026-04-25T14:48:09Z</time></trkpt><trkpt lat="40.461178390810936" lon="9.572645017207776"><ele>187.0</ele><time>2026-04-25T14:48:10Z</time></trkpt><trkpt lat="40.461373515287555" lon="9.572893494208103"><ele>191.0</ele><time>2026-04-25T14:48:11Z</time></trkpt><trkpt lat="40.46156469490338" lon="9.573137313353039"><ele>195.0</ele><time>2026-04-25T14:48:12Z</time></trkpt><trkpt lat="40.46175130481855" lon="9.573378531571104"><ele>195.0</ele><time>2026-04-25T14:48:13Z</time></trkpt><trkpt lat="40.46193996013318" lon="9.573622367647049"><ele>195.0</ele><time>2026-04-25T14:48:14Z</time></trkpt><trkpt lat="40.46212440392469" lon="9.573860928230939"><ele>194.0</ele><time>2026-04-25T14:48:15Z</time></trkpt><trkpt lat="40.46231045354307" lon="9.574102785962635"><ele>193.0</ele><time>2026-04-25T14:48:16Z</time></trkpt><trkpt lat="40.46249574680714" lon="9.574341641908186"><ele>194.5</ele><time>2026-04-25T14:48:17Z</time></trkpt><trkpt lat="40.46267962539586" lon="9.574583487699917"><ele>196.0</ele><time>2026-04-25T14:48:18Z</time></trkpt><trkpt lat="40.46285443944237" lon="9.574841848681427"><ele>197.0</ele><time>2026-04-25T14:48:19Z</time></trkpt><trkpt lat="40.463015995711835" lon="9.575126313426304"><ele>198.0</ele><time>2026-04-25T14:48:20Z</time></trkpt><trkpt lat="40.46316408440922" lon="9.575429973830921"><ele>199.0</ele><time>2026-04-25T14:48:21Z</time></trkpt><trkpt lat="40.46330682974689" lon="9.575744034750596"><ele>200.0</ele><time>2026-04-25T14:48:22Z</time></trkpt><trkpt lat="40.463449018287655" lon="9.576065150758428"><ele>204.0</ele><time>2026-04-25T14:48:23Z</time></trkpt><trkpt lat="40.46359363404196" lon="9.576389778742115"><ele>208.0</ele><time>2026-04-25T14:48:24Z</time></trkpt><trkpt lat="40.46374022700862" lon="9.576718136151117"><ele>208.0</ele><time>2026-04-25T14:48:25Z</time></trkpt><trkpt lat="40.463888003372766" lon="9.577041722447932"><ele>208.0</ele><time>2026-04-25T14:48:26Z</time></trkpt><trkpt lat="40.464036606062585" lon="9.577370707126796"><ele>208.0</ele><time>2026-04-25T14:48:27Z</time></trkpt><trkpt lat="40.464187328590995" lon="9.577704288017443"><ele>208.0</ele><time>2026-04-25T14:48:28Z</time></trkpt><trkpt lat="40.46433637030685" lon="9.578038929203393"><ele>213.5</ele><time>2026-04-25T14:48:29Z</time></trkpt><trkpt lat="40.4644868530084" lon="9.578373379045662"><ele>219.0</ele><time>2026-04-25T14:48:30Z</time></trkpt><trkpt lat="40.464642231200685" lon="9.578694933682895"><ele>219.5</ele><time>2026-04-25T14:48:31Z</time></trkpt><trkpt lat="40.464804780991926" lon="9.578999184481532"><ele>220.0</ele><time>2026-04-25T14:48:32Z</time></trkpt><trkpt lat="40.46497765440465" lon="9.579298790862978"><ele>228.0</ele><time>2026-04-25T14:48:33Z</time></trkpt><trkpt lat="40.4651657447251" lon="9.579583124398257"><ele>236.0</ele><time>2026-04-25T14:48:34Z</time></trkpt><trkpt lat="40.4653713584166" lon="9.579856137710198"><ele>235.0</ele><time>2026-04-25T14:48:35Z</time></trkpt><trkpt lat="40.46558312053322" lon="9.58012076196677"><ele>234.0</ele><time>2026-04-25T14:48:36Z</time></trkpt><trkpt lat="40.4658089055943" lon="9.580367996394656"><ele>234.0</ele><time>2026-04-25T14:48:37Z</time></trkpt><trkpt lat="40.46604321138371" lon="9.580599973923082"><ele>234.0</ele><time>2026-04-25T14:48:38Z</time></trkpt><trkpt lat="40.46628925525989" lon="9.580815827521901"><ele>235.5</ele><time>2026-04-25T14:48:39Z</time></trkpt><trkpt lat="40.466540769859684" lon="9.581022853347342"><ele>237.0</ele><time>2026-04-25T14:48:40Z</time></trkpt><trkpt lat="40.466795925785846" lon="9.581224868944561"><ele>237.0</ele><time>2026-04-25T14:48:41Z</time></trkpt><trkpt lat="40.46705235042437" lon="9.581434655175553"><ele>237.0</ele><time>2026-04-25T14:48:42Z</time></trkpt><trkpt lat="40.46730587403967" lon="9.581648961533322"><ele>238.0</ele><time>2026-04-25T14:48:43Z</time></trkpt><trkpt lat="40.46756027839325" lon="9.581864990902924"><ele>239.0</ele><time>2026-04-25T14:48:44Z</time></trkpt><trkpt lat="40.46781683696363" lon="9.582080666797467"><ele>234.0</ele><time>2026-04-25T14:48:45Z</time></trkpt><trkpt lat="40.468062099310266" lon="9.582282982988517"><ele>229.0</ele><time>2026-04-25T14:48:46Z</time></trkpt><trkpt lat="40.46828862959187" lon="9.582473581865274"><ele>229.0</ele><time>2026-04-25T14:48:47Z</time></trkpt><trkpt lat="40.46851755171449" lon="9.582667778923499"><ele>229.0</ele><time>2026-04-25T14:48:48Z</time></trkpt><trkpt lat="40.468743182451675" lon="9.582856203053364"><ele>232.5</ele><time>2026-04-25T14:48:49Z</time></trkpt><trkpt lat="40.468962963462225" lon="9.583037981190445"><ele>236.0</ele><time>2026-04-25T14:48:50Z</time></trkpt><trkpt lat="40.469184927518995" lon="9.58322246782991"><ele>236.0</ele><time>2026-04-25T14:48:51Z</time></trkpt><trkpt lat="40.46940181510431" lon="9.583403060320295"><ele>236.0</ele><time>2026-04-25T14:48:52Z</time></trkpt><trkpt lat="40.46961783772284" lon="9.583584094458057"><ele>239.0</ele><time>2026-04-25T14:48:53Z</time></trkpt><trkpt lat="40.46983347274153" lon="9.58376635295092"><ele>242.0</ele><time>2026-04-25T14:48:54Z</time></trkpt><trkpt lat="40.47005013204134" lon="9.58394763326354"><ele>242.0</ele><time>2026-04-25T14:48:55Z</time></trkpt><trkpt lat="40.47026133041242" lon="9.584126491983467"><ele>242.0</ele><time>2026-04-25T14:48:56Z</time></trkpt><trkpt lat="40.47047312617205" lon="9.584307241620497"><ele>242.5</ele><time>2026-04-25T14:48:57Z</time></trkpt><trkpt lat="40.4706849101357" lon="9.584487433322918"><ele>243.0</ele><time>2026-04-25T14:48:58Z</time></trkpt><trkpt lat="40.47089551706799" lon="9.584668103154684"><ele>243.0</ele><time>2026-04-25T14:48:59Z</time></trkpt><trkpt lat="40.47110623782668" lon="9.584846251879846"><ele>243.0</ele><time>2026-04-25T14:49:00Z</time></trkpt><trkpt lat="40.47131233888227" lon="9.585027398693107"><ele>240.5</ele><time>2026-04-25T14:49:01Z</time></trkpt><trkpt lat="40.471518594526394" lon="9.585212166167022"><ele>238.0</ele><time>2026-04-25T14:49:02Z</time></trkpt><trkpt lat="40.47172278167355" lon="9.585398837330837"><ele>238.0</ele><time>2026-04-25T14:49:03Z</time></trkpt><trkpt lat="40.47192625656519" lon="9.585583623878506"><ele>238.0</ele><time>2026-04-25T14:49:04Z</time></trkpt><trkpt lat="40.47212510839969" lon="9.585763395034554"><ele>234.0</ele><time>2026-04-25T14:49:05Z</time></trkpt><trkpt lat="40.472325652178725" lon="9.58594472021621"><ele>230.0</ele><time>2026-04-25T14:49:06Z</time></trkpt><trkpt lat="40.472525079230806" lon="9.586124350239821"><ele>235.0</ele><time>2026-04-25T14:49:07Z</time></trkpt><trkpt lat="40.47272770407132" lon="9.586307577168625"><ele>240.0</ele><time>2026-04-25T14:49:08Z</time></trkpt><trkpt lat="40.472929231635526" lon="9.58648971417557"><ele>233.5</ele><time>2026-04-25T14:49:09Z</time></trkpt><trkpt lat="40.47313222351147" lon="9.586672427706645"><ele>227.0</ele><time>2026-04-25T14:49:10Z</time></trkpt><trkpt lat="40.47333066273791" lon="9.586851436419726"><ele>234.5</ele><time>2026-04-25T14:49:11Z</time></trkpt><trkpt lat="40.47353034111199" lon="9.58703233979338"><ele>242.0</ele><time>2026-04-25T14:49:12Z</time></trkpt><trkpt lat="40.47373206622653" lon="9.587214735933257"><ele>231.5</ele><time>2026-04-25T14:49:13Z</time></trkpt><trkpt lat="40.47393655550822" lon="9.587399143235006"><ele>221.0</ele><time>2026-04-25T14:49:14Z</time></trkpt><trkpt lat="40.47413806678401" lon="9.58758227646001"><ele>221.0</ele><time>2026-04-25T14:49:15Z</time></trkpt><trkpt lat="40.47434261478906" lon="9.58776588105441"><ele>221.0</ele><time>2026-04-25T14:49:16Z</time></trkpt><trkpt lat="40.474547969461675" lon="9.587947742646078"><ele>219.0</ele><time>2026-04-25T14:49:17Z</time></trkpt><trkpt lat="40.47475005701023" lon="9.58812788836467"><ele>217.0</ele><time>2026-04-25T14:49:18Z</time></trkpt><trkpt lat="40.474951901314" lon="9.588308363574985"><ele>217.0</ele><time>2026-04-25T14:49:19Z</time></trkpt><trkpt lat="40.47515330321006" lon="9.588491420601553"><ele>217.0</ele><time>2026-04-25T14:49:20Z</time></trkpt><trkpt lat="40.47535147439711" lon="9.588672628150919"><ele>218.0</ele><time>2026-04-25T14:49:21Z</time></trkpt><trkpt lat="40.47555018574991" lon="9.588849149382572"><ele>219.0</ele><time>2026-04-25T14:49:22Z</time></trkpt><trkpt lat="40.4757458838919" lon="9.589025873677974"><ele>219.0</ele><time>2026-04-25T14:49:23Z</time></trkpt><trkpt lat="40.47594236722424" lon="9.589203218605682"><ele>219.0</ele><time>2026-04-25T14:49:24Z</time></trkpt><trkpt lat="40.476142061674786" lon="9.589380453556458"><ele>217.5</ele><time>2026-04-25T14:49:25Z</time></trkpt><trkpt lat="40.47634412561059" lon="9.58955727205214"><ele>216.0</ele><time>2026-04-25T14:49:26Z</time></trkpt><trkpt lat="40.47655055439172" lon="9.589741496994893"><ele>216.0</ele><time>2026-04-25T14:49:27Z</time></trkpt><trkpt lat="40.47676219911135" lon="9.58993417682923"><ele>216.0</ele><time>2026-04-25T14:49:28Z</time></trkpt><trkpt lat="40.47697220014536" lon="9.590127669678445"><ele>212.0</ele><time>2026-04-25T14:49:29Z</time></trkpt><trkpt lat="40.47718308232051" lon="9.590317220799621"><ele>208.0</ele><time>2026-04-25T14:49:30Z</time></trkpt><trkpt lat="40.47739387119292" lon="9.590505913222971"><ele>208.0</ele><time>2026-04-25T14:49:31Z</time></trkpt><trkpt lat="40.47760473448387" lon="9.59069701769347"><ele>208.0</ele><time>2026-04-25T14:49:32Z</time></trkpt><trkpt lat="40.4778143440431" lon="9.590886150851178"><ele>207.5</ele><time>2026-04-25T14:49:33Z</time></trkpt><trkpt lat="40.47801582288468" lon="9.591068153470728"><ele>207.0</ele><time>2026-04-25T14:49:34Z</time></trkpt><trkpt lat="40.47821596446975" lon="9.59124905444792"><ele>207.0</ele><time>2026-04-25T14:49:35Z</time></trkpt><trkpt lat="40.47841745995706" lon="9.591431050540544"><ele>207.0</ele><time>2026-04-25T14:49:36Z</time></trkpt><trkpt lat="40.478616417696195" lon="9.591611023316668"><ele>198.0</ele><time>2026-04-25T14:49:37Z</time></trkpt><trkpt lat="40.47881495156557" lon="9.59179387501033"><ele>189.0</ele><time>2026-04-25T14:49:38Z</time></trkpt><trkpt lat="40.4790155787377" lon="9.59197451173652"><ele>192.5</ele><time>2026-04-25T14:49:39Z</time></trkpt><trkpt lat="40.47921392812403" lon="9.59215241772698"><ele>196.0</ele><time>2026-04-25T14:49:40Z</time></trkpt><trkpt lat="40.479413114257746" lon="9.592329965493827"><ele>193.5</ele><time>2026-04-25T14:49:41Z</time></trkpt><trkpt lat="40.47961070362341" lon="9.592509694479778"><ele>191.0</ele><time>2026-04-25T14:49:42Z</time></trkpt><trkpt lat="40.47980884371196" lon="9.59269109371048"><ele>193.0</ele><time>2026-04-25T14:49:43Z</time></trkpt><trkpt lat="40.48000577047935" lon="9.592873532860018"><ele>195.0</ele><time>2026-04-25T14:49:44Z</time></trkpt><trkpt lat="40.48020428108841" lon="9.59305596433924"><ele>195.0</ele><time>2026-04-25T14:49:45Z</time></trkpt><trkpt lat="40.4804016024155" lon="9.593242461976432"><ele>195.0</ele><time>2026-04-25T14:49:46Z</time></trkpt><trkpt lat="40.480593451905015" lon="9.593440411641046"><ele>193.5</ele><time>2026-04-25T14:49:47Z</time></trkpt><trkpt lat="40.48078095087644" lon="9.59365150249803"><ele>192.0</ele><time>2026-04-25T14:49:48Z</time></trkpt><trkpt lat="40.480967662893526" lon="9.593873100845952"><ele>192.0</ele><time>2026-04-25T14:49:49Z</time></trkpt><trkpt lat="40.48115194847611" lon="9.594098556613389"><ele>192.0</ele><time>2026-04-25T14:49:50Z</time></trkpt><trkpt lat="40.48133562953515" lon="9.594327919655958"><ele>190.5</ele><time>2026-04-25T14:49:51Z</time></trkpt><trkpt lat="40.48152160465121" lon="9.594556219761174"><ele>189.0</ele><time>2026-04-25T14:49:52Z</time></trkpt><trkpt lat="40.481707417201264" lon="9.594786450770467"><ele>189.0</ele><time>2026-04-25T14:49:53Z</time></trkpt><trkpt lat="40.48189649820339" lon="9.595017960152276"><ele>189.0</ele><time>2026-04-25T14:49:54Z</time></trkpt><trkpt lat="40.48208656354256" lon="9.595249921887245"><ele>186.5</ele><time>2026-04-25T14:49:55Z</time></trkpt><trkpt lat="40.482275096278464" lon="9.59548446066921"><ele>184.0</ele><time>2026-04-25T14:49:56Z</time></trkpt><trkpt lat="40.48246260706461" lon="9.59571941758298"><ele>184.0</ele><time>2026-04-25T14:49:57Z</time></trkpt><trkpt lat="40.48265056386414" lon="9.59595486181288"><ele>184.0</ele><time>2026-04-25T14:49:58Z</time></trkpt><trkpt lat="40.48283846619189" lon="9.596188813215488"><ele>183.5</ele><time>2026-04-25T14:49:59Z</time></trkpt><trkpt lat="40.48302686808942" lon="9.596420531258932"><ele>183.0</ele><time>2026-04-25T14:50:00Z</time></trkpt><trkpt lat="40.48321546509234" lon="9.596651385116736"><ele>183.0</ele><time>2026-04-25T14:50:01Z</time></trkpt><trkpt lat="40.48340478771526" lon="9.596884993343995"><ele>183.0</ele><time>2026-04-25T14:50:02Z</time></trkpt><trkpt lat="40.48359604778703" lon="9.597123573459962"><ele>179.5</ele><time>2026-04-25T14:50:03Z</time></trkpt><trkpt lat="40.48378450019561" lon="9.597358234082906"><ele>176.0</ele><time>2026-04-25T14:50:04Z</time></trkpt><trkpt lat="40.48397409990821" lon="9.597593841876131"><ele>176.0</ele><time>2026-04-25T14:50:05Z</time></trkpt><trkpt lat="40.48416348190259" lon="9.597826320586558"><ele>176.0</ele><time>2026-04-25T14:50:06Z</time></trkpt><trkpt lat="40.484352206531476" lon="9.598057194001276"><ele>173.5</ele><time>2026-04-25T14:50:07Z</time></trkpt><trkpt lat="40.48454195802635" lon="9.59828939258022"><ele>171.0</ele><time>2026-04-25T14:50:08Z</time></trkpt><trkpt lat="40.48472949609386" lon="9.598520556850616"><ele>172.5</ele><time>2026-04-25T14:50:09Z</time></trkpt><trkpt lat="40.48491364269254" lon="9.5987509574295"><ele>174.0</ele><time>2026-04-25T14:50:10Z</time></trkpt><trkpt lat="40.48509818199846" lon="9.598979550557711"><ele>174.0</ele><time>2026-04-25T14:50:11Z</time></trkpt><trkpt lat="40.48527937468614" lon="9.599204215062683"><ele>174.0</ele><time>2026-04-25T14:50:12Z</time></trkpt><trkpt lat="40.485462412757" lon="9.599425700016237"><ele>172.0</ele><time>2026-04-25T14:50:13Z</time></trkpt><trkpt lat="40.48564400602736" lon="9.599650025411838"><ele>170.0</ele><time>2026-04-25T14:50:14Z</time></trkpt><trkpt lat="40.485822093999396" lon="9.599869164694594"><ele>170.0</ele><time>2026-04-25T14:50:15Z</time></trkpt><trkpt lat="40.48600131731135" lon="9.600091748308841"><ele>170.0</ele><time>2026-04-25T14:50:16Z</time></trkpt><trkpt lat="40.486180054312314" lon="9.600326524256023"><ele>168.5</ele><time>2026-04-25T14:50:17Z</time></trkpt><trkpt lat="40.486357854845146" lon="9.600578193968534"><ele>167.0</ele><time>2026-04-25T14:50:18Z</time></trkpt><trkpt lat="40.48654039413552" lon="9.600844775972813"><ele>167.0</ele><time>2026-04-25T14:50:19Z</time></trkpt><trkpt lat="40.486721993684" lon="9.601119324711462"><ele>167.0</ele><time>2026-04-25T14:50:20Z</time></trkpt><trkpt lat="40.48689490889774" lon="9.601390058747205"><ele>166.5</ele><time>2026-04-25T14:50:21Z</time></trkpt><trkpt lat="40.48706102337379" lon="9.60164812357304"><ele>166.0</ele><time>2026-04-25T14:50:22Z</time></trkpt><trkpt lat="40.48722409253147" lon="9.601899343390398"><ele>168.0</ele><time>2026-04-25T14:50:23Z</time></trkpt><trkpt lat="40.487376785473934" lon="9.602138268705346"><ele>170.0</ele><time>2026-04-25T14:50:24Z</time></trkpt><trkpt lat="40.48753029873167" lon="9.602378496226866"><ele>170.0</ele><time>2026-04-25T14:50:25Z</time></trkpt><trkpt lat="40.48768392368445" lon="9.60261840878558"><ele>170.0</ele><time>2026-04-25T14:50:26Z</time></trkpt><trkpt lat="40.48783744672022" lon="9.602855673414439"><ele>170.5</ele><time>2026-04-25T14:50:27Z</time></trkpt><trkpt lat="40.48799334678814" lon="9.60309342250331"><ele>171.0</ele><time>2026-04-25T14:50:28Z</time></trkpt><trkpt lat="40.48814866692335" lon="9.603334071403053"><ele>171.0</ele><time>2026-04-25T14:50:29Z</time></trkpt><trkpt lat="40.488301724721715" lon="9.603572732144427"><ele>171.0</ele><time>2026-04-25T14:50:30Z</time></trkpt><trkpt lat="40.48845390058027" lon="9.603811205077351"><ele>170.0</ele><time>2026-04-25T14:50:31Z</time></trkpt><trkpt lat="40.48861019716205" lon="9.604052603611947"><ele>169.0</ele><time>2026-04-25T14:50:32Z</time></trkpt><trkpt lat="40.488764925937616" lon="9.604292738516557"><ele>170.5</ele><time>2026-04-25T14:50:33Z</time></trkpt><trkpt lat="40.48892198282529" lon="9.604537469395616"><ele>172.0</ele><time>2026-04-25T14:50:34Z</time></trkpt><trkpt lat="40.4890793725415" lon="9.604779743213445"><ele>172.0</ele><time>2026-04-25T14:50:35Z</time></trkpt><trkpt lat="40.4892367672634" lon="9.605022158924564"><ele>172.0</ele><time>2026-04-25T14:50:36Z</time></trkpt><trkpt lat="40.48939618333968" lon="9.605267821994058"><ele>173.5</ele><time>2026-04-25T14:50:37Z</time></trkpt><trkpt lat="40.48955546829863" lon="9.605515709309655"><ele>175.0</ele><time>2026-04-25T14:50:38Z</time></trkpt><trkpt lat="40.48971636472248" lon="9.605761700577355"><ele>171.5</ele><time>2026-04-25T14:50:39Z</time></trkpt><trkpt lat="40.48987900592495" lon="9.606010778778073"><ele>168.0</ele><time>2026-04-25T14:50:40Z</time></trkpt><trkpt lat="40.49004038511749" lon="9.606261867943964"><ele>168.0</ele><time>2026-04-25T14:50:41Z</time></trkpt><trkpt lat="40.4902027004324" lon="9.606516839035256"><ele>168.0</ele><time>2026-04-25T14:50:42Z</time></trkpt><trkpt lat="40.49036720719743" lon="9.606772375271765"><ele>163.0</ele><time>2026-04-25T14:50:43Z</time></trkpt><trkpt lat="40.49053118630852" lon="9.607025492430198"><ele>158.0</ele><time>2026-04-25T14:50:44Z</time></trkpt><trkpt lat="40.49069617571103" lon="9.607279343164397"><ele>158.0</ele><time>2026-04-25T14:50:45Z</time></trkpt><trkpt lat="40.49086086548974" lon="9.607536311303392"><ele>158.0</ele><time>2026-04-25T14:50:46Z</time></trkpt><trkpt lat="40.491024082226375" lon="9.607789764354374"><ele>158.5</ele><time>2026-04-25T14:50:47Z</time></trkpt><trkpt lat="40.49118360209968" lon="9.608043440965908"><ele>159.0</ele><time>2026-04-25T14:50:48Z</time></trkpt><trkpt lat="40.49134651056053" lon="9.60829606150313"><ele>156.0</ele><time>2026-04-25T14:50:49Z</time></trkpt><trkpt lat="40.49150732802561" lon="9.608546431242527"><ele>153.0</ele><time>2026-04-25T14:50:50Z</time></trkpt><trkpt lat="40.49166982231747" lon="9.608795506581309"><ele>153.0</ele><time>2026-04-25T14:50:51Z</time></trkpt><trkpt lat="40.491830738064245" lon="9.609040709847974"><ele>153.0</ele><time>2026-04-25T14:50:52Z</time></trkpt><trkpt lat="40.49199504496769" lon="9.609284579238683"><ele>150.0</ele><time>2026-04-25T14:50:53Z</time></trkpt><trkpt lat="40.492162907351414" lon="9.609524234282093"><ele>147.0</ele><time>2026-04-25T14:50:54Z</time></trkpt><trkpt lat="40.492341145119084" lon="9.609759793811191"><ele>147.0</ele><time>2026-04-25T14:50:55Z</time></trkpt><trkpt lat="40.492535632391856" lon="9.609996509966031"><ele>147.0</ele><time>2026-04-25T14:50:56Z</time></trkpt><trkpt lat="40.49274334256942" lon="9.610234540321466"><ele>145.5</ele><time>2026-04-25T14:50:57Z</time></trkpt><trkpt lat="40.49295044532333" lon="9.610466484182336"><ele>144.0</ele><time>2026-04-25T14:50:58Z</time></trkpt><trkpt lat="40.493160295418015" lon="9.61069078549017"><ele>144.0</ele><time>2026-04-25T14:50:59Z</time></trkpt><trkpt lat="40.493362823415616" lon="9.610906185890782"><ele>144.0</ele><time>2026-04-25T14:51:00Z</time></trkpt><trkpt lat="40.49355400013405" lon="9.611113436612312"><ele>143.5</ele><time>2026-04-25T14:51:01Z</time></trkpt><trkpt lat="40.49374930646754" lon="9.611322654436655"><ele>143.0</ele><time>2026-04-25T14:51:02Z</time></trkpt><trkpt lat="40.493956227466796" lon="9.611547931350165"><ele>143.0</ele><time>2026-04-25T14:51:03Z</time></trkpt><trkpt lat="40.494170010947585" lon="9.611780169906988"><ele>143.0</ele><time>2026-04-25T14:51:04Z</time></trkpt><trkpt lat="40.494387369764574" lon="9.612017311748659"><ele>139.5</ele><time>2026-04-25T14:51:05Z</time></trkpt><trkpt lat="40.49460083108269" lon="9.612250714352768"><ele>136.0</ele><time>2026-04-25T14:51:06Z</time></trkpt><trkpt lat="40.4948128501145" lon="9.612485111847269"><ele>136.0</ele><time>2026-04-25T14:51:07Z</time></trkpt><trkpt lat="40.4950218127534" lon="9.612712037636726"><ele>136.0</ele><time>2026-04-25T14:51:08Z</time></trkpt><trkpt lat="40.495233531580105" lon="9.612939568338703"><ele>134.0</ele><time>2026-04-25T14:51:09Z</time></trkpt><trkpt lat="40.495441235405046" lon="9.613163093838352"><ele>132.0</ele><time>2026-04-25T14:51:10Z</time></trkpt><trkpt lat="40.49564961651229" lon="9.613386287394965"><ele>132.0</ele><time>2026-04-25T14:51:11Z</time></trkpt><trkpt lat="40.4958554066584" lon="9.613611420271594"><ele>132.0</ele><time>2026-04-25T14:51:12Z</time></trkpt><trkpt lat="40.49605813680365" lon="9.613835691858881"><ele>130.5</ele><time>2026-04-25T14:51:13Z</time></trkpt><trkpt lat="40.4962623377053" lon="9.614057779898209"><ele>129.0</ele><time>2026-04-25T14:51:14Z</time></trkpt><trkpt lat="40.49646518522464" lon="9.614277402021578"><ele>126.5</ele><time>2026-04-25T14:51:15Z</time></trkpt><trkpt lat="40.496668689208256" lon="9.61449720981809"><ele>124.0</ele><time>2026-04-25T14:51:16Z</time></trkpt><trkpt lat="40.49687247969357" lon="9.614716875691787"><ele>124.0</ele><time>2026-04-25T14:51:17Z</time></trkpt><trkpt lat="40.497075266173965" lon="9.614935403557912"><ele>124.0</ele><time>2026-04-25T14:51:18Z</time></trkpt><trkpt lat="40.497278916110666" lon="9.615155709328056"><ele>125.0</ele><time>2026-04-25T14:51:19Z</time></trkpt><trkpt lat="40.49748132282474" lon="9.61537640259208"><ele>126.0</ele><time>2026-04-25T14:51:20Z</time></trkpt><trkpt lat="40.497685574147" lon="9.615599643082176"><ele>126.0</ele><time>2026-04-25T14:51:21Z</time></trkpt><trkpt lat="40.49788639489019" lon="9.615818490740576"><ele>126.0</ele><time>2026-04-25T14:51:22Z</time></trkpt><trkpt lat="40.49809040133445" lon="9.616038818027086"><ele>128.5</ele><time>2026-04-25T14:51:23Z</time></trkpt><trkpt lat="40.49829120435188" lon="9.616259144852634"><ele>131.0</ele><time>2026-04-25T14:51:24Z</time></trkpt><trkpt lat="40.49849248158464" lon="9.616480021728332"><ele>131.0</ele><time>2026-04-25T14:51:25Z</time></trkpt><trkpt lat="40.498693977648465" lon="9.616699159996507"><ele>131.0</ele><time>2026-04-25T14:51:26Z</time></trkpt><trkpt lat="40.49889359911585" lon="9.616919182333588"><ele>129.0</ele><time>2026-04-25T14:51:27Z</time></trkpt><trkpt lat="40.499094991917204" lon="9.617136776382294"><ele>127.0</ele><time>2026-04-25T14:51:28Z</time></trkpt><trkpt lat="40.499296453990574" lon="9.617354391527778"><ele>127.0</ele><time>2026-04-25T14:51:29Z</time></trkpt><trkpt lat="40.49949698192862" lon="9.617571792486283"><ele>127.0</ele><time>2026-04-25T14:51:30Z</time></trkpt><trkpt lat="40.49969987588441" lon="9.617791546684748"><ele>123.5</ele><time>2026-04-25T14:51:31Z</time></trkpt><trkpt lat="40.49990242255486" lon="9.618012501878017"><ele>120.0</ele><time>2026-04-25T14:51:32Z</time></trkpt><trkpt lat="40.50010469766997" lon="9.618231107162899"><ele>120.0</ele><time>2026-04-25T14:51:33Z</time></trkpt><trkpt lat="40.50030659597933" lon="9.618448330997543"><ele>120.0</ele><time>2026-04-25T14:51:34Z</time></trkpt><trkpt lat="40.50050891045624" lon="9.618664687337345"><ele>116.5</ele><time>2026-04-25T14:51:35Z</time></trkpt><trkpt lat="40.50071101879211" lon="9.61888453258053"><ele>113.0</ele><time>2026-04-25T14:51:36Z</time></trkpt><trkpt lat="40.50091004552386" lon="9.619104266619127"><ele>113.0</ele><time>2026-04-25T14:51:37Z</time></trkpt><trkpt lat="40.5011121145067" lon="9.619324004938216"><ele>113.0</ele><time>2026-04-25T14:51:38Z</time></trkpt><trkpt lat="40.50131045825987" lon="9.619543130397897"><ele>112.5</ele><time>2026-04-25T14:51:39Z</time></trkpt><trkpt lat="40.501511129626714" lon="9.619760259365105"><ele>112.0</ele><time>2026-04-25T14:51:40Z</time></trkpt><trkpt lat="40.50171302709409" lon="9.619979465420528"><ele>112.0</ele><time>2026-04-25T14:51:41Z</time></trkpt><trkpt lat="40.50191564502839" lon="9.620197490140232"><ele>112.0</ele><time>2026-04-25T14:51:42Z</time></trkpt><trkpt lat="40.50211596769312" lon="9.620414062993934"><ele>111.5</ele><time>2026-04-25T14:51:43Z</time></trkpt><trkpt lat="40.50231629286744" lon="9.62062931844918"><ele>111.0</ele><time>2026-04-25T14:51:44Z</time></trkpt><trkpt lat="40.50252031668719" lon="9.620834658853601"><ele>111.0</ele><time>2026-04-25T14:51:45Z</time></trkpt><trkpt lat="40.50273337252164" lon="9.621028765373024"><ele>111.0</ele><time>2026-04-25T14:51:46Z</time></trkpt><trkpt lat="40.50294923234188" lon="9.62120954752634"><ele>111.0</ele><time>2026-04-25T14:51:47Z</time></trkpt><trkpt lat="40.50316548259695" lon="9.621379795445721"><ele>111.0</ele><time>2026-04-25T14:51:48Z</time></trkpt><trkpt lat="40.50338082238364" lon="9.621532001615353"><ele>111.0</ele><time>2026-04-25T14:51:49Z</time></trkpt><trkpt lat="40.50359739125312" lon="9.621679858508104"><ele>111.0</ele><time>2026-04-25T14:51:50Z</time></trkpt><trkpt lat="40.5038147675439" lon="9.621816441864112"><ele>110.5</ele><time>2026-04-25T14:51:51Z</time></trkpt><trkpt lat="40.50403334419142" lon="9.621941965431818"><ele>110.0</ele><time>2026-04-25T14:51:52Z</time></trkpt><trkpt lat="40.504252903455765" lon="9.62206172108061"><ele>107.0</ele><time>2026-04-25T14:51:53Z</time></trkpt><trkpt lat="40.50446953241118" lon="9.62217779771513"><ele>104.0</ele><time>2026-04-25T14:51:54Z</time></trkpt><trkpt lat="40.50467914987411" lon="9.622290417112552"><ele>103.33333333333333</ele><time>2026-04-25T14:51:55Z</time></trkpt><trkpt lat="40.50488537696544" lon="9.622403994468174"><ele>102.66666666666666</ele><time>2026-04-25T14:51:56Z</time></trkpt><trkpt lat="40.505090730347675" lon="9.622519613873523"><ele>102.0</ele><time>2026-04-25T14:51:57Z</time></trkpt><trkpt lat="40.50529203623596" lon="9.62263782379033"><ele>100.0</ele><time>2026-04-25T14:51:58Z</time></trkpt><trkpt lat="40.50549247371738" lon="9.622750966893525"><ele>98.0</ele><time>2026-04-25T14:51:59Z</time></trkpt><trkpt lat="40.50569325059508" lon="9.622858997879677"><ele>96.0</ele><time>2026-04-25T14:52:00Z</time></trkpt><trkpt lat="40.50589465968386" lon="9.62296933894036"><ele>96.0</ele><time>2026-04-25T14:52:01Z</time></trkpt><trkpt lat="40.50609101542005" lon="9.62308014703345"><ele>96.0</ele><time>2026-04-25T14:52:02Z</time></trkpt><trkpt lat="40.50628872844077" lon="9.623190221585501"><ele>96.0</ele><time>2026-04-25T14:52:03Z</time></trkpt><trkpt lat="40.506488763598554" lon="9.623297639866681"><ele>95.33333333333333</ele><time>2026-04-25T14:52:04Z</time></trkpt><trkpt lat="40.50668744350473" lon="9.623405666710358"><ele>94.66666666666666</ele><time>2026-04-25T14:52:05Z</time></trkpt><trkpt lat="40.50688554758147" lon="9.623515194523248"><ele>94.0</ele><time>2026-04-25T14:52:06Z</time></trkpt><trkpt lat="40.50708434536395" lon="9.6236248804057"><ele>94.0</ele><time>2026-04-25T14:52:07Z</time></trkpt><trkpt lat="40.50728456973149" lon="9.623737464350128"><ele>94.0</ele><time>2026-04-25T14:52:08Z</time></trkpt><trkpt lat="40.50748600223507" lon="9.623850800349418"><ele>94.0</ele><time>2026-04-25T14:52:09Z</time></trkpt><trkpt lat="40.50768961680462" lon="9.623963705499682"><ele>94.0</ele><time>2026-04-25T14:52:10Z</time></trkpt><trkpt lat="40.507895401106765" lon="9.624076571350784"><ele>94.0</ele><time>2026-04-25T14:52:11Z</time></trkpt><trkpt lat="40.50810211358031" lon="9.624191164587252"><ele>94.0</ele><time>2026-04-25T14:52:12Z</time></trkpt><trkpt lat="40.50830893769046" lon="9.624306001383948"><ele>94.0</ele><time>2026-04-25T14:52:13Z</time></trkpt><trkpt lat="40.50851855729178" lon="9.624421585111373"><ele>94.0</ele><time>2026-04-25T14:52:14Z</time></trkpt><trkpt lat="40.50872804776778" lon="9.624538377948982"><ele>92.5</ele><time>2026-04-25T14:52:15Z</time></trkpt><trkpt lat="40.50893993692331" lon="9.624655894217316"><ele>91.0</ele><time>2026-04-25T14:52:16Z</time></trkpt><trkpt lat="40.50915272932272" lon="9.624774111208746"><ele>91.0</ele><time>2026-04-25T14:52:17Z</time></trkpt><trkpt lat="40.509366023772564" lon="9.624893327800002"><ele>91.0</ele><time>2026-04-25T14:52:18Z</time></trkpt><trkpt lat="40.50958331017323" lon="9.625011547878541"><ele>90.5</ele><time>2026-04-25T14:52:19Z</time></trkpt><trkpt lat="40.50980557903306" lon="9.625132434760634"><ele>90.0</ele><time>2026-04-25T14:52:20Z</time></trkpt><trkpt lat="40.51004317968409" lon="9.625262845675456"><ele>90.5</ele><time>2026-04-25T14:52:21Z</time></trkpt><trkpt lat="40.51029100152352" lon="9.62540097113677"><ele>91.0</ele><time>2026-04-25T14:52:22Z</time></trkpt><trkpt lat="40.51054576583532" lon="9.625540858556983"><ele>91.0</ele><time>2026-04-25T14:52:23Z</time></trkpt><trkpt lat="40.510808218794956" lon="9.625685096579659"><ele>91.0</ele><time>2026-04-25T14:52:24Z</time></trkpt><trkpt lat="40.5110747695159" lon="9.625832082414938"><ele>93.0</ele><time>2026-04-25T14:52:25Z</time></trkpt><trkpt lat="40.51134849796175" lon="9.625980974546373"><ele>95.0</ele><time>2026-04-25T14:52:26Z</time></trkpt><trkpt lat="40.51162576806012" lon="9.62613452791179"><ele>91.5</ele><time>2026-04-25T14:52:27Z</time></trkpt><trkpt lat="40.51189129475974" lon="9.626283627902833"><ele>88.0</ele><time>2026-04-25T14:52:28Z</time></trkpt><trkpt lat="40.51214684835179" lon="9.626423702735464"><ele>88.0</ele><time>2026-04-25T14:52:29Z</time></trkpt><trkpt lat="40.51240227927504" lon="9.626565479361398"><ele>88.0</ele><time>2026-04-25T14:52:30Z</time></trkpt><trkpt lat="40.51265532435384" lon="9.626705991716635"><ele>90.0</ele><time>2026-04-25T14:52:31Z</time></trkpt><trkpt lat="40.512906357761075" lon="9.626845812474219"><ele>92.0</ele><time>2026-04-25T14:52:32Z</time></trkpt><trkpt lat="40.51315556123845" lon="9.626984460603879"><ele>88.0</ele><time>2026-04-25T14:52:33Z</time></trkpt><trkpt lat="40.5134086916843" lon="9.627126641475567"><ele>84.0</ele><time>2026-04-25T14:52:34Z</time></trkpt><trkpt lat="40.51365599120493" lon="9.627269498397757"><ele>86.0</ele><time>2026-04-25T14:52:35Z</time></trkpt><trkpt lat="40.51390350195295" lon="9.627410822091566"><ele>88.0</ele><time>2026-04-25T14:52:36Z</time></trkpt><trkpt lat="40.51415169632696" lon="9.627550680663493"><ele>88.0</ele><time>2026-04-25T14:52:37Z</time></trkpt><trkpt lat="40.51440244571368" lon="9.627686265199623"><ele>88.0</ele><time>2026-04-25T14:52:38Z</time></trkpt><trkpt lat="40.514651956370194" lon="9.627822351357816"><ele>86.0</ele><time>2026-04-25T14:52:39Z</time></trkpt><trkpt lat="40.514905374820934" lon="9.627958296133864"><ele>84.0</ele><time>2026-04-25T14:52:40Z</time></trkpt><trkpt lat="40.51515764785441" lon="9.62809991228461"><ele>83.5</ele><time>2026-04-25T14:52:41Z</time></trkpt><trkpt lat="40.515406553299464" lon="9.628237713740884"><ele>83.0</ele><time>2026-04-25T14:52:42Z</time></trkpt><trkpt lat="40.51566293084502" lon="9.628381330542183"><ele>83.0</ele><time>2026-04-25T14:52:43Z</time></trkpt><trkpt lat="40.51592180324494" lon="9.628525912825161"><ele>83.0</ele><time>2026-04-25T14:52:44Z</time></trkpt><trkpt lat="40.516186612522226" lon="9.62867018664162"><ele>80.5</ele><time>2026-04-25T14:52:45Z</time></trkpt><trkpt lat="40.516448508509576" lon="9.628812420396292"><ele>78.0</ele><time>2026-04-25T14:52:46Z</time></trkpt><trkpt lat="40.51669605902946" lon="9.628951383495018"><ele>78.0</ele><time>2026-04-25T14:52:47Z</time></trkpt><trkpt lat="40.5169433355766" lon="9.629089935313113"><ele>78.0</ele><time>2026-04-25T14:52:48Z</time></trkpt><trkpt lat="40.51719113473743" lon="9.62923000352651"><ele>77.5</ele><time>2026-04-25T14:52:49Z</time></trkpt><trkpt lat="40.51744230193425" lon="9.629369743252248"><ele>77.0</ele><time>2026-04-25T14:52:50Z</time></trkpt><trkpt lat="40.51769966776794" lon="9.629514493552668"><ele>76.0</ele><time>2026-04-25T14:52:51Z</time></trkpt><trkpt lat="40.517951968071905" lon="9.629658055201835"><ele>75.0</ele><time>2026-04-25T14:52:52Z</time></trkpt><trkpt lat="40.51820040761995" lon="9.629796737893484"><ele>75.0</ele><time>2026-04-25T14:52:53Z</time></trkpt><trkpt lat="40.51844068871217" lon="9.629928663517246"><ele>75.0</ele><time>2026-04-25T14:52:54Z</time></trkpt><trkpt lat="40.51867805893087" lon="9.630061387612043"><ele>73.5</ele><time>2026-04-25T14:52:55Z</time></trkpt><trkpt lat="40.5189167239962" lon="9.630196254196893"><ele>72.0</ele><time>2026-04-25T14:52:56Z</time></trkpt><trkpt lat="40.519165872486006" lon="9.630334904716221"><ele>72.0</ele><time>2026-04-25T14:52:57Z</time></trkpt><trkpt lat="40.51942307508225" lon="9.630477418791767"><ele>72.0</ele><time>2026-04-25T14:52:58Z</time></trkpt><trkpt lat="40.51968813254159" lon="9.630624133780262"><ele>73.5</ele><time>2026-04-25T14:52:59Z</time></trkpt><trkpt lat="40.51995032851939" lon="9.630768339969357"><ele>75.0</ele><time>2026-04-25T14:53:00Z</time></trkpt><trkpt lat="40.520210808894355" lon="9.630914364755265"><ele>73.0</ele><time>2026-04-25T14:53:01Z</time></trkpt><trkpt lat="40.52047811077416" lon="9.631059517941805"><ele>71.0</ele><time>2026-04-25T14:53:02Z</time></trkpt><trkpt lat="40.5207429094201" lon="9.631207958286133"><ele>71.0</ele><time>2026-04-25T14:53:03Z</time></trkpt><trkpt lat="40.52098989946122" lon="9.631349071728398"><ele>71.0</ele><time>2026-04-25T14:53:04Z</time></trkpt><trkpt lat="40.52122653462013" lon="9.631489598941583"><ele>74.0</ele><time>2026-04-25T14:53:05Z</time></trkpt><trkpt lat="40.52145652518307" lon="9.631639727438259"><ele>77.0</ele><time>2026-04-25T14:53:06Z</time></trkpt><trkpt lat="40.52168210319184" lon="9.631801709853015"><ele>73.5</ele><time>2026-04-25T14:53:07Z</time></trkpt><trkpt lat="40.52190512386498" lon="9.631979681513707"><ele>70.0</ele><time>2026-04-25T14:53:08Z</time></trkpt><trkpt lat="40.52212665842012" lon="9.632164081967185"><ele>70.0</ele><time>2026-04-25T14:53:09Z</time></trkpt><trkpt lat="40.522338468066046" lon="9.632354483512248"><ele>70.0</ele><time>2026-04-25T14:53:10Z</time></trkpt><trkpt lat="40.52253876820066" lon="9.632555238438638"><ele>70.0</ele><time>2026-04-25T14:53:11Z</time></trkpt><trkpt lat="40.52274178683087" lon="9.632758074088153"><ele>70.0</ele><time>2026-04-25T14:53:12Z</time></trkpt><trkpt lat="40.52294401758361" lon="9.632961223496324"><ele>70.0</ele><time>2026-04-25T14:53:13Z</time></trkpt><trkpt lat="40.52314485065083" lon="9.633163255095056"><ele>70.0</ele><time>2026-04-25T14:53:14Z</time></trkpt><trkpt lat="40.523346886163765" lon="9.6333657957138"><ele>70.0</ele><time>2026-04-25T14:53:15Z</time></trkpt><trkpt lat="40.5235513451612" lon="9.633570712974358"><ele>70.0</ele><time>2026-04-25T14:53:16Z</time></trkpt><trkpt lat="40.523755616470304" lon="9.633776209357173"><ele>70.0</ele><time>2026-04-25T14:53:17Z</time></trkpt><trkpt lat="40.52396328078618" lon="9.633984484538876"><ele>70.0</ele><time>2026-04-25T14:53:18Z</time></trkpt><trkpt lat="40.52416993236133" lon="9.634193522901063"><ele>70.0</ele><time>2026-04-25T14:53:19Z</time></trkpt><trkpt lat="40.52437911572875" lon="9.634404481877782"><ele>70.0</ele><time>2026-04-25T14:53:20Z</time></trkpt><trkpt lat="40.52459156884447" lon="9.634614560427998"><ele>67.5</ele><time>2026-04-25T14:53:21Z</time></trkpt><trkpt lat="40.52480394241182" lon="9.634825916697826"><ele>65.0</ele><time>2026-04-25T14:53:22Z</time></trkpt><trkpt lat="40.525021243238974" lon="9.635041458091084"><ele>65.0</ele><time>2026-04-25T14:53:23Z</time></trkpt><trkpt lat="40.52523846699748" lon="9.635256940581515"><ele>65.0</ele><time>2026-04-25T14:53:24Z</time></trkpt><trkpt lat="40.52545008505827" lon="9.635469220656239"><ele>63.0</ele><time>2026-04-25T14:53:25Z</time></trkpt><trkpt lat="40.52566068641844" lon="9.635681249797965"><ele>61.0</ele><time>2026-04-25T14:53:26Z</time></trkpt><trkpt lat="40.52586585588437" lon="9.635887002029044"><ele>61.0</ele><time>2026-04-25T14:53:27Z</time></trkpt><trkpt lat="40.526068970596874" lon="9.63608943931011"><ele>61.0</ele><time>2026-04-25T14:53:28Z</time></trkpt><trkpt lat="40.5262731810061" lon="9.636290741932141"><ele>61.0</ele><time>2026-04-25T14:53:29Z</time></trkpt><trkpt lat="40.52647541546611" lon="9.636493011655684"><ele>61.0</ele><time>2026-04-25T14:53:30Z</time></trkpt><trkpt lat="40.52667613210036" lon="9.636694480409888"><ele>61.0</ele><time>2026-04-25T14:53:31Z</time></trkpt><trkpt lat="40.52687577218581" lon="9.636897719147063"><ele>61.0</ele><time>2026-04-25T14:53:32Z</time></trkpt><trkpt lat="40.52707644036174" lon="9.637097807257451"><ele>60.0</ele><time>2026-04-25T14:53:33Z</time></trkpt><trkpt lat="40.52727966114484" lon="9.637303729018837"><ele>59.0</ele><time>2026-04-25T14:53:34Z</time></trkpt><trkpt lat="40.52748512397458" lon="9.6375093155463"><ele>59.0</ele><time>2026-04-25T14:53:35Z</time></trkpt><trkpt lat="40.52769706165661" lon="9.6377218437865"><ele>59.0</ele><time>2026-04-25T14:53:36Z</time></trkpt><trkpt lat="40.52791380835281" lon="9.63793576011881"><ele>58.0</ele><time>2026-04-25T14:53:37Z</time></trkpt><trkpt lat="40.52813683794703" lon="9.638159018077426"><ele>57.0</ele><time>2026-04-25T14:53:38Z</time></trkpt><trkpt lat="40.528361774414826" lon="9.638386252086558"><ele>57.0</ele><time>2026-04-25T14:53:39Z</time></trkpt><trkpt lat="40.52858170509646" lon="9.638608807619477"><ele>57.0</ele><time>2026-04-25T14:53:40Z</time></trkpt><trkpt lat="40.528791907746985" lon="9.63883091102873"><ele>57.5</ele><time>2026-04-25T14:53:41Z</time></trkpt><trkpt lat="40.528991166963976" lon="9.63906021474422"><ele>58.0</ele><time>2026-04-25T14:53:42Z</time></trkpt><trkpt lat="40.529183358416056" lon="9.639298845991721"><ele>56.5</ele><time>2026-04-25T14:53:43Z</time></trkpt><trkpt lat="40.529367688828344" lon="9.63954766435133"><ele>55.0</ele><time>2026-04-25T14:53:44Z</time></trkpt><trkpt lat="40.52955004690294" lon="9.639809750160946"><ele>58.0</ele><time>2026-04-25T14:53:45Z</time></trkpt><trkpt lat="40.529730263717255" lon="9.640087786878825"><ele>61.0</ele><time>2026-04-25T14:53:46Z</time></trkpt><trkpt lat="40.5299018419788" lon="9.64038059536606"><ele>62.0</ele><time>2026-04-25T14:53:47Z</time></trkpt><trkpt lat="40.530071213097685" lon="9.640684255283745"><ele>63.0</ele><time>2026-04-25T14:53:48Z</time></trkpt><trkpt lat="40.530240115266785" lon="9.640991518232216"><ele>63.5</ele><time>2026-04-25T14:53:49Z</time></trkpt><trkpt lat="40.53040357628576" lon="9.641284827035218"><ele>64.0</ele><time>2026-04-25T14:53:50Z</time></trkpt><trkpt lat="40.53056626139665" lon="9.641569093852763"><ele>64.0</ele><time>2026-04-25T14:53:51Z</time></trkpt><trkpt lat="40.53072710628027" lon="9.641848805504496"><ele>64.0</ele><time>2026-04-25T14:53:52Z</time></trkpt><trkpt lat="40.53088517501533" lon="9.642126202484251"><ele>63.0</ele><time>2026-04-25T14:53:53Z</time></trkpt><trkpt lat="40.53104614686584" lon="9.642409315317924"><ele>62.0</ele><time>2026-04-25T14:53:54Z</time></trkpt><trkpt lat="40.531208509411194" lon="9.642696430363104"><ele>62.0</ele><time>2026-04-25T14:53:55Z</time></trkpt><trkpt lat="40.531372737492234" lon="9.642983074583974"><ele>62.0</ele><time>2026-04-25T14:53:56Z</time></trkpt><trkpt lat="40.5315423231154" lon="9.643280434244915"><ele>62.0</ele><time>2026-04-25T14:53:57Z</time></trkpt><trkpt lat="40.531714312477966" lon="9.643581076570793"><ele>62.0</ele><time>2026-04-25T14:53:58Z</time></trkpt><trkpt lat="40.53188773843089" lon="9.643884370475748"><ele>62.5</ele><time>2026-04-25T14:53:59Z</time></trkpt><trkpt lat="40.53206101419354" lon="9.644189730822898"><ele>63.0</ele><time>2026-04-25T14:54:00Z</time></trkpt><trkpt lat="40.53223502494619" lon="9.644498072588572"><ele>61.5</ele><time>2026-04-25T14:54:01Z</time></trkpt><trkpt lat="40.532407625627535" lon="9.644803551432172"><ele>60.0</ele><time>2026-04-25T14:54:02Z</time></trkpt><trkpt lat="40.53257908409113" lon="9.645109169791422"><ele>58.5</ele><time>2026-04-25T14:54:03Z</time></trkpt><trkpt lat="40.53274302725101" lon="9.645396671738853"><ele>57.0</ele><time>2026-04-25T14:54:04Z</time></trkpt><trkpt lat="40.53290578702764" lon="9.645683551080174"><ele>59.5</ele><time>2026-04-25T14:54:05Z</time></trkpt><trkpt lat="40.53306667858342" lon="9.645965213703116"><ele>62.0</ele><time>2026-04-25T14:54:06Z</time></trkpt><trkpt lat="40.5332305202567" lon="9.646254688045586"><ele>62.0</ele><time>2026-04-25T14:54:07Z</time></trkpt><trkpt lat="40.53339623650255" lon="9.646548248019425"><ele>62.0</ele><time>2026-04-25T14:54:08Z</time></trkpt><trkpt lat="40.533563344626565" lon="9.646843217381718"><ele>63.5</ele><time>2026-04-25T14:54:09Z</time></trkpt><trkpt lat="40.53373379736546" lon="9.647142870242755"><ele>65.0</ele><time>2026-04-25T14:54:10Z</time></trkpt><trkpt lat="40.53389790076097" lon="9.647430577372697"><ele>65.0</ele><time>2026-04-25T14:54:11Z</time></trkpt><trkpt lat="40.534057386115364" lon="9.647709569804144"><ele>65.0</ele><time>2026-04-25T14:54:12Z</time></trkpt><trkpt lat="40.53421495960833" lon="9.647983856452925"><ele>62.0</ele><time>2026-04-25T14:54:13Z</time></trkpt><trkpt lat="40.53436936346359" lon="9.648251275812152"><ele>59.0</ele><time>2026-04-25T14:54:14Z</time></trkpt><trkpt lat="40.534519971849974" lon="9.648519495926253"><ele>62.0</ele><time>2026-04-25T14:54:15Z</time></trkpt><trkpt lat="40.534668650959276" lon="9.648783509149839"><ele>65.0</ele><time>2026-04-25T14:54:16Z</time></trkpt><trkpt lat="40.53481888971442" lon="9.649051287368973"><ele>65.0</ele><time>2026-04-25T14:54:17Z</time></trkpt><trkpt lat="40.53497414608272" lon="9.649324500709934"><ele>65.0</ele><time>2026-04-25T14:54:18Z</time></trkpt><trkpt lat="40.535135895615454" lon="9.64961148170041"><ele>66.5</ele><time>2026-04-25T14:54:19Z</time></trkpt><trkpt lat="40.53530254888231" lon="9.649906382329148"><ele>68.0</ele><time>2026-04-25T14:54:20Z</time></trkpt><trkpt lat="40.53547218226562" lon="9.6502052380456"><ele>65.5</ele><time>2026-04-25T14:54:21Z</time></trkpt><trkpt lat="40.535644622032166" lon="9.650505613215321"><ele>63.0</ele><time>2026-04-25T14:54:22Z</time></trkpt><trkpt lat="40.5358209549222" lon="9.650813231913416"><ele>59.0</ele><time>2026-04-25T14:54:23Z</time></trkpt><trkpt lat="40.53599867350846" lon="9.651126683601442"><ele>55.0</ele><time>2026-04-25T14:54:24Z</time></trkpt><trkpt lat="40.536177079364066" lon="9.651440388463845"><ele>57.0</ele><time>2026-04-25T14:54:25Z</time></trkpt><trkpt lat="40.53635786399144" lon="9.651758405754622"><ele>59.0</ele><time>2026-04-25T14:54:26Z</time></trkpt><trkpt lat="40.536535354087555" lon="9.65206952109615"><ele>59.0</ele><time>2026-04-25T14:54:27Z</time></trkpt><trkpt lat="40.53670648997071" lon="9.652370594244129"><ele>59.0</ele><time>2026-04-25T14:54:28Z</time></trkpt><trkpt lat="40.53686970767915" lon="9.652658857902182"><ele>57.0</ele><time>2026-04-25T14:54:29Z</time></trkpt><trkpt lat="40.53703122184313" lon="9.652943144209136"><ele>55.0</ele><time>2026-04-25T14:54:30Z</time></trkpt><trkpt lat="40.5371910936674" lon="9.653226981119712"><ele>56.0</ele><time>2026-04-25T14:54:31Z</time></trkpt><trkpt lat="40.53734694411836" lon="9.653504340872328"><ele>57.0</ele><time>2026-04-25T14:54:32Z</time></trkpt><trkpt lat="40.53749718786441" lon="9.653771257075539"><ele>57.0</ele><time>2026-04-25T14:54:33Z</time></trkpt><trkpt lat="40.53764184811006" lon="9.654027167566452"><ele>57.0</ele><time>2026-04-25T14:54:34Z</time></trkpt><trkpt lat="40.5377855082524" lon="9.65428085282957"><ele>58.0</ele><time>2026-04-25T14:54:35Z</time></trkpt><trkpt lat="40.5379279861477" lon="9.654537619798221"><ele>59.0</ele><time>2026-04-25T14:54:36Z</time></trkpt><trkpt lat="40.53807369832202" lon="9.654793003226771"><ele>59.0</ele><time>2026-04-25T14:54:37Z</time></trkpt><trkpt lat="40.538221039207144" lon="9.655050860618507"><ele>59.0</ele><time>2026-04-25T14:54:38Z</time></trkpt><trkpt lat="40.53836986306653" lon="9.655313520225475"><ele>58.0</ele><time>2026-04-25T14:54:39Z</time></trkpt><trkpt lat="40.53852466982265" lon="9.655586159313726"><ele>57.0</ele><time>2026-04-25T14:54:40Z</time></trkpt><trkpt lat="40.538685240942485" lon="9.655867307508503"><ele>57.5</ele><time>2026-04-25T14:54:41Z</time></trkpt><trkpt lat="40.53884638831127" lon="9.656151846326772"><ele>58.0</ele><time>2026-04-25T14:54:42Z</time></trkpt><trkpt lat="40.539010981493924" lon="9.656441969618905"><ele>58.0</ele><time>2026-04-25T14:54:43Z</time></trkpt><trkpt lat="40.53917753993437" lon="9.656732275179207"><ele>58.0</ele><time>2026-04-25T14:54:44Z</time></trkpt><trkpt lat="40.5393366910445" lon="9.657009770813378"><ele>56.5</ele><time>2026-04-25T14:54:45Z</time></trkpt><trkpt lat="40.53949204331961" lon="9.657284059700142"><ele>55.0</ele><time>2026-04-25T14:54:46Z</time></trkpt><trkpt lat="40.53964445844241" lon="9.657558055390696"><ele>58.0</ele><time>2026-04-25T14:54:47Z</time></trkpt><trkpt lat="40.539799068996004" lon="9.657833339940225"><ele>61.0</ele><time>2026-04-25T14:54:48Z</time></trkpt><trkpt lat="40.53995988679026" lon="9.65811638825446"><ele>61.0</ele><time>2026-04-25T14:54:49Z</time></trkpt><trkpt lat="40.5401247980712" lon="9.658406079822576"><ele>61.0</ele><time>2026-04-25T14:54:50Z</time></trkpt><trkpt lat="40.54028725880632" lon="9.658695012042411"><ele>61.5</ele><time>2026-04-25T14:54:51Z</time></trkpt><trkpt lat="40.54044511333354" lon="9.658974113845597"><ele>62.0</ele><time>2026-04-25T14:54:52Z</time></trkpt><trkpt lat="40.540598961357546" lon="9.659247918378114"><ele>62.0</ele><time>2026-04-25T14:54:53Z</time></trkpt><trkpt lat="40.54075321498096" lon="9.659516878750125"><ele>62.0</ele><time>2026-04-25T14:54:54Z</time></trkpt><trkpt lat="40.540905314814175" lon="9.659780671868898"><ele>62.0</ele><time>2026-04-25T14:54:55Z</time></trkpt><trkpt lat="40.54105698785321" lon="9.660047155259512"><ele>62.0</ele><time>2026-04-25T14:54:56Z</time></trkpt><trkpt lat="40.54121572003707" lon="9.660323373517352"><ele>63.0</ele><time>2026-04-25T14:54:57Z</time></trkpt><trkpt lat="40.541376676961896" lon="9.66060791575682"><ele>64.0</ele><time>2026-04-25T14:54:58Z</time></trkpt><trkpt lat="40.541541994012114" lon="9.66089839636962"><ele>61.0</ele><time>2026-04-25T14:54:59Z</time></trkpt><trkpt lat="40.54170425105874" lon="9.661185977651373"><ele>58.0</ele><time>2026-04-25T14:55:00Z</time></trkpt><trkpt lat="40.54186161468592" lon="9.661464493288804"><ele>58.0</ele><time>2026-04-25T14:55:01Z</time></trkpt><trkpt lat="40.54200804231595" lon="9.661722451767261"><ele>58.0</ele><time>2026-04-25T14:55:02Z</time></trkpt><trkpt lat="40.542157647084714" lon="9.661985274533981"><ele>58.5</ele><time>2026-04-25T14:55:03Z</time></trkpt><trkpt lat="40.54230655276362" lon="9.662247757913734"><ele>59.0</ele><time>2026-04-25T14:55:04Z</time></trkpt><trkpt lat="40.54245404447415" lon="9.662506361362672"><ele>59.0</ele><time>2026-04-25T14:55:05Z</time></trkpt><trkpt lat="40.542600595622034" lon="9.662766636601894"><ele>59.0</ele><time>2026-04-25T14:55:06Z</time></trkpt><trkpt lat="40.542750313236795" lon="9.663029607117101"><ele>60.0</ele><time>2026-04-25T14:55:07Z</time></trkpt><trkpt lat="40.542900588380064" lon="9.663291639028886"><ele>61.0</ele><time>2026-04-25T14:55:08Z</time></trkpt><trkpt lat="40.543053319308406" lon="9.663551495580668"><ele>57.5</ele><time>2026-04-25T14:55:09Z</time></trkpt><trkpt lat="40.54321266040693" lon="9.663803112930665"><ele>54.0</ele><time>2026-04-25T14:55:10Z</time></trkpt><trkpt lat="40.54337785302027" lon="9.664045672167335"><ele>54.0</ele><time>2026-04-25T14:55:11Z</time></trkpt><trkpt lat="40.54354449055012" lon="9.664287151170404"><ele>54.0</ele><time>2026-04-25T14:55:12Z</time></trkpt><trkpt lat="40.54371181752854" lon="9.664526494456462"><ele>53.5</ele><time>2026-04-25T14:55:13Z</time></trkpt><trkpt lat="40.54388108712526" lon="9.664769584058282"><ele>53.0</ele><time>2026-04-25T14:55:14Z</time></trkpt><trkpt lat="40.54405102624066" lon="9.665012819978843"><ele>53.0</ele><time>2026-04-25T14:55:15Z</time></trkpt><trkpt lat="40.544220278390995" lon="9.665257725120016"><ele>53.0</ele><time>2026-04-25T14:55:16Z</time></trkpt><trkpt lat="40.5443906554818" lon="9.665501301357793"><ele>51.0</ele><time>2026-04-25T14:55:17Z</time></trkpt><trkpt lat="40.54456088603056" lon="9.665745300209329"><ele>49.0</ele><time>2026-04-25T14:55:18Z</time></trkpt><trkpt lat="40.54473177886669" lon="9.665986841067983"><ele>47.0</ele><time>2026-04-25T14:55:19Z</time></trkpt><trkpt lat="40.544902485222345" lon="9.6662273864186"><ele>45.0</ele><time>2026-04-25T14:55:20Z</time></trkpt><trkpt lat="40.54507286555643" lon="9.6664730618303"><ele>45.0</ele><time>2026-04-25T14:55:21Z</time></trkpt><trkpt lat="40.54524826046495" lon="9.666725582186766"><ele>45.0</ele><time>2026-04-25T14:55:22Z</time></trkpt><trkpt lat="40.545422258818775" lon="9.666974295396361"><ele>43.5</ele><time>2026-04-25T14:55:23Z</time></trkpt><trkpt lat="40.54560135997897" lon="9.667227669172975"><ele>42.0</ele><time>2026-04-25T14:55:24Z</time></trkpt><trkpt lat="40.54577726668086" lon="9.667481474691108"><ele>42.0</ele><time>2026-04-25T14:55:25Z</time></trkpt><trkpt lat="40.54595716021523" lon="9.66773748195527"><ele>42.0</ele><time>2026-04-25T14:55:26Z</time></trkpt><trkpt lat="40.546137578338865" lon="9.667994883246719"><ele>42.0</ele><time>2026-04-25T14:55:27Z</time></trkpt><trkpt lat="40.54631873803068" lon="9.66825507603384"><ele>42.0</ele><time>2026-04-25T14:55:28Z</time></trkpt><trkpt lat="40.54649882327022" lon="9.668513203233328"><ele>41.5</ele><time>2026-04-25T14:55:29Z</time></trkpt><trkpt lat="40.546677045749696" lon="9.668766009646959"><ele>41.0</ele><time>2026-04-25T14:55:30Z</time></trkpt><trkpt lat="40.546852794194244" lon="9.66901391119354"><ele>41.0</ele><time>2026-04-25T14:55:31Z</time></trkpt><trkpt lat="40.547029412256194" lon="9.669257821982743"><ele>41.0</ele><time>2026-04-25T14:55:32Z</time></trkpt><trkpt lat="40.54720758283769" lon="9.669495545797508"><ele>40.0</ele><time>2026-04-25T14:55:33Z</time></trkpt><trkpt lat="40.54739554925466" lon="9.669730527066674"><ele>39.0</ele><time>2026-04-25T14:55:34Z</time></trkpt><trkpt lat="40.5475927272875" lon="9.669966409093055"><ele>39.0</ele><time>2026-04-25T14:55:35Z</time></trkpt><trkpt lat="40.547798846953825" lon="9.670199897492196"><ele>39.0</ele><time>2026-04-25T14:55:36Z</time></trkpt><trkpt lat="40.54801215614729" lon="9.670430857024032"><ele>39.0</ele><time>2026-04-25T14:55:37Z</time></trkpt><trkpt lat="40.54822089079251" lon="9.670644863919478"><ele>39.0</ele><time>2026-04-25T14:55:38Z</time></trkpt><trkpt lat="40.548430748227595" lon="9.670850769347203"><ele>39.0</ele><time>2026-04-25T14:55:39Z</time></trkpt><trkpt lat="40.54863949729281" lon="9.671043632748507"><ele>39.0</ele><time>2026-04-25T14:55:40Z</time></trkpt><trkpt lat="40.54885046055425" lon="9.67122757850837"><ele>40.0</ele><time>2026-04-25T14:55:41Z</time></trkpt><trkpt lat="40.549064737455886" lon="9.67140559238264"><ele>41.0</ele><time>2026-04-25T14:55:42Z</time></trkpt><trkpt lat="40.54928459933164" lon="9.671576695803633"><ele>41.0</ele><time>2026-04-25T14:55:43Z</time></trkpt><trkpt lat="40.54950719042305" lon="9.671741820796887"><ele>41.0</ele><time>2026-04-25T14:55:44Z</time></trkpt><trkpt lat="40.54973299995671" lon="9.671898968855963"><ele>43.5</ele><time>2026-04-25T14:55:45Z</time></trkpt><trkpt lat="40.54996837671462" lon="9.672051868380024"><ele>46.0</ele><time>2026-04-25T14:55:46Z</time></trkpt><trkpt lat="40.55020915827192" lon="9.672202901186653"><ele>48.0</ele><time>2026-04-25T14:55:47Z</time></trkpt><trkpt lat="40.5504579473491" lon="9.67235633902653"><ele>50.0</ele><time>2026-04-25T14:55:48Z</time></trkpt><trkpt lat="40.550714415134095" lon="9.67251018813631"><ele>50.0</ele><time>2026-04-25T14:55:49Z</time></trkpt><trkpt lat="40.55097153017945" lon="9.672661527922086"><ele>50.0</ele><time>2026-04-25T14:55:50Z</time></trkpt><trkpt lat="40.55122320203207" lon="9.67280753300255"><ele>50.5</ele><time>2026-04-25T14:55:51Z</time></trkpt><trkpt lat="40.551469834971016" lon="9.672953814228077"><ele>51.0</ele><time>2026-04-25T14:55:52Z</time></trkpt><trkpt lat="40.5517167042777" lon="9.673097730421016"><ele>51.0</ele><time>2026-04-25T14:55:53Z</time></trkpt><trkpt lat="40.5519604728821" lon="9.673241697942304"><ele>51.0</ele><time>2026-04-25T14:55:54Z</time></trkpt><trkpt lat="40.55220121005138" lon="9.673386260160093"><ele>51.5</ele><time>2026-04-25T14:55:55Z</time></trkpt><trkpt lat="40.55243789946323" lon="9.673525844901823"><ele>52.0</ele><time>2026-04-25T14:55:56Z</time></trkpt><trkpt lat="40.552675505969724" lon="9.67366675210678"><ele>54.0</ele><time>2026-04-25T14:55:57Z</time></trkpt><trkpt lat="40.55291203692912" lon="9.673807635065456"><ele>56.0</ele><time>2026-04-25T14:55:58Z</time></trkpt><trkpt lat="40.55314492317287" lon="9.673947340900504"><ele>56.0</ele><time>2026-04-25T14:55:59Z</time></trkpt><trkpt lat="40.55337752641987" lon="9.674083697858904"><ele>56.0</ele><time>2026-04-25T14:56:00Z</time></trkpt><trkpt lat="40.553612290652524" lon="9.674223009285527"><ele>57.0</ele><time>2026-04-25T14:56:01Z</time></trkpt><trkpt lat="40.55383813425765" lon="9.674359055708916"><ele>58.0</ele><time>2026-04-25T14:56:02Z</time></trkpt><trkpt lat="40.554068004747585" lon="9.674493983605176"><ele>58.0</ele><time>2026-04-25T14:56:03Z</time></trkpt><trkpt lat="40.554298622608485" lon="9.67463029602956"><ele>58.0</ele><time>2026-04-25T14:56:04Z</time></trkpt><trkpt lat="40.55452771592374" lon="9.674763540165216"><ele>59.0</ele><time>2026-04-25T14:56:05Z</time></trkpt><trkpt lat="40.55475522700759" lon="9.67489765110281"><ele>60.0</ele><time>2026-04-25T14:56:06Z</time></trkpt><trkpt lat="40.554983729031335" lon="9.675031449173833"><ele>60.0</ele><time>2026-04-25T14:56:07Z</time></trkpt><trkpt lat="40.5552104551256" lon="9.675163954849108"><ele>60.0</ele><time>2026-04-25T14:56:08Z</time></trkpt><trkpt lat="40.555438119872996" lon="9.67529471531645"><ele>57.5</ele><time>2026-04-25T14:56:09Z</time></trkpt><trkpt lat="40.55565882965384" lon="9.675426427294676"><ele>55.0</ele><time>2026-04-25T14:56:10Z</time></trkpt><trkpt lat="40.555877305216534" lon="9.675559003688146"><ele>55.0</ele><time>2026-04-25T14:56:11Z</time></trkpt><trkpt lat="40.55609861998134" lon="9.675691499206527"><ele>55.0</ele><time>2026-04-25T14:56:12Z</time></trkpt><trkpt lat="40.55631521706046" lon="9.675823466302305"><ele>55.5</ele><time>2026-04-25T14:56:13Z</time></trkpt><trkpt lat="40.556532828380426" lon="9.675951453615925"><ele>56.0</ele><time>2026-04-25T14:56:14Z</time></trkpt><trkpt lat="40.556753647917155" lon="9.676079836158953"><ele>53.5</ele><time>2026-04-25T14:56:15Z</time></trkpt><trkpt lat="40.55697537893552" lon="9.676205709878719"><ele>51.0</ele><time>2026-04-25T14:56:16Z</time></trkpt><trkpt lat="40.55719899524076" lon="9.676333229002717"><ele>51.0</ele><time>2026-04-25T14:56:17Z</time></trkpt><trkpt lat="40.55742450447457" lon="9.676458949415581"><ele>51.0</ele><time>2026-04-25T14:56:18Z</time></trkpt><trkpt lat="40.55765254422026" lon="9.67658052567213"><ele>53.0</ele><time>2026-04-25T14:56:19Z</time></trkpt><trkpt lat="40.557881869618704" lon="9.676696264750559"><ele>55.0</ele><time>2026-04-25T14:56:20Z</time></trkpt><trkpt lat="40.55811428837682" lon="9.676804176450075"><ele>55.0</ele><time>2026-04-25T14:56:21Z</time></trkpt><trkpt lat="40.55834228212903" lon="9.676903922343408"><ele>55.0</ele><time>2026-04-25T14:56:22Z</time></trkpt><trkpt lat="40.558563475815845" lon="9.676998372398808"><ele>52.0</ele><time>2026-04-25T14:56:23Z</time></trkpt><trkpt lat="40.558783430410244" lon="9.677092878186686"><ele>49.0</ele><time>2026-04-25T14:56:24Z</time></trkpt><trkpt lat="40.55900391433182" lon="9.677187040417573"><ele>49.0</ele><time>2026-04-25T14:56:25Z</time></trkpt><trkpt lat="40.559220060611786" lon="9.677287044303224"><ele>49.0</ele><time>2026-04-25T14:56:26Z</time></trkpt><trkpt lat="40.559436246818755" lon="9.677390358021292"><ele>51.0</ele><time>2026-04-25T14:56:27Z</time></trkpt><trkpt lat="40.55965511019688" lon="9.677490739327812"><ele>53.0</ele><time>2026-04-25T14:56:28Z</time></trkpt><trkpt lat="40.55988508001722" lon="9.677588851906211"><ele>53.0</ele><time>2026-04-25T14:56:29Z</time></trkpt><trkpt lat="40.56010929552858" lon="9.677683394808321"><ele>53.0</ele><time>2026-04-25T14:56:30Z</time></trkpt><trkpt lat="40.56032800141083" lon="9.67778147964912"><ele>51.5</ele><time>2026-04-25T14:56:31Z</time></trkpt><trkpt lat="40.56054611553882" lon="9.677878562556407"><ele>50.0</ele><time>2026-04-25T14:56:32Z</time></trkpt><trkpt lat="40.56076687261712" lon="9.677974242448899"><ele>50.0</ele><time>2026-04-25T14:56:33Z</time></trkpt><trkpt lat="40.56098567090461" lon="9.6780717180121"><ele>50.0</ele><time>2026-04-25T14:56:34Z</time></trkpt><trkpt lat="40.56118902578718" lon="9.67816221576125"><ele>50.0</ele><time>2026-04-25T14:56:35Z</time></trkpt><trkpt lat="40.56137968540705" lon="9.678245217614748"><ele>50.333333333333336</ele><time>2026-04-25T14:56:36Z</time></trkpt><trkpt lat="40.56156956147078" lon="9.678328491692723"><ele>50.66666666666667</ele><time>2026-04-25T14:56:37Z</time></trkpt><trkpt lat="40.56176748299437" lon="9.678416967121237"><ele>51.0</ele><time>2026-04-25T14:56:38Z</time></trkpt><trkpt lat="40.561972521958815" lon="9.678501186560666"><ele>50.5</ele><time>2026-04-25T14:56:39Z</time></trkpt><trkpt lat="40.56218353383678" lon="9.678591270024276"><ele>50.0</ele><time>2026-04-25T14:56:40Z</time></trkpt><trkpt lat="40.56240732841031" lon="9.678686592893769"><ele>51.5</ele><time>2026-04-25T14:56:41Z</time></trkpt><trkpt lat="40.56264001463116" lon="9.678790857896256"><ele>53.0</ele><time>2026-04-25T14:56:42Z</time></trkpt><trkpt lat="40.56288105190264" lon="9.67889663769015"><ele>53.0</ele><time>2026-04-25T14:56:43Z</time></trkpt><trkpt lat="40.56311119069176" lon="9.67899943669407"><ele>53.0</ele><time>2026-04-25T14:56:44Z</time></trkpt><trkpt lat="40.56332770147572" lon="9.67909176799523"><ele>53.0</ele><time>2026-04-25T14:56:45Z</time></trkpt><trkpt lat="40.56354056700474" lon="9.679184136172893"><ele>53.0</ele><time>2026-04-25T14:56:46Z</time></trkpt><trkpt lat="40.563751340277165" lon="9.679280161333008"><ele>53.0</ele><time>2026-04-25T14:56:47Z</time></trkpt><trkpt lat="40.56395714898382" lon="9.679373800886554"><ele>55.0</ele><time>2026-04-25T14:56:48Z</time></trkpt><trkpt lat="40.56415967876384" lon="9.679464410695584"><ele>57.0</ele><time>2026-04-25T14:56:49Z</time></trkpt><trkpt lat="40.564361799672106" lon="9.679550947195661"><ele>59.0</ele><time>2026-04-25T14:56:50Z</time></trkpt><trkpt lat="40.564565679326606" lon="9.67964120302065"><ele>60.333333333333336</ele><time>2026-04-25T14:56:51Z</time></trkpt><trkpt lat="40.56477426269262" lon="9.679735415729786"><ele>61.66666666666667</ele><time>2026-04-25T14:56:52Z</time></trkpt><trkpt lat="40.56498881860252" lon="9.679830917318222"><ele>63.0</ele><time>2026-04-25T14:56:53Z</time></trkpt><trkpt lat="40.565193056927576" lon="9.679924071270479"><ele>64.33333333333333</ele><time>2026-04-25T14:56:54Z</time></trkpt><trkpt lat="40.56539584047277" lon="9.680013588040453"><ele>65.66666666666666</ele><time>2026-04-25T14:56:55Z</time></trkpt><trkpt lat="40.565597390581026" lon="9.680104753327685"><ele>67.0</ele><time>2026-04-25T14:56:56Z</time></trkpt><trkpt lat="40.56579641228498" lon="9.680189861254098"><ele>66.66666666666666</ele><time>2026-04-25T14:56:57Z</time></trkpt><trkpt lat="40.565990910029434" lon="9.680274156770974"><ele>66.33333333333333</ele><time>2026-04-25T14:56:58Z</time></trkpt><trkpt lat="40.5661784981757" lon="9.680356610590009"><ele>66.0</ele><time>2026-04-25T14:56:59Z</time></trkpt><trkpt lat="40.56635843613552" lon="9.680433533226353"><ele>66.0</ele><time>2026-04-25T14:57:00Z</time></trkpt><trkpt lat="40.566536371879835" lon="9.680511918460649"><ele>66.0</ele><time>2026-04-25T14:57:01Z</time></trkpt><trkpt lat="40.56671109384731" lon="9.680590003087277"><ele>66.0</ele><time>2026-04-25T14:57:02Z</time></trkpt><trkpt lat="40.56688448548716" lon="9.680672831736448"><ele>68.0</ele><time>2026-04-25T14:57:03Z</time></trkpt><trkpt lat="40.56705440408659" lon="9.680754619263373"><ele>70.0</ele><time>2026-04-25T14:57:04Z</time></trkpt><trkpt lat="40.56722552019574" lon="9.680828836748539"><ele>72.0</ele><time>2026-04-25T14:57:05Z</time></trkpt><trkpt lat="40.567398890788276" lon="9.680903284910903"><ele>72.0</ele><time>2026-04-25T14:57:06Z</time></trkpt><trkpt lat="40.56757412734527" lon="9.680979140378549"><ele>72.0</ele><time>2026-04-25T14:57:07Z</time></trkpt><trkpt lat="40.56774180124147" lon="9.681051532558987"><ele>72.0</ele><time>2026-04-25T14:57:08Z</time></trkpt><trkpt lat="40.56790155931739" lon="9.681121131764572"><ele>72.0</ele><time>2026-04-25T14:57:09Z</time></trkpt><trkpt lat="40.56805610177382" lon="9.681191076573056"><ele>72.0</ele><time>2026-04-25T14:57:10Z</time></trkpt><trkpt lat="40.568215644349955" lon="9.681261664929952"><ele>72.0</ele><time>2026-04-25T14:57:11Z</time></trkpt><trkpt lat="40.568377690535584" lon="9.681332637341505"><ele>72.0</ele><time>2026-04-25T14:57:12Z</time></trkpt><trkpt lat="40.56853813865241" lon="9.681403855973794"><ele>72.0</ele><time>2026-04-25T14:57:13Z</time></trkpt><trkpt lat="40.568700828088026" lon="9.681472999238494"><ele>72.0</ele><time>2026-04-25T14:57:14Z</time></trkpt><trkpt lat="40.56886803466852" lon="9.681548641845211"><ele>73.33333333333333</ele><time>2026-04-25T14:57:15Z</time></trkpt><trkpt lat="40.56905605876224" lon="9.681632296312038"><ele>74.66666666666666</ele><time>2026-04-25T14:57:16Z</time></trkpt><trkpt lat="40.56925286946195" lon="9.681719726400708"><ele>76.0</ele><time>2026-04-25T14:57:17Z</time></trkpt><trkpt lat="40.56945191360007" lon="9.681811218476035"><ele>74.66666666666666</ele><time>2026-04-25T14:57:18Z</time></trkpt><trkpt lat="40.569645468822145" lon="9.681907601980823"><ele>73.33333333333333</ele><time>2026-04-25T14:57:19Z</time></trkpt><trkpt lat="40.56983675936108" lon="9.682011063000633"><ele>72.0</ele><time>2026-04-25T14:57:20Z</time></trkpt><trkpt lat="40.57002813130581" lon="9.682121986278537"><ele>71.66666666666667</ele><time>2026-04-25T14:57:21Z</time></trkpt><trkpt lat="40.570218632012356" lon="9.682241453633337"><ele>71.33333333333334</ele><time>2026-04-25T14:57:22Z</time></trkpt><trkpt lat="40.5704099838031" lon="9.682369721609257"><ele>71.0</ele><time>2026-04-25T14:57:23Z</time></trkpt><trkpt lat="40.57060404687902" lon="9.682501303807891"><ele>75.66666666666667</ele><time>2026-04-25T14:57:24Z</time></trkpt><trkpt lat="40.57079259158099" lon="9.682642511714477"><ele>80.33333333333333</ele><time>2026-04-25T14:57:25Z</time></trkpt><trkpt lat="40.57095414195743" lon="9.682801077281956"><ele>85.0</ele><time>2026-04-25T14:57:26Z</time></trkpt><trkpt lat="40.57115863545826" lon="9.682945304225738"><ele>88.0</ele><time>2026-04-25T14:57:27Z</time></trkpt><trkpt lat="40.571352839032365" lon="9.683113209580993"><ele>91.0</ele><time>2026-04-25T14:57:28Z</time></trkpt><trkpt lat="40.57153556422759" lon="9.683279430368419"><ele>91.0</ele><time>2026-04-25T14:57:29Z</time></trkpt><trkpt lat="40.5717030657551" lon="9.683430213104861"><ele>91.0</ele><time>2026-04-25T14:57:30Z</time></trkpt><trkpt lat="40.57187214848562" lon="9.683579458312668"><ele>91.0</ele><time>2026-04-25T14:57:31Z</time></trkpt><trkpt lat="40.5720440330599" lon="9.68373366369543"><ele>88.0</ele><time>2026-04-25T14:57:32Z</time></trkpt><trkpt lat="40.572231903180565" lon="9.683895671511168"><ele>85.0</ele><time>2026-04-25T14:57:33Z</time></trkpt><trkpt lat="40.572425471256324" lon="9.684051643415236"><ele>85.0</ele><time>2026-04-25T14:57:34Z</time></trkpt><trkpt lat="40.57262040353159" lon="9.684184190197657"><ele>85.0</ele><time>2026-04-25T14:57:35Z</time></trkpt><trkpt lat="40.57281438423128" lon="9.684307880307662"><ele>85.0</ele><time>2026-04-25T14:57:36Z</time></trkpt><trkpt lat="40.57300506065364" lon="9.684431780034013"><ele>81.66666666666666</ele><time>2026-04-25T14:57:37Z</time></trkpt><trkpt lat="40.57318846876644" lon="9.684549231064587"><ele>78.33333333333333</ele><time>2026-04-25T14:57:38Z</time></trkpt><trkpt lat="40.573366239605114" lon="9.684666737822052"><ele>75.0</ele><time>2026-04-25T14:57:39Z</time></trkpt><trkpt lat="40.573542149604066" lon="9.684781051262961"><ele>79.66666666666667</ele><time>2026-04-25T14:57:40Z</time></trkpt><trkpt lat="40.57371682787422" lon="9.684895683457079"><ele>84.33333333333334</ele><time>2026-04-25T14:57:41Z</time></trkpt><trkpt lat="40.57388128780891" lon="9.68500807622963"><ele>89.0</ele><time>2026-04-25T14:57:42Z</time></trkpt><trkpt lat="40.57404328042384" lon="9.68512134275097"><ele>89.0</ele><time>2026-04-25T14:57:43Z</time></trkpt><trkpt lat="40.57419578686542" lon="9.685228336617428"><ele>89.0</ele><time>2026-04-25T14:57:44Z</time></trkpt><trkpt lat="40.57434683351896" lon="9.685337854689912"><ele>89.0</ele><time>2026-04-25T14:57:45Z</time></trkpt><trkpt lat="40.57449404197181" lon="9.685442177726658"><ele>105.66666666666667</ele><time>2026-04-25T14:57:46Z</time></trkpt><trkpt lat="40.574641727306265" lon="9.685541962554822"><ele>122.33333333333334</ele><time>2026-04-25T14:57:47Z</time></trkpt><trkpt lat="40.57479344300412" lon="9.685645488997602"><ele>139.0</ele><time>2026-04-25T14:57:48.021Z</time></trkpt><trkpt lat="40.57493884636697" lon="9.685742457518076"><ele>139.0</ele><time>2026-04-25T14:57:49.015Z</time></trkpt><trkpt lat="40.575080951654634" lon="9.685838594090493"><ele>139.0</ele><time>2026-04-25T14:57:50.02Z</time></trkpt><trkpt lat="40.57522014478815" lon="9.685936104604743"><ele>139.0</ele><time>2026-04-25T14:57:51.02Z</time></trkpt><trkpt lat="40.57536450194871" lon="9.686038956818411"><ele>153.33333333333334</ele><time>2026-04-25T14:57:52.019Z</time></trkpt><trkpt lat="40.57551652297926" lon="9.68614304825976"><ele>167.66666666666666</ele><time>2026-04-25T14:57:53.016Z</time></trkpt><trkpt lat="40.575667001712674" lon="9.686245726938289"><ele>182.0</ele><time>2026-04-25T14:57:54.016Z</time></trkpt><trkpt lat="40.575813618557746" lon="9.686348257159914"><ele>203.0</ele><time>2026-04-25T14:57:55.021Z</time></trkpt><trkpt lat="40.57718335090874" lon="9.68727706739324"><ele>63.0</ele><time>2026-04-25T14:58:05.709Z</time></trkpt><trkpt lat="40.58137379590476" lon="9.690434429803574"><ele>63.0</ele><time>2026-04-25T14:58:24Z</time></trkpt><trkpt lat="40.581532324816685" lon="9.690533523833578"><ele>63.0</ele><time>2026-04-25T14:58:25Z</time></trkpt><trkpt lat="40.58170986286001" lon="9.690712208352585"><ele>63.0</ele><time>2026-04-25T14:58:26Z</time></trkpt><trkpt lat="40.5819000559014" lon="9.69085911699702"><ele>60.0</ele><time>2026-04-25T14:58:27Z</time></trkpt><trkpt lat="40.582089501443335" lon="9.690998274907685"><ele>57.0</ele><time>2026-04-25T14:58:28Z</time></trkpt><trkpt lat="40.58228537196759" lon="9.691120419744546"><ele>54.0</ele><time>2026-04-25T14:58:29Z</time></trkpt><trkpt lat="40.582486637697336" lon="9.691227804295085"><ele>54.0</ele><time>2026-04-25T14:58:30Z</time></trkpt><trkpt lat="40.58269381793146" lon="9.691308645924543"><ele>54.0</ele><time>2026-04-25T14:58:31Z</time></trkpt><trkpt lat="40.582907368442726" lon="9.691381458408788"><ele>54.0</ele><time>2026-04-25T14:58:32Z</time></trkpt><trkpt lat="40.583123002688495" lon="9.691445235055316"><ele>54.0</ele><time>2026-04-25T14:58:33Z</time></trkpt><trkpt lat="40.58334037351699" lon="9.691499395709219"><ele>54.0</ele><time>2026-04-25T14:58:34Z</time></trkpt><trkpt lat="40.58356258773052" lon="9.69153162380808"><ele>54.0</ele><time>2026-04-25T14:58:35Z</time></trkpt><trkpt lat="40.583783180906856" lon="9.691544170382407"><ele>54.0</ele><time>2026-04-25T14:58:36Z</time></trkpt><trkpt lat="40.58401643831359" lon="9.691543320512626"><ele>54.0</ele><time>2026-04-25T14:58:37Z</time></trkpt><trkpt lat="40.584258460306835" lon="9.691524952041766"><ele>54.0</ele><time>2026-04-25T14:58:38Z</time></trkpt><trkpt lat="40.58451191070402" lon="9.691483668620714"><ele>54.0</ele><time>2026-04-25T14:58:39Z</time></trkpt><trkpt lat="40.58476315686906" lon="9.691430370457812"><ele>55.0</ele><time>2026-04-25T14:58:40Z</time></trkpt><trkpt lat="40.58499623162207" lon="9.691383074787487"><ele>56.0</ele><time>2026-04-25T14:58:41Z</time></trkpt><trkpt lat="40.58521634113089" lon="9.691364094212505"><ele>56.66666666666667</ele><time>2026-04-25T14:58:42Z</time></trkpt><trkpt lat="40.58543055308799" lon="9.69137133562046"><ele>57.33333333333333</ele><time>2026-04-25T14:58:43Z</time></trkpt><trkpt lat="40.58563747740309" lon="9.691385515239231"><ele>58.0</ele><time>2026-04-25T14:58:44Z</time></trkpt><trkpt lat="40.58584130675852" lon="9.691403496622206"><ele>58.0</ele><time>2026-04-25T14:58:45Z</time></trkpt><trkpt lat="40.58604332569668" lon="9.691430339198716"><ele>58.0</ele><time>2026-04-25T14:58:46Z</time></trkpt><trkpt lat="40.58624753356292" lon="9.691474924761717"><ele>58.0</ele><time>2026-04-25T14:58:47Z</time></trkpt><trkpt lat="40.5864587261824" lon="9.69153874861717"><ele>55.5</ele><time>2026-04-25T14:58:48Z</time></trkpt><trkpt lat="40.58667299880342" lon="9.69161561318447"><ele>53.0</ele><time>2026-04-25T14:58:49Z</time></trkpt><trkpt lat="40.586892046862" lon="9.69170508726716"><ele>52.0</ele><time>2026-04-25T14:58:50Z</time></trkpt><trkpt lat="40.587106997781184" lon="9.691816309438362"><ele>51.0</ele><time>2026-04-25T14:58:51Z</time></trkpt><trkpt lat="40.58732017920188" lon="9.691945748336167"><ele>50.5</ele><time>2026-04-25T14:58:52Z</time></trkpt><trkpt lat="40.58753131360524" lon="9.692088861851131"><ele>50.0</ele><time>2026-04-25T14:58:53Z</time></trkpt><trkpt lat="40.587743417425536" lon="9.692235046420155"><ele>48.5</ele><time>2026-04-25T14:58:54Z</time></trkpt><trkpt lat="40.587956779474524" lon="9.692383436275929"><ele>47.0</ele><time>2026-04-25T14:58:55Z</time></trkpt><trkpt lat="40.588183379774456" lon="9.692544624209667"><ele>47.0</ele><time>2026-04-25T14:58:56Z</time></trkpt><trkpt lat="40.58841773126355" lon="9.692707674903966"><ele>47.0</ele><time>2026-04-25T14:58:57Z</time></trkpt><trkpt lat="40.588661541966815" lon="9.69286026534633"><ele>49.0</ele><time>2026-04-25T14:58:58Z</time></trkpt><trkpt lat="40.58890711214207" lon="9.692985406449996"><ele>51.0</ele><time>2026-04-25T14:58:59Z</time></trkpt><trkpt lat="40.58915685375018" lon="9.693090099079798"><ele>51.0</ele><time>2026-04-25T14:59:00Z</time></trkpt><trkpt lat="40.58941455930744" lon="9.693178029195263"><ele>51.0</ele><time>2026-04-25T14:59:01Z</time></trkpt><trkpt lat="40.58968564784875" lon="9.693252113554605"><ele>50.5</ele><time>2026-04-25T14:59:02Z</time></trkpt><trkpt lat="40.58996362753158" lon="9.693309447208012"><ele>50.0</ele><time>2026-04-25T14:59:03Z</time></trkpt><trkpt lat="40.59024775133397" lon="9.693360502356681"><ele>49.0</ele><time>2026-04-25T14:59:04Z</time></trkpt><trkpt lat="40.59053693736591" lon="9.693408689870592"><ele>48.0</ele><time>2026-04-25T14:59:05Z</time></trkpt><trkpt lat="40.590827976490345" lon="9.69346245126332"><ele>48.0</ele><time>2026-04-25T14:59:06Z</time></trkpt><trkpt lat="40.591115158904955" lon="9.693513953746939"><ele>48.0</ele><time>2026-04-25T14:59:07Z</time></trkpt><trkpt lat="40.59138407140065" lon="9.69356356219167"><ele>47.0</ele><time>2026-04-25T14:59:08Z</time></trkpt><trkpt lat="40.59164453241282" lon="9.693615293052808"><ele>46.0</ele><time>2026-04-25T14:59:09Z</time></trkpt><trkpt lat="40.59190257890256" lon="9.693666987911927"><ele>47.5</ele><time>2026-04-25T14:59:10Z</time></trkpt><trkpt lat="40.592153584107095" lon="9.693718274869859"><ele>49.0</ele><time>2026-04-25T14:59:11Z</time></trkpt><trkpt lat="40.5923946178322" lon="9.69375893485126"><ele>49.0</ele><time>2026-04-25T14:59:12Z</time></trkpt><trkpt lat="40.592632972154725" lon="9.693794076508278"><ele>49.0</ele><time>2026-04-25T14:59:13Z</time></trkpt><trkpt lat="40.592871957644725" lon="9.693826147957688"><ele>49.5</ele><time>2026-04-25T14:59:14Z</time></trkpt><trkpt lat="40.59310868835505" lon="9.693856685384583"><ele>50.0</ele><time>2026-04-25T14:59:15Z</time></trkpt><trkpt lat="40.593345842750786" lon="9.693883470125169"><ele>50.0</ele><time>2026-04-25T14:59:16Z</time></trkpt><trkpt lat="40.59357255332755" lon="9.69390815600928"><ele>50.0</ele><time>2026-04-25T14:59:17Z</time></trkpt><trkpt lat="40.5937957373277" lon="9.693933573985957"><ele>49.66666666666667</ele><time>2026-04-25T14:59:18Z</time></trkpt><trkpt lat="40.59401542584151" lon="9.693958860473572"><ele>49.33333333333333</ele><time>2026-04-25T14:59:19Z</time></trkpt><trkpt lat="40.59424121039782" lon="9.693988185676764"><ele>49.0</ele><time>2026-04-25T14:59:20Z</time></trkpt><trkpt lat="40.594472219212065" lon="9.69401831619567"><ele>50.5</ele><time>2026-04-25T14:59:21Z</time></trkpt><trkpt lat="40.59470635218897" lon="9.694042399846706"><ele>52.0</ele><time>2026-04-25T14:59:22Z</time></trkpt><trkpt lat="40.5949568784174" lon="9.694069221980795"><ele>52.0</ele><time>2026-04-25T14:59:23Z</time></trkpt><trkpt lat="40.59522017647842" lon="9.6940991002453"><ele>52.0</ele><time>2026-04-25T14:59:24Z</time></trkpt><trkpt lat="40.59548955532283" lon="9.694127317916774"><ele>54.5</ele><time>2026-04-25T14:59:25Z</time></trkpt><trkpt lat="40.59576356725718" lon="9.694161020046142"><ele>57.0</ele><time>2026-04-25T14:59:26Z</time></trkpt><trkpt lat="40.596042416123936" lon="9.694192466892186"><ele>55.5</ele><time>2026-04-25T14:59:27Z</time></trkpt><trkpt lat="40.59632743035311" lon="9.69422470264443"><ele>54.0</ele><time>2026-04-25T14:59:28Z</time></trkpt><trkpt lat="40.5966164346816" lon="9.694255604818622"><ele>54.0</ele><time>2026-04-25T14:59:29Z</time></trkpt><trkpt lat="40.59691253040454" lon="9.69428759888807"><ele>54.0</ele><time>2026-04-25T14:59:30Z</time></trkpt><trkpt lat="40.59721610438837" lon="9.694322317183916"><ele>53.0</ele><time>2026-04-25T14:59:31Z</time></trkpt><trkpt lat="40.59752196870816" lon="9.69435773907596"><ele>52.0</ele><time>2026-04-25T14:59:32Z</time></trkpt><trkpt lat="40.597829798752755" lon="9.694391703646106"><ele>47.5</ele><time>2026-04-25T14:59:33Z</time></trkpt><trkpt lat="40.59813769680517" lon="9.694426775607077"><ele>43.0</ele><time>2026-04-25T14:59:34Z</time></trkpt><trkpt lat="40.5984420775411" lon="9.694462175500542"><ele>41.0</ele><time>2026-04-25T14:59:35Z</time></trkpt><trkpt lat="40.5987342702838" lon="9.69449701921416"><ele>39.0</ele><time>2026-04-25T14:59:36Z</time></trkpt><trkpt lat="40.5990165470572" lon="9.69453076887524"><ele>39.0</ele><time>2026-04-25T14:59:37Z</time></trkpt><trkpt lat="40.59929385677187" lon="9.69456296997422"><ele>39.0</ele><time>2026-04-25T14:59:38Z</time></trkpt><trkpt lat="40.59956824382847" lon="9.694596152557374"><ele>38.0</ele><time>2026-04-25T14:59:39Z</time></trkpt><trkpt lat="40.59984586881665" lon="9.694630537557536"><ele>37.0</ele><time>2026-04-25T14:59:40Z</time></trkpt><trkpt lat="40.60012204195834" lon="9.694665288630901"><ele>36.0</ele><time>2026-04-25T14:59:41Z</time></trkpt><trkpt lat="40.600392697563144" lon="9.69470799845586"><ele>35.0</ele><time>2026-04-25T14:59:42Z</time></trkpt><trkpt lat="40.600659870377626" lon="9.694757572442404"><ele>35.0</ele><time>2026-04-25T14:59:43Z</time></trkpt><trkpt lat="40.60092334198315" lon="9.694816709654448"><ele>35.0</ele><time>2026-04-25T14:59:44Z</time></trkpt><trkpt lat="40.601189041217054" lon="9.694892468840111"><ele>35.5</ele><time>2026-04-25T14:59:45Z</time></trkpt><trkpt lat="40.601450346902006" lon="9.69498195873057"><ele>36.0</ele><time>2026-04-25T14:59:46Z</time></trkpt><trkpt lat="40.601710967842344" lon="9.695075147621425"><ele>36.0</ele><time>2026-04-25T14:59:47Z</time></trkpt><trkpt lat="40.60196685148815" lon="9.695176575516253"><ele>36.0</ele><time>2026-04-25T14:59:48Z</time></trkpt><trkpt lat="40.60221997916102" lon="9.695289855141974"><ele>33.0</ele><time>2026-04-25T14:59:49Z</time></trkpt><trkpt lat="40.60247340799095" lon="9.695410652492747"><ele>30.0</ele><time>2026-04-25T14:59:50Z</time></trkpt><trkpt lat="40.60272302423846" lon="9.695542920846037"><ele>31.5</ele><time>2026-04-25T14:59:51Z</time></trkpt><trkpt lat="40.60296685625288" lon="9.695687183328891"><ele>33.0</ele><time>2026-04-25T14:59:52Z</time></trkpt><trkpt lat="40.603207005715454" lon="9.695840461125115"><ele>33.0</ele><time>2026-04-25T14:59:53Z</time></trkpt><trkpt lat="40.60344223455305" lon="9.696001732652787"><ele>33.0</ele><time>2026-04-25T14:59:54Z</time></trkpt><trkpt lat="40.60367476535259" lon="9.696173329078642"><ele>33.0</ele><time>2026-04-25T14:59:55Z</time></trkpt><trkpt lat="40.60390176388311" lon="9.696350533653836"><ele>33.0</ele><time>2026-04-25T14:59:56Z</time></trkpt><trkpt lat="40.60412744123831" lon="9.696540033649978"><ele>33.0</ele><time>2026-04-25T14:59:57Z</time></trkpt><trkpt lat="40.60434654941808" lon="9.696737416024533"><ele>33.0</ele><time>2026-04-25T14:59:58Z</time></trkpt><trkpt lat="40.60456693746114" lon="9.696944228301469"><ele>33.5</ele><time>2026-04-25T14:59:59Z</time></trkpt><trkpt lat="40.60478003710396" lon="9.697157956434523"><ele>34.0</ele><time>2026-04-25T15:00:00Z</time></trkpt><trkpt lat="40.60498474117275" lon="9.697380668879127"><ele>34.0</ele><time>2026-04-25T15:00:01Z</time></trkpt><trkpt lat="40.605185945958866" lon="9.697613281669184"><ele>34.0</ele><time>2026-04-25T15:00:02Z</time></trkpt><trkpt lat="40.605378769941275" lon="9.697842599206602"><ele>34.5</ele><time>2026-04-25T15:00:03Z</time></trkpt><trkpt lat="40.60557356256883" lon="9.698075367448453"><ele>35.0</ele><time>2026-04-25T15:00:04Z</time></trkpt><trkpt lat="40.60576694027778" lon="9.698306393812624"><ele>35.0</ele><time>2026-04-25T15:00:05Z</time></trkpt><trkpt lat="40.605960240709315" lon="9.69853216748213"><ele>35.0</ele><time>2026-04-25T15:00:06Z</time></trkpt><trkpt lat="40.606153259079896" lon="9.698757914921483"><ele>37.0</ele><time>2026-04-25T15:00:07Z</time></trkpt><trkpt lat="40.60634399410546" lon="9.698985512716696"><ele>39.0</ele><time>2026-04-25T15:00:08Z</time></trkpt><trkpt lat="40.60653685684489" lon="9.699210743600556"><ele>37.5</ele><time>2026-04-25T15:00:09Z</time></trkpt><trkpt lat="40.606724084865604" lon="9.699433701272882"><ele>36.0</ele><time>2026-04-25T15:00:10Z</time></trkpt><trkpt lat="40.60691501572781" lon="9.699657512841153"><ele>37.0</ele><time>2026-04-25T15:00:11Z</time></trkpt><trkpt lat="40.607103063905235" lon="9.699876093780297"><ele>38.0</ele><time>2026-04-25T15:00:12Z</time></trkpt><trkpt lat="40.60729377776472" lon="9.70009823674697"><ele>39.0</ele><time>2026-04-25T15:00:13Z</time></trkpt><trkpt lat="40.60749811939341" lon="9.700312867108037"><ele>40.0</ele><time>2026-04-25T15:00:14Z</time></trkpt><trkpt lat="40.60771106983781" lon="9.700522595983744"><ele>41.5</ele><time>2026-04-25T15:00:15Z</time></trkpt><trkpt lat="40.60791890583238" lon="9.700735526431366"><ele>43.0</ele><time>2026-04-25T15:00:16Z</time></trkpt><trkpt lat="40.608138740719056" lon="9.700942736724327"><ele>41.5</ele><time>2026-04-25T15:00:17Z</time></trkpt><trkpt lat="40.60835456304838" lon="9.701152538117636"><ele>40.0</ele><time>2026-04-25T15:00:18Z</time></trkpt><trkpt lat="40.60857595259358" lon="9.70133876016586"><ele>40.0</ele><time>2026-04-25T15:00:19Z</time></trkpt><trkpt lat="40.60880004349999" lon="9.70152522444907"><ele>40.0</ele><time>2026-04-25T15:00:20Z</time></trkpt><trkpt lat="40.60903301298362" lon="9.701709549420086"><ele>40.0</ele><time>2026-04-25T15:00:21Z</time></trkpt><trkpt lat="40.609266987661435" lon="9.70189469996405"><ele>40.0</ele><time>2026-04-25T15:00:22Z</time></trkpt><trkpt lat="40.609503574741886" lon="9.702069326011094"><ele>38.5</ele><time>2026-04-25T15:00:23Z</time></trkpt><trkpt lat="40.60973683874347" lon="9.702233124221692"><ele>37.0</ele><time>2026-04-25T15:00:24Z</time></trkpt><trkpt lat="40.609972818929286" lon="9.702387621329347"><ele>37.0</ele><time>2026-04-25T15:00:25Z</time></trkpt><trkpt lat="40.61020840390582" lon="9.702534172942762"><ele>37.0</ele><time>2026-04-25T15:00:26Z</time></trkpt><trkpt lat="40.61044936675953" lon="9.702676453028081"><ele>36.0</ele><time>2026-04-25T15:00:27Z</time></trkpt><trkpt lat="40.610688545251485" lon="9.702811848521394"><ele>35.0</ele><time>2026-04-25T15:00:28Z</time></trkpt><trkpt lat="40.61093177350595" lon="9.702943102104413"><ele>35.5</ele><time>2026-04-25T15:00:29Z</time></trkpt><trkpt lat="40.61118103211998" lon="9.703072520653452"><ele>36.0</ele><time>2026-04-25T15:00:30Z</time></trkpt><trkpt lat="40.61143665627058" lon="9.703198026161594"><ele>36.0</ele><time>2026-04-25T15:00:31Z</time></trkpt><trkpt lat="40.611693368910714" lon="9.703321491661338"><ele>36.0</ele><time>2026-04-25T15:00:32Z</time></trkpt><trkpt lat="40.61195253426668" lon="9.703445316202613"><ele>37.0</ele><time>2026-04-25T15:00:33Z</time></trkpt><trkpt lat="40.61221290868253" lon="9.703566237892197"><ele>38.0</ele><time>2026-04-25T15:00:34Z</time></trkpt><trkpt lat="40.612472783042435" lon="9.70368955938239"><ele>36.0</ele><time>2026-04-25T15:00:35Z</time></trkpt><trkpt lat="40.61272887602166" lon="9.703810962816842"><ele>34.0</ele><time>2026-04-25T15:00:36Z</time></trkpt><trkpt lat="40.612984996790395" lon="9.703933935552561"><ele>34.0</ele><time>2026-04-25T15:00:37Z</time></trkpt><trkpt lat="40.61324055444382" lon="9.704056461742967"><ele>34.0</ele><time>2026-04-25T15:00:38Z</time></trkpt><trkpt lat="40.61349645168566" lon="9.704178263185064"><ele>33.5</ele><time>2026-04-25T15:00:39Z</time></trkpt><trkpt lat="40.613748748338395" lon="9.704301540553704"><ele>33.0</ele><time>2026-04-25T15:00:40Z</time></trkpt><trkpt lat="40.61399835102031" lon="9.7044254596353"><ele>33.0</ele><time>2026-04-25T15:00:41Z</time></trkpt><trkpt lat="40.61424680416257" lon="9.704552511920008"><ele>33.0</ele><time>2026-04-25T15:00:42Z</time></trkpt><trkpt lat="40.61449220133388" lon="9.704689047897967"><ele>35.5</ele><time>2026-04-25T15:00:43Z</time></trkpt><trkpt lat="40.61473611556983" lon="9.704836038090212"><ele>38.0</ele><time>2026-04-25T15:00:44Z</time></trkpt><trkpt lat="40.614978793719196" lon="9.704997080552655"><ele>38.0</ele><time>2026-04-25T15:00:45Z</time></trkpt><trkpt lat="40.6152300284063" lon="9.705171835610148"><ele>38.0</ele><time>2026-04-25T15:00:46Z</time></trkpt><trkpt lat="40.6154815700663" lon="9.705357164081976"><ele>37.0</ele><time>2026-04-25T15:00:47Z</time></trkpt><trkpt lat="40.615735200841684" lon="9.705547029429532"><ele>36.0</ele><time>2026-04-25T15:00:48Z</time></trkpt><trkpt lat="40.61599329540315" lon="9.705735633930614"><ele>35.0</ele><time>2026-04-25T15:00:49Z</time></trkpt><trkpt lat="40.616254457720125" lon="9.705924994826457"><ele>34.0</ele><time>2026-04-25T15:00:50Z</time></trkpt><trkpt lat="40.61651539835984" lon="9.706115559018592"><ele>34.0</ele><time>2026-04-25T15:00:51Z</time></trkpt><trkpt lat="40.616780655678454" lon="9.706307619556954"><ele>34.0</ele><time>2026-04-25T15:00:52Z</time></trkpt><trkpt lat="40.61703093018781" lon="9.70649484834108"><ele>35.5</ele><time>2026-04-25T15:00:53Z</time></trkpt><trkpt lat="40.617271617631054" lon="9.706668093803932"><ele>37.0</ele><time>2026-04-25T15:00:54Z</time></trkpt><trkpt lat="40.61751028000312" lon="9.7068352819582"><ele>34.0</ele><time>2026-04-25T15:00:55Z</time></trkpt><trkpt lat="40.617747549608936" lon="9.70699202421011"><ele>31.0</ele><time>2026-04-25T15:00:56Z</time></trkpt><trkpt lat="40.61798586077536" lon="9.707136275340757"><ele>31.0</ele><time>2026-04-25T15:00:57Z</time></trkpt><trkpt lat="40.618230449142885" lon="9.707268269569797"><ele>31.0</ele><time>2026-04-25T15:00:58Z</time></trkpt><trkpt lat="40.61848002708288" lon="9.707384937289032"><ele>30.5</ele><time>2026-04-25T15:00:59Z</time></trkpt><trkpt lat="40.61873639001936" lon="9.707487634140646"><ele>30.0</ele><time>2026-04-25T15:01:00Z</time></trkpt><trkpt lat="40.61900038757121" lon="9.707582239540523"><ele>30.0</ele><time>2026-04-25T15:01:01Z</time></trkpt><trkpt lat="40.619271996744985" lon="9.70766403000893"><ele>30.0</ele><time>2026-04-25T15:01:02Z</time></trkpt><trkpt lat="40.619542580614834" lon="9.707726008163933"><ele>28.5</ele><time>2026-04-25T15:01:03Z</time></trkpt><trkpt lat="40.61981307219488" lon="9.707772342812234"><ele>27.0</ele><time>2026-04-25T15:01:04Z</time></trkpt><trkpt lat="40.62008404228504" lon="9.707802320089446"><ele>27.0</ele><time>2026-04-25T15:01:05Z</time></trkpt><trkpt lat="40.620354865651905" lon="9.707819736471327"><ele>27.0</ele><time>2026-04-25T15:01:06Z</time></trkpt><trkpt lat="40.62062575386439" lon="9.707822528024678"><ele>27.0</ele><time>2026-04-25T15:01:07Z</time></trkpt><trkpt lat="40.620892484834215" lon="9.707806794188691"><ele>27.0</ele><time>2026-04-25T15:01:08Z</time></trkpt><trkpt lat="40.621157137447206" lon="9.707775924904016"><ele>28.5</ele><time>2026-04-25T15:01:09Z</time></trkpt><trkpt lat="40.621422111854926" lon="9.707732563699476"><ele>30.0</ele><time>2026-04-25T15:01:10Z</time></trkpt><trkpt lat="40.62168541508478" lon="9.707680270919125"><ele>30.0</ele><time>2026-04-25T15:01:11Z</time></trkpt><trkpt lat="40.62194364264218" lon="9.707615624820315"><ele>30.0</ele><time>2026-04-25T15:01:12Z</time></trkpt><trkpt lat="40.622199353529126" lon="9.707533488486096"><ele>30.0</ele><time>2026-04-25T15:01:13Z</time></trkpt><trkpt lat="40.6224488473659" lon="9.707439298286848"><ele>30.0</ele><time>2026-04-25T15:01:14Z</time></trkpt><trkpt lat="40.62269499728635" lon="9.707331908798636"><ele>27.5</ele><time>2026-04-25T15:01:15Z</time></trkpt><trkpt lat="40.62293977755637" lon="9.707212682306514"><ele>25.0</ele><time>2026-04-25T15:01:16Z</time></trkpt><trkpt lat="40.6231904283275" lon="9.707077650683186"><ele>25.0</ele><time>2026-04-25T15:01:17Z</time></trkpt><trkpt lat="40.62344839680194" lon="9.706919511717555"><ele>25.0</ele><time>2026-04-25T15:01:18Z</time></trkpt><trkpt lat="40.6237069520346" lon="9.7067461679258"><ele>27.5</ele><time>2026-04-25T15:01:19Z</time></trkpt><trkpt lat="40.623962423292085" lon="9.706559825367524"><ele>30.0</ele><time>2026-04-25T15:01:20Z</time></trkpt><trkpt lat="40.62421212243765" lon="9.706362930327007"><ele>30.0</ele><time>2026-04-25T15:01:21Z</time></trkpt><trkpt lat="40.624458819315855" lon="9.706156021824654"><ele>30.0</ele><time>2026-04-25T15:01:22Z</time></trkpt><trkpt lat="40.62471246679271" lon="9.705944724559734"><ele>30.0</ele><time>2026-04-25T15:01:23Z</time></trkpt><trkpt lat="40.62497363487644" lon="9.705732435155166"><ele>30.0</ele><time>2026-04-25T15:01:24Z</time></trkpt><trkpt lat="40.62523941473412" lon="9.705519352536436"><ele>30.0</ele><time>2026-04-25T15:01:25Z</time></trkpt><trkpt lat="40.62550816792494" lon="9.705300928097241"><ele>30.0</ele><time>2026-04-25T15:01:26Z</time></trkpt><trkpt lat="40.62577915906995" lon="9.70508096758876"><ele>27.0</ele><time>2026-04-25T15:01:27Z</time></trkpt><trkpt lat="40.626053090828705" lon="9.704856963711551"><ele>24.0</ele><time>2026-04-25T15:01:28Z</time></trkpt><trkpt lat="40.6263264101896" lon="9.704625220601402"><ele>25.0</ele><time>2026-04-25T15:01:29Z</time></trkpt><trkpt lat="40.62660140369782" lon="9.704401132815306"><ele>26.0</ele><time>2026-04-25T15:01:30Z</time></trkpt><trkpt lat="40.62686265172671" lon="9.704191593041381"><ele>25.5</ele><time>2026-04-25T15:01:31Z</time></trkpt><trkpt lat="40.62710839879063" lon="9.703993680069495"><ele>25.0</ele><time>2026-04-25T15:01:32Z</time></trkpt><trkpt lat="40.62734417085488" lon="9.703806178817292"><ele>25.0</ele><time>2026-04-25T15:01:33Z</time></trkpt><trkpt lat="40.62757329673081" lon="9.703632241089078"><ele>25.0</ele><time>2026-04-25T15:01:34Z</time></trkpt><trkpt lat="40.627801284894545" lon="9.703474537864222"><ele>22.5</ele><time>2026-04-25T15:01:35Z</time></trkpt><trkpt lat="40.6280235071269" lon="9.703334890198592"><ele>20.0</ele><time>2026-04-25T15:01:36Z</time></trkpt><trkpt lat="40.62825254235538" lon="9.703201067195788"><ele>20.0</ele><time>2026-04-25T15:01:37Z</time></trkpt><trkpt lat="40.628482904280446" lon="9.703077655283877"><ele>20.0</ele><time>2026-04-25T15:01:38Z</time></trkpt><trkpt lat="40.628715306198444" lon="9.702959396719631"><ele>17.0</ele><time>2026-04-25T15:01:39Z</time></trkpt><trkpt lat="40.62894872383486" lon="9.702848296188044"><ele>14.0</ele><time>2026-04-25T15:01:40Z</time></trkpt><trkpt lat="40.62917957996302" lon="9.702740864525364"><ele>13.0</ele><time>2026-04-25T15:01:41Z</time></trkpt><trkpt lat="40.62941250176937" lon="9.702640923963523"><ele>12.0</ele><time>2026-04-25T15:01:42Z</time></trkpt><trkpt lat="40.62964292089761" lon="9.7025545210904"><ele>11.5</ele><time>2026-04-25T15:01:43Z</time></trkpt><trkpt lat="40.62987248594877" lon="9.702475434893735"><ele>11.0</ele><time>2026-04-25T15:01:44Z</time></trkpt><trkpt lat="40.63010672892186" lon="9.702411383857124"><ele>9.0</ele><time>2026-04-25T15:01:45Z</time></trkpt><trkpt lat="40.63035102900924" lon="9.702350254538867"><ele>7.0</ele><time>2026-04-25T15:01:46Z</time></trkpt><trkpt lat="40.63060181017089" lon="9.702302765223745"><ele>7.0</ele><time>2026-04-25T15:01:47Z</time></trkpt><trkpt lat="40.63086770846166" lon="9.702267389468128"><ele>7.0</ele><time>2026-04-25T15:01:48Z</time></trkpt><trkpt lat="40.63112416008823" lon="9.702231732497367"><ele>6.0</ele><time>2026-04-25T15:01:49Z</time></trkpt><trkpt lat="40.631375193327194" lon="9.702202912528472"><ele>5.0</ele><time>2026-04-25T15:01:50Z</time></trkpt><trkpt lat="40.63162439325795" lon="9.702182373515276"><ele>5.0</ele><time>2026-04-25T15:01:51Z</time></trkpt><trkpt lat="40.631873506185784" lon="9.702169663338164"><ele>5.0</ele><time>2026-04-25T15:01:52Z</time></trkpt><trkpt lat="40.63212070332399" lon="9.702173486090778"><ele>5.0</ele><time>2026-04-25T15:01:53Z</time></trkpt><trkpt lat="40.63237498652171" lon="9.702186593038086"><ele>5.0</ele><time>2026-04-25T15:01:54Z</time></trkpt><trkpt lat="40.63263435474802" lon="9.702207101149344"><ele>6.5</ele><time>2026-04-25T15:01:55Z</time></trkpt><trkpt lat="40.63289142405294" lon="9.702237609446032"><ele>8.0</ele><time>2026-04-25T15:01:56Z</time></trkpt><trkpt lat="40.633149966366666" lon="9.702276433150223"><ele>8.0</ele><time>2026-04-25T15:01:57Z</time></trkpt><trkpt lat="40.63340531841606" lon="9.702329493702962"><ele>8.0</ele><time>2026-04-25T15:01:58Z</time></trkpt><trkpt lat="40.63366100093098" lon="9.702392412100819"><ele>6.0</ele><time>2026-04-25T15:01:59Z</time></trkpt><trkpt lat="40.63391967761588" lon="9.70246730175927"><ele>4.0</ele><time>2026-04-25T15:02:00Z</time></trkpt><trkpt lat="40.63417860919414" lon="9.702547406681314"><ele>4.0</ele><time>2026-04-25T15:02:01Z</time></trkpt><trkpt lat="40.63444380791273" lon="9.702641780794528"><ele>4.0</ele><time>2026-04-25T15:02:02Z</time></trkpt><trkpt lat="40.634712789238066" lon="9.70275161143021"><ele>4.0</ele><time>2026-04-25T15:02:03Z</time></trkpt><trkpt lat="40.63498125327682" lon="9.70287181942747"><ele>4.0</ele><time>2026-04-25T15:02:04Z</time></trkpt><trkpt lat="40.635248038783544" lon="9.702997185091034"><ele>3.5</ele><time>2026-04-25T15:02:05Z</time></trkpt><trkpt lat="40.63551031423647" lon="9.703122213174199"><ele>3.0</ele><time>2026-04-25T15:02:06Z</time></trkpt><trkpt lat="40.635768678178245" lon="9.7032462681026"><ele>3.0</ele><time>2026-04-25T15:02:07Z</time></trkpt><trkpt lat="40.63602723518132" lon="9.703369783316408"><ele>3.0</ele><time>2026-04-25T15:02:08Z</time></trkpt><trkpt lat="40.63628816881531" lon="9.70349309593555"><ele>1.0</ele><time>2026-04-25T15:02:09Z</time></trkpt><trkpt lat="40.6365448739019" lon="9.703617882028038"><ele>-1.0</ele><time>2026-04-25T15:02:10Z</time></trkpt><trkpt lat="40.63680010721502" lon="9.703740152300457"><ele>-0.5</ele><time>2026-04-25T15:02:11Z</time></trkpt><trkpt lat="40.63705879014094" lon="9.703862331918426"><ele>0.0</ele><time>2026-04-25T15:02:12Z</time></trkpt><trkpt lat="40.63731322953634" lon="9.70398398487219"><ele>0.0</ele><time>2026-04-25T15:02:13Z</time></trkpt><trkpt lat="40.63756573305396" lon="9.704105663373774"><ele>0.0</ele><time>2026-04-25T15:02:14Z</time></trkpt><trkpt lat="40.63781779395033" lon="9.704226626760303"><ele>0.5</ele><time>2026-04-25T15:02:15Z</time></trkpt><trkpt lat="40.63807004588049" lon="9.70434805951038"><ele>1.0</ele><time>2026-04-25T15:02:16Z</time></trkpt><trkpt lat="40.638325318966345" lon="9.704469759767834"><ele>1.0</ele><time>2026-04-25T15:02:17Z</time></trkpt><trkpt lat="40.63857808135608" lon="9.704590293300365"><ele>1.0</ele><time>2026-04-25T15:02:18Z</time></trkpt><trkpt lat="40.638827399690975" lon="9.704710610546467"><ele>1.0</ele><time>2026-04-25T15:02:19Z</time></trkpt><trkpt lat="40.63907735134824" lon="9.704830853198008"><ele>1.0</ele><time>2026-04-25T15:02:20Z</time></trkpt><trkpt lat="40.6393321434352" lon="9.704955809955953"><ele>2.0</ele><time>2026-04-25T15:02:21Z</time></trkpt><trkpt lat="40.639587465051584" lon="9.705080011936719"><ele>3.0</ele><time>2026-04-25T15:02:22Z</time></trkpt><trkpt lat="40.639840470518145" lon="9.705202705020366"><ele>3.0</ele><time>2026-04-25T15:02:23Z</time></trkpt><trkpt lat="40.640090526440964" lon="9.70532437941479"><ele>3.0</ele><time>2026-04-25T15:02:24Z</time></trkpt><trkpt lat="40.64034243744238" lon="9.70544853843148"><ele>3.0</ele><time>2026-04-25T15:02:25Z</time></trkpt><trkpt lat="40.6405881162066" lon="9.705566585770189"><ele>3.0</ele><time>2026-04-25T15:02:26Z</time></trkpt><trkpt lat="40.640833931933145" lon="9.705686046842086"><ele>3.0</ele><time>2026-04-25T15:02:27Z</time></trkpt><trkpt lat="40.64107763683036" lon="9.705808763623084"><ele>3.0</ele><time>2026-04-25T15:02:28Z</time></trkpt><trkpt lat="40.64131871553453" lon="9.705934954680886"><ele>3.0</ele><time>2026-04-25T15:02:29Z</time></trkpt><trkpt lat="40.641556575415805" lon="9.706071863064189"><ele>3.0</ele><time>2026-04-25T15:02:30Z</time></trkpt><trkpt lat="40.64178992830671" lon="9.70621754516347"><ele>3.0</ele><time>2026-04-25T15:02:31Z</time></trkpt><trkpt lat="40.64201961405474" lon="9.70636936954193"><ele>3.0</ele><time>2026-04-25T15:02:32Z</time></trkpt><trkpt lat="40.64224788007117" lon="9.706538833814411"><ele>3.0</ele><time>2026-04-25T15:02:33Z</time></trkpt><trkpt lat="40.64248164241082" lon="9.706722308375683"><ele>3.0</ele><time>2026-04-25T15:02:34Z</time></trkpt><trkpt lat="40.642713546076514" lon="9.706913969548056"><ele>3.5</ele><time>2026-04-25T15:02:35Z</time></trkpt><trkpt lat="40.64294889050595" lon="9.707117906210993"><ele>4.0</ele><time>2026-04-25T15:02:36Z</time></trkpt><trkpt lat="40.64317511067577" lon="9.7073277016491"><ele>4.0</ele><time>2026-04-25T15:02:37Z</time></trkpt><trkpt lat="40.64338867178025" lon="9.707539603428453"><ele>4.0</ele><time>2026-04-25T15:02:38Z</time></trkpt><trkpt lat="40.643589532972484" lon="9.707757887745116"><ele>4.0</ele><time>2026-04-25T15:02:39Z</time></trkpt><trkpt lat="40.643780168169855" lon="9.707978387741315"><ele>4.0</ele><time>2026-04-25T15:02:40Z</time></trkpt><trkpt lat="40.64397288082238" lon="9.708211050317862"><ele>4.0</ele><time>2026-04-25T15:02:41Z</time></trkpt><trkpt lat="40.64415994887567" lon="9.708453641935442"><ele>4.0</ele><time>2026-04-25T15:02:42Z</time></trkpt><trkpt lat="40.64434127649582" lon="9.708699762653907"><ele>4.0</ele><time>2026-04-25T15:02:43Z</time></trkpt><trkpt lat="40.64451685276911" lon="9.708953928835706"><ele>4.0</ele><time>2026-04-25T15:02:44Z</time></trkpt><trkpt lat="40.64468552374518" lon="9.709211482904804"><ele>4.5</ele><time>2026-04-25T15:02:45Z</time></trkpt><trkpt lat="40.64484910792297" lon="9.709475533066398"><ele>5.0</ele><time>2026-04-25T15:02:46Z</time></trkpt><trkpt lat="40.645007875785666" lon="9.709744481033976"><ele>5.0</ele><time>2026-04-25T15:02:47Z</time></trkpt><trkpt lat="40.64515847048528" lon="9.710018168023455"><ele>5.0</ele><time>2026-04-25T15:02:48Z</time></trkpt><trkpt lat="40.645301608736396" lon="9.710295989510918"><ele>5.5</ele><time>2026-04-25T15:02:49Z</time></trkpt><trkpt lat="40.645438287448734" lon="9.71058016049088"><ele>6.0</ele><time>2026-04-25T15:02:50Z</time></trkpt><trkpt lat="40.64557029048384" lon="9.710870935267177"><ele>6.5</ele><time>2026-04-25T15:02:51Z</time></trkpt><trkpt lat="40.645699091778724" lon="9.711162907256"><ele>7.0</ele><time>2026-04-25T15:02:52Z</time></trkpt><trkpt lat="40.645826781766814" lon="9.711453768381535"><ele>7.0</ele><time>2026-04-25T15:02:53Z</time></trkpt><trkpt lat="40.64595391961133" lon="9.711744184483445"><ele>7.0</ele><time>2026-04-25T15:02:54Z</time></trkpt><trkpt lat="40.6460813757503" lon="9.71203296829526"><ele>8.5</ele><time>2026-04-25T15:02:55Z</time></trkpt><trkpt lat="40.64620946234337" lon="9.712325800112"><ele>10.0</ele><time>2026-04-25T15:02:56Z</time></trkpt><trkpt lat="40.64633694352183" lon="9.712617039710585"><ele>9.5</ele><time>2026-04-25T15:02:57Z</time></trkpt><trkpt lat="40.64646534666249" lon="9.712911383176415"><ele>9.0</ele><time>2026-04-25T15:02:58Z</time></trkpt><trkpt lat="40.64659889260341" lon="9.713216840985151"><ele>9.0</ele><time>2026-04-25T15:02:59Z</time></trkpt><trkpt lat="40.64673657394815" lon="9.713529123913526"><ele>9.0</ele><time>2026-04-25T15:03:00Z</time></trkpt><trkpt lat="40.64687497535755" lon="9.713844248924623"><ele>8.0</ele><time>2026-04-25T15:03:01Z</time></trkpt><trkpt lat="40.64701078301273" lon="9.714154245002655"><ele>7.0</ele><time>2026-04-25T15:03:02Z</time></trkpt><trkpt lat="40.647144261564485" lon="9.714459220732467"><ele>6.5</ele><time>2026-04-25T15:03:03Z</time></trkpt><trkpt lat="40.64727690142524" lon="9.71476407867805"><ele>6.0</ele><time>2026-04-25T15:03:04Z</time></trkpt><trkpt lat="40.6474139540874" lon="9.715082618029056"><ele>5.0</ele><time>2026-04-25T15:03:05Z</time></trkpt><trkpt lat="40.64755099763554" lon="9.715400438305334"><ele>4.0</ele><time>2026-04-25T15:03:06Z</time></trkpt><trkpt lat="40.6476853389723" lon="9.715707767744224"><ele>6.5</ele><time>2026-04-25T15:03:07Z</time></trkpt><trkpt lat="40.64781464991681" lon="9.716008041347642"><ele>9.0</ele><time>2026-04-25T15:03:08Z</time></trkpt><trkpt lat="40.64794358450328" lon="9.716301934533435"><ele>9.0</ele><time>2026-04-25T15:03:09Z</time></trkpt><trkpt lat="40.648076672740636" lon="9.716599440839122"><ele>9.0</ele><time>2026-04-25T15:03:10Z</time></trkpt><trkpt lat="40.648211240584494" lon="9.716899039484412"><ele>8.5</ele><time>2026-04-25T15:03:11Z</time></trkpt><trkpt lat="40.64834420984669" lon="9.71720102738411"><ele>8.0</ele><time>2026-04-25T15:03:12Z</time></trkpt><trkpt lat="40.64847911700985" lon="9.717502420155983"><ele>7.0</ele><time>2026-04-25T15:03:13Z</time></trkpt><trkpt lat="40.648613226218764" lon="9.717800223436363"><ele>6.0</ele><time>2026-04-25T15:03:14Z</time></trkpt><trkpt lat="40.64874913812726" lon="9.718091885912994"><ele>8.0</ele><time>2026-04-25T15:03:15Z</time></trkpt><trkpt lat="40.64889080225724" lon="9.718370713276737"><ele>10.0</ele><time>2026-04-25T15:03:16Z</time></trkpt><trkpt lat="40.64903990297969" lon="9.718654153493524"><ele>10.0</ele><time>2026-04-25T15:03:17Z</time></trkpt><trkpt lat="40.6492083641459" lon="9.718939635753262"><ele>10.0</ele><time>2026-04-25T15:03:18Z</time></trkpt><trkpt lat="40.649384920721054" lon="9.71922548753714"><ele>10.5</ele><time>2026-04-25T15:03:19Z</time></trkpt><trkpt lat="40.64957479305158" lon="9.719505020158095"><ele>11.0</ele><time>2026-04-25T15:03:20Z</time></trkpt><trkpt lat="40.64977622773881" lon="9.71977589138292"><ele>11.0</ele><time>2026-04-25T15:03:21Z</time></trkpt><trkpt lat="40.64998619349951" lon="9.720035042016447"><ele>11.0</ele><time>2026-04-25T15:03:22Z</time></trkpt><trkpt lat="40.65019849018081" lon="9.72027868498843"><ele>10.0</ele><time>2026-04-25T15:03:23Z</time></trkpt><trkpt lat="40.65041455409312" lon="9.720518952423134"><ele>9.0</ele><time>2026-04-25T15:03:24Z</time></trkpt><trkpt lat="40.65063305201559" lon="9.720741136921527"><ele>9.0</ele><time>2026-04-25T15:03:25Z</time></trkpt><trkpt lat="40.6508594831751" lon="9.720954307747588"><ele>9.0</ele><time>2026-04-25T15:03:26Z</time></trkpt><trkpt lat="40.65108365640785" lon="9.721149057856803"><ele>8.0</ele><time>2026-04-25T15:03:27Z</time></trkpt><trkpt lat="40.65131401600527" lon="9.721334260445536"><ele>7.0</ele><time>2026-04-25T15:03:28Z</time></trkpt><trkpt lat="40.65154945951495" lon="9.721512648910029"><ele>7.0</ele><time>2026-04-25T15:03:29Z</time></trkpt><trkpt lat="40.651789471565266" lon="9.72167617143493"><ele>7.0</ele><time>2026-04-25T15:03:30Z</time></trkpt><trkpt lat="40.652032236778666" lon="9.72182796754036"><ele>7.0</ele><time>2026-04-25T15:03:31Z</time></trkpt><trkpt lat="40.652277628984066" lon="9.721962335824903"><ele>7.0</ele><time>2026-04-25T15:03:32Z</time></trkpt><trkpt lat="40.652514422865536" lon="9.722080175050207"><ele>7.0</ele><time>2026-04-25T15:03:33Z</time></trkpt><trkpt lat="40.65274724618193" lon="9.722183544743451"><ele>7.0</ele><time>2026-04-25T15:03:34Z</time></trkpt><trkpt lat="40.65298898321047" lon="9.722280362037813"><ele>5.0</ele><time>2026-04-25T15:03:35Z</time></trkpt><trkpt lat="40.65321582703724" lon="9.722369572438431"><ele>3.0</ele><time>2026-04-25T15:03:36Z</time></trkpt><trkpt lat="40.6534452478304" lon="9.722444452253761"><ele>3.5</ele><time>2026-04-25T15:03:37Z</time></trkpt><trkpt lat="40.65367036498162" lon="9.722500611793302"><ele>4.0</ele><time>2026-04-25T15:03:38Z</time></trkpt><trkpt lat="40.65389913514209" lon="9.72254598904258"><ele>4.0</ele><time>2026-04-25T15:03:39Z</time></trkpt><trkpt lat="40.65414247112996" lon="9.722577773874084"><ele>4.0</ele><time>2026-04-25T15:03:40Z</time></trkpt><trkpt lat="40.654396781485666" lon="9.722609114088998"><ele>5.0</ele><time>2026-04-25T15:03:41Z</time></trkpt><trkpt lat="40.6546501563022" lon="9.722632305960857"><ele>6.0</ele><time>2026-04-25T15:03:42Z</time></trkpt><trkpt lat="40.654900283702936" lon="9.722647850147625"><ele>6.0</ele><time>2026-04-25T15:03:43Z</time></trkpt><trkpt lat="40.655143743367915" lon="9.722657361831674"><ele>6.0</ele><time>2026-04-25T15:03:44Z</time></trkpt><trkpt lat="40.65538300998264" lon="9.722655212501408"><ele>7.5</ele><time>2026-04-25T15:03:45Z</time></trkpt><trkpt lat="40.65561550885505" lon="9.722637011933312"><ele>9.0</ele><time>2026-04-25T15:03:46Z</time></trkpt><trkpt lat="40.65584583248112" lon="9.722604975391773"><ele>9.0</ele><time>2026-04-25T15:03:47Z</time></trkpt><trkpt lat="40.656068912767736" lon="9.722561478141193"><ele>9.0</ele><time>2026-04-25T15:03:48Z</time></trkpt><trkpt lat="40.65628913604266" lon="9.722509538337976"><ele>9.0</ele><time>2026-04-25T15:03:49Z</time></trkpt><trkpt lat="40.65650355365531" lon="9.722448280833436"><ele>8.0</ele><time>2026-04-25T15:03:50Z</time></trkpt><trkpt lat="40.65671954981944" lon="9.722376442892834"><ele>7.0</ele><time>2026-04-25T15:03:51Z</time></trkpt><trkpt lat="40.65693539201145" lon="9.722297439017531"><ele>6.0</ele><time>2026-04-25T15:03:52Z</time></trkpt><trkpt lat="40.65715354182401" lon="9.722209368639424"><ele>5.0</ele><time>2026-04-25T15:03:53Z</time></trkpt><trkpt lat="40.65736899173664" lon="9.722109000299637"><ele>4.0</ele><time>2026-04-25T15:03:54Z</time></trkpt><trkpt lat="40.65758147440597" lon="9.722000030987484"><ele>5.0</ele><time>2026-04-25T15:03:55Z</time></trkpt><trkpt lat="40.657789241164515" lon="9.721883908935425"><ele>6.0</ele><time>2026-04-25T15:03:56Z</time></trkpt><trkpt lat="40.65799525259769" lon="9.721754500486572"><ele>6.0</ele><time>2026-04-25T15:03:57Z</time></trkpt><trkpt lat="40.658196686817206" lon="9.721616180397229"><ele>6.0</ele><time>2026-04-25T15:03:58Z</time></trkpt><trkpt lat="40.65839783712359" lon="9.721469947052217"><ele>6.0</ele><time>2026-04-25T15:03:59Z</time></trkpt><trkpt lat="40.65859703865525" lon="9.721315674925346"><ele>6.0</ele><time>2026-04-25T15:04:00Z</time></trkpt><trkpt lat="40.658791835615006" lon="9.721153562515507"><ele>7.0</ele><time>2026-04-25T15:04:01Z</time></trkpt><trkpt lat="40.658983651950834" lon="9.72097787677196"><ele>8.0</ele><time>2026-04-25T15:04:02Z</time></trkpt><trkpt lat="40.65917191623278" lon="9.720792974087827"><ele>8.0</ele><time>2026-04-25T15:04:03Z</time></trkpt><trkpt lat="40.65935546343077" lon="9.720599470802437"><ele>8.0</ele><time>2026-04-25T15:04:04Z</time></trkpt><trkpt lat="40.65953753509303" lon="9.720394873123839"><ele>8.5</ele><time>2026-04-25T15:04:05Z</time></trkpt><trkpt lat="40.65971395310058" lon="9.72017962116959"><ele>9.0</ele><time>2026-04-25T15:04:06Z</time></trkpt><trkpt lat="40.65989122548015" lon="9.719949767534068"><ele>9.0</ele><time>2026-04-25T15:04:07Z</time></trkpt><trkpt lat="40.66006678762803" lon="9.719710560014496"><ele>9.0</ele><time>2026-04-25T15:04:08Z</time></trkpt><trkpt lat="40.66023187865785" lon="9.719478444009392"><ele>8.5</ele><time>2026-04-25T15:04:09Z</time></trkpt><trkpt lat="40.66039160186052" lon="9.71925064977505"><ele>8.0</ele><time>2026-04-25T15:04:10Z</time></trkpt><trkpt lat="40.66055150504967" lon="9.71902551454066"><ele>8.0</ele><time>2026-04-25T15:04:11Z</time></trkpt><trkpt lat="40.66071538670348" lon="9.718802395732332"><ele>8.0</ele><time>2026-04-25T15:04:12Z</time></trkpt><trkpt lat="40.66087925082966" lon="9.718582752073312"><ele>9.0</ele><time>2026-04-25T15:04:13Z</time></trkpt><trkpt lat="40.661038442723196" lon="9.718364820939629"><ele>10.0</ele><time>2026-04-25T15:04:14Z</time></trkpt><trkpt lat="40.66119788571169" lon="9.71813724840911"><ele>10.5</ele><time>2026-04-25T15:04:15Z</time></trkpt><trkpt lat="40.66136796482583" lon="9.717899173719243"><ele>11.0</ele><time>2026-04-25T15:04:16Z</time></trkpt><trkpt lat="40.661544029986594" lon="9.71764496183881"><ele>11.5</ele><time>2026-04-25T15:04:17Z</time></trkpt><trkpt lat="40.66172619287413" lon="9.717376402172535"><ele>12.0</ele><time>2026-04-25T15:04:18Z</time></trkpt><trkpt lat="40.661914764648586" lon="9.71710813819396"><ele>13.0</ele><time>2026-04-25T15:04:19Z</time></trkpt><trkpt lat="40.6621140048809" lon="9.716839841517782"><ele>14.0</ele><time>2026-04-25T15:04:20Z</time></trkpt><trkpt lat="40.66231819494331" lon="9.716568250871669"><ele>14.0</ele><time>2026-04-25T15:04:21Z</time></trkpt><trkpt lat="40.662528418923216" lon="9.716296496004087"><ele>14.0</ele><time>2026-04-25T15:04:22Z</time></trkpt><trkpt lat="40.662741946371206" lon="9.716024864618698"><ele>16.0</ele><time>2026-04-25T15:04:23Z</time></trkpt><trkpt lat="40.66296037578106" lon="9.715755488543444"><ele>18.0</ele><time>2026-04-25T15:04:24Z</time></trkpt><trkpt lat="40.66318805014665" lon="9.715487569911117"><ele>18.0</ele><time>2026-04-25T15:04:25Z</time></trkpt><trkpt lat="40.66342447951944" lon="9.715231896343361"><ele>18.0</ele><time>2026-04-25T15:04:26Z</time></trkpt><trkpt lat="40.66367175039928" lon="9.71499047987338"><ele>19.5</ele><time>2026-04-25T15:04:27Z</time></trkpt><trkpt lat="40.663925300283935" lon="9.714758082539145"><ele>21.0</ele><time>2026-04-25T15:04:28Z</time></trkpt><trkpt lat="40.664182497895986" lon="9.714537636277853"><ele>20.0</ele><time>2026-04-25T15:04:29Z</time></trkpt><trkpt lat="40.66444109448212" lon="9.714337475231519"><ele>19.0</ele><time>2026-04-25T15:04:30Z</time></trkpt><trkpt lat="40.66469993572848" lon="9.714153074188488"><ele>19.0</ele><time>2026-04-25T15:04:31Z</time></trkpt><trkpt lat="40.66496327113368" lon="9.713976489708383"><ele>19.0</ele><time>2026-04-25T15:04:32Z</time></trkpt><trkpt lat="40.66523133324383" lon="9.713807095989331"><ele>20.0</ele><time>2026-04-25T15:04:33Z</time></trkpt><trkpt lat="40.66549971132509" lon="9.713650384844538"><ele>21.0</ele><time>2026-04-25T15:04:34Z</time></trkpt><trkpt lat="40.66577496912016" lon="9.713505005836295"><ele>21.0</ele><time>2026-04-25T15:04:35Z</time></trkpt><trkpt lat="40.666060703673715" lon="9.71337537634713"><ele>21.0</ele><time>2026-04-25T15:04:36Z</time></trkpt><trkpt lat="40.6663475112929" lon="9.713258476195316"><ele>20.5</ele><time>2026-04-25T15:04:37Z</time></trkpt><trkpt lat="40.666633789330525" lon="9.713157977497886"><ele>20.0</ele><time>2026-04-25T15:04:38Z</time></trkpt><trkpt lat="40.66691673650757" lon="9.713072341817819"><ele>22.5</ele><time>2026-04-25T15:04:39Z</time></trkpt><trkpt lat="40.667199138230046" lon="9.71299704163804"><ele>25.0</ele><time>2026-04-25T15:04:40Z</time></trkpt><trkpt lat="40.66747279898565" lon="9.712938654090165"><ele>25.0</ele><time>2026-04-25T15:04:41Z</time></trkpt><trkpt lat="40.66774250972657" lon="9.712892412447827"><ele>25.0</ele><time>2026-04-25T15:04:42Z</time></trkpt><trkpt lat="40.66799400434863" lon="9.712863857060308"><ele>25.5</ele><time>2026-04-25T15:04:43Z</time></trkpt><trkpt lat="40.66823818855744" lon="9.712841883773656"><ele>26.0</ele><time>2026-04-25T15:04:44Z</time></trkpt><trkpt lat="40.668484305827924" lon="9.712826990813026"><ele>29.0</ele><time>2026-04-25T15:04:45Z</time></trkpt><trkpt lat="40.66873111268995" lon="9.712817483674497"><ele>32.0</ele><time>2026-04-25T15:04:46Z</time></trkpt><trkpt lat="40.66898096656833" lon="9.712821216705219"><ele>32.0</ele><time>2026-04-25T15:04:47Z</time></trkpt><trkpt lat="40.669227748806804" lon="9.712834704218668"><ele>32.0</ele><time>2026-04-25T15:04:48Z</time></trkpt><trkpt lat="40.66946744528841" lon="9.712867039505964"><ele>35.5</ele><time>2026-04-25T15:04:49Z</time></trkpt><trkpt lat="40.669708834123085" lon="9.71289746726895"><ele>39.0</ele><time>2026-04-25T15:04:50Z</time></trkpt><trkpt lat="40.669949698356604" lon="9.712923067425429"><ele>39.0</ele><time>2026-04-25T15:04:51.014Z</time></trkpt><trkpt lat="40.67019251303851" lon="9.712936015278691"><ele>39.0</ele><time>2026-04-25T15:04:52.015Z</time></trkpt><trkpt lat="40.67043156560478" lon="9.712956584153211"><ele>45.5</ele><time>2026-04-25T15:04:53.014Z</time></trkpt><trkpt lat="40.670678670058166" lon="9.712982162306595"><ele>52.0</ele><time>2026-04-25T15:04:54.013Z</time></trkpt><trkpt lat="40.670926215226636" lon="9.713009065786169"><ele>59.0</ele><time>2026-04-25T15:04:55.013Z</time></trkpt><trkpt lat="40.67117220987058" lon="9.713037701954214"><ele>66.0</ele><time>2026-04-25T15:04:56.014Z</time></trkpt><trkpt lat="40.67141256277397" lon="9.713065444216976"><ele>20.0</ele><time>2026-04-25T15:04:57.013Z</time></trkpt><trkpt lat="40.681886016429104" lon="9.718234017500391"><ele>18.0</ele><time>2026-04-25T15:05:37Z</time></trkpt><trkpt lat="40.682182859850734" lon="9.718318603401128"><ele>16.0</ele><time>2026-04-25T15:05:38Z</time></trkpt><trkpt lat="40.68243988189101" lon="9.7183317608223"><ele>16.0</ele><time>2026-04-25T15:05:39Z</time></trkpt><trkpt lat="40.68272072655235" lon="9.718320839848614"><ele>16.0</ele><time>2026-04-25T15:05:40Z</time></trkpt><trkpt lat="40.68300257834173" lon="9.718314441496792"><ele>14.5</ele><time>2026-04-25T15:05:41Z</time></trkpt><trkpt lat="40.68328843287033" lon="9.718304115089547"><ele>13.0</ele><time>2026-04-25T15:05:42Z</time></trkpt><trkpt lat="40.68357811211443" lon="9.718287522403164"><ele>12.0</ele><time>2026-04-25T15:05:43Z</time></trkpt><trkpt lat="40.68387322843086" lon="9.718260655910953"><ele>11.0</ele><time>2026-04-25T15:05:44Z</time></trkpt><trkpt lat="40.68417243642592" lon="9.718224134407173"><ele>10.5</ele><time>2026-04-25T15:05:45Z</time></trkpt><trkpt lat="40.684472093454815" lon="9.718170625574247"><ele>10.0</ele><time>2026-04-25T15:05:46Z</time></trkpt><trkpt lat="40.68477210310177" lon="9.718104078374873"><ele>10.0</ele><time>2026-04-25T15:05:47Z</time></trkpt><trkpt lat="40.685076778218615" lon="9.718026481242664"><ele>10.0</ele><time>2026-04-25T15:05:48Z</time></trkpt><trkpt lat="40.685376236797936" lon="9.717933870984519"><ele>9.5</ele><time>2026-04-25T15:05:49Z</time></trkpt><trkpt lat="40.685666641037" lon="9.717837102763413"><ele>9.0</ele><time>2026-04-25T15:05:50Z</time></trkpt><trkpt lat="40.68594319246072" lon="9.717733250628589"><ele>8.5</ele><time>2026-04-25T15:05:51Z</time></trkpt><trkpt lat="40.68622038198834" lon="9.717619411727142"><ele>8.0</ele><time>2026-04-25T15:05:52Z</time></trkpt><trkpt lat="40.68649479172294" lon="9.717494291684835"><ele>8.0</ele><time>2026-04-25T15:05:53Z</time></trkpt><trkpt lat="40.68677299268176" lon="9.717360748991505"><ele>8.0</ele><time>2026-04-25T15:05:54Z</time></trkpt><trkpt lat="40.68704323950279" lon="9.717222132967137"><ele>7.0</ele><time>2026-04-25T15:05:55Z</time></trkpt><trkpt lat="40.68730579711497" lon="9.717073456004202"><ele>6.0</ele><time>2026-04-25T15:05:56Z</time></trkpt><trkpt lat="40.687574775063936" lon="9.716912095283266"><ele>5.5</ele><time>2026-04-25T15:05:57Z</time></trkpt><trkpt lat="40.687844312629416" lon="9.716734160998742"><ele>5.0</ele><time>2026-04-25T15:05:58Z</time></trkpt><trkpt lat="40.68811582784617" lon="9.716540905221608"><ele>5.0</ele><time>2026-04-25T15:05:59Z</time></trkpt><trkpt lat="40.68838282178605" lon="9.716338129135654"><ele>5.0</ele><time>2026-04-25T15:06:00Z</time></trkpt><trkpt lat="40.688644571783406" lon="9.71612195252446"><ele>5.0</ele><time>2026-04-25T15:06:01Z</time></trkpt><trkpt lat="40.6889063552687" lon="9.71589607454438"><ele>5.0</ele><time>2026-04-25T15:06:02Z</time></trkpt><trkpt lat="40.68916326612618" lon="9.715662219799194"><ele>5.0</ele><time>2026-04-25T15:06:03Z</time></trkpt><trkpt lat="40.689409053937936" lon="9.715429240062118"><ele>5.0</ele><time>2026-04-25T15:06:04Z</time></trkpt><trkpt lat="40.68965640926228" lon="9.715191860190878"><ele>5.0</ele><time>2026-04-25T15:06:05Z</time></trkpt><trkpt lat="40.68990433117332" lon="9.714950333343648"><ele>5.0</ele><time>2026-04-25T15:06:06Z</time></trkpt><trkpt lat="40.69015353528014" lon="9.714707363168554"><ele>5.0</ele><time>2026-04-25T15:06:07Z</time></trkpt><trkpt lat="40.69040079375686" lon="9.714462196105417"><ele>5.0</ele><time>2026-04-25T15:06:08Z</time></trkpt><trkpt lat="40.69064701712069" lon="9.714217841565807"><ele>5.0</ele><time>2026-04-25T15:06:09Z</time></trkpt><trkpt lat="40.69089301394141" lon="9.713971485106075"><ele>5.0</ele><time>2026-04-25T15:06:10Z</time></trkpt><trkpt lat="40.69113351866766" lon="9.713732314576417"><ele>5.5</ele><time>2026-04-25T15:06:11Z</time></trkpt><trkpt lat="40.691370186424486" lon="9.71350847768999"><ele>6.0</ele><time>2026-04-25T15:06:12Z</time></trkpt><trkpt lat="40.69160829448571" lon="9.713303003607493"><ele>6.0</ele><time>2026-04-25T15:06:13Z</time></trkpt><trkpt lat="40.69185100985567" lon="9.713127950792375"><ele>6.0</ele><time>2026-04-25T15:06:14Z</time></trkpt><trkpt lat="40.69210388532126" lon="9.712973654674574"><ele>5.0</ele><time>2026-04-25T15:06:15Z</time></trkpt><trkpt lat="40.69236515179982" lon="9.712856421633937"><ele>4.0</ele><time>2026-04-25T15:06:16Z</time></trkpt><trkpt lat="40.69263062298458" lon="9.712772878390492"><ele>4.0</ele><time>2026-04-25T15:06:17Z</time></trkpt><trkpt lat="40.69289890778684" lon="9.712711774461264"><ele>4.0</ele><time>2026-04-25T15:06:18Z</time></trkpt><trkpt lat="40.69317761499749" lon="9.712681882209846"><ele>4.0</ele><time>2026-04-25T15:06:19Z</time></trkpt><trkpt lat="40.69346283894548" lon="9.712673574642785"><ele>4.0</ele><time>2026-04-25T15:06:20Z</time></trkpt><trkpt lat="40.69375267180181" lon="9.712673139456964"><ele>4.5</ele><time>2026-04-25T15:06:21Z</time></trkpt><trkpt lat="40.69404124828738" lon="9.712653770963405"><ele>5.0</ele><time>2026-04-25T15:06:22Z</time></trkpt><trkpt lat="40.694315253733365" lon="9.712618401234776"><ele>4.0</ele><time>2026-04-25T15:06:23Z</time></trkpt><trkpt lat="40.69458976837265" lon="9.712545964961103"><ele>3.0</ele><time>2026-04-25T15:06:24Z</time></trkpt><trkpt lat="40.69487037644019" lon="9.712474602612524"><ele>3.0</ele><time>2026-04-25T15:06:25Z</time></trkpt><trkpt lat="40.69514967373434" lon="9.712371779468002"><ele>3.0</ele><time>2026-04-25T15:06:26Z</time></trkpt><trkpt lat="40.69542347043709" lon="9.712250960796897"><ele>3.5</ele><time>2026-04-25T15:06:27Z</time></trkpt><trkpt lat="40.69569502989087" lon="9.712107437599945"><ele>4.0</ele><time>2026-04-25T15:06:28Z</time></trkpt><trkpt lat="40.69596032997859" lon="9.711944391810297"><ele>7.0</ele><time>2026-04-25T15:06:29Z</time></trkpt><trkpt lat="40.69622222007576" lon="9.711755237392177"><ele>10.0</ele><time>2026-04-25T15:06:30Z</time></trkpt><trkpt lat="40.69647621078567" lon="9.711547329020021"><ele>10.0</ele><time>2026-04-25T15:06:31Z</time></trkpt><trkpt lat="40.69672381986907" lon="9.711322957500535"><ele>10.0</ele><time>2026-04-25T15:06:32Z</time></trkpt><trkpt lat="40.696962198104586" lon="9.711082847996897"><ele>11.5</ele><time>2026-04-25T15:06:33Z</time></trkpt><trkpt lat="40.69718542785172" lon="9.710822699878332"><ele>13.0</ele><time>2026-04-25T15:06:34Z</time></trkpt><trkpt lat="40.697391310989296" lon="9.710555614735199"><ele>13.0</ele><time>2026-04-25T15:06:35Z</time></trkpt><trkpt lat="40.69757322671377" lon="9.710293067788363"><ele>13.0</ele><time>2026-04-25T15:06:36Z</time></trkpt><trkpt lat="40.69773506266938" lon="9.710018565340262"><ele>14.0</ele><time>2026-04-25T15:06:37Z</time></trkpt><trkpt lat="40.69788262977894" lon="9.709721362364084"><ele>15.0</ele><time>2026-04-25T15:06:38Z</time></trkpt><trkpt lat="40.69803616060103" lon="9.709409921264223"><ele>16.0</ele><time>2026-04-25T15:06:39Z</time></trkpt><trkpt lat="40.698175858958784" lon="9.70909471315679"><ele>17.0</ele><time>2026-04-25T15:06:40Z</time></trkpt><trkpt lat="40.69830061215807" lon="9.708765222199599"><ele>16.0</ele><time>2026-04-25T15:06:41Z</time></trkpt><trkpt lat="40.69841939330961" lon="9.708424700701652"><ele>15.0</ele><time>2026-04-25T15:06:42Z</time></trkpt><trkpt lat="40.69852205024053" lon="9.7080665498997"><ele>11.5</ele><time>2026-04-25T15:06:43Z</time></trkpt><trkpt lat="40.698611523086335" lon="9.707697928350068"><ele>8.0</ele><time>2026-04-25T15:06:44Z</time></trkpt><trkpt lat="40.69868753615865" lon="9.707317640943796"><ele>8.0</ele><time>2026-04-25T15:06:45Z</time></trkpt><trkpt lat="40.698749061047515" lon="9.70693098783575"><ele>8.0</ele><time>2026-04-25T15:06:46Z</time></trkpt><trkpt lat="40.6988006759459" lon="9.70654212331865"><ele>8.0</ele><time>2026-04-25T15:06:47Z</time></trkpt><trkpt lat="40.69881808407152" lon="9.706164572909348"><ele>8.0</ele><time>2026-04-25T15:06:48Z</time></trkpt><trkpt lat="40.69882572747648" lon="9.705780701622754"><ele>8.0</ele><time>2026-04-25T15:06:49Z</time></trkpt><trkpt lat="40.69883029504082" lon="9.705384604698992"><ele>8.0</ele><time>2026-04-25T15:06:50Z</time></trkpt><trkpt lat="40.698836216638824" lon="9.704985128450852"><ele>8.5</ele><time>2026-04-25T15:06:51Z</time></trkpt><trkpt lat="40.698841446619916" lon="9.704579480383464"><ele>9.0</ele><time>2026-04-25T15:06:52Z</time></trkpt><trkpt lat="40.698849613657906" lon="9.704170868784946"><ele>9.0</ele><time>2026-04-25T15:06:53Z</time></trkpt><trkpt lat="40.69886465728234" lon="9.703769739239993"><ele>9.0</ele><time>2026-04-25T15:06:54Z</time></trkpt><trkpt lat="40.69889004543005" lon="9.703391928437206"><ele>10.5</ele><time>2026-04-25T15:06:55Z</time></trkpt><trkpt lat="40.69892532356467" lon="9.703010652818577"><ele>12.0</ele><time>2026-04-25T15:06:56Z</time></trkpt><trkpt lat="40.69897877310575" lon="9.702619797289799"><ele>12.5</ele><time>2026-04-25T15:06:57Z</time></trkpt><trkpt lat="40.699043039006604" lon="9.702237168843524"><ele>13.0</ele><time>2026-04-25T15:06:58Z</time></trkpt><trkpt lat="40.699118015253376" lon="9.701876493194652"><ele>13.5</ele><time>2026-04-25T15:06:59Z</time></trkpt><trkpt lat="40.69919804536471" lon="9.701522236142178"><ele>14.0</ele><time>2026-04-25T15:07:00Z</time></trkpt><trkpt lat="40.69929342305229" lon="9.701164898659002"><ele>14.0</ele><time>2026-04-25T15:07:01Z</time></trkpt><trkpt lat="40.699400052471205" lon="9.70081321843691"><ele>14.0</ele><time>2026-04-25T15:07:02Z</time></trkpt><trkpt lat="40.69951470012" lon="9.700468928612612"><ele>15.5</ele><time>2026-04-25T15:07:03Z</time></trkpt><trkpt lat="40.699643431066626" lon="9.70012802658964"><ele>17.0</ele><time>2026-04-25T15:07:04Z</time></trkpt><trkpt lat="40.699782776597445" lon="9.699793767637095"><ele>17.0</ele><time>2026-04-25T15:07:05Z</time></trkpt><trkpt lat="40.69992875716095" lon="9.699474573770171"><ele>17.0</ele><time>2026-04-25T15:07:06Z</time></trkpt><trkpt lat="40.70008428640207" lon="9.699170354444327"><ele>16.0</ele><time>2026-04-25T15:07:07Z</time></trkpt><trkpt lat="40.70025099692547" lon="9.69888274347067"><ele>15.0</ele><time>2026-04-25T15:07:08Z</time></trkpt><trkpt lat="40.70042821477044" lon="9.698609754413821"><ele>16.0</ele><time>2026-04-25T15:07:09Z</time></trkpt><trkpt lat="40.700607393545155" lon="9.698338414192603"><ele>17.0</ele><time>2026-04-25T15:07:10Z</time></trkpt><trkpt lat="40.70079444550794" lon="9.698068996148793"><ele>17.0</ele><time>2026-04-25T15:07:11Z</time></trkpt><trkpt lat="40.70098669302351" lon="9.697809550034476"><ele>17.0</ele><time>2026-04-25T15:07:12Z</time></trkpt><trkpt lat="40.70118630758859" lon="9.697566632109371"><ele>19.0</ele><time>2026-04-25T15:07:13Z</time></trkpt><trkpt lat="40.70139928025138" lon="9.697328838652355"><ele>21.0</ele><time>2026-04-25T15:07:14Z</time></trkpt><trkpt lat="40.70162474816943" lon="9.697099965319934"><ele>22.5</ele><time>2026-04-25T15:07:15Z</time></trkpt><trkpt lat="40.70186485387578" lon="9.69687797935233"><ele>24.0</ele><time>2026-04-25T15:07:16Z</time></trkpt><trkpt lat="40.70211375747525" lon="9.696670390820522"><ele>26.5</ele><time>2026-04-25T15:07:17Z</time></trkpt><trkpt lat="40.70237394127324" lon="9.69646923308656"><ele>29.0</ele><time>2026-04-25T15:07:18Z</time></trkpt><trkpt lat="40.7026416227145" lon="9.696284099486356"><ele>28.5</ele><time>2026-04-25T15:07:19Z</time></trkpt><trkpt lat="40.70291336301227" lon="9.696114397514256"><ele>28.0</ele><time>2026-04-25T15:07:20Z</time></trkpt><trkpt lat="40.70318107872193" lon="9.69596828225395"><ele>27.0</ele><time>2026-04-25T15:07:21Z</time></trkpt><trkpt lat="40.703446613561226" lon="9.695832803973193"><ele>26.0</ele><time>2026-04-25T15:07:22Z</time></trkpt><trkpt lat="40.70371442582546" lon="9.695715103465899"><ele>23.0</ele><time>2026-04-25T15:07:23Z</time></trkpt><trkpt lat="40.703985009883894" lon="9.695610029331945"><ele>20.0</ele><time>2026-04-25T15:07:24Z</time></trkpt><trkpt lat="40.70426401579638" lon="9.695521250438338"><ele>19.0</ele><time>2026-04-25T15:07:25Z</time></trkpt><trkpt lat="40.704555207906004" lon="9.695448994441675"><ele>18.0</ele><time>2026-04-25T15:07:26Z</time></trkpt><trkpt lat="40.70484995345322" lon="9.695379043998436"><ele>18.0</ele><time>2026-04-25T15:07:27Z</time></trkpt><trkpt lat="40.7051372995948" lon="9.69530988930077"><ele>18.0</ele><time>2026-04-25T15:07:28Z</time></trkpt><trkpt lat="40.70540693472149" lon="9.69525007249191"><ele>18.5</ele><time>2026-04-25T15:07:29Z</time></trkpt><trkpt lat="40.70568626185977" lon="9.695188019305334"><ele>19.0</ele><time>2026-04-25T15:07:30Z</time></trkpt><trkpt lat="40.70596825438247" lon="9.695125591497732"><ele>19.5</ele><time>2026-04-25T15:07:31Z</time></trkpt><trkpt lat="40.706256406302586" lon="9.695058881386814"><ele>20.0</ele><time>2026-04-25T15:07:32Z</time></trkpt><trkpt lat="40.70654673886272" lon="9.694985418945246"><ele>20.0</ele><time>2026-04-25T15:07:33Z</time></trkpt><trkpt lat="40.706833886308054" lon="9.694900908557313"><ele>20.0</ele><time>2026-04-25T15:07:34Z</time></trkpt><trkpt lat="40.707122074361536" lon="9.694801019813575"><ele>20.5</ele><time>2026-04-25T15:07:35Z</time></trkpt><trkpt lat="40.70740524256319" lon="9.694686034423052"><ele>21.0</ele><time>2026-04-25T15:07:36Z</time></trkpt><trkpt lat="40.7076843246269" lon="9.694548844653852"><ele>25.5</ele><time>2026-04-25T15:07:37Z</time></trkpt><trkpt lat="40.707955712329486" lon="9.694394149908588"><ele>30.0</ele><time>2026-04-25T15:07:38Z</time></trkpt><trkpt lat="40.70821902626511" lon="9.69421131258509"><ele>30.0</ele><time>2026-04-25T15:07:39Z</time></trkpt><trkpt lat="40.708484604692096" lon="9.69401218530894"><ele>30.0</ele><time>2026-04-25T15:07:40Z</time></trkpt><trkpt lat="40.70874251111168" lon="9.693788335978565"><ele>30.0</ele><time>2026-04-25T15:07:41Z</time></trkpt><trkpt lat="40.70899302325456" lon="9.693544362700322"><ele>30.0</ele><time>2026-04-25T15:07:42Z</time></trkpt><trkpt lat="40.70922895311942" lon="9.693283861868558"><ele>24.5</ele><time>2026-04-25T15:07:43Z</time></trkpt><trkpt lat="40.709457351196676" lon="9.693002994139691"><ele>19.0</ele><time>2026-04-25T15:07:44Z</time></trkpt><trkpt lat="40.70967074064291" lon="9.692700937052933"><ele>19.0</ele><time>2026-04-25T15:07:45Z</time></trkpt><trkpt lat="40.709872510253085" lon="9.692389126510735"><ele>19.0</ele><time>2026-04-25T15:07:46Z</time></trkpt><trkpt lat="40.71005931180623" lon="9.692061870474753"><ele>19.5</ele><time>2026-04-25T15:07:47Z</time></trkpt><trkpt lat="40.71023470874658" lon="9.69172195874517"><ele>20.0</ele><time>2026-04-25T15:07:48Z</time></trkpt><trkpt lat="40.71039515669311" lon="9.691364124145153"><ele>19.0</ele><time>2026-04-25T15:07:49Z</time></trkpt><trkpt lat="40.71053964467448" lon="9.690991510125043"><ele>18.0</ele><time>2026-04-25T15:07:50Z</time></trkpt><trkpt lat="40.71066716336412" lon="9.690604596227722"><ele>19.0</ele><time>2026-04-25T15:07:51Z</time></trkpt><trkpt lat="40.710784535925065" lon="9.690227233608969"><ele>20.0</ele><time>2026-04-25T15:07:52Z</time></trkpt><trkpt lat="40.710879252733704" lon="9.689870248457913"><ele>20.0</ele><time>2026-04-25T15:07:53Z</time></trkpt><trkpt lat="40.710950146539204" lon="9.68951273869352"><ele>20.0</ele><time>2026-04-25T15:07:54Z</time></trkpt><trkpt lat="40.71101237685537" lon="9.689132446369547"><ele>21.0</ele><time>2026-04-25T15:07:55Z</time></trkpt><trkpt lat="40.71106991549015" lon="9.688737071065473"><ele>22.0</ele><time>2026-04-25T15:07:56Z</time></trkpt><trkpt lat="40.71112990762044" lon="9.688338288127794"><ele>19.5</ele><time>2026-04-25T15:07:57Z</time></trkpt><trkpt lat="40.71119595471355" lon="9.687950493487127"><ele>17.0</ele><time>2026-04-25T15:07:58Z</time></trkpt><trkpt lat="40.711269961111974" lon="9.687583732433904"><ele>17.0</ele><time>2026-04-25T15:07:59.001Z</time></trkpt><trkpt lat="40.71134586982091" lon="9.6872233543863"><ele>17.0</ele><time>2026-04-25T15:08:00.001Z</time></trkpt><trkpt lat="40.711433006757424" lon="9.686863033458534"><ele>17.0</ele><time>2026-04-25T15:08:01.001Z</time></trkpt><trkpt lat="40.71153494430345" lon="9.68651582767545"><ele>17.0</ele><time>2026-04-25T15:08:02.001Z</time></trkpt><trkpt lat="40.711642966655916" lon="9.686157561372104"><ele>17.5</ele><time>2026-04-25T15:08:03.001Z</time></trkpt><trkpt lat="40.71176092882934" lon="9.68579304753919"><ele>18.0</ele><time>2026-04-25T15:08:04.001Z</time></trkpt><trkpt lat="40.711888277108145" lon="9.685428185016583"><ele>18.0</ele><time>2026-04-25T15:08:05.001Z</time></trkpt><trkpt lat="40.71202883951418" lon="9.685075059787604"><ele>18.0</ele><time>2026-04-25T15:08:06.001Z</time></trkpt><trkpt lat="40.71218084070836" lon="9.684729860837718"><ele>18.5</ele><time>2026-04-25T15:08:07.001Z</time></trkpt><trkpt lat="40.712344504351854" lon="9.684391626037563"><ele>19.0</ele><time>2026-04-25T15:08:08.001Z</time></trkpt><trkpt lat="40.71251580220795" lon="9.684061513924528"><ele>19.0</ele><time>2026-04-25T15:08:09.001Z</time></trkpt><trkpt lat="40.71270272098894" lon="9.683730594951816"><ele>19.0</ele><time>2026-04-25T15:08:10.001Z</time></trkpt><trkpt lat="40.71289825610013" lon="9.683413502380489"><ele>20.5</ele><time>2026-04-25T15:08:11.001Z</time></trkpt><trkpt lat="40.71310584301235" lon="9.683103693374859"><ele>22.0</ele><time>2026-04-25T15:08:12.001Z</time></trkpt><trkpt lat="40.71332186365144" lon="9.6828004696246"><ele>22.0</ele><time>2026-04-25T15:08:13.001Z</time></trkpt><trkpt lat="40.713543086547276" lon="9.682509155464974"><ele>22.0</ele><time>2026-04-25T15:08:14.001Z</time></trkpt><trkpt lat="40.71376757608188" lon="9.682219104809144"><ele>24.0</ele><time>2026-04-25T15:08:15.001Z</time></trkpt><trkpt lat="40.71399684948078" lon="9.681931158563176"><ele>26.0</ele><time>2026-04-25T15:08:16.001Z</time></trkpt><trkpt lat="40.71422091066034" lon="9.68164864412555"><ele>25.5</ele><time>2026-04-25T15:08:17.001Z</time></trkpt><trkpt lat="40.71444463706626" lon="9.681357082287676"><ele>25.0</ele><time>2026-04-25T15:08:18.001Z</time></trkpt><trkpt lat="40.71466320250316" lon="9.681064041223278"><ele>26.5</ele><time>2026-04-25T15:08:19Z</time></trkpt><trkpt lat="40.71488050400212" lon="9.680758613224144"><ele>28.0</ele><time>2026-04-25T15:08:20Z</time></trkpt><trkpt lat="40.715085831796905" lon="9.680452448463402"><ele>27.0</ele><time>2026-04-25T15:08:21Z</time></trkpt><trkpt lat="40.715284914007064" lon="9.680131260555878"><ele>26.0</ele><time>2026-04-25T15:08:22Z</time></trkpt><trkpt lat="40.7154673033203" lon="9.679794235927512"><ele>26.0</ele><time>2026-04-25T15:08:23Z</time></trkpt><trkpt lat="40.7156444322373" lon="9.679453758433619"><ele>26.0</ele><time>2026-04-25T15:08:24Z</time></trkpt><trkpt lat="40.71581103204269" lon="9.679100077935269"><ele>26.0</ele><time>2026-04-25T15:08:25Z</time></trkpt><trkpt lat="40.715966086814696" lon="9.67874156527238"><ele>26.0</ele><time>2026-04-25T15:08:26Z</time></trkpt><trkpt lat="40.716102302031835" lon="9.678394375920089"><ele>25.5</ele><time>2026-04-25T15:08:27Z</time></trkpt><trkpt lat="40.71622702883145" lon="9.678042606922387"><ele>25.0</ele><time>2026-04-25T15:08:28Z</time></trkpt><trkpt lat="40.71634896031503" lon="9.677679443826664"><ele>26.5</ele><time>2026-04-25T15:08:29Z</time></trkpt><trkpt lat="40.71646459573875" lon="9.67731329141198"><ele>28.0</ele><time>2026-04-25T15:08:30Z</time></trkpt><trkpt lat="40.71657760184915" lon="9.676937918853733"><ele>28.5</ele><time>2026-04-25T15:08:31Z</time></trkpt><trkpt lat="40.71668608829894" lon="9.67655767497052"><ele>29.0</ele><time>2026-04-25T15:08:32Z</time></trkpt><trkpt lat="40.71679131873586" lon="9.676176742339377"><ele>30.0</ele><time>2026-04-25T15:08:33Z</time></trkpt><trkpt lat="40.71689828486322" lon="9.675799425252338"><ele>31.0</ele><time>2026-04-25T15:08:34Z</time></trkpt><trkpt lat="40.717009028820954" lon="9.67544795428303"><ele>32.5</ele><time>2026-04-25T15:08:35Z</time></trkpt><trkpt lat="40.717129485513794" lon="9.675109966671371"><ele>34.0</ele><time>2026-04-25T15:08:36Z</time></trkpt><trkpt lat="40.71725715326499" lon="9.674784514846962"><ele>34.0</ele><time>2026-04-25T15:08:37Z</time></trkpt><trkpt lat="40.7173931925119" lon="9.674466620075167"><ele>34.0</ele><time>2026-04-25T15:08:38Z</time></trkpt><trkpt lat="40.71753301590469" lon="9.67415339887671"><ele>33.5</ele><time>2026-04-25T15:08:39Z</time></trkpt><trkpt lat="40.71767579196093" lon="9.673844827168821"><ele>33.0</ele><time>2026-04-25T15:08:40Z</time></trkpt><trkpt lat="40.7178223730756" lon="9.673530348854232"><ele>33.0</ele><time>2026-04-25T15:08:41Z</time></trkpt><trkpt lat="40.71796413173881" lon="9.6732172075404"><ele>33.0</ele><time>2026-04-25T15:08:42Z</time></trkpt><trkpt lat="40.71809356804657" lon="9.67291087271639"><ele>36.5</ele><time>2026-04-25T15:08:43Z</time></trkpt><trkpt lat="40.71821424156759" lon="9.672602585855211"><ele>40.0</ele><time>2026-04-25T15:08:44Z</time></trkpt><trkpt lat="40.71832759165323" lon="9.67227973693729"><ele>40.0</ele><time>2026-04-25T15:08:45Z</time></trkpt><trkpt lat="40.71843699172396" lon="9.671941006894869"><ele>40.0</ele><time>2026-04-25T15:08:46Z</time></trkpt><trkpt lat="40.718538885360395" lon="9.671595961570977"><ele>40.5</ele><time>2026-04-25T15:08:47Z</time></trkpt><trkpt lat="40.71863792463374" lon="9.671246274885739"><ele>41.0</ele><time>2026-04-25T15:08:48Z</time></trkpt><trkpt lat="40.71873698689443" lon="9.67089515118256"><ele>41.0</ele><time>2026-04-25T15:08:49Z</time></trkpt><trkpt lat="40.718830486387404" lon="9.670574050608923"><ele>41.0</ele><time>2026-04-25T15:08:50Z</time></trkpt><trkpt lat="40.71892483786459" lon="9.670273111814648"><ele>45.0</ele><time>2026-04-25T15:08:51Z</time></trkpt><trkpt lat="40.71903001905668" lon="9.669978945177588"><ele>49.0</ele><time>2026-04-25T15:08:52Z</time></trkpt><trkpt lat="40.7191452415936" lon="9.66968996856848"><ele>50.5</ele><time>2026-04-25T15:08:53Z</time></trkpt><trkpt lat="40.71927093346576" lon="9.669409570565914"><ele>52.0</ele><time>2026-04-25T15:08:54Z</time></trkpt><trkpt lat="40.71939420351533" lon="9.669138414433421"><ele>48.0</ele><time>2026-04-25T15:08:55Z</time></trkpt><trkpt lat="40.71951509549026" lon="9.668866150264714"><ele>44.0</ele><time>2026-04-25T15:08:56Z</time></trkpt><trkpt lat="40.71963161946289" lon="9.668602463097722"><ele>44.0</ele><time>2026-04-25T15:08:57Z</time></trkpt><trkpt lat="40.719748067302824" lon="9.66834180536668"><ele>44.0</ele><time>2026-04-25T15:08:58Z</time></trkpt><trkpt lat="40.7198635756318" lon="9.668083018767662"><ele>44.0</ele><time>2026-04-25T15:08:59Z</time></trkpt><trkpt lat="40.719977963526695" lon="9.667824333592494"><ele>44.0</ele><time>2026-04-25T15:09:00Z</time></trkpt><trkpt lat="40.720092431077916" lon="9.6675689969019"><ele>43.0</ele><time>2026-04-25T15:09:01Z</time></trkpt><trkpt lat="40.72020757036427" lon="9.667312565239992"><ele>42.0</ele><time>2026-04-25T15:09:02Z</time></trkpt><trkpt lat="40.720329958539345" lon="9.667034727551497"><ele>46.0</ele><time>2026-04-25T15:09:03Z</time></trkpt><trkpt lat="40.72045568256391" lon="9.666746576566716"><ele>50.0</ele><time>2026-04-25T15:09:04Z</time></trkpt><trkpt lat="40.720584682709855" lon="9.666446445319066"><ele>50.0</ele><time>2026-04-25T15:09:05Z</time></trkpt><trkpt lat="40.720717315628306" lon="9.666141470837186"><ele>50.0</ele><time>2026-04-25T15:09:06Z</time></trkpt><trkpt lat="40.72086020337837" lon="9.665835687270432"><ele>52.5</ele><time>2026-04-25T15:09:07Z</time></trkpt><trkpt lat="40.72101354654421" lon="9.665532363689524"><ele>55.0</ele><time>2026-04-25T15:09:08Z</time></trkpt><trkpt lat="40.72118018766436" lon="9.66523225358863"><ele>55.0</ele><time>2026-04-25T15:09:09Z</time></trkpt><trkpt lat="40.72135732081703" lon="9.664938585014797"><ele>55.0</ele><time>2026-04-25T15:09:10Z</time></trkpt><trkpt lat="40.72154131346479" lon="9.664653187617198"><ele>53.5</ele><time>2026-04-25T15:09:11Z</time></trkpt><trkpt lat="40.721727537605496" lon="9.664371264469107"><ele>52.0</ele><time>2026-04-25T15:09:12Z</time></trkpt><trkpt lat="40.72189962722033" lon="9.664130854698973"><ele>52.0</ele><time>2026-04-25T15:09:13Z</time></trkpt><trkpt lat="40.722075123731074" lon="9.66390446962227"><ele>52.0</ele><time>2026-04-25T15:09:14Z</time></trkpt><trkpt lat="40.72224882381096" lon="9.663690337739542"><ele>60.0</ele><time>2026-04-25T15:09:15Z</time></trkpt><trkpt lat="40.7224261449926" lon="9.663479611782881"><ele>68.0</ele><time>2026-04-25T15:09:16Z</time></trkpt><trkpt lat="40.72260146562669" lon="9.663266378255983"><ele>62.0</ele><time>2026-04-25T15:09:17Z</time></trkpt><trkpt lat="40.72277191398744" lon="9.663052474188284"><ele>56.0</ele><time>2026-04-25T15:09:18Z</time></trkpt><trkpt lat="40.72293418860726" lon="9.662834811884032"><ele>63.5</ele><time>2026-04-25T15:09:19Z</time></trkpt><trkpt lat="40.72309680646882" lon="9.66260840432698"><ele>71.0</ele><time>2026-04-25T15:09:20Z</time></trkpt><trkpt lat="40.723257257206825" lon="9.662375333766972"><ele>71.0</ele><time>2026-04-25T15:09:21Z</time></trkpt><trkpt lat="40.72341380536789" lon="9.66213561491758"><ele>71.0</ele><time>2026-04-25T15:09:22Z</time></trkpt><trkpt lat="40.723565897753836" lon="9.6618921668928"><ele>68.0</ele><time>2026-04-25T15:09:23Z</time></trkpt><trkpt lat="40.723715575739085" lon="9.661646383793235"><ele>65.0</ele><time>2026-04-25T15:09:24Z</time></trkpt><trkpt lat="40.723860480976064" lon="9.661401342453033"><ele>65.0</ele><time>2026-04-25T15:09:25Z</time></trkpt><trkpt lat="40.72399472328234" lon="9.661168525467412"><ele>65.0</ele><time>2026-04-25T15:09:26Z</time></trkpt><trkpt lat="40.724118499544595" lon="9.660946714404952"><ele>65.0</ele><time>2026-04-25T15:09:27Z</time></trkpt><trkpt lat="40.72423513466441" lon="9.660726450577746"><ele>67.33333333333334</ele><time>2026-04-25T15:09:28Z</time></trkpt><trkpt lat="40.72434505405677" lon="9.660494871024868"><ele>69.66666666666667</ele><time>2026-04-25T15:09:29Z</time></trkpt><trkpt lat="40.724449577166226" lon="9.660272744797545"><ele>72.0</ele><time>2026-04-25T15:09:30Z</time></trkpt><trkpt lat="40.724550961860714" lon="9.660059234043338"><ele>80.0</ele><time>2026-04-25T15:09:31Z</time></trkpt><trkpt lat="40.72465037136463" lon="9.659854683743625"><ele>88.0</ele><time>2026-04-25T15:09:32Z</time></trkpt><trkpt lat="40.72475143911702" lon="9.659646004789817"><ele>96.0</ele><time>2026-04-25T15:09:33Z</time></trkpt><trkpt lat="40.72485077769182" lon="9.659430167169436"><ele>107.66666666666666</ele><time>2026-04-25T15:09:34.023Z</time></trkpt><trkpt lat="40.72494648154585" lon="9.659216208565828"><ele>119.33333333333333</ele><time>2026-04-25T15:09:35.015Z</time></trkpt><trkpt lat="40.72504639834634" lon="9.659004774871105"><ele>131.0</ele><time>2026-04-25T15:09:36.02Z</time></trkpt><trkpt lat="40.72514628680518" lon="9.658798472495866"><ele>134.33333333333331</ele><time>2026-04-25T15:09:37.021Z</time></trkpt><trkpt lat="40.725247459009495" lon="9.658581561829834"><ele>137.66666666666666</ele><time>2026-04-25T15:09:38.021Z</time></trkpt><trkpt lat="40.72534844189723" lon="9.658366478081348"><ele>141.0</ele><time>2026-04-25T15:09:39.022Z</time></trkpt><trkpt lat="40.725451024348736" lon="9.658149683178822"><ele>141.0</ele><time>2026-04-25T15:09:40.021Z</time></trkpt><trkpt lat="40.725552787863236" lon="9.657933744462177"><ele>141.0</ele><time>2026-04-25T15:09:41.016Z</time></trkpt><trkpt lat="40.72663815539259" lon="9.655622973418357"><ele>80.0</ele><time>2026-04-25T15:09:54.743Z</time></trkpt><trkpt lat="40.72757133187191" lon="9.653560486796282"><ele>75.5</ele><time>2026-04-25T15:09:56Z</time></trkpt><trkpt lat="40.727741664245926" lon="9.653309987137522"><ele>71.0</ele><time>2026-04-25T15:09:57Z</time></trkpt><trkpt lat="40.727891268272344" lon="9.653051467733377"><ele>72.5</ele><time>2026-04-25T15:09:58Z</time></trkpt><trkpt lat="40.728057693539" lon="9.652782630378141"><ele>74.0</ele><time>2026-04-25T15:09:59Z</time></trkpt><trkpt lat="40.728230049938986" lon="9.652529433669171"><ele>74.0</ele><time>2026-04-25T15:10:00Z</time></trkpt><trkpt lat="40.72840120816844" lon="9.652285696128665"><ele>74.0</ele><time>2026-04-25T15:10:01Z</time></trkpt><trkpt lat="40.728583992090456" lon="9.652052475772859"><ele>72.5</ele><time>2026-04-25T15:10:02Z</time></trkpt><trkpt lat="40.728768683296295" lon="9.651828855334571"><ele>71.0</ele><time>2026-04-25T15:10:03Z</time></trkpt><trkpt lat="40.72896274191171" lon="9.651614420956886"><ele>71.0</ele><time>2026-04-25T15:10:04Z</time></trkpt><trkpt lat="40.72917175522567" lon="9.651412056224812"><ele>71.0</ele><time>2026-04-25T15:10:05.001Z</time></trkpt><trkpt lat="40.729404345169236" lon="9.651208662274678"><ele>69.5</ele><time>2026-04-25T15:10:06.001Z</time></trkpt><trkpt lat="40.72963821351099" lon="9.651014723216944"><ele>68.0</ele><time>2026-04-25T15:10:07.001Z</time></trkpt><trkpt lat="40.72987471442587" lon="9.650827165827659"><ele>68.0</ele><time>2026-04-25T15:10:08.001Z</time></trkpt><trkpt lat="40.73012628284902" lon="9.650652576325639"><ele>68.0</ele><time>2026-04-25T15:10:09.001Z</time></trkpt><trkpt lat="40.73036576970124" lon="9.650489166495575"><ele>70.0</ele><time>2026-04-25T15:10:10.001Z</time></trkpt><trkpt lat="40.73061355693057" lon="9.650352677805522"><ele>72.0</ele><time>2026-04-25T15:10:11.001Z</time></trkpt><trkpt lat="40.7308694698486" lon="9.650233785149709"><ele>78.0</ele><time>2026-04-25T15:10:12.001Z</time></trkpt><trkpt lat="40.731129083490345" lon="9.65012527092159"><ele>84.0</ele><time>2026-04-25T15:10:13.001Z</time></trkpt><trkpt lat="40.73139647402549" lon="9.650022824171685"><ele>84.0</ele><time>2026-04-25T15:10:14.001Z</time></trkpt><trkpt lat="40.73167178233113" lon="9.649938317668271"><ele>84.0</ele><time>2026-04-25T15:10:15.001Z</time></trkpt><trkpt lat="40.73195338401699" lon="9.649867045034263"><ele>83.5</ele><time>2026-04-25T15:10:16.001Z</time></trkpt><trkpt lat="40.73223844360457" lon="9.649804967378484"><ele>83.0</ele><time>2026-04-25T15:10:17.001Z</time></trkpt><trkpt lat="40.7325254278415" lon="9.649754507221036"><ele>84.0</ele><time>2026-04-25T15:10:18.001Z</time></trkpt><trkpt lat="40.73281749800472" lon="9.649699175482798"><ele>85.0</ele><time>2026-04-25T15:10:19.001Z</time></trkpt><trkpt lat="40.73310640349494" lon="9.64962685184125"><ele>85.0</ele><time>2026-04-25T15:10:20.001Z</time></trkpt><trkpt lat="40.73339371291823" lon="9.649539874505903"><ele>85.0</ele><time>2026-04-25T15:10:21.001Z</time></trkpt><trkpt lat="40.73368043059457" lon="9.649436089824212"><ele>88.0</ele><time>2026-04-25T15:10:22.001Z</time></trkpt><trkpt lat="40.733965470823854" lon="9.649319297446297"><ele>91.0</ele><time>2026-04-25T15:10:23.001Z</time></trkpt><trkpt lat="40.734250021791716" lon="9.649189621572608"><ele>97.0</ele><time>2026-04-25T15:10:24.001Z</time></trkpt><trkpt lat="40.7345297694266" lon="9.649038683549977"><ele>103.0</ele><time>2026-04-25T15:10:25.001Z</time></trkpt><trkpt lat="40.73480647829778" lon="9.64887417526873"><ele>103.0</ele><time>2026-04-25T15:10:26Z</time></trkpt><trkpt lat="40.735074579387195" lon="9.648707766269427"><ele>103.0</ele><time>2026-04-25T15:10:27Z</time></trkpt><trkpt lat="40.735310745156696" lon="9.64854514561474"><ele>104.5</ele><time>2026-04-25T15:10:28Z</time></trkpt><trkpt lat="40.73552987854658" lon="9.648382104264826"><ele>106.0</ele><time>2026-04-25T15:10:29Z</time></trkpt><trkpt lat="40.735746243179854" lon="9.648213991114307"><ele>106.0</ele><time>2026-04-25T15:10:30Z</time></trkpt><trkpt lat="40.73595421292611" lon="9.648036281571418"><ele>106.0</ele><time>2026-04-25T15:10:31Z</time></trkpt><trkpt lat="40.73615739506916" lon="9.64785162992813"><ele>105.0</ele><time>2026-04-25T15:10:32Z</time></trkpt><trkpt lat="40.7363571488748" lon="9.647659337348292"><ele>104.0</ele><time>2026-04-25T15:10:33Z</time></trkpt><trkpt lat="40.73654378386606" lon="9.647465803509624"><ele>104.0</ele><time>2026-04-25T15:10:34Z</time></trkpt><trkpt lat="40.736722100700305" lon="9.647268117212498"><ele>104.0</ele><time>2026-04-25T15:10:35Z</time></trkpt><trkpt lat="40.736894426646174" lon="9.64706523123306"><ele>103.0</ele><time>2026-04-25T15:10:36Z</time></trkpt><trkpt lat="40.73706587852753" lon="9.646864535490034"><ele>102.0</ele><time>2026-04-25T15:10:37Z</time></trkpt><trkpt lat="40.737239030373075" lon="9.646661287970158"><ele>102.0</ele><time>2026-04-25T15:10:38Z</time></trkpt><trkpt lat="40.73742138675103" lon="9.646451641578011"><ele>102.0</ele><time>2026-04-25T15:10:39Z</time></trkpt><trkpt lat="40.73760784009305" lon="9.646243602490832"><ele>101.5</ele><time>2026-04-25T15:10:40Z</time></trkpt><trkpt lat="40.737798914968785" lon="9.64603907338921"><ele>101.0</ele><time>2026-04-25T15:10:41Z</time></trkpt><trkpt lat="40.73798756086362" lon="9.645834347716551"><ele>101.0</ele><time>2026-04-25T15:10:42Z</time></trkpt><trkpt lat="40.73817747583217" lon="9.645632358515972"><ele>101.0</ele><time>2026-04-25T15:10:43Z</time></trkpt><trkpt lat="40.738365615513" lon="9.645431932377786"><ele>102.5</ele><time>2026-04-25T15:10:44Z</time></trkpt><trkpt lat="40.73855267672225" lon="9.645229942565827"><ele>104.0</ele><time>2026-04-25T15:10:45Z</time></trkpt><trkpt lat="40.73873110908214" lon="9.64503906442002"><ele>104.0</ele><time>2026-04-25T15:10:46Z</time></trkpt><trkpt lat="40.738896934746066" lon="9.644854012619584"><ele>104.0</ele><time>2026-04-25T15:10:47Z</time></trkpt><trkpt lat="40.73906372856592" lon="9.644665352076276"><ele>104.0</ele><time>2026-04-25T15:10:48Z</time></trkpt><trkpt lat="40.73923256757179" lon="9.64446902854662"><ele>113.5</ele><time>2026-04-25T15:10:49Z</time></trkpt><trkpt lat="40.73940118854492" lon="9.644271068972497"><ele>123.0</ele><time>2026-04-25T15:10:50Z</time></trkpt><trkpt lat="40.73956791471662" lon="9.644070367415305"><ele>123.0</ele><time>2026-04-25T15:10:51Z</time></trkpt><trkpt lat="40.73973543473003" lon="9.643874948517288"><ele>123.0</ele><time>2026-04-25T15:10:52Z</time></trkpt><trkpt lat="40.73990381645266" lon="9.64368025012447"><ele>123.0</ele><time>2026-04-25T15:10:53Z</time></trkpt><trkpt lat="40.74007432530846" lon="9.64348315160885"><ele>132.0</ele><time>2026-04-25T15:10:54.021Z</time></trkpt><trkpt lat="40.74024220807861" lon="9.643289582811127"><ele>141.0</ele><time>2026-04-25T15:10:55.021Z</time></trkpt><trkpt lat="40.740409958483156" lon="9.643094654636055"><ele>150.0</ele><time>2026-04-25T15:10:56.023Z</time></trkpt><trkpt lat="40.740579271360446" lon="9.642899655190233"><ele>151.0</ele><time>2026-04-25T15:10:57.022Z</time></trkpt><trkpt lat="40.740748093269914" lon="9.642703561336079"><ele>152.0</ele><time>2026-04-25T15:10:58.021Z</time></trkpt><trkpt lat="40.7417683443434" lon="9.641502890744844"><ele>132.66666666666666</ele><time>2026-04-25T15:11:04Z</time></trkpt><trkpt lat="40.7419329187399" lon="9.64130918208171"><ele>113.33333333333333</ele><time>2026-04-25T15:11:05Z</time></trkpt><trkpt lat="40.7420887844155" lon="9.641119842923255"><ele>94.0</ele><time>2026-04-25T15:11:06Z</time></trkpt><trkpt lat="40.74225392664148" lon="9.640944232260964"><ele>94.0</ele><time>2026-04-25T15:11:07Z</time></trkpt><trkpt lat="40.74240731921191" lon="9.640763164283753"><ele>94.0</ele><time>2026-04-25T15:11:08Z</time></trkpt><trkpt lat="40.7425668147402" lon="9.640584076486757"><ele>94.0</ele><time>2026-04-25T15:11:09Z</time></trkpt><trkpt lat="40.74272915157232" lon="9.640405631210575"><ele>94.0</ele><time>2026-04-25T15:11:10Z</time></trkpt><trkpt lat="40.742893550086755" lon="9.640215269994108"><ele>94.0</ele><time>2026-04-25T15:11:11Z</time></trkpt><trkpt lat="40.743074644177696" lon="9.640025476604768"><ele>94.0</ele><time>2026-04-25T15:11:12Z</time></trkpt><trkpt lat="40.74327184469598" lon="9.639847529059313"><ele>94.0</ele><time>2026-04-25T15:11:13Z</time></trkpt><trkpt lat="40.74348034817708" lon="9.639677451471176"><ele>94.5</ele><time>2026-04-25T15:11:14Z</time></trkpt><trkpt lat="40.74369341655848" lon="9.63952197852878"><ele>95.0</ele><time>2026-04-25T15:11:15Z</time></trkpt><trkpt lat="40.74390645473735" lon="9.63938914644965"><ele>98.5</ele><time>2026-04-25T15:11:16Z</time></trkpt><trkpt lat="40.744118169322746" lon="9.639271583539934"><ele>102.0</ele><time>2026-04-25T15:11:17Z</time></trkpt><trkpt lat="40.74433094466309" lon="9.63917197129508"><ele>102.66666666666666</ele><time>2026-04-25T15:11:18Z</time></trkpt><trkpt lat="40.74454803602602" lon="9.639087451133094"><ele>103.33333333333333</ele><time>2026-04-25T15:11:19Z</time></trkpt><trkpt lat="40.74476394233417" lon="9.639013888681225"><ele>104.0</ele><time>2026-04-25T15:11:20Z</time></trkpt><trkpt lat="40.74498061181054" lon="9.638961667984743"><ele>104.0</ele><time>2026-04-25T15:11:21Z</time></trkpt><trkpt lat="40.74520340368271" lon="9.638934491914348"><ele>104.0</ele><time>2026-04-25T15:11:22Z</time></trkpt><trkpt lat="40.74542108535824" lon="9.638905628930138"><ele>104.0</ele><time>2026-04-25T15:11:23Z</time></trkpt><trkpt lat="40.74564362805373" lon="9.638893261518525"><ele>102.0</ele><time>2026-04-25T15:11:24Z</time></trkpt><trkpt lat="40.745866227255235" lon="9.638891011234481"><ele>100.0</ele><time>2026-04-25T15:11:25Z</time></trkpt><trkpt lat="40.74609150625688" lon="9.638909277171768"><ele>98.0</ele><time>2026-04-25T15:11:26Z</time></trkpt><trkpt lat="40.74631629043341" lon="9.638946351092352"><ele>96.0</ele><time>2026-04-25T15:11:27Z</time></trkpt><trkpt lat="40.746542191879335" lon="9.638995041427597"><ele>94.0</ele><time>2026-04-25T15:11:28Z</time></trkpt><trkpt lat="40.74676415321424" lon="9.63906526467901"><ele>97.0</ele><time>2026-04-25T15:11:29Z</time></trkpt><trkpt lat="40.746989331704526" lon="9.639148229256838"><ele>100.0</ele><time>2026-04-25T15:11:30Z</time></trkpt><trkpt lat="40.747203635785034" lon="9.63924747747397"><ele>100.0</ele><time>2026-04-25T15:11:31Z</time></trkpt><trkpt lat="40.74742217509282" lon="9.639359499409002"><ele>100.0</ele><time>2026-04-25T15:11:32Z</time></trkpt><trkpt lat="40.74764100846148" lon="9.639487816835604"><ele>102.0</ele><time>2026-04-25T15:11:33Z</time></trkpt><trkpt lat="40.74786417993176" lon="9.63962708385839"><ele>104.0</ele><time>2026-04-25T15:11:34Z</time></trkpt><trkpt lat="40.7480764225781" lon="9.639757484470652"><ele>104.0</ele><time>2026-04-25T15:11:35Z</time></trkpt><trkpt lat="40.7482823192401" lon="9.639886135878461"><ele>104.0</ele><time>2026-04-25T15:11:36Z</time></trkpt><trkpt lat="40.74849155855562" lon="9.640015697204666"><ele>101.5</ele><time>2026-04-25T15:11:37Z</time></trkpt><trkpt lat="40.74870000147764" lon="9.640141582266743"><ele>99.0</ele><time>2026-04-25T15:11:38Z</time></trkpt><trkpt lat="40.74890636864589" lon="9.640261672176353"><ele>95.5</ele><time>2026-04-25T15:11:39Z</time></trkpt><trkpt lat="40.74911546025398" lon="9.640374893351224"><ele>92.0</ele><time>2026-04-25T15:11:40Z</time></trkpt><trkpt lat="40.74932636824485" lon="9.640481659994805"><ele>92.66666666666667</ele><time>2026-04-25T15:11:41Z</time></trkpt><trkpt lat="40.74953845649524" lon="9.640574526288146"><ele>93.33333333333333</ele><time>2026-04-25T15:11:42Z</time></trkpt><trkpt lat="40.74975359517361" lon="9.640657724517268"><ele>94.0</ele><time>2026-04-25T15:11:43Z</time></trkpt><trkpt lat="40.74997423713316" lon="9.64072474036043"><ele>94.0</ele><time>2026-04-25T15:11:44Z</time></trkpt><trkpt lat="40.7501982771332" lon="9.640779243798846"><ele>94.0</ele><time>2026-04-25T15:11:45Z</time></trkpt><trkpt lat="40.75042670479388" lon="9.640817880547125"><ele>91.0</ele><time>2026-04-25T15:11:46Z</time></trkpt><trkpt lat="40.75065721139261" lon="9.640842445953362"><ele>88.0</ele><time>2026-04-25T15:11:47Z</time></trkpt><trkpt lat="40.75088138645882" lon="9.640844752874855"><ele>84.33333333333333</ele><time>2026-04-25T15:11:48Z</time></trkpt><trkpt lat="40.75110234181137" lon="9.640841347410257"><ele>80.66666666666667</ele><time>2026-04-25T15:11:49Z</time></trkpt><trkpt lat="40.75132139655288" lon="9.640818548223132"><ele>77.0</ele><time>2026-04-25T15:11:50Z</time></trkpt><trkpt lat="40.75154722604482" lon="9.640786154862214"><ele>77.0</ele><time>2026-04-25T15:11:51Z</time></trkpt><trkpt lat="40.75177259669759" lon="9.640736094317127"><ele>77.0</ele><time>2026-04-25T15:11:52Z</time></trkpt><trkpt lat="40.75200100195551" lon="9.640667736042928"><ele>74.0</ele><time>2026-04-25T15:11:53Z</time></trkpt><trkpt lat="40.75223576630395" lon="9.640577359387091"><ele>71.0</ele><time>2026-04-25T15:11:54Z</time></trkpt><trkpt lat="40.752474960757496" lon="9.64047148204841"><ele>71.0</ele><time>2026-04-25T15:11:55Z</time></trkpt><trkpt lat="40.75269604522985" lon="9.640356774097066"><ele>71.0</ele><time>2026-04-25T15:11:56Z</time></trkpt><trkpt lat="40.752910627752264" lon="9.640243356255837"><ele>71.0</ele><time>2026-04-25T15:11:57Z</time></trkpt><trkpt lat="40.753120518077225" lon="9.640129118811966"><ele>71.0</ele><time>2026-04-25T15:11:58Z</time></trkpt><trkpt lat="40.753322124574616" lon="9.640015630971448"><ele>71.0</ele><time>2026-04-25T15:11:59Z</time></trkpt><trkpt lat="40.7535227546888" lon="9.639908168832921"><ele>69.0</ele><time>2026-04-25T15:12:00Z</time></trkpt><trkpt lat="40.7537267127802" lon="9.639808349648831"><ele>67.0</ele><time>2026-04-25T15:12:01Z</time></trkpt><trkpt lat="40.75393119989365" lon="9.639717319260699"><ele>65.0</ele><time>2026-04-25T15:12:02Z</time></trkpt><trkpt lat="40.75413345627437" lon="9.639636807255926"><ele>65.0</ele><time>2026-04-25T15:12:03Z</time></trkpt><trkpt lat="40.754331450508175" lon="9.639568571556058"><ele>65.0</ele><time>2026-04-25T15:12:04Z</time></trkpt><trkpt lat="40.754531159562084" lon="9.639516348329664"><ele>65.0</ele><time>2026-04-25T15:12:05Z</time></trkpt><trkpt lat="40.754732131832675" lon="9.639478726922649"><ele>65.0</ele><time>2026-04-25T15:12:06Z</time></trkpt><trkpt lat="40.75493472701887" lon="9.639451148428876"><ele>65.0</ele><time>2026-04-25T15:12:07Z</time></trkpt><trkpt lat="40.75514164200284" lon="9.639436248455853"><ele>65.0</ele><time>2026-04-25T15:12:08Z</time></trkpt><trkpt lat="40.75534866781251" lon="9.639432128607048"><ele>63.333333333333336</ele><time>2026-04-25T15:12:09Z</time></trkpt><trkpt lat="40.75555415578039" lon="9.639441107428365"><ele>61.66666666666667</ele><time>2026-04-25T15:12:10Z</time></trkpt><trkpt lat="40.755765840145386" lon="9.63946272205268"><ele>60.0</ele><time>2026-04-25T15:12:11.001Z</time></trkpt><trkpt lat="40.75597907300509" lon="9.639501529732733"><ele>57.66666666666667</ele><time>2026-04-25T15:12:12.001Z</time></trkpt><trkpt lat="40.75618921312698" lon="9.639552839494424"><ele>55.333333333333336</ele><time>2026-04-25T15:12:13.001Z</time></trkpt><trkpt lat="40.75639984413816" lon="9.639613988474931"><ele>53.0</ele><time>2026-04-25T15:12:14.001Z</time></trkpt><trkpt lat="40.75660791146718" lon="9.639691742441894"><ele>53.0</ele><time>2026-04-25T15:12:15.001Z</time></trkpt><trkpt lat="40.756817007972366" lon="9.639784172649268"><ele>53.0</ele><time>2026-04-25T15:12:16.001Z</time></trkpt><trkpt lat="40.75701959546188" lon="9.639890132019094"><ele>53.0</ele><time>2026-04-25T15:12:17.001Z</time></trkpt><trkpt lat="40.757207276492736" lon="9.639998360995087"><ele>56.333333333333336</ele><time>2026-04-25T15:12:18.001Z</time></trkpt><trkpt lat="40.75738197178313" lon="9.640110071127799"><ele>59.66666666666667</ele><time>2026-04-25T15:12:19.001Z</time></trkpt><trkpt lat="40.75755188730089" lon="9.640229822765752"><ele>63.0</ele><time>2026-04-25T15:12:20.001Z</time></trkpt><trkpt lat="40.75771818135911" lon="9.64036217239546"><ele>63.0</ele><time>2026-04-25T15:12:21.001Z</time></trkpt><trkpt lat="40.75787856647546" lon="9.640505708129792"><ele>63.0</ele><time>2026-04-25T15:12:22.001Z</time></trkpt><trkpt lat="40.75803364152389" lon="9.64066433251148"><ele>63.0</ele><time>2026-04-25T15:12:23.001Z</time></trkpt><trkpt lat="40.758194960613984" lon="9.640839972845255"><ele>63.0</ele><time>2026-04-25T15:12:24Z</time></trkpt><trkpt lat="40.758363646330615" lon="9.64104340130682"><ele>63.0</ele><time>2026-04-25T15:12:25Z</time></trkpt><trkpt lat="40.75853318040221" lon="9.641262760947178"><ele>62.5</ele><time>2026-04-25T15:12:26Z</time></trkpt><trkpt lat="40.75870568028267" lon="9.641490842678095"><ele>62.0</ele><time>2026-04-25T15:12:27Z</time></trkpt><trkpt lat="40.75887193887501" lon="9.641710009875728"><ele>62.0</ele><time>2026-04-25T15:12:28Z</time></trkpt><trkpt lat="40.75903120585969" lon="9.641917150602016"><ele>62.0</ele><time>2026-04-25T15:12:29Z</time></trkpt><trkpt lat="40.759191077275936" lon="9.642112568079453"><ele>62.0</ele><time>2026-04-25T15:12:30Z</time></trkpt><trkpt lat="40.759361481774214" lon="9.642309106451245"><ele>63.0</ele><time>2026-04-25T15:12:31Z</time></trkpt><trkpt lat="40.759550384780624" lon="9.64251193267467"><ele>64.0</ele><time>2026-04-25T15:12:32Z</time></trkpt><trkpt lat="40.759753617925966" lon="9.642720217799768"><ele>65.5</ele><time>2026-04-25T15:12:33Z</time></trkpt><trkpt lat="40.75997339637976" lon="9.642919944332684"><ele>67.0</ele><time>2026-04-25T15:12:34Z</time></trkpt><trkpt lat="40.76020857585131" lon="9.643102670497461"><ele>67.0</ele><time>2026-04-25T15:12:35Z</time></trkpt><trkpt lat="40.76046060258492" lon="9.643271029909764"><ele>67.0</ele><time>2026-04-25T15:12:36Z</time></trkpt><trkpt lat="40.76070901329793" lon="9.643419124411306"><ele>67.0</ele><time>2026-04-25T15:12:37Z</time></trkpt><trkpt lat="40.76094526542408" lon="9.643535467991972"><ele>67.0</ele><time>2026-04-25T15:12:38Z</time></trkpt><trkpt lat="40.76118659767426" lon="9.64363318001423"><ele>72.0</ele><time>2026-04-25T15:12:39Z</time></trkpt><trkpt lat="40.761436857737564" lon="9.64371403856062"><ele>77.0</ele><time>2026-04-25T15:12:40Z</time></trkpt><trkpt lat="40.76168940442317" lon="9.6437774030179"><ele>69.5</ele><time>2026-04-25T15:12:41Z</time></trkpt><trkpt lat="40.76194770703845" lon="9.643836597745905"><ele>62.0</ele><time>2026-04-25T15:12:42.017Z</time></trkpt><trkpt lat="40.762201162372676" lon="9.643896661324554"><ele>62.0</ele><time>2026-04-25T15:12:43.014Z</time></trkpt><trkpt lat="40.762458460713326" lon="9.643927535983579"><ele>62.0</ele><time>2026-04-25T15:12:44.023Z</time></trkpt><trkpt lat="40.76270419423015" lon="9.64392013759839"><ele>52.5</ele><time>2026-04-25T15:12:45Z</time></trkpt><trkpt lat="40.7629674571756" lon="9.643842961081331"><ele>43.0</ele><time>2026-04-25T15:12:46Z</time></trkpt><trkpt lat="40.76321570792918" lon="9.643783926509794"><ele>43.0</ele><time>2026-04-25T15:12:47Z</time></trkpt><trkpt lat="40.763463799381476" lon="9.64369787450774"><ele>43.0</ele><time>2026-04-25T15:12:48Z</time></trkpt><trkpt lat="40.76372234391956" lon="9.64360656674256"><ele>44.0</ele><time>2026-04-25T15:12:49Z</time></trkpt><trkpt lat="40.76399020121243" lon="9.643481701157649"><ele>45.0</ele><time>2026-04-25T15:12:50Z</time></trkpt><trkpt lat="40.76423738175438" lon="9.643346001737955"><ele>49.0</ele><time>2026-04-25T15:12:51Z</time></trkpt><trkpt lat="40.764469591372496" lon="9.643197745908807"><ele>53.0</ele><time>2026-04-25T15:12:52Z</time></trkpt><trkpt lat="40.76468547112352" lon="9.64304261966569"><ele>53.0</ele><time>2026-04-25T15:12:53Z</time></trkpt><trkpt lat="40.7648814596916" lon="9.64288056930801"><ele>53.0</ele><time>2026-04-25T15:12:54Z</time></trkpt><trkpt lat="40.76506055659353" lon="9.6427190305991"><ele>53.0</ele><time>2026-04-25T15:12:55Z</time></trkpt><trkpt lat="40.76521944230194" lon="9.642569322574664"><ele>55.25</ele><time>2026-04-25T15:12:56Z</time></trkpt><trkpt lat="40.76535719300407" lon="9.642435654013395"><ele>57.5</ele><time>2026-04-25T15:12:57Z</time></trkpt><trkpt lat="40.76547729317576" lon="9.642325479601464"><ele>59.75</ele><time>2026-04-25T15:12:58Z</time></trkpt><trkpt lat="40.765573633187266" lon="9.642242922554967"><ele>62.0</ele><time>2026-04-25T15:12:59Z</time></trkpt><trkpt lat="40.765650396605935" lon="9.642180433952905"><ele>62.0</ele><time>2026-04-25T15:13:00Z</time></trkpt><trkpt lat="40.76572763585875" lon="9.642100349306707"><ele>62.0</ele><time>2026-04-25T15:13:02Z</time></trkpt><trkpt lat="40.765768954366834" lon="9.642029941608405"><ele>62.0</ele><time>2026-04-25T15:13:30Z</time></trkpt><trkpt lat="40.76581016856969" lon="9.641964771266277"><ele>62.0</ele><time>2026-04-25T15:13:31Z</time></trkpt><trkpt lat="40.76588038509999" lon="9.641866145775637"><ele>62.0</ele><time>2026-04-25T15:13:32Z</time></trkpt><trkpt lat="40.76598264190649" lon="9.641754074284314"><ele>63.0</ele><time>2026-04-25T15:13:33Z</time></trkpt><trkpt lat="40.76610374649906" lon="9.641622007210568"><ele>64.0</ele><time>2026-04-25T15:13:34Z</time></trkpt><trkpt lat="40.76624195958106" lon="9.641471598813462"><ele>65.0</ele><time>2026-04-25T15:13:35Z</time></trkpt><trkpt lat="40.766393726520015" lon="9.641306190707256"><ele>62.66666666666667</ele><time>2026-04-25T15:13:36Z</time></trkpt><trkpt lat="40.76655771023626" lon="9.641128279549958"><ele>60.33333333333333</ele><time>2026-04-25T15:13:37Z</time></trkpt><trkpt lat="40.76673105179176" lon="9.640939888953163"><ele>58.0</ele><time>2026-04-25T15:13:38Z</time></trkpt><trkpt lat="40.76690833932262" lon="9.64074457803695"><ele>58.0</ele><time>2026-04-25T15:13:39Z</time></trkpt><trkpt lat="40.767093099927784" lon="9.640540747660989"><ele>58.0</ele><time>2026-04-25T15:13:40Z</time></trkpt><trkpt lat="40.76728482589744" lon="9.640331156578485"><ele>59.0</ele><time>2026-04-25T15:13:41Z</time></trkpt><trkpt lat="40.76747733616425" lon="9.640116303316686"><ele>60.0</ele><time>2026-04-25T15:13:42Z</time></trkpt><trkpt lat="40.76766040524576" lon="9.639918449810633"><ele>60.5</ele><time>2026-04-25T15:13:43Z</time></trkpt><trkpt lat="40.76783116161114" lon="9.639728405574855"><ele>61.0</ele><time>2026-04-25T15:13:44Z</time></trkpt><trkpt lat="40.76801677778491" lon="9.639530501882442"><ele>62.5</ele><time>2026-04-25T15:13:45Z</time></trkpt><trkpt lat="40.76820758012382" lon="9.639327592491032"><ele>64.0</ele><time>2026-04-25T15:13:46Z</time></trkpt><trkpt lat="40.768400629656604" lon="9.639114491368606"><ele>63.0</ele><time>2026-04-25T15:13:47Z</time></trkpt><trkpt lat="40.76859304210183" lon="9.638903411179054"><ele>62.0</ele><time>2026-04-25T15:13:48Z</time></trkpt><trkpt lat="40.768794432916835" lon="9.638681540615684"><ele>62.5</ele><time>2026-04-25T15:13:49Z</time></trkpt><trkpt lat="40.76899600143874" lon="9.638459434607888"><ele>63.0</ele><time>2026-04-25T15:13:50Z</time></trkpt><trkpt lat="40.76919507928134" lon="9.638238625858666"><ele>67.0</ele><time>2026-04-25T15:13:51Z</time></trkpt><trkpt lat="40.76939680557702" lon="9.638015099332927"><ele>71.0</ele><time>2026-04-25T15:13:52Z</time></trkpt><trkpt lat="40.76959600233926" lon="9.637787086519001"><ele>71.0</ele><time>2026-04-25T15:13:53Z</time></trkpt><trkpt lat="40.76978925109926" lon="9.637553407420612"><ele>71.0</ele><time>2026-04-25T15:13:54Z</time></trkpt><trkpt lat="40.76997578088268" lon="9.637309484543586"><ele>71.0</ele><time>2026-04-25T15:13:55Z</time></trkpt><trkpt lat="40.770157804427384" lon="9.637055516585823"><ele>71.0</ele><time>2026-04-25T15:13:56Z</time></trkpt><trkpt lat="40.7703362916808" lon="9.636796073403257"><ele>79.5</ele><time>2026-04-25T15:13:57Z</time></trkpt><trkpt lat="40.77051018046466" lon="9.636527896990744"><ele>88.0</ele><time>2026-04-25T15:13:58Z</time></trkpt><trkpt lat="40.770680730615524" lon="9.636245390218091"><ele>85.0</ele><time>2026-04-25T15:13:59Z</time></trkpt><trkpt lat="40.77084413984233" lon="9.635942431253602"><ele>82.0</ele><time>2026-04-25T15:14:00Z</time></trkpt><trkpt lat="40.77099702643764" lon="9.635627115930081"><ele>86.0</ele><time>2026-04-25T15:14:01Z</time></trkpt><trkpt lat="40.771146702255244" lon="9.635299065924775"><ele>90.0</ele><time>2026-04-25T15:14:02Z</time></trkpt><trkpt lat="40.77128833454633" lon="9.634968503044862"><ele>90.0</ele><time>2026-04-25T15:14:03Z</time></trkpt><trkpt lat="40.77142877002841" lon="9.634630296838749"><ele>90.0</ele><time>2026-04-25T15:14:04Z</time></trkpt><trkpt lat="40.77156172353277" lon="9.634283554429377"><ele>86.0</ele><time>2026-04-25T15:14:05Z</time></trkpt><trkpt lat="40.771683585535115" lon="9.633930679938144"><ele>82.0</ele><time>2026-04-25T15:14:06Z</time></trkpt><trkpt lat="40.77179520545045" lon="9.63357107022878"><ele>84.5</ele><time>2026-04-25T15:14:07Z</time></trkpt><trkpt lat="40.771898663305954" lon="9.633203085570903"><ele>87.0</ele><time>2026-04-25T15:14:08Z</time></trkpt><trkpt lat="40.771993190560536" lon="9.63282964967047"><ele>91.0</ele><time>2026-04-25T15:14:09Z</time></trkpt><trkpt lat="40.772079098174494" lon="9.632456598192142"><ele>95.0</ele><time>2026-04-25T15:14:10Z</time></trkpt><trkpt lat="40.77215811260331" lon="9.632080648272417"><ele>95.5</ele><time>2026-04-25T15:14:11Z</time></trkpt><trkpt lat="40.77223764839117" lon="9.631704406189492"><ele>96.0</ele><time>2026-04-25T15:14:12Z</time></trkpt><trkpt lat="40.772317554724765" lon="9.631325703928121"><ele>92.0</ele><time>2026-04-25T15:14:13Z</time></trkpt><trkpt lat="40.77240096642946" lon="9.630950100163881"><ele>88.0</ele><time>2026-04-25T15:14:14Z</time></trkpt><trkpt lat="40.77248984148013" lon="9.6305768937055"><ele>91.5</ele><time>2026-04-25T15:14:15Z</time></trkpt><trkpt lat="40.77258511933567" lon="9.630202744286086"><ele>95.0</ele><time>2026-04-25T15:14:16Z</time></trkpt><trkpt lat="40.77267658629665" lon="9.629832323307847"><ele>100.5</ele><time>2026-04-25T15:14:17Z</time></trkpt><trkpt lat="40.77277512849915" lon="9.62945677187612"><ele>106.0</ele><time>2026-04-25T15:14:18Z</time></trkpt><trkpt lat="40.7728829860079" lon="9.629089660674744"><ele>106.0</ele><time>2026-04-25T15:14:19Z</time></trkpt><trkpt lat="40.77299536166452" lon="9.628735678478549"><ele>106.0</ele><time>2026-04-25T15:14:20Z</time></trkpt><trkpt lat="40.773111374943355" lon="9.628386212048934"><ele>104.5</ele><time>2026-04-25T15:14:21Z</time></trkpt><trkpt lat="40.77323839563932" lon="9.628035282224683"><ele>103.0</ele><time>2026-04-25T15:14:22Z</time></trkpt><trkpt lat="40.773371911535584" lon="9.627687496944713"><ele>101.0</ele><time>2026-04-25T15:14:23Z</time></trkpt><trkpt lat="40.77351391875919" lon="9.627343257923233"><ele>99.0</ele><time>2026-04-25T15:14:24Z</time></trkpt><trkpt lat="40.77366454775924" lon="9.626999371380416"><ele>105.5</ele><time>2026-04-25T15:14:25Z</time></trkpt><trkpt lat="40.77381961756006" lon="9.626669454028434"><ele>112.0</ele><time>2026-04-25T15:14:26Z</time></trkpt><trkpt lat="40.77397952055043" lon="9.626345179209821"><ele>120.0</ele><time>2026-04-25T15:14:27Z</time></trkpt><trkpt lat="40.774145354096476" lon="9.626023501912837"><ele>128.0</ele><time>2026-04-25T15:14:28Z</time></trkpt><trkpt lat="40.77431914008225" lon="9.625700660559291"><ele>128.0</ele><time>2026-04-25T15:14:29Z</time></trkpt><trkpt lat="40.77449882632685" lon="9.625386730648968"><ele>128.0</ele><time>2026-04-25T15:14:30Z</time></trkpt><trkpt lat="40.77468760184316" lon="9.625075100623109"><ele>128.0</ele><time>2026-04-25T15:14:31Z</time></trkpt><trkpt lat="40.77488291675617" lon="9.6247763915003"><ele>128.0</ele><time>2026-04-25T15:14:32Z</time></trkpt><trkpt lat="40.77508482914818" lon="9.62448368750192"><ele>128.5</ele><time>2026-04-25T15:14:33Z</time></trkpt><trkpt lat="40.77529038362951" lon="9.624193218886793"><ele>129.0</ele><time>2026-04-25T15:14:34Z</time></trkpt><trkpt lat="40.77549638755239" lon="9.623911379171433"><ele>134.5</ele><time>2026-04-25T15:14:35Z</time></trkpt><trkpt lat="40.77570915824423" lon="9.62363645542814"><ele>140.0</ele><time>2026-04-25T15:14:36Z</time></trkpt><trkpt lat="40.77593041624098" lon="9.623367983728878"><ele>138.5</ele><time>2026-04-25T15:14:37Z</time></trkpt><trkpt lat="40.776161518234886" lon="9.623106381720767"><ele>137.0</ele><time>2026-04-25T15:14:38Z</time></trkpt><trkpt lat="40.77639569354927" lon="9.622851429807698"><ele>140.5</ele><time>2026-04-25T15:14:39Z</time></trkpt><trkpt lat="40.776632699691895" lon="9.622603690600101"><ele>144.0</ele><time>2026-04-25T15:14:40Z</time></trkpt><trkpt lat="40.77686509168712" lon="9.622377103455884"><ele>144.0</ele><time>2026-04-25T15:14:41Z</time></trkpt><trkpt lat="40.77709242309815" lon="9.622164365378573"><ele>144.0</ele><time>2026-04-25T15:14:42Z</time></trkpt><trkpt lat="40.77731091710084" lon="9.621975929176136"><ele>144.5</ele><time>2026-04-25T15:14:43Z</time></trkpt><trkpt lat="40.777531353851316" lon="9.62179174227321"><ele>145.0</ele><time>2026-04-25T15:14:44Z</time></trkpt><trkpt lat="40.77775104018697" lon="9.621609387983098"><ele>145.0</ele><time>2026-04-25T15:14:45Z</time></trkpt><trkpt lat="40.777972617427686" lon="9.621429480938184"><ele>145.0</ele><time>2026-04-25T15:14:46Z</time></trkpt><trkpt lat="40.77819514807188" lon="9.621265797175328"><ele>145.5</ele><time>2026-04-25T15:14:47Z</time></trkpt><trkpt lat="40.77842645514189" lon="9.621108153467288"><ele>146.0</ele><time>2026-04-25T15:14:48Z</time></trkpt><trkpt lat="40.77866199970009" lon="9.620945988054801"><ele>147.0</ele><time>2026-04-25T15:14:49.019Z</time></trkpt><trkpt lat="40.77889479723746" lon="9.620786433477734"><ele>148.0</ele><time>2026-04-25T15:14:50.021Z</time></trkpt><trkpt lat="40.77912895624652" lon="9.620625677954576"><ele>151.5</ele><time>2026-04-25T15:14:51.022Z</time></trkpt><trkpt lat="40.77936485207231" lon="9.620467616820928"><ele>155.0</ele><time>2026-04-25T15:14:52.02Z</time></trkpt><trkpt lat="40.7883709296964" lon="9.615223780283346"><ele>114.0</ele><time>2026-04-25T15:15:28Z</time></trkpt><trkpt lat="40.78859133827137" lon="9.615027429148101"><ele>73.0</ele><time>2026-04-25T15:15:29Z</time></trkpt><trkpt lat="40.78875239638077" lon="9.614782942008173"><ele>73.0</ele><time>2026-04-25T15:15:30Z</time></trkpt><trkpt lat="40.78895827661147" lon="9.61454096525873"><ele>73.0</ele><time>2026-04-25T15:15:31Z</time></trkpt><trkpt lat="40.789173709702716" lon="9.614293291968352"><ele>69.5</ele><time>2026-04-25T15:15:32Z</time></trkpt><trkpt lat="40.78938579667276" lon="9.614029593258294"><ele>66.0</ele><time>2026-04-25T15:15:33Z</time></trkpt><trkpt lat="40.789598742234496" lon="9.613751290105716"><ele>72.5</ele><time>2026-04-25T15:15:34Z</time></trkpt><trkpt lat="40.7898039566801" lon="9.613466135637811"><ele>79.0</ele><time>2026-04-25T15:15:35Z</time></trkpt><trkpt lat="40.79000422510036" lon="9.613176747901718"><ele>77.5</ele><time>2026-04-25T15:15:36Z</time></trkpt><trkpt lat="40.79020912309349" lon="9.612880531307063"><ele>76.0</ele><time>2026-04-25T15:15:37Z</time></trkpt><trkpt lat="40.79041472449682" lon="9.612582767429474"><ele>85.0</ele><time>2026-04-25T15:15:38Z</time></trkpt><trkpt lat="40.790637824838406" lon="9.612285564913199"><ele>94.0</ele><time>2026-04-25T15:15:39Z</time></trkpt><trkpt lat="40.790853501185566" lon="9.611991018158216"><ele>86.5</ele><time>2026-04-25T15:15:40Z</time></trkpt><trkpt lat="40.79107692041121" lon="9.61171071966448"><ele>79.0</ele><time>2026-04-25T15:15:41Z</time></trkpt><trkpt lat="40.79131439424992" lon="9.61144200899931"><ele>79.0</ele><time>2026-04-25T15:15:42Z</time></trkpt><trkpt lat="40.79155956791877" lon="9.611195557695453"><ele>79.0</ele><time>2026-04-25T15:15:43Z</time></trkpt><trkpt lat="40.79181508858467" lon="9.610966733399845"><ele>90.5</ele><time>2026-04-25T15:15:44Z</time></trkpt><trkpt lat="40.79207457555216" lon="9.610759870894865"><ele>102.0</ele><time>2026-04-25T15:15:45Z</time></trkpt><trkpt lat="40.79231893555986" lon="9.610580100250745"><ele>102.0</ele><time>2026-04-25T15:15:46Z</time></trkpt><trkpt lat="40.79255280331889" lon="9.610424633457725"><ele>102.0</ele><time>2026-04-25T15:15:47Z</time></trkpt><trkpt lat="40.792792022959766" lon="9.610283251773295"><ele>117.5</ele><time>2026-04-25T15:15:48Z</time></trkpt><trkpt lat="40.793041986929445" lon="9.610140979637823"><ele>133.0</ele><time>2026-04-25T15:15:49Z</time></trkpt><trkpt lat="40.79329789006096" lon="9.609998044520127"><ele>130.5</ele><time>2026-04-25T15:15:50Z</time></trkpt><trkpt lat="40.79355671219124" lon="9.609851387802184"><ele>128.0</ele><time>2026-04-25T15:15:51Z</time></trkpt><trkpt lat="40.79381524124611" lon="9.609699825759295"><ele>128.0</ele><time>2026-04-25T15:15:52Z</time></trkpt><trkpt lat="40.79406984915056" lon="9.609537537689436"><ele>128.0</ele><time>2026-04-25T15:15:53Z</time></trkpt><trkpt lat="40.79431907709531" lon="9.609357548672683"><ele>130.5</ele><time>2026-04-25T15:15:54Z</time></trkpt><trkpt lat="40.79456194328567" lon="9.609160709104426"><ele>133.0</ele><time>2026-04-25T15:15:55Z</time></trkpt><trkpt lat="40.794799398892856" lon="9.608944744918421"><ele>133.0</ele><time>2026-04-25T15:15:56Z</time></trkpt><trkpt lat="40.7950308181689" lon="9.608715907684184"><ele>133.0</ele><time>2026-04-25T15:15:57Z</time></trkpt><trkpt lat="40.79525155176006" lon="9.608462534715256"><ele>137.0</ele><time>2026-04-25T15:15:58Z</time></trkpt><trkpt lat="40.795463994627234" lon="9.608193531093365"><ele>141.0</ele><time>2026-04-25T15:15:59Z</time></trkpt><trkpt lat="40.79566855772785" lon="9.607911398108609"><ele>139.0</ele><time>2026-04-25T15:16:00Z</time></trkpt><trkpt lat="40.79585622714896" lon="9.60761016225565"><ele>137.0</ele><time>2026-04-25T15:16:01Z</time></trkpt><trkpt lat="40.79603189085081" lon="9.607290211941482"><ele>135.0</ele><time>2026-04-25T15:16:02Z</time></trkpt><trkpt lat="40.79619601609759" lon="9.606958243486313"><ele>133.0</ele><time>2026-04-25T15:16:03Z</time></trkpt><trkpt lat="40.79634821237213" lon="9.606616735334637"><ele>133.0</ele><time>2026-04-25T15:16:04Z</time></trkpt><trkpt lat="40.796488401998204" lon="9.606262261226558"><ele>133.0</ele><time>2026-04-25T15:16:05Z</time></trkpt><trkpt lat="40.796609311451334" lon="9.605900693726836"><ele>131.5</ele><time>2026-04-25T15:16:06Z</time></trkpt><trkpt lat="40.79671892129202" lon="9.605529362481875"><ele>130.0</ele><time>2026-04-25T15:16:07Z</time></trkpt><trkpt lat="40.796809777016755" lon="9.60514619887169"><ele>124.5</ele><time>2026-04-25T15:16:08Z</time></trkpt><trkpt lat="40.79688504459811" lon="9.604761990225597"><ele>119.0</ele><time>2026-04-25T15:16:09Z</time></trkpt><trkpt lat="40.79694616145929" lon="9.604371492498819"><ele>118.5</ele><time>2026-04-25T15:16:10Z</time></trkpt><trkpt lat="40.79698874921259" lon="9.60397382384856"><ele>118.0</ele><time>2026-04-25T15:16:11Z</time></trkpt><trkpt lat="40.79701614624323" lon="9.603571775834066"><ele>121.0</ele><time>2026-04-25T15:16:12Z</time></trkpt><trkpt lat="40.79702624573844" lon="9.603167532811723"><ele>124.0</ele><time>2026-04-25T15:16:13Z</time></trkpt><trkpt lat="40.79701634459294" lon="9.602766415710738"><ele>126.5</ele><time>2026-04-25T15:16:14Z</time></trkpt><trkpt lat="40.79699136782833" lon="9.60236423053514"><ele>129.0</ele><time>2026-04-25T15:16:15Z</time></trkpt><trkpt lat="40.796947923524336" lon="9.60196077361732"><ele>129.0</ele><time>2026-04-25T15:16:16Z</time></trkpt><trkpt lat="40.79689347983096" lon="9.601558782468862"><ele>129.0</ele><time>2026-04-25T15:16:17Z</time></trkpt><trkpt lat="40.79683159517404" lon="9.601160554277733"><ele>140.0</ele><time>2026-04-25T15:16:18Z</time></trkpt><trkpt lat="40.7967658681292" lon="9.600760546690388"><ele>151.0</ele><time>2026-04-25T15:16:19Z</time></trkpt><trkpt lat="40.79670466843659" lon="9.600360454214133"><ele>149.5</ele><time>2026-04-25T15:16:20Z</time></trkpt><trkpt lat="40.79665905172863" lon="9.599975105697824"><ele>148.0</ele><time>2026-04-25T15:16:21Z</time></trkpt><trkpt lat="40.79662846899355" lon="9.599583767750161"><ele>145.0</ele><time>2026-04-25T15:16:22Z</time></trkpt><trkpt lat="40.79661523851491" lon="9.599207819026196"><ele>142.0</ele><time>2026-04-25T15:16:23Z</time></trkpt><trkpt lat="40.79662301542957" lon="9.598847675197312"><ele>143.5</ele><time>2026-04-25T15:16:24Z</time></trkpt><trkpt lat="40.79665298433119" lon="9.598496555980647"><ele>145.0</ele><time>2026-04-25T15:16:25Z</time></trkpt><trkpt lat="40.79669413049829" lon="9.598140489234568"><ele>148.5</ele><time>2026-04-25T15:16:26Z</time></trkpt><trkpt lat="40.796751138336425" lon="9.597790013585696"><ele>152.0</ele><time>2026-04-25T15:16:27Z</time></trkpt><trkpt lat="40.79682556427714" lon="9.597448736886463"><ele>153.5</ele><time>2026-04-25T15:16:28Z</time></trkpt><trkpt lat="40.79690868859086" lon="9.597127495895837"><ele>155.0</ele><time>2026-04-25T15:16:29Z</time></trkpt><trkpt lat="40.797007733091384" lon="9.596811378030004"><ele>159.0</ele><time>2026-04-25T15:16:30Z</time></trkpt><trkpt lat="40.79711914829578" lon="9.596502526533671"><ele>163.0</ele><time>2026-04-25T15:16:31Z</time></trkpt><trkpt lat="40.797252461334814" lon="9.596197242456011"><ele>168.0</ele><time>2026-04-25T15:16:32Z</time></trkpt><trkpt lat="40.79739552663948" lon="9.595893196761676"><ele>173.0</ele><time>2026-04-25T15:16:33Z</time></trkpt><trkpt lat="40.79753840687878" lon="9.595614533113306"><ele>180.0</ele><time>2026-04-25T15:16:34Z</time></trkpt><trkpt lat="40.79767403836599" lon="9.59535499135807"><ele>187.0</ele><time>2026-04-25T15:16:35Z</time></trkpt><trkpt lat="40.79780828256427" lon="9.595096032652005"><ele>187.5</ele><time>2026-04-25T15:16:36Z</time></trkpt><trkpt lat="40.797938774098185" lon="9.594841628292233"><ele>188.0</ele><time>2026-04-25T15:16:37Z</time></trkpt><trkpt lat="40.7980688475718" lon="9.594587884679537"><ele>185.5</ele><time>2026-04-25T15:16:38Z</time></trkpt><trkpt lat="40.79820204000179" lon="9.594327338618687"><ele>183.0</ele><time>2026-04-25T15:16:39Z</time></trkpt><trkpt lat="40.79833934151562" lon="9.59406519552484"><ele>183.0</ele><time>2026-04-25T15:16:40Z</time></trkpt><trkpt lat="40.79848173991802" lon="9.593799271024752"><ele>183.0</ele><time>2026-04-25T15:16:41Z</time></trkpt><trkpt lat="40.798628064372444" lon="9.593541891735764"><ele>179.5</ele><time>2026-04-25T15:16:42Z</time></trkpt><trkpt lat="40.79877815366865" lon="9.593291953112843"><ele>176.0</ele><time>2026-04-25T15:16:43Z</time></trkpt><trkpt lat="40.79893381417787" lon="9.593063774167643"><ele>176.0</ele><time>2026-04-25T15:16:44Z</time></trkpt><trkpt lat="40.79909360382315" lon="9.59284363196147"><ele>176.0</ele><time>2026-04-25T15:16:45Z</time></trkpt><trkpt lat="40.79926258385638" lon="9.59263279100671"><ele>174.0</ele><time>2026-04-25T15:16:46Z</time></trkpt><trkpt lat="40.799437500909214" lon="9.592435421262678"><ele>172.0</ele><time>2026-04-25T15:16:47Z</time></trkpt><trkpt lat="40.79962096002918" lon="9.592243810744856"><ele>172.0</ele><time>2026-04-25T15:16:48Z</time></trkpt><trkpt lat="40.79981326190328" lon="9.592059560580966"><ele>172.0</ele><time>2026-04-25T15:16:49Z</time></trkpt><trkpt lat="40.800028759640966" lon="9.591888411855614"><ele>169.5</ele><time>2026-04-25T15:16:50Z</time></trkpt><trkpt lat="40.80026575098784" lon="9.59172108304559"><ele>167.0</ele><time>2026-04-25T15:16:51Z</time></trkpt><trkpt lat="40.80051364084052" lon="9.591580818300308"><ele>167.0</ele><time>2026-04-25T15:16:52Z</time></trkpt><trkpt lat="40.8007642541495" lon="9.591473176839473"><ele>167.0</ele><time>2026-04-25T15:16:53Z</time></trkpt><trkpt lat="40.80102689316075" lon="9.591381906022578"><ele>164.0</ele><time>2026-04-25T15:16:54Z</time></trkpt><trkpt lat="40.80129496646684" lon="9.591301381948163"><ele>161.0</ele><time>2026-04-25T15:16:55Z</time></trkpt><trkpt lat="40.80156462501633" lon="9.591247389158776"><ele>160.0</ele><time>2026-04-25T15:16:56Z</time></trkpt><trkpt lat="40.80184050996377" lon="9.591209210367111"><ele>159.0</ele><time>2026-04-25T15:16:57Z</time></trkpt><trkpt lat="40.80212885309338" lon="9.59118440009742"><ele>159.0</ele><time>2026-04-25T15:16:58Z</time></trkpt><trkpt lat="40.80240861806992" lon="9.59117850651271"><ele>159.0</ele><time>2026-04-25T15:16:59Z</time></trkpt><trkpt lat="40.80269623449492" lon="9.591182867147843"><ele>158.0</ele><time>2026-04-25T15:17:00Z</time></trkpt><trkpt lat="40.80297959334207" lon="9.591192835672484"><ele>157.0</ele><time>2026-04-25T15:17:01Z</time></trkpt><trkpt lat="40.80326708406721" lon="9.591202317203752"><ele>154.0</ele><time>2026-04-25T15:17:02Z</time></trkpt><trkpt lat="40.80356404991729" lon="9.59121011915129"><ele>151.0</ele><time>2026-04-25T15:17:03Z</time></trkpt><trkpt lat="40.80386487635929" lon="9.59121525147816"><ele>151.0</ele><time>2026-04-25T15:17:04Z</time></trkpt><trkpt lat="40.80416670579446" lon="9.591220523782596"><ele>151.0</ele><time>2026-04-25T15:17:05Z</time></trkpt><trkpt lat="40.80447527551064" lon="9.59122898000986"><ele>151.0</ele><time>2026-04-25T15:17:06Z</time></trkpt><trkpt lat="40.804787164685024" lon="9.591239283704757"><ele>151.0</ele><time>2026-04-25T15:17:07Z</time></trkpt><trkpt lat="40.805098077516874" lon="9.591246491170455"><ele>149.5</ele><time>2026-04-25T15:17:08Z</time></trkpt><trkpt lat="40.80540772151233" lon="9.591254598194627"><ele>148.0</ele><time>2026-04-25T15:17:09Z</time></trkpt><trkpt lat="40.80571846316674" lon="9.59126254959108"><ele>146.5</ele><time>2026-04-25T15:17:10Z</time></trkpt><trkpt lat="40.80602914581037" lon="9.591278922427875"><ele>145.0</ele><time>2026-04-25T15:17:11Z</time></trkpt><trkpt lat="40.80633624906623" lon="9.591261915377881"><ele>145.0</ele><time>2026-04-25T15:17:12Z</time></trkpt><trkpt lat="40.80664361244533" lon="9.591243007605145"><ele>145.0</ele><time>2026-04-25T15:17:13Z</time></trkpt><trkpt lat="40.806948023997265" lon="9.591212845890459"><ele>144.0</ele><time>2026-04-25T15:17:14Z</time></trkpt><trkpt lat="40.80725145356368" lon="9.591174820248506"><ele>143.0</ele><time>2026-04-25T15:17:15Z</time></trkpt><trkpt lat="40.80755660144979" lon="9.591126991271802"><ele>141.5</ele><time>2026-04-25T15:17:16Z</time></trkpt><trkpt lat="40.807848790040396" lon="9.591072419992347"><ele>140.0</ele><time>2026-04-25T15:17:17Z</time></trkpt><trkpt lat="40.808128483620244" lon="9.59099640714887"><ele>140.0</ele><time>2026-04-25T15:17:18Z</time></trkpt><trkpt lat="40.808403865876976" lon="9.59090234719952"><ele>140.0</ele><time>2026-04-25T15:17:19Z</time></trkpt><trkpt lat="40.808684183934396" lon="9.590794540453945"><ele>139.5</ele><time>2026-04-25T15:17:20Z</time></trkpt><trkpt lat="40.80895778612666" lon="9.59067373680247"><ele>139.0</ele><time>2026-04-25T15:17:21Z</time></trkpt><trkpt lat="40.809235999947816" lon="9.590537231510597"><ele>141.5</ele><time>2026-04-25T15:17:22Z</time></trkpt><trkpt lat="40.80951457708941" lon="9.590385659096722"><ele>144.0</ele><time>2026-04-25T15:17:23Z</time></trkpt><trkpt lat="40.80978667468192" lon="9.590215739636967"><ele>139.5</ele><time>2026-04-25T15:17:24Z</time></trkpt><trkpt lat="40.81006296162715" lon="9.5900243957768"><ele>135.0</ele><time>2026-04-25T15:17:25Z</time></trkpt><trkpt lat="40.81033617279095" lon="9.58981575805154"><ele>135.0</ele><time>2026-04-25T15:17:26Z</time></trkpt><trkpt lat="40.81060560607757" lon="9.589594078094564"><ele>135.0</ele><time>2026-04-25T15:17:27Z</time></trkpt><trkpt lat="40.81087041054034" lon="9.589343925712452"><ele>133.0</ele><time>2026-04-25T15:17:28Z</time></trkpt><trkpt lat="40.811131771019866" lon="9.589087066127211"><ele>131.0</ele><time>2026-04-25T15:17:29Z</time></trkpt><trkpt lat="40.81139034303392" lon="9.58881558119355"><ele>125.5</ele><time>2026-04-25T15:17:30Z</time></trkpt><trkpt lat="40.811647487439004" lon="9.588536639123806"><ele>120.0</ele><time>2026-04-25T15:17:31Z</time></trkpt><trkpt lat="40.81190077623675" lon="9.588246939482032"><ele>116.0</ele><time>2026-04-25T15:17:32Z</time></trkpt><trkpt lat="40.81214697761751" lon="9.587966164736878"><ele>112.0</ele><time>2026-04-25T15:17:33Z</time></trkpt><trkpt lat="40.812386517261984" lon="9.587688961287743"><ele>107.5</ele><time>2026-04-25T15:17:34Z</time></trkpt><trkpt lat="40.812623209502384" lon="9.587417354475695"><ele>103.0</ele><time>2026-04-25T15:17:35Z</time></trkpt><trkpt lat="40.81287054917667" lon="9.587134655188066"><ele>99.5</ele><time>2026-04-25T15:17:36Z</time></trkpt><trkpt lat="40.81312060587171" lon="9.58684711999201"><ele>96.0</ele><time>2026-04-25T15:17:37Z</time></trkpt><trkpt lat="40.81336802187526" lon="9.586560603062509"><ele>92.5</ele><time>2026-04-25T15:17:38Z</time></trkpt><trkpt lat="40.81360936074535" lon="9.58628038661734"><ele>89.0</ele><time>2026-04-25T15:17:39Z</time></trkpt><trkpt lat="40.81384829555603" lon="9.586006315038665"><ele>88.5</ele><time>2026-04-25T15:17:40Z</time></trkpt><trkpt lat="40.81407744767642" lon="9.58574559881866"><ele>88.0</ele><time>2026-04-25T15:17:41Z</time></trkpt><trkpt lat="40.8143030098645" lon="9.585496286637017"><ele>85.5</ele><time>2026-04-25T15:17:42Z</time></trkpt><trkpt lat="40.81453286815382" lon="9.585243551522757"><ele>83.0</ele><time>2026-04-25T15:17:43Z</time></trkpt><trkpt lat="40.81476901448499" lon="9.58499230672521"><ele>83.0</ele><time>2026-04-25T15:17:44Z</time></trkpt><trkpt lat="40.81500634690664" lon="9.58474876399228"><ele>83.0</ele><time>2026-04-25T15:17:45Z</time></trkpt><trkpt lat="40.81524450391759" lon="9.584507605720281"><ele>81.5</ele><time>2026-04-25T15:17:46Z</time></trkpt><trkpt lat="40.81548498637008" lon="9.584271912008642"><ele>80.0</ele><time>2026-04-25T15:17:47Z</time></trkpt><trkpt lat="40.815726116263676" lon="9.584041228348077"><ele>80.0</ele><time>2026-04-25T15:17:48Z</time></trkpt><trkpt lat="40.81596845911851" lon="9.583822351271097"><ele>80.0</ele><time>2026-04-25T15:17:49Z</time></trkpt><trkpt lat="40.8162179733013" lon="9.583613510582268"><ele>81.0</ele><time>2026-04-25T15:17:50Z</time></trkpt><trkpt lat="40.81646753764922" lon="9.583414148092894"><ele>82.0</ele><time>2026-04-25T15:17:51Z</time></trkpt><trkpt lat="40.816720512218204" lon="9.583224755095141"><ele>79.0</ele><time>2026-04-25T15:17:52Z</time></trkpt><trkpt lat="40.81698038570264" lon="9.583041903154454"><ele>76.0</ele><time>2026-04-25T15:17:53Z</time></trkpt><trkpt lat="40.817248018633634" lon="9.58286757574918"><ele>76.5</ele><time>2026-04-25T15:17:54Z</time></trkpt><trkpt lat="40.817504501551475" lon="9.582708120561744"><ele>77.0</ele><time>2026-04-25T15:17:55Z</time></trkpt><trkpt lat="40.81774794212604" lon="9.582563368161368"><ele>77.0</ele><time>2026-04-25T15:17:56Z</time></trkpt><trkpt lat="40.817990250566496" lon="9.582423292371052"><ele>77.0</ele><time>2026-04-25T15:17:57Z</time></trkpt><trkpt lat="40.818247812151306" lon="9.582284661585753"><ele>77.0</ele><time>2026-04-25T15:17:58Z</time></trkpt><trkpt lat="40.818515239107" lon="9.582153523446975"><ele>77.0</ele><time>2026-04-25T15:17:59Z</time></trkpt><trkpt lat="40.81878867432087" lon="9.582028966249933"><ele>81.0</ele><time>2026-04-25T15:18:00Z</time></trkpt><trkpt lat="40.819070791167796" lon="9.581911116890735"><ele>85.0</ele><time>2026-04-25T15:18:01Z</time></trkpt><trkpt lat="40.81935491973636" lon="9.581800106465106"><ele>85.0</ele><time>2026-04-25T15:18:02Z</time></trkpt><trkpt lat="40.819646150488545" lon="9.581693212536909"><ele>85.0</ele><time>2026-04-25T15:18:03Z</time></trkpt><trkpt lat="40.81993908146849" lon="9.5815836070803"><ele>86.0</ele><time>2026-04-25T15:18:04Z</time></trkpt><trkpt lat="40.82023262488703" lon="9.581477039814535"><ele>87.0</ele><time>2026-04-25T15:18:05Z</time></trkpt><trkpt lat="40.82052762688462" lon="9.581368622871079"><ele>87.0</ele><time>2026-04-25T15:18:06Z</time></trkpt><trkpt lat="40.82082304778582" lon="9.58125830747607"><ele>87.0</ele><time>2026-04-25T15:18:07Z</time></trkpt><trkpt lat="40.82111960493541" lon="9.581147022837863"><ele>91.0</ele><time>2026-04-25T15:18:08Z</time></trkpt><trkpt lat="40.821398910710336" lon="9.581039863202998"><ele>95.0</ele><time>2026-04-25T15:18:09Z</time></trkpt><trkpt lat="40.82167778188493" lon="9.58094050230956"><ele>88.5</ele><time>2026-04-25T15:18:10Z</time></trkpt><trkpt lat="40.8219638009237" lon="9.580835343306306"><ele>82.0</ele><time>2026-04-25T15:18:10.999Z</time></trkpt><trkpt lat="40.82225282297862" lon="9.58071848980374"><ele>82.0</ele><time>2026-04-25T15:18:11.999Z</time></trkpt><trkpt lat="40.8225223995989" lon="9.580601127472676"><ele>82.0</ele><time>2026-04-25T15:18:12.999Z</time></trkpt><trkpt lat="40.822777065219" lon="9.580490632094008"><ele>80.5</ele><time>2026-04-25T15:18:13.999Z</time></trkpt><trkpt lat="40.82301807420048" lon="9.580381464751518"><ele>79.0</ele><time>2026-04-25T15:18:14.999Z</time></trkpt><trkpt lat="40.823262382685044" lon="9.580266898061566"><ele>83.5</ele><time>2026-04-25T15:18:15.999Z</time></trkpt><trkpt lat="40.82351330934633" lon="9.58014645585028"><ele>88.0</ele><time>2026-04-25T15:18:16.999Z</time></trkpt><trkpt lat="40.82376894915216" lon="9.58001716506954"><ele>88.0</ele><time>2026-04-25T15:18:17.999Z</time></trkpt><trkpt lat="40.82401603019836" lon="9.579883933310125"><ele>88.0</ele><time>2026-04-25T15:18:18.999Z</time></trkpt><trkpt lat="40.82424705358925" lon="9.579752100982551"><ele>85.0</ele><time>2026-04-25T15:18:19.999Z</time></trkpt><trkpt lat="40.824465696491906" lon="9.579619040659784"><ele>82.0</ele><time>2026-04-25T15:18:20.999Z</time></trkpt><trkpt lat="40.824679462675746" lon="9.579482664247832"><ele>81.0</ele><time>2026-04-25T15:18:21.999Z</time></trkpt><trkpt lat="40.82489143773484" lon="9.579345784074029"><ele>80.0</ele><time>2026-04-25T15:18:22.999Z</time></trkpt><trkpt lat="40.82509600990017" lon="9.579206911692363"><ele>76.0</ele><time>2026-04-25T15:18:23.999Z</time></trkpt><trkpt lat="40.82528867603705" lon="9.57906460111273"><ele>72.0</ele><time>2026-04-25T15:18:24.999Z</time></trkpt><trkpt lat="40.82547521584032" lon="9.578919400407749"><ele>68.0</ele><time>2026-04-25T15:18:25.999Z</time></trkpt><trkpt lat="40.82565779276041" lon="9.578770413359205"><ele>68.66666666666667</ele><time>2026-04-25T15:18:26.999Z</time></trkpt><trkpt lat="40.82583498748377" lon="9.578622796039044"><ele>69.33333333333333</ele><time>2026-04-25T15:18:27.999Z</time></trkpt><trkpt lat="40.82601430107618" lon="9.578469242612805"><ele>70.0</ele><time>2026-04-25T15:18:29Z</time></trkpt><trkpt lat="40.82619362067403" lon="9.578305291782227"><ele>69.33333333333333</ele><time>2026-04-25T15:18:30Z</time></trkpt><trkpt lat="40.826364748757015" lon="9.578137710166326"><ele>68.66666666666667</ele><time>2026-04-25T15:18:31Z</time></trkpt><trkpt lat="40.826538698973515" lon="9.577962145564328"><ele>68.0</ele><time>2026-04-25T15:18:32Z</time></trkpt><trkpt lat="40.826710880227495" lon="9.57777723604762"><ele>72.0</ele><time>2026-04-25T15:18:33Z</time></trkpt><trkpt lat="40.826885778095274" lon="9.57758535245348"><ele>76.0</ele><time>2026-04-25T15:18:34Z</time></trkpt><trkpt lat="40.82706177983512" lon="9.577386935931713"><ele>76.0</ele><time>2026-04-25T15:18:35Z</time></trkpt><trkpt lat="40.827245284927045" lon="9.577168087597956"><ele>76.0</ele><time>2026-04-25T15:18:36Z</time></trkpt><trkpt lat="40.82741670671766" lon="9.576955166596374"><ele>72.33333333333333</ele><time>2026-04-25T15:18:37Z</time></trkpt><trkpt lat="40.82757583269837" lon="9.576749283811957"><ele>68.66666666666667</ele><time>2026-04-25T15:18:38Z</time></trkpt><trkpt lat="40.82773070287723" lon="9.576540758936618"><ele>65.0</ele><time>2026-04-25T15:18:39Z</time></trkpt><trkpt lat="40.82788762858765" lon="9.57632046699114"><ele>63.0</ele><time>2026-04-25T15:18:40Z</time></trkpt><trkpt lat="40.8280410148954" lon="9.576092834525495"><ele>61.0</ele><time>2026-04-25T15:18:41Z</time></trkpt><trkpt lat="40.828190490305126" lon="9.57585924146592"><ele>61.0</ele><time>2026-04-25T15:18:42Z</time></trkpt><trkpt lat="40.828335686782005" lon="9.575625087003752"><ele>61.0</ele><time>2026-04-25T15:18:43Z</time></trkpt><trkpt lat="40.82847668031322" lon="9.57538685994678"><ele>62.0</ele><time>2026-04-25T15:18:44Z</time></trkpt><trkpt lat="40.828618438977024" lon="9.575138510538277"><ele>63.0</ele><time>2026-04-25T15:18:45Z</time></trkpt><trkpt lat="40.82876511849467" lon="9.574873739369297"><ele>63.0</ele><time>2026-04-25T15:18:46Z</time></trkpt><trkpt lat="40.82891511144617" lon="9.574586549195697"><ele>63.0</ele><time>2026-04-25T15:18:47Z</time></trkpt><trkpt lat="40.82905906092612" lon="9.574294895802558"><ele>64.0</ele><time>2026-04-25T15:18:48Z</time></trkpt><trkpt lat="40.829188597273514" lon="9.57401833472132"><ele>65.0</ele><time>2026-04-25T15:18:49Z</time></trkpt><trkpt lat="40.82930729894061" lon="9.573742067599945"><ele>70.0</ele><time>2026-04-25T15:18:50Z</time></trkpt><trkpt lat="40.82942435881839" lon="9.573461641384151"><ele>75.0</ele><time>2026-04-25T15:18:51Z</time></trkpt><trkpt lat="40.82953470670293" lon="9.57318516686231"><ele>75.0</ele><time>2026-04-25T15:18:52Z</time></trkpt><trkpt lat="40.82964049654608" lon="9.572910135114972"><ele>75.0</ele><time>2026-04-25T15:18:53Z</time></trkpt><trkpt lat="40.8297427739014" lon="9.572636454464233"><ele>70.5</ele><time>2026-04-25T15:18:54Z</time></trkpt><trkpt lat="40.829837359428446" lon="9.572366352835447"><ele>66.0</ele><time>2026-04-25T15:18:55Z</time></trkpt><trkpt lat="40.8299311851075" lon="9.57209605595578"><ele>63.66666666666667</ele><time>2026-04-25T15:18:56Z</time></trkpt><trkpt lat="40.83002212076696" lon="9.571823717653995"><ele>61.333333333333336</ele><time>2026-04-25T15:18:57Z</time></trkpt><trkpt lat="40.830110406586854" lon="9.571554331068585"><ele>59.0</ele><time>2026-04-25T15:18:58Z</time></trkpt><trkpt lat="40.83020067605357" lon="9.57126820206018"><ele>61.0</ele><time>2026-04-25T15:18:59Z</time></trkpt><trkpt lat="40.83029246644491" lon="9.57096652238077"><ele>63.0</ele><time>2026-04-25T15:19:00Z</time></trkpt><trkpt lat="40.830383650987265" lon="9.570652563561916"><ele>63.0</ele><time>2026-04-25T15:19:01Z</time></trkpt><trkpt lat="40.830476967266016" lon="9.570328238168436"><ele>63.0</ele><time>2026-04-25T15:19:02Z</time></trkpt><trkpt lat="40.830565856894836" lon="9.570016330286501"><ele>63.0</ele><time>2026-04-25T15:19:03Z</time></trkpt><trkpt lat="40.830651504190634" lon="9.569709583859295"><ele>63.0</ele><time>2026-04-25T15:19:04Z</time></trkpt><trkpt lat="40.830737860419696" lon="9.569400137773343"><ele>60.5</ele><time>2026-04-25T15:19:05Z</time></trkpt><trkpt lat="40.83082660320294" lon="9.569088096846087"><ele>58.0</ele><time>2026-04-25T15:19:06Z</time></trkpt><trkpt lat="40.83091419257755" lon="9.568775734216599"><ele>59.5</ele><time>2026-04-25T15:19:07Z</time></trkpt><trkpt lat="40.83100071222541" lon="9.568468596412792"><ele>61.0</ele><time>2026-04-25T15:19:08Z</time></trkpt><trkpt lat="40.83108158823106" lon="9.56818067311922"><ele>61.0</ele><time>2026-04-25T15:19:09Z</time></trkpt><trkpt lat="40.83116036578387" lon="9.567901963962763"><ele>61.0</ele><time>2026-04-25T15:19:10Z</time></trkpt><trkpt lat="40.831238151329494" lon="9.56762135208377"><ele>57.0</ele><time>2026-04-25T15:19:11Z</time></trkpt><trkpt lat="40.831316164247546" lon="9.567338480771097"><ele>53.0</ele><time>2026-04-25T15:19:12Z</time></trkpt><trkpt lat="40.831397266873324" lon="9.567052904184212"><ele>53.0</ele><time>2026-04-25T15:19:13Z</time></trkpt><trkpt lat="40.83147972333112" lon="9.566764982440198"><ele>53.0</ele><time>2026-04-25T15:19:14Z</time></trkpt><trkpt lat="40.83156499049953" lon="9.566468454671453"><ele>54.5</ele><time>2026-04-25T15:19:15Z</time></trkpt><trkpt lat="40.83164909666691" lon="9.566175345341925"><ele>56.0</ele><time>2026-04-25T15:19:16Z</time></trkpt><trkpt lat="40.83173060946627" lon="9.565884570189127"><ele>54.0</ele><time>2026-04-25T15:19:17Z</time></trkpt><trkpt lat="40.83181216065661" lon="9.565596961345538"><ele>52.0</ele><time>2026-04-25T15:19:18Z</time></trkpt><trkpt lat="40.83189427617804" lon="9.565312885986279"><ele>52.0</ele><time>2026-04-25T15:19:19Z</time></trkpt><trkpt lat="40.83197514055278" lon="9.565035395946945"><ele>52.0</ele><time>2026-04-25T15:19:20Z</time></trkpt><trkpt lat="40.83205400615496" lon="9.564764698040985"><ele>52.0</ele><time>2026-04-25T15:19:21Z</time></trkpt><trkpt lat="40.832134380970366" lon="9.564499075943056"><ele>52.0</ele><time>2026-04-25T15:19:22Z</time></trkpt><trkpt lat="40.83221636455119" lon="9.564233220630456"><ele>52.0</ele><time>2026-04-25T15:19:23Z</time></trkpt><trkpt lat="40.83229996585793" lon="9.563964465118406"><ele>52.0</ele><time>2026-04-25T15:19:24Z</time></trkpt><trkpt lat="40.83238415572769" lon="9.56369945525249"><ele>51.0</ele><time>2026-04-25T15:19:25Z</time></trkpt><trkpt lat="40.83246923840646" lon="9.563431642756553"><ele>50.0</ele><time>2026-04-25T15:19:26Z</time></trkpt><trkpt lat="40.83255872359084" lon="9.563162995604328"><ele>49.0</ele><time>2026-04-25T15:19:27Z</time></trkpt><trkpt lat="40.832652446771704" lon="9.562895915053938"><ele>53.5</ele><time>2026-04-25T15:19:28Z</time></trkpt><trkpt lat="40.83275385561211" lon="9.5626104392967"><ele>58.0</ele><time>2026-04-25T15:19:29Z</time></trkpt><trkpt lat="40.832866340262996" lon="9.562302964237514"><ele>55.0</ele><time>2026-04-25T15:19:30Z</time></trkpt><trkpt lat="40.832979687768805" lon="9.562003570143078"><ele>52.0</ele><time>2026-04-25T15:19:31Z</time></trkpt><trkpt lat="40.83308850284738" lon="9.561722867602542"><ele>52.0</ele><time>2026-04-25T15:19:32Z</time></trkpt><trkpt lat="40.83319535809579" lon="9.56146040023609"><ele>52.0</ele><time>2026-04-25T15:19:33Z</time></trkpt><trkpt lat="40.833301858398436" lon="9.56120859324522"><ele>52.0</ele><time>2026-04-25T15:19:34Z</time></trkpt><trkpt lat="40.83340726406081" lon="9.56096541409734"><ele>52.0</ele><time>2026-04-25T15:19:35Z</time></trkpt><trkpt lat="40.833512648600724" lon="9.560728146776064"><ele>52.0</ele><time>2026-04-25T15:19:36Z</time></trkpt><trkpt lat="40.833617196391096" lon="9.56050965191143"><ele>52.0</ele><time>2026-04-25T15:19:37Z</time></trkpt><trkpt lat="40.833724022381894" lon="9.56028626823522"><ele>51.0</ele><time>2026-04-25T15:19:38Z</time></trkpt><trkpt lat="40.83383460177962" lon="9.560063796684542"><ele>50.0</ele><time>2026-04-25T15:19:39Z</time></trkpt><trkpt lat="40.83394673634526" lon="9.559845109674415"><ele>49.0</ele><time>2026-04-25T15:19:40Z</time></trkpt><trkpt lat="40.83405981800372" lon="9.559631871025516"><ele>48.33333333333333</ele><time>2026-04-25T15:19:41Z</time></trkpt><trkpt lat="40.83417392698489" lon="9.559423498505952"><ele>47.666666666666664</ele><time>2026-04-25T15:19:42Z</time></trkpt><trkpt lat="40.83428725611897" lon="9.559218623582739"><ele>47.0</ele><time>2026-04-25T15:19:43Z</time></trkpt><trkpt lat="40.834400624753286" lon="9.559018956259154"><ele>47.0</ele><time>2026-04-25T15:19:44Z</time></trkpt><trkpt lat="40.83451839946623" lon="9.558821039493493"><ele>47.0</ele><time>2026-04-25T15:19:45Z</time></trkpt><trkpt lat="40.83463913490063" lon="9.558614806376806"><ele>47.0</ele><time>2026-04-25T15:19:46Z</time></trkpt><trkpt lat="40.83476452990018" lon="9.55840797586104"><ele>46.0</ele><time>2026-04-25T15:19:47Z</time></trkpt><trkpt lat="40.83489544387025" lon="9.558202961877184"><ele>45.0</ele><time>2026-04-25T15:19:48Z</time></trkpt><trkpt lat="40.83503435864105" lon="9.557985114510547"><ele>44.0</ele><time>2026-04-25T15:19:49Z</time></trkpt><trkpt lat="40.835179409638734" lon="9.55776108621237"><ele>44.0</ele><time>2026-04-25T15:19:50Z</time></trkpt><trkpt lat="40.83531381960568" lon="9.557551624836814"><ele>44.0</ele><time>2026-04-25T15:19:51Z</time></trkpt><trkpt lat="40.8354461231305" lon="9.557345280058664"><ele>44.0</ele><time>2026-04-25T15:19:52Z</time></trkpt><trkpt lat="40.83558309237713" lon="9.557140710512034"><ele>44.0</ele><time>2026-04-25T15:19:53Z</time></trkpt><trkpt lat="40.835722797680255" lon="9.556937073379332"><ele>44.0</ele><time>2026-04-25T15:19:54Z</time></trkpt><trkpt lat="40.835866357034035" lon="9.556734912334148"><ele>44.0</ele><time>2026-04-25T15:19:55Z</time></trkpt><trkpt lat="40.83601283358665" lon="9.556534801595724"><ele>44.0</ele><time>2026-04-25T15:19:56Z</time></trkpt><trkpt lat="40.83615860125195" lon="9.556335633857694"><ele>44.0</ele><time>2026-04-25T15:19:57Z</time></trkpt><trkpt lat="40.83629906843073" lon="9.556140651681538"><ele>44.0</ele><time>2026-04-25T15:19:58Z</time></trkpt><trkpt lat="40.83643702847038" lon="9.555950564062023"><ele>43.0</ele><time>2026-04-25T15:19:59Z</time></trkpt><trkpt lat="40.83657596290812" lon="9.555756223882025"><ele>42.0</ele><time>2026-04-25T15:20:00Z</time></trkpt><trkpt lat="40.836719938713614" lon="9.5555568242416"><ele>41.0</ele><time>2026-04-25T15:20:01Z</time></trkpt><trkpt lat="40.83686460421154" lon="9.555354459257178"><ele>41.0</ele><time>2026-04-25T15:20:02Z</time></trkpt><trkpt lat="40.83701323749109" lon="9.55515170217089"><ele>41.0</ele><time>2026-04-25T15:20:03Z</time></trkpt><trkpt lat="40.83716202136079" lon="9.554949466112438"><ele>41.0</ele><time>2026-04-25T15:20:04Z</time></trkpt><trkpt lat="40.83731271587735" lon="9.554743942646935"><ele>40.33333333333333</ele><time>2026-04-25T15:20:05Z</time></trkpt><trkpt lat="40.83746067539813" lon="9.554537221564116"><ele>39.666666666666664</ele><time>2026-04-25T15:20:06Z</time></trkpt><trkpt lat="40.83760299721489" lon="9.554338542552347"><ele>39.0</ele><time>2026-04-25T15:20:07Z</time></trkpt><trkpt lat="40.8377396904378" lon="9.554148754291537"><ele>39.0</ele><time>2026-04-25T15:20:08Z</time></trkpt><trkpt lat="40.837872315383116" lon="9.553966057965248"><ele>39.0</ele><time>2026-04-25T15:20:09Z</time></trkpt><trkpt lat="40.83800275607555" lon="9.553786122840469"><ele>39.0</ele><time>2026-04-25T15:20:10Z</time></trkpt><trkpt lat="40.838136928702454" lon="9.553600120123534"><ele>38.666666666666664</ele><time>2026-04-25T15:20:11Z</time></trkpt><trkpt lat="40.8382758061163" lon="9.553411835647367"><ele>38.33333333333333</ele><time>2026-04-25T15:20:12Z</time></trkpt><trkpt lat="40.83841270170162" lon="9.553226104112696"><ele>38.0</ele><time>2026-04-25T15:20:13Z</time></trkpt><trkpt lat="40.83854487465657" lon="9.553043580515586"><ele>36.0</ele><time>2026-04-25T15:20:14Z</time></trkpt><trkpt lat="40.83867785125983" lon="9.552864280338854"><ele>34.0</ele><time>2026-04-25T15:20:15Z</time></trkpt><trkpt lat="40.838810448260155" lon="9.552680883555427"><ele>32.0</ele><time>2026-04-25T15:20:16Z</time></trkpt><trkpt lat="40.838944872009215" lon="9.552492302940909"><ele>32.0</ele><time>2026-04-25T15:20:17Z</time></trkpt><trkpt lat="40.839078510233826" lon="9.552306599927896"><ele>32.0</ele><time>2026-04-25T15:20:18Z</time></trkpt><trkpt lat="40.83921554685371" lon="9.552117005807858"><ele>32.0</ele><time>2026-04-25T15:20:19Z</time></trkpt><trkpt lat="40.839354691112625" lon="9.551925224350258"><ele>31.0</ele><time>2026-04-25T15:20:20Z</time></trkpt><trkpt lat="40.8394941801763" lon="9.55173392598511"><ele>30.0</ele><time>2026-04-25T15:20:20.999Z</time></trkpt><trkpt lat="40.83963323453074" lon="9.551540209290856"><ele>29.0</ele><time>2026-04-25T15:20:21.999Z</time></trkpt><trkpt lat="40.83977679102898" lon="9.551338849642393"><ele>31.5</ele><time>2026-04-25T15:20:22.999Z</time></trkpt><trkpt lat="40.83993203937357" lon="9.551125824819906"><ele>34.0</ele><time>2026-04-25T15:20:23.999Z</time></trkpt><trkpt lat="40.840097038269754" lon="9.550897426015775"><ele>31.5</ele><time>2026-04-25T15:20:24.999Z</time></trkpt><trkpt lat="40.84027087073898" lon="9.5506589170427"><ele>29.0</ele><time>2026-04-25T15:20:25.999Z</time></trkpt><trkpt lat="40.8404387206948" lon="9.55042901082536"><ele>30.0</ele><time>2026-04-25T15:20:26.999Z</time></trkpt><trkpt lat="40.84059961471445" lon="9.550216690542925"><ele>31.0</ele><time>2026-04-25T15:20:27.999Z</time></trkpt><trkpt lat="40.84076297468232" lon="9.550008706698296"><ele>31.0</ele><time>2026-04-25T15:20:28.999Z</time></trkpt><trkpt lat="40.840928464481905" lon="9.549809973414963"><ele>31.0</ele><time>2026-04-25T15:20:29.999Z</time></trkpt><trkpt lat="40.841098222402" lon="9.549609790095566"><ele>31.0</ele><time>2026-04-25T15:20:30.999Z</time></trkpt><trkpt lat="40.841267919821085" lon="9.549416002719349"><ele>31.0</ele><time>2026-04-25T15:20:31.999Z</time></trkpt><trkpt lat="40.841439518375836" lon="9.549223481216883"><ele>31.0</ele><time>2026-04-25T15:20:32.999Z</time></trkpt><trkpt lat="40.84161296810609" lon="9.549034526001119"><ele>31.0</ele><time>2026-04-25T15:20:33.999Z</time></trkpt><trkpt lat="40.8417877732165" lon="9.548855705430729"><ele>31.0</ele><time>2026-04-25T15:20:35Z</time></trkpt><trkpt lat="40.841967702021016" lon="9.548678787844272"><ele>31.0</ele><time>2026-04-25T15:20:36Z</time></trkpt><trkpt lat="40.842146989170466" lon="9.548509659042708"><ele>31.333333333333336</ele><time>2026-04-25T15:20:37Z</time></trkpt><trkpt lat="40.84232338472834" lon="9.548344473008187"><ele>31.666666666666664</ele><time>2026-04-25T15:20:38Z</time></trkpt><trkpt lat="40.84250212084594" lon="9.548181920683987"><ele>32.0</ele><time>2026-04-25T15:20:39Z</time></trkpt><trkpt lat="40.84267902337195" lon="9.548030194675245"><ele>33.33333333333333</ele><time>2026-04-25T15:20:40Z</time></trkpt><trkpt lat="40.84286185876073" lon="9.547875294897338"><ele>34.666666666666664</ele><time>2026-04-25T15:20:41Z</time></trkpt><trkpt lat="40.84304532764016" lon="9.547730513168064"><ele>36.0</ele><time>2026-04-25T15:20:42Z</time></trkpt><trkpt lat="40.84323065901502" lon="9.547588650409562"><ele>36.0</ele><time>2026-04-25T15:20:43Z</time></trkpt><trkpt lat="40.84342865919048" lon="9.547443755605402"><ele>36.0</ele><time>2026-04-25T15:20:44Z</time></trkpt><trkpt lat="40.843638877295376" lon="9.54728970821044"><ele>36.0</ele><time>2026-04-25T15:20:45Z</time></trkpt><trkpt lat="40.84386076864496" lon="9.54713009410991"><ele>36.0</ele><time>2026-04-25T15:20:46Z</time></trkpt><trkpt lat="40.844088282860184" lon="9.546967014189118"><ele>36.0</ele><time>2026-04-25T15:20:47Z</time></trkpt><trkpt lat="40.844327772374" lon="9.54679946620027"><ele>36.0</ele><time>2026-04-25T15:20:48Z</time></trkpt><trkpt lat="40.844573362825905" lon="9.54662667921314"><ele>36.0</ele><time>2026-04-25T15:20:49Z</time></trkpt><trkpt lat="40.84481697225472" lon="9.546464549119477"><ele>36.0</ele><time>2026-04-25T15:20:50Z</time></trkpt><trkpt lat="40.8450768255672" lon="9.546282258883267"><ele>36.0</ele><time>2026-04-25T15:20:51Z</time></trkpt><trkpt lat="40.84533052691817" lon="9.54611028411138"><ele>36.0</ele><time>2026-04-25T15:20:52Z</time></trkpt><trkpt lat="40.84559264613449" lon="9.545932162629903"><ele>36.0</ele><time>2026-04-25T15:20:53Z</time></trkpt><trkpt lat="40.84586006458427" lon="9.545752193550625"><ele>36.0</ele><time>2026-04-25T15:20:54Z</time></trkpt><trkpt lat="40.84612251946877" lon="9.545576436774326"><ele>36.0</ele><time>2026-04-25T15:20:55Z</time></trkpt><trkpt lat="40.84637364483014" lon="9.545406141192359"><ele>36.0</ele><time>2026-04-25T15:20:56Z</time></trkpt><trkpt lat="40.84660199109012" lon="9.545241661676746"><ele>36.5</ele><time>2026-04-25T15:20:57Z</time></trkpt><trkpt lat="40.84683273336081" lon="9.545073716997317"><ele>37.0</ele><time>2026-04-25T15:20:58Z</time></trkpt><trkpt lat="40.847076503355304" lon="9.544908378515935"><ele>37.0</ele><time>2026-04-25T15:20:59Z</time></trkpt><trkpt lat="40.84733061054327" lon="9.544739413045253"><ele>37.0</ele><time>2026-04-25T15:21:00Z</time></trkpt><trkpt lat="40.847591041597774" lon="9.544564631941205"><ele>37.5</ele><time>2026-04-25T15:21:01Z</time></trkpt><trkpt lat="40.8478499801166" lon="9.544385293741941"><ele>38.0</ele><time>2026-04-25T15:21:02Z</time></trkpt><trkpt lat="40.84811412817005" lon="9.544198692243526"><ele>38.0</ele><time>2026-04-25T15:21:03Z</time></trkpt><trkpt lat="40.848377707688535" lon="9.544007775938256"><ele>38.0</ele><time>2026-04-25T15:21:04Z</time></trkpt><trkpt lat="40.848644755557565" lon="9.543809756209507"><ele>37.5</ele><time>2026-04-25T15:21:05Z</time></trkpt><trkpt lat="40.848914059028964" lon="9.543607893021882"><ele>37.0</ele><time>2026-04-25T15:21:06Z</time></trkpt><trkpt lat="40.849183207473665" lon="9.543404320461644"><ele>35.5</ele><time>2026-04-25T15:21:07Z</time></trkpt><trkpt lat="40.8494525291948" lon="9.54319575841948"><ele>34.0</ele><time>2026-04-25T15:21:08Z</time></trkpt><trkpt lat="40.84972415457397" lon="9.542982111561999"><ele>34.5</ele><time>2026-04-25T15:21:09Z</time></trkpt><trkpt lat="40.84999632343902" lon="9.5427651220161"><ele>35.0</ele><time>2026-04-25T15:21:10Z</time></trkpt><trkpt lat="40.85026891400905" lon="9.542552741055944"><ele>35.0</ele><time>2026-04-25T15:21:11Z</time></trkpt><trkpt lat="40.850542231429365" lon="9.542329351020422"><ele>35.0</ele><time>2026-04-25T15:21:12Z</time></trkpt><trkpt lat="40.850814180407326" lon="9.542110459362005"><ele>37.5</ele><time>2026-04-25T15:21:13Z</time></trkpt><trkpt lat="40.851088406243015" lon="9.54188449549528"><ele>40.0</ele><time>2026-04-25T15:21:14Z</time></trkpt><trkpt lat="40.85135660561715" lon="9.541659191969748"><ele>40.0</ele><time>2026-04-25T15:21:15Z</time></trkpt><trkpt lat="40.851625452034675" lon="9.54142726651658"><ele>40.0</ele><time>2026-04-25T15:21:16Z</time></trkpt><trkpt lat="40.85188956053005" lon="9.54119264177541"><ele>44.5</ele><time>2026-04-25T15:21:17Z</time></trkpt><trkpt lat="40.85215067475813" lon="9.540957350272619"><ele>49.0</ele><time>2026-04-25T15:21:18Z</time></trkpt><trkpt lat="40.8524094247666" lon="9.540723493927269"><ele>53.5</ele><time>2026-04-25T15:21:19Z</time></trkpt><trkpt lat="40.852666373146654" lon="9.54048490096562"><ele>58.0</ele><time>2026-04-25T15:21:20Z</time></trkpt><trkpt lat="40.85292319752886" lon="9.540247200519893"><ele>58.0</ele><time>2026-04-25T15:21:21Z</time></trkpt><trkpt lat="40.85318267118584" lon="9.540004916097907"><ele>58.0</ele><time>2026-04-25T15:21:22Z</time></trkpt><trkpt lat="40.853439788537024" lon="9.539762242961329"><ele>57.5</ele><time>2026-04-25T15:21:23Z</time></trkpt><trkpt lat="40.853700646536275" lon="9.539513321949244"><ele>57.0</ele><time>2026-04-25T15:21:24Z</time></trkpt><trkpt lat="40.85396241668844" lon="9.539266898416328"><ele>57.0</ele><time>2026-04-25T15:21:25Z</time></trkpt><trkpt lat="40.85421905632882" lon="9.539024907712827"><ele>57.0</ele><time>2026-04-25T15:21:26Z</time></trkpt><trkpt lat="40.854470062745264" lon="9.538788186289265"><ele>56.5</ele><time>2026-04-25T15:21:27Z</time></trkpt><trkpt lat="40.854720847101504" lon="9.538549274241047"><ele>56.0</ele><time>2026-04-25T15:21:28Z</time></trkpt><trkpt lat="40.85496483981938" lon="9.538317191494189"><ele>56.5</ele><time>2026-04-25T15:21:29Z</time></trkpt><trkpt lat="40.855194242265775" lon="9.538098780876236"><ele>57.0</ele><time>2026-04-25T15:21:30Z</time></trkpt><trkpt lat="40.85542468467089" lon="9.53787250960569"><ele>54.5</ele><time>2026-04-25T15:21:31Z</time></trkpt><trkpt lat="40.85565351388038" lon="9.53765128094995"><ele>52.0</ele><time>2026-04-25T15:21:32Z</time></trkpt><trkpt lat="40.85588086329127" lon="9.537435658311011"><ele>51.0</ele><time>2026-04-25T15:21:33Z</time></trkpt><trkpt lat="40.85611673147205" lon="9.537220255799104"><ele>50.0</ele><time>2026-04-25T15:21:34Z</time></trkpt><trkpt lat="40.85634493731895" lon="9.536999650953044"><ele>48.0</ele><time>2026-04-25T15:21:35Z</time></trkpt><trkpt lat="40.8565773172216" lon="9.536773077667947"><ele>46.0</ele><time>2026-04-25T15:21:36Z</time></trkpt><trkpt lat="40.85680841741873" lon="9.536545756980148"><ele>45.0</ele><time>2026-04-25T15:21:37Z</time></trkpt><trkpt lat="40.85704240963198" lon="9.536312056706771"><ele>44.0</ele><time>2026-04-25T15:21:38Z</time></trkpt><trkpt lat="40.857280715830576" lon="9.536069572383328"><ele>44.0</ele><time>2026-04-25T15:21:39Z</time></trkpt><trkpt lat="40.85752222689229" lon="9.535817431183938"><ele>44.0</ele><time>2026-04-25T15:21:40Z</time></trkpt><trkpt lat="40.85776415427911" lon="9.535561139760471"><ele>42.5</ele><time>2026-04-25T15:21:41Z</time></trkpt><trkpt lat="40.85800829101105" lon="9.535301379691612"><ele>41.0</ele><time>2026-04-25T15:21:42Z</time></trkpt><trkpt lat="40.85825485781483" lon="9.535034163594037"><ele>41.0</ele><time>2026-04-25T15:21:43Z</time></trkpt><trkpt lat="40.858498414320465" lon="9.534761656074167"><ele>41.0</ele><time>2026-04-25T15:21:44Z</time></trkpt><trkpt lat="40.85874089918002" lon="9.534481109465972"><ele>41.0</ele><time>2026-04-25T15:21:45Z</time></trkpt><trkpt lat="40.858982406987295" lon="9.5341897685453"><ele>41.0</ele><time>2026-04-25T15:21:46Z</time></trkpt><trkpt lat="40.859221995477746" lon="9.533891885606117"><ele>38.5</ele><time>2026-04-25T15:21:47Z</time></trkpt><trkpt lat="40.85945834496833" lon="9.533589371312438"><ele>36.0</ele><time>2026-04-25T15:21:48Z</time></trkpt><trkpt lat="40.85969061755518" lon="9.533281936304437"><ele>36.0</ele><time>2026-04-25T15:21:49Z</time></trkpt><trkpt lat="40.85990774734016" lon="9.532978752693682"><ele>36.0</ele><time>2026-04-25T15:21:50Z</time></trkpt><trkpt lat="40.86012014607756" lon="9.532669716411254"><ele>34.5</ele><time>2026-04-25T15:21:51Z</time></trkpt><trkpt lat="40.86032943818752" lon="9.532351830475866"><ele>33.0</ele><time>2026-04-25T15:21:52Z</time></trkpt><trkpt lat="40.860537643279855" lon="9.532020664097255"><ele>31.5</ele><time>2026-04-25T15:21:53Z</time></trkpt><trkpt lat="40.860735625771724" lon="9.531695874343018"><ele>30.0</ele><time>2026-04-25T15:21:54Z</time></trkpt><trkpt lat="40.86092281613837" lon="9.531376721517756"><ele>28.0</ele><time>2026-04-25T15:21:55Z</time></trkpt><trkpt lat="40.86110368042806" lon="9.531060590080333"><ele>26.0</ele><time>2026-04-25T15:21:56Z</time></trkpt><trkpt lat="40.86128073868577" lon="9.530739843724795"><ele>26.0</ele><time>2026-04-25T15:21:57Z</time></trkpt><trkpt lat="40.86145210053733" lon="9.530411221856296"><ele>26.0</ele><time>2026-04-25T15:21:58Z</time></trkpt><trkpt lat="40.861615932573635" lon="9.530076962422603"><ele>25.0</ele><time>2026-04-25T15:21:59Z</time></trkpt><trkpt lat="40.86177581712021" lon="9.529738723057141"><ele>24.0</ele><time>2026-04-25T15:22:00Z</time></trkpt><trkpt lat="40.86193350983154" lon="9.529398433251318"><ele>22.5</ele><time>2026-04-25T15:22:01Z</time></trkpt><trkpt lat="40.8620861744856" lon="9.529053069396136"><ele>21.0</ele><time>2026-04-25T15:22:02Z</time></trkpt><trkpt lat="40.86223397574104" lon="9.528706718070808"><ele>21.0</ele><time>2026-04-25T15:22:03Z</time></trkpt><trkpt lat="40.862379185111074" lon="9.528347663540742"><ele>21.0</ele><time>2026-04-25T15:22:04Z</time></trkpt><trkpt lat="40.86252022741626" lon="9.52798186959518"><ele>19.0</ele><time>2026-04-25T15:22:05Z</time></trkpt><trkpt lat="40.862659624796265" lon="9.527609764566671"><ele>17.0</ele><time>2026-04-25T15:22:06Z</time></trkpt><trkpt lat="40.86279523590643" lon="9.527237709666817"><ele>16.0</ele><time>2026-04-25T15:22:07Z</time></trkpt><trkpt lat="40.86292690994769" lon="9.52686472388626"><ele>15.0</ele><time>2026-04-25T15:22:08Z</time></trkpt><trkpt lat="40.86305226476444" lon="9.526495080316264"><ele>15.0</ele><time>2026-04-25T15:22:09Z</time></trkpt><trkpt lat="40.86317873370106" lon="9.526119581131608"><ele>15.0</ele><time>2026-04-25T15:22:10Z</time></trkpt><trkpt lat="40.86330174835703" lon="9.525741424191175"><ele>15.5</ele><time>2026-04-25T15:22:11Z</time></trkpt><trkpt lat="40.8634235443359" lon="9.525360353902574"><ele>16.0</ele><time>2026-04-25T15:22:12Z</time></trkpt><trkpt lat="40.86354370726665" lon="9.52498199166334"><ele>17.0</ele><time>2026-04-25T15:22:13Z</time></trkpt><trkpt lat="40.86365844650333" lon="9.524605607585404"><ele>18.0</ele><time>2026-04-25T15:22:14Z</time></trkpt><trkpt lat="40.863770827809994" lon="9.52423297997434"><ele>18.0</ele><time>2026-04-25T15:22:15Z</time></trkpt><trkpt lat="40.86388305936123" lon="9.523863941912687"><ele>18.0</ele><time>2026-04-25T15:22:16Z</time></trkpt><trkpt lat="40.863994663953825" lon="9.52349114138541"><ele>18.0</ele><time>2026-04-25T15:22:17Z</time></trkpt><trkpt lat="40.86411038546665" lon="9.523111183671949"><ele>18.0</ele><time>2026-04-25T15:22:18Z</time></trkpt><trkpt lat="40.86422501722084" lon="9.52273357726556"><ele>16.5</ele><time>2026-04-25T15:22:19Z</time></trkpt><trkpt lat="40.86433811964473" lon="9.52235507216406"><ele>15.0</ele><time>2026-04-25T15:22:20Z</time></trkpt><trkpt lat="40.864451972292606" lon="9.521978902124703"><ele>15.0</ele><time>2026-04-25T15:22:21Z</time></trkpt><trkpt lat="40.86456063137468" lon="9.521624338630831"><ele>15.0</ele><time>2026-04-25T15:22:22Z</time></trkpt><trkpt lat="40.864667966487424" lon="9.521276474453876"><ele>15.5</ele><time>2026-04-25T15:22:23Z</time></trkpt><trkpt lat="40.86477836521693" lon="9.520927239996317"><ele>16.0</ele><time>2026-04-25T15:22:24Z</time></trkpt><trkpt lat="40.86489186755539" lon="9.52057876125611"><ele>15.5</ele><time>2026-04-25T15:22:25Z</time></trkpt><trkpt lat="40.86500965486816" lon="9.520228427309238"><ele>15.0</ele><time>2026-04-25T15:22:26Z</time></trkpt><trkpt lat="40.86513156263128" lon="9.51986759475871"><ele>14.5</ele><time>2026-04-25T15:22:27Z</time></trkpt><trkpt lat="40.865259766792285" lon="9.519509800288818"><ele>14.0</ele><time>2026-04-25T15:22:27.999Z</time></trkpt><trkpt lat="40.86538616068616" lon="9.519148130576088"><ele>14.0</ele><time>2026-04-25T15:22:28.999Z</time></trkpt><trkpt lat="40.865513894284405" lon="9.518784965680272"><ele>14.0</ele><time>2026-04-25T15:22:29.999Z</time></trkpt><trkpt lat="40.865644848845015" lon="9.518421580918956"><ele>15.5</ele><time>2026-04-25T15:22:30.999Z</time></trkpt><trkpt lat="40.86578025936866" lon="9.51806057519663"><ele>17.0</ele><time>2026-04-25T15:22:31.999Z</time></trkpt><trkpt lat="40.86592217929893" lon="9.517692786138465"><ele>15.5</ele><time>2026-04-25T15:22:32.999Z</time></trkpt><trkpt lat="40.86606525896467" lon="9.517331149383915"><ele>14.0</ele><time>2026-04-25T15:22:33.999Z</time></trkpt><trkpt lat="40.86620978808036" lon="9.516968697846501"><ele>14.0</ele><time>2026-04-25T15:22:34.999Z</time></trkpt><trkpt lat="40.866356273445845" lon="9.516608024381318"><ele>14.0</ele><time>2026-04-25T15:22:35.999Z</time></trkpt><trkpt lat="40.86650530831567" lon="9.516250926063767"><ele>14.0</ele><time>2026-04-25T15:22:36.999Z</time></trkpt><trkpt lat="40.86665017430223" lon="9.515913113318673"><ele>14.0</ele><time>2026-04-25T15:22:37.999Z</time></trkpt><trkpt lat="40.86680190564883" lon="9.515563622662313"><ele>13.5</ele><time>2026-04-25T15:22:38.999Z</time></trkpt><trkpt lat="40.86695454817498" lon="9.515217124726544"><ele>13.0</ele><time>2026-04-25T15:22:39.999Z</time></trkpt><trkpt lat="40.86711507959704" lon="9.514868985917"><ele>13.5</ele><time>2026-04-25T15:22:41Z</time></trkpt><trkpt lat="40.86727781906581" lon="9.514523029755333"><ele>14.0</ele><time>2026-04-25T15:22:42Z</time></trkpt><trkpt lat="40.86744026913005" lon="9.514176247588438"><ele>14.0</ele><time>2026-04-25T15:22:43Z</time></trkpt><trkpt lat="40.86760706608342" lon="9.513826218556762"><ele>14.0</ele><time>2026-04-25T15:22:44Z</time></trkpt><trkpt lat="40.86777472421291" lon="9.513481016354566"><ele>15.0</ele><time>2026-04-25T15:22:45Z</time></trkpt><trkpt lat="40.867941440188304" lon="9.513130373021793"><ele>16.0</ele><time>2026-04-25T15:22:46Z</time></trkpt><trkpt lat="40.868112080044746" lon="9.512780318419058"><ele>16.5</ele><time>2026-04-25T15:22:47Z</time></trkpt><trkpt lat="40.86828004896143" lon="9.51243330385509"><ele>17.0</ele><time>2026-04-25T15:22:48Z</time></trkpt><trkpt lat="40.86844825378947" lon="9.512085629017799"><ele>17.5</ele><time>2026-04-25T15:22:49Z</time></trkpt><trkpt lat="40.868619840780845" lon="9.511736555952735"><ele>18.0</ele><time>2026-04-25T15:22:50Z</time></trkpt><trkpt lat="40.868789235238324" lon="9.511389293531147"><ele>18.0</ele><time>2026-04-25T15:22:51Z</time></trkpt><trkpt lat="40.868956185251214" lon="9.51104001443917"><ele>18.0</ele><time>2026-04-25T15:22:52Z</time></trkpt><trkpt lat="40.86912520087749" lon="9.510691342193196"><ele>17.0</ele><time>2026-04-25T15:22:53Z</time></trkpt><trkpt lat="40.8692945909047" lon="9.510346830879854"><ele>16.0</ele><time>2026-04-25T15:22:54Z</time></trkpt><trkpt lat="40.86946459865391" lon="9.509998167819017"><ele>16.0</ele><time>2026-04-25T15:22:55Z</time></trkpt><trkpt lat="40.86963308278539" lon="9.509647874951696"><ele>16.0</ele><time>2026-04-25T15:22:56Z</time></trkpt><trkpt lat="40.86980031714997" lon="9.509300989964013"><ele>16.0</ele><time>2026-04-25T15:22:57Z</time></trkpt><trkpt lat="40.86995420983957" lon="9.508976097738008"><ele>16.0</ele><time>2026-04-25T15:22:58Z</time></trkpt><trkpt lat="40.870106555669665" lon="9.50865049394247"><ele>16.5</ele><time>2026-04-25T15:22:59Z</time></trkpt><trkpt lat="40.87026160440412" lon="9.508320567218874"><ele>17.0</ele><time>2026-04-25T15:23:00Z</time></trkpt><trkpt lat="40.87041422766804" lon="9.507998021724523"><ele>17.5</ele><time>2026-04-25T15:23:01Z</time></trkpt><trkpt lat="40.8705687214803" lon="9.507678147835904"><ele>18.0</ele><time>2026-04-25T15:23:02Z</time></trkpt><trkpt lat="40.87072240250371" lon="9.507353136339185"><ele>18.5</ele><time>2026-04-25T15:23:03Z</time></trkpt><trkpt lat="40.87087960439544" lon="9.507023473903029"><ele>19.0</ele><time>2026-04-25T15:23:04Z</time></trkpt><trkpt lat="40.87104117716703" lon="9.506691014130148"><ele>19.0</ele><time>2026-04-25T15:23:05Z</time></trkpt><trkpt lat="40.871208561668716" lon="9.506362252905383"><ele>19.0</ele><time>2026-04-25T15:23:06Z</time></trkpt><trkpt lat="40.871382354189876" lon="9.5060378076136"><ele>19.0</ele><time>2026-04-25T15:23:07Z</time></trkpt><trkpt lat="40.871556952941376" lon="9.505717576235659"><ele>19.0</ele><time>2026-04-25T15:23:08Z</time></trkpt><trkpt lat="40.87173322296555" lon="9.505411312839048"><ele>18.5</ele><time>2026-04-25T15:23:09Z</time></trkpt><trkpt lat="40.871913374559796" lon="9.5051044221978"><ele>18.0</ele><time>2026-04-25T15:23:10Z</time></trkpt><trkpt lat="40.872087730247" lon="9.50480375303455"><ele>20.0</ele><time>2026-04-25T15:23:11Z</time></trkpt><trkpt lat="40.872274858830586" lon="9.50452187297624"><ele>22.0</ele><time>2026-04-25T15:23:12Z</time></trkpt><trkpt lat="40.87247915609047" lon="9.50424616426985"><ele>24.0</ele><time>2026-04-25T15:23:13Z</time></trkpt><trkpt lat="40.8726876417801" lon="9.503969328976696"><ele>26.0</ele><time>2026-04-25T15:23:14Z</time></trkpt><trkpt lat="40.87290019629023" lon="9.503696133694126"><ele>27.5</ele><time>2026-04-25T15:23:15Z</time></trkpt><trkpt lat="40.873118262742764" lon="9.503422059510383"><ele>29.0</ele><time>2026-04-25T15:23:16Z</time></trkpt><trkpt lat="40.8733397103021" lon="9.50316271481312"><ele>33.0</ele><time>2026-04-25T15:23:17Z</time></trkpt><trkpt lat="40.87357123507141" lon="9.502910311777805"><ele>37.0</ele><time>2026-04-25T15:23:18Z</time></trkpt><trkpt lat="40.87380880524859" lon="9.502657699462018"><ele>37.0</ele><time>2026-04-25T15:23:19Z</time></trkpt><trkpt lat="40.87405326342948" lon="9.50241678665673"><ele>37.0</ele><time>2026-04-25T15:23:20Z</time></trkpt><trkpt lat="40.87430523940955" lon="9.502181075676967"><ele>32.5</ele><time>2026-04-25T15:23:21Z</time></trkpt><trkpt lat="40.874565132276906" lon="9.50195258407353"><ele>28.0</ele><time>2026-04-25T15:23:22Z</time></trkpt><trkpt lat="40.87482655324018" lon="9.501734781572509"><ele>28.0</ele><time>2026-04-25T15:23:23Z</time></trkpt><trkpt lat="40.875095345563665" lon="9.501526872687938"><ele>28.0</ele><time>2026-04-25T15:23:24Z</time></trkpt><trkpt lat="40.87536931312273" lon="9.501329716208609"><ele>26.5</ele><time>2026-04-25T15:23:25Z</time></trkpt><trkpt lat="40.875645931500365" lon="9.50114793223563"><ele>25.0</ele><time>2026-04-25T15:23:26Z</time></trkpt><trkpt lat="40.8759258475761" lon="9.500974505946227"><ele>24.0</ele><time>2026-04-25T15:23:27Z</time></trkpt><trkpt lat="40.876209436945146" lon="9.500810896937882"><ele>23.0</ele><time>2026-04-25T15:23:28Z</time></trkpt><trkpt lat="40.87649647254382" lon="9.500660249518027"><ele>24.0</ele><time>2026-04-25T15:23:29Z</time></trkpt><trkpt lat="40.87678744826968" lon="9.500515907715188"><ele>25.0</ele><time>2026-04-25T15:23:30Z</time></trkpt><trkpt lat="40.877080000356976" lon="9.500385394221386"><ele>25.5</ele><time>2026-04-25T15:23:31Z</time></trkpt><trkpt lat="40.87737750792525" lon="9.500262536213924"><ele>26.0</ele><time>2026-04-25T15:23:32Z</time></trkpt><trkpt lat="40.87767591181942" lon="9.50014841798258"><ele>27.0</ele><time>2026-04-25T15:23:33Z</time></trkpt><trkpt lat="40.877974258128766" lon="9.500036952681329"><ele>28.0</ele><time>2026-04-25T15:23:34Z</time></trkpt><trkpt lat="40.87827529095571" lon="9.499930060342662"><ele>29.5</ele><time>2026-04-25T15:23:35Z</time></trkpt><trkpt lat="40.878576637747464" lon="9.499830034538489"><ele>31.0</ele><time>2026-04-25T15:23:36Z</time></trkpt><trkpt lat="40.87888116741582" lon="9.499730828151495"><ele>31.0</ele><time>2026-04-25T15:23:37Z</time></trkpt><trkpt lat="40.8791823522626" lon="9.499632795527702"><ele>31.0</ele><time>2026-04-25T15:23:38Z</time></trkpt><trkpt lat="40.879471583098805" lon="9.499533153990013"><ele>32.0</ele><time>2026-04-25T15:23:39Z</time></trkpt><trkpt lat="40.87976696967499" lon="9.499435520231945"><ele>33.0</ele><time>2026-04-25T15:23:40Z</time></trkpt><trkpt lat="40.88006347420267" lon="9.499336427157825"><ele>33.0</ele><time>2026-04-25T15:23:41Z</time></trkpt><trkpt lat="40.880360342640714" lon="9.499230284090007"><ele>33.0</ele><time>2026-04-25T15:23:42Z</time></trkpt><trkpt lat="40.88065621776345" lon="9.499117111522734"><ele>34.0</ele><time>2026-04-25T15:23:43Z</time></trkpt><trkpt lat="40.88095362936992" lon="9.498997329439435"><ele>35.0</ele><time>2026-04-25T15:23:44Z</time></trkpt><trkpt lat="40.8812494022534" lon="9.498869446691673"><ele>36.0</ele><time>2026-04-25T15:23:45Z</time></trkpt><trkpt lat="40.88154339604232" lon="9.498726339612722"><ele>37.0</ele><time>2026-04-25T15:23:46Z</time></trkpt><trkpt lat="40.881834409647475" lon="9.498572305688056"><ele>37.0</ele><time>2026-04-25T15:23:47Z</time></trkpt><trkpt lat="40.88212093130938" lon="9.498413815182692"><ele>37.0</ele><time>2026-04-25T15:23:48Z</time></trkpt><trkpt lat="40.88241654071116" lon="9.498246380663675"><ele>34.5</ele><time>2026-04-25T15:23:49Z</time></trkpt><trkpt lat="40.882697878940135" lon="9.49805532707555"><ele>32.0</ele><time>2026-04-25T15:23:50Z</time></trkpt><trkpt lat="40.882976563743775" lon="9.497858753754956"><ele>32.0</ele><time>2026-04-25T15:23:51Z</time></trkpt><trkpt lat="40.883253692564274" lon="9.497651463835162"><ele>32.0</ele><time>2026-04-25T15:23:52Z</time></trkpt><trkpt lat="40.88353010035955" lon="9.49743052976159"><ele>29.5</ele><time>2026-04-25T15:23:53Z</time></trkpt><trkpt lat="40.88379965884959" lon="9.497203639572604"><ele>27.0</ele><time>2026-04-25T15:23:54Z</time></trkpt><trkpt lat="40.88406382188008" lon="9.496970130234574"><ele>24.5</ele><time>2026-04-25T15:23:55Z</time></trkpt><trkpt lat="40.884306632063385" lon="9.496735755683012"><ele>22.0</ele><time>2026-04-25T15:23:56Z</time></trkpt><trkpt lat="40.8845489420887" lon="9.496486542898332"><ele>22.5</ele><time>2026-04-25T15:23:57Z</time></trkpt><trkpt lat="40.88479184968093" lon="9.496227047842147"><ele>23.0</ele><time>2026-04-25T15:23:58Z</time></trkpt><trkpt lat="40.88503233539847" lon="9.495965980827682"><ele>22.5</ele><time>2026-04-25T15:23:59Z</time></trkpt><trkpt lat="40.88527141103036" lon="9.495697115872217"><ele>22.0</ele><time>2026-04-25T15:24:00Z</time></trkpt><trkpt lat="40.885507151818054" lon="9.495424958233318"><ele>22.0</ele><time>2026-04-25T15:24:01Z</time></trkpt><trkpt lat="40.88572934814492" lon="9.49516625961902"><ele>22.0</ele><time>2026-04-25T15:24:02Z</time></trkpt><trkpt lat="40.885949167831846" lon="9.494911161883882"><ele>22.0</ele><time>2026-04-25T15:24:03Z</time></trkpt><trkpt lat="40.88617833191361" lon="9.494639949494331"><ele>22.0</ele><time>2026-04-25T15:24:04Z</time></trkpt><trkpt lat="40.88640933818542" lon="9.494368581354014"><ele>22.5</ele><time>2026-04-25T15:24:05Z</time></trkpt><trkpt lat="40.88664396363421" lon="9.494095738972295"><ele>23.0</ele><time>2026-04-25T15:24:06Z</time></trkpt><trkpt lat="40.886878393320124" lon="9.493821059521135"><ele>20.5</ele><time>2026-04-25T15:24:07Z</time></trkpt><trkpt lat="40.88710574022608" lon="9.493551917172365"><ele>18.0</ele><time>2026-04-25T15:24:08Z</time></trkpt><trkpt lat="40.887319070375895" lon="9.493298563339486"><ele>18.0</ele><time>2026-04-25T15:24:09Z</time></trkpt><trkpt lat="40.88751916086573" lon="9.493059519781374"><ele>18.0</ele><time>2026-04-25T15:24:10Z</time></trkpt><trkpt lat="40.887710881040036" lon="9.492831097466935"><ele>17.0</ele><time>2026-04-25T15:24:11Z</time></trkpt><trkpt lat="40.88789360538577" lon="9.492612765747275"><ele>16.0</ele><time>2026-04-25T15:24:12Z</time></trkpt><trkpt lat="40.88806916510514" lon="9.49240112737632"><ele>16.0</ele><time>2026-04-25T15:24:13Z</time></trkpt><trkpt lat="40.88824614635376" lon="9.492186490385945"><ele>16.0</ele><time>2026-04-25T15:24:14Z</time></trkpt><trkpt lat="40.88841482654369" lon="9.491985118784644"><ele>14.333333333333332</ele><time>2026-04-25T15:24:15Z</time></trkpt><trkpt lat="40.88857978764409" lon="9.491796132973226"><ele>12.666666666666666</ele><time>2026-04-25T15:24:16Z</time></trkpt><trkpt lat="40.88874993878799" lon="9.49160632825838"><ele>11.0</ele><time>2026-04-25T15:24:17Z</time></trkpt><trkpt lat="40.88891604812773" lon="9.49141724903353"><ele>11.333333333333332</ele><time>2026-04-25T15:24:18Z</time></trkpt><trkpt lat="40.88907875826939" lon="9.491226841714141"><ele>11.666666666666666</ele><time>2026-04-25T15:24:19Z</time></trkpt><trkpt lat="40.88924000431878" lon="9.49103705578882"><ele>12.0</ele><time>2026-04-25T15:24:20Z</time></trkpt><trkpt lat="40.88940033980905" lon="9.4908525879113"><ele>12.0</ele><time>2026-04-25T15:24:21Z</time></trkpt><trkpt lat="40.88955212128308" lon="9.490673392526064"><ele>12.0</ele><time>2026-04-25T15:24:22Z</time></trkpt><trkpt lat="40.889695351524" lon="9.49050417594027"><ele>12.0</ele><time>2026-04-25T15:24:23Z</time></trkpt><trkpt lat="40.88983316368217" lon="9.490341486057314"><ele>13.0</ele><time>2026-04-25T15:24:24Z</time></trkpt><trkpt lat="40.88996408328922" lon="9.490190233358621"><ele>14.0</ele><time>2026-04-25T15:24:25Z</time></trkpt><trkpt lat="40.890095623581495" lon="9.490041800263828"><ele>15.0</ele><time>2026-04-25T15:24:26Z</time></trkpt><trkpt lat="40.89023496783462" lon="9.489888771934599"><ele>15.0</ele><time>2026-04-25T15:24:27Z</time></trkpt><trkpt lat="40.89037251456083" lon="9.489731735462064"><ele>15.0</ele><time>2026-04-25T15:24:28Z</time></trkpt><trkpt lat="40.890515194653126" lon="9.48957604521595"><ele>15.0</ele><time>2026-04-25T15:24:29Z</time></trkpt><trkpt lat="40.89066374776971" lon="9.489433889373503"><ele>14.666666666666668</ele><time>2026-04-25T15:24:30Z</time></trkpt><trkpt lat="40.89081179858234" lon="9.489304436910361"><ele>14.333333333333334</ele><time>2026-04-25T15:24:31Z</time></trkpt><trkpt lat="40.89094981521111" lon="9.489186298316026"><ele>14.0</ele><time>2026-04-25T15:24:32Z</time></trkpt><trkpt lat="40.891083432330255" lon="9.489070853275583"><ele>14.0</ele><time>2026-04-25T15:24:33Z</time></trkpt><trkpt lat="40.89120755479281" lon="9.488965299144331"><ele>14.0</ele><time>2026-04-25T15:24:34Z</time></trkpt><trkpt lat="40.891335286503725" lon="9.48885666171762"><ele>14.0</ele><time>2026-04-25T15:24:35Z</time></trkpt><trkpt lat="40.89146545207566" lon="9.488742402576527"><ele>14.5</ele><time>2026-04-25T15:24:36Z</time></trkpt><trkpt lat="40.89159189087476" lon="9.48863128407775"><ele>15.0</ele><time>2026-04-25T15:24:37Z</time></trkpt><trkpt lat="40.891713115991216" lon="9.48852968447091"><ele>15.5</ele><time>2026-04-25T15:24:38Z</time></trkpt><trkpt lat="40.89183740506028" lon="9.488456513518317"><ele>16.0</ele><time>2026-04-25T15:24:39Z</time></trkpt><trkpt lat="40.89196885257472" lon="9.488405511274852"><ele>16.5</ele><time>2026-04-25T15:24:39.999Z</time></trkpt><trkpt lat="40.89209747631939" lon="9.488381415996997"><ele>17.0</ele><time>2026-04-25T15:24:40.999Z</time></trkpt><trkpt lat="40.892223016576814" lon="9.488369706556703"><ele>17.5</ele><time>2026-04-25T15:24:41.999Z</time></trkpt><trkpt lat="40.89236388387689" lon="9.488375460747768"><ele>18.0</ele><time>2026-04-25T15:24:42.999Z</time></trkpt><trkpt lat="40.892535112766225" lon="9.488387072200297"><ele>18.0</ele><time>2026-04-25T15:24:43.999Z</time></trkpt><trkpt lat="40.89271778360255" lon="9.488395124957384"><ele>18.0</ele><time>2026-04-25T15:24:44.999Z</time></trkpt><trkpt lat="40.892880930455576" lon="9.488408253279669"><ele>18.0</ele><time>2026-04-25T15:24:45.999Z</time></trkpt><trkpt lat="40.89303391275334" lon="9.4884214214507"><ele>18.0</ele><time>2026-04-25T15:24:47Z</time></trkpt><trkpt lat="40.893182326847274" lon="9.488433440582883"><ele>18.0</ele><time>2026-04-25T15:24:48Z</time></trkpt><trkpt lat="40.893329936662724" lon="9.48844431849597"><ele>18.0</ele><time>2026-04-25T15:24:49Z</time></trkpt><trkpt lat="40.8934818434735" lon="9.488458338640996"><ele>18.0</ele><time>2026-04-25T15:24:50Z</time></trkpt><trkpt lat="40.89363902665885" lon="9.488469607291742"><ele>17.333333333333332</ele><time>2026-04-25T15:24:51Z</time></trkpt><trkpt lat="40.893796839017305" lon="9.48848065677439"><ele>16.666666666666664</ele><time>2026-04-25T15:24:52Z</time></trkpt><trkpt lat="40.89395507076761" lon="9.488488929373302"><ele>16.0</ele><time>2026-04-25T15:24:53Z</time></trkpt><trkpt lat="40.89410994334959" lon="9.488496188507776"><ele>17.0</ele><time>2026-04-25T15:24:54Z</time></trkpt><trkpt lat="40.89426024402921" lon="9.488506902216459"><ele>18.0</ele><time>2026-04-25T15:24:55Z</time></trkpt><trkpt lat="40.894411671533796" lon="9.488517663855776"><ele>19.0</ele><time>2026-04-25T15:24:56Z</time></trkpt><trkpt lat="40.89456488439263" lon="9.4885266409705"><ele>19.0</ele><time>2026-04-25T15:24:57Z</time></trkpt><trkpt lat="40.89472050405716" lon="9.488547591669697"><ele>19.0</ele><time>2026-04-25T15:24:58Z</time></trkpt><trkpt lat="40.89487382292069" lon="9.488590763747228"><ele>19.0</ele><time>2026-04-25T15:24:59Z</time></trkpt><trkpt lat="40.895025144652244" lon="9.488664166699522"><ele>18.666666666666664</ele><time>2026-04-25T15:25:00Z</time></trkpt><trkpt lat="40.89517094856903" lon="9.488771728045734"><ele>18.333333333333332</ele><time>2026-04-25T15:25:01Z</time></trkpt><trkpt lat="40.89530748832341" lon="9.48890698496584"><ele>18.0</ele><time>2026-04-25T15:25:02Z</time></trkpt><trkpt lat="40.89543530637099" lon="9.48905498063683"><ele>18.0</ele><time>2026-04-25T15:25:03Z</time></trkpt><trkpt lat="40.89557642013611" lon="9.489216416533312"><ele>18.0</ele><time>2026-04-25T15:25:04Z</time></trkpt><trkpt lat="40.895743972941034" lon="9.489395721406229"><ele>18.0</ele><time>2026-04-25T15:25:05Z</time></trkpt><trkpt lat="40.89591676394442" lon="9.489574176351073"><ele>18.0</ele><time>2026-04-25T15:25:06Z</time></trkpt><trkpt lat="40.896102866577614" lon="9.489769044463417"><ele>18.0</ele><time>2026-04-25T15:25:07Z</time></trkpt><trkpt lat="40.896294954640986" lon="9.48997648916562"><ele>18.0</ele><time>2026-04-25T15:25:08Z</time></trkpt><trkpt lat="40.8964860047467" lon="9.490199230912262"><ele>18.0</ele><time>2026-04-25T15:25:09Z</time></trkpt><trkpt lat="40.8966769814465" lon="9.490433347958732"><ele>20.5</ele><time>2026-04-25T15:25:10Z</time></trkpt><trkpt lat="40.896872444545586" lon="9.490671766154776"><ele>23.0</ele><time>2026-04-25T15:25:11Z</time></trkpt><trkpt lat="40.897075881956894" lon="9.49091368502987"><ele>23.0</ele><time>2026-04-25T15:25:12Z</time></trkpt><trkpt lat="40.89728373588562" lon="9.491157745385221"><ele>23.0</ele><time>2026-04-25T15:25:13Z</time></trkpt><trkpt lat="40.89749399053695" lon="9.49140594311253"><ele>23.0</ele><time>2026-04-25T15:25:14Z</time></trkpt><trkpt lat="40.8977049176852" lon="9.491658377566628"><ele>23.0</ele><time>2026-04-25T15:25:15Z</time></trkpt><trkpt lat="40.89791897951811" lon="9.491916988313074"><ele>22.0</ele><time>2026-04-25T15:25:16Z</time></trkpt><trkpt lat="40.898130301188154" lon="9.49218082603114"><ele>21.0</ele><time>2026-04-25T15:25:17Z</time></trkpt><trkpt lat="40.898341124146135" lon="9.492448474046668"><ele>21.5</ele><time>2026-04-25T15:25:18Z</time></trkpt><trkpt lat="40.89853976836462" lon="9.492703117561142"><ele>22.0</ele><time>2026-04-25T15:25:19Z</time></trkpt><trkpt lat="40.898739330288784" lon="9.492949625375045"><ele>21.0</ele><time>2026-04-25T15:25:20Z</time></trkpt><trkpt lat="40.898940917268774" lon="9.493196092094117"><ele>20.0</ele><time>2026-04-25T15:25:21Z</time></trkpt><trkpt lat="40.89913646712488" lon="9.493435918876505"><ele>20.0</ele><time>2026-04-25T15:25:22Z</time></trkpt><trkpt lat="40.89933184111409" lon="9.4936775719763"><ele>20.0</ele><time>2026-04-25T15:25:23Z</time></trkpt><trkpt lat="40.899525933748606" lon="9.49391333788137"><ele>19.5</ele><time>2026-04-25T15:25:24Z</time></trkpt><trkpt lat="40.899718742191055" lon="9.49414929580991"><ele>19.0</ele><time>2026-04-25T15:25:25Z</time></trkpt><trkpt lat="40.8999095650201" lon="9.494383159466373"><ele>20.0</ele><time>2026-04-25T15:25:26Z</time></trkpt><trkpt lat="40.900101678418665" lon="9.49461850251193"><ele>21.0</ele><time>2026-04-25T15:25:27Z</time></trkpt><trkpt lat="40.90029378502745" lon="9.494855055022628"><ele>21.0</ele><time>2026-04-25T15:25:28Z</time></trkpt><trkpt lat="40.90048403286825" lon="9.495090924605543"><ele>21.0</ele><time>2026-04-25T15:25:29Z</time></trkpt><trkpt lat="40.90067603894132" lon="9.495325267939322"><ele>21.5</ele><time>2026-04-25T15:25:30Z</time></trkpt><trkpt lat="40.90086926263015" lon="9.495556502117974"><ele>22.0</ele><time>2026-04-25T15:25:31Z</time></trkpt><trkpt lat="40.90106170859904" lon="9.495786085903772"><ele>22.0</ele><time>2026-04-25T15:25:32Z</time></trkpt><trkpt lat="40.90125190639856" lon="9.49601810160336"><ele>22.0</ele><time>2026-04-25T15:25:33Z</time></trkpt><trkpt lat="40.90144054441811" lon="9.496246818239106"><ele>20.5</ele><time>2026-04-25T15:25:34Z</time></trkpt><trkpt lat="40.901629866768374" lon="9.496475428006242"><ele>19.0</ele><time>2026-04-25T15:25:35Z</time></trkpt><trkpt lat="40.90182012140018" lon="9.496704244312099"><ele>20.5</ele><time>2026-04-25T15:25:36Z</time></trkpt><trkpt lat="40.902010213431005" lon="9.496931903769417"><ele>22.0</ele><time>2026-04-25T15:25:37Z</time></trkpt><trkpt lat="40.90220376744521" lon="9.497160861514313"><ele>22.0</ele><time>2026-04-25T15:25:38Z</time></trkpt><trkpt lat="40.90240834752141" lon="9.497384077007377"><ele>22.0</ele><time>2026-04-25T15:25:39Z</time></trkpt><trkpt lat="40.902620460382416" lon="9.497616914518513"><ele>22.0</ele><time>2026-04-25T15:25:40Z</time></trkpt><trkpt lat="40.90282865380402" lon="9.497867046787652"><ele>22.0</ele><time>2026-04-25T15:25:41Z</time></trkpt><trkpt lat="40.90303204327549" lon="9.498135399960981"><ele>22.0</ele><time>2026-04-25T15:25:42Z</time></trkpt><trkpt lat="40.90323689583718" lon="9.498407584746765"><ele>22.0</ele><time>2026-04-25T15:25:43Z</time></trkpt><trkpt lat="40.90344415822346" lon="9.498670358368008"><ele>21.5</ele><time>2026-04-25T15:25:44Z</time></trkpt><trkpt lat="40.90363042916224" lon="9.498919757995804"><ele>21.0</ele><time>2026-04-25T15:25:45Z</time></trkpt><trkpt lat="40.903805770529324" lon="9.49915835710481"><ele>21.0</ele><time>2026-04-25T15:25:46Z</time></trkpt><trkpt lat="40.903972375362095" lon="9.499401678233436"><ele>21.0</ele><time>2026-04-25T15:25:47Z</time></trkpt><trkpt lat="40.904133831872976" lon="9.499643004810302"><ele>22.5</ele><time>2026-04-25T15:25:48Z</time></trkpt><trkpt lat="40.90428802199536" lon="9.499882589900855"><ele>24.0</ele><time>2026-04-25T15:25:49Z</time></trkpt><trkpt lat="40.90443770364912" lon="9.5001257403925"><ele>24.0</ele><time>2026-04-25T15:25:50Z</time></trkpt><trkpt lat="40.904585216950906" lon="9.500380097848783"><ele>24.0</ele><time>2026-04-25T15:25:51Z</time></trkpt><trkpt lat="40.904734257771665" lon="9.500650747426628"><ele>22.0</ele><time>2026-04-25T15:25:52Z</time></trkpt><trkpt lat="40.90488427045096" lon="9.500936940295162"><ele>20.0</ele><time>2026-04-25T15:25:53Z</time></trkpt><trkpt lat="40.905033189722054" lon="9.501227863725516"><ele>19.5</ele><time>2026-04-25T15:25:54Z</time></trkpt><trkpt lat="40.90517109030391" lon="9.501507604555297"><ele>19.0</ele><time>2026-04-25T15:25:55Z</time></trkpt><trkpt lat="40.90529344939773" lon="9.501768326634634"><ele>19.0</ele><time>2026-04-25T15:25:56Z</time></trkpt><trkpt lat="40.905412705510116" lon="9.502021044582097"><ele>19.0</ele><time>2026-04-25T15:25:57Z</time></trkpt><trkpt lat="40.90552766302724" lon="9.502274190391281"><ele>19.0</ele><time>2026-04-25T15:25:58Z</time></trkpt><trkpt lat="40.90564260787895" lon="9.50252022324968"><ele>20.0</ele><time>2026-04-25T15:25:59Z</time></trkpt><trkpt lat="40.90575233159352" lon="9.502752924305039"><ele>21.0</ele><time>2026-04-25T15:26:00Z</time></trkpt><trkpt lat="40.905858046093485" lon="9.502983208086029"><ele>22.0</ele><time>2026-04-25T15:26:01Z</time></trkpt><trkpt lat="40.9059609972215" lon="9.503211419555118"><ele>23.333333333333332</ele><time>2026-04-25T15:26:02Z</time></trkpt><trkpt lat="40.90606261743791" lon="9.503433219607253"><ele>24.666666666666664</ele><time>2026-04-25T15:26:03Z</time></trkpt><trkpt lat="40.90616358667099" lon="9.50365457418438"><ele>26.0</ele><time>2026-04-25T15:26:04Z</time></trkpt><trkpt lat="40.90626140924791" lon="9.503874641588329"><ele>26.0</ele><time>2026-04-25T15:26:05Z</time></trkpt><trkpt lat="40.90635812361703" lon="9.504092678794063"><ele>26.0</ele><time>2026-04-25T15:26:06Z</time></trkpt><trkpt lat="40.90645352012662" lon="9.504305876834373"><ele>26.0</ele><time>2026-04-25T15:26:07Z</time></trkpt><trkpt lat="40.90654794035233" lon="9.504508041992105"><ele>25.0</ele><time>2026-04-25T15:26:08Z</time></trkpt><trkpt lat="40.90663573376931" lon="9.504699324550304"><ele>24.0</ele><time>2026-04-25T15:26:09Z</time></trkpt><trkpt lat="40.90672086522115" lon="9.504882652503648"><ele>23.0</ele><time>2026-04-25T15:26:10Z</time></trkpt><trkpt lat="40.90680396249413" lon="9.505059128910151"><ele>23.0</ele><time>2026-04-25T15:26:11Z</time></trkpt><trkpt lat="40.90688247180069" lon="9.505230121908433"><ele>23.0</ele><time>2026-04-25T15:26:12Z</time></trkpt><trkpt lat="40.90696007906988" lon="9.505393713837583"><ele>23.0</ele><time>2026-04-25T15:26:13Z</time></trkpt><trkpt lat="40.907039324120255" lon="9.505561953111592"><ele>23.0</ele><time>2026-04-25T15:26:14Z</time></trkpt><trkpt lat="40.90712475251716" lon="9.505732995911686"><ele>21.666666666666668</ele><time>2026-04-25T15:26:15Z</time></trkpt><trkpt lat="40.90721747540179" lon="9.50591269802926"><ele>20.333333333333332</ele><time>2026-04-25T15:26:16Z</time></trkpt><trkpt lat="40.907314859499" lon="9.50609385834473"><ele>19.0</ele><time>2026-04-25T15:26:17Z</time></trkpt><trkpt lat="40.90740662395638" lon="9.506263450598013"><ele>18.25</ele><time>2026-04-25T15:26:18Z</time></trkpt><trkpt lat="40.90749482270078" lon="9.506419137929264"><ele>17.5</ele><time>2026-04-25T15:26:19Z</time></trkpt><trkpt lat="40.907581205429835" lon="9.506566826522121"><ele>16.75</ele><time>2026-04-25T15:26:20Z</time></trkpt><trkpt lat="40.90766592707692" lon="9.506707999717237"><ele>16.0</ele><time>2026-04-25T15:26:21Z</time></trkpt><trkpt lat="40.90775517265753" lon="9.50683064963154"><ele>16.0</ele><time>2026-04-25T15:26:22Z</time></trkpt><trkpt lat="40.90786302662173" lon="9.506950127162487"><ele>16.0</ele><time>2026-04-25T15:26:23Z</time></trkpt><trkpt lat="40.907980870602884" lon="9.507054520954634"><ele>16.0</ele><time>2026-04-25T15:26:24Z</time></trkpt><trkpt lat="40.908091530943786" lon="9.507149953988948"><ele>16.0</ele><time>2026-04-25T15:26:25Z</time></trkpt><trkpt lat="40.908207309781616" lon="9.507220867332363"><ele>16.0</ele><time>2026-04-25T15:26:26Z</time></trkpt><trkpt lat="40.90832774097112" lon="9.507289023294232"><ele>16.0</ele><time>2026-04-25T15:26:27Z</time></trkpt><trkpt lat="40.908449617579556" lon="9.507347126937916"><ele>16.0</ele><time>2026-04-25T15:26:28Z</time></trkpt><trkpt lat="40.90856571691109" lon="9.507399835737662"><ele>16.0</ele><time>2026-04-25T15:26:29Z</time></trkpt><trkpt lat="40.90867385249061" lon="9.507451733462144"><ele>16.5</ele><time>2026-04-25T15:26:30Z</time></trkpt><trkpt lat="40.908784766126935" lon="9.507504174198623"><ele>17.0</ele><time>2026-04-25T15:26:31Z</time></trkpt><trkpt lat="40.908898477585524" lon="9.507565122410965"><ele>17.5</ele><time>2026-04-25T15:26:32Z</time></trkpt><trkpt lat="40.90900492098349" lon="9.507637208927944"><ele>18.0</ele><time>2026-04-25T15:26:33Z</time></trkpt><trkpt lat="40.9091049130738" lon="9.507729981809359"><ele>18.0</ele><time>2026-04-25T15:26:34Z</time></trkpt><trkpt lat="40.909180061384106" lon="9.507840743043042"><ele>18.0</ele><time>2026-04-25T15:26:35Z</time></trkpt><trkpt lat="40.90925078246631" lon="9.507957080301269"><ele>18.0</ele><time>2026-04-25T15:26:36Z</time></trkpt><trkpt lat="40.90929548172482" lon="9.508084073734956"><ele>18.0</ele><time>2026-04-25T15:26:37Z</time></trkpt><trkpt lat="40.90932446001225" lon="9.508180055727173"><ele>18.0</ele><time>2026-04-25T15:26:38Z</time></trkpt><trkpt lat="40.90934585228539" lon="9.508282428413995"><ele>17.4</ele><time>2026-04-25T15:26:40Z</time></trkpt><trkpt lat="40.90936687147313" lon="9.508406099838837"><ele>16.8</ele><time>2026-04-25T15:26:44Z</time></trkpt><trkpt lat="40.909339686197654" lon="9.508520850256817"><ele>16.2</ele><time>2026-04-25T15:26:45Z</time></trkpt><trkpt lat="40.909290760103396" lon="9.508673423873608"><ele>15.6</ele><time>2026-04-25T15:26:46Z</time></trkpt><trkpt lat="40.90927393592471" lon="9.50881622365473"><ele>15.0</ele><time>2026-04-25T15:26:47Z</time></trkpt><trkpt lat="40.90928435512015" lon="9.508944257500078"><ele>15.0</ele><time>2026-04-25T15:26:48Z</time></trkpt><trkpt lat="40.90932149960828" lon="9.50905417757117"><ele>15.0</ele><time>2026-04-25T15:26:49Z</time></trkpt><trkpt lat="40.909370441545036" lon="9.50915519662728"><ele>15.0</ele><time>2026-04-25T15:26:50Z</time></trkpt><trkpt lat="40.90942780385238" lon="9.509247550728585"><ele>15.0</ele><time>2026-04-25T15:26:51Z</time></trkpt><trkpt lat="40.90948729899666" lon="9.509334484104913"><ele>15.0</ele><time>2026-04-25T15:26:52Z</time></trkpt><trkpt lat="40.90954697937847" lon="9.50943247347696"><ele>15.0</ele><time>2026-04-25T15:26:53Z</time></trkpt><trkpt lat="40.90959771251799" lon="9.50954200115674"><ele>15.0</ele><time>2026-04-25T15:26:54Z</time></trkpt><trkpt lat="40.90963740963767" lon="9.509666637112653"><ele>15.0</ele><time>2026-04-25T15:26:55Z</time></trkpt><trkpt lat="40.909658375821024" lon="9.509790803414333"><ele>15.0</ele><time>2026-04-25T15:26:56Z</time></trkpt><trkpt lat="40.90966546546519" lon="9.509915600007819"><ele>15.0</ele><time>2026-04-25T15:26:57Z</time></trkpt><trkpt lat="40.909640950777685" lon="9.510044154030904"><ele>15.4</ele><time>2026-04-25T15:26:58Z</time></trkpt><trkpt lat="40.90964370526957" lon="9.510179850828457"><ele>15.8</ele><time>2026-04-25T15:26:59Z</time></trkpt><trkpt lat="40.90962252761604" lon="9.510316679578931"><ele>16.2</ele><time>2026-04-25T15:27:00Z</time></trkpt><trkpt lat="40.90960577171766" lon="9.510457969463458"><ele>16.6</ele><time>2026-04-25T15:27:01Z</time></trkpt><trkpt lat="40.90958618012468" lon="9.510604792185697"><ele>17.0</ele><time>2026-04-25T15:27:02Z</time></trkpt><trkpt lat="40.90957001319028" lon="9.510743632535904"><ele>17.0</ele><time>2026-04-25T15:27:03Z</time></trkpt><trkpt lat="40.90955373262268" lon="9.510887108973462"><ele>17.0</ele><time>2026-04-25T15:27:04Z</time></trkpt><trkpt lat="40.909538341391965" lon="9.511020221944257"><ele>17.0</ele><time>2026-04-25T15:27:05Z</time></trkpt><trkpt lat="40.909523711925765" lon="9.511142994343158"><ele>17.0</ele><time>2026-04-25T15:27:06Z</time></trkpt><trkpt lat="40.90950981984124" lon="9.51125775766184"><ele>17.0</ele><time>2026-04-25T15:27:07Z</time></trkpt><trkpt lat="40.90949514257677" lon="9.511372012511858"><ele>16.999999999999996</ele><time>2026-04-25T15:27:08Z</time></trkpt><trkpt lat="40.909482703282116" lon="9.511474708006814"><ele>17.0</ele><time>2026-04-25T15:27:09Z</time></trkpt><trkpt lat="40.909469709022865" lon="9.511565426408852"><ele>17.0</ele><time>2026-04-25T15:27:10Z</time></trkpt><trkpt lat="40.9094585258227" lon="9.511651154372172"><ele>17.0</ele><time>2026-04-25T15:27:11Z</time></trkpt><trkpt lat="40.90944633527596" lon="9.511736521483092"><ele>17.0</ele><time>2026-04-25T15:27:12Z</time></trkpt><trkpt lat="40.90943332403397" lon="9.511827491810594"><ele>16.999999999999996</ele><time>2026-04-25T15:27:13Z</time></trkpt><trkpt lat="40.90941171500955" lon="9.511918946850532"><ele>17.0</ele><time>2026-04-25T15:27:14Z</time></trkpt><trkpt lat="40.90937839184837" lon="9.51200914769164"><ele>17.166666666666668</ele><time>2026-04-25T15:27:15Z</time></trkpt><trkpt lat="40.9093313907721" lon="9.512087255951332"><ele>17.333333333333336</ele><time>2026-04-25T15:27:16Z</time></trkpt><trkpt lat="40.90929292607989" lon="9.512172856764295"><ele>17.5</ele><time>2026-04-25T15:27:17Z</time></trkpt><trkpt lat="40.90928346243422" lon="9.512274809772158"><ele>17.666666666666668</ele><time>2026-04-25T15:27:18Z</time></trkpt><trkpt lat="40.909303730016305" lon="9.512384388281069"><ele>17.833333333333332</ele><time>2026-04-25T15:27:19Z</time></trkpt><trkpt lat="40.90932128874859" lon="9.51249049308616"><ele>18.0</ele><time>2026-04-25T15:27:20Z</time></trkpt><trkpt lat="40.90932306898924" lon="9.512598030128652"><ele>18.0</ele><time>2026-04-25T15:27:21Z</time></trkpt><trkpt lat="40.90930866261104" lon="9.512709608798286"><ele>18.0</ele><time>2026-04-25T15:27:22Z</time></trkpt><trkpt lat="40.90928910180619" lon="9.512825830782381"><ele>18.0</ele><time>2026-04-25T15:27:23Z</time></trkpt><trkpt lat="40.909272884036035" lon="9.512945108122976"><ele>18.0</ele><time>2026-04-25T15:27:24Z</time></trkpt><trkpt lat="40.9092592809983" lon="9.513069543750026"><ele>18.0</ele><time>2026-04-25T15:27:25Z</time></trkpt><trkpt lat="40.90924680681556" lon="9.513192140370869"><ele>17.8</ele><time>2026-04-25T15:27:26Z</time></trkpt><trkpt lat="40.90923503656436" lon="9.51330348752621"><ele>17.6</ele><time>2026-04-25T15:27:27Z</time></trkpt><trkpt lat="40.90922493331432" lon="9.513405226211047"><ele>17.4</ele><time>2026-04-25T15:27:28Z</time></trkpt><trkpt lat="40.90921775198131" lon="9.513496756596282"><ele>17.2</ele><time>2026-04-25T15:27:29Z</time></trkpt><trkpt lat="40.90919554920936" lon="9.513655846152174"><ele>17.0</ele><time>2026-04-25T15:27:31Z</time></trkpt><trkpt lat="40.90913455918202" lon="9.513789091080389"><ele>17.0</ele><time>2026-04-25T15:27:33Z</time></trkpt><trkpt lat="40.90907998931468" lon="9.513849125826475"><ele>17.0</ele><time>2026-04-25T15:27:34Z</time></trkpt><trkpt lat="40.909008181431666" lon="9.513900212738143"><ele>17.0</ele><time>2026-04-25T15:27:35Z</time></trkpt><trkpt lat="40.90893754440683" lon="9.51392953985796"><ele>17.0</ele><time>2026-04-25T15:27:36Z</time></trkpt><trkpt lat="40.90882906439156" lon="9.51398260736679"><ele>17.0</ele><time>2026-04-25T15:27:38Z</time></trkpt><trkpt lat="40.90875891125168" lon="9.514106877811559"><ele>16.999999999999996</ele><time>2026-04-25T15:27:40Z</time></trkpt><trkpt lat="40.908745315447185" lon="9.514193027470698"><ele>17.0</ele><time>2026-04-25T15:27:41Z</time></trkpt><trkpt lat="40.908757475805196" lon="9.514290209904772"><ele>17.0</ele><time>2026-04-25T15:27:42Z</time></trkpt><trkpt lat="40.908788285222215" lon="9.514388213208068"><ele>17.0</ele><time>2026-04-25T15:27:43Z</time></trkpt><trkpt lat="40.90882259945106" lon="9.514474931268433"><ele>17.0</ele><time>2026-04-25T15:27:44Z</time></trkpt><trkpt lat="40.90884898435099" lon="9.514558291270825"><ele>16.999999999999996</ele><time>2026-04-25T15:27:45Z</time></trkpt><trkpt lat="40.90886359469554" lon="9.514654374656775"><ele>17.0</ele><time>2026-04-25T15:27:46Z</time></trkpt><trkpt lat="40.908862625130986" lon="9.514765536975489"><ele>17.0</ele><time>2026-04-25T15:27:47Z</time></trkpt><trkpt lat="40.908846919402365" lon="9.514878659386673"><ele>17.0</ele><time>2026-04-25T15:27:48Z</time></trkpt><trkpt lat="40.908827765952445" lon="9.514977504334173"><ele>17.0</ele><time>2026-04-25T15:27:49Z</time></trkpt><trkpt lat="40.90880723476406" lon="9.51507983880026"><ele>17.0</ele><time>2026-04-25T15:27:50Z</time></trkpt><trkpt lat="40.908791663312094" lon="9.515194255502909"><ele>17.0</ele><time>2026-04-25T15:27:51Z</time></trkpt><trkpt lat="40.90878044492608" lon="9.515309529880252"><ele>17.0</ele><time>2026-04-25T15:27:52Z</time></trkpt><trkpt lat="40.908769728272034" lon="9.51542280152759"><ele>17.0</ele><time>2026-04-25T15:27:53Z</time></trkpt><trkpt lat="40.90876081744839" lon="9.515528898758909"><ele>17.0</ele><time>2026-04-25T15:27:54Z</time></trkpt><trkpt lat="40.908752417303425" lon="9.515621112224515"><ele>17.0</ele><time>2026-04-25T15:27:55Z</time></trkpt><trkpt lat="40.908743591295256" lon="9.515708654359104"><ele>17.0</ele><time>2026-04-25T15:27:56Z</time></trkpt><trkpt lat="40.90873560238121" lon="9.515806011864537"><ele>17.0</ele><time>2026-04-25T15:27:57Z</time></trkpt><trkpt lat="40.908726918003886" lon="9.515916468588744"><ele>17.0</ele><time>2026-04-25T15:27:58Z</time></trkpt><trkpt lat="40.908718964905354" lon="9.516015210311775"><ele>16.999999999999996</ele><time>2026-04-25T15:27:59Z</time></trkpt><trkpt lat="40.90871018996186" lon="9.516108197302357"><ele>17.0</ele><time>2026-04-25T15:28:00Z</time></trkpt><trkpt lat="40.90870346741053" lon="9.51619691101672"><ele>17.0</ele><time>2026-04-25T15:28:01Z</time></trkpt><trkpt lat="40.90869484659742" lon="9.516281443886642"><ele>17.0</ele><time>2026-04-25T15:28:02Z</time></trkpt><trkpt lat="40.90868771635241" lon="9.516365322702693"><ele>17.0</ele><time>2026-04-25T15:28:03Z</time></trkpt><trkpt lat="40.9086785485422" lon="9.51646532929274"><ele>16.999999999999996</ele><time>2026-04-25T15:28:04Z</time></trkpt><trkpt lat="40.90867330957518" lon="9.51657825830355"><ele>17.0</ele><time>2026-04-25T15:28:05Z</time></trkpt><trkpt lat="40.9086763813332" lon="9.516672652299773"><ele>16.5</ele><time>2026-04-25T15:28:06Z</time></trkpt><trkpt lat="40.90867925625244" lon="9.516766694904645"><ele>16.0</ele><time>2026-04-25T15:28:07Z</time></trkpt><trkpt lat="40.908681039164165" lon="9.516857326228404"><ele>15.5</ele><time>2026-04-25T15:28:08Z</time></trkpt><trkpt lat="40.90867102226981" lon="9.516977822239003"><ele>15.0</ele><time>2026-04-25T15:28:10Z</time></trkpt><trkpt lat="40.90865265474777" lon="9.517060301878098"><ele>14.500000000000002</ele><time>2026-04-25T15:28:13Z</time></trkpt><trkpt lat="40.90861209197699" lon="9.517159238756712"><ele>14.0</ele><time>2026-04-25T15:28:15Z</time></trkpt><trkpt lat="40.90853823130256" lon="9.517251891235878"><ele>13.799999999999999</ele><time>2026-04-25T15:28:17Z</time></trkpt><trkpt lat="40.9085093762015" lon="9.517380345990762"><ele>13.599999999999998</ele><time>2026-04-25T15:28:19Z</time></trkpt><trkpt lat="40.90856104107672" lon="9.517518794987662"><ele>13.4</ele><time>2026-04-25T15:28:21Z</time></trkpt><trkpt lat="40.90861229184557" lon="9.517582218713173"><ele>13.2</ele><time>2026-04-25T15:28:22Z</time></trkpt><trkpt lat="40.908661861488824" lon="9.517638225005834"><ele>13.0</ele><time>2026-04-25T15:28:23Z</time></trkpt><trkpt lat="40.908733352586154" lon="9.517758431531012"><ele>12.999999999999998</ele><time>2026-04-25T15:28:25Z</time></trkpt><trkpt lat="40.908758881629645" lon="9.51783983229104"><ele>13.0</ele><time>2026-04-25T15:28:26Z</time></trkpt><trkpt lat="40.90877726179691" lon="9.517932852455223"><ele>13.0</ele><time>2026-04-25T15:28:27Z</time></trkpt><trkpt lat="40.90877897431066" lon="9.518034870336834"><ele>13.0</ele><time>2026-04-25T15:28:28Z</time></trkpt><trkpt lat="40.908768911622296" lon="9.518155968503153"><ele>12.999999999999998</ele><time>2026-04-25T15:28:29Z</time></trkpt><trkpt lat="40.9087570212191" lon="9.518280404320102"><ele>13.0</ele><time>2026-04-25T15:28:30Z</time></trkpt><trkpt lat="40.90874368860862" lon="9.5184062703974"><ele>12.200000000000001</ele><time>2026-04-25T15:28:31Z</time></trkpt><trkpt lat="40.90872954611842" lon="9.518539860037901"><ele>11.4</ele><time>2026-04-25T15:28:32Z</time></trkpt><trkpt lat="40.90871492839309" lon="9.51868281061142"><ele>10.600000000000001</ele><time>2026-04-25T15:28:33Z</time></trkpt><trkpt lat="40.90870046344747" lon="9.518837789313107"><ele>9.8</ele><time>2026-04-25T15:28:34Z</time></trkpt><trkpt lat="40.908684999466914" lon="9.518988405889102"><ele>9.0</ele><time>2026-04-25T15:28:35Z</time></trkpt><trkpt lat="40.908669409097364" lon="9.519136387437657"><ele>8.8</ele><time>2026-04-25T15:28:36Z</time></trkpt><trkpt lat="40.90865436892818" lon="9.519281282095587"><ele>8.600000000000001</ele><time>2026-04-25T15:28:37Z</time></trkpt><trkpt lat="40.90864068854883" lon="9.519424407015679"><ele>8.4</ele><time>2026-04-25T15:28:38Z</time></trkpt><trkpt lat="40.90862718247842" lon="9.519573613776279"><ele>8.200000000000001</ele><time>2026-04-25T15:28:39Z</time></trkpt><trkpt lat="40.90860778346941" lon="9.519724572377015"><ele>8.0</ele><time>2026-04-25T15:28:40Z</time></trkpt><trkpt lat="40.908590948695" lon="9.519876636558854"><ele>8.0</ele><time>2026-04-25T15:28:41Z</time></trkpt><trkpt lat="40.908574640359184" lon="9.520029045288291"><ele>8.0</ele><time>2026-04-25T15:28:42Z</time></trkpt><trkpt lat="40.90855837736573" lon="9.520170572917408"><ele>8.0</ele><time>2026-04-25T15:28:43Z</time></trkpt><trkpt lat="40.908545116238756" lon="9.520313350666862"><ele>8.0</ele><time>2026-04-25T15:28:44Z</time></trkpt><trkpt lat="40.90853315490854" lon="9.520455822502115"><ele>8.0</ele><time>2026-04-25T15:28:45Z</time></trkpt><trkpt lat="40.9085207838775" lon="9.520589903675187"><ele>8.0</ele><time>2026-04-25T15:28:46Z</time></trkpt><trkpt lat="40.908507477662276" lon="9.52071277963217"><ele>8.0</ele><time>2026-04-25T15:28:47Z</time></trkpt><trkpt lat="40.908494093673184" lon="9.520829892523357"><ele>8.0</ele><time>2026-04-25T15:28:48Z</time></trkpt><trkpt lat="40.90847986289274" lon="9.52094428548226"><ele>8.0</ele><time>2026-04-25T15:28:48.999Z</time></trkpt><trkpt lat="40.90845704581659" lon="9.521061597510606"><ele>8.0</ele><time>2026-04-25T15:28:49.999Z</time></trkpt><trkpt lat="40.908425519193" lon="9.52117533321208"><ele>7.999999999999999</ele><time>2026-04-25T15:28:50.999Z</time></trkpt><trkpt lat="40.90838323133574" lon="9.521282825181752"><ele>8.0</ele><time>2026-04-25T15:28:51.999Z</time></trkpt><trkpt lat="40.90833581714429" lon="9.52137509719836"><ele>8.0</ele><time>2026-04-25T15:28:52.999Z</time></trkpt><trkpt lat="40.908282683567954" lon="9.52146632409417"><ele>8.0</ele><time>2026-04-25T15:28:53.999Z</time></trkpt><trkpt lat="40.90823186984339" lon="9.52155177282425"><ele>7.999999999999999</ele><time>2026-04-25T15:28:54.999Z</time></trkpt><trkpt lat="40.908195346591185" lon="9.521644782261886"><ele>8.0</ele><time>2026-04-25T15:28:55.999Z</time></trkpt><trkpt lat="40.908177676873485" lon="9.521746325892556"><ele>7.999999999999999</ele><time>2026-04-25T15:28:56.999Z</time></trkpt><trkpt lat="40.908174071739474" lon="9.521853732581981"><ele>8.0</ele><time>2026-04-25T15:28:57.999Z</time></trkpt><trkpt lat="40.90820723211992" lon="9.521957612253315"><ele>8.0</ele><time>2026-04-25T15:28:58.999Z</time></trkpt><trkpt lat="40.908267283206854" lon="9.522042098625569"><ele>8.0</ele><time>2026-04-25T15:28:59.999Z</time></trkpt><trkpt lat="40.90834286246185" lon="9.522095404629818"><ele>7.999999999999999</ele><time>2026-04-25T15:29:00.999Z</time></trkpt><trkpt lat="40.9084319668669" lon="9.52211324862107"><ele>8.0</ele><time>2026-04-25T15:29:01.999Z</time></trkpt><trkpt lat="40.90852621010442" lon="9.522097346256768"><ele>8.200000000000001</ele><time>2026-04-25T15:29:02.999Z</time></trkpt><trkpt lat="40.90862131076434" lon="9.522050546920074"><ele>8.4</ele><time>2026-04-25T15:29:03.999Z</time></trkpt><trkpt lat="40.90871916070488" lon="9.521990886924998"><ele>8.600000000000001</ele><time>2026-04-25T15:29:05Z</time></trkpt><trkpt lat="40.908817141220254" lon="9.521938907195793"><ele>8.8</ele><time>2026-04-25T15:29:06Z</time></trkpt><trkpt lat="40.90890642654248" lon="9.521913298304298"><ele>9.0</ele><time>2026-04-25T15:29:07Z</time></trkpt><trkpt lat="40.908990208351725" lon="9.521875801825061"><ele>9.0</ele><time>2026-04-25T15:29:08Z</time></trkpt><trkpt lat="40.909091181781584" lon="9.521902448685042"><ele>9.0</ele><time>2026-04-25T15:29:09Z</time></trkpt><trkpt lat="40.90917889321417" lon="9.521912878292836"><ele>9.0</ele><time>2026-04-25T15:29:10Z</time></trkpt><trkpt lat="40.909251023318795" lon="9.521927296481751"><ele>9.0</ele><time>2026-04-25T15:29:11Z</time></trkpt><trkpt lat="40.90932850840014" lon="9.522009080748301"><ele>9.0</ele><time>2026-04-25T15:29:13Z</time></trkpt><trkpt lat="40.90932741848308" lon="9.522186671548301"><ele>12.0</ele><time>2026-04-25T15:29:15Z</time></trkpt><trkpt lat="40.90931487096435" lon="9.522292016310393"><ele>12.0</ele><time>2026-04-25T15:29:16Z</time></trkpt><trkpt lat="40.909296400442784" lon="9.522436024043856"><ele>12.0</ele><time>2026-04-25T15:29:18Z</time></trkpt><trkpt lat="40.909299978864276" lon="9.522520216970682"><ele>12.0</ele><time>2026-04-25T15:29:20Z</time></trkpt></trkseg></trk></gpx>